<?xml version='1.0' encoding='UTF-8'?><gpx version="1.1" creator="JPX - https://github.com/jenetics/jpx" xmlns="http://www.topografix.com/GPX/1/1"><trk><trkseg><trkpt lat="40.93374228216607" lon="9.512303358433126"><ele>5.0</ele><time>2026-05-02T06:28:59.001Z</time></trkpt><trkpt lat="40.93368578619919" lon="9.512152943338927"><ele>5.0</ele><time>2026-05-02T06:29:00.001Z</time></trkpt><trkpt lat="40.93365813441431" lon="9.512001538924679"><ele>5.0</ele><time>2026-05-02T06:29:01.001Z</time></trkpt><trkpt lat="40.933493938827034" lon="9.511895803487446"><ele>5.0</ele><time>2026-05-02T06:29:02.001Z</time></trkpt><trkpt lat="40.93338248048137" lon="9.511727827636703"><ele>4.666666666666667</ele><time>2026-05-02T06:29:03.001Z</time></trkpt><trkpt lat="40.933275661624926" lon="9.511558481801101"><ele>4.333333333333333</ele><time>2026-05-02T06:29:04.001Z</time></trkpt><trkpt lat="40.93315315666535" lon="9.511399322401568"><ele>4.0</ele><time>2026-05-02T06:29:05.001Z</time></trkpt><trkpt lat="40.93302828883041" lon="9.511242924442909"><ele>3.6666666666666665</ele><time>2026-05-02T06:29:06.001Z</time></trkpt><trkpt lat="40.93280375266609" lon="9.510962904953923"><ele>3.333333333333333</ele><time>2026-05-02T06:29:08.001Z</time></trkpt><trkpt lat="40.93270247382013" lon="9.510848991703446"><ele>3.0</ele><time>2026-05-02T06:29:09.001Z</time></trkpt><trkpt lat="40.93261864669936" lon="9.510721961233186"><ele>3.0</ele><time>2026-05-02T06:29:10.001Z</time></trkpt><trkpt lat="40.93254097079158" lon="9.510582876834624"><ele>3.0</ele><time>2026-05-02T06:29:11.001Z</time></trkpt><trkpt lat="40.93249192917803" lon="9.51045183074152"><ele>3.0</ele><time>2026-05-02T06:29:12.001Z</time></trkpt><trkpt lat="40.93243724625688" lon="9.51028296195176"><ele>3.0</ele><time>2026-05-02T06:29:13.001Z</time></trkpt><trkpt lat="40.93235704402298" lon="9.510123734811373"><ele>2.5</ele><time>2026-05-02T06:29:14.001Z</time></trkpt><trkpt lat="40.9322940815741" lon="9.509953387709043"><ele>2.0</ele><time>2026-05-02T06:29:15.001Z</time></trkpt><trkpt lat="40.93224470718676" lon="9.509821569359026"><ele>1.5</ele><time>2026-05-02T06:29:16.001Z</time></trkpt><trkpt lat="40.93217942386386" lon="9.509699362787646"><ele>1.0</ele><time>2026-05-02T06:29:17.001Z</time></trkpt><trkpt lat="40.93209598557308" lon="9.509554894908417"><ele>1.25</ele><time>2026-05-02T06:29:18.001Z</time></trkpt><trkpt lat="40.93201130532161" lon="9.509420708934725"><ele>1.5</ele><time>2026-05-02T06:29:19.001Z</time></trkpt><trkpt lat="40.93189499996314" lon="9.50934831649082"><ele>1.75</ele><time>2026-05-02T06:29:20.001Z</time></trkpt><trkpt lat="40.93177185737731" lon="9.509236314718923"><ele>2.0</ele><time>2026-05-02T06:29:21.001Z</time></trkpt><trkpt lat="40.931649955925714" lon="9.509127187705039"><ele>2.0</ele><time>2026-05-02T06:29:22.001Z</time></trkpt><trkpt lat="40.93154290832867" lon="9.509032833269968"><ele>2.0</ele><time>2026-05-02T06:29:23.001Z</time></trkpt><trkpt lat="40.93137708290749" lon="9.508936927618981"><ele>2.0</ele><time>2026-05-02T06:29:24.001Z</time></trkpt><trkpt lat="40.9312233213814" lon="9.508953626715133"><ele>2.0</ele><time>2026-05-02T06:29:25.001Z</time></trkpt><trkpt lat="40.931069181557596" lon="9.509039118451325"><ele>2.0</ele><time>2026-05-02T06:29:26.001Z</time></trkpt><trkpt lat="40.930955585262645" lon="9.509173500922904"><ele>2.0</ele><time>2026-05-02T06:29:27.001Z</time></trkpt><trkpt lat="40.93087821306438" lon="9.509327038253332"><ele>2.0</ele><time>2026-05-02T06:29:28.001Z</time></trkpt><trkpt lat="40.93086129583348" lon="9.509489491021533"><ele>2.0</ele><time>2026-05-02T06:29:29.001Z</time></trkpt><trkpt lat="40.93087203436382" lon="9.509641107416426"><ele>2.0</ele><time>2026-05-02T06:29:30.001Z</time></trkpt><trkpt lat="40.93089139347841" lon="9.509809801825911"><ele>2.0</ele><time>2026-05-02T06:29:31.001Z</time></trkpt><trkpt lat="40.93089193957519" lon="9.50990669636635"><ele>2.0</ele><time>2026-05-02T06:29:32.001Z</time></trkpt><trkpt lat="40.9308727536144" lon="9.510085772928242"><ele>2.0</ele><time>2026-05-02T06:29:33.001Z</time></trkpt><trkpt lat="40.93109062794241" lon="9.50996723979921"><ele>2.0</ele><time>2026-05-02T06:29:34.001Z</time></trkpt><trkpt lat="40.93121242955832" lon="9.510057661861223"><ele>2.0</ele><time>2026-05-02T06:29:35.001Z</time></trkpt><trkpt lat="40.93134280490528" lon="9.51013058732782"><ele>2.0</ele><time>2026-05-02T06:29:36.001Z</time></trkpt><trkpt lat="40.93148406045178" lon="9.510206078562392"><ele>2.0</ele><time>2026-05-02T06:29:37.001Z</time></trkpt><trkpt lat="40.931621341875804" lon="9.510285488025284"><ele>2.0</ele><time>2026-05-02T06:29:38.001Z</time></trkpt><trkpt lat="40.93176554051359" lon="9.510385655991215"><ele>2.333333333333333</ele><time>2026-05-02T06:29:39.001Z</time></trkpt><trkpt lat="40.93191157156627" lon="9.510504884230958"><ele>2.6666666666666665</ele><time>2026-05-02T06:29:40.001Z</time></trkpt><trkpt lat="40.932055150523965" lon="9.510625466249213"><ele>3.0</ele><time>2026-05-02T06:29:41.001Z</time></trkpt><trkpt lat="40.93219730019668" lon="9.510751295395256"><ele>3.0</ele><time>2026-05-02T06:29:42.001Z</time></trkpt><trkpt lat="40.93233666315078" lon="9.510881460555044"><ele>3.0</ele><time>2026-05-02T06:29:42.999Z</time></trkpt><trkpt lat="40.93246848252953" lon="9.511019418904663"><ele>3.0</ele><time>2026-05-02T06:29:43.999Z</time></trkpt><trkpt lat="40.932596576677774" lon="9.511157957117009"><ele>3.333333333333333</ele><time>2026-05-02T06:29:44.999Z</time></trkpt><trkpt lat="40.932728047005156" lon="9.511290836433284"><ele>3.6666666666666665</ele><time>2026-05-02T06:29:45.999Z</time></trkpt><trkpt lat="40.93286451807383" lon="9.511420168502958"><ele>4.0</ele><time>2026-05-02T06:29:46.999Z</time></trkpt><trkpt lat="40.93300849481652" lon="9.5115546958843"><ele>4.0</ele><time>2026-05-02T06:29:47.999Z</time></trkpt><trkpt lat="40.93314696546956" lon="9.511681543976907"><ele>4.0</ele><time>2026-05-02T06:29:48.999Z</time></trkpt><trkpt lat="40.93329516823449" lon="9.51184591030614"><ele>4.0</ele><time>2026-05-02T06:29:49.999Z</time></trkpt><trkpt lat="40.933420694261805" lon="9.511984947548681"><ele>4.333333333333333</ele><time>2026-05-02T06:29:50.999Z</time></trkpt><trkpt lat="40.93353793510919" lon="9.51213971834583"><ele>4.666666666666667</ele><time>2026-05-02T06:29:51.999Z</time></trkpt><trkpt lat="40.93363733448592" lon="9.51231108705454"><ele>5.0</ele><time>2026-05-02T06:29:52.999Z</time></trkpt><trkpt lat="40.93371457219595" lon="9.512506523662541"><ele>5.0</ele><time>2026-05-02T06:29:53.999Z</time></trkpt><trkpt lat="40.93377052520984" lon="9.512714078965388"><ele>5.0</ele><time>2026-05-02T06:29:54.999Z</time></trkpt><trkpt lat="40.933797409928324" lon="9.512944702712836"><ele>5.0</ele><time>2026-05-02T06:29:55.999Z</time></trkpt><trkpt lat="40.933847038289244" lon="9.513150154188947"><ele>5.0</ele><time>2026-05-02T06:29:56.999Z</time></trkpt><trkpt lat="40.933898593822136" lon="9.51335228704068"><ele>5.0</ele><time>2026-05-02T06:29:57.999Z</time></trkpt><trkpt lat="40.93397869546386" lon="9.513538573005002"><ele>5.0</ele><time>2026-05-02T06:29:58.999Z</time></trkpt><trkpt lat="40.93400415733705" lon="9.513761840381823"><ele>5.0</ele><time>2026-05-02T06:29:59.999Z</time></trkpt><trkpt lat="40.93405317551266" lon="9.513975165502394"><ele>5.0</ele><time>2026-05-02T06:30:00.999Z</time></trkpt><trkpt lat="40.93410094414686" lon="9.514185920198356"><ele>5.0</ele><time>2026-05-02T06:30:01.999Z</time></trkpt><trkpt lat="40.93415190949438" lon="9.514393914309252"><ele>5.0</ele><time>2026-05-02T06:30:02.999Z</time></trkpt><trkpt lat="40.93420158507476" lon="9.514603453558905"><ele>5.0</ele><time>2026-05-02T06:30:03.999Z</time></trkpt><trkpt lat="40.93424603897014" lon="9.514816949282011"><ele>5.0</ele><time>2026-05-02T06:30:04.999Z</time></trkpt><trkpt lat="40.93429488083747" lon="9.515030399803512"><ele>5.333333333333334</ele><time>2026-05-02T06:30:05.999Z</time></trkpt><trkpt lat="40.934345808398845" lon="9.515242354833553"><ele>5.666666666666667</ele><time>2026-05-02T06:30:06.999Z</time></trkpt><trkpt lat="40.93439655893099" lon="9.515449037330715"><ele>6.0</ele><time>2026-05-02T06:30:07.999Z</time></trkpt><trkpt lat="40.93446310795396" lon="9.515623717923088"><ele>5.6</ele><time>2026-05-02T06:30:09Z</time></trkpt><trkpt lat="40.93451460959791" lon="9.515787994409997"><ele>5.199999999999999</ele><time>2026-05-02T06:30:10Z</time></trkpt><trkpt lat="40.93454563390978" lon="9.515927040924389"><ele>4.800000000000001</ele><time>2026-05-02T06:30:11Z</time></trkpt><trkpt lat="40.93455405555089" lon="9.516048901029201"><ele>4.4</ele><time>2026-05-02T06:30:12Z</time></trkpt><trkpt lat="40.93455831965312" lon="9.51618850031693"><ele>4.0</ele><time>2026-05-02T06:30:13Z</time></trkpt><trkpt lat="40.934557727574465" lon="9.516370411411538"><ele>4.5</ele><time>2026-05-02T06:30:14Z</time></trkpt><trkpt lat="40.93458343132314" lon="9.516542426504651"><ele>5.0</ele><time>2026-05-02T06:30:15Z</time></trkpt><trkpt lat="40.934654464504085" lon="9.516715039862497"><ele>5.5</ele><time>2026-05-02T06:30:16Z</time></trkpt><trkpt lat="40.934724259633136" lon="9.516913348453928"><ele>6.0</ele><time>2026-05-02T06:30:17Z</time></trkpt><trkpt lat="40.934770550144286" lon="9.517121500379368"><ele>6.0</ele><time>2026-05-02T06:30:18Z</time></trkpt><trkpt lat="40.93481457368248" lon="9.517346426415378"><ele>6.0</ele><time>2026-05-02T06:30:19Z</time></trkpt><trkpt lat="40.934865810107" lon="9.517587800318498"><ele>6.0</ele><time>2026-05-02T06:30:20Z</time></trkpt><trkpt lat="40.93491186699149" lon="9.51784259242026"><ele>6.333333333333334</ele><time>2026-05-02T06:30:21Z</time></trkpt><trkpt lat="40.93494941229227" lon="9.518117626611465"><ele>6.666666666666667</ele><time>2026-05-02T06:30:22Z</time></trkpt><trkpt lat="40.93496547315732" lon="9.518410612841489"><ele>7.0</ele><time>2026-05-02T06:30:23Z</time></trkpt><trkpt lat="40.9349801204636" lon="9.518698660761054"><ele>6.666666666666667</ele><time>2026-05-02T06:30:24Z</time></trkpt><trkpt lat="40.934988594632294" lon="9.518954923984657"><ele>6.333333333333334</ele><time>2026-05-02T06:30:25Z</time></trkpt><trkpt lat="40.935000460430224" lon="9.519206660617627"><ele>6.0</ele><time>2026-05-02T06:30:26Z</time></trkpt><trkpt lat="40.93500954710881" lon="9.51945084231311"><ele>5.333333333333333</ele><time>2026-05-02T06:30:27Z</time></trkpt><trkpt lat="40.93501735286876" lon="9.519700260476382"><ele>4.666666666666666</ele><time>2026-05-02T06:30:28Z</time></trkpt><trkpt lat="40.93503639490363" lon="9.519940262734822"><ele>4.0</ele><time>2026-05-02T06:30:29Z</time></trkpt><trkpt lat="40.935049098203805" lon="9.520169646539342"><ele>4.0</ele><time>2026-05-02T06:30:30Z</time></trkpt><trkpt lat="40.93506728108253" lon="9.520387879882872"><ele>4.0</ele><time>2026-05-02T06:30:31Z</time></trkpt><trkpt lat="40.93508079562545" lon="9.520586084518644"><ele>4.0</ele><time>2026-05-02T06:30:32Z</time></trkpt><trkpt lat="40.93508914081635" lon="9.520773640570136"><ele>4.0</ele><time>2026-05-02T06:30:33Z</time></trkpt><trkpt lat="40.935068474534866" lon="9.520953242087984"><ele>4.0</ele><time>2026-05-02T06:30:34Z</time></trkpt><trkpt lat="40.935050225944" lon="9.521136068809714"><ele>4.0</ele><time>2026-05-02T06:30:35Z</time></trkpt><trkpt lat="40.935088331778" lon="9.521331343389651"><ele>4.0</ele><time>2026-05-02T06:30:36Z</time></trkpt><trkpt lat="40.935134015307355" lon="9.521547568609838"><ele>4.0</ele><time>2026-05-02T06:30:37Z</time></trkpt><trkpt lat="40.93514702234203" lon="9.521758187806673"><ele>4.0</ele><time>2026-05-02T06:30:38Z</time></trkpt><trkpt lat="40.93514985520253" lon="9.521980417292742"><ele>4.0</ele><time>2026-05-02T06:30:39Z</time></trkpt><trkpt lat="40.93515117137405" lon="9.522213630487014"><ele>3.6666666666666665</ele><time>2026-05-02T06:30:40Z</time></trkpt><trkpt lat="40.93515462821706" lon="9.522457272561088"><ele>3.333333333333333</ele><time>2026-05-02T06:30:41Z</time></trkpt><trkpt lat="40.93516566380365" lon="9.522697489238285"><ele>3.0</ele><time>2026-05-02T06:30:42Z</time></trkpt><trkpt lat="40.93518264863867" lon="9.52294333706377"><ele>3.0</ele><time>2026-05-02T06:30:43Z</time></trkpt><trkpt lat="40.935197779349835" lon="9.523181701626639"><ele>3.0</ele><time>2026-05-02T06:30:44Z</time></trkpt><trkpt lat="40.9352115734623" lon="9.523420949117384"><ele>3.0</ele><time>2026-05-02T06:30:45Z</time></trkpt><trkpt lat="40.93522501202206" lon="9.523664188555047"><ele>2.3333333333333335</ele><time>2026-05-02T06:30:46Z</time></trkpt><trkpt lat="40.935238033995354" lon="9.523915023632489"><ele>1.6666666666666665</ele><time>2026-05-02T06:30:47Z</time></trkpt><trkpt lat="40.93524818538689" lon="9.524170707763423"><ele>1.0</ele><time>2026-05-02T06:30:48Z</time></trkpt><trkpt lat="40.93525864290105" lon="9.524422374654163"><ele>0.6666666666666666</ele><time>2026-05-02T06:30:49Z</time></trkpt><trkpt lat="40.93527178722595" lon="9.524670978929048"><ele>0.3333333333333333</ele><time>2026-05-02T06:30:50Z</time></trkpt><trkpt lat="40.93528436940328" lon="9.524951793339564"><ele>0.0</ele><time>2026-05-02T06:30:51Z</time></trkpt><trkpt lat="40.935285663565985" lon="9.525233897289986"><ele>0.0</ele><time>2026-05-02T06:30:52Z</time></trkpt><trkpt lat="40.93531193174828" lon="9.52549869828085"><ele>0.0</ele><time>2026-05-02T06:30:53Z</time></trkpt><trkpt lat="40.93532917796706" lon="9.525750589106035"><ele>0.0</ele><time>2026-05-02T06:30:54Z</time></trkpt><trkpt lat="40.935345573448416" lon="9.52598272258994"><ele>0.0</ele><time>2026-05-02T06:30:55Z</time></trkpt><trkpt lat="40.93536463327226" lon="9.526185256682854"><ele>0.0</ele><time>2026-05-02T06:30:56Z</time></trkpt><trkpt lat="40.93537824591943" lon="9.526333160508162"><ele>0.0</ele><time>2026-05-02T06:30:57Z</time></trkpt><trkpt lat="40.93537923719236" lon="9.52641934432335"><ele>0.0</ele><time>2026-05-02T06:30:58Z</time></trkpt><trkpt lat="40.93535231679076" lon="9.526535895291671"><ele>0.0</ele><time>2026-05-02T06:31:01Z</time></trkpt><trkpt lat="40.93532783139799" lon="9.526622754530957"><ele>0.0</ele><time>2026-05-02T06:31:02Z</time></trkpt><trkpt lat="40.93531993316452" lon="9.526725634128658"><ele>0.0</ele><time>2026-05-02T06:31:03Z</time></trkpt><trkpt lat="40.935341102648266" lon="9.526836812146744"><ele>0.0</ele><time>2026-05-02T06:31:04Z</time></trkpt><trkpt lat="40.935390004633696" lon="9.526994880741302"><ele>0.0</ele><time>2026-05-02T06:31:05Z</time></trkpt><trkpt lat="40.93542465799044" lon="9.527187007983104"><ele>0.0</ele><time>2026-05-02T06:31:06Z</time></trkpt><trkpt lat="40.93541806633542" lon="9.527451000416601"><ele>0.0</ele><time>2026-05-02T06:31:07Z</time></trkpt><trkpt lat="40.93541653163486" lon="9.527689309454317"><ele>0.0</ele><time>2026-05-02T06:31:08Z</time></trkpt><trkpt lat="40.93541970591092" lon="9.527960937134834"><ele>0.0</ele><time>2026-05-02T06:31:09Z</time></trkpt><trkpt lat="40.935437875773424" lon="9.528240044679906"><ele>0.0</ele><time>2026-05-02T06:31:10Z</time></trkpt><trkpt lat="40.93546168526054" lon="9.528528012899244"><ele>0.0</ele><time>2026-05-02T06:31:11Z</time></trkpt><trkpt lat="40.93548611128342" lon="9.528856521863833"><ele>1.0</ele><time>2026-05-02T06:31:12Z</time></trkpt><trkpt lat="40.935513283744" lon="9.52920819142942"><ele>2.0</ele><time>2026-05-02T06:31:13Z</time></trkpt><trkpt lat="40.93555442523032" lon="9.529552605752821"><ele>2.5</ele><time>2026-05-02T06:31:14Z</time></trkpt><trkpt lat="40.93560327915401" lon="9.529894563650432"><ele>3.0</ele><time>2026-05-02T06:31:15Z</time></trkpt><trkpt lat="40.935649945805515" lon="9.53023888204758"><ele>4.0</ele><time>2026-05-02T06:31:16Z</time></trkpt><trkpt lat="40.93568835449293" lon="9.530578480899305"><ele>5.0</ele><time>2026-05-02T06:31:17Z</time></trkpt><trkpt lat="40.93570964557941" lon="9.530915720239713"><ele>4.5</ele><time>2026-05-02T06:31:18Z</time></trkpt><trkpt lat="40.93573468373293" lon="9.531249011773928"><ele>4.0</ele><time>2026-05-02T06:31:19Z</time></trkpt><trkpt lat="40.935739691652714" lon="9.531573437814835"><ele>4.0</ele><time>2026-05-02T06:31:20Z</time></trkpt><trkpt lat="40.93573514576378" lon="9.531892571679087"><ele>4.0</ele><time>2026-05-02T06:31:21Z</time></trkpt><trkpt lat="40.93572751741325" lon="9.532213782453292"><ele>4.5</ele><time>2026-05-02T06:31:22Z</time></trkpt><trkpt lat="40.93571286763881" lon="9.532537239413534"><ele>5.0</ele><time>2026-05-02T06:31:23Z</time></trkpt><trkpt lat="40.93568665557488" lon="9.532858038465715"><ele>5.0</ele><time>2026-05-02T06:31:24Z</time></trkpt><trkpt lat="40.935642591161404" lon="9.533174763946096"><ele>5.0</ele><time>2026-05-02T06:31:25Z</time></trkpt><trkpt lat="40.93557898164202" lon="9.533472792307151"><ele>4.666666666666667</ele><time>2026-05-02T06:31:26Z</time></trkpt><trkpt lat="40.93551492273541" lon="9.533749130053343"><ele>4.333333333333333</ele><time>2026-05-02T06:31:27Z</time></trkpt><trkpt lat="40.935465567911294" lon="9.534015377652612"><ele>4.0</ele><time>2026-05-02T06:31:28Z</time></trkpt><trkpt lat="40.93541434613568" lon="9.53426676292426"><ele>4.0</ele><time>2026-05-02T06:31:29Z</time></trkpt><trkpt lat="40.93536220724871" lon="9.534503758704181"><ele>4.0</ele><time>2026-05-02T06:31:30Z</time></trkpt><trkpt lat="40.93529926749847" lon="9.534710895490363"><ele>4.0</ele><time>2026-05-02T06:31:31.001Z</time></trkpt><trkpt lat="40.935217529591014" lon="9.534879298387514"><ele>4.0</ele><time>2026-05-02T06:31:32.001Z</time></trkpt><trkpt lat="40.93511064942158" lon="9.535015108571248"><ele>4.0</ele><time>2026-05-02T06:31:33.001Z</time></trkpt><trkpt lat="40.93499302088151" lon="9.535135511983729"><ele>4.0</ele><time>2026-05-02T06:31:34.001Z</time></trkpt><trkpt lat="40.93492105161682" lon="9.53533315435079"><ele>5.0</ele><time>2026-05-02T06:31:35.001Z</time></trkpt><trkpt lat="40.9348591286944" lon="9.535514028551457"><ele>6.0</ele><time>2026-05-02T06:31:36.001Z</time></trkpt><trkpt lat="40.934842596744055" lon="9.53570613163173"><ele>7.0</ele><time>2026-05-02T06:31:37.001Z</time></trkpt><trkpt lat="40.93482824284489" lon="9.535905606373927"><ele>8.0</ele><time>2026-05-02T06:31:38.001Z</time></trkpt><trkpt lat="40.93481585000365" lon="9.53610179070242"><ele>8.666666666666666</ele><time>2026-05-02T06:31:39.001Z</time></trkpt><trkpt lat="40.934788989044044" lon="9.536304546149902"><ele>9.333333333333334</ele><time>2026-05-02T06:31:40.001Z</time></trkpt><trkpt lat="40.934752742405" lon="9.536511131752238"><ele>10.0</ele><time>2026-05-02T06:31:41.001Z</time></trkpt><trkpt lat="40.934703308644586" lon="9.536723028276466"><ele>10.0</ele><time>2026-05-02T06:31:42.001Z</time></trkpt><trkpt lat="40.93462653028466" lon="9.536942895155997"><ele>10.0</ele><time>2026-05-02T06:31:43.001Z</time></trkpt><trkpt lat="40.934534276930535" lon="9.53715469667722"><ele>10.0</ele><time>2026-05-02T06:31:44.001Z</time></trkpt><trkpt lat="40.93441418414906" lon="9.537360379127241"><ele>10.0</ele><time>2026-05-02T06:31:45.001Z</time></trkpt><trkpt lat="40.93427010791497" lon="9.537553839485515"><ele>10.0</ele><time>2026-05-02T06:31:46.001Z</time></trkpt><trkpt lat="40.93410442453695" lon="9.537740436748724"><ele>10.0</ele><time>2026-05-02T06:31:47.001Z</time></trkpt><trkpt lat="40.93394088374546" lon="9.537916992203348"><ele>10.0</ele><time>2026-05-02T06:31:48.001Z</time></trkpt><trkpt lat="40.93377799570468" lon="9.538079858264405"><ele>10.0</ele><time>2026-05-02T06:31:49Z</time></trkpt><trkpt lat="40.933637881881545" lon="9.538248654825198"><ele>10.0</ele><time>2026-05-02T06:31:50Z</time></trkpt><trkpt lat="40.93352625620603" lon="9.538420207959764"><ele>10.0</ele><time>2026-05-02T06:31:51Z</time></trkpt><trkpt lat="40.933447827506455" lon="9.538603993842909"><ele>10.0</ele><time>2026-05-02T06:31:52Z</time></trkpt><trkpt lat="40.933420037931626" lon="9.538788275148766"><ele>10.0</ele><time>2026-05-02T06:31:53Z</time></trkpt><trkpt lat="40.93342063064099" lon="9.539003605538337"><ele>10.0</ele><time>2026-05-02T06:31:54Z</time></trkpt><trkpt lat="40.93348497192113" lon="9.539217079014954"><ele>10.0</ele><time>2026-05-02T06:31:55Z</time></trkpt><trkpt lat="40.93357061594643" lon="9.539429627172627"><ele>10.0</ele><time>2026-05-02T06:31:56Z</time></trkpt><trkpt lat="40.93368376882144" lon="9.539666037807805"><ele>10.666666666666668</ele><time>2026-05-02T06:31:57Z</time></trkpt><trkpt lat="40.93381078909228" lon="9.539890334563857"><ele>11.333333333333334</ele><time>2026-05-02T06:31:58Z</time></trkpt><trkpt lat="40.933940021411" lon="9.540076981889381"><ele>12.0</ele><time>2026-05-02T06:31:59Z</time></trkpt><trkpt lat="40.934075317678705" lon="9.54021100969092"><ele>16.666666666666664</ele><time>2026-05-02T06:32:00Z</time></trkpt><trkpt lat="40.934225131973704" lon="9.540312678983078"><ele>21.333333333333332</ele><time>2026-05-02T06:32:01Z</time></trkpt><trkpt lat="40.93436968944348" lon="9.540393496628807"><ele>26.0</ele><time>2026-05-02T06:32:02Z</time></trkpt><trkpt lat="40.934478983698206" lon="9.540499064710433"><ele>27.0</ele><time>2026-05-02T06:32:03Z</time></trkpt><trkpt lat="40.93456721428215" lon="9.54066131843212"><ele>28.0</ele><time>2026-05-02T06:32:04Z</time></trkpt><trkpt lat="40.93463147520687" lon="9.540866754156145"><ele>29.0</ele><time>2026-05-02T06:32:05Z</time></trkpt><trkpt lat="40.9346584177406" lon="9.541086970164756"><ele>29.333333333333332</ele><time>2026-05-02T06:32:06Z</time></trkpt><trkpt lat="40.93467328386711" lon="9.54134439193082"><ele>29.666666666666664</ele><time>2026-05-02T06:32:07Z</time></trkpt><trkpt lat="40.93469514471514" lon="9.541638001573581"><ele>30.0</ele><time>2026-05-02T06:32:08Z</time></trkpt><trkpt lat="40.934725126483166" lon="9.541947429795636"><ele>30.0</ele><time>2026-05-02T06:32:09Z</time></trkpt><trkpt lat="40.93474602596588" lon="9.542283099289387"><ele>30.0</ele><time>2026-05-02T06:32:10Z</time></trkpt><trkpt lat="40.93475278321913" lon="9.542640564969112"><ele>30.5</ele><time>2026-05-02T06:32:11Z</time></trkpt><trkpt lat="40.93476222291352" lon="9.542985361020126"><ele>31.0</ele><time>2026-05-02T06:32:12Z</time></trkpt><trkpt lat="40.93478798737371" lon="9.543308959100177"><ele>31.0</ele><time>2026-05-02T06:32:13Z</time></trkpt><trkpt lat="40.93482663469121" lon="9.543596469742576"><ele>31.0</ele><time>2026-05-02T06:32:14Z</time></trkpt><trkpt lat="40.934861795315456" lon="9.543865153862674"><ele>31.0</ele><time>2026-05-02T06:32:15Z</time></trkpt><trkpt lat="40.93488691657981" lon="9.544115888496135"><ele>32.0</ele><time>2026-05-02T06:32:16Z</time></trkpt><trkpt lat="40.93489748382107" lon="9.54435986690707"><ele>33.0</ele><time>2026-05-02T06:32:17Z</time></trkpt><trkpt lat="40.934928400801205" lon="9.544597364504641"><ele>34.0</ele><time>2026-05-02T06:32:18Z</time></trkpt><trkpt lat="40.934939064174344" lon="9.544855668296158"><ele>35.0</ele><time>2026-05-02T06:32:19Z</time></trkpt><trkpt lat="40.93495754358438" lon="9.545121974981404"><ele>36.0</ele><time>2026-05-02T06:32:20Z</time></trkpt><trkpt lat="40.934979209392054" lon="9.545390145853608"><ele>37.0</ele><time>2026-05-02T06:32:21Z</time></trkpt><trkpt lat="40.935001274094645" lon="9.54565680409341"><ele>37.333333333333336</ele><time>2026-05-02T06:32:22Z</time></trkpt><trkpt lat="40.93502070881033" lon="9.545923856291854"><ele>37.666666666666664</ele><time>2026-05-02T06:32:23Z</time></trkpt><trkpt lat="40.93503661648867" lon="9.546191798286639"><ele>38.0</ele><time>2026-05-02T06:32:24Z</time></trkpt><trkpt lat="40.93505378201678" lon="9.546459891613107"><ele>44.33333333333333</ele><time>2026-05-02T06:32:25Z</time></trkpt><trkpt lat="40.935071437690794" lon="9.546735395122049"><ele>50.666666666666664</ele><time>2026-05-02T06:32:26Z</time></trkpt><trkpt lat="40.93509054118051" lon="9.547017870613516"><ele>57.0</ele><time>2026-05-02T06:32:27Z</time></trkpt><trkpt lat="40.935112461760376" lon="9.54730829155602"><ele>58.5</ele><time>2026-05-02T06:32:28Z</time></trkpt><trkpt lat="40.93513695432348" lon="9.547616053827605"><ele>60.0</ele><time>2026-05-02T06:32:29Z</time></trkpt><trkpt lat="40.935158945418394" lon="9.547929964938971"><ele>62.0</ele><time>2026-05-02T06:32:30Z</time></trkpt><trkpt lat="40.935186907902015" lon="9.548239844386657"><ele>64.0</ele><time>2026-05-02T06:32:31Z</time></trkpt><trkpt lat="40.93522684390373" lon="9.548525404426728"><ele>60.0</ele><time>2026-05-02T06:32:32Z</time></trkpt><trkpt lat="40.93528650193699" lon="9.548789688964835"><ele>56.0</ele><time>2026-05-02T06:32:33Z</time></trkpt><trkpt lat="40.93537039813175" lon="9.54903427375247"><ele>52.0</ele><time>2026-05-02T06:32:34Z</time></trkpt><trkpt lat="40.935477625271176" lon="9.549248132101258"><ele>52.0</ele><time>2026-05-02T06:32:35Z</time></trkpt><trkpt lat="40.935603553121226" lon="9.54944810434951"><ele>52.0</ele><time>2026-05-02T06:32:36.001Z</time></trkpt><trkpt lat="40.93573366860595" lon="9.54964444391619"><ele>52.0</ele><time>2026-05-02T06:32:37.001Z</time></trkpt><trkpt lat="40.93586891892663" lon="9.54985897488011"><ele>51.5</ele><time>2026-05-02T06:32:38.001Z</time></trkpt><trkpt lat="40.93600242439996" lon="9.550103522026436"><ele>51.0</ele><time>2026-05-02T06:32:39.001Z</time></trkpt><trkpt lat="40.93614541980454" lon="9.550364940264556"><ele>43.0</ele><time>2026-05-02T06:32:40.001Z</time></trkpt><trkpt lat="40.93629848005906" lon="9.550636608911153"><ele>35.0</ele><time>2026-05-02T06:32:41.001Z</time></trkpt><trkpt lat="40.936445341136086" lon="9.55090734789473"><ele>35.0</ele><time>2026-05-02T06:32:42.001Z</time></trkpt><trkpt lat="40.936594145166836" lon="9.551181497077224"><ele>35.0</ele><time>2026-05-02T06:32:43.001Z</time></trkpt><trkpt lat="40.93675368408451" lon="9.55145879658533"><ele>30.5</ele><time>2026-05-02T06:32:44.001Z</time></trkpt><trkpt lat="40.936903150120884" lon="9.551725048917506"><ele>26.0</ele><time>2026-05-02T06:32:45.001Z</time></trkpt><trkpt lat="40.93706081634259" lon="9.551991423617388"><ele>23.0</ele><time>2026-05-02T06:32:46.001Z</time></trkpt><trkpt lat="40.937201235473836" lon="9.552267753158743"><ele>20.0</ele><time>2026-05-02T06:32:47.001Z</time></trkpt><trkpt lat="40.93729884465496" lon="9.552549428053812"><ele>20.0</ele><time>2026-05-02T06:32:48.001Z</time></trkpt><trkpt lat="40.93738331232742" lon="9.552861453064335"><ele>20.0</ele><time>2026-05-02T06:32:49.001Z</time></trkpt><trkpt lat="40.93745750433713" lon="9.553185380445056"><ele>19.5</ele><time>2026-05-02T06:32:50.001Z</time></trkpt><trkpt lat="40.93753237982574" lon="9.553509397780585"><ele>19.0</ele><time>2026-05-02T06:32:51.001Z</time></trkpt><trkpt lat="40.937614289947376" lon="9.553829143326444"><ele>23.0</ele><time>2026-05-02T06:32:52.001Z</time></trkpt><trkpt lat="40.937694761257376" lon="9.554156927961769"><ele>27.0</ele><time>2026-05-02T06:32:53.001Z</time></trkpt><trkpt lat="40.93777385705517" lon="9.554478384266378"><ele>24.5</ele><time>2026-05-02T06:32:54.001Z</time></trkpt><trkpt lat="40.937854297065265" lon="9.554808231238948"><ele>22.0</ele><time>2026-05-02T06:32:55.001Z</time></trkpt><trkpt lat="40.93793137742488" lon="9.555135216922654"><ele>20.5</ele><time>2026-05-02T06:32:56.001Z</time></trkpt><trkpt lat="40.938019887100744" lon="9.555462207337062"><ele>19.0</ele><time>2026-05-02T06:32:57.001Z</time></trkpt><trkpt lat="40.93810421266753" lon="9.555783378477235"><ele>19.0</ele><time>2026-05-02T06:32:58.001Z</time></trkpt><trkpt lat="40.938194052525084" lon="9.556105892611495"><ele>19.0</ele><time>2026-05-02T06:32:59.001Z</time></trkpt><trkpt lat="40.93829035001197" lon="9.556421539811863"><ele>19.0</ele><time>2026-05-02T06:33:00.001Z</time></trkpt><trkpt lat="40.938396480150224" lon="9.556737512814287"><ele>19.0</ele><time>2026-05-02T06:33:01.001Z</time></trkpt><trkpt lat="40.93850733442136" lon="9.557043954548556"><ele>17.0</ele><time>2026-05-02T06:33:02.001Z</time></trkpt><trkpt lat="40.93861662628837" lon="9.557357262320833"><ele>15.0</ele><time>2026-05-02T06:33:03.001Z</time></trkpt><trkpt lat="40.938723673631216" lon="9.557677885611724"><ele>13.5</ele><time>2026-05-02T06:33:04.001Z</time></trkpt><trkpt lat="40.93883370416313" lon="9.5580062400251"><ele>12.0</ele><time>2026-05-02T06:33:05.001Z</time></trkpt><trkpt lat="40.93894790215165" lon="9.558336863401177"><ele>12.0</ele><time>2026-05-02T06:33:06.001Z</time></trkpt><trkpt lat="40.93906747176533" lon="9.558681289726989"><ele>12.0</ele><time>2026-05-02T06:33:07.001Z</time></trkpt><trkpt lat="40.93919101010342" lon="9.55902681429711"><ele>12.0</ele><time>2026-05-02T06:33:08.001Z</time></trkpt><trkpt lat="40.93930878598073" lon="9.55937452989806"><ele>12.0</ele><time>2026-05-02T06:33:09.001Z</time></trkpt><trkpt lat="40.93942358926503" lon="9.559714642979126"><ele>12.5</ele><time>2026-05-02T06:33:10.001Z</time></trkpt><trkpt lat="40.93954164382107" lon="9.56005410969292"><ele>13.0</ele><time>2026-05-02T06:33:11.001Z</time></trkpt><trkpt lat="40.9396569305486" lon="9.560387859020606"><ele>13.0</ele><time>2026-05-02T06:33:12.001Z</time></trkpt><trkpt lat="40.93976801867566" lon="9.560713071050321"><ele>13.0</ele><time>2026-05-02T06:33:13.001Z</time></trkpt><trkpt lat="40.93987409092418" lon="9.561032323640065"><ele>14.5</ele><time>2026-05-02T06:33:14.001Z</time></trkpt><trkpt lat="40.93998424548296" lon="9.561357087171107"><ele>16.0</ele><time>2026-05-02T06:33:15.001Z</time></trkpt><trkpt lat="40.9401090133347" lon="9.561683968643871"><ele>16.0</ele><time>2026-05-02T06:33:16.001Z</time></trkpt><trkpt lat="40.940212053582975" lon="9.562005647067151"><ele>16.0</ele><time>2026-05-02T06:33:17.001Z</time></trkpt><trkpt lat="40.94032175656881" lon="9.562317740318154"><ele>13.5</ele><time>2026-05-02T06:33:18.001Z</time></trkpt><trkpt lat="40.940426433871785" lon="9.562637538330007"><ele>11.0</ele><time>2026-05-02T06:33:19.001Z</time></trkpt><trkpt lat="40.94052635515322" lon="9.562933188882806"><ele>11.0</ele><time>2026-05-02T06:33:20.001Z</time></trkpt><trkpt lat="40.940627977598645" lon="9.563203567632755"><ele>11.0</ele><time>2026-05-02T06:33:21.001Z</time></trkpt><trkpt lat="40.94075291920309" lon="9.563439534059459"><ele>11.0</ele><time>2026-05-02T06:33:22.001Z</time></trkpt><trkpt lat="40.94091334447073" lon="9.563642743095762"><ele>9.0</ele><time>2026-05-02T06:33:23.001Z</time></trkpt><trkpt lat="40.94110763849593" lon="9.563817258985882"><ele>7.0</ele><time>2026-05-02T06:33:24.001Z</time></trkpt><trkpt lat="40.94132822688891" lon="9.563976508034276"><ele>7.0</ele><time>2026-05-02T06:33:25.001Z</time></trkpt><trkpt lat="40.941545912724" lon="9.564142534652634"><ele>7.0</ele><time>2026-05-02T06:33:26.001Z</time></trkpt><trkpt lat="40.94175513376453" lon="9.56431371255523"><ele>7.0</ele><time>2026-05-02T06:33:27.001Z</time></trkpt><trkpt lat="40.94196182341264" lon="9.564490742448667"><ele>7.0</ele><time>2026-05-02T06:33:28.001Z</time></trkpt><trkpt lat="40.942163607326556" lon="9.564664158202717"><ele>6.5</ele><time>2026-05-02T06:33:29.001Z</time></trkpt><trkpt lat="40.94237063224613" lon="9.564835964333232"><ele>6.0</ele><time>2026-05-02T06:33:30.001Z</time></trkpt><trkpt lat="40.94257113530891" lon="9.56500613410806"><ele>7.0</ele><time>2026-05-02T06:33:31.001Z</time></trkpt><trkpt lat="40.94276899953084" lon="9.565175334289036"><ele>8.0</ele><time>2026-05-02T06:33:32.001Z</time></trkpt><trkpt lat="40.94295891189725" lon="9.565340954541433"><ele>8.666666666666666</ele><time>2026-05-02T06:33:33.001Z</time></trkpt><trkpt lat="40.943139595496426" lon="9.565498803835677"><ele>9.333333333333334</ele><time>2026-05-02T06:33:34.001Z</time></trkpt><trkpt lat="40.9433176946028" lon="9.565650972971781"><ele>10.0</ele><time>2026-05-02T06:33:35.001Z</time></trkpt><trkpt lat="40.94348902886016" lon="9.565796550130308"><ele>10.0</ele><time>2026-05-02T06:33:36.001Z</time></trkpt><trkpt lat="40.94365246611834" lon="9.565931282858463"><ele>10.0</ele><time>2026-05-02T06:33:37.001Z</time></trkpt><trkpt lat="40.94380326409132" lon="9.566060420138149"><ele>10.0</ele><time>2026-05-02T06:33:38.001Z</time></trkpt><trkpt lat="40.94395545594539" lon="9.566192829153062"><ele>8.666666666666668</ele><time>2026-05-02T06:33:39.001Z</time></trkpt><trkpt lat="40.944100285819495" lon="9.566311713152666"><ele>7.333333333333334</ele><time>2026-05-02T06:33:40.001Z</time></trkpt><trkpt lat="40.94424365541668" lon="9.56642524514519"><ele>6.0</ele><time>2026-05-02T06:33:41.001Z</time></trkpt><trkpt lat="40.94437207483254" lon="9.566533044687889"><ele>5.75</ele><time>2026-05-02T06:33:42.001Z</time></trkpt><trkpt lat="40.9444926619221" lon="9.566640565753762"><ele>5.5</ele><time>2026-05-02T06:33:43.001Z</time></trkpt><trkpt lat="40.94460505249757" lon="9.566736284912242"><ele>5.25</ele><time>2026-05-02T06:33:44.001Z</time></trkpt><trkpt lat="40.94471565204871" lon="9.566834542676247"><ele>5.0</ele><time>2026-05-02T06:33:45.001Z</time></trkpt><trkpt lat="40.944835108881115" lon="9.56694104448079"><ele>5.666666666666667</ele><time>2026-05-02T06:33:46.001Z</time></trkpt><trkpt lat="40.94496169467446" lon="9.567048800499977"><ele>6.333333333333334</ele><time>2026-05-02T06:33:47.001Z</time></trkpt><trkpt lat="40.945090162362014" lon="9.567151304756598"><ele>7.0</ele><time>2026-05-02T06:33:48.001Z</time></trkpt><trkpt lat="40.94522279626713" lon="9.567260259744168"><ele>8.333333333333334</ele><time>2026-05-02T06:33:49.001Z</time></trkpt><trkpt lat="40.94536018458265" lon="9.567374682353181"><ele>9.666666666666666</ele><time>2026-05-02T06:33:50.001Z</time></trkpt><trkpt lat="40.94549574270515" lon="9.56749056341985"><ele>11.0</ele><time>2026-05-02T06:33:51.001Z</time></trkpt><trkpt lat="40.94563175821534" lon="9.567604257576523"><ele>11.0</ele><time>2026-05-02T06:33:52.001Z</time></trkpt><trkpt lat="40.9457609200122" lon="9.567718284199099"><ele>11.0</ele><time>2026-05-02T06:33:53.001Z</time></trkpt><trkpt lat="40.94589741270911" lon="9.567828308247993"><ele>11.0</ele><time>2026-05-02T06:33:54.001Z</time></trkpt><trkpt lat="40.94603657253809" lon="9.567938147079314"><ele>13.0</ele><time>2026-05-02T06:33:55.001Z</time></trkpt><trkpt lat="40.946167889243796" lon="9.568052065594884"><ele>15.0</ele><time>2026-05-02T06:33:56.001Z</time></trkpt><trkpt lat="40.946297873031035" lon="9.568173386436358"><ele>17.0</ele><time>2026-05-02T06:33:57.001Z</time></trkpt><trkpt lat="40.94642508926138" lon="9.568289663813557"><ele>17.0</ele><time>2026-05-02T06:33:58.001Z</time></trkpt><trkpt lat="40.94655434490795" lon="9.56840010339925"><ele>17.0</ele><time>2026-05-02T06:33:59.001Z</time></trkpt><trkpt lat="40.946678490204285" lon="9.568509596824324"><ele>17.0</ele><time>2026-05-02T06:34:00.001Z</time></trkpt><trkpt lat="40.9468080308441" lon="9.568617288427983"><ele>15.0</ele><time>2026-05-02T06:34:01.001Z</time></trkpt><trkpt lat="40.946940162279" lon="9.56873148031953"><ele>13.0</ele><time>2026-05-02T06:34:02.001Z</time></trkpt><trkpt lat="40.94708019691202" lon="9.568851926578574"><ele>11.0</ele><time>2026-05-02T06:34:03.001Z</time></trkpt><trkpt lat="40.947218033890586" lon="9.568968741791576"><ele>11.0</ele><time>2026-05-02T06:34:04.001Z</time></trkpt><trkpt lat="40.947353958866046" lon="9.569090723339562"><ele>11.0</ele><time>2026-05-02T06:34:05.001Z</time></trkpt><trkpt lat="40.94749227892621" lon="9.569204528856025"><ele>11.0</ele><time>2026-05-02T06:34:06.001Z</time></trkpt><trkpt lat="40.9476100451003" lon="9.56931280771955"><ele>11.5</ele><time>2026-05-02T06:34:07.001Z</time></trkpt><trkpt lat="40.94773279314546" lon="9.569412323589273"><ele>12.0</ele><time>2026-05-02T06:34:08.001Z</time></trkpt><trkpt lat="40.947856411394355" lon="9.5695110716831"><ele>12.5</ele><time>2026-05-02T06:34:09.001Z</time></trkpt><trkpt lat="40.94796560861475" lon="9.569611555253093"><ele>13.0</ele><time>2026-05-02T06:34:10.001Z</time></trkpt><trkpt lat="40.94807826684816" lon="9.56970530883073"><ele>12.5</ele><time>2026-05-02T06:34:11.001Z</time></trkpt><trkpt lat="40.94819321961962" lon="9.569800250548532"><ele>12.0</ele><time>2026-05-02T06:34:12.001Z</time></trkpt><trkpt lat="40.94830893654312" lon="9.569892462505969"><ele>11.5</ele><time>2026-05-02T06:34:13.001Z</time></trkpt><trkpt lat="40.94842220695973" lon="9.569973728750343"><ele>11.0</ele><time>2026-05-02T06:34:14.001Z</time></trkpt><trkpt lat="40.94851833617204" lon="9.57006898479948"><ele>11.0</ele><time>2026-05-02T06:34:15.001Z</time></trkpt><trkpt lat="40.948630285751136" lon="9.57014947929838"><ele>11.0</ele><time>2026-05-02T06:34:16.001Z</time></trkpt><trkpt lat="40.948759683689346" lon="9.570260533302774"><ele>11.0</ele><time>2026-05-02T06:34:17.001Z</time></trkpt><trkpt lat="40.94891364905058" lon="9.570361468696044"><ele>10.666666666666666</ele><time>2026-05-02T06:34:18.001Z</time></trkpt><trkpt lat="40.94907861004565" lon="9.570440485122099"><ele>10.333333333333334</ele><time>2026-05-02T06:34:19.001Z</time></trkpt><trkpt lat="40.949259573864765" lon="9.570521496388512"><ele>10.0</ele><time>2026-05-02T06:34:20.001Z</time></trkpt><trkpt lat="40.949451165085975" lon="9.570611311507433"><ele>9.666666666666668</ele><time>2026-05-02T06:34:21.001Z</time></trkpt><trkpt lat="40.94964078775814" lon="9.570704762606088"><ele>9.333333333333334</ele><time>2026-05-02T06:34:22.001Z</time></trkpt><trkpt lat="40.94983530538334" lon="9.57080092190204"><ele>9.0</ele><time>2026-05-02T06:34:23.001Z</time></trkpt><trkpt lat="40.9500356473886" lon="9.570891087048125"><ele>8.333333333333334</ele><time>2026-05-02T06:34:24.001Z</time></trkpt><trkpt lat="40.95023149512979" lon="9.570984560913129"><ele>7.666666666666667</ele><time>2026-05-02T06:34:25.001Z</time></trkpt><trkpt lat="40.95043077908294" lon="9.57107520463595"><ele>7.0</ele><time>2026-05-02T06:34:26.001Z</time></trkpt><trkpt lat="40.950622579294084" lon="9.571167978485507"><ele>7.333333333333334</ele><time>2026-05-02T06:34:27.001Z</time></trkpt><trkpt lat="40.95081518280139" lon="9.571256289859564"><ele>7.666666666666666</ele><time>2026-05-02T06:34:28.001Z</time></trkpt><trkpt lat="40.951005603666765" lon="9.571345841371429"><ele>8.0</ele><time>2026-05-02T06:34:29.001Z</time></trkpt><trkpt lat="40.95119402449878" lon="9.571435402833195"><ele>9.0</ele><time>2026-05-02T06:34:30.001Z</time></trkpt><trkpt lat="40.95138330682096" lon="9.571522264550667"><ele>10.0</ele><time>2026-05-02T06:34:31.001Z</time></trkpt><trkpt lat="40.95156731286872" lon="9.571612233080236"><ele>11.0</ele><time>2026-05-02T06:34:32.001Z</time></trkpt><trkpt lat="40.9517496538072" lon="9.571699684765667"><ele>11.333333333333332</ele><time>2026-05-02T06:34:33.001Z</time></trkpt><trkpt lat="40.95192005278805" lon="9.571782943235894"><ele>11.666666666666666</ele><time>2026-05-02T06:34:34.001Z</time></trkpt><trkpt lat="40.95208865373288" lon="9.571872950564087"><ele>12.0</ele><time>2026-05-02T06:34:35.001Z</time></trkpt><trkpt lat="40.95225396559463" lon="9.571943402799075"><ele>11.666666666666666</ele><time>2026-05-02T06:34:36.001Z</time></trkpt><trkpt lat="40.952421339371895" lon="9.572025309251243"><ele>11.333333333333332</ele><time>2026-05-02T06:34:37.001Z</time></trkpt><trkpt lat="40.95259121475022" lon="9.572106581965185"><ele>11.0</ele><time>2026-05-02T06:34:38.001Z</time></trkpt><trkpt lat="40.952757755020755" lon="9.572198708775748"><ele>11.0</ele><time>2026-05-02T06:34:39.001Z</time></trkpt><trkpt lat="40.95292663458679" lon="9.572272563054899"><ele>11.0</ele><time>2026-05-02T06:34:40.001Z</time></trkpt><trkpt lat="40.95309915211592" lon="9.572355185516699"><ele>11.0</ele><time>2026-05-02T06:34:41.001Z</time></trkpt><trkpt lat="40.953266638824296" lon="9.572431552899667"><ele>10.0</ele><time>2026-05-02T06:34:42.001Z</time></trkpt><trkpt lat="40.953428671844286" lon="9.572510691502915"><ele>9.0</ele><time>2026-05-02T06:34:43.001Z</time></trkpt><trkpt lat="40.953592331230574" lon="9.572587886099935"><ele>8.0</ele><time>2026-05-02T06:34:44.001Z</time></trkpt><trkpt lat="40.95375455546741" lon="9.572670453355213"><ele>8.0</ele><time>2026-05-02T06:34:45.001Z</time></trkpt><trkpt lat="40.95392245473364" lon="9.572750549498698"><ele>8.0</ele><time>2026-05-02T06:34:46.001Z</time></trkpt><trkpt lat="40.954098131306324" lon="9.57284038768404"><ele>8.0</ele><time>2026-05-02T06:34:47.001Z</time></trkpt><trkpt lat="40.95427130567709" lon="9.572917594941488"><ele>7.0</ele><time>2026-05-02T06:34:48.001Z</time></trkpt><trkpt lat="40.9544544487954" lon="9.572999921265653"><ele>6.0</ele><time>2026-05-02T06:34:49.001Z</time></trkpt><trkpt lat="40.95463404926242" lon="9.573080926454729"><ele>5.0</ele><time>2026-05-02T06:34:50.001Z</time></trkpt><trkpt lat="40.95481722825965" lon="9.573166613046872"><ele>5.0</ele><time>2026-05-02T06:34:51.001Z</time></trkpt><trkpt lat="40.954999066470286" lon="9.573257920348238"><ele>5.0</ele><time>2026-05-02T06:34:52.001Z</time></trkpt><trkpt lat="40.9551934043831" lon="9.573341375435195"><ele>5.0</ele><time>2026-05-02T06:34:53.001Z</time></trkpt><trkpt lat="40.955388177103366" lon="9.573429585626569"><ele>5.333333333333334</ele><time>2026-05-02T06:34:54.001Z</time></trkpt><trkpt lat="40.9555900141683" lon="9.573524184027852"><ele>5.666666666666667</ele><time>2026-05-02T06:34:55.001Z</time></trkpt><trkpt lat="40.95579588213071" lon="9.573627104677861"><ele>6.0</ele><time>2026-05-02T06:34:56.001Z</time></trkpt><trkpt lat="40.95600192383285" lon="9.573731673986051"><ele>6.0</ele><time>2026-05-02T06:34:57.001Z</time></trkpt><trkpt lat="40.95621073478481" lon="9.573830849516167"><ele>6.0</ele><time>2026-05-02T06:34:58.001Z</time></trkpt><trkpt lat="40.956415537955124" lon="9.573932231007662"><ele>6.0</ele><time>2026-05-02T06:34:59.001Z</time></trkpt><trkpt lat="40.95660747564181" lon="9.574016542664378"><ele>5.666666666666667</ele><time>2026-05-02T06:35:00.001Z</time></trkpt><trkpt lat="40.95678493336376" lon="9.574092538148689"><ele>5.333333333333334</ele><time>2026-05-02T06:35:01.001Z</time></trkpt><trkpt lat="40.95695447455328" lon="9.574167815333002"><ele>5.0</ele><time>2026-05-02T06:35:02.001Z</time></trkpt><trkpt lat="40.9571199531251" lon="9.5742357696778"><ele>5.0</ele><time>2026-05-02T06:35:03.001Z</time></trkpt><trkpt lat="40.957298009058704" lon="9.574286635671324"><ele>5.0</ele><time>2026-05-02T06:35:04.001Z</time></trkpt><trkpt lat="40.957478290065886" lon="9.57428932049517"><ele>5.0</ele><time>2026-05-02T06:35:05.001Z</time></trkpt><trkpt lat="40.95764311220095" lon="9.574254793460051"><ele>4.0</ele><time>2026-05-02T06:35:06.001Z</time></trkpt><trkpt lat="40.95779492050715" lon="9.57419160415835"><ele>3.0</ele><time>2026-05-02T06:35:07.001Z</time></trkpt><trkpt lat="40.95795167107641" lon="9.574078251490821"><ele>2.0</ele><time>2026-05-02T06:35:08.001Z</time></trkpt><trkpt lat="40.958116007407604" lon="9.573934392063506"><ele>2.0</ele><time>2026-05-02T06:35:09.001Z</time></trkpt><trkpt lat="40.958312839655065" lon="9.573787569587173"><ele>2.0</ele><time>2026-05-02T06:35:10.001Z</time></trkpt><trkpt lat="40.958516750104074" lon="9.57361138675797"><ele>3.0</ele><time>2026-05-02T06:35:11.001Z</time></trkpt><trkpt lat="40.958762629467266" lon="9.573449157342287"><ele>4.0</ele><time>2026-05-02T06:35:12.001Z</time></trkpt><trkpt lat="40.95903079008309" lon="9.573254393748972"><ele>3.5</ele><time>2026-05-02T06:35:13.001Z</time></trkpt><trkpt lat="40.959295592499" lon="9.573043925281679"><ele>3.0</ele><time>2026-05-02T06:35:14.001Z</time></trkpt><trkpt lat="40.95956285290896" lon="9.572854573628181"><ele>4.0</ele><time>2026-05-02T06:35:15.001Z</time></trkpt><trkpt lat="40.95978954108457" lon="9.572662887801032"><ele>5.0</ele><time>2026-05-02T06:35:16.001Z</time></trkpt><trkpt lat="40.95999933422486" lon="9.572523787830361"><ele>5.0</ele><time>2026-05-02T06:35:17.001Z</time></trkpt><trkpt lat="40.960184094171666" lon="9.572392224072585"><ele>5.0</ele><time>2026-05-02T06:35:18.001Z</time></trkpt><trkpt lat="40.960358564334605" lon="9.572261104078391"><ele>5.0</ele><time>2026-05-02T06:35:19.001Z</time></trkpt><trkpt lat="40.960527418617" lon="9.572123603188285"><ele>5.666666666666667</ele><time>2026-05-02T06:35:20.001Z</time></trkpt><trkpt lat="40.96069451935246" lon="9.571992744918342"><ele>6.333333333333334</ele><time>2026-05-02T06:35:21.001Z</time></trkpt><trkpt lat="40.96085270942664" lon="9.571868147634467"><ele>7.0</ele><time>2026-05-02T06:35:22.001Z</time></trkpt><trkpt lat="40.96099053180232" lon="9.571762514556335"><ele>7.0</ele><time>2026-05-02T06:35:23.001Z</time></trkpt><trkpt lat="40.96112918997749" lon="9.571694451434713"><ele>7.0</ele><time>2026-05-02T06:35:24.001Z</time></trkpt><trkpt lat="40.96126104540865" lon="9.571618812297311"><ele>7.0</ele><time>2026-05-02T06:35:25.001Z</time></trkpt><trkpt lat="40.96139979990073" lon="9.571541764378438"><ele>7.0</ele><time>2026-05-02T06:35:26.001Z</time></trkpt><trkpt lat="40.961554411388384" lon="9.571516390484133"><ele>7.666666666666667</ele><time>2026-05-02T06:35:27.001Z</time></trkpt><trkpt lat="40.961722118879926" lon="9.571519628852599"><ele>8.333333333333334</ele><time>2026-05-02T06:35:28.001Z</time></trkpt><trkpt lat="40.96189257156914" lon="9.571487800689397"><ele>9.0</ele><time>2026-05-02T06:35:29.001Z</time></trkpt><trkpt lat="40.96208281048686" lon="9.571470852568817"><ele>9.0</ele><time>2026-05-02T06:35:30.001Z</time></trkpt><trkpt lat="40.96232097207363" lon="9.571452945481619"><ele>9.0</ele><time>2026-05-02T06:35:31.001Z</time></trkpt><trkpt lat="40.96257464792363" lon="9.571453980254827"><ele>9.0</ele><time>2026-05-02T06:35:32.001Z</time></trkpt><trkpt lat="40.962844751899986" lon="9.57145330985508"><ele>9.0</ele><time>2026-05-02T06:35:33.001Z</time></trkpt><trkpt lat="40.96310016321974" lon="9.57142778759639"><ele>9.0</ele><time>2026-05-02T06:35:34.001Z</time></trkpt><trkpt lat="40.96333193079774" lon="9.571387442353634"><ele>9.0</ele><time>2026-05-02T06:35:35.001Z</time></trkpt><trkpt lat="40.96355439588722" lon="9.571349166851808"><ele>9.666666666666666</ele><time>2026-05-02T06:35:36.001Z</time></trkpt><trkpt lat="40.96377327605422" lon="9.571332216511713"><ele>10.333333333333332</ele><time>2026-05-02T06:35:37.001Z</time></trkpt><trkpt lat="40.963970124451414" lon="9.571315001590877"><ele>11.0</ele><time>2026-05-02T06:35:38.001Z</time></trkpt><trkpt lat="40.96413750612921" lon="9.571273652853295"><ele>12.5</ele><time>2026-05-02T06:35:39.001Z</time></trkpt><trkpt lat="40.964263180059326" lon="9.57117876790641"><ele>14.0</ele><time>2026-05-02T06:35:40.001Z</time></trkpt><trkpt lat="40.964331662576136" lon="9.571036272282186"><ele>15.5</ele><time>2026-05-02T06:35:41.001Z</time></trkpt><trkpt lat="40.96435672766335" lon="9.570845173143248"><ele>17.0</ele><time>2026-05-02T06:35:42.001Z</time></trkpt><trkpt lat="40.964381643984034" lon="9.570608959110821"><ele>17.0</ele><time>2026-05-02T06:35:43.001Z</time></trkpt><trkpt lat="40.96444674475585" lon="9.570399728073404"><ele>17.0</ele><time>2026-05-02T06:35:44.001Z</time></trkpt><trkpt lat="40.96456422281795" lon="9.570270456892004"><ele>17.0</ele><time>2026-05-02T06:35:45.001Z</time></trkpt><trkpt lat="40.96469216096635" lon="9.570168473063218"><ele>17.8</ele><time>2026-05-02T06:35:46.001Z</time></trkpt><trkpt lat="40.96479663432792" lon="9.570080935167772"><ele>18.6</ele><time>2026-05-02T06:35:47.001Z</time></trkpt><trkpt lat="40.96488780184126" lon="9.570011300762168"><ele>19.400000000000002</ele><time>2026-05-02T06:35:48.001Z</time></trkpt><trkpt lat="40.964981697206134" lon="9.569959799613658"><ele>20.2</ele><time>2026-05-02T06:35:49.001Z</time></trkpt><trkpt lat="40.96509105419332" lon="9.569927846151893"><ele>21.0</ele><time>2026-05-02T06:35:50.001Z</time></trkpt><trkpt lat="40.96520525461441" lon="9.569941222903994"><ele>21.0</ele><time>2026-05-02T06:35:51.001Z</time></trkpt><trkpt lat="40.96532673000954" lon="9.569969843437788"><ele>21.0</ele><time>2026-05-02T06:35:52.001Z</time></trkpt><trkpt lat="40.96545391118148" lon="9.570020441786788"><ele>21.0</ele><time>2026-05-02T06:35:53.001Z</time></trkpt><trkpt lat="40.965584371273" lon="9.570081974837413"><ele>21.0</ele><time>2026-05-02T06:35:54.001Z</time></trkpt><trkpt lat="40.96571195041677" lon="9.570145281137666"><ele>21.0</ele><time>2026-05-02T06:35:55.001Z</time></trkpt><trkpt lat="40.96583623829493" lon="9.570211074369949"><ele>21.0</ele><time>2026-05-02T06:35:56.001Z</time></trkpt><trkpt lat="40.96596931131731" lon="9.570290017160877"><ele>21.0</ele><time>2026-05-02T06:35:57.001Z</time></trkpt><trkpt lat="40.96611524909798" lon="9.5703736232325"><ele>21.0</ele><time>2026-05-02T06:35:58.001Z</time></trkpt><trkpt lat="40.96627310281152" lon="9.570453533682299"><ele>20.666666666666668</ele><time>2026-05-02T06:35:59.001Z</time></trkpt><trkpt lat="40.966454267674365" lon="9.570542209178338"><ele>20.333333333333336</ele><time>2026-05-02T06:36:00.001Z</time></trkpt><trkpt lat="40.96666043741533" lon="9.570637300575036"><ele>20.0</ele><time>2026-05-02T06:36:01.001Z</time></trkpt><trkpt lat="40.966869993271416" lon="9.570705007257912"><ele>20.0</ele><time>2026-05-02T06:36:02.001Z</time></trkpt><trkpt lat="40.96707846102402" lon="9.570753514050203"><ele>20.0</ele><time>2026-05-02T06:36:03.001Z</time></trkpt><trkpt lat="40.96728798653507" lon="9.570796851124838"><ele>20.0</ele><time>2026-05-02T06:36:04.001Z</time></trkpt><trkpt lat="40.9674939372241" lon="9.57084398618549"><ele>21.333333333333336</ele><time>2026-05-02T06:36:05.001Z</time></trkpt><trkpt lat="40.96771259939183" lon="9.570878764276326"><ele>22.666666666666668</ele><time>2026-05-02T06:36:06.001Z</time></trkpt><trkpt lat="40.96793244932832" lon="9.570895924409717"><ele>24.0</ele><time>2026-05-02T06:36:07.001Z</time></trkpt><trkpt lat="40.96815019433141" lon="9.570916317654854"><ele>24.5</ele><time>2026-05-02T06:36:08.001Z</time></trkpt><trkpt lat="40.96837096678449" lon="9.570987029707103"><ele>25.0</ele><time>2026-05-02T06:36:09.001Z</time></trkpt><trkpt lat="40.96862520822182" lon="9.571082938851573"><ele>24.0</ele><time>2026-05-02T06:36:10.001Z</time></trkpt><trkpt lat="40.96888529291601" lon="9.571265790339329"><ele>23.0</ele><time>2026-05-02T06:36:11.001Z</time></trkpt><trkpt lat="40.969150398999545" lon="9.571457667699558"><ele>27.0</ele><time>2026-05-02T06:36:12.001Z</time></trkpt><trkpt lat="40.969392620333785" lon="9.571635317500595"><ele>31.0</ele><time>2026-05-02T06:36:13.001Z</time></trkpt><trkpt lat="40.96961087886337" lon="9.571805862211049"><ele>31.0</ele><time>2026-05-02T06:36:14.001Z</time></trkpt><trkpt lat="40.96982808100462" lon="9.57196258163774"><ele>31.0</ele><time>2026-05-02T06:36:15.001Z</time></trkpt><trkpt lat="40.97004103751352" lon="9.572122222167303"><ele>37.0</ele><time>2026-05-02T06:36:16.001Z</time></trkpt><trkpt lat="40.97024279140444" lon="9.57228158514451"><ele>43.0</ele><time>2026-05-02T06:36:17.001Z</time></trkpt><trkpt lat="40.97042896351378" lon="9.572464659149475"><ele>43.0</ele><time>2026-05-02T06:36:18.001Z</time></trkpt><trkpt lat="40.97056405372382" lon="9.572709131060495"><ele>43.0</ele><time>2026-05-02T06:36:19.001Z</time></trkpt><trkpt lat="40.97069810791194" lon="9.572934811149388"><ele>43.0</ele><time>2026-05-02T06:36:20.001Z</time></trkpt><trkpt lat="40.97082130690599" lon="9.573148606597371"><ele>44.333333333333336</ele><time>2026-05-02T06:36:21.001Z</time></trkpt><trkpt lat="40.97093655647435" lon="9.573329258956116"><ele>45.666666666666664</ele><time>2026-05-02T06:36:22.001Z</time></trkpt><trkpt lat="40.97105435239932" lon="9.573489623578357"><ele>47.0</ele><time>2026-05-02T06:36:23.001Z</time></trkpt><trkpt lat="40.97119334923501" lon="9.573636788735715"><ele>46.33333333333333</ele><time>2026-05-02T06:36:24.001Z</time></trkpt><trkpt lat="40.971376460570525" lon="9.573750272246349"><ele>45.666666666666664</ele><time>2026-05-02T06:36:25.001Z</time></trkpt><trkpt lat="40.97157769479253" lon="9.573813944406211"><ele>45.0</ele><time>2026-05-02T06:36:26.001Z</time></trkpt><trkpt lat="40.97180933181035" lon="9.57381003206449"><ele>45.0</ele><time>2026-05-02T06:36:27.001Z</time></trkpt><trkpt lat="40.97203812096751" lon="9.573768201887184"><ele>45.0</ele><time>2026-05-02T06:36:28.001Z</time></trkpt><trkpt lat="40.97225935887469" lon="9.573746127460652"><ele>45.0</ele><time>2026-05-02T06:36:29.001Z</time></trkpt><trkpt lat="40.972471206354655" lon="9.573745825903245"><ele>45.0</ele><time>2026-05-02T06:36:30.001Z</time></trkpt><trkpt lat="40.9726847040049" lon="9.573760971207218"><ele>45.0</ele><time>2026-05-02T06:36:31.001Z</time></trkpt><trkpt lat="40.972897465944705" lon="9.573810639463218"><ele>45.666666666666664</ele><time>2026-05-02T06:36:32.001Z</time></trkpt><trkpt lat="40.97310991451914" lon="9.573895919724535"><ele>46.33333333333333</ele><time>2026-05-02T06:36:33.001Z</time></trkpt><trkpt lat="40.97331497474608" lon="9.574002602239355"><ele>47.0</ele><time>2026-05-02T06:36:34.001Z</time></trkpt><trkpt lat="40.97350615215176" lon="9.574095898333507"><ele>47.0</ele><time>2026-05-02T06:36:35.001Z</time></trkpt><trkpt lat="40.97369605297577" lon="9.57418523636316"><ele>47.0</ele><time>2026-05-02T06:36:36.001Z</time></trkpt><trkpt lat="40.97389153792908" lon="9.574271219055738"><ele>47.0</ele><time>2026-05-02T06:36:37.001Z</time></trkpt><trkpt lat="40.974090277762315" lon="9.574364660651902"><ele>46.666666666666664</ele><time>2026-05-02T06:36:38.001Z</time></trkpt><trkpt lat="40.974293936169964" lon="9.574460879476991"><ele>46.333333333333336</ele><time>2026-05-02T06:36:39.001Z</time></trkpt><trkpt lat="40.97449217183241" lon="9.574555063475987"><ele>46.0</ele><time>2026-05-02T06:36:40.001Z</time></trkpt><trkpt lat="40.97468496822709" lon="9.574626435477553"><ele>46.0</ele><time>2026-05-02T06:36:41.001Z</time></trkpt><trkpt lat="40.97487495374831" lon="9.574730567163957"><ele>46.0</ele><time>2026-05-02T06:36:42.001Z</time></trkpt><trkpt lat="40.975070633817666" lon="9.57484222013369"><ele>46.0</ele><time>2026-05-02T06:36:43.001Z</time></trkpt><trkpt lat="40.97526949914676" lon="9.57492552425464"><ele>46.333333333333336</ele><time>2026-05-02T06:36:44.001Z</time></trkpt><trkpt lat="40.97546993958419" lon="9.575026710295841"><ele>46.666666666666664</ele><time>2026-05-02T06:36:45.001Z</time></trkpt><trkpt lat="40.97567024667754" lon="9.57512532773961"><ele>47.0</ele><time>2026-05-02T06:36:46.001Z</time></trkpt><trkpt lat="40.97587312334823" lon="9.57522408005342"><ele>48.0</ele><time>2026-05-02T06:36:47.001Z</time></trkpt><trkpt lat="40.97607858914594" lon="9.575319886312716"><ele>49.0</ele><time>2026-05-02T06:36:48.001Z</time></trkpt><trkpt lat="40.97628391673809" lon="9.575412407953758"><ele>50.0</ele><time>2026-05-02T06:36:49.001Z</time></trkpt><trkpt lat="40.97649606894982" lon="9.575507279640798"><ele>52.0</ele><time>2026-05-02T06:36:50.001Z</time></trkpt><trkpt lat="40.97671137794335" lon="9.575607574158447"><ele>54.0</ele><time>2026-05-02T06:36:51.001Z</time></trkpt><trkpt lat="40.97691969319162" lon="9.575712347795706"><ele>54.0</ele><time>2026-05-02T06:36:52.001Z</time></trkpt><trkpt lat="40.97711326847812" lon="9.575811618012468"><ele>54.0</ele><time>2026-05-02T06:36:53.001Z</time></trkpt><trkpt lat="40.9773145458595" lon="9.575880438271732"><ele>54.0</ele><time>2026-05-02T06:36:54.001Z</time></trkpt><trkpt lat="40.97751606953059" lon="9.575956121799216"><ele>54.0</ele><time>2026-05-02T06:36:55.001Z</time></trkpt><trkpt lat="40.97771567761347" lon="9.576067872640637"><ele>54.0</ele><time>2026-05-02T06:36:56.001Z</time></trkpt><trkpt lat="40.97788149053277" lon="9.576192323199772"><ele>54.0</ele><time>2026-05-02T06:36:57.001Z</time></trkpt><trkpt lat="40.978041724069655" lon="9.57631572826922"><ele>52.0</ele><time>2026-05-02T06:36:58.001Z</time></trkpt><trkpt lat="40.97818362039407" lon="9.576428456916926"><ele>50.0</ele><time>2026-05-02T06:36:59.001Z</time></trkpt><trkpt lat="40.97832511727024" lon="9.5765378112381"><ele>48.0</ele><time>2026-05-02T06:37:00.001Z</time></trkpt><trkpt lat="40.9784554792697" lon="9.576639291985144"><ele>47.666666666666664</ele><time>2026-05-02T06:37:01.001Z</time></trkpt><trkpt lat="40.97859198180069" lon="9.576726882242033"><ele>47.33333333333333</ele><time>2026-05-02T06:37:02.001Z</time></trkpt><trkpt lat="40.978746953746764" lon="9.576790615528381"><ele>47.0</ele><time>2026-05-02T06:37:03.001Z</time></trkpt><trkpt lat="40.978896615606466" lon="9.576850122098385"><ele>47.0</ele><time>2026-05-02T06:37:04.001Z</time></trkpt><trkpt lat="40.97905216402525" lon="9.576848157271577"><ele>47.0</ele><time>2026-05-02T06:37:05.001Z</time></trkpt><trkpt lat="40.9792206482262" lon="9.576823506487951"><ele>47.0</ele><time>2026-05-02T06:37:06.001Z</time></trkpt><trkpt lat="40.97938701660022" lon="9.576731522901609"><ele>45.666666666666664</ele><time>2026-05-02T06:37:07.001Z</time></trkpt><trkpt lat="40.97953406321038" lon="9.576630220375462"><ele>44.333333333333336</ele><time>2026-05-02T06:37:08.001Z</time></trkpt><trkpt lat="40.97968022303186" lon="9.57655214975934"><ele>43.0</ele><time>2026-05-02T06:37:09.001Z</time></trkpt><trkpt lat="40.979841032879804" lon="9.576543884221461"><ele>43.0</ele><time>2026-05-02T06:37:10.001Z</time></trkpt><trkpt lat="40.98000332555508" lon="9.576530749422137"><ele>43.0</ele><time>2026-05-02T06:37:11.001Z</time></trkpt><trkpt lat="40.98016429216696" lon="9.576607072942153"><ele>43.0</ele><time>2026-05-02T06:37:12.001Z</time></trkpt><trkpt lat="40.98034447688552" lon="9.57669575381631"><ele>44.0</ele><time>2026-05-02T06:37:13.001Z</time></trkpt><trkpt lat="40.98051726054463" lon="9.576843367336263"><ele>45.0</ele><time>2026-05-02T06:37:14.001Z</time></trkpt><trkpt lat="40.98066916353579" lon="9.57697681672898"><ele>46.0</ele><time>2026-05-02T06:37:15.001Z</time></trkpt><trkpt lat="40.98081093921405" lon="9.577064621717536"><ele>43.333333333333336</ele><time>2026-05-02T06:37:16.001Z</time></trkpt><trkpt lat="40.98095253560611" lon="9.577149177360672"><ele>40.666666666666664</ele><time>2026-05-02T06:37:17.001Z</time></trkpt><trkpt lat="40.981105129357445" lon="9.577229100632072"><ele>38.0</ele><time>2026-05-02T06:37:18.001Z</time></trkpt><trkpt lat="40.98125983191394" lon="9.577252167645526"><ele>38.0</ele><time>2026-05-02T06:37:19.001Z</time></trkpt><trkpt lat="40.98141709388602" lon="9.57720667072782"><ele>38.0</ele><time>2026-05-02T06:37:20.001Z</time></trkpt><trkpt lat="40.981575785469126" lon="9.577136877202342"><ele>38.0</ele><time>2026-05-02T06:37:21.001Z</time></trkpt><trkpt lat="40.98173220470698" lon="9.577049400734094"><ele>39.0</ele><time>2026-05-02T06:37:22.001Z</time></trkpt><trkpt lat="40.98188821685546" lon="9.576967541765516"><ele>40.0</ele><time>2026-05-02T06:37:23.001Z</time></trkpt><trkpt lat="40.98205836642254" lon="9.576895900578982"><ele>41.0</ele><time>2026-05-02T06:37:24.001Z</time></trkpt><trkpt lat="40.98223268380521" lon="9.576818532868677"><ele>41.0</ele><time>2026-05-02T06:37:25.001Z</time></trkpt><trkpt lat="40.98240510589752" lon="9.576739724424318"><ele>41.0</ele><time>2026-05-02T06:37:26.001Z</time></trkpt><trkpt lat="40.982591641344015" lon="9.576653746546127"><ele>41.0</ele><time>2026-05-02T06:37:27.001Z</time></trkpt><trkpt lat="40.98278118257077" lon="9.576572523436512"><ele>38.666666666666664</ele><time>2026-05-02T06:37:28.001Z</time></trkpt><trkpt lat="40.982991400161126" lon="9.57650704631441"><ele>36.333333333333336</ele><time>2026-05-02T06:37:29.001Z</time></trkpt><trkpt lat="40.98319777588386" lon="9.576457972323464"><ele>34.0</ele><time>2026-05-02T06:37:30.001Z</time></trkpt><trkpt lat="40.983381075621054" lon="9.576423206800479"><ele>32.333333333333336</ele><time>2026-05-02T06:37:31.001Z</time></trkpt><trkpt lat="40.98354812820223" lon="9.576388130850809"><ele>30.666666666666664</ele><time>2026-05-02T06:37:32.001Z</time></trkpt><trkpt lat="40.98370736327052" lon="9.576347272370587"><ele>29.0</ele><time>2026-05-02T06:37:33.001Z</time></trkpt><trkpt lat="40.98387127602815" lon="9.576292269428746"><ele>29.0</ele><time>2026-05-02T06:37:34.001Z</time></trkpt><trkpt lat="40.984049540346206" lon="9.576233298264729"><ele>29.0</ele><time>2026-05-02T06:37:35.001Z</time></trkpt><trkpt lat="40.984230429583526" lon="9.576196150389212"><ele>29.0</ele><time>2026-05-02T06:37:36.001Z</time></trkpt><trkpt lat="40.984400441994005" lon="9.576165732440316"><ele>29.5</ele><time>2026-05-02T06:37:37.001Z</time></trkpt><trkpt lat="40.98455033053528" lon="9.576138004176075"><ele>30.0</ele><time>2026-05-02T06:37:38.001Z</time></trkpt><trkpt lat="40.98468418429131" lon="9.576119734507378"><ele>30.5</ele><time>2026-05-02T06:37:39.001Z</time></trkpt><trkpt lat="40.984821706926674" lon="9.576144264604157"><ele>31.0</ele><time>2026-05-02T06:37:40.001Z</time></trkpt><trkpt lat="40.984973171066635" lon="9.57619820116257"><ele>33.0</ele><time>2026-05-02T06:37:41.001Z</time></trkpt><trkpt lat="40.985117117031216" lon="9.576265545172335"><ele>35.0</ele><time>2026-05-02T06:37:42.001Z</time></trkpt><trkpt lat="40.98527805593605" lon="9.576353043370764"><ele>37.0</ele><time>2026-05-02T06:37:43.001Z</time></trkpt><trkpt lat="40.985515223134854" lon="9.576422392799994"><ele>37.0</ele><time>2026-05-02T06:37:44.001Z</time></trkpt><trkpt lat="40.98575900093071" lon="9.576470065332495"><ele>37.0</ele><time>2026-05-02T06:37:45.001Z</time></trkpt><trkpt lat="40.98595666046237" lon="9.576559094356432"><ele>39.5</ele><time>2026-05-02T06:37:46.001Z</time></trkpt><trkpt lat="40.98617367724387" lon="9.576669358554945"><ele>42.0</ele><time>2026-05-02T06:37:47.001Z</time></trkpt><trkpt lat="40.986380739378035" lon="9.576761746232263"><ele>42.0</ele><time>2026-05-02T06:37:48.001Z</time></trkpt><trkpt lat="40.98657496569217" lon="9.576834166996033"><ele>42.0</ele><time>2026-05-02T06:37:49.001Z</time></trkpt><trkpt lat="40.986746882053446" lon="9.576905657381634"><ele>42.0</ele><time>2026-05-02T06:37:50.001Z</time></trkpt><trkpt lat="40.986900319497344" lon="9.57697147110494"><ele>41.25</ele><time>2026-05-02T06:37:51.001Z</time></trkpt><trkpt lat="40.98703170193452" lon="9.57702206391746"><ele>40.5</ele><time>2026-05-02T06:37:52.001Z</time></trkpt><trkpt lat="40.98714633751937" lon="9.577067159121901"><ele>39.75</ele><time>2026-05-02T06:37:53.001Z</time></trkpt><trkpt lat="40.987262357612515" lon="9.57710619009502"><ele>39.0</ele><time>2026-05-02T06:37:54.001Z</time></trkpt><trkpt lat="40.98738959787124" lon="9.577121050751568"><ele>38.333333333333336</ele><time>2026-05-02T06:37:55.001Z</time></trkpt><trkpt lat="40.98753878327254" lon="9.57708576867659"><ele>37.66666666666667</ele><time>2026-05-02T06:37:56.001Z</time></trkpt><trkpt lat="40.98771608533474" lon="9.576990336852361"><ele>37.0</ele><time>2026-05-02T06:37:57.001Z</time></trkpt><trkpt lat="40.98793316215387" lon="9.576874793115163"><ele>39.5</ele><time>2026-05-02T06:37:58.001Z</time></trkpt><trkpt lat="40.988173178407116" lon="9.576790632097"><ele>42.0</ele><time>2026-05-02T06:37:59.001Z</time></trkpt><trkpt lat="40.988375471084396" lon="9.576709425210893"><ele>43.0</ele><time>2026-05-02T06:38:00.001Z</time></trkpt><trkpt lat="40.98855551927739" lon="9.57663434811892"><ele>44.0</ele><time>2026-05-02T06:38:01.001Z</time></trkpt><trkpt lat="40.98872534987435" lon="9.57663349879514"><ele>45.0</ele><time>2026-05-02T06:38:02.001Z</time></trkpt><trkpt lat="40.988878045979746" lon="9.576676814834203"><ele>45.0</ele><time>2026-05-02T06:38:03.001Z</time></trkpt><trkpt lat="40.989045079619835" lon="9.576769126746784"><ele>45.0</ele><time>2026-05-02T06:38:04.001Z</time></trkpt><trkpt lat="40.98925316704466" lon="9.576911398500322"><ele>45.0</ele><time>2026-05-02T06:38:05.001Z</time></trkpt><trkpt lat="40.98950277315122" lon="9.577077021793325"><ele>45.5</ele><time>2026-05-02T06:38:06.001Z</time></trkpt><trkpt lat="40.989742661288155" lon="9.577268801837956"><ele>46.0</ele><time>2026-05-02T06:38:07.001Z</time></trkpt><trkpt lat="40.98999504900599" lon="9.577438859932734"><ele>50.0</ele><time>2026-05-02T06:38:08.001Z</time></trkpt><trkpt lat="40.990239110278026" lon="9.577596104284456"><ele>54.0</ele><time>2026-05-02T06:38:09.001Z</time></trkpt><trkpt lat="40.99047270512567" lon="9.577760329456124"><ele>54.0</ele><time>2026-05-02T06:38:10.001Z</time></trkpt><trkpt lat="40.99070294236739" lon="9.577922945494489"><ele>54.0</ele><time>2026-05-02T06:38:11.001Z</time></trkpt><trkpt lat="40.99092835392765" lon="9.578081710697425"><ele>54.0</ele><time>2026-05-02T06:38:12.001Z</time></trkpt><trkpt lat="40.99117011267269" lon="9.578224675001293"><ele>54.0</ele><time>2026-05-02T06:38:13.001Z</time></trkpt><trkpt lat="40.991427284937245" lon="9.578322388672602"><ele>53.5</ele><time>2026-05-02T06:38:14.001Z</time></trkpt><trkpt lat="40.99168205320977" lon="9.578394750226977"><ele>53.0</ele><time>2026-05-02T06:38:15.001Z</time></trkpt><trkpt lat="40.991936381595096" lon="9.578468032810733"><ele>53.0</ele><time>2026-05-02T06:38:16.001Z</time></trkpt><trkpt lat="40.992191734374636" lon="9.578554992944463"><ele>53.0</ele><time>2026-05-02T06:38:17.001Z</time></trkpt><trkpt lat="40.99244677670736" lon="9.57864309534835"><ele>57.0</ele><time>2026-05-02T06:38:18.001Z</time></trkpt><trkpt lat="40.99269807395576" lon="9.578730326321644"><ele>61.0</ele><time>2026-05-02T06:38:19.001Z</time></trkpt><trkpt lat="40.99292537999512" lon="9.578812776940232"><ele>61.0</ele><time>2026-05-02T06:38:20.001Z</time></trkpt><trkpt lat="40.99313611428031" lon="9.578882007216762"><ele>61.0</ele><time>2026-05-02T06:38:21.001Z</time></trkpt><trkpt lat="40.99333137043859" lon="9.578949260723878"><ele>61.0</ele><time>2026-05-02T06:38:22.001Z</time></trkpt><trkpt lat="40.993518762906426" lon="9.579015979360912"><ele>61.0</ele><time>2026-05-02T06:38:23.001Z</time></trkpt><trkpt lat="40.99370090224332" lon="9.57908168785262"><ele>61.0</ele><time>2026-05-02T06:38:24.001Z</time></trkpt><trkpt lat="40.993885097858886" lon="9.579178306161344"><ele>61.0</ele><time>2026-05-02T06:38:25.001Z</time></trkpt><trkpt lat="40.99406673933933" lon="9.579338692437993"><ele>61.5</ele><time>2026-05-02T06:38:26.001Z</time></trkpt><trkpt lat="40.994240170243884" lon="9.579537432014575"><ele>62.0</ele><time>2026-05-02T06:38:27.001Z</time></trkpt><trkpt lat="40.9944077026536" lon="9.579748552789535"><ele>62.0</ele><time>2026-05-02T06:38:28.001Z</time></trkpt><trkpt lat="40.994589734898625" lon="9.579959456542266"><ele>62.0</ele><time>2026-05-02T06:38:29.001Z</time></trkpt><trkpt lat="40.99478357582231" lon="9.580163629683653"><ele>64.5</ele><time>2026-05-02T06:38:30.001Z</time></trkpt><trkpt lat="40.994969059381155" lon="9.580372145709447"><ele>67.0</ele><time>2026-05-02T06:38:31.001Z</time></trkpt><trkpt lat="40.99514384657594" lon="9.580574542652222"><ele>67.66666666666666</ele><time>2026-05-02T06:38:32.001Z</time></trkpt><trkpt lat="40.99531109992982" lon="9.580762392304733"><ele>68.33333333333333</ele><time>2026-05-02T06:38:33.001Z</time></trkpt><trkpt lat="40.995470659919874" lon="9.580941488937345"><ele>69.0</ele><time>2026-05-02T06:38:34.001Z</time></trkpt><trkpt lat="40.995622844894086" lon="9.581113690051543"><ele>70.0</ele><time>2026-05-02T06:38:35.001Z</time></trkpt><trkpt lat="40.9957720335768" lon="9.581282035822547"><ele>71.0</ele><time>2026-05-02T06:38:36.001Z</time></trkpt><trkpt lat="40.99591757630615" lon="9.581451358829232"><ele>72.0</ele><time>2026-05-02T06:38:37.001Z</time></trkpt><trkpt lat="40.99607514456931" lon="9.581631106050807"><ele>73.33333333333333</ele><time>2026-05-02T06:38:38.001Z</time></trkpt><trkpt lat="40.99623292168835" lon="9.581825368672591"><ele>74.66666666666666</ele><time>2026-05-02T06:38:39.001Z</time></trkpt><trkpt lat="40.99636288272509" lon="9.582058084527409"><ele>76.0</ele><time>2026-05-02T06:38:40.001Z</time></trkpt><trkpt lat="40.99647851013104" lon="9.58231327937676"><ele>76.5</ele><time>2026-05-02T06:38:41.001Z</time></trkpt><trkpt lat="40.996595359178514" lon="9.582580938932393"><ele>77.0</ele><time>2026-05-02T06:38:42.001Z</time></trkpt><trkpt lat="40.99670622192712" lon="9.582870775994037"><ele>80.0</ele><time>2026-05-02T06:38:43.001Z</time></trkpt><trkpt lat="40.996819319005155" lon="9.583143654584871"><ele>83.0</ele><time>2026-05-02T06:38:44.001Z</time></trkpt><trkpt lat="40.99693561047126" lon="9.583417324055675"><ele>80.0</ele><time>2026-05-02T06:38:45.001Z</time></trkpt><trkpt lat="40.99705354782298" lon="9.583692657129344"><ele>77.0</ele><time>2026-05-02T06:38:46.001Z</time></trkpt><trkpt lat="40.99717291740582" lon="9.583974888467148"><ele>77.0</ele><time>2026-05-02T06:38:47.001Z</time></trkpt><trkpt lat="40.99729136219833" lon="9.584244454784132"><ele>77.0</ele><time>2026-05-02T06:38:48.001Z</time></trkpt><trkpt lat="40.99741195317615" lon="9.584518079311282"><ele>71.5</ele><time>2026-05-02T06:38:49.001Z</time></trkpt><trkpt lat="40.9975335915137" lon="9.584794222780031"><ele>66.0</ele><time>2026-05-02T06:38:50.001Z</time></trkpt><trkpt lat="40.997639469475196" lon="9.585058223648062"><ele>66.0</ele><time>2026-05-02T06:38:51.001Z</time></trkpt><trkpt lat="40.99773817576534" lon="9.58530815029118"><ele>66.0</ele><time>2026-05-02T06:38:52.001Z</time></trkpt><trkpt lat="40.99778993285485" lon="9.585564816535632"><ele>66.0</ele><time>2026-05-02T06:38:53.001Z</time></trkpt><trkpt lat="40.997807899079625" lon="9.585842748887709"><ele>66.5</ele><time>2026-05-02T06:38:54.001Z</time></trkpt><trkpt lat="40.99781029499721" lon="9.586156032364578"><ele>67.0</ele><time>2026-05-02T06:38:55.001Z</time></trkpt><trkpt lat="40.99778451509481" lon="9.58644106385944"><ele>67.0</ele><time>2026-05-02T06:38:56.001Z</time></trkpt><trkpt lat="40.997725825326505" lon="9.586706403493963"><ele>67.0</ele><time>2026-05-02T06:38:57.001Z</time></trkpt><trkpt lat="40.99762979769491" lon="9.5869447628817"><ele>67.0</ele><time>2026-05-02T06:38:58.001Z</time></trkpt><trkpt lat="40.997514903264246" lon="9.587191658819075"><ele>68.5</ele><time>2026-05-02T06:38:59.001Z</time></trkpt><trkpt lat="40.997390166347785" lon="9.587444945289349"><ele>70.0</ele><time>2026-05-02T06:39:00.001Z</time></trkpt><trkpt lat="40.997270408940246" lon="9.587718975035376"><ele>74.0</ele><time>2026-05-02T06:39:01.001Z</time></trkpt><trkpt lat="40.99713154635365" lon="9.58798753400585"><ele>78.0</ele><time>2026-05-02T06:39:02.001Z</time></trkpt><trkpt lat="40.996998735489626" lon="9.588255686770294"><ele>78.0</ele><time>2026-05-02T06:39:03.001Z</time></trkpt><trkpt lat="40.99686254297034" lon="9.58851988878171"><ele>78.0</ele><time>2026-05-02T06:39:04.001Z</time></trkpt><trkpt lat="40.99672681745798" lon="9.5887797549688"><ele>78.0</ele><time>2026-05-02T06:39:05.001Z</time></trkpt><trkpt lat="40.996592209956646" lon="9.58904034896115"><ele>78.0</ele><time>2026-05-02T06:39:06.001Z</time></trkpt><trkpt lat="40.996466474495406" lon="9.589300444681115"><ele>81.0</ele><time>2026-05-02T06:39:07.001Z</time></trkpt><trkpt lat="40.99635637517926" lon="9.589555535215792"><ele>84.0</ele><time>2026-05-02T06:39:08.001Z</time></trkpt><trkpt lat="40.996270347381106" lon="9.589816736601568"><ele>87.0</ele><time>2026-05-02T06:39:09.001Z</time></trkpt><trkpt lat="40.99620640938044" lon="9.590072166476723"><ele>87.0</ele><time>2026-05-02T06:39:10.001Z</time></trkpt><trkpt lat="40.996143945892946" lon="9.590309871511334"><ele>87.0</ele><time>2026-05-02T06:39:11.001Z</time></trkpt><trkpt lat="40.99608956935057" lon="9.590533958142123"><ele>87.0</ele><time>2026-05-02T06:39:12.001Z</time></trkpt><trkpt lat="40.99605891333322" lon="9.590753552073105"><ele>86.66666666666667</ele><time>2026-05-02T06:39:13.001Z</time></trkpt><trkpt lat="40.99608163500867" lon="9.590962633636869"><ele>86.33333333333334</ele><time>2026-05-02T06:39:14.001Z</time></trkpt><trkpt lat="40.99616413888368" lon="9.591158999252377"><ele>86.0</ele><time>2026-05-02T06:39:15.001Z</time></trkpt><trkpt lat="40.996299247586975" lon="9.591318640024346"><ele>84.0</ele><time>2026-05-02T06:39:16.001Z</time></trkpt><trkpt lat="40.996453939121494" lon="9.591439972315738"><ele>82.0</ele><time>2026-05-02T06:39:17.001Z</time></trkpt><trkpt lat="40.996643758542554" lon="9.591524852714253"><ele>80.0</ele><time>2026-05-02T06:39:18.001Z</time></trkpt><trkpt lat="40.996846379800026" lon="9.591611194974877"><ele>80.0</ele><time>2026-05-02T06:39:19.001Z</time></trkpt><trkpt lat="40.99703550517851" lon="9.591708769595899"><ele>80.0</ele><time>2026-05-02T06:39:20.001Z</time></trkpt><trkpt lat="40.99721788595445" lon="9.591782943110559"><ele>80.0</ele><time>2026-05-02T06:39:21.001Z</time></trkpt><trkpt lat="40.9974180530083" lon="9.591804693712696"><ele>80.33333333333334</ele><time>2026-05-02T06:39:22.001Z</time></trkpt><trkpt lat="40.997628883120626" lon="9.591790288829243"><ele>80.66666666666667</ele><time>2026-05-02T06:39:23.001Z</time></trkpt><trkpt lat="40.997846823527766" lon="9.591750798632455"><ele>81.0</ele><time>2026-05-02T06:39:24.001Z</time></trkpt><trkpt lat="40.99804353594096" lon="9.59171542018102"><ele>81.0</ele><time>2026-05-02T06:39:25.001Z</time></trkpt><trkpt lat="40.99822541414539" lon="9.591750474406819"><ele>81.0</ele><time>2026-05-02T06:39:26.001Z</time></trkpt><trkpt lat="40.998400789090525" lon="9.591840826693883"><ele>81.0</ele><time>2026-05-02T06:39:27.001Z</time></trkpt><trkpt lat="40.99853672745961" lon="9.592025043248036"><ele>80.33333333333333</ele><time>2026-05-02T06:39:28.001Z</time></trkpt><trkpt lat="40.998709984490134" lon="9.592207306565932"><ele>79.66666666666666</ele><time>2026-05-02T06:39:29.001Z</time></trkpt><trkpt lat="40.99886535273463" lon="9.592371703206895"><ele>79.0</ele><time>2026-05-02T06:39:30.001Z</time></trkpt><trkpt lat="40.99905713286698" lon="9.592482397828524"><ele>80.66666666666666</ele><time>2026-05-02T06:39:31.001Z</time></trkpt><trkpt lat="40.999262070308106" lon="9.592570232752953"><ele>82.33333333333333</ele><time>2026-05-02T06:39:32.001Z</time></trkpt><trkpt lat="40.9994815486805" lon="9.592653819393439"><ele>84.0</ele><time>2026-05-02T06:39:33.001Z</time></trkpt><trkpt lat="40.99967475162844" lon="9.592751996163988"><ele>78.66666666666667</ele><time>2026-05-02T06:39:34.001Z</time></trkpt><trkpt lat="40.99984762322458" lon="9.592886973630494"><ele>73.33333333333334</ele><time>2026-05-02T06:39:35.001Z</time></trkpt><trkpt lat="40.99997459409987" lon="9.593097207919826"><ele>68.0</ele><time>2026-05-02T06:39:36.001Z</time></trkpt><trkpt lat="41.000108586463384" lon="9.593320391824996"><ele>68.0</ele><time>2026-05-02T06:39:37.001Z</time></trkpt><trkpt lat="41.00021208562924" lon="9.593532641830638"><ele>68.0</ele><time>2026-05-02T06:39:38.001Z</time></trkpt><trkpt lat="41.000341009196205" lon="9.59368415980106"><ele>68.0</ele><time>2026-05-02T06:39:39.001Z</time></trkpt><trkpt lat="41.00050824850952" lon="9.593783262403393"><ele>63.333333333333336</ele><time>2026-05-02T06:39:40.001Z</time></trkpt><trkpt lat="41.000706933213074" lon="9.59382586927074"><ele>58.66666666666667</ele><time>2026-05-02T06:39:41.001Z</time></trkpt><trkpt lat="41.000911684308605" lon="9.593849700713985"><ele>54.0</ele><time>2026-05-02T06:39:42.001Z</time></trkpt><trkpt lat="41.00111775770272" lon="9.593876870465923"><ele>54.0</ele><time>2026-05-02T06:39:43.001Z</time></trkpt><trkpt lat="41.00131539185981" lon="9.593926143174997"><ele>54.0</ele><time>2026-05-02T06:39:44.001Z</time></trkpt><trkpt lat="41.001497662371335" lon="9.593989625526024"><ele>54.0</ele><time>2026-05-02T06:39:45.001Z</time></trkpt><trkpt lat="41.00165993900338" lon="9.594091761273068"><ele>55.66666666666667</ele><time>2026-05-02T06:39:46.001Z</time></trkpt><trkpt lat="41.001805976802714" lon="9.594221203671477"><ele>57.333333333333336</ele><time>2026-05-02T06:39:47.001Z</time></trkpt><trkpt lat="41.001932945573856" lon="9.594355169153163"><ele>59.0</ele><time>2026-05-02T06:39:48.001Z</time></trkpt><trkpt lat="41.00205030746371" lon="9.594493636389828"><ele>56.0</ele><time>2026-05-02T06:39:49.001Z</time></trkpt><trkpt lat="41.00214360111114" lon="9.594637314246837"><ele>53.0</ele><time>2026-05-02T06:39:50.001Z</time></trkpt><trkpt lat="41.00222488469996" lon="9.594792365121767"><ele>50.0</ele><time>2026-05-02T06:39:51.001Z</time></trkpt><trkpt lat="41.00229855327167" lon="9.594944458490412"><ele>47.0</ele><time>2026-05-02T06:39:52.001Z</time></trkpt><trkpt lat="41.00238121753114" lon="9.595107262647991"><ele>47.0</ele><time>2026-05-02T06:39:53.001Z</time></trkpt><trkpt lat="41.002474832707655" lon="9.595261934170411"><ele>47.0</ele><time>2026-05-02T06:39:54Z</time></trkpt><trkpt lat="41.00258014724309" lon="9.59540501036479"><ele>47.0</ele><time>2026-05-02T06:39:55Z</time></trkpt><trkpt lat="41.002696967824384" lon="9.59552605862287"><ele>47.0</ele><time>2026-05-02T06:39:56Z</time></trkpt><trkpt lat="41.0028329510558" lon="9.595591027015521"><ele>46.75</ele><time>2026-05-02T06:39:57Z</time></trkpt><trkpt lat="41.0029686229281" lon="9.595595115511207"><ele>46.5</ele><time>2026-05-02T06:39:58Z</time></trkpt><trkpt lat="41.00309707137065" lon="9.595556134764758"><ele>46.25</ele><time>2026-05-02T06:39:59Z</time></trkpt><trkpt lat="41.003215070490675" lon="9.595440639610784"><ele>46.0</ele><time>2026-05-02T06:40:00Z</time></trkpt><trkpt lat="41.00330775877117" lon="9.595263178286576"><ele>47.333333333333336</ele><time>2026-05-02T06:40:01Z</time></trkpt><trkpt lat="41.0033568143267" lon="9.595051708401334"><ele>48.66666666666667</ele><time>2026-05-02T06:40:02Z</time></trkpt><trkpt lat="41.00336020299309" lon="9.594850365145803"><ele>50.0</ele><time>2026-05-02T06:40:03Z</time></trkpt><trkpt lat="41.00333006641184" lon="9.594672982831533"><ele>50.0</ele><time>2026-05-02T06:40:04Z</time></trkpt><trkpt lat="41.00330576322234" lon="9.594509542906309"><ele>50.0</ele><time>2026-05-02T06:40:05Z</time></trkpt><trkpt lat="41.00328916714577" lon="9.594359518510167"><ele>50.0</ele><time>2026-05-02T06:40:06Z</time></trkpt><trkpt lat="41.00328192173171" lon="9.594191266998363"><ele>50.0</ele><time>2026-05-02T06:40:07Z</time></trkpt><trkpt lat="41.00329505176291" lon="9.594003728793947"><ele>49.333333333333336</ele><time>2026-05-02T06:40:08Z</time></trkpt><trkpt lat="41.00331973171385" lon="9.59379805996182"><ele>48.66666666666667</ele><time>2026-05-02T06:40:09Z</time></trkpt><trkpt lat="41.00334144257604" lon="9.593580031829443"><ele>48.0</ele><time>2026-05-02T06:40:10Z</time></trkpt><trkpt lat="41.003380225381896" lon="9.593369018544958"><ele>48.0</ele><time>2026-05-02T06:40:11Z</time></trkpt><trkpt lat="41.0034048044641" lon="9.593160064415576"><ele>48.0</ele><time>2026-05-02T06:40:12Z</time></trkpt><trkpt lat="41.00342617899297" lon="9.592964642647926"><ele>48.0</ele><time>2026-05-02T06:40:13.001Z</time></trkpt><trkpt lat="41.00341889540474" lon="9.592767655435614"><ele>47.25</ele><time>2026-05-02T06:40:14.001Z</time></trkpt><trkpt lat="41.00342965844688" lon="9.592566967326588"><ele>46.5</ele><time>2026-05-02T06:40:15.001Z</time></trkpt><trkpt lat="41.00339782028958" lon="9.592380016124556"><ele>45.75</ele><time>2026-05-02T06:40:16.001Z</time></trkpt><trkpt lat="41.00336579670686" lon="9.592197997781284"><ele>45.0</ele><time>2026-05-02T06:40:17.001Z</time></trkpt><trkpt lat="41.00328755830293" lon="9.592030449097622"><ele>47.0</ele><time>2026-05-02T06:40:18.001Z</time></trkpt><trkpt lat="41.00317730561391" lon="9.591881358238561"><ele>49.0</ele><time>2026-05-02T06:40:19.001Z</time></trkpt><trkpt lat="41.00310526493696" lon="9.591713542628314"><ele>51.0</ele><time>2026-05-02T06:40:20.001Z</time></trkpt><trkpt lat="41.003072110920854" lon="9.591542568393194"><ele>53.0</ele><time>2026-05-02T06:40:21.001Z</time></trkpt><trkpt lat="41.00308353257113" lon="9.591353662423618"><ele>51.333333333333336</ele><time>2026-05-02T06:40:22.001Z</time></trkpt><trkpt lat="41.00311256736763" lon="9.591119004022016"><ele>49.66666666666667</ele><time>2026-05-02T06:40:23.001Z</time></trkpt><trkpt lat="41.00312784628048" lon="9.590892950346511"><ele>48.0</ele><time>2026-05-02T06:40:24.001Z</time></trkpt><trkpt lat="41.00315385087327" lon="9.59067539109735"><ele>48.0</ele><time>2026-05-02T06:40:25.001Z</time></trkpt><trkpt lat="41.00317453613245" lon="9.590463046009132"><ele>48.0</ele><time>2026-05-02T06:40:26.001Z</time></trkpt><trkpt lat="41.00321335798582" lon="9.590267433323987"><ele>48.0</ele><time>2026-05-02T06:40:27.001Z</time></trkpt><trkpt lat="41.003207838770315" lon="9.590067969234985"><ele>48.66666666666667</ele><time>2026-05-02T06:40:28.001Z</time></trkpt><trkpt lat="41.00320108446095" lon="9.589869428667027"><ele>49.333333333333336</ele><time>2026-05-02T06:40:29.001Z</time></trkpt><trkpt lat="41.00315563319209" lon="9.589668824541947"><ele>50.0</ele><time>2026-05-02T06:40:30.001Z</time></trkpt><trkpt lat="41.00309451396425" lon="9.589443554041106"><ele>48.66666666666667</ele><time>2026-05-02T06:40:31.001Z</time></trkpt><trkpt lat="41.0030230866757" lon="9.589194187316046"><ele>47.333333333333336</ele><time>2026-05-02T06:40:32.001Z</time></trkpt><trkpt lat="41.00293224469925" lon="9.588932795934666"><ele>46.0</ele><time>2026-05-02T06:40:33.001Z</time></trkpt><trkpt lat="41.002813337487794" lon="9.588683557846098"><ele>43.0</ele><time>2026-05-02T06:40:34Z</time></trkpt><trkpt lat="41.002684519355576" lon="9.588439081362425"><ele>40.0</ele><time>2026-05-02T06:40:35Z</time></trkpt><trkpt lat="41.00259877320007" lon="9.588199557068325"><ele>37.0</ele><time>2026-05-02T06:40:36Z</time></trkpt><trkpt lat="41.00254829469951" lon="9.587958075999408"><ele>35.333333333333336</ele><time>2026-05-02T06:40:37Z</time></trkpt><trkpt lat="41.002515009579355" lon="9.587702491353776"><ele>33.666666666666664</ele><time>2026-05-02T06:40:38Z</time></trkpt><trkpt lat="41.002468247881716" lon="9.587464087909819"><ele>32.0</ele><time>2026-05-02T06:40:39Z</time></trkpt><trkpt lat="41.002438390171" lon="9.587229995237777"><ele>35.33333333333333</ele><time>2026-05-02T06:40:40Z</time></trkpt><trkpt lat="41.00240694313059" lon="9.58699831685373"><ele>38.666666666666664</ele><time>2026-05-02T06:40:41Z</time></trkpt><trkpt lat="41.002373334476474" lon="9.586776001494743"><ele>42.0</ele><time>2026-05-02T06:40:42Z</time></trkpt><trkpt lat="41.002357596876635" lon="9.5865515904375"><ele>42.0</ele><time>2026-05-02T06:40:43Z</time></trkpt><trkpt lat="41.00232705232888" lon="9.586332612216696"><ele>42.0</ele><time>2026-05-02T06:40:44Z</time></trkpt><trkpt lat="41.002222883364894" lon="9.585917159934443"><ele>40.333333333333336</ele><time>2026-05-02T06:40:46Z</time></trkpt><trkpt lat="41.00214099055221" lon="9.585710653151304"><ele>38.66666666666667</ele><time>2026-05-02T06:40:47Z</time></trkpt><trkpt lat="41.00203603672901" lon="9.585511804694132"><ele>37.0</ele><time>2026-05-02T06:40:48Z</time></trkpt><trkpt lat="41.00193821253585" lon="9.585308641713857"><ele>34.333333333333336</ele><time>2026-05-02T06:40:49Z</time></trkpt><trkpt lat="41.00183709290886" lon="9.585114868900554"><ele>31.666666666666664</ele><time>2026-05-02T06:40:50Z</time></trkpt><trkpt lat="41.00174748164195" lon="9.58493741773027"><ele>29.0</ele><time>2026-05-02T06:40:51Z</time></trkpt><trkpt lat="41.001679351819455" lon="9.584744515652616"><ele>28.666666666666664</ele><time>2026-05-02T06:40:52Z</time></trkpt><trkpt lat="41.00166358608874" lon="9.584547112543667"><ele>28.333333333333336</ele><time>2026-05-02T06:40:53Z</time></trkpt><trkpt lat="41.001696039396975" lon="9.584337765580793"><ele>28.0</ele><time>2026-05-02T06:40:54Z</time></trkpt><trkpt lat="41.001784320715984" lon="9.584112203520121"><ele>28.0</ele><time>2026-05-02T06:40:55Z</time></trkpt><trkpt lat="41.00186964078499" lon="9.583848622815422"><ele>28.0</ele><time>2026-05-02T06:40:56Z</time></trkpt><trkpt lat="41.0019748431142" lon="9.583617802919674"><ele>28.0</ele><time>2026-05-02T06:40:57Z</time></trkpt><trkpt lat="41.00205597553188" lon="9.583399704154974"><ele>29.666666666666668</ele><time>2026-05-02T06:40:58Z</time></trkpt><trkpt lat="41.00212735258278" lon="9.583205865345887"><ele>31.333333333333336</ele><time>2026-05-02T06:40:59Z</time></trkpt><trkpt lat="41.00219488918907" lon="9.583019191550965"><ele>33.0</ele><time>2026-05-02T06:41:00Z</time></trkpt><trkpt lat="41.002233344688406" lon="9.582837259039202"><ele>33.333333333333336</ele><time>2026-05-02T06:41:01Z</time></trkpt><trkpt lat="41.00223158038942" lon="9.5826397718331"><ele>33.66666666666667</ele><time>2026-05-02T06:41:02Z</time></trkpt><trkpt lat="41.00218440589182" lon="9.582445294996282"><ele>34.0</ele><time>2026-05-02T06:41:03Z</time></trkpt><trkpt lat="41.00209707263822" lon="9.582268308350356"><ele>34.0</ele><time>2026-05-02T06:41:04Z</time></trkpt><trkpt lat="41.00197965665493" lon="9.582084630556666"><ele>34.0</ele><time>2026-05-02T06:41:05Z</time></trkpt><trkpt lat="41.00182578405681" lon="9.581908333664838"><ele>34.0</ele><time>2026-05-02T06:41:06Z</time></trkpt><trkpt lat="41.001703908271836" lon="9.581706139267625"><ele>36.0</ele><time>2026-05-02T06:41:07Z</time></trkpt><trkpt lat="41.001576241868655" lon="9.5815210379643"><ele>38.0</ele><time>2026-05-02T06:41:08Z</time></trkpt><trkpt lat="41.00143491341457" lon="9.581349169413237"><ele>40.0</ele><time>2026-05-02T06:41:09Z</time></trkpt><trkpt lat="41.00130933887139" lon="9.581190500382753"><ele>38.0</ele><time>2026-05-02T06:41:10Z</time></trkpt><trkpt lat="41.00115746790878" lon="9.581086514984086"><ele>36.0</ele><time>2026-05-02T06:41:11Z</time></trkpt><trkpt lat="41.000938262214945" lon="9.58100804886008"><ele>34.0</ele><time>2026-05-02T06:41:12Z</time></trkpt><trkpt lat="41.000702190401284" lon="9.580908714106364"><ele>34.0</ele><time>2026-05-02T06:41:13Z</time></trkpt><trkpt lat="41.00051339899239" lon="9.58075857716221"><ele>34.0</ele><time>2026-05-02T06:41:14Z</time></trkpt><trkpt lat="41.00038871925961" lon="9.5805714443381"><ele>34.0</ele><time>2026-05-02T06:41:15Z</time></trkpt><trkpt lat="41.000321557463" lon="9.58034229533024"><ele>31.666666666666668</ele><time>2026-05-02T06:41:16Z</time></trkpt><trkpt lat="41.00027619271388" lon="9.580054368721745"><ele>29.333333333333336</ele><time>2026-05-02T06:41:17Z</time></trkpt><trkpt lat="41.00022790208146" lon="9.579781830538938"><ele>27.0</ele><time>2026-05-02T06:41:18Z</time></trkpt><trkpt lat="41.000170027088465" lon="9.579530097508103"><ele>24.666666666666668</ele><time>2026-05-02T06:41:19Z</time></trkpt><trkpt lat="41.00004853519315" lon="9.579329133764261"><ele>22.333333333333336</ele><time>2026-05-02T06:41:20Z</time></trkpt><trkpt lat="40.999849244517826" lon="9.579154677486278"><ele>20.0</ele><time>2026-05-02T06:41:21Z</time></trkpt><trkpt lat="40.99964773890258" lon="9.578940701753039"><ele>20.0</ele><time>2026-05-02T06:41:22Z</time></trkpt><trkpt lat="40.999452085321465" lon="9.578731435182021"><ele>20.0</ele><time>2026-05-02T06:41:23Z</time></trkpt><trkpt lat="40.9992663661701" lon="9.578529933637462"><ele>18.5</ele><time>2026-05-02T06:41:24Z</time></trkpt><trkpt lat="40.9990961140434" lon="9.57833308939015"><ele>17.0</ele><time>2026-05-02T06:41:25Z</time></trkpt><trkpt lat="40.99893776662168" lon="9.578123313434073"><ele>17.0</ele><time>2026-05-02T06:41:26Z</time></trkpt><trkpt lat="40.998768780722536" lon="9.57792777334441"><ele>17.0</ele><time>2026-05-02T06:41:27Z</time></trkpt><trkpt lat="40.998616695586904" lon="9.577715257124737"><ele>17.0</ele><time>2026-05-02T06:41:28Z</time></trkpt><trkpt lat="40.99845912082702" lon="9.577513715691346"><ele>17.0</ele><time>2026-05-02T06:41:29Z</time></trkpt><trkpt lat="40.99830981580785" lon="9.577309594693183"><ele>17.0</ele><time>2026-05-02T06:41:30Z</time></trkpt><trkpt lat="40.99816210778023" lon="9.577114112335671"><ele>17.0</ele><time>2026-05-02T06:41:31Z</time></trkpt><trkpt lat="40.998015459054336" lon="9.576915123319319"><ele>16.0</ele><time>2026-05-02T06:41:32Z</time></trkpt><trkpt lat="40.99787893200911" lon="9.576724817760367"><ele>15.0</ele><time>2026-05-02T06:41:33Z</time></trkpt><trkpt lat="40.99779346760634" lon="9.57650165161122"><ele>14.0</ele><time>2026-05-02T06:41:34Z</time></trkpt><trkpt lat="40.997721987899105" lon="9.576250734106344"><ele>13.666666666666668</ele><time>2026-05-02T06:41:35Z</time></trkpt><trkpt lat="40.997649262426194" lon="9.57597242524072"><ele>13.333333333333332</ele><time>2026-05-02T06:41:36Z</time></trkpt><trkpt lat="40.99756702216427" lon="9.575719149978895"><ele>13.0</ele><time>2026-05-02T06:41:37Z</time></trkpt><trkpt lat="40.99749923963748" lon="9.575466377933056"><ele>13.333333333333332</ele><time>2026-05-02T06:41:38Z</time></trkpt><trkpt lat="40.99745095765396" lon="9.575214241797118"><ele>13.666666666666668</ele><time>2026-05-02T06:41:39Z</time></trkpt><trkpt lat="40.997373646166665" lon="9.574953866805599"><ele>14.0</ele><time>2026-05-02T06:41:40Z</time></trkpt><trkpt lat="40.997302566785315" lon="9.574690120004943"><ele>14.333333333333334</ele><time>2026-05-02T06:41:41Z</time></trkpt><trkpt lat="40.99723388797752" lon="9.574442100487634"><ele>14.666666666666668</ele><time>2026-05-02T06:41:42Z</time></trkpt><trkpt lat="40.997194300340574" lon="9.574198615435254"><ele>15.0</ele><time>2026-05-02T06:41:43Z</time></trkpt><trkpt lat="40.99719036667301" lon="9.573964795103887"><ele>15.0</ele><time>2026-05-02T06:41:44Z</time></trkpt><trkpt lat="40.99723621019677" lon="9.573751318617294"><ele>15.0</ele><time>2026-05-02T06:41:45Z</time></trkpt><trkpt lat="40.99733740431078" lon="9.573550191782045"><ele>15.0</ele><time>2026-05-02T06:41:46Z</time></trkpt><trkpt lat="40.99744378518299" lon="9.573347250575871"><ele>15.666666666666668</ele><time>2026-05-02T06:41:47Z</time></trkpt><trkpt lat="40.99753984932583" lon="9.573138030332265"><ele>16.333333333333336</ele><time>2026-05-02T06:41:48Z</time></trkpt><trkpt lat="40.9976217278605" lon="9.572902206882762"><ele>17.0</ele><time>2026-05-02T06:41:49Z</time></trkpt><trkpt lat="40.997697043442855" lon="9.572607171030832"><ele>17.0</ele><time>2026-05-02T06:41:50Z</time></trkpt><trkpt lat="40.99776763239742" lon="9.572282318136338"><ele>17.0</ele><time>2026-05-02T06:41:51Z</time></trkpt><trkpt lat="40.9978415844864" lon="9.571965852372234"><ele>19.5</ele><time>2026-05-02T06:41:52Z</time></trkpt><trkpt lat="40.99791540962689" lon="9.571641038263296"><ele>22.0</ele><time>2026-05-02T06:41:53Z</time></trkpt><trkpt lat="40.99803886099128" lon="9.571337881644713"><ele>24.5</ele><time>2026-05-02T06:41:54Z</time></trkpt><trkpt lat="40.99815556209178" lon="9.571024596013482"><ele>27.0</ele><time>2026-05-02T06:41:55Z</time></trkpt><trkpt lat="40.99826140622021" lon="9.570705055806034"><ele>23.0</ele><time>2026-05-02T06:41:56Z</time></trkpt><trkpt lat="40.998371412606126" lon="9.570396091672734"><ele>19.0</ele><time>2026-05-02T06:41:57Z</time></trkpt><trkpt lat="40.99846183822257" lon="9.570071693980594"><ele>19.0</ele><time>2026-05-02T06:41:58Z</time></trkpt><trkpt lat="40.9985211518921" lon="9.569724912686812"><ele>19.0</ele><time>2026-05-02T06:41:59Z</time></trkpt><trkpt lat="40.998581937358054" lon="9.56938729836296"><ele>20.5</ele><time>2026-05-02T06:42:00Z</time></trkpt><trkpt lat="40.99866015622547" lon="9.569078383429298"><ele>22.0</ele><time>2026-05-02T06:42:01Z</time></trkpt><trkpt lat="40.998723888284424" lon="9.568763339789985"><ele>24.0</ele><time>2026-05-02T06:42:02Z</time></trkpt><trkpt lat="40.9987910965174" lon="9.568431112564369"><ele>26.0</ele><time>2026-05-02T06:42:03Z</time></trkpt><trkpt lat="40.99879271262053" lon="9.5681076648377"><ele>27.5</ele><time>2026-05-02T06:42:04Z</time></trkpt><trkpt lat="40.99880401536495" lon="9.567792523555337"><ele>29.0</ele><time>2026-05-02T06:42:05Z</time></trkpt><trkpt lat="40.998811457013524" lon="9.567501128132651"><ele>29.0</ele><time>2026-05-02T06:42:06Z</time></trkpt><trkpt lat="40.998820335195454" lon="9.567221419647769"><ele>29.0</ele><time>2026-05-02T06:42:07Z</time></trkpt><trkpt lat="40.998810741749246" lon="9.566906505049"><ele>29.0</ele><time>2026-05-02T06:42:08Z</time></trkpt><trkpt lat="40.99877915619516" lon="9.566607667763813"><ele>29.0</ele><time>2026-05-02T06:42:09Z</time></trkpt><trkpt lat="40.998749848282706" lon="9.566316086185347"><ele>29.0</ele><time>2026-05-02T06:42:10Z</time></trkpt><trkpt lat="40.99873091285031" lon="9.566009697501325"><ele>27.0</ele><time>2026-05-02T06:42:11Z</time></trkpt><trkpt lat="40.99871401160148" lon="9.565708549109637"><ele>25.0</ele><time>2026-05-02T06:42:12Z</time></trkpt><trkpt lat="40.99869709530142" lon="9.565411819503765"><ele>23.666666666666668</ele><time>2026-05-02T06:42:13Z</time></trkpt><trkpt lat="40.99868215827477" lon="9.56512477029189"><ele>22.333333333333336</ele><time>2026-05-02T06:42:14Z</time></trkpt><trkpt lat="40.99867513802886" lon="9.564833963049999"><ele>21.0</ele><time>2026-05-02T06:42:15Z</time></trkpt><trkpt lat="40.998689154823445" lon="9.564539401098088"><ele>20.5</ele><time>2026-05-02T06:42:16Z</time></trkpt><trkpt lat="40.99872124956924" lon="9.564241150421523"><ele>20.0</ele><time>2026-05-02T06:42:17Z</time></trkpt><trkpt lat="40.998763814233314" lon="9.563936200027145"><ele>19.0</ele><time>2026-05-02T06:42:18Z</time></trkpt><trkpt lat="40.99879608213402" lon="9.563636705582269"><ele>18.0</ele><time>2026-05-02T06:42:19Z</time></trkpt><trkpt lat="40.99882469210149" lon="9.56334483671763"><ele>18.0</ele><time>2026-05-02T06:42:20Z</time></trkpt><trkpt lat="40.99885753847553" lon="9.563049966870489"><ele>18.0</ele><time>2026-05-02T06:42:21Z</time></trkpt><trkpt lat="40.99888824110588" lon="9.562751098494067"><ele>18.0</ele><time>2026-05-02T06:42:22Z</time></trkpt><trkpt lat="40.99891939702554" lon="9.562448096261736"><ele>18.0</ele><time>2026-05-02T06:42:23Z</time></trkpt><trkpt lat="40.998923620782584" lon="9.562141220069044"><ele>17.0</ele><time>2026-05-02T06:42:24Z</time></trkpt><trkpt lat="40.99891607702304" lon="9.561815502581162"><ele>16.0</ele><time>2026-05-02T06:42:25Z</time></trkpt><trkpt lat="40.99889401617593" lon="9.5614481173019"><ele>16.0</ele><time>2026-05-02T06:42:26Z</time></trkpt><trkpt lat="40.99887501796192" lon="9.561082593669465"><ele>16.0</ele><time>2026-05-02T06:42:27Z</time></trkpt><trkpt lat="40.99887741568857" lon="9.560720808675837"><ele>16.5</ele><time>2026-05-02T06:42:28Z</time></trkpt><trkpt lat="40.99889955179843" lon="9.560363669141958"><ele>17.0</ele><time>2026-05-02T06:42:29Z</time></trkpt><trkpt lat="40.99892940766487" lon="9.560019670929513"><ele>17.0</ele><time>2026-05-02T06:42:30Z</time></trkpt><trkpt lat="40.9989593334677" lon="9.559685132367235"><ele>17.0</ele><time>2026-05-02T06:42:31Z</time></trkpt><trkpt lat="40.998983567440455" lon="9.559378968777569"><ele>16.333333333333336</ele><time>2026-05-02T06:42:32Z</time></trkpt><trkpt lat="40.99897886784461" lon="9.559096467889413"><ele>15.666666666666668</ele><time>2026-05-02T06:42:33Z</time></trkpt><trkpt lat="40.99891026524761" lon="9.55881923395032"><ele>15.0</ele><time>2026-05-02T06:42:34Z</time></trkpt><trkpt lat="40.998771133420995" lon="9.558552259096432"><ele>14.0</ele><time>2026-05-02T06:42:35Z</time></trkpt><trkpt lat="40.99868542742024" lon="9.558266009036437"><ele>13.0</ele><time>2026-05-02T06:42:36Z</time></trkpt><trkpt lat="40.99865925345554" lon="9.55800704188225"><ele>12.0</ele><time>2026-05-02T06:42:37Z</time></trkpt><trkpt lat="40.998677500784936" lon="9.557736927814785"><ele>12.0</ele><time>2026-05-02T06:42:38Z</time></trkpt><trkpt lat="40.99870357860597" lon="9.55745565848618"><ele>12.0</ele><time>2026-05-02T06:42:39Z</time></trkpt><trkpt lat="40.998729049523185" lon="9.557185155797388"><ele>12.0</ele><time>2026-05-02T06:42:40Z</time></trkpt><trkpt lat="40.99875174639501" lon="9.556927205468455"><ele>12.666666666666668</ele><time>2026-05-02T06:42:41Z</time></trkpt><trkpt lat="40.998737180010906" lon="9.55665746298701"><ele>13.333333333333334</ele><time>2026-05-02T06:42:42Z</time></trkpt><trkpt lat="40.99871420263279" lon="9.556387652361035"><ele>14.0</ele><time>2026-05-02T06:42:43Z</time></trkpt><trkpt lat="40.99866892916737" lon="9.556116912273872"><ele>14.0</ele><time>2026-05-02T06:42:44Z</time></trkpt><trkpt lat="40.99864862305008" lon="9.555868851844767"><ele>14.0</ele><time>2026-05-02T06:42:45Z</time></trkpt><trkpt lat="40.99866372694456" lon="9.555613481217259"><ele>14.0</ele><time>2026-05-02T06:42:46Z</time></trkpt><trkpt lat="40.99870711467478" lon="9.55536014167944"><ele>14.0</ele><time>2026-05-02T06:42:47Z</time></trkpt><trkpt lat="40.99875070826638" lon="9.555100416256172"><ele>14.0</ele><time>2026-05-02T06:42:48Z</time></trkpt><trkpt lat="40.99878603857099" lon="9.554837485956002"><ele>14.0</ele><time>2026-05-02T06:42:49Z</time></trkpt><trkpt lat="40.998809506334894" lon="9.554574109526019"><ele>13.333333333333334</ele><time>2026-05-02T06:42:50Z</time></trkpt><trkpt lat="40.99882157409252" lon="9.554289714408414"><ele>12.666666666666668</ele><time>2026-05-02T06:42:51Z</time></trkpt><trkpt lat="40.99883220854021" lon="9.554004446683308"><ele>12.0</ele><time>2026-05-02T06:42:52Z</time></trkpt><trkpt lat="40.99884263290467" lon="9.5537248151782"><ele>12.0</ele><time>2026-05-02T06:42:53Z</time></trkpt><trkpt lat="40.99883929231321" lon="9.553455686536502"><ele>12.0</ele><time>2026-05-02T06:42:54Z</time></trkpt><trkpt lat="40.99884783071126" lon="9.553187028825972"><ele>12.0</ele><time>2026-05-02T06:42:55Z</time></trkpt><trkpt lat="40.998860773588035" lon="9.552921609825354"><ele>12.0</ele><time>2026-05-02T06:42:56Z</time></trkpt><trkpt lat="40.99885363245166" lon="9.552660829219743"><ele>12.0</ele><time>2026-05-02T06:42:57Z</time></trkpt><trkpt lat="40.99880963912748" lon="9.552407071732445"><ele>12.0</ele><time>2026-05-02T06:42:58Z</time></trkpt><trkpt lat="40.99872263000866" lon="9.55216551198022"><ele>11.0</ele><time>2026-05-02T06:42:59Z</time></trkpt><trkpt lat="40.99857836832193" lon="9.551921382940797"><ele>10.0</ele><time>2026-05-02T06:43:00Z</time></trkpt><trkpt lat="40.99842601248266" lon="9.55167574281841"><ele>11.5</ele><time>2026-05-02T06:43:01Z</time></trkpt><trkpt lat="40.99828564811095" lon="9.551407613655382"><ele>13.0</ele><time>2026-05-02T06:43:02Z</time></trkpt><trkpt lat="40.998149720398104" lon="9.551142953446131"><ele>13.0</ele><time>2026-05-02T06:43:03Z</time></trkpt><trkpt lat="40.99800716019045" lon="9.550886520021585"><ele>13.0</ele><time>2026-05-02T06:43:04Z</time></trkpt><trkpt lat="40.997902954373174" lon="9.550611973642958"><ele>13.0</ele><time>2026-05-02T06:43:05Z</time></trkpt><trkpt lat="40.99781414292" lon="9.550319113451906"><ele>13.0</ele><time>2026-05-02T06:43:06Z</time></trkpt><trkpt lat="40.99774512012322" lon="9.55001132289553"><ele>13.0</ele><time>2026-05-02T06:43:07Z</time></trkpt><trkpt lat="40.997679662379454" lon="9.549701600332716"><ele>13.0</ele><time>2026-05-02T06:43:08Z</time></trkpt><trkpt lat="40.99760352259734" lon="9.54939224303624"><ele>13.5</ele><time>2026-05-02T06:43:09Z</time></trkpt><trkpt lat="40.9975431849385" lon="9.549096379934456"><ele>14.0</ele><time>2026-05-02T06:43:10Z</time></trkpt><trkpt lat="40.99748276757776" lon="9.548804988513348"><ele>16.0</ele><time>2026-05-02T06:43:11Z</time></trkpt><trkpt lat="40.99742668849289" lon="9.548519958651179"><ele>18.0</ele><time>2026-05-02T06:43:12Z</time></trkpt><trkpt lat="40.99736591456803" lon="9.548228348919565"><ele>18.0</ele><time>2026-05-02T06:43:13Z</time></trkpt><trkpt lat="40.99730549610183" lon="9.547961309105949"><ele>18.0</ele><time>2026-05-02T06:43:14Z</time></trkpt><trkpt lat="40.99724756646636" lon="9.547700969542598"><ele>18.0</ele><time>2026-05-02T06:43:15Z</time></trkpt><trkpt lat="40.99718588869166" lon="9.54745334094939"><ele>17.75</ele><time>2026-05-02T06:43:16Z</time></trkpt><trkpt lat="40.99710943513121" lon="9.547269360430095"><ele>17.5</ele><time>2026-05-02T06:43:17Z</time></trkpt><trkpt lat="40.99702771806512" lon="9.547108348550987"><ele>17.25</ele><time>2026-05-02T06:43:18Z</time></trkpt><trkpt lat="40.99696137221034" lon="9.546947659569236"><ele>17.0</ele><time>2026-05-02T06:43:19Z</time></trkpt><trkpt lat="40.99691355813362" lon="9.546798349648315"><ele>17.75</ele><time>2026-05-02T06:43:20Z</time></trkpt><trkpt lat="40.996871490779725" lon="9.546656460666801"><ele>18.5</ele><time>2026-05-02T06:43:21Z</time></trkpt><trkpt lat="40.99683920922322" lon="9.546524577307958"><ele>19.25</ele><time>2026-05-02T06:43:22Z</time></trkpt><trkpt lat="40.99683274850396" lon="9.54637157791513"><ele>20.0</ele><time>2026-05-02T06:43:23Z</time></trkpt><trkpt lat="40.99685195665173" lon="9.546221459377282"><ele>20.75</ele><time>2026-05-02T06:43:24Z</time></trkpt><trkpt lat="40.99688173359879" lon="9.546071830426866"><ele>21.5</ele><time>2026-05-02T06:43:25Z</time></trkpt><trkpt lat="40.99694093330857" lon="9.545928060852374"><ele>22.25</ele><time>2026-05-02T06:43:26Z</time></trkpt><trkpt lat="40.997019994419794" lon="9.545785354479623"><ele>23.0</ele><time>2026-05-02T06:43:27Z</time></trkpt><trkpt lat="40.99709931028733" lon="9.545628348156086"><ele>23.0</ele><time>2026-05-02T06:43:28Z</time></trkpt><trkpt lat="40.99718676660604" lon="9.545450613254284"><ele>23.0</ele><time>2026-05-02T06:43:29Z</time></trkpt><trkpt lat="40.99727528902453" lon="9.545270256343287"><ele>23.0</ele><time>2026-05-02T06:43:30Z</time></trkpt><trkpt lat="40.99735457606109" lon="9.545105401124882"><ele>24.0</ele><time>2026-05-02T06:43:31Z</time></trkpt><trkpt lat="40.99742440689163" lon="9.544947047426287"><ele>25.0</ele><time>2026-05-02T06:43:32Z</time></trkpt><trkpt lat="40.99749069529296" lon="9.544773035363107"><ele>26.0</ele><time>2026-05-02T06:43:33Z</time></trkpt><trkpt lat="40.99754764501023" lon="9.54458253508791"><ele>27.0</ele><time>2026-05-02T06:43:34Z</time></trkpt><trkpt lat="40.99760051463281" lon="9.544368772671291"><ele>28.333333333333336</ele><time>2026-05-02T06:43:35Z</time></trkpt><trkpt lat="40.997647475651995" lon="9.544140612309148"><ele>29.666666666666668</ele><time>2026-05-02T06:43:36Z</time></trkpt><trkpt lat="40.99768683427191" lon="9.543899743865692"><ele>31.0</ele><time>2026-05-02T06:43:37Z</time></trkpt><trkpt lat="40.99770891308718" lon="9.543657098258256"><ele>32.333333333333336</ele><time>2026-05-02T06:43:38Z</time></trkpt><trkpt lat="40.99770461116158" lon="9.543441804908438"><ele>33.666666666666664</ele><time>2026-05-02T06:43:39Z</time></trkpt><trkpt lat="40.997696536825515" lon="9.543239717351355"><ele>35.0</ele><time>2026-05-02T06:43:40Z</time></trkpt><trkpt lat="40.997683493099835" lon="9.54302257713456"><ele>36.33333333333333</ele><time>2026-05-02T06:43:41Z</time></trkpt><trkpt lat="40.99765576636885" lon="9.542802537348427"><ele>37.666666666666664</ele><time>2026-05-02T06:43:42Z</time></trkpt><trkpt lat="40.99762048516582" lon="9.542594396778398"><ele>39.0</ele><time>2026-05-02T06:43:43Z</time></trkpt><trkpt lat="40.99757282292891" lon="9.542402890953344"><ele>39.0</ele><time>2026-05-02T06:43:44Z</time></trkpt><trkpt lat="40.99751986091056" lon="9.542191070732626"><ele>39.0</ele><time>2026-05-02T06:43:45Z</time></trkpt><trkpt lat="40.99746759053919" lon="9.541977797252976"><ele>39.0</ele><time>2026-05-02T06:43:46Z</time></trkpt><trkpt lat="40.99741748706545" lon="9.541769877220725"><ele>40.666666666666664</ele><time>2026-05-02T06:43:47Z</time></trkpt><trkpt lat="40.997364437123544" lon="9.541563797680332"><ele>42.33333333333333</ele><time>2026-05-02T06:43:48Z</time></trkpt><trkpt lat="40.9973107492525" lon="9.541354046360023"><ele>44.0</ele><time>2026-05-02T06:43:49Z</time></trkpt><trkpt lat="40.99725934239432" lon="9.541137286545618"><ele>45.25</ele><time>2026-05-02T06:43:50Z</time></trkpt><trkpt lat="40.99722024086314" lon="9.540958822093481"><ele>46.5</ele><time>2026-05-02T06:43:51Z</time></trkpt><trkpt lat="40.997183119387785" lon="9.540784313019222"><ele>47.75</ele><time>2026-05-02T06:43:52Z</time></trkpt><trkpt lat="40.99713910220363" lon="9.540605268460872"><ele>49.0</ele><time>2026-05-02T06:43:53Z</time></trkpt><trkpt lat="40.99710474243895" lon="9.540427227179864"><ele>49.75</ele><time>2026-05-02T06:43:54Z</time></trkpt><trkpt lat="40.997075720775335" lon="9.540243400482531"><ele>50.5</ele><time>2026-05-02T06:43:55Z</time></trkpt><trkpt lat="40.99705992424428" lon="9.540053139730324"><ele>51.25</ele><time>2026-05-02T06:43:56Z</time></trkpt><trkpt lat="40.99705092362944" lon="9.539838267340429"><ele>52.0</ele><time>2026-05-02T06:43:57Z</time></trkpt><trkpt lat="40.99705283602892" lon="9.539626619120874"><ele>52.0</ele><time>2026-05-02T06:43:58Z</time></trkpt><trkpt lat="40.99705783434138" lon="9.539402511185259"><ele>52.0</ele><time>2026-05-02T06:43:59Z</time></trkpt><trkpt lat="40.99707612633945" lon="9.539164920961706"><ele>52.0</ele><time>2026-05-02T06:44:00Z</time></trkpt><trkpt lat="40.99710933989423" lon="9.53892787445953"><ele>52.0</ele><time>2026-05-02T06:44:01Z</time></trkpt><trkpt lat="40.997160585065245" lon="9.538689779503226"><ele>52.0</ele><time>2026-05-02T06:44:02Z</time></trkpt><trkpt lat="40.997240316241125" lon="9.538408983369369"><ele>52.0</ele><time>2026-05-02T06:44:03Z</time></trkpt><trkpt lat="40.99732814160945" lon="9.538089942881713"><ele>52.5</ele><time>2026-05-02T06:44:04Z</time></trkpt><trkpt lat="40.9974187936597" lon="9.537755508921656"><ele>53.0</ele><time>2026-05-02T06:44:05Z</time></trkpt><trkpt lat="40.99751801756471" lon="9.537417466435702"><ele>53.5</ele><time>2026-05-02T06:44:06Z</time></trkpt><trkpt lat="40.997623537740516" lon="9.537066891049284"><ele>54.0</ele><time>2026-05-02T06:44:07Z</time></trkpt><trkpt lat="40.997727559472665" lon="9.536710563510061"><ele>54.0</ele><time>2026-05-02T06:44:08Z</time></trkpt><trkpt lat="40.99782685602238" lon="9.536357482855221"><ele>54.0</ele><time>2026-05-02T06:44:09Z</time></trkpt><trkpt lat="40.997929238477" lon="9.536004063591603"><ele>54.0</ele><time>2026-05-02T06:44:10Z</time></trkpt><trkpt lat="40.99802905986638" lon="9.535655183720436"><ele>54.0</ele><time>2026-05-02T06:44:11Z</time></trkpt><trkpt lat="40.998129685622295" lon="9.535306642801803"><ele>54.0</ele><time>2026-05-02T06:44:12Z</time></trkpt><trkpt lat="40.99823124253592" lon="9.534957118388016"><ele>54.0</ele><time>2026-05-02T06:44:13Z</time></trkpt><trkpt lat="40.998321350869034" lon="9.53462453608375"><ele>52.5</ele><time>2026-05-02T06:44:14Z</time></trkpt><trkpt lat="40.9984100374986" lon="9.534315356401372"><ele>51.0</ele><time>2026-05-02T06:44:15Z</time></trkpt><trkpt lat="40.9984858370718" lon="9.534029633226732"><ele>51.0</ele><time>2026-05-02T06:44:16Z</time></trkpt><trkpt lat="40.99856013313721" lon="9.533760493716292"><ele>51.0</ele><time>2026-05-02T06:44:17Z</time></trkpt><trkpt lat="40.99862841204367" lon="9.53349639805829"><ele>51.0</ele><time>2026-05-02T06:44:18Z</time></trkpt><trkpt lat="40.99869653200693" lon="9.533253839090545"><ele>51.25</ele><time>2026-05-02T06:44:19Z</time></trkpt><trkpt lat="40.99876115859771" lon="9.533019356495107"><ele>51.5</ele><time>2026-05-02T06:44:20Z</time></trkpt><trkpt lat="40.99881446844388" lon="9.532842070473274"><ele>51.75</ele><time>2026-05-02T06:44:21Z</time></trkpt><trkpt lat="40.998857510739825" lon="9.532734568161576"><ele>52.0</ele><time>2026-05-02T06:44:22Z</time></trkpt><trkpt lat="40.99895033244381" lon="9.532676259094528"><ele>52.0</ele><time>2026-05-02T06:44:24Z</time></trkpt><trkpt lat="40.99902095382025" lon="9.532633926939061"><ele>52.0</ele><time>2026-05-02T06:44:24.999Z</time></trkpt><trkpt lat="40.99905875596343" lon="9.532552012492"><ele>52.0</ele><time>2026-05-02T06:44:25.999Z</time></trkpt><trkpt lat="40.99906137520536" lon="9.5324325771357"><ele>52.0</ele><time>2026-05-02T06:44:26.999Z</time></trkpt><trkpt lat="40.999042425549746" lon="9.53223667831004"><ele>52.0</ele><time>2026-05-02T06:44:27.999Z</time></trkpt><trkpt lat="40.999046308162896" lon="9.531992206379114"><ele>51.666666666666664</ele><time>2026-05-02T06:44:28.999Z</time></trkpt><trkpt lat="40.99909968654462" lon="9.531790552547813"><ele>51.33333333333333</ele><time>2026-05-02T06:44:29.999Z</time></trkpt><trkpt lat="40.99914157736034" lon="9.53155853335157"><ele>51.0</ele><time>2026-05-02T06:44:30.999Z</time></trkpt><trkpt lat="40.99918261958055" lon="9.53130854154476"><ele>51.0</ele><time>2026-05-02T06:44:31.999Z</time></trkpt><trkpt lat="40.99919947479286" lon="9.531026016602866"><ele>51.0</ele><time>2026-05-02T06:44:32.999Z</time></trkpt><trkpt lat="40.99919973288555" lon="9.530745784754778"><ele>51.0</ele><time>2026-05-02T06:44:33.999Z</time></trkpt><trkpt lat="40.99918604463044" lon="9.530451746296844"><ele>49.5</ele><time>2026-05-02T06:44:34.999Z</time></trkpt><trkpt lat="40.99913959044323" lon="9.530152570674607"><ele>48.0</ele><time>2026-05-02T06:44:35.999Z</time></trkpt><trkpt lat="40.99907447059754" lon="9.529835757916256"><ele>48.5</ele><time>2026-05-02T06:44:36.999Z</time></trkpt><trkpt lat="40.99901200517515" lon="9.529486699964037"><ele>49.0</ele><time>2026-05-02T06:44:37.999Z</time></trkpt><trkpt lat="40.998957756078184" lon="9.52912731154876"><ele>49.0</ele><time>2026-05-02T06:44:38.999Z</time></trkpt><trkpt lat="40.998896164326766" lon="9.528770305232555"><ele>49.0</ele><time>2026-05-02T06:44:39.999Z</time></trkpt><trkpt lat="40.998838127536146" lon="9.528432098262742"><ele>49.0</ele><time>2026-05-02T06:44:40.999Z</time></trkpt><trkpt lat="40.99878074236828" lon="9.52810283903748"><ele>49.0</ele><time>2026-05-02T06:44:41.999Z</time></trkpt><trkpt lat="40.99872065737396" lon="9.52777625071516"><ele>50.0</ele><time>2026-05-02T06:44:42.999Z</time></trkpt><trkpt lat="40.99866683538318" lon="9.527454982598377"><ele>51.0</ele><time>2026-05-02T06:44:43.999Z</time></trkpt><trkpt lat="40.99861780038207" lon="9.527137946486345"><ele>53.66666666666667</ele><time>2026-05-02T06:44:44.999Z</time></trkpt><trkpt lat="40.99856489880784" lon="9.526837126612302"><ele>56.333333333333336</ele><time>2026-05-02T06:44:45.999Z</time></trkpt><trkpt lat="40.99851242180267" lon="9.526571220494965"><ele>59.0</ele><time>2026-05-02T06:44:46.999Z</time></trkpt><trkpt lat="40.99845263820227" lon="9.52632742488702"><ele>60.0</ele><time>2026-05-02T06:44:47.999Z</time></trkpt><trkpt lat="40.998380916900494" lon="9.52609599467845"><ele>61.0</ele><time>2026-05-02T06:44:48.999Z</time></trkpt><trkpt lat="40.99829787338618" lon="9.525872523124702"><ele>62.0</ele><time>2026-05-02T06:44:49.999Z</time></trkpt><trkpt lat="40.99822262612193" lon="9.525635327157904"><ele>62.5</ele><time>2026-05-02T06:44:50.999Z</time></trkpt><trkpt lat="40.99812050441883" lon="9.525367580837298"><ele>63.0</ele><time>2026-05-02T06:44:51.999Z</time></trkpt><trkpt lat="40.99801078156364" lon="9.525109416214022"><ele>63.0</ele><time>2026-05-02T06:44:52.999Z</time></trkpt><trkpt lat="40.99789666300355" lon="9.524846798966975"><ele>63.0</ele><time>2026-05-02T06:44:53.999Z</time></trkpt><trkpt lat="40.997798277325984" lon="9.52459763511243"><ele>63.0</ele><time>2026-05-02T06:44:54.999Z</time></trkpt><trkpt lat="40.997704468367516" lon="9.524362290674516"><ele>65.33333333333333</ele><time>2026-05-02T06:44:55.999Z</time></trkpt><trkpt lat="40.99761668258312" lon="9.524122684781009"><ele>67.66666666666666</ele><time>2026-05-02T06:44:56.999Z</time></trkpt><trkpt lat="40.99753741186877" lon="9.523904986460979"><ele>70.0</ele><time>2026-05-02T06:44:57.999Z</time></trkpt><trkpt lat="40.99744222101753" lon="9.523676867227392"><ele>70.66666666666666</ele><time>2026-05-02T06:44:58.999Z</time></trkpt><trkpt lat="40.99734862220037" lon="9.523446880443728"><ele>71.33333333333333</ele><time>2026-05-02T06:44:59.999Z</time></trkpt><trkpt lat="40.997258725033056" lon="9.52321898571095"><ele>72.0</ele><time>2026-05-02T06:45:00.999Z</time></trkpt><trkpt lat="40.997170987804815" lon="9.522996269453687"><ele>73.0</ele><time>2026-05-02T06:45:01.999Z</time></trkpt><trkpt lat="40.997075529320554" lon="9.5227839077427"><ele>74.0</ele><time>2026-05-02T06:45:02.999Z</time></trkpt><trkpt lat="40.99698866736248" lon="9.52256000074597"><ele>75.0</ele><time>2026-05-02T06:45:03.999Z</time></trkpt><trkpt lat="40.99690909828747" lon="9.522327878573881"><ele>75.0</ele><time>2026-05-02T06:45:04.999Z</time></trkpt><trkpt lat="40.99683738278339" lon="9.52208434588067"><ele>75.0</ele><time>2026-05-02T06:45:06Z</time></trkpt><trkpt lat="40.9967783393331" lon="9.52183090136085"><ele>75.0</ele><time>2026-05-02T06:45:07Z</time></trkpt><trkpt lat="40.996717997006414" lon="9.521564948386706"><ele>75.66666666666667</ele><time>2026-05-02T06:45:08Z</time></trkpt><trkpt lat="40.99666123462014" lon="9.52129256893941"><ele>76.33333333333334</ele><time>2026-05-02T06:45:09Z</time></trkpt><trkpt lat="40.99659695894404" lon="9.521022214590447"><ele>77.0</ele><time>2026-05-02T06:45:10Z</time></trkpt><trkpt lat="40.99653173000924" lon="9.520746053638918"><ele>77.33333333333334</ele><time>2026-05-02T06:45:11Z</time></trkpt><trkpt lat="40.99646306627918" lon="9.520466429896707"><ele>77.66666666666667</ele><time>2026-05-02T06:45:12Z</time></trkpt><trkpt lat="40.99640776348969" lon="9.520183966889357"><ele>78.0</ele><time>2026-05-02T06:45:13Z</time></trkpt><trkpt lat="40.99633954881475" lon="9.519891637721065"><ele>76.5</ele><time>2026-05-02T06:45:14Z</time></trkpt><trkpt lat="40.9962513714195" lon="9.519605558174003"><ele>75.0</ele><time>2026-05-02T06:45:15Z</time></trkpt><trkpt lat="40.996186028528875" lon="9.519315339187893"><ele>78.0</ele><time>2026-05-02T06:45:16Z</time></trkpt><trkpt lat="40.99611226814746" lon="9.519008910612584"><ele>81.0</ele><time>2026-05-02T06:45:17Z</time></trkpt><trkpt lat="40.996048550171245" lon="9.518700701420467"><ele>82.0</ele><time>2026-05-02T06:45:18Z</time></trkpt><trkpt lat="40.99597554665991" lon="9.518387676730633"><ele>83.0</ele><time>2026-05-02T06:45:19Z</time></trkpt><trkpt lat="40.9959154989379" lon="9.518066165418228"><ele>80.5</ele><time>2026-05-02T06:45:20Z</time></trkpt><trkpt lat="40.99581328927476" lon="9.51772772470184"><ele>78.0</ele><time>2026-05-02T06:45:21Z</time></trkpt><trkpt lat="40.99571821230158" lon="9.517363137404478"><ele>76.5</ele><time>2026-05-02T06:45:22Z</time></trkpt><trkpt lat="40.99560960433281" lon="9.516998421640352"><ele>75.0</ele><time>2026-05-02T06:45:23Z</time></trkpt><trkpt lat="40.99548088004886" lon="9.516651957581027"><ele>75.0</ele><time>2026-05-02T06:45:24Z</time></trkpt><trkpt lat="40.99536955754511" lon="9.516301979210173"><ele>75.0</ele><time>2026-05-02T06:45:25Z</time></trkpt><trkpt lat="40.99524189888033" lon="9.515968770320768"><ele>73.5</ele><time>2026-05-02T06:45:26Z</time></trkpt><trkpt lat="40.995127659574244" lon="9.51562801928338"><ele>72.0</ele><time>2026-05-02T06:45:27Z</time></trkpt><trkpt lat="40.99501264071123" lon="9.515284574533691"><ele>69.5</ele><time>2026-05-02T06:45:28Z</time></trkpt><trkpt lat="40.99490489886183" lon="9.514956555166966"><ele>67.0</ele><time>2026-05-02T06:45:29Z</time></trkpt><trkpt lat="40.99480450303601" lon="9.514641089158436"><ele>68.5</ele><time>2026-05-02T06:45:30Z</time></trkpt><trkpt lat="40.99469999520239" lon="9.51432727613648"><ele>70.0</ele><time>2026-05-02T06:45:31Z</time></trkpt><trkpt lat="40.994589597161806" lon="9.514011990667996"><ele>71.0</ele><time>2026-05-02T06:45:32Z</time></trkpt><trkpt lat="40.99448773363546" lon="9.513700635442435"><ele>72.0</ele><time>2026-05-02T06:45:33Z</time></trkpt><trkpt lat="40.994386601190826" lon="9.513394131155179"><ele>72.0</ele><time>2026-05-02T06:45:34Z</time></trkpt><trkpt lat="40.99428740023414" lon="9.513090562463008"><ele>72.0</ele><time>2026-05-02T06:45:35Z</time></trkpt><trkpt lat="40.9941800578437" lon="9.512787278885328"><ele>65.5</ele><time>2026-05-02T06:45:36Z</time></trkpt><trkpt lat="40.99407130190936" lon="9.512483119701285"><ele>59.0</ele><time>2026-05-02T06:45:37Z</time></trkpt><trkpt lat="40.99396881401617" lon="9.512176379757367"><ele>57.5</ele><time>2026-05-02T06:45:38Z</time></trkpt><trkpt lat="40.99386894260823" lon="9.511868430358641"><ele>56.0</ele><time>2026-05-02T06:45:39Z</time></trkpt><trkpt lat="40.99376580671866" lon="9.51155489468569"><ele>56.0</ele><time>2026-05-02T06:45:40Z</time></trkpt><trkpt lat="40.99366375870911" lon="9.511252055230893"><ele>56.0</ele><time>2026-05-02T06:45:41Z</time></trkpt><trkpt lat="40.99354159893884" lon="9.510945373301713"><ele>54.0</ele><time>2026-05-02T06:45:42Z</time></trkpt><trkpt lat="40.9933977932759" lon="9.510660471085847"><ele>52.0</ele><time>2026-05-02T06:45:43Z</time></trkpt><trkpt lat="40.993226198948115" lon="9.510408187848572"><ele>50.5</ele><time>2026-05-02T06:45:44Z</time></trkpt><trkpt lat="40.993050831330955" lon="9.510183737929506"><ele>49.0</ele><time>2026-05-02T06:45:45Z</time></trkpt><trkpt lat="40.99287708105897" lon="9.50996079348163"><ele>49.0</ele><time>2026-05-02T06:45:46Z</time></trkpt><trkpt lat="40.99270557774808" lon="9.509733233792502"><ele>49.0</ele><time>2026-05-02T06:45:47Z</time></trkpt><trkpt lat="40.99254075098024" lon="9.509495528629856"><ele>44.5</ele><time>2026-05-02T06:45:48Z</time></trkpt><trkpt lat="40.99236733375324" lon="9.509256631781861"><ele>40.0</ele><time>2026-05-02T06:45:49Z</time></trkpt><trkpt lat="40.99218743196566" lon="9.50901514590945"><ele>40.0</ele><time>2026-05-02T06:45:50Z</time></trkpt><trkpt lat="40.99200751479213" lon="9.508773439963734"><ele>40.0</ele><time>2026-05-02T06:45:51Z</time></trkpt><trkpt lat="40.99182994544184" lon="9.508530120154068"><ele>39.5</ele><time>2026-05-02T06:45:52Z</time></trkpt><trkpt lat="40.991663257764614" lon="9.508270439721532"><ele>39.0</ele><time>2026-05-02T06:45:53Z</time></trkpt><trkpt lat="40.99150714744876" lon="9.507986453047694"><ele>35.0</ele><time>2026-05-02T06:45:54Z</time></trkpt><trkpt lat="40.99137058923559" lon="9.507677805266997"><ele>31.0</ele><time>2026-05-02T06:45:55Z</time></trkpt><trkpt lat="40.99125879338353" lon="9.507344653610058"><ele>29.5</ele><time>2026-05-02T06:45:56Z</time></trkpt><trkpt lat="40.9911731346298" lon="9.507000356247648"><ele>28.0</ele><time>2026-05-02T06:45:57Z</time></trkpt><trkpt lat="40.9911210768876" lon="9.50666482264392"><ele>28.0</ele><time>2026-05-02T06:45:58Z</time></trkpt><trkpt lat="40.991097972481235" lon="9.506338833985184"><ele>28.0</ele><time>2026-05-02T06:45:59Z</time></trkpt><trkpt lat="40.99109676416448" lon="9.506008788046897"><ele>27.5</ele><time>2026-05-02T06:46:00Z</time></trkpt><trkpt lat="40.99110883614862" lon="9.505672439031398"><ele>27.0</ele><time>2026-05-02T06:46:01Z</time></trkpt><trkpt lat="40.99111609547999" lon="9.505334976871984"><ele>26.0</ele><time>2026-05-02T06:46:02Z</time></trkpt><trkpt lat="40.991122666346264" lon="9.50499481630898"><ele>25.0</ele><time>2026-05-02T06:46:03Z</time></trkpt><trkpt lat="40.99112806773514" lon="9.50464651352694"><ele>23.0</ele><time>2026-05-02T06:46:04Z</time></trkpt><trkpt lat="40.99113280960484" lon="9.504294070025752"><ele>21.0</ele><time>2026-05-02T06:46:05Z</time></trkpt><trkpt lat="40.991138620231645" lon="9.50393903059822"><ele>19.0</ele><time>2026-05-02T06:46:06Z</time></trkpt><trkpt lat="40.99114617991957" lon="9.503582492618929"><ele>17.0</ele><time>2026-05-02T06:46:07Z</time></trkpt><trkpt lat="40.99115306304063" lon="9.503231007638139"><ele>16.0</ele><time>2026-05-02T06:46:08Z</time></trkpt><trkpt lat="40.991156095229144" lon="9.502892372687278"><ele>15.0</ele><time>2026-05-02T06:46:09Z</time></trkpt><trkpt lat="40.99115998714663" lon="9.502553492142487"><ele>15.0</ele><time>2026-05-02T06:46:10Z</time></trkpt><trkpt lat="40.99116827419819" lon="9.502230467342486"><ele>15.0</ele><time>2026-05-02T06:46:11Z</time></trkpt><trkpt lat="40.99117224735573" lon="9.50192523467212"><ele>14.333333333333332</ele><time>2026-05-02T06:46:12Z</time></trkpt><trkpt lat="40.99117578640465" lon="9.501639667933318"><ele>13.666666666666666</ele><time>2026-05-02T06:46:13Z</time></trkpt><trkpt lat="40.99118036948973" lon="9.501370974154266"><ele>13.0</ele><time>2026-05-02T06:46:14Z</time></trkpt><trkpt lat="40.99118272839285" lon="9.501121898387124"><ele>13.0</ele><time>2026-05-02T06:46:15Z</time></trkpt><trkpt lat="40.991200881607966" lon="9.500923160127185"><ele>13.0</ele><time>2026-05-02T06:46:16Z</time></trkpt><trkpt lat="40.99126228210746" lon="9.500752650322799"><ele>13.0</ele><time>2026-05-02T06:46:17Z</time></trkpt><trkpt lat="40.991361092341776" lon="9.500595238236388"><ele>13.0</ele><time>2026-05-02T06:46:18Z</time></trkpt><trkpt lat="40.99147621802993" lon="9.500506122012908"><ele>13.0</ele><time>2026-05-02T06:46:19Z</time></trkpt><trkpt lat="40.991614110989985" lon="9.500468646111933"><ele>13.0</ele><time>2026-05-02T06:46:20Z</time></trkpt><trkpt lat="40.99178910109776" lon="9.500476436836395"><ele>13.0</ele><time>2026-05-02T06:46:21Z</time></trkpt><trkpt lat="40.99198503404844" lon="9.500463157908552"><ele>12.333333333333332</ele><time>2026-05-02T06:46:22Z</time></trkpt><trkpt lat="40.99217991649002" lon="9.50043136064808"><ele>11.666666666666666</ele><time>2026-05-02T06:46:23Z</time></trkpt><trkpt lat="40.99236518505186" lon="9.500420397666145"><ele>11.0</ele><time>2026-05-02T06:46:24Z</time></trkpt><trkpt lat="40.99252813389925" lon="9.500406975561178"><ele>12.0</ele><time>2026-05-02T06:46:25Z</time></trkpt><trkpt lat="40.99268674306274" lon="9.50039009337245"><ele>13.0</ele><time>2026-05-02T06:46:26Z</time></trkpt><trkpt lat="40.99284031799579" lon="9.500393050910693"><ele>14.0</ele><time>2026-05-02T06:46:27Z</time></trkpt><trkpt lat="40.992979090422445" lon="9.500427579916863"><ele>14.0</ele><time>2026-05-02T06:46:28Z</time></trkpt><trkpt lat="40.99309876659435" lon="9.500499972288328"><ele>14.0</ele><time>2026-05-02T06:46:29Z</time></trkpt><trkpt lat="40.9932037907733" lon="9.500607507030331"><ele>14.0</ele><time>2026-05-02T06:46:30Z</time></trkpt><trkpt lat="40.993303246734506" lon="9.500722513774843"><ele>14.0</ele><time>2026-05-02T06:46:30.999Z</time></trkpt><trkpt lat="40.993396782693" lon="9.500856731645808"><ele>14.5</ele><time>2026-05-02T06:46:31.999Z</time></trkpt><trkpt lat="40.99347772573699" lon="9.501001652280145"><ele>15.0</ele><time>2026-05-02T06:46:32.999Z</time></trkpt><trkpt lat="40.99355174866977" lon="9.501149082574162"><ele>15.5</ele><time>2026-05-02T06:46:33.999Z</time></trkpt><trkpt lat="40.99362910920947" lon="9.50129658834263"><ele>16.0</ele><time>2026-05-02T06:46:34.999Z</time></trkpt><trkpt lat="40.993714313355056" lon="9.501444302753619"><ele>14.666666666666666</ele><time>2026-05-02T06:46:35.999Z</time></trkpt><trkpt lat="40.99380829371491" lon="9.501600170190338"><ele>13.333333333333332</ele><time>2026-05-02T06:46:36.999Z</time></trkpt><trkpt lat="40.99391831292302" lon="9.501762014239656"><ele>12.0</ele><time>2026-05-02T06:46:37.999Z</time></trkpt><trkpt lat="40.994049641907466" lon="9.501928353556307"><ele>12.0</ele><time>2026-05-02T06:46:38.999Z</time></trkpt><trkpt lat="40.99418333574263" lon="9.502085695746246"><ele>12.0</ele><time>2026-05-02T06:46:39.999Z</time></trkpt><trkpt lat="40.994316890639425" lon="9.502239455398069"><ele>12.0</ele><time>2026-05-02T06:46:40.999Z</time></trkpt><trkpt lat="40.994456283459236" lon="9.502398936328346"><ele>12.0</ele><time>2026-05-02T06:46:41.999Z</time></trkpt><trkpt lat="40.99459968051968" lon="9.502559792163847"><ele>12.0</ele><time>2026-05-02T06:46:42.999Z</time></trkpt><trkpt lat="40.99477380591864" lon="9.502701953760912"><ele>12.0</ele><time>2026-05-02T06:46:43.999Z</time></trkpt><trkpt lat="40.99497160216355" lon="9.50281969337027"><ele>11.5</ele><time>2026-05-02T06:46:44.999Z</time></trkpt><trkpt lat="40.995190999507074" lon="9.502952961595135"><ele>11.0</ele><time>2026-05-02T06:46:45.999Z</time></trkpt><trkpt lat="40.995404309398566" lon="9.50309992425599"><ele>11.0</ele><time>2026-05-02T06:46:46.999Z</time></trkpt><trkpt lat="40.99561396493397" lon="9.50323865750665"><ele>11.0</ele><time>2026-05-02T06:46:47.999Z</time></trkpt><trkpt lat="40.995811195585354" lon="9.503351661893166"><ele>11.0</ele><time>2026-05-02T06:46:48.999Z</time></trkpt><trkpt lat="40.99602230925563" lon="9.503470982668624"><ele>10.0</ele><time>2026-05-02T06:46:49.999Z</time></trkpt><trkpt lat="40.996245127543816" lon="9.503629487476944"><ele>9.0</ele><time>2026-05-02T06:46:50.999Z</time></trkpt><trkpt lat="40.99648613406296" lon="9.503759706209138"><ele>8.5</ele><time>2026-05-02T06:46:51.999Z</time></trkpt><trkpt lat="40.996711100153185" lon="9.50390920668176"><ele>8.0</ele><time>2026-05-02T06:46:52.999Z</time></trkpt><trkpt lat="40.996935233810554" lon="9.504054625644796"><ele>8.0</ele><time>2026-05-02T06:46:53.999Z</time></trkpt><trkpt lat="40.99715697910497" lon="9.504204529517128"><ele>8.0</ele><time>2026-05-02T06:46:54.999Z</time></trkpt><trkpt lat="40.99737853583639" lon="9.50436181073916"><ele>8.0</ele><time>2026-05-02T06:46:56Z</time></trkpt><trkpt lat="40.99759569602617" lon="9.504530691278228"><ele>8.0</ele><time>2026-05-02T06:46:57Z</time></trkpt><trkpt lat="40.997802573280836" lon="9.504699443814685"><ele>8.0</ele><time>2026-05-02T06:46:58Z</time></trkpt><trkpt lat="40.997996644760946" lon="9.504853517365497"><ele>8.0</ele><time>2026-05-02T06:46:59Z</time></trkpt><trkpt lat="40.998178562896754" lon="9.504994611944086"><ele>8.0</ele><time>2026-05-02T06:47:00Z</time></trkpt><trkpt lat="40.99835770682013" lon="9.50513228080253"><ele>8.0</ele><time>2026-05-02T06:47:01Z</time></trkpt><trkpt lat="40.998523453500106" lon="9.5052417721514"><ele>8.0</ele><time>2026-05-02T06:47:02Z</time></trkpt><trkpt lat="40.99869934178845" lon="9.505300239521524"><ele>8.0</ele><time>2026-05-02T06:47:03Z</time></trkpt><trkpt lat="40.99887251948446" lon="9.505308984081518"><ele>8.0</ele><time>2026-05-02T06:47:04Z</time></trkpt><trkpt lat="40.99904505673015" lon="9.505267324051875"><ele>8.0</ele><time>2026-05-02T06:47:05Z</time></trkpt><trkpt lat="40.999224037176944" lon="9.505227794632345"><ele>8.0</ele><time>2026-05-02T06:47:06Z</time></trkpt><trkpt lat="40.99940629715489" lon="9.505191947346251"><ele>6.333333333333333</ele><time>2026-05-02T06:47:07Z</time></trkpt><trkpt lat="40.99959814018924" lon="9.505159207714025"><ele>4.666666666666666</ele><time>2026-05-02T06:47:08Z</time></trkpt><trkpt lat="40.999799638107554" lon="9.505122238551168"><ele>3.0</ele><time>2026-05-02T06:47:09Z</time></trkpt><trkpt lat="41.00000515332208" lon="9.505089629824404"><ele>3.0</ele><time>2026-05-02T06:47:10Z</time></trkpt><trkpt lat="41.00022006566635" lon="9.505052644945318"><ele>3.0</ele><time>2026-05-02T06:47:11Z</time></trkpt><trkpt lat="41.000457500871015" lon="9.504997548425175"><ele>3.0</ele><time>2026-05-02T06:47:12Z</time></trkpt><trkpt lat="41.000726611554484" lon="9.504971690665199"><ele>3.0</ele><time>2026-05-02T06:47:13Z</time></trkpt><trkpt lat="41.0010243583908" lon="9.504921587022277"><ele>3.5</ele><time>2026-05-02T06:47:14Z</time></trkpt><trkpt lat="41.00134610189373" lon="9.504859048287383"><ele>4.0</ele><time>2026-05-02T06:47:15Z</time></trkpt><trkpt lat="41.00169169560417" lon="9.504802805781566"><ele>4.0</ele><time>2026-05-02T06:47:16Z</time></trkpt><trkpt lat="41.00203767948646" lon="9.504737502922703"><ele>4.0</ele><time>2026-05-02T06:47:17Z</time></trkpt><trkpt lat="41.0023502334731" lon="9.504687347145804"><ele>4.0</ele><time>2026-05-02T06:47:18Z</time></trkpt><trkpt lat="41.00264989099801" lon="9.504653769921628"><ele>4.0</ele><time>2026-05-02T06:47:19Z</time></trkpt><trkpt lat="41.002935557779836" lon="9.504641355893103"><ele>4.0</ele><time>2026-05-02T06:47:20Z</time></trkpt><trkpt lat="41.00320880624689" lon="9.504629432826645"><ele>4.0</ele><time>2026-05-02T06:47:21Z</time></trkpt><trkpt lat="41.003483048338296" lon="9.504615264597373"><ele>4.5</ele><time>2026-05-02T06:47:22Z</time></trkpt><trkpt lat="41.00375234101066" lon="9.504613788018423"><ele>5.0</ele><time>2026-05-02T06:47:23Z</time></trkpt><trkpt lat="41.00401932306144" lon="9.504612129661574"><ele>5.0</ele><time>2026-05-02T06:47:24Z</time></trkpt><trkpt lat="41.004284550379914" lon="9.50460881884488"><ele>5.0</ele><time>2026-05-02T06:47:25Z</time></trkpt><trkpt lat="41.00453576990207" lon="9.504611399599696"><ele>5.0</ele><time>2026-05-02T06:47:26Z</time></trkpt><trkpt lat="41.00476611578744" lon="9.504600200525333"><ele>5.0</ele><time>2026-05-02T06:47:27Z</time></trkpt><trkpt lat="41.00498902057556" lon="9.504598719019276"><ele>4.666666666666667</ele><time>2026-05-02T06:47:28Z</time></trkpt><trkpt lat="41.00518952452452" lon="9.504593648482796"><ele>4.333333333333333</ele><time>2026-05-02T06:47:29Z</time></trkpt><trkpt lat="41.00539455589141" lon="9.504571696224366"><ele>4.0</ele><time>2026-05-02T06:47:30Z</time></trkpt><trkpt lat="41.00560129918018" lon="9.50449565715864"><ele>3.5</ele><time>2026-05-02T06:47:31Z</time></trkpt><trkpt lat="41.00580774279894" lon="9.504386154858388"><ele>3.0</ele><time>2026-05-02T06:47:32Z</time></trkpt><trkpt lat="41.006025330211564" lon="9.50427899794942"><ele>3.0</ele><time>2026-05-02T06:47:33Z</time></trkpt><trkpt lat="41.00625115845574" lon="9.50417731228199"><ele>3.0</ele><time>2026-05-02T06:47:34Z</time></trkpt><trkpt lat="41.006475659774146" lon="9.504075888040088"><ele>2.5</ele><time>2026-05-02T06:47:35Z</time></trkpt><trkpt lat="41.006705700680975" lon="9.503969725323651"><ele>2.0</ele><time>2026-05-02T06:47:36Z</time></trkpt><trkpt lat="41.00693412203568" lon="9.503861370642735"><ele>2.0</ele><time>2026-05-02T06:47:37Z</time></trkpt><trkpt lat="41.007170814808845" lon="9.503757041536996"><ele>2.0</ele><time>2026-05-02T06:47:38Z</time></trkpt><trkpt lat="41.007406059658365" lon="9.503655803340724"><ele>2.0</ele><time>2026-05-02T06:47:39Z</time></trkpt><trkpt lat="41.00763854453904" lon="9.503543802072661"><ele>2.0</ele><time>2026-05-02T06:47:40Z</time></trkpt><trkpt lat="41.00785268505168" lon="9.503401080688109"><ele>2.0</ele><time>2026-05-02T06:47:41Z</time></trkpt><trkpt lat="41.00806724680751" lon="9.50321086123142"><ele>2.0</ele><time>2026-05-02T06:47:42Z</time></trkpt><trkpt lat="41.00828087942509" lon="9.502998215128413"><ele>2.5</ele><time>2026-05-02T06:47:43Z</time></trkpt><trkpt lat="41.00849778319857" lon="9.50279382864694"><ele>3.0</ele><time>2026-05-02T06:47:44Z</time></trkpt><trkpt lat="41.00871630333796" lon="9.50259499166454"><ele>3.0</ele><time>2026-05-02T06:47:45Z</time></trkpt><trkpt lat="41.00893269433847" lon="9.502392786257511"><ele>3.0</ele><time>2026-05-02T06:47:46Z</time></trkpt><trkpt lat="41.00914470733693" lon="9.50218826123088"><ele>4.0</ele><time>2026-05-02T06:47:47Z</time></trkpt><trkpt lat="41.009358977290084" lon="9.501993319684312"><ele>5.0</ele><time>2026-05-02T06:47:48Z</time></trkpt><trkpt lat="41.0095693835673" lon="9.50180838791464"><ele>5.0</ele><time>2026-05-02T06:47:49Z</time></trkpt><trkpt lat="41.009776441331645" lon="9.501620552655927"><ele>5.0</ele><time>2026-05-02T06:47:50Z</time></trkpt><trkpt lat="41.00997240895797" lon="9.501438332338033"><ele>4.333333333333334</ele><time>2026-05-02T06:47:51Z</time></trkpt><trkpt lat="41.01016079785656" lon="9.501278155116806"><ele>3.666666666666667</ele><time>2026-05-02T06:47:52Z</time></trkpt><trkpt lat="41.01035726811092" lon="9.501181645677278"><ele>3.0</ele><time>2026-05-02T06:47:53Z</time></trkpt><trkpt lat="41.0105479964663" lon="9.501179178138013"><ele>2.3333333333333335</ele><time>2026-05-02T06:47:54Z</time></trkpt><trkpt lat="41.01073574974513" lon="9.501272500339843"><ele>1.6666666666666665</ele><time>2026-05-02T06:47:55Z</time></trkpt><trkpt lat="41.01089282255911" lon="9.501432406807465"><ele>1.0</ele><time>2026-05-02T06:47:56Z</time></trkpt><trkpt lat="41.01099609231492" lon="9.501640659593646"><ele>1.0</ele><time>2026-05-02T06:47:57Z</time></trkpt><trkpt lat="41.01105889127168" lon="9.501888929656529"><ele>1.0</ele><time>2026-05-02T06:47:58Z</time></trkpt><trkpt lat="41.01111959186913" lon="9.502156565260504"><ele>1.0</ele><time>2026-05-02T06:47:59Z</time></trkpt><trkpt lat="41.011202986069264" lon="9.502418206782703"><ele>1.0</ele><time>2026-05-02T06:48:00Z</time></trkpt><trkpt lat="41.011303514237916" lon="9.502650002116663"><ele>1.0</ele><time>2026-05-02T06:48:01Z</time></trkpt><trkpt lat="41.011432629976674" lon="9.502857370025986"><ele>1.0</ele><time>2026-05-02T06:48:02Z</time></trkpt><trkpt lat="41.011593600076836" lon="9.50303198192594"><ele>1.3333333333333333</ele><time>2026-05-02T06:48:03Z</time></trkpt><trkpt lat="41.01175973004534" lon="9.503191151460813"><ele>1.6666666666666665</ele><time>2026-05-02T06:48:04Z</time></trkpt><trkpt lat="41.01193371931621" lon="9.503385715503546"><ele>2.0</ele><time>2026-05-02T06:48:05Z</time></trkpt><trkpt lat="41.01209644957614" lon="9.503576846224554"><ele>1.6666666666666665</ele><time>2026-05-02T06:48:06Z</time></trkpt><trkpt lat="41.01227153911768" lon="9.503765532851016"><ele>1.3333333333333333</ele><time>2026-05-02T06:48:07Z</time></trkpt><trkpt lat="41.012436537676685" lon="9.50395045913526"><ele>1.0</ele><time>2026-05-02T06:48:08Z</time></trkpt><trkpt lat="41.01260089313646" lon="9.504134211430213"><ele>1.6666666666666665</ele><time>2026-05-02T06:48:09Z</time></trkpt><trkpt lat="41.0127723195035" lon="9.504315564432577"><ele>2.3333333333333335</ele><time>2026-05-02T06:48:10Z</time></trkpt><trkpt lat="41.01295398034501" lon="9.504480723546331"><ele>3.0</ele><time>2026-05-02T06:48:11Z</time></trkpt><trkpt lat="41.01313596828728" lon="9.504635367099834"><ele>4.0</ele><time>2026-05-02T06:48:12Z</time></trkpt><trkpt lat="41.01332255880209" lon="9.50478807172783"><ele>5.0</ele><time>2026-05-02T06:48:13Z</time></trkpt><trkpt lat="41.01351659995061" lon="9.504959510501704"><ele>5.0</ele><time>2026-05-02T06:48:14Z</time></trkpt><trkpt lat="41.013713399788195" lon="9.505132324601558"><ele>5.0</ele><time>2026-05-02T06:48:15Z</time></trkpt><trkpt lat="41.01389387878986" lon="9.505314932189338"><ele>4.5</ele><time>2026-05-02T06:48:16Z</time></trkpt><trkpt lat="41.01408529358226" lon="9.505505132766624"><ele>4.0</ele><time>2026-05-02T06:48:17Z</time></trkpt><trkpt lat="41.014255274254296" lon="9.50572121081625"><ele>4.0</ele><time>2026-05-02T06:48:18Z</time></trkpt><trkpt lat="41.01444109730971" lon="9.505948526163877"><ele>4.0</ele><time>2026-05-02T06:48:19Z</time></trkpt><trkpt lat="41.01463887109432" lon="9.506165577084863"><ele>3.0</ele><time>2026-05-02T06:48:20Z</time></trkpt><trkpt lat="41.0148267538492" lon="9.506382799861141"><ele>2.0</ele><time>2026-05-02T06:48:21Z</time></trkpt><trkpt lat="41.01501398776932" lon="9.50660276398831"><ele>2.0</ele><time>2026-05-02T06:48:22Z</time></trkpt><trkpt lat="41.01520337584362" lon="9.506819632313594"><ele>2.0</ele><time>2026-05-02T06:48:23Z</time></trkpt><trkpt lat="41.01538766155765" lon="9.50702743034412"><ele>1.0</ele><time>2026-05-02T06:48:24Z</time></trkpt><trkpt lat="41.01558309315266" lon="9.507237884772598"><ele>0.0</ele><time>2026-05-02T06:48:25Z</time></trkpt><trkpt lat="41.01577611860069" lon="9.507447257462418"><ele>1.5</ele><time>2026-05-02T06:48:26Z</time></trkpt><trkpt lat="41.01596299350829" lon="9.507661181428427"><ele>3.0</ele><time>2026-05-02T06:48:27Z</time></trkpt><trkpt lat="41.01614856264125" lon="9.507872625396285"><ele>2.0</ele><time>2026-05-02T06:48:28Z</time></trkpt><trkpt lat="41.01633184015409" lon="9.508090014559032"><ele>1.0</ele><time>2026-05-02T06:48:29Z</time></trkpt><trkpt lat="41.01651474543797" lon="9.508310980517171"><ele>1.5</ele><time>2026-05-02T06:48:30Z</time></trkpt><trkpt lat="41.016703256908855" lon="9.508530290380909"><ele>2.0</ele><time>2026-05-02T06:48:31Z</time></trkpt><trkpt lat="41.01688077447325" lon="9.50876558480164"><ele>2.0</ele><time>2026-05-02T06:48:32Z</time></trkpt><trkpt lat="41.01704638320324" lon="9.509024240442892"><ele>2.0</ele><time>2026-05-02T06:48:33Z</time></trkpt><trkpt lat="41.01721437935542" lon="9.509278241135057"><ele>2.0</ele><time>2026-05-02T06:48:34Z</time></trkpt><trkpt lat="41.017377066527146" lon="9.509518797554344"><ele>2.0</ele><time>2026-05-02T06:48:35Z</time></trkpt><trkpt lat="41.01755072413089" lon="9.509775023867642"><ele>3.0</ele><time>2026-05-02T06:48:36Z</time></trkpt><trkpt lat="41.01771587279089" lon="9.510015823616767"><ele>4.0</ele><time>2026-05-02T06:48:37Z</time></trkpt><trkpt lat="41.01787191710053" lon="9.51025803851658"><ele>3.0</ele><time>2026-05-02T06:48:38Z</time></trkpt><trkpt lat="41.018033582120836" lon="9.510510503665499"><ele>2.0</ele><time>2026-05-02T06:48:39Z</time></trkpt><trkpt lat="41.01819857601528" lon="9.510762985128055"><ele>3.5</ele><time>2026-05-02T06:48:40Z</time></trkpt><trkpt lat="41.01835864052213" lon="9.51101327265997"><ele>5.0</ele><time>2026-05-02T06:48:41Z</time></trkpt><trkpt lat="41.018510899698995" lon="9.511240749149792"><ele>5.0</ele><time>2026-05-02T06:48:42Z</time></trkpt><trkpt lat="41.01865042088993" lon="9.511455976243717"><ele>5.0</ele><time>2026-05-02T06:48:43Z</time></trkpt><trkpt lat="41.018773591897585" lon="9.511657838078412"><ele>5.0</ele><time>2026-05-02T06:48:44Z</time></trkpt><trkpt lat="41.01887731166082" lon="9.51183823936896"><ele>5.0</ele><time>2026-05-02T06:48:45Z</time></trkpt><trkpt lat="41.01897561506128" lon="9.51202612942948"><ele>5.0</ele><time>2026-05-02T06:48:46Z</time></trkpt><trkpt lat="41.01906137569381" lon="9.512218714567343"><ele>5.0</ele><time>2026-05-02T06:48:47Z</time></trkpt><trkpt lat="41.01914895949662" lon="9.512421383621765"><ele>5.0</ele><time>2026-05-02T06:48:48Z</time></trkpt><trkpt lat="41.01924646571721" lon="9.512634398290365"><ele>5.0</ele><time>2026-05-02T06:48:49Z</time></trkpt><trkpt lat="41.01936519375064" lon="9.512884537463385"><ele>5.0</ele><time>2026-05-02T06:48:50Z</time></trkpt><trkpt lat="41.01947122909548" lon="9.513116090314053"><ele>4.333333333333334</ele><time>2026-05-02T06:48:51Z</time></trkpt><trkpt lat="41.019579224886435" lon="9.513310824417408"><ele>3.666666666666667</ele><time>2026-05-02T06:48:52Z</time></trkpt><trkpt lat="41.01971478212891" lon="9.513492378549646"><ele>3.0</ele><time>2026-05-02T06:48:53Z</time></trkpt><trkpt lat="41.019892240948195" lon="9.513697131819086"><ele>4.0</ele><time>2026-05-02T06:48:54Z</time></trkpt><trkpt lat="41.020102250052936" lon="9.513913360913973"><ele>5.0</ele><time>2026-05-02T06:48:55Z</time></trkpt><trkpt lat="41.0203044940533" lon="9.51412868599359"><ele>5.0</ele><time>2026-05-02T06:48:56Z</time></trkpt><trkpt lat="41.020525393723545" lon="9.514354444030735"><ele>5.0</ele><time>2026-05-02T06:48:57Z</time></trkpt><trkpt lat="41.02073932572816" lon="9.514564889178212"><ele>4.5</ele><time>2026-05-02T06:48:58Z</time></trkpt><trkpt lat="41.020953179445634" lon="9.514769277963115"><ele>4.0</ele><time>2026-05-02T06:48:59Z</time></trkpt><trkpt lat="41.021174203300085" lon="9.514964129813308"><ele>4.0</ele><time>2026-05-02T06:49:00Z</time></trkpt><trkpt lat="41.02139368135399" lon="9.515152727137052"><ele>4.0</ele><time>2026-05-02T06:49:01Z</time></trkpt><trkpt lat="41.02159100319758" lon="9.515322065570565"><ele>3.0</ele><time>2026-05-02T06:49:02Z</time></trkpt><trkpt lat="41.02178719152599" lon="9.515486488037888"><ele>2.0</ele><time>2026-05-02T06:49:03Z</time></trkpt><trkpt lat="41.02198203034692" lon="9.515658499841255"><ele>2.0</ele><time>2026-05-02T06:49:04Z</time></trkpt><trkpt lat="41.02217734906812" lon="9.51582436299686"><ele>2.0</ele><time>2026-05-02T06:49:05Z</time></trkpt><trkpt lat="41.022368317286016" lon="9.515986129234298"><ele>2.0</ele><time>2026-05-02T06:49:06Z</time></trkpt><trkpt lat="41.02255375436542" lon="9.516142398333319"><ele>2.0</ele><time>2026-05-02T06:49:07Z</time></trkpt><trkpt lat="41.02273529326234" lon="9.516296296036488"><ele>2.0</ele><time>2026-05-02T06:49:08Z</time></trkpt><trkpt lat="41.022908600417594" lon="9.51643566367731"><ele>2.0</ele><time>2026-05-02T06:49:09Z</time></trkpt><trkpt lat="41.02309714223199" lon="9.51653609426484"><ele>2.0</ele><time>2026-05-02T06:49:10Z</time></trkpt><trkpt lat="41.02330803397524" lon="9.516613896367174"><ele>2.0</ele><time>2026-05-02T06:49:11Z</time></trkpt><trkpt lat="41.02351907621905" lon="9.516685513877668"><ele>3.333333333333333</ele><time>2026-05-02T06:49:12Z</time></trkpt><trkpt lat="41.023724762044" lon="9.516769067998254"><ele>4.666666666666667</ele><time>2026-05-02T06:49:13Z</time></trkpt><trkpt lat="41.0239215013402" lon="9.516856689490062"><ele>6.0</ele><time>2026-05-02T06:49:14Z</time></trkpt><trkpt lat="41.02412995668783" lon="9.516952025714247"><ele>5.0</ele><time>2026-05-02T06:49:15Z</time></trkpt><trkpt lat="41.02433426959733" lon="9.517066540482528"><ele>4.0</ele><time>2026-05-02T06:49:16Z</time></trkpt><trkpt lat="41.02453424539822" lon="9.517201957701252"><ele>3.0</ele><time>2026-05-02T06:49:17Z</time></trkpt><trkpt lat="41.0247391840959" lon="9.517337845569918"><ele>3.0</ele><time>2026-05-02T06:49:18Z</time></trkpt><trkpt lat="41.024940234374554" lon="9.517473917865507"><ele>3.0</ele><time>2026-05-02T06:49:19Z</time></trkpt><trkpt lat="41.025140242511746" lon="9.51760493852799"><ele>3.0</ele><time>2026-05-02T06:49:20Z</time></trkpt><trkpt lat="41.025337161193406" lon="9.51773321768706"><ele>3.0</ele><time>2026-05-02T06:49:21Z</time></trkpt><trkpt lat="41.0255249446157" lon="9.517855402041409"><ele>3.0</ele><time>2026-05-02T06:49:22Z</time></trkpt><trkpt lat="41.02571112070943" lon="9.517975373004376"><ele>3.0</ele><time>2026-05-02T06:49:23Z</time></trkpt><trkpt lat="41.02588401270329" lon="9.518082445889872"><ele>2.6666666666666665</ele><time>2026-05-02T06:49:24Z</time></trkpt><trkpt lat="41.02606682079455" lon="9.51815695123653"><ele>2.333333333333333</ele><time>2026-05-02T06:49:25Z</time></trkpt><trkpt lat="41.0262704247217" lon="9.518168761377394"><ele>2.0</ele><time>2026-05-02T06:49:26Z</time></trkpt><trkpt lat="41.026474595398426" lon="9.518123425237347"><ele>2.6666666666666665</ele><time>2026-05-02T06:49:27Z</time></trkpt><trkpt lat="41.02667544714061" lon="9.518039463787272"><ele>3.333333333333333</ele><time>2026-05-02T06:49:28Z</time></trkpt><trkpt lat="41.02687634648872" lon="9.517932699861488"><ele>4.0</ele><time>2026-05-02T06:49:29Z</time></trkpt><trkpt lat="41.02707271202493" lon="9.517879536868262"><ele>4.0</ele><time>2026-05-02T06:49:30Z</time></trkpt><trkpt lat="41.02725427762357" lon="9.517875625999752"><ele>4.0</ele><time>2026-05-02T06:49:31Z</time></trkpt><trkpt lat="41.02740643305746" lon="9.51792055956486"><ele>4.0</ele><time>2026-05-02T06:49:32Z</time></trkpt><trkpt lat="41.02755326122995" lon="9.517972785412946"><ele>4.25</ele><time>2026-05-02T06:49:33Z</time></trkpt><trkpt lat="41.027686625756076" lon="9.518010334807943"><ele>4.5</ele><time>2026-05-02T06:49:34Z</time></trkpt><trkpt lat="41.027818452864665" lon="9.51808516540763"><ele>4.75</ele><time>2026-05-02T06:49:35Z</time></trkpt><trkpt lat="41.02796274742586" lon="9.518117844523891"><ele>5.0</ele><time>2026-05-02T06:49:36Z</time></trkpt><trkpt lat="41.02812245510505" lon="9.518112405341775"><ele>5.0</ele><time>2026-05-02T06:49:37Z</time></trkpt><trkpt lat="41.02829669770462" lon="9.518095422837739"><ele>5.0</ele><time>2026-05-02T06:49:38Z</time></trkpt><trkpt lat="41.028476997735616" lon="9.518075925067185"><ele>5.0</ele><time>2026-05-02T06:49:39Z</time></trkpt><trkpt lat="41.028652429709354" lon="9.518056317934434"><ele>6.0</ele><time>2026-05-02T06:49:40Z</time></trkpt><trkpt lat="41.02881343027209" lon="9.518053861785022"><ele>7.0</ele><time>2026-05-02T06:49:41Z</time></trkpt><trkpt lat="41.02896257036706" lon="9.518061521629322"><ele>8.0</ele><time>2026-05-02T06:49:42Z</time></trkpt><trkpt lat="41.02911724744797" lon="9.51810731242214"><ele>10.333333333333332</ele><time>2026-05-02T06:49:43Z</time></trkpt><trkpt lat="41.02925494402741" lon="9.518221540008307"><ele>12.666666666666666</ele><time>2026-05-02T06:49:44Z</time></trkpt><trkpt lat="41.02938770405317" lon="9.518350800749841"><ele>15.0</ele><time>2026-05-02T06:49:45Z</time></trkpt><trkpt lat="41.02951010205114" lon="9.518476496129718"><ele>15.0</ele><time>2026-05-02T06:49:46Z</time></trkpt><trkpt lat="41.02961857298915" lon="9.518578181149593"><ele>15.0</ele><time>2026-05-02T06:49:47Z</time></trkpt><trkpt lat="41.02971658409318" lon="9.518689455978393"><ele>15.0</ele><time>2026-05-02T06:49:48Z</time></trkpt><trkpt lat="41.02979100561734" lon="9.518846722644682"><ele>15.0</ele><time>2026-05-02T06:49:49Z</time></trkpt><trkpt lat="41.02985322184558" lon="9.519029728170853"><ele>15.25</ele><time>2026-05-02T06:49:50Z</time></trkpt><trkpt lat="41.02989711176419" lon="9.519192390923862"><ele>15.5</ele><time>2026-05-02T06:49:51Z</time></trkpt><trkpt lat="41.02994491200477" lon="9.5193284265426"><ele>15.75</ele><time>2026-05-02T06:49:52Z</time></trkpt><trkpt lat="41.030001087595004" lon="9.519460490501073"><ele>16.0</ele><time>2026-05-02T06:49:53Z</time></trkpt><trkpt lat="41.03008023257451" lon="9.519573102892542"><ele>16.0</ele><time>2026-05-02T06:49:54Z</time></trkpt><trkpt lat="41.030188450919326" lon="9.5196585780514"><ele>16.0</ele><time>2026-05-02T06:49:55Z</time></trkpt><trkpt lat="41.0303260423508" lon="9.519690293207464"><ele>16.0</ele><time>2026-05-02T06:49:56Z</time></trkpt><trkpt lat="41.03048195533967" lon="9.519697222173669"><ele>16.0</ele><time>2026-05-02T06:49:57Z</time></trkpt><trkpt lat="41.03064674504285" lon="9.51968815868518"><ele>17.333333333333332</ele><time>2026-05-02T06:49:58Z</time></trkpt><trkpt lat="41.03082841158827" lon="9.519643164604956"><ele>18.666666666666668</ele><time>2026-05-02T06:49:59Z</time></trkpt><trkpt lat="41.0310326134994" lon="9.519564321545989"><ele>20.0</ele><time>2026-05-02T06:50:00Z</time></trkpt><trkpt lat="41.03125498478" lon="9.519453206966679"><ele>28.0</ele><time>2026-05-02T06:50:01Z</time></trkpt><trkpt lat="41.03149186404874" lon="9.519336233992108"><ele>36.0</ele><time>2026-05-02T06:50:02Z</time></trkpt><trkpt lat="41.0317694128578" lon="9.519263788987558"><ele>37.5</ele><time>2026-05-02T06:50:03Z</time></trkpt><trkpt lat="41.03205325629673" lon="9.519249636889391"><ele>39.0</ele><time>2026-05-02T06:50:04Z</time></trkpt><trkpt lat="41.03233962632421" lon="9.519210478817751"><ele>39.5</ele><time>2026-05-02T06:50:05Z</time></trkpt><trkpt lat="41.03257279260292" lon="9.519091533000763"><ele>40.0</ele><time>2026-05-02T06:50:06Z</time></trkpt><trkpt lat="41.03278463584851" lon="9.51896450895073"><ele>40.0</ele><time>2026-05-02T06:50:07Z</time></trkpt><trkpt lat="41.03299285573877" lon="9.51889247833485"><ele>40.0</ele><time>2026-05-02T06:50:08Z</time></trkpt><trkpt lat="41.03319410582669" lon="9.518923865759955"><ele>40.0</ele><time>2026-05-02T06:50:09Z</time></trkpt><trkpt lat="41.033371883218024" lon="9.519001161335781"><ele>41.0</ele><time>2026-05-02T06:50:10Z</time></trkpt><trkpt lat="41.03352811345104" lon="9.51900239030376"><ele>42.0</ele><time>2026-05-02T06:50:11Z</time></trkpt><trkpt lat="41.0336542287286" lon="9.51892178324139"><ele>43.0</ele><time>2026-05-02T06:50:12Z</time></trkpt><trkpt lat="41.03374725399937" lon="9.518776627353487"><ele>44.0</ele><time>2026-05-02T06:50:13Z</time></trkpt><trkpt lat="41.03383359002616" lon="9.518590409703297"><ele>47.0</ele><time>2026-05-02T06:50:14Z</time></trkpt><trkpt lat="41.033965610025724" lon="9.518376107803311"><ele>50.0</ele><time>2026-05-02T06:50:15Z</time></trkpt><trkpt lat="41.03415075918686" lon="9.518204448214943"><ele>53.0</ele><time>2026-05-02T06:50:16Z</time></trkpt><trkpt lat="41.03435918735329" lon="9.518088802731553"><ele>53.0</ele><time>2026-05-02T06:50:17Z</time></trkpt><trkpt lat="41.03455815302201" lon="9.518001386375815"><ele>53.0</ele><time>2026-05-02T06:50:18Z</time></trkpt><trkpt lat="41.03471596637644" lon="9.517882017216719"><ele>53.0</ele><time>2026-05-02T06:50:19Z</time></trkpt><trkpt lat="41.034842525953955" lon="9.517755810904145"><ele>55.25</ele><time>2026-05-02T06:50:20Z</time></trkpt><trkpt lat="41.0349596408924" lon="9.517628445436483"><ele>57.5</ele><time>2026-05-02T06:50:21Z</time></trkpt><trkpt lat="41.03506366557927" lon="9.517502224150292"><ele>59.75</ele><time>2026-05-02T06:50:22Z</time></trkpt><trkpt lat="41.03515405047834" lon="9.517383200716159"><ele>62.0</ele><time>2026-05-02T06:50:23Z</time></trkpt><trkpt lat="41.03521364444831" lon="9.517272777284818"><ele>62.0</ele><time>2026-05-02T06:50:24Z</time></trkpt><trkpt lat="41.03524285343048" lon="9.51718678788775"><ele>62.0</ele><time>2026-05-02T06:50:25Z</time></trkpt><trkpt lat="41.035282900422374" lon="9.51706597476435"><ele>62.0</ele><time>2026-05-02T06:50:27Z</time></trkpt><trkpt lat="41.0353405643562" lon="9.516906309236589"><ele>62.0</ele><time>2026-05-02T06:50:29Z</time></trkpt><trkpt lat="41.035393553824456" lon="9.516828227343831"><ele>62.0</ele><time>2026-05-02T06:50:30Z</time></trkpt><trkpt lat="41.03548990985573" lon="9.51673795996664"><ele>63.5</ele><time>2026-05-02T06:50:32Z</time></trkpt><trkpt lat="41.03561198271339" lon="9.516675286391461"><ele>65.0</ele><time>2026-05-02T06:50:34Z</time></trkpt><trkpt lat="41.03570358907636" lon="9.516665920994393"><ele>66.5</ele><time>2026-05-02T06:50:35Z</time></trkpt><trkpt lat="41.03580163192732" lon="9.516676062573023"><ele>68.0</ele><time>2026-05-02T06:50:36Z</time></trkpt><trkpt lat="41.035927245800146" lon="9.516716539204632"><ele>68.0</ele><time>2026-05-02T06:50:37Z</time></trkpt><trkpt lat="41.03603773757791" lon="9.516785497244515"><ele>68.0</ele><time>2026-05-02T06:50:38Z</time></trkpt><trkpt lat="41.03614098737089" lon="9.516854633443426"><ele>68.0</ele><time>2026-05-02T06:50:39Z</time></trkpt><trkpt lat="41.03624503270682" lon="9.51691556938652"><ele>68.0</ele><time>2026-05-02T06:50:40Z</time></trkpt><trkpt lat="41.03635472641504" lon="9.51697590800579"><ele>68.0</ele><time>2026-05-02T06:50:41Z</time></trkpt><trkpt lat="41.03646541062339" lon="9.517028757316147"><ele>68.0</ele><time>2026-05-02T06:50:42Z</time></trkpt><trkpt lat="41.036581494244494" lon="9.517061289127462"><ele>68.0</ele><time>2026-05-02T06:50:43Z</time></trkpt><trkpt lat="41.03670145658438" lon="9.517063178015654"><ele>68.0</ele><time>2026-05-02T06:50:44Z</time></trkpt><trkpt lat="41.03682345796177" lon="9.517024707174315"><ele>68.0</ele><time>2026-05-02T06:50:45Z</time></trkpt><trkpt lat="41.03693779373639" lon="9.516949020713673"><ele>68.0</ele><time>2026-05-02T06:50:46Z</time></trkpt><trkpt lat="41.037036629516145" lon="9.516824238086844"><ele>68.0</ele><time>2026-05-02T06:50:47Z</time></trkpt><trkpt lat="41.03714434227584" lon="9.516699295961452"><ele>68.0</ele><time>2026-05-02T06:50:48Z</time></trkpt><trkpt lat="41.03724371026639" lon="9.516581398201279"><ele>68.0</ele><time>2026-05-02T06:50:49Z</time></trkpt><trkpt lat="41.037348760608104" lon="9.516487765506366"><ele>68.0</ele><time>2026-05-02T06:50:50Z</time></trkpt><trkpt lat="41.03748151333449" lon="9.516479852669352"><ele>68.0</ele><time>2026-05-02T06:50:51Z</time></trkpt><trkpt lat="41.037618540627705" lon="9.51649222692347"><ele>68.0</ele><time>2026-05-02T06:50:52Z</time></trkpt><trkpt lat="41.037753637541385" lon="9.516554653401267"><ele>64.5</ele><time>2026-05-02T06:50:53Z</time></trkpt><trkpt lat="41.03787858593789" lon="9.5166422213282"><ele>61.0</ele><time>2026-05-02T06:50:54Z</time></trkpt><trkpt lat="41.03800543052239" lon="9.516726496770342"><ele>57.5</ele><time>2026-05-02T06:50:55Z</time></trkpt><trkpt lat="41.03813746029162" lon="9.516801257462479"><ele>54.0</ele><time>2026-05-02T06:50:56Z</time></trkpt><trkpt lat="41.03827124698497" lon="9.516872241905569"><ele>54.33333333333333</ele><time>2026-05-02T06:50:57Z</time></trkpt><trkpt lat="41.038405382854776" lon="9.516929522827136"><ele>54.666666666666664</ele><time>2026-05-02T06:50:58Z</time></trkpt><trkpt lat="41.038555167013136" lon="9.516960718526931"><ele>55.0</ele><time>2026-05-02T06:50:59Z</time></trkpt><trkpt lat="41.038714221698626" lon="9.516969783248285"><ele>55.0</ele><time>2026-05-02T06:51:00Z</time></trkpt><trkpt lat="41.03886936366571" lon="9.516958905166023"><ele>55.0</ele><time>2026-05-02T06:51:01Z</time></trkpt><trkpt lat="41.0390310213666" lon="9.516924898457706"><ele>55.0</ele><time>2026-05-02T06:51:02Z</time></trkpt><trkpt lat="41.039197989922435" lon="9.516918921213962"><ele>52.33333333333333</ele><time>2026-05-02T06:51:03Z</time></trkpt><trkpt lat="41.0393650375768" lon="9.516892150906786"><ele>49.666666666666664</ele><time>2026-05-02T06:51:04Z</time></trkpt><trkpt lat="41.03952516775007" lon="9.51686608651794"><ele>47.0</ele><time>2026-05-02T06:51:05Z</time></trkpt><trkpt lat="41.0396940081106" lon="9.51682222900796"><ele>47.0</ele><time>2026-05-02T06:51:06Z</time></trkpt><trkpt lat="41.039872341007715" lon="9.516826801508538"><ele>47.0</ele><time>2026-05-02T06:51:07Z</time></trkpt><trkpt lat="41.040051158858695" lon="9.516888836521817"><ele>47.0</ele><time>2026-05-02T06:51:08Z</time></trkpt><trkpt lat="41.04020496453225" lon="9.51698294799605"><ele>44.0</ele><time>2026-05-02T06:51:09Z</time></trkpt><trkpt lat="41.04035337995769" lon="9.517091508489493"><ele>41.0</ele><time>2026-05-02T06:51:10Z</time></trkpt><trkpt lat="41.0405007631435" lon="9.517207406693363"><ele>38.0</ele><time>2026-05-02T06:51:11Z</time></trkpt><trkpt lat="41.04064052317601" lon="9.517314695852914"><ele>38.0</ele><time>2026-05-02T06:51:12Z</time></trkpt><trkpt lat="41.04077615141966" lon="9.517416541499351"><ele>38.0</ele><time>2026-05-02T06:51:13Z</time></trkpt><trkpt lat="41.04090191135062" lon="9.517541400889268"><ele>38.0</ele><time>2026-05-02T06:51:14Z</time></trkpt><trkpt lat="41.04104428001814" lon="9.51762963451394"><ele>37.75</ele><time>2026-05-02T06:51:15Z</time></trkpt><trkpt lat="41.04117339595956" lon="9.517736019628241"><ele>37.5</ele><time>2026-05-02T06:51:16Z</time></trkpt><trkpt lat="41.04129978763778" lon="9.517835050558551"><ele>37.25</ele><time>2026-05-02T06:51:17Z</time></trkpt><trkpt lat="41.0414120850479" lon="9.51794435661899"><ele>37.0</ele><time>2026-05-02T06:51:18Z</time></trkpt><trkpt lat="41.041527343076524" lon="9.518023736711912"><ele>35.75</ele><time>2026-05-02T06:51:19Z</time></trkpt><trkpt lat="41.04165157838167" lon="9.518090642602644"><ele>34.5</ele><time>2026-05-02T06:51:20Z</time></trkpt><trkpt lat="41.04179354081338" lon="9.51814370111049"><ele>33.25</ele><time>2026-05-02T06:51:21Z</time></trkpt><trkpt lat="41.04194260660418" lon="9.518178285614184"><ele>32.0</ele><time>2026-05-02T06:51:22Z</time></trkpt><trkpt lat="41.042094759866" lon="9.518208323051145"><ele>32.0</ele><time>2026-05-02T06:51:23Z</time></trkpt><trkpt lat="41.042286771677496" lon="9.518242869631404"><ele>32.0</ele><time>2026-05-02T06:51:24Z</time></trkpt><trkpt lat="41.04250494385749" lon="9.518266009342002"><ele>32.0</ele><time>2026-05-02T06:51:26Z</time></trkpt><trkpt lat="41.04268711050009" lon="9.51831034708565"><ele>31.333333333333332</ele><time>2026-05-02T06:51:27Z</time></trkpt><trkpt lat="41.04286158585174" lon="9.518343966515488"><ele>30.666666666666664</ele><time>2026-05-02T06:51:28Z</time></trkpt><trkpt lat="41.04302547122467" lon="9.518378539239658"><ele>30.0</ele><time>2026-05-02T06:51:29Z</time></trkpt><trkpt lat="41.04319061472324" lon="9.518403183000983"><ele>30.333333333333336</ele><time>2026-05-02T06:51:30Z</time></trkpt><trkpt lat="41.043383239483866" lon="9.518430942411221"><ele>30.666666666666668</ele><time>2026-05-02T06:51:31Z</time></trkpt><trkpt lat="41.043576016527325" lon="9.518468238928039"><ele>31.0</ele><time>2026-05-02T06:51:32Z</time></trkpt><trkpt lat="41.043756632725255" lon="9.518504787538902"><ele>31.0</ele><time>2026-05-02T06:51:33Z</time></trkpt><trkpt lat="41.04394551306486" lon="9.518536259582952"><ele>31.0</ele><time>2026-05-02T06:51:34Z</time></trkpt><trkpt lat="41.044123003829085" lon="9.518574686679967"><ele>31.0</ele><time>2026-05-02T06:51:35Z</time></trkpt><trkpt lat="41.044308767428376" lon="9.518606270232247"><ele>29.666666666666668</ele><time>2026-05-02T06:51:36Z</time></trkpt><trkpt lat="41.04450578535172" lon="9.518661914524897"><ele>28.333333333333336</ele><time>2026-05-02T06:51:37Z</time></trkpt><trkpt lat="41.044709728960015" lon="9.518681117439362"><ele>27.0</ele><time>2026-05-02T06:51:38Z</time></trkpt><trkpt lat="41.04489310620781" lon="9.518714509949932"><ele>25.666666666666668</ele><time>2026-05-02T06:51:39Z</time></trkpt><trkpt lat="41.04508787539093" lon="9.518730810692624"><ele>24.333333333333336</ele><time>2026-05-02T06:51:40Z</time></trkpt><trkpt lat="41.04530440989687" lon="9.518740060622466"><ele>23.0</ele><time>2026-05-02T06:51:41Z</time></trkpt><trkpt lat="41.045502641218" lon="9.518702025413107"><ele>23.0</ele><time>2026-05-02T06:51:42Z</time></trkpt><trkpt lat="41.04568698578518" lon="9.518628201472223"><ele>23.0</ele><time>2026-05-02T06:51:43Z</time></trkpt><trkpt lat="41.045877525145954" lon="9.51854266053248"><ele>23.0</ele><time>2026-05-02T06:51:44Z</time></trkpt><trkpt lat="41.04607901817456" lon="9.51847583569171"><ele>19.5</ele><time>2026-05-02T06:51:45Z</time></trkpt><trkpt lat="41.04629034898793" lon="9.518407290010272"><ele>16.0</ele><time>2026-05-02T06:51:46Z</time></trkpt><trkpt lat="41.04651595487554" lon="9.518334169983007"><ele>14.666666666666666</ele><time>2026-05-02T06:51:47Z</time></trkpt><trkpt lat="41.0467376812264" lon="9.518246301861224"><ele>13.333333333333332</ele><time>2026-05-02T06:51:48Z</time></trkpt><trkpt lat="41.04692950213258" lon="9.518173216056523"><ele>12.0</ele><time>2026-05-02T06:51:49Z</time></trkpt><trkpt lat="41.04716088096178" lon="9.51808238844205"><ele>12.0</ele><time>2026-05-02T06:51:50Z</time></trkpt><trkpt lat="41.04739734774995" lon="9.517974534326436"><ele>12.0</ele><time>2026-05-02T06:51:51Z</time></trkpt><trkpt lat="41.047625393562726" lon="9.517842734349832"><ele>15.0</ele><time>2026-05-02T06:51:52Z</time></trkpt><trkpt lat="41.04784484373896" lon="9.517690040876566"><ele>18.0</ele><time>2026-05-02T06:51:53Z</time></trkpt><trkpt lat="41.04806784165706" lon="9.517554506383124"><ele>17.0</ele><time>2026-05-02T06:51:54Z</time></trkpt><trkpt lat="41.048296319650625" lon="9.517426431628822"><ele>16.0</ele><time>2026-05-02T06:51:55Z</time></trkpt><trkpt lat="41.04852484117755" lon="9.517314824868729"><ele>16.0</ele><time>2026-05-02T06:51:56Z</time></trkpt><trkpt lat="41.04875315295358" lon="9.517219221758191"><ele>16.0</ele><time>2026-05-02T06:51:57Z</time></trkpt><trkpt lat="41.04898716601937" lon="9.517142195421506"><ele>15.0</ele><time>2026-05-02T06:51:58Z</time></trkpt><trkpt lat="41.04922011981112" lon="9.517067071464218"><ele>14.0</ele><time>2026-05-02T06:51:59Z</time></trkpt><trkpt lat="41.04945702491961" lon="9.516985606447273"><ele>14.0</ele><time>2026-05-02T06:52:00Z</time></trkpt><trkpt lat="41.04968746096811" lon="9.516901379899565"><ele>14.0</ele><time>2026-05-02T06:52:01Z</time></trkpt><trkpt lat="41.04992308069502" lon="9.51681435250699"><ele>16.5</ele><time>2026-05-02T06:52:02Z</time></trkpt><trkpt lat="41.050152535216455" lon="9.516733145368955"><ele>19.0</ele><time>2026-05-02T06:52:03Z</time></trkpt><trkpt lat="41.050383776621324" lon="9.516655413055261"><ele>19.0</ele><time>2026-05-02T06:52:04Z</time></trkpt><trkpt lat="41.050610146251" lon="9.51657715482411"><ele>19.0</ele><time>2026-05-02T06:52:05Z</time></trkpt><trkpt lat="41.05084021861798" lon="9.516505390256574"><ele>17.5</ele><time>2026-05-02T06:52:06Z</time></trkpt><trkpt lat="41.051071055417644" lon="9.516428333683402"><ele>16.0</ele><time>2026-05-02T06:52:07Z</time></trkpt><trkpt lat="41.051296457620644" lon="9.516352648266059"><ele>16.0</ele><time>2026-05-02T06:52:08Z</time></trkpt><trkpt lat="41.05152692112192" lon="9.516280961539914"><ele>16.0</ele><time>2026-05-02T06:52:09Z</time></trkpt><trkpt lat="41.05175905765711" lon="9.516209273190807"><ele>21.0</ele><time>2026-05-02T06:52:10Z</time></trkpt><trkpt lat="41.0519870106628" lon="9.516136540995744"><ele>26.0</ele><time>2026-05-02T06:52:11Z</time></trkpt><trkpt lat="41.05221350582722" lon="9.516079380472869"><ele>26.0</ele><time>2026-05-02T06:52:12Z</time></trkpt><trkpt lat="41.05244492990573" lon="9.516077599359969"><ele>26.0</ele><time>2026-05-02T06:52:13Z</time></trkpt><trkpt lat="41.05267979537853" lon="9.516115309219128"><ele>26.0</ele><time>2026-05-02T06:52:14Z</time></trkpt><trkpt lat="41.052919083804156" lon="9.516178200763463"><ele>26.0</ele><time>2026-05-02T06:52:15Z</time></trkpt><trkpt lat="41.05315715504417" lon="9.516292516723306"><ele>23.0</ele><time>2026-05-02T06:52:16Z</time></trkpt><trkpt lat="41.05339226180076" lon="9.516409323429428"><ele>20.0</ele><time>2026-05-02T06:52:17Z</time></trkpt><trkpt lat="41.0536232228015" lon="9.516527013348512"><ele>20.0</ele><time>2026-05-02T06:52:18Z</time></trkpt><trkpt lat="41.053827948786335" lon="9.516695279484656"><ele>20.0</ele><time>2026-05-02T06:52:19Z</time></trkpt><trkpt lat="41.054016207832674" lon="9.516884005140998"><ele>17.0</ele><time>2026-05-02T06:52:20Z</time></trkpt><trkpt lat="41.05420107660548" lon="9.517112954793674"><ele>14.0</ele><time>2026-05-02T06:52:21Z</time></trkpt><trkpt lat="41.054398079680716" lon="9.517348079048483"><ele>14.0</ele><time>2026-05-02T06:52:22Z</time></trkpt><trkpt lat="41.05456755753167" lon="9.517595501369314"><ele>14.0</ele><time>2026-05-02T06:52:23Z</time></trkpt><trkpt lat="41.05475194365858" lon="9.51782982125997"><ele>13.5</ele><time>2026-05-02T06:52:24Z</time></trkpt><trkpt lat="41.05493194359459" lon="9.5180610776545"><ele>13.0</ele><time>2026-05-02T06:52:25Z</time></trkpt><trkpt lat="41.0551261307463" lon="9.518270472615212"><ele>13.0</ele><time>2026-05-02T06:52:26Z</time></trkpt><trkpt lat="41.05531985859226" lon="9.518435633880411"><ele>13.0</ele><time>2026-05-02T06:52:27Z</time></trkpt><trkpt lat="41.055559480614264" lon="9.518540654692224"><ele>13.5</ele><time>2026-05-02T06:52:28Z</time></trkpt><trkpt lat="41.05582639879249" lon="9.518592213968052"><ele>14.0</ele><time>2026-05-02T06:52:29Z</time></trkpt><trkpt lat="41.056123051526704" lon="9.518616683454834"><ele>14.0</ele><time>2026-05-02T06:52:30Z</time></trkpt><trkpt lat="41.05641547746722" lon="9.518658081846805"><ele>14.0</ele><time>2026-05-02T06:52:31Z</time></trkpt><trkpt lat="41.056682386366994" lon="9.518713188122224"><ele>17.5</ele><time>2026-05-02T06:52:32Z</time></trkpt><trkpt lat="41.056937911134" lon="9.518729649915683"><ele>21.0</ele><time>2026-05-02T06:52:33Z</time></trkpt><trkpt lat="41.05717858419232" lon="9.518692307118744"><ele>21.0</ele><time>2026-05-02T06:52:34Z</time></trkpt><trkpt lat="41.05739349288625" lon="9.518571914785795"><ele>21.0</ele><time>2026-05-02T06:52:35Z</time></trkpt><trkpt lat="41.057589200434386" lon="9.518379923102215"><ele>22.5</ele><time>2026-05-02T06:52:36Z</time></trkpt><trkpt lat="41.0577613101334" lon="9.51809444611619"><ele>24.0</ele><time>2026-05-02T06:52:37Z</time></trkpt><trkpt lat="41.05794232566907" lon="9.51778835345453"><ele>24.0</ele><time>2026-05-02T06:52:38Z</time></trkpt><trkpt lat="41.05813961614152" lon="9.517507085012223"><ele>24.0</ele><time>2026-05-02T06:52:39Z</time></trkpt><trkpt lat="41.058346714019194" lon="9.517249181093556"><ele>29.0</ele><time>2026-05-02T06:52:40Z</time></trkpt><trkpt lat="41.0585698552498" lon="9.517023720245568"><ele>34.0</ele><time>2026-05-02T06:52:41.001Z</time></trkpt><trkpt lat="41.05881575474142" lon="9.51682757871574"><ele>34.0</ele><time>2026-05-02T06:52:42.001Z</time></trkpt><trkpt lat="41.05906008174216" lon="9.516663785551485"><ele>34.0</ele><time>2026-05-02T06:52:43.001Z</time></trkpt><trkpt lat="41.05930494533358" lon="9.516496013893248"><ele>32.5</ele><time>2026-05-02T06:52:44.001Z</time></trkpt><trkpt lat="41.059542896798916" lon="9.516324522398593"><ele>31.0</ele><time>2026-05-02T06:52:45.001Z</time></trkpt><trkpt lat="41.059775716212144" lon="9.516151238636684"><ele>32.5</ele><time>2026-05-02T06:52:46.001Z</time></trkpt><trkpt lat="41.060002531700256" lon="9.515972522395701"><ele>34.0</ele><time>2026-05-02T06:52:47.001Z</time></trkpt><trkpt lat="41.06023874145494" lon="9.515799150501017"><ele>34.0</ele><time>2026-05-02T06:52:48.001Z</time></trkpt><trkpt lat="41.06046753335243" lon="9.515639293144392"><ele>34.0</ele><time>2026-05-02T06:52:49Z</time></trkpt><trkpt lat="41.060676422883" lon="9.515484825080371"><ele>35.5</ele><time>2026-05-02T06:52:50Z</time></trkpt><trkpt lat="41.060872842338185" lon="9.515335560039086"><ele>37.0</ele><time>2026-05-02T06:52:51Z</time></trkpt><trkpt lat="41.06105865520837" lon="9.515165512656376"><ele>37.0</ele><time>2026-05-02T06:52:52Z</time></trkpt><trkpt lat="41.06121579633881" lon="9.514957712119347"><ele>37.0</ele><time>2026-05-02T06:52:53Z</time></trkpt><trkpt lat="41.06134747446318" lon="9.514709207343387"><ele>41.5</ele><time>2026-05-02T06:52:54Z</time></trkpt><trkpt lat="41.061462133922554" lon="9.514424603963473"><ele>46.0</ele><time>2026-05-02T06:52:55Z</time></trkpt><trkpt lat="41.061562335161" lon="9.514146913361987"><ele>46.333333333333336</ele><time>2026-05-02T06:52:56Z</time></trkpt><trkpt lat="41.06165674769299" lon="9.513897940099671"><ele>46.666666666666664</ele><time>2026-05-02T06:52:57Z</time></trkpt><trkpt lat="41.06177485464869" lon="9.513683974020646"><ele>47.0</ele><time>2026-05-02T06:52:58Z</time></trkpt><trkpt lat="41.06191665305143" lon="9.513518106362966"><ele>47.0</ele><time>2026-05-02T06:52:59Z</time></trkpt><trkpt lat="41.06208192286563" lon="9.513396515836384"><ele>47.0</ele><time>2026-05-02T06:53:00Z</time></trkpt><trkpt lat="41.062256850997514" lon="9.51331433111613"><ele>47.0</ele><time>2026-05-02T06:53:01Z</time></trkpt><trkpt lat="41.062441664464835" lon="9.513277276613461"><ele>45.666666666666664</ele><time>2026-05-02T06:53:02Z</time></trkpt><trkpt lat="41.062625179681504" lon="9.513278733997776"><ele>44.333333333333336</ele><time>2026-05-02T06:53:03Z</time></trkpt><trkpt lat="41.06280567550647" lon="9.513282877820512"><ele>43.0</ele><time>2026-05-02T06:53:04Z</time></trkpt><trkpt lat="41.062986596479114" lon="9.513280556397884"><ele>43.0</ele><time>2026-05-02T06:53:05Z</time></trkpt><trkpt lat="41.063163717166596" lon="9.51326811212183"><ele>43.0</ele><time>2026-05-02T06:53:06Z</time></trkpt><trkpt lat="41.06333888533888" lon="9.513250319871073"><ele>43.0</ele><time>2026-05-02T06:53:07Z</time></trkpt><trkpt lat="41.06350539887256" lon="9.513238960470455"><ele>46.66666666666667</ele><time>2026-05-02T06:53:08Z</time></trkpt><trkpt lat="41.06367313999682" lon="9.513228312250298"><ele>50.333333333333336</ele><time>2026-05-02T06:53:09Z</time></trkpt><trkpt lat="41.06383715968028" lon="9.513206723003865"><ele>54.0</ele><time>2026-05-02T06:53:10Z</time></trkpt><trkpt lat="41.0639996660841" lon="9.513183751497165"><ele>55.0</ele><time>2026-05-02T06:53:11Z</time></trkpt><trkpt lat="41.0641632641097" lon="9.513158856284607"><ele>56.0</ele><time>2026-05-02T06:53:12Z</time></trkpt><trkpt lat="41.06431933494144" lon="9.513123541486747"><ele>57.0</ele><time>2026-05-02T06:53:13Z</time></trkpt><trkpt lat="41.06447225065099" lon="9.513088810137019"><ele>57.0</ele><time>2026-05-02T06:53:14Z</time></trkpt><trkpt lat="41.0646283825809" lon="9.513065157520856"><ele>57.0</ele><time>2026-05-02T06:53:15Z</time></trkpt><trkpt lat="41.06478612712068" lon="9.513035712381885"><ele>57.0</ele><time>2026-05-02T06:53:16Z</time></trkpt><trkpt lat="41.06494626448098" lon="9.51299780737289"><ele>57.33333333333333</ele><time>2026-05-02T06:53:17Z</time></trkpt><trkpt lat="41.06510145576398" lon="9.512943753572218"><ele>57.666666666666664</ele><time>2026-05-02T06:53:18Z</time></trkpt><trkpt lat="41.06525614061862" lon="9.512871444242839"><ele>58.0</ele><time>2026-05-02T06:53:19Z</time></trkpt><trkpt lat="41.0654013766509" lon="9.512771588138609"><ele>62.666666666666664</ele><time>2026-05-02T06:53:20Z</time></trkpt><trkpt lat="41.065531147461286" lon="9.512641248899598"><ele>67.33333333333333</ele><time>2026-05-02T06:53:21Z</time></trkpt><trkpt lat="41.065625146875696" lon="9.512462919129506"><ele>72.0</ele><time>2026-05-02T06:53:22Z</time></trkpt><trkpt lat="41.06570295260379" lon="9.512267832733352"><ele>72.33333333333333</ele><time>2026-05-02T06:53:23Z</time></trkpt><trkpt lat="41.065774355814895" lon="9.512065280365313"><ele>72.66666666666666</ele><time>2026-05-02T06:53:24Z</time></trkpt><trkpt lat="41.06584538146872" lon="9.51187661427985"><ele>73.0</ele><time>2026-05-02T06:53:25Z</time></trkpt><trkpt lat="41.065940998904324" lon="9.511731588854687"><ele>73.0</ele><time>2026-05-02T06:53:26Z</time></trkpt><trkpt lat="41.066050397570415" lon="9.511611874065197"><ele>73.0</ele><time>2026-05-02T06:53:27Z</time></trkpt><trkpt lat="41.06616009708708" lon="9.511513031382156"><ele>73.0</ele><time>2026-05-02T06:53:28Z</time></trkpt><trkpt lat="41.06626024359935" lon="9.511422435849177"><ele>73.0</ele><time>2026-05-02T06:53:29Z</time></trkpt><trkpt lat="41.066363152727604" lon="9.511321914368157"><ele>73.5</ele><time>2026-05-02T06:53:30Z</time></trkpt><trkpt lat="41.06646218361207" lon="9.51119908853213"><ele>74.0</ele><time>2026-05-02T06:53:31Z</time></trkpt><trkpt lat="41.06656276718641" lon="9.511062624328584"><ele>74.5</ele><time>2026-05-02T06:53:32Z</time></trkpt><trkpt lat="41.06665432792499" lon="9.51092081796688"><ele>75.0</ele><time>2026-05-02T06:53:33Z</time></trkpt><trkpt lat="41.06673326783219" lon="9.510758346911429"><ele>75.0</ele><time>2026-05-02T06:53:34Z</time></trkpt><trkpt lat="41.06679202310697" lon="9.510552103553202"><ele>75.0</ele><time>2026-05-02T06:53:35Z</time></trkpt><trkpt lat="41.06682634162035" lon="9.510367232139926"><ele>75.0</ele><time>2026-05-02T06:53:36Z</time></trkpt><trkpt lat="41.066849587277304" lon="9.510170380245688"><ele>76.33333333333333</ele><time>2026-05-02T06:53:37Z</time></trkpt><trkpt lat="41.06684559657864" lon="9.509956305596111"><ele>77.66666666666666</ele><time>2026-05-02T06:53:38Z</time></trkpt><trkpt lat="41.066821064489076" lon="9.509749369187164"><ele>79.0</ele><time>2026-05-02T06:53:39Z</time></trkpt><trkpt lat="41.066800183478655" lon="9.50953200788158"><ele>80.75</ele><time>2026-05-02T06:53:40Z</time></trkpt><trkpt lat="41.06679271085164" lon="9.509324028158657"><ele>82.5</ele><time>2026-05-02T06:53:41Z</time></trkpt><trkpt lat="41.06678897890181" lon="9.50913452108653"><ele>84.25</ele><time>2026-05-02T06:53:42Z</time></trkpt><trkpt lat="41.06678413718723" lon="9.508973506636034"><ele>86.0</ele><time>2026-05-02T06:53:43Z</time></trkpt><trkpt lat="41.066808703187725" lon="9.5088117733691"><ele>86.5</ele><time>2026-05-02T06:53:44Z</time></trkpt><trkpt lat="41.06684046963627" lon="9.50865455532499"><ele>87.0</ele><time>2026-05-02T06:53:45Z</time></trkpt><trkpt lat="41.066885889288734" lon="9.508512061070412"><ele>87.5</ele><time>2026-05-02T06:53:46Z</time></trkpt><trkpt lat="41.06693451432402" lon="9.508386773625514"><ele>88.0</ele><time>2026-05-02T06:53:47Z</time></trkpt><trkpt lat="41.06700053340533" lon="9.508279111115908"><ele>88.0</ele><time>2026-05-02T06:53:48Z</time></trkpt><trkpt lat="41.067071435099265" lon="9.508186439124826"><ele>88.0</ele><time>2026-05-02T06:53:49Z</time></trkpt><trkpt lat="41.06715492395283" lon="9.508084956544032"><ele>88.0</ele><time>2026-05-02T06:53:50Z</time></trkpt><trkpt lat="41.06726189758171" lon="9.508004220667653"><ele>88.0</ele><time>2026-05-02T06:53:51Z</time></trkpt><trkpt lat="41.067386616982795" lon="9.507942281396222"><ele>88.66666666666666</ele><time>2026-05-02T06:53:52Z</time></trkpt><trkpt lat="41.06752435605289" lon="9.507891225182918"><ele>89.33333333333333</ele><time>2026-05-02T06:53:53Z</time></trkpt><trkpt lat="41.06768994309477" lon="9.507833413620116"><ele>90.0</ele><time>2026-05-02T06:53:54Z</time></trkpt><trkpt lat="41.067870579165096" lon="9.507769167322538"><ele>90.0</ele><time>2026-05-02T06:53:55Z</time></trkpt><trkpt lat="41.068050403274825" lon="9.507698013187623"><ele>90.0</ele><time>2026-05-02T06:53:56Z</time></trkpt><trkpt lat="41.06823381437168" lon="9.507623793121196"><ele>90.0</ele><time>2026-05-02T06:53:57Z</time></trkpt><trkpt lat="41.068428168969305" lon="9.507563856661756"><ele>91.5</ele><time>2026-05-02T06:53:58Z</time></trkpt><trkpt lat="41.068628365737794" lon="9.507469912904742"><ele>93.0</ele><time>2026-05-02T06:53:59Z</time></trkpt><trkpt lat="41.06886401187657" lon="9.507384318942359"><ele>94.5</ele><time>2026-05-02T06:54:00Z</time></trkpt><trkpt lat="41.06911968770309" lon="9.507287072154543"><ele>96.0</ele><time>2026-05-02T06:54:01Z</time></trkpt><trkpt lat="41.06937522088834" lon="9.507189708888982"><ele>96.0</ele><time>2026-05-02T06:54:02Z</time></trkpt><trkpt lat="41.06961771464058" lon="9.507104591236928"><ele>96.0</ele><time>2026-05-02T06:54:03Z</time></trkpt><trkpt lat="41.069843579662674" lon="9.507035170639744"><ele>93.0</ele><time>2026-05-02T06:54:04Z</time></trkpt><trkpt lat="41.07005991130244" lon="9.506966623862704"><ele>90.0</ele><time>2026-05-02T06:54:05Z</time></trkpt><trkpt lat="41.070266581355554" lon="9.506881551043595"><ele>87.0</ele><time>2026-05-02T06:54:06Z</time></trkpt><trkpt lat="41.07047131380507" lon="9.506811742019986"><ele>87.0</ele><time>2026-05-02T06:54:07Z</time></trkpt><trkpt lat="41.07066310758711" lon="9.50677230642458"><ele>87.0</ele><time>2026-05-02T06:54:08Z</time></trkpt><trkpt lat="41.07085961329335" lon="9.506774207690047"><ele>87.0</ele><time>2026-05-02T06:54:09Z</time></trkpt><trkpt lat="41.07103505499082" lon="9.506859920641825"><ele>87.0</ele><time>2026-05-02T06:54:10Z</time></trkpt><trkpt lat="41.07120207479596" lon="9.506958505382288"><ele>87.0</ele><time>2026-05-02T06:54:11Z</time></trkpt><trkpt lat="41.07136071806623" lon="9.507078903552161"><ele>87.0</ele><time>2026-05-02T06:54:12Z</time></trkpt><trkpt lat="41.071485044934754" lon="9.507236035111404"><ele>86.0</ele><time>2026-05-02T06:54:13Z</time></trkpt><trkpt lat="41.071578721039515" lon="9.507402513439837"><ele>85.0</ele><time>2026-05-02T06:54:14Z</time></trkpt><trkpt lat="41.07167026417101" lon="9.507573510555037"><ele>84.0</ele><time>2026-05-02T06:54:15Z</time></trkpt><trkpt lat="41.07176512818229" lon="9.507739594858275"><ele>86.66666666666667</ele><time>2026-05-02T06:54:16Z</time></trkpt><trkpt lat="41.07187381066241" lon="9.507915689600097"><ele>89.33333333333334</ele><time>2026-05-02T06:54:17Z</time></trkpt><trkpt lat="41.07198279902636" lon="9.508094031105825"><ele>92.0</ele><time>2026-05-02T06:54:18Z</time></trkpt><trkpt lat="41.07209326741082" lon="9.5082840283342"><ele>92.0</ele><time>2026-05-02T06:54:19Z</time></trkpt><trkpt lat="41.07220048647243" lon="9.508470531409397"><ele>92.0</ele><time>2026-05-02T06:54:20Z</time></trkpt><trkpt lat="41.07230909295855" lon="9.50865648650898"><ele>92.0</ele><time>2026-05-02T06:54:21Z</time></trkpt><trkpt lat="41.072419417604955" lon="9.508845219674196"><ele>91.33333333333334</ele><time>2026-05-02T06:54:22Z</time></trkpt><trkpt lat="41.072528487792965" lon="9.50903685812006"><ele>90.66666666666667</ele><time>2026-05-02T06:54:23Z</time></trkpt><trkpt lat="41.07264077859692" lon="9.509228410015526"><ele>90.0</ele><time>2026-05-02T06:54:24Z</time></trkpt><trkpt lat="41.07276005423372" lon="9.509399788100387"><ele>90.0</ele><time>2026-05-02T06:54:25Z</time></trkpt><trkpt lat="41.07289000519342" lon="9.509525321501059"><ele>90.0</ele><time>2026-05-02T06:54:26Z</time></trkpt><trkpt lat="41.073043721998545" lon="9.509607699790312"><ele>90.0</ele><time>2026-05-02T06:54:27Z</time></trkpt><trkpt lat="41.07319900271973" lon="9.50965015671582"><ele>86.66666666666667</ele><time>2026-05-02T06:54:28Z</time></trkpt><trkpt lat="41.07335234846727" lon="9.509663495558664"><ele>83.33333333333334</ele><time>2026-05-02T06:54:29Z</time></trkpt><trkpt lat="41.07351102053892" lon="9.509624480097981"><ele>80.0</ele><time>2026-05-02T06:54:30Z</time></trkpt><trkpt lat="41.07371409607228" lon="9.509558598959922"><ele>90.0</ele><time>2026-05-02T06:54:31Z</time></trkpt><trkpt lat="41.073926734631556" lon="9.509499769375076"><ele>100.0</ele><time>2026-05-02T06:54:32.001Z</time></trkpt><trkpt lat="41.07417834138657" lon="9.509448895761738"><ele>101.0</ele><time>2026-05-02T06:54:33.001Z</time></trkpt><trkpt lat="41.07443800644327" lon="9.509408553704878"><ele>102.0</ele><time>2026-05-02T06:54:34.001Z</time></trkpt><trkpt lat="41.07469976472554" lon="9.509339955714498"><ele>102.0</ele><time>2026-05-02T06:54:35.001Z</time></trkpt><trkpt lat="41.07494864386913" lon="9.509291027948942"><ele>102.0</ele><time>2026-05-02T06:54:36.001Z</time></trkpt><trkpt lat="41.07518723841896" lon="9.509331006121881"><ele>102.0</ele><time>2026-05-02T06:54:37.001Z</time></trkpt><trkpt lat="41.07541363586511" lon="9.509421106418506"><ele>102.0</ele><time>2026-05-02T06:54:38.001Z</time></trkpt><trkpt lat="41.0755961544813" lon="9.509585250360352"><ele>101.66666666666666</ele><time>2026-05-02T06:54:39.001Z</time></trkpt><trkpt lat="41.075751997540635" lon="9.509800834236998"><ele>101.33333333333333</ele><time>2026-05-02T06:54:40.001Z</time></trkpt><trkpt lat="41.07585377693789" lon="9.510056098436612"><ele>101.0</ele><time>2026-05-02T06:54:41.001Z</time></trkpt><trkpt lat="41.07589834889114" lon="9.510345640514604"><ele>102.0</ele><time>2026-05-02T06:54:42.001Z</time></trkpt><trkpt lat="41.07589464625191" lon="9.510674307036714"><ele>103.0</ele><time>2026-05-02T06:54:43.001Z</time></trkpt><trkpt lat="41.075876875604756" lon="9.51098824883871"><ele>104.33333333333334</ele><time>2026-05-02T06:54:44.001Z</time></trkpt><trkpt lat="41.07586837204134" lon="9.511274436497418"><ele>105.66666666666666</ele><time>2026-05-02T06:54:45.001Z</time></trkpt><trkpt lat="41.075849579327055" lon="9.511557914772016"><ele>107.0</ele><time>2026-05-02T06:54:46.001Z</time></trkpt><trkpt lat="41.07582649240517" lon="9.5118394056815"><ele>108.0</ele><time>2026-05-02T06:54:47.001Z</time></trkpt><trkpt lat="41.075807948857346" lon="9.51212604657898"><ele>109.0</ele><time>2026-05-02T06:54:48.001Z</time></trkpt><trkpt lat="41.075787715267616" lon="9.51241405317573"><ele>110.0</ele><time>2026-05-02T06:54:49.001Z</time></trkpt><trkpt lat="41.075772522134905" lon="9.512752780257117"><ele>101.5</ele><time>2026-05-02T06:54:50.001Z</time></trkpt><trkpt lat="41.07572643214612" lon="9.513114974301484"><ele>93.0</ele><time>2026-05-02T06:54:51.001Z</time></trkpt><trkpt lat="41.07568465513204" lon="9.51348127483159"><ele>92.0</ele><time>2026-05-02T06:54:52.001Z</time></trkpt><trkpt lat="41.07564896227396" lon="9.513827841000412"><ele>91.0</ele><time>2026-05-02T06:54:53.001Z</time></trkpt><trkpt lat="41.075602883666996" lon="9.514142807005124"><ele>91.0</ele><time>2026-05-02T06:54:54.001Z</time></trkpt><trkpt lat="41.07557045622986" lon="9.514430903213668"><ele>91.0</ele><time>2026-05-02T06:54:55Z</time></trkpt><trkpt lat="41.07554677650753" lon="9.514701974419086"><ele>91.0</ele><time>2026-05-02T06:54:56Z</time></trkpt><trkpt lat="41.07555418849492" lon="9.514996992885788"><ele>93.0</ele><time>2026-05-02T06:54:57Z</time></trkpt><trkpt lat="41.07558694701752" lon="9.515304058435234"><ele>95.0</ele><time>2026-05-02T06:54:58Z</time></trkpt><trkpt lat="41.07563429514187" lon="9.515592985915202"><ele>95.0</ele><time>2026-05-02T06:54:59Z</time></trkpt><trkpt lat="41.07566193433194" lon="9.515849041295338"><ele>95.0</ele><time>2026-05-02T06:55:00Z</time></trkpt><trkpt lat="41.07567229546829" lon="9.516081455522281"><ele>95.0</ele><time>2026-05-02T06:55:01Z</time></trkpt><trkpt lat="41.07570625641622" lon="9.516308583668847"><ele>94.0</ele><time>2026-05-02T06:55:02Z</time></trkpt><trkpt lat="41.07575167193133" lon="9.5165559523004"><ele>93.0</ele><time>2026-05-02T06:55:03Z</time></trkpt><trkpt lat="41.07579978027678" lon="9.516758423510872"><ele>92.0</ele><time>2026-05-02T06:55:04Z</time></trkpt><trkpt lat="41.07585026336017" lon="9.516961240390636"><ele>97.75</ele><time>2026-05-02T06:55:05Z</time></trkpt><trkpt lat="41.07589531110965" lon="9.517160542162566"><ele>103.5</ele><time>2026-05-02T06:55:06Z</time></trkpt><trkpt lat="41.07593442615041" lon="9.517344954290863"><ele>109.25</ele><time>2026-05-02T06:55:07Z</time></trkpt><trkpt lat="41.075964076442396" lon="9.5175203808007"><ele>115.0</ele><time>2026-05-02T06:55:08Z</time></trkpt><trkpt lat="41.07599482410289" lon="9.517647429679728"><ele>115.00000000000001</ele><time>2026-05-02T06:55:09Z</time></trkpt><trkpt lat="41.07600893516822" lon="9.517731447212753"><ele>115.0</ele><time>2026-05-02T06:55:10Z</time></trkpt><trkpt lat="41.07601758659938" lon="9.517815242384842"><ele>115.0</ele><time>2026-05-02T06:55:13Z</time></trkpt><trkpt lat="41.07602666340539" lon="9.517898550667022"><ele>115.0</ele><time>2026-05-02T06:55:17Z</time></trkpt><trkpt lat="41.07607154579954" lon="9.517971066734653"><ele>115.00000000000001</ele><time>2026-05-02T07:00:43Z</time></trkpt><trkpt lat="41.076155807926135" lon="9.518047896155933"><ele>115.0</ele><time>2026-05-02T07:01:03Z</time></trkpt><trkpt lat="41.07621245350023" lon="9.518144690397996"><ele>115.8</ele><time>2026-05-02T07:01:04Z</time></trkpt><trkpt lat="41.07630176090506" lon="9.51823505140565"><ele>116.6</ele><time>2026-05-02T07:01:05Z</time></trkpt><trkpt lat="41.07638551143146" lon="9.518316933847482"><ele>117.4</ele><time>2026-05-02T07:01:06Z</time></trkpt><trkpt lat="41.07647205443643" lon="9.51840393155157"><ele>118.2</ele><time>2026-05-02T07:01:07Z</time></trkpt><trkpt lat="41.076573319156374" lon="9.51848688519946"><ele>119.0</ele><time>2026-05-02T07:01:08Z</time></trkpt><trkpt lat="41.07668389459549" lon="9.518566593569199"><ele>119.0</ele><time>2026-05-02T07:01:09Z</time></trkpt><trkpt lat="41.076814853822114" lon="9.518675511333086"><ele>119.0</ele><time>2026-05-02T07:01:10Z</time></trkpt><trkpt lat="41.07697400228005" lon="9.518793846020593"><ele>119.0</ele><time>2026-05-02T07:01:11Z</time></trkpt><trkpt lat="41.07715554315502" lon="9.518883311135403"><ele>112.0</ele><time>2026-05-02T07:01:12Z</time></trkpt><trkpt lat="41.077367314914405" lon="9.519010226030478"><ele>105.0</ele><time>2026-05-02T07:01:13Z</time></trkpt><trkpt lat="41.077577732583464" lon="9.51913636964654"><ele>105.0</ele><time>2026-05-02T07:01:14Z</time></trkpt><trkpt lat="41.07778738160107" lon="9.519262139016798"><ele>105.0</ele><time>2026-05-02T07:01:15Z</time></trkpt><trkpt lat="41.07802300064137" lon="9.519395077967806"><ele>105.0</ele><time>2026-05-02T07:01:16Z</time></trkpt><trkpt lat="41.07824287511012" lon="9.519505748469266"><ele>105.0</ele><time>2026-05-02T07:01:17Z</time></trkpt><trkpt lat="41.078461114330935" lon="9.519617660357495"><ele>105.5</ele><time>2026-05-02T07:01:18Z</time></trkpt><trkpt lat="41.07870760977171" lon="9.519741686926334"><ele>106.0</ele><time>2026-05-02T07:01:19Z</time></trkpt><trkpt lat="41.07896132189611" lon="9.519885953357111"><ele>108.0</ele><time>2026-05-02T07:01:20Z</time></trkpt><trkpt lat="41.079198153575994" lon="9.520038710828358"><ele>110.0</ele><time>2026-05-02T07:01:21Z</time></trkpt><trkpt lat="41.07942312142072" lon="9.520183175434731"><ele>110.0</ele><time>2026-05-02T07:01:22Z</time></trkpt><trkpt lat="41.079637530014175" lon="9.520326066135574"><ele>110.0</ele><time>2026-05-02T07:01:23Z</time></trkpt><trkpt lat="41.079847192280226" lon="9.52048502934622"><ele>106.5</ele><time>2026-05-02T07:01:24Z</time></trkpt><trkpt lat="41.08000293683919" lon="9.520720620658503"><ele>103.0</ele><time>2026-05-02T07:01:25Z</time></trkpt><trkpt lat="41.08014156761475" lon="9.520980655027175"><ele>98.5</ele><time>2026-05-02T07:01:26Z</time></trkpt><trkpt lat="41.080295101239955" lon="9.521251828726657"><ele>94.0</ele><time>2026-05-02T07:01:27Z</time></trkpt><trkpt lat="41.080420386850356" lon="9.521519892481294"><ele>94.0</ele><time>2026-05-02T07:01:28Z</time></trkpt><trkpt lat="41.08056134261117" lon="9.521751710815723"><ele>94.0</ele><time>2026-05-02T07:01:29Z</time></trkpt><trkpt lat="41.08074324015719" lon="9.52193480640944"><ele>95.66666666666666</ele><time>2026-05-02T07:01:30Z</time></trkpt><trkpt lat="41.08094356344422" lon="9.522064652645126"><ele>97.33333333333333</ele><time>2026-05-02T07:01:31Z</time></trkpt><trkpt lat="41.081156679543575" lon="9.522132330159389"><ele>99.0</ele><time>2026-05-02T07:01:32Z</time></trkpt><trkpt lat="41.08135716525404" lon="9.522169153873303"><ele>95.66666666666667</ele><time>2026-05-02T07:01:33Z</time></trkpt><trkpt lat="41.08155391548022" lon="9.522210527745196"><ele>92.33333333333334</ele><time>2026-05-02T07:01:34Z</time></trkpt><trkpt lat="41.08173251336601" lon="9.522275400948626"><ele>89.0</ele><time>2026-05-02T07:01:35Z</time></trkpt><trkpt lat="41.08188568703431" lon="9.522391405698377"><ele>88.66666666666667</ele><time>2026-05-02T07:01:36Z</time></trkpt><trkpt lat="41.082039575213074" lon="9.522494674349097"><ele>88.33333333333333</ele><time>2026-05-02T07:01:37Z</time></trkpt><trkpt lat="41.082194806881446" lon="9.522582234358996"><ele>88.0</ele><time>2026-05-02T07:01:38Z</time></trkpt><trkpt lat="41.082339988754114" lon="9.52269356648358"><ele>88.33333333333333</ele><time>2026-05-02T07:01:39Z</time></trkpt><trkpt lat="41.08249586380651" lon="9.522799899320676"><ele>88.66666666666667</ele><time>2026-05-02T07:01:40Z</time></trkpt><trkpt lat="41.08264402451051" lon="9.522916078602758"><ele>89.0</ele><time>2026-05-02T07:01:41Z</time></trkpt><trkpt lat="41.08276657761855" lon="9.523069669667201"><ele>87.33333333333334</ele><time>2026-05-02T07:01:42Z</time></trkpt><trkpt lat="41.0828507018109" lon="9.52326594472482"><ele>85.66666666666667</ele><time>2026-05-02T07:01:43Z</time></trkpt><trkpt lat="41.08295083680948" lon="9.523441435439711"><ele>84.0</ele><time>2026-05-02T07:01:44Z</time></trkpt><trkpt lat="41.08302149923493" lon="9.523618396075838"><ele>84.0</ele><time>2026-05-02T07:01:45Z</time></trkpt><trkpt lat="41.08309250943158" lon="9.523779667013288"><ele>84.0</ele><time>2026-05-02T07:01:46Z</time></trkpt><trkpt lat="41.08316285420651" lon="9.523923346894357"><ele>84.0</ele><time>2026-05-02T07:01:47Z</time></trkpt><trkpt lat="41.08324263729267" lon="9.524075302280744"><ele>84.0</ele><time>2026-05-02T07:01:48Z</time></trkpt><trkpt lat="41.083331816972176" lon="9.524228910814823"><ele>84.0</ele><time>2026-05-02T07:01:49Z</time></trkpt><trkpt lat="41.083429995471874" lon="9.524388191717337"><ele>84.0</ele><time>2026-05-02T07:01:50Z</time></trkpt><trkpt lat="41.08354529443465" lon="9.524544633355498"><ele>84.0</ele><time>2026-05-02T07:01:51Z</time></trkpt><trkpt lat="41.083662923263205" lon="9.524696081265263"><ele>81.0</ele><time>2026-05-02T07:01:52Z</time></trkpt><trkpt lat="41.08378559615162" lon="9.524858744432649"><ele>78.0</ele><time>2026-05-02T07:01:53Z</time></trkpt><trkpt lat="41.08390685535096" lon="9.525019397150079"><ele>75.0</ele><time>2026-05-02T07:01:54Z</time></trkpt><trkpt lat="41.084045696626745" lon="9.525158522797243"><ele>74.66666666666667</ele><time>2026-05-02T07:01:55Z</time></trkpt><trkpt lat="41.084200573166065" lon="9.525248505037593"><ele>74.33333333333334</ele><time>2026-05-02T07:01:56Z</time></trkpt><trkpt lat="41.08436959230913" lon="9.525297952033435"><ele>74.0</ele><time>2026-05-02T07:01:57Z</time></trkpt><trkpt lat="41.08454613881992" lon="9.525335700793233"><ele>74.0</ele><time>2026-05-02T07:01:58Z</time></trkpt><trkpt lat="41.08472854339441" lon="9.525376390024611"><ele>74.0</ele><time>2026-05-02T07:01:59Z</time></trkpt><trkpt lat="41.084911533043254" lon="9.525423870528014"><ele>74.0</ele><time>2026-05-02T07:02:00Z</time></trkpt><trkpt lat="41.085089649763376" lon="9.52547440652939"><ele>72.0</ele><time>2026-05-02T07:02:01Z</time></trkpt><trkpt lat="41.08527259226678" lon="9.525529656253187"><ele>70.0</ele><time>2026-05-02T07:02:02Z</time></trkpt><trkpt lat="41.08544788377984" lon="9.525584633660825"><ele>68.0</ele><time>2026-05-02T07:02:03Z</time></trkpt><trkpt lat="41.08560804533442" lon="9.525641545162133"><ele>68.0</ele><time>2026-05-02T07:02:04Z</time></trkpt><trkpt lat="41.085749636980644" lon="9.525728381105557"><ele>68.0</ele><time>2026-05-02T07:02:05Z</time></trkpt><trkpt lat="41.085883148808016" lon="9.525834947412793"><ele>68.0</ele><time>2026-05-02T07:02:06Z</time></trkpt><trkpt lat="41.0860058420114" lon="9.525970877059354"><ele>66.66666666666667</ele><time>2026-05-02T07:02:07Z</time></trkpt><trkpt lat="41.08610705378907" lon="9.52613243194772"><ele>65.33333333333333</ele><time>2026-05-02T07:02:08Z</time></trkpt><trkpt lat="41.08618140278759" lon="9.526316558132264"><ele>64.0</ele><time>2026-05-02T07:02:09Z</time></trkpt><trkpt lat="41.086262042737616" lon="9.526546162142504"><ele>61.666666666666664</ele><time>2026-05-02T07:02:10Z</time></trkpt><trkpt lat="41.08635136582595" lon="9.52680066720324"><ele>59.33333333333333</ele><time>2026-05-02T07:02:11Z</time></trkpt><trkpt lat="41.086446309956045" lon="9.527072556294879"><ele>57.0</ele><time>2026-05-02T07:02:12Z</time></trkpt><trkpt lat="41.08654246937679" lon="9.527348683044954"><ele>58.0</ele><time>2026-05-02T07:02:13Z</time></trkpt><trkpt lat="41.086634360731374" lon="9.527610455017495"><ele>59.0</ele><time>2026-05-02T07:02:14Z</time></trkpt><trkpt lat="41.08673528720591" lon="9.527860328741507"><ele>60.0</ele><time>2026-05-02T07:02:15Z</time></trkpt><trkpt lat="41.08682652823377" lon="9.528120165114123"><ele>57.33333333333333</ele><time>2026-05-02T07:02:16Z</time></trkpt><trkpt lat="41.08691787182829" lon="9.528375706311483"><ele>54.666666666666664</ele><time>2026-05-02T07:02:17Z</time></trkpt><trkpt lat="41.087019592173895" lon="9.528622256620723"><ele>52.0</ele><time>2026-05-02T07:02:18Z</time></trkpt><trkpt lat="41.08715440055332" lon="9.528842659143233"><ele>51.0</ele><time>2026-05-02T07:02:19Z</time></trkpt><trkpt lat="41.08733376498235" lon="9.529018280637748"><ele>50.0</ele><time>2026-05-02T07:02:20Z</time></trkpt><trkpt lat="41.087532748225435" lon="9.529156701734522"><ele>49.0</ele><time>2026-05-02T07:02:21Z</time></trkpt><trkpt lat="41.08773069465401" lon="9.529280892580479"><ele>49.0</ele><time>2026-05-02T07:02:22Z</time></trkpt><trkpt lat="41.087914296326595" lon="9.529406113155837"><ele>49.0</ele><time>2026-05-02T07:02:23Z</time></trkpt><trkpt lat="41.088100708920884" lon="9.529522178685248"><ele>49.0</ele><time>2026-05-02T07:02:24Z</time></trkpt><trkpt lat="41.088296307294904" lon="9.529615186415283"><ele>44.33333333333333</ele><time>2026-05-02T07:02:25Z</time></trkpt><trkpt lat="41.08850076371805" lon="9.529690791056906"><ele>39.666666666666664</ele><time>2026-05-02T07:02:26Z</time></trkpt><trkpt lat="41.088701633074805" lon="9.529757067076968"><ele>35.0</ele><time>2026-05-02T07:02:27Z</time></trkpt><trkpt lat="41.08890406993567" lon="9.52982249744727"><ele>36.5</ele><time>2026-05-02T07:02:28Z</time></trkpt><trkpt lat="41.08911466597394" lon="9.52989103982032"><ele>38.0</ele><time>2026-05-02T07:02:29Z</time></trkpt><trkpt lat="41.089335122196466" lon="9.529992184577505"><ele>38.0</ele><time>2026-05-02T07:02:30Z</time></trkpt><trkpt lat="41.089581527979085" lon="9.530080417711835"><ele>38.0</ele><time>2026-05-02T07:02:31Z</time></trkpt><trkpt lat="41.08985398595835" lon="9.530178764213668"><ele>37.5</ele><time>2026-05-02T07:02:32Z</time></trkpt><trkpt lat="41.09012330820079" lon="9.530275054541207"><ele>37.0</ele><time>2026-05-02T07:02:33Z</time></trkpt><trkpt lat="41.09036359958841" lon="9.530360800703559"><ele>38.333333333333336</ele><time>2026-05-02T07:02:34Z</time></trkpt><trkpt lat="41.09057387530299" lon="9.530435835984129"><ele>39.666666666666664</ele><time>2026-05-02T07:02:35Z</time></trkpt><trkpt lat="41.09074788721988" lon="9.530497930884437"><ele>41.0</ele><time>2026-05-02T07:02:36Z</time></trkpt><trkpt lat="41.09088017227898" lon="9.53054324399177"><ele>41.83333333333333</ele><time>2026-05-02T07:02:37Z</time></trkpt><trkpt lat="41.09097169911014" lon="9.53058410864379"><ele>42.666666666666664</ele><time>2026-05-02T07:02:38Z</time></trkpt><trkpt lat="41.091033609869285" lon="9.53064667458441"><ele>43.5</ele><time>2026-05-02T07:02:39Z</time></trkpt><trkpt lat="41.09106702983777" lon="9.530719067440247"><ele>44.333333333333336</ele><time>2026-05-02T07:02:40Z</time></trkpt><trkpt lat="41.09113258432917" lon="9.530861844404559"><ele>45.16666666666667</ele><time>2026-05-02T07:02:42Z</time></trkpt><trkpt lat="41.09111010499633" lon="9.530966196127668"><ele>46.0</ele><time>2026-05-02T07:02:44Z</time></trkpt><trkpt lat="41.091242093438446" lon="9.530951630287403"><ele>46.0</ele><time>2026-05-02T07:02:45Z</time></trkpt><trkpt lat="41.09130670136024" lon="9.530974074440854"><ele>46.0</ele><time>2026-05-02T07:02:46Z</time></trkpt><trkpt lat="41.091380787493804" lon="9.531007688560061"><ele>46.0</ele><time>2026-05-02T07:02:47Z</time></trkpt><trkpt lat="41.09151753475674" lon="9.530858372803642"><ele>46.0</ele><time>2026-05-02T07:02:48Z</time></trkpt><trkpt lat="41.09164182841651" lon="9.530789917725146"><ele>46.0</ele><time>2026-05-02T07:02:49Z</time></trkpt><trkpt lat="41.091793989092295" lon="9.530713693434086"><ele>46.0</ele><time>2026-05-02T07:02:50Z</time></trkpt><trkpt lat="41.091945140271406" lon="9.530635140046895"><ele>46.0</ele><time>2026-05-02T07:02:51Z</time></trkpt><trkpt lat="41.0921095849979" lon="9.530552426806695"><ele>46.0</ele><time>2026-05-02T07:02:52Z</time></trkpt><trkpt lat="41.09225957974819" lon="9.530475001804014"><ele>46.0</ele><time>2026-05-02T07:02:53Z</time></trkpt><trkpt lat="41.092409666695666" lon="9.530391361942346"><ele>46.0</ele><time>2026-05-02T07:02:54Z</time></trkpt><trkpt lat="41.09255736818017" lon="9.530309563236326"><ele>45.75</ele><time>2026-05-02T07:02:55Z</time></trkpt><trkpt lat="41.09269924622402" lon="9.530227404511121"><ele>45.5</ele><time>2026-05-02T07:02:56Z</time></trkpt><trkpt lat="41.092834010514785" lon="9.530140624970397"><ele>45.25</ele><time>2026-05-02T07:02:57Z</time></trkpt><trkpt lat="41.09294702305738" lon="9.530029042476674"><ele>45.0</ele><time>2026-05-02T07:02:58Z</time></trkpt><trkpt lat="41.09304545826139" lon="9.529899924522349"><ele>45.0</ele><time>2026-05-02T07:02:59Z</time></trkpt><trkpt lat="41.093114284003796" lon="9.529761014608082"><ele>45.0</ele><time>2026-05-02T07:03:00Z</time></trkpt><trkpt lat="41.093143936111034" lon="9.529615962838312"><ele>45.0</ele><time>2026-05-02T07:03:01Z</time></trkpt><trkpt lat="41.09311587736648" lon="9.52947296645599"><ele>45.0</ele><time>2026-05-02T07:03:02Z</time></trkpt><trkpt lat="41.093048810302584" lon="9.52935317919536"><ele>45.2</ele><time>2026-05-02T07:03:03Z</time></trkpt><trkpt lat="41.09301281573244" lon="9.529232998504275"><ele>45.4</ele><time>2026-05-02T07:03:04Z</time></trkpt><trkpt lat="41.09305300036407" lon="9.529102066763071"><ele>45.599999999999994</ele><time>2026-05-02T07:03:05Z</time></trkpt><trkpt lat="41.09314108130068" lon="9.52902482590854"><ele>45.8</ele><time>2026-05-02T07:03:06Z</time></trkpt><trkpt lat="41.093250025791654" lon="9.529031158466402"><ele>46.0</ele><time>2026-05-02T07:03:07Z</time></trkpt><trkpt lat="41.0933336893523" lon="9.5291096279809"><ele>48.5</ele><time>2026-05-02T07:03:08Z</time></trkpt><trkpt lat="41.093334597156414" lon="9.529269748914464"><ele>51.0</ele><time>2026-05-02T07:03:09Z</time></trkpt><trkpt lat="41.093389443676635" lon="9.529437252666808"><ele>53.5</ele><time>2026-05-02T07:03:10Z</time></trkpt><trkpt lat="41.09348295029468" lon="9.529578370305805"><ele>56.0</ele><time>2026-05-02T07:03:11Z</time></trkpt><trkpt lat="41.093581542065444" lon="9.529710026437035"><ele>56.0</ele><time>2026-05-02T07:03:12Z</time></trkpt><trkpt lat="41.0936820316111" lon="9.529818345516256"><ele>56.0</ele><time>2026-05-02T07:03:13Z</time></trkpt><trkpt lat="41.09381288380133" lon="9.529890321148143"><ele>56.0</ele><time>2026-05-02T07:03:14Z</time></trkpt><trkpt lat="41.093958581969154" lon="9.52991189143476"><ele>56.0</ele><time>2026-05-02T07:03:15Z</time></trkpt><trkpt lat="41.09409830977653" lon="9.52989924601452"><ele>58.75</ele><time>2026-05-02T07:03:16Z</time></trkpt><trkpt lat="41.09423281635603" lon="9.529869524203928"><ele>61.5</ele><time>2026-05-02T07:03:17Z</time></trkpt><trkpt lat="41.0943583462089" lon="9.529798487929254"><ele>64.25</ele><time>2026-05-02T07:03:18Z</time></trkpt><trkpt lat="41.09445945624048" lon="9.52965988897711"><ele>67.0</ele><time>2026-05-02T07:03:19Z</time></trkpt><trkpt lat="41.09452890202079" lon="9.529512146845464"><ele>68.25</ele><time>2026-05-02T07:03:20Z</time></trkpt><trkpt lat="41.09455845845792" lon="9.52937312762835"><ele>69.5</ele><time>2026-05-02T07:03:21Z</time></trkpt><trkpt lat="41.09452992418723" lon="9.52923389113959"><ele>70.75</ele><time>2026-05-02T07:03:22Z</time></trkpt><trkpt lat="41.094444894121416" lon="9.529125686423711"><ele>72.0</ele><time>2026-05-02T07:03:23Z</time></trkpt><trkpt lat="41.09432810637677" lon="9.529093139166253"><ele>72.0</ele><time>2026-05-02T07:03:24Z</time></trkpt><trkpt lat="41.09425314676408" lon="9.529040892240173"><ele>72.0</ele><time>2026-05-02T07:03:25Z</time></trkpt><trkpt lat="41.094251694043685" lon="9.528707272996852"><ele>72.0</ele><time>2026-05-02T07:03:28Z</time></trkpt><trkpt lat="41.09434003244382" lon="9.52863201249398"><ele>72.0</ele><time>2026-05-02T07:03:29Z</time></trkpt><trkpt lat="41.09444110625264" lon="9.5286469584517"><ele>72.0</ele><time>2026-05-02T07:03:30Z</time></trkpt><trkpt lat="41.094537657767525" lon="9.528739227263067"><ele>72.0</ele><time>2026-05-02T07:03:31Z</time></trkpt><trkpt lat="41.09455100593204" lon="9.528903849628705"><ele>72.0</ele><time>2026-05-02T07:03:32Z</time></trkpt><trkpt lat="41.0945914438432" lon="9.52900243711435"><ele>72.0</ele><time>2026-05-02T07:03:33Z</time></trkpt><trkpt lat="41.09463666644079" lon="9.529071428895596"><ele>72.0</ele><time>2026-05-02T07:03:34Z</time></trkpt><trkpt lat="41.094710804537534" lon="9.529125330636978"><ele>72.0</ele><time>2026-05-02T07:03:35Z</time></trkpt><trkpt lat="41.09479817733219" lon="9.52913318956966"><ele>72.0</ele><time>2026-05-02T07:03:36Z</time></trkpt><trkpt lat="41.094890623839085" lon="9.529088209066396"><ele>72.0</ele><time>2026-05-02T07:03:37Z</time></trkpt><trkpt lat="41.09494842869431" lon="9.52900424250733"><ele>72.0</ele><time>2026-05-02T07:03:38Z</time></trkpt><trkpt lat="41.09501513932387" lon="9.528914335791917"><ele>72.0</ele><time>2026-05-02T07:03:39Z</time></trkpt><trkpt lat="41.09508693346785" lon="9.52883123417179"><ele>74.2</ele><time>2026-05-02T07:03:40Z</time></trkpt><trkpt lat="41.095158338347964" lon="9.528757034536241"><ele>76.4</ele><time>2026-05-02T07:03:41Z</time></trkpt><trkpt lat="41.09523596715294" lon="9.528703984164672"><ele>78.60000000000001</ele><time>2026-05-02T07:03:42Z</time></trkpt><trkpt lat="41.09532771079563" lon="9.528675136949248"><ele>80.80000000000001</ele><time>2026-05-02T07:03:43Z</time></trkpt><trkpt lat="41.09543442019068" lon="9.528668310120697"><ele>83.0</ele><time>2026-05-02T07:03:44Z</time></trkpt><trkpt lat="41.09554300116129" lon="9.528676046428899"><ele>83.60000000000001</ele><time>2026-05-02T07:03:45Z</time></trkpt><trkpt lat="41.09563982965951" lon="9.528687515100469"><ele>84.2</ele><time>2026-05-02T07:03:46Z</time></trkpt><trkpt lat="41.095742329691554" lon="9.528690585178355"><ele>84.8</ele><time>2026-05-02T07:03:47Z</time></trkpt><trkpt lat="41.09584046967463" lon="9.528660566704243"><ele>85.4</ele><time>2026-05-02T07:03:48Z</time></trkpt><trkpt lat="41.09593664432228" lon="9.5286078708957"><ele>86.0</ele><time>2026-05-02T07:03:49Z</time></trkpt><trkpt lat="41.0960154036518" lon="9.528525783332116"><ele>88.5</ele><time>2026-05-02T07:03:50Z</time></trkpt><trkpt lat="41.09606387210564" lon="9.528382611553454"><ele>91.0</ele><time>2026-05-02T07:03:51Z</time></trkpt><trkpt lat="41.09611231913463" lon="9.528245357735965"><ele>93.5</ele><time>2026-05-02T07:03:52Z</time></trkpt><trkpt lat="41.096157193418684" lon="9.528083455607081"><ele>96.0</ele><time>2026-05-02T07:03:53Z</time></trkpt><trkpt lat="41.096218024071334" lon="9.527916517050311"><ele>97.75</ele><time>2026-05-02T07:03:54Z</time></trkpt><trkpt lat="41.096287554581544" lon="9.52773533209869"><ele>99.5</ele><time>2026-05-02T07:03:55Z</time></trkpt><trkpt lat="41.09634551610484" lon="9.527554301708188"><ele>101.25</ele><time>2026-05-02T07:03:56Z</time></trkpt><trkpt lat="41.09640189539148" lon="9.527390251539822"><ele>103.0</ele><time>2026-05-02T07:03:57Z</time></trkpt><trkpt lat="41.096461214596204" lon="9.527236429062388"><ele>103.0</ele><time>2026-05-02T07:03:58Z</time></trkpt><trkpt lat="41.096554526377616" lon="9.52710990893252"><ele>103.0</ele><time>2026-05-02T07:03:59Z</time></trkpt><trkpt lat="41.09665368692107" lon="9.527003549496584"><ele>103.0</ele><time>2026-05-02T07:04:00Z</time></trkpt><trkpt lat="41.09677699419703" lon="9.526917106245412"><ele>103.0</ele><time>2026-05-02T07:04:01Z</time></trkpt><trkpt lat="41.09692859729078" lon="9.52682358425689"><ele>105.66666666666667</ele><time>2026-05-02T07:04:02Z</time></trkpt><trkpt lat="41.09708559998733" lon="9.526727084066302"><ele>108.33333333333334</ele><time>2026-05-02T07:04:03Z</time></trkpt><trkpt lat="41.09723159192766" lon="9.52661855409036"><ele>111.0</ele><time>2026-05-02T07:04:04Z</time></trkpt><trkpt lat="41.097386573966766" lon="9.526541378057699"><ele>113.66666666666666</ele><time>2026-05-02T07:04:05Z</time></trkpt><trkpt lat="41.09753689632256" lon="9.526446587748728"><ele>116.33333333333333</ele><time>2026-05-02T07:04:06Z</time></trkpt><trkpt lat="41.09767351138005" lon="9.52632925562183"><ele>119.0</ele><time>2026-05-02T07:04:07Z</time></trkpt><trkpt lat="41.09778312298052" lon="9.526193658480814"><ele>119.0</ele><time>2026-05-02T07:04:08Z</time></trkpt><trkpt lat="41.0978758713588" lon="9.526038959461175"><ele>119.0</ele><time>2026-05-02T07:04:09Z</time></trkpt><trkpt lat="41.097963613606524" lon="9.525866514238423"><ele>119.0</ele><time>2026-05-02T07:04:10Z</time></trkpt><trkpt lat="41.09804655538046" lon="9.525686784994305"><ele>119.0</ele><time>2026-05-02T07:04:11Z</time></trkpt><trkpt lat="41.098122855541895" lon="9.52549593225329"><ele>119.0</ele><time>2026-05-02T07:04:12Z</time></trkpt><trkpt lat="41.098190318913865" lon="9.525288826903482"><ele>119.0</ele><time>2026-05-02T07:04:13Z</time></trkpt><trkpt lat="41.09825968418508" lon="9.525076918022526"><ele>118.33333333333333</ele><time>2026-05-02T07:04:14Z</time></trkpt><trkpt lat="41.098338667489394" lon="9.524862463315278"><ele>117.66666666666666</ele><time>2026-05-02T07:04:15Z</time></trkpt><trkpt lat="41.098435053204255" lon="9.52465504338163"><ele>117.0</ele><time>2026-05-02T07:04:16Z</time></trkpt><trkpt lat="41.09854276580367" lon="9.524458631140961"><ele>116.0</ele><time>2026-05-02T07:04:17Z</time></trkpt><trkpt lat="41.098653114990924" lon="9.524261443664622"><ele>115.0</ele><time>2026-05-02T07:04:18Z</time></trkpt><trkpt lat="41.098751113579915" lon="9.524088672368578"><ele>114.0</ele><time>2026-05-02T07:04:19Z</time></trkpt><trkpt lat="41.098850580563735" lon="9.523917902477102"><ele>114.0</ele><time>2026-05-02T07:04:20Z</time></trkpt><trkpt lat="41.09894035184273" lon="9.52375746841904"><ele>114.0</ele><time>2026-05-02T07:04:21Z</time></trkpt><trkpt lat="41.099029101544225" lon="9.523593713915776"><ele>114.0</ele><time>2026-05-02T07:04:22Z</time></trkpt><trkpt lat="41.09910841479544" lon="9.523448547771332"><ele>114.0</ele><time>2026-05-02T07:04:23Z</time></trkpt><trkpt lat="41.09918952647729" lon="9.523302461665192"><ele>112.5</ele><time>2026-05-02T07:04:24Z</time></trkpt><trkpt lat="41.09926778148981" lon="9.523163582808927"><ele>111.0</ele><time>2026-05-02T07:04:25Z</time></trkpt><trkpt lat="41.099344918814786" lon="9.523034991534725"><ele>109.5</ele><time>2026-05-02T07:04:26Z</time></trkpt><trkpt lat="41.09942501598118" lon="9.522914635820642"><ele>108.0</ele><time>2026-05-02T07:04:27Z</time></trkpt><trkpt lat="41.09950576103972" lon="9.522794166000969"><ele>107.75</ele><time>2026-05-02T07:04:28Z</time></trkpt><trkpt lat="41.0995938553077" lon="9.522683482470025"><ele>107.5</ele><time>2026-05-02T07:04:29Z</time></trkpt><trkpt lat="41.09968192384655" lon="9.522577277538362"><ele>107.25</ele><time>2026-05-02T07:04:30Z</time></trkpt><trkpt lat="41.09977075301386" lon="9.522485909263892"><ele>107.0</ele><time>2026-05-02T07:04:31Z</time></trkpt><trkpt lat="41.0998537812605" lon="9.522406281715835"><ele>107.19999999999999</ele><time>2026-05-02T07:04:32Z</time></trkpt><trkpt lat="41.09994019987474" lon="9.522359226323072"><ele>107.39999999999999</ele><time>2026-05-02T07:04:33Z</time></trkpt><trkpt lat="41.10004095525063" lon="9.522343655377409"><ele>107.60000000000001</ele><time>2026-05-02T07:04:34Z</time></trkpt><trkpt lat="41.100146631762975" lon="9.522382230289939"><ele>107.80000000000001</ele><time>2026-05-02T07:04:35Z</time></trkpt><trkpt lat="41.10024428824318" lon="9.522453046494247"><ele>108.0</ele><time>2026-05-02T07:04:36Z</time></trkpt><trkpt lat="41.10034498849388" lon="9.522556002295309"><ele>108.0</ele><time>2026-05-02T07:04:37Z</time></trkpt><trkpt lat="41.10042030120523" lon="9.522702514227221"><ele>108.0</ele><time>2026-05-02T07:04:38Z</time></trkpt><trkpt lat="41.10048742207089" lon="9.522869737804882"><ele>108.0</ele><time>2026-05-02T07:04:39Z</time></trkpt><trkpt lat="41.10056394482675" lon="9.52303384090422"><ele>108.0</ele><time>2026-05-02T07:04:40Z</time></trkpt><trkpt lat="41.10063781152964" lon="9.523193868143515"><ele>108.0</ele><time>2026-05-02T07:04:41Z</time></trkpt><trkpt lat="41.10070990807756" lon="9.523339239003075"><ele>108.0</ele><time>2026-05-02T07:04:42Z</time></trkpt><trkpt lat="41.10078226615782" lon="9.523487184601166"><ele>108.0</ele><time>2026-05-02T07:04:43Z</time></trkpt><trkpt lat="41.10086795778405" lon="9.52365374531826"><ele>108.0</ele><time>2026-05-02T07:04:44Z</time></trkpt><trkpt lat="41.100957344876605" lon="9.523833240843501"><ele>107.5</ele><time>2026-05-02T07:04:45Z</time></trkpt><trkpt lat="41.1010459427993" lon="9.523998190227983"><ele>107.0</ele><time>2026-05-02T07:04:46Z</time></trkpt><trkpt lat="41.10114707453166" lon="9.52415537683128"><ele>106.5</ele><time>2026-05-02T07:04:47Z</time></trkpt><trkpt lat="41.10123664859665" lon="9.524298302224304"><ele>106.0</ele><time>2026-05-02T07:04:48Z</time></trkpt><trkpt lat="41.10131702221871" lon="9.524426198135755"><ele>106.0</ele><time>2026-05-02T07:04:49Z</time></trkpt><trkpt lat="41.101388753936526" lon="9.52454299905016"><ele>106.0</ele><time>2026-05-02T07:04:50Z</time></trkpt><trkpt lat="41.1014515772887" lon="9.524653751792874"><ele>106.0</ele><time>2026-05-02T07:04:51Z</time></trkpt><trkpt lat="41.101522896140025" lon="9.52476411350546"><ele>106.0</ele><time>2026-05-02T07:04:52Z</time></trkpt><trkpt lat="41.10159500269849" lon="9.524874855431278"><ele>106.0</ele><time>2026-05-02T07:04:53Z</time></trkpt><trkpt lat="41.101671015281056" lon="9.52498743772791"><ele>104.5</ele><time>2026-05-02T07:04:54Z</time></trkpt><trkpt lat="41.10175108762243" lon="9.525111099759357"><ele>103.0</ele><time>2026-05-02T07:04:55Z</time></trkpt><trkpt lat="41.10183587014783" lon="9.525251085486163"><ele>101.5</ele><time>2026-05-02T07:04:56Z</time></trkpt><trkpt lat="41.10192667904542" lon="9.525384181584647"><ele>100.0</ele><time>2026-05-02T07:04:57Z</time></trkpt><trkpt lat="41.102012773016206" lon="9.525526942879589"><ele>100.0</ele><time>2026-05-02T07:04:58Z</time></trkpt><trkpt lat="41.10210893937966" lon="9.525675862183512"><ele>100.0</ele><time>2026-05-02T07:04:59Z</time></trkpt><trkpt lat="41.10220743437976" lon="9.525819972665216"><ele>100.0</ele><time>2026-05-02T07:05:00Z</time></trkpt><trkpt lat="41.10230681221408" lon="9.525974124708899"><ele>100.0</ele><time>2026-05-02T07:05:01Z</time></trkpt><trkpt lat="41.10240399515458" lon="9.52612460962385"><ele>94.66666666666667</ele><time>2026-05-02T07:05:02Z</time></trkpt><trkpt lat="41.102503467931086" lon="9.526281725450136"><ele>89.33333333333334</ele><time>2026-05-02T07:05:03Z</time></trkpt><trkpt lat="41.102607130865806" lon="9.52644386720785"><ele>84.0</ele><time>2026-05-02T07:05:04Z</time></trkpt><trkpt lat="41.102718722121246" lon="9.526609513576247"><ele>84.0</ele><time>2026-05-02T07:05:05Z</time></trkpt><trkpt lat="41.102841313156986" lon="9.526766884713954"><ele>84.0</ele><time>2026-05-02T07:05:06Z</time></trkpt><trkpt lat="41.10298121741783" lon="9.526905426106673"><ele>84.0</ele><time>2026-05-02T07:05:07Z</time></trkpt><trkpt lat="41.103131887915694" lon="9.527032626999105"><ele>80.0</ele><time>2026-05-02T07:05:08Z</time></trkpt><trkpt lat="41.10329944672911" lon="9.527159809439592"><ele>76.0</ele><time>2026-05-02T07:05:09Z</time></trkpt><trkpt lat="41.10345852309891" lon="9.5272872982974"><ele>72.0</ele><time>2026-05-02T07:05:10Z</time></trkpt><trkpt lat="41.10361538540585" lon="9.527427509626524"><ele>72.0</ele><time>2026-05-02T07:05:11Z</time></trkpt><trkpt lat="41.103766822058134" lon="9.527558679557586"><ele>72.0</ele><time>2026-05-02T07:05:12Z</time></trkpt><trkpt lat="41.10391413446815" lon="9.527679134958507"><ele>72.0</ele><time>2026-05-02T07:05:13Z</time></trkpt><trkpt lat="41.10405934400062" lon="9.527801290589887"><ele>67.0</ele><time>2026-05-02T07:05:14Z</time></trkpt><trkpt lat="41.10419471151635" lon="9.527925099352078"><ele>62.0</ele><time>2026-05-02T07:05:15Z</time></trkpt><trkpt lat="41.10432673842622" lon="9.528069500234603"><ele>57.0</ele><time>2026-05-02T07:05:16Z</time></trkpt><trkpt lat="41.10445448112741" lon="9.528239946809395"><ele>57.0</ele><time>2026-05-02T07:05:17Z</time></trkpt><trkpt lat="41.10457005002567" lon="9.528433490201097"><ele>57.0</ele><time>2026-05-02T07:05:18Z</time></trkpt><trkpt lat="41.10468756673284" lon="9.528637035091005"><ele>57.0</ele><time>2026-05-02T07:05:19Z</time></trkpt><trkpt lat="41.10480207204334" lon="9.528834685168821"><ele>54.33333333333333</ele><time>2026-05-02T07:05:20Z</time></trkpt><trkpt lat="41.104915022944354" lon="9.529041025356891"><ele>51.666666666666664</ele><time>2026-05-02T07:05:21Z</time></trkpt><trkpt lat="41.105032885766995" lon="9.529220456005389"><ele>49.0</ele><time>2026-05-02T07:05:22Z</time></trkpt><trkpt lat="41.10515092131487" lon="9.529405699432733"><ele>47.33333333333333</ele><time>2026-05-02T07:05:23Z</time></trkpt><trkpt lat="41.105270093200446" lon="9.52959478875126"><ele>45.666666666666664</ele><time>2026-05-02T07:05:24Z</time></trkpt><trkpt lat="41.10538941291475" lon="9.529789262356783"><ele>44.0</ele><time>2026-05-02T07:05:25Z</time></trkpt><trkpt lat="41.105519705030744" lon="9.52998362944302"><ele>44.0</ele><time>2026-05-02T07:05:26Z</time></trkpt><trkpt lat="41.1056473572666" lon="9.530183693317122"><ele>44.0</ele><time>2026-05-02T07:05:27Z</time></trkpt><trkpt lat="41.10577550208863" lon="9.530371206169796"><ele>44.0</ele><time>2026-05-02T07:05:28Z</time></trkpt><trkpt lat="41.10591873332212" lon="9.530543293801882"><ele>42.0</ele><time>2026-05-02T07:05:29Z</time></trkpt><trkpt lat="41.10607404834126" lon="9.530705909368127"><ele>40.0</ele><time>2026-05-02T07:05:30Z</time></trkpt><trkpt lat="41.10623087433543" lon="9.530871535757152"><ele>38.0</ele><time>2026-05-02T07:05:31Z</time></trkpt><trkpt lat="41.10638590545122" lon="9.531042924446426"><ele>38.0</ele><time>2026-05-02T07:05:32Z</time></trkpt><trkpt lat="41.106541298175074" lon="9.531211236626664"><ele>38.0</ele><time>2026-05-02T07:05:33Z</time></trkpt><trkpt lat="41.106695905101375" lon="9.531378857236755"><ele>38.0</ele><time>2026-05-02T07:05:34Z</time></trkpt><trkpt lat="41.106850140617105" lon="9.53154242074438"><ele>37.0</ele><time>2026-05-02T07:05:35Z</time></trkpt><trkpt lat="41.10701870088562" lon="9.531701825880763"><ele>36.0</ele><time>2026-05-02T07:05:36Z</time></trkpt><trkpt lat="41.10718786162516" lon="9.531862705855119"><ele>35.0</ele><time>2026-05-02T07:05:37Z</time></trkpt><trkpt lat="41.107346190799085" lon="9.532006075569809"><ele>33.33333333333333</ele><time>2026-05-02T07:05:38Z</time></trkpt><trkpt lat="41.10747347447972" lon="9.532165497876948"><ele>31.666666666666664</ele><time>2026-05-02T07:05:39Z</time></trkpt><trkpt lat="41.10763054435785" lon="9.532293332941853"><ele>30.0</ele><time>2026-05-02T07:05:40Z</time></trkpt><trkpt lat="41.107782593737745" lon="9.532397870999247"><ele>30.0</ele><time>2026-05-02T07:05:41Z</time></trkpt><trkpt lat="41.10793023727962" lon="9.532526626891187"><ele>30.0</ele><time>2026-05-02T07:05:42Z</time></trkpt><trkpt lat="41.108071170066275" lon="9.532662131161464"><ele>30.0</ele><time>2026-05-02T07:05:43Z</time></trkpt><trkpt lat="41.108212086418135" lon="9.53279749013494"><ele>27.666666666666668</ele><time>2026-05-02T07:05:44Z</time></trkpt><trkpt lat="41.10835130806125" lon="9.532938582535564"><ele>25.333333333333336</ele><time>2026-05-02T07:05:45Z</time></trkpt><trkpt lat="41.108485719090496" lon="9.533085124665876"><ele>23.0</ele><time>2026-05-02T07:05:46Z</time></trkpt><trkpt lat="41.10862853862732" lon="9.53322867550685"><ele>23.0</ele><time>2026-05-02T07:05:47Z</time></trkpt><trkpt lat="41.10876929955878" lon="9.53335269785598"><ele>23.0</ele><time>2026-05-02T07:05:48Z</time></trkpt><trkpt lat="41.108904520002426" lon="9.533462519466173"><ele>23.0</ele><time>2026-05-02T07:05:49Z</time></trkpt><trkpt lat="41.10903923355368" lon="9.533554880965498"><ele>22.666666666666668</ele><time>2026-05-02T07:05:50Z</time></trkpt><trkpt lat="41.10916873850263" lon="9.533638165606833"><ele>22.333333333333332</ele><time>2026-05-02T07:05:51Z</time></trkpt><trkpt lat="41.10930031611004" lon="9.533751780049034"><ele>22.0</ele><time>2026-05-02T07:05:52Z</time></trkpt><trkpt lat="41.109463870669394" lon="9.53386714597144"><ele>22.0</ele><time>2026-05-02T07:05:53Z</time></trkpt><trkpt lat="41.109634224270586" lon="9.533986958178959"><ele>22.0</ele><time>2026-05-02T07:05:54Z</time></trkpt><trkpt lat="41.109794845921314" lon="9.534099753779149"><ele>22.0</ele><time>2026-05-02T07:05:55Z</time></trkpt><trkpt lat="41.10995194036934" lon="9.534203009403731"><ele>20.333333333333332</ele><time>2026-05-02T07:05:56Z</time></trkpt><trkpt lat="41.110121102090794" lon="9.53427441715063"><ele>18.666666666666668</ele><time>2026-05-02T07:05:57Z</time></trkpt><trkpt lat="41.110298853997705" lon="9.534322236898435"><ele>17.0</ele><time>2026-05-02T07:05:58Z</time></trkpt><trkpt lat="41.11050125313944" lon="9.534332559388318"><ele>17.0</ele><time>2026-05-02T07:05:59Z</time></trkpt><trkpt lat="41.11072884210762" lon="9.534330690820353"><ele>17.0</ele><time>2026-05-02T07:06:00Z</time></trkpt><trkpt lat="41.11094528937629" lon="9.534329105515809"><ele>17.0</ele><time>2026-05-02T07:06:01Z</time></trkpt><trkpt lat="41.111158859683506" lon="9.53428197290576"><ele>18.666666666666668</ele><time>2026-05-02T07:06:02Z</time></trkpt><trkpt lat="41.11137013315944" lon="9.534182278287261"><ele>20.333333333333332</ele><time>2026-05-02T07:06:03Z</time></trkpt><trkpt lat="41.11157434548473" lon="9.534079771797867"><ele>22.0</ele><time>2026-05-02T07:06:04Z</time></trkpt><trkpt lat="41.111774409499425" lon="9.534032028507854"><ele>24.0</ele><time>2026-05-02T07:06:05Z</time></trkpt><trkpt lat="41.11197207879754" lon="9.534055146874678"><ele>26.0</ele><time>2026-05-02T07:06:06Z</time></trkpt><trkpt lat="41.112152585349456" lon="9.534134799656726"><ele>28.0</ele><time>2026-05-02T07:06:07Z</time></trkpt><trkpt lat="41.11234170290159" lon="9.534240749088594"><ele>30.5</ele><time>2026-05-02T07:06:08Z</time></trkpt><trkpt lat="41.11255688847295" lon="9.534359824836823"><ele>33.0</ele><time>2026-05-02T07:06:09Z</time></trkpt><trkpt lat="41.112780377186205" lon="9.534473707611523"><ele>27.0</ele><time>2026-05-02T07:06:10Z</time></trkpt><trkpt lat="41.113000887900924" lon="9.53459231838694"><ele>21.0</ele><time>2026-05-02T07:06:11Z</time></trkpt><trkpt lat="41.113212913858725" lon="9.53472148050586"><ele>24.333333333333336</ele><time>2026-05-02T07:06:12Z</time></trkpt><trkpt lat="41.11343358490659" lon="9.534814667238866"><ele>27.666666666666668</ele><time>2026-05-02T07:06:13Z</time></trkpt><trkpt lat="41.113628292472114" lon="9.534925033592634"><ele>31.0</ele><time>2026-05-02T07:06:14Z</time></trkpt><trkpt lat="41.11381046953689" lon="9.535029877442097"><ele>31.0</ele><time>2026-05-02T07:06:15Z</time></trkpt><trkpt lat="41.11399391632999" lon="9.535126945707981"><ele>31.0</ele><time>2026-05-02T07:06:16Z</time></trkpt><trkpt lat="41.11417159895937" lon="9.535221311537484"><ele>31.0</ele><time>2026-05-02T07:06:17Z</time></trkpt><trkpt lat="41.114349045782966" lon="9.535302273780436"><ele>34.66666666666667</ele><time>2026-05-02T07:06:18Z</time></trkpt><trkpt lat="41.1145264234768" lon="9.53535551354697"><ele>38.333333333333336</ele><time>2026-05-02T07:06:19Z</time></trkpt><trkpt lat="41.11470700840816" lon="9.5353884922045"><ele>42.0</ele><time>2026-05-02T07:06:20Z</time></trkpt><trkpt lat="41.11489083169652" lon="9.535407871473792"><ele>40.0</ele><time>2026-05-02T07:06:21Z</time></trkpt><trkpt lat="41.115080393090906" lon="9.535427713563251"><ele>38.0</ele><time>2026-05-02T07:06:22Z</time></trkpt><trkpt lat="41.11526210108611" lon="9.535447153770475"><ele>36.0</ele><time>2026-05-02T07:06:23Z</time></trkpt><trkpt lat="41.11544324195618" lon="9.535468693184649"><ele>36.0</ele><time>2026-05-02T07:06:24Z</time></trkpt><trkpt lat="41.11563623031497" lon="9.53549420959308"><ele>36.0</ele><time>2026-05-02T07:06:25Z</time></trkpt><trkpt lat="41.11582986770144" lon="9.53553771019641"><ele>36.0</ele><time>2026-05-02T07:06:26Z</time></trkpt><trkpt lat="41.116041798537466" lon="9.535525498789648"><ele>30.5</ele><time>2026-05-02T07:06:27Z</time></trkpt><trkpt lat="41.11626886328934" lon="9.535555030812"><ele>25.0</ele><time>2026-05-02T07:06:28Z</time></trkpt><trkpt lat="41.116507093897134" lon="9.53560212318803"><ele>23.666666666666668</ele><time>2026-05-02T07:06:29Z</time></trkpt><trkpt lat="41.116736859286775" lon="9.535644394538703"><ele>22.333333333333336</ele><time>2026-05-02T07:06:30Z</time></trkpt><trkpt lat="41.11694614616667" lon="9.535673571286797"><ele>21.0</ele><time>2026-05-02T07:06:31Z</time></trkpt><trkpt lat="41.117146597701996" lon="9.535697250435934"><ele>21.0</ele><time>2026-05-02T07:06:32Z</time></trkpt><trkpt lat="41.11734887023057" lon="9.535693567836953"><ele>21.0</ele><time>2026-05-02T07:06:33Z</time></trkpt><trkpt lat="41.11755224955626" lon="9.535647561720467"><ele>21.0</ele><time>2026-05-02T07:06:34Z</time></trkpt><trkpt lat="41.117741461903435" lon="9.535549038072308"><ele>21.666666666666668</ele><time>2026-05-02T07:06:35Z</time></trkpt><trkpt lat="41.11792681607415" lon="9.535407596084662"><ele>22.333333333333336</ele><time>2026-05-02T07:06:36Z</time></trkpt><trkpt lat="41.118110593837514" lon="9.535245514978573"><ele>23.0</ele><time>2026-05-02T07:06:37Z</time></trkpt><trkpt lat="41.11829883045322" lon="9.53510716613098"><ele>25.333333333333336</ele><time>2026-05-02T07:06:38Z</time></trkpt><trkpt lat="41.118483498461046" lon="9.534944304863323"><ele>27.666666666666668</ele><time>2026-05-02T07:06:39Z</time></trkpt><trkpt lat="41.11866686282727" lon="9.534811733506842"><ele>30.0</ele><time>2026-05-02T07:06:40Z</time></trkpt><trkpt lat="41.1188492572449" lon="9.534702203177762"><ele>30.0</ele><time>2026-05-02T07:06:41Z</time></trkpt><trkpt lat="41.11904181989311" lon="9.534643684542365"><ele>30.0</ele><time>2026-05-02T07:06:42Z</time></trkpt><trkpt lat="41.11924375420779" lon="9.53464279486661"><ele>30.0</ele><time>2026-05-02T07:06:43Z</time></trkpt><trkpt lat="41.11944199158999" lon="9.534714570058735"><ele>29.333333333333336</ele><time>2026-05-02T07:06:44Z</time></trkpt><trkpt lat="41.11961759237528" lon="9.534846099171784"><ele>28.666666666666668</ele><time>2026-05-02T07:06:45Z</time></trkpt><trkpt lat="41.119838137503386" lon="9.534902123128296"><ele>28.0</ele><time>2026-05-02T07:06:46Z</time></trkpt><trkpt lat="41.120051604867854" lon="9.53496028525781"><ele>21.0</ele><time>2026-05-02T07:06:47Z</time></trkpt><trkpt lat="41.120247549778526" lon="9.535142700493456"><ele>14.0</ele><time>2026-05-02T07:06:48Z</time></trkpt><trkpt lat="41.12045222187264" lon="9.535244292486093"><ele>14.0</ele><time>2026-05-02T07:06:49Z</time></trkpt><trkpt lat="41.120670406928085" lon="9.535346891732782"><ele>14.0</ele><time>2026-05-02T07:06:50Z</time></trkpt><trkpt lat="41.12087728689153" lon="9.535448952076047"><ele>11.666666666666668</ele><time>2026-05-02T07:06:51Z</time></trkpt><trkpt lat="41.12107811327501" lon="9.535549362102227"><ele>9.333333333333334</ele><time>2026-05-02T07:06:52Z</time></trkpt><trkpt lat="41.12126898912007" lon="9.535646507780045"><ele>7.0</ele><time>2026-05-02T07:06:53Z</time></trkpt><trkpt lat="41.121465170591044" lon="9.535737803656115"><ele>8.666666666666668</ele><time>2026-05-02T07:06:54Z</time></trkpt><trkpt lat="41.121650466690085" lon="9.535830878754151"><ele>10.333333333333334</ele><time>2026-05-02T07:06:55Z</time></trkpt><trkpt lat="41.1218394037344" lon="9.5359137247914"><ele>12.0</ele><time>2026-05-02T07:06:56Z</time></trkpt><trkpt lat="41.122027230931906" lon="9.5359897563145"><ele>12.0</ele><time>2026-05-02T07:06:57Z</time></trkpt><trkpt lat="41.12221573273378" lon="9.536033621072905"><ele>12.0</ele><time>2026-05-02T07:06:58Z</time></trkpt><trkpt lat="41.12240616140345" lon="9.53603954273176"><ele>12.0</ele><time>2026-05-02T07:06:59Z</time></trkpt><trkpt lat="41.12260115260347" lon="9.536003914071358"><ele>12.0</ele><time>2026-05-02T07:07:00Z</time></trkpt><trkpt lat="41.122791829593666" lon="9.535928597875667"><ele>12.0</ele><time>2026-05-02T07:07:01Z</time></trkpt><trkpt lat="41.12297385206654" lon="9.535806658226388"><ele>12.0</ele><time>2026-05-02T07:07:02Z</time></trkpt><trkpt lat="41.12315413520127" lon="9.535664199641356"><ele>11.333333333333334</ele><time>2026-05-02T07:07:03Z</time></trkpt><trkpt lat="41.123343567177464" lon="9.535518981492567"><ele>10.666666666666668</ele><time>2026-05-02T07:07:04Z</time></trkpt><trkpt lat="41.12354354269474" lon="9.53538363772354"><ele>10.0</ele><time>2026-05-02T07:07:05Z</time></trkpt><trkpt lat="41.12374229692181" lon="9.53524044327076"><ele>14.0</ele><time>2026-05-02T07:07:06Z</time></trkpt><trkpt lat="41.12394531169977" lon="9.53509094642246"><ele>18.0</ele><time>2026-05-02T07:07:07Z</time></trkpt><trkpt lat="41.12415002111384" lon="9.534940781080195"><ele>18.0</ele><time>2026-05-02T07:07:08Z</time></trkpt><trkpt lat="41.124362912063965" lon="9.534787450958664"><ele>18.0</ele><time>2026-05-02T07:07:09Z</time></trkpt><trkpt lat="41.12457316399879" lon="9.5346522040135"><ele>19.5</ele><time>2026-05-02T07:07:10Z</time></trkpt><trkpt lat="41.12477538287917" lon="9.53450676588288"><ele>21.0</ele><time>2026-05-02T07:07:11Z</time></trkpt><trkpt lat="41.12496976205501" lon="9.534338250447673"><ele>21.0</ele><time>2026-05-02T07:07:12Z</time></trkpt><trkpt lat="41.12515160177483" lon="9.534142871040014"><ele>21.0</ele><time>2026-05-02T07:07:13Z</time></trkpt><trkpt lat="41.125326198518856" lon="9.533931989736768"><ele>21.0</ele><time>2026-05-02T07:07:14Z</time></trkpt><trkpt lat="41.12549678948545" lon="9.533730868111112"><ele>21.0</ele><time>2026-05-02T07:07:15Z</time></trkpt><trkpt lat="41.125669792962114" lon="9.53353817439178"><ele>23.0</ele><time>2026-05-02T07:07:16Z</time></trkpt><trkpt lat="41.12583043182534" lon="9.53335079875499"><ele>25.0</ele><time>2026-05-02T07:07:17Z</time></trkpt><trkpt lat="41.12598957455122" lon="9.533162622458395"><ele>27.0</ele><time>2026-05-02T07:07:18Z</time></trkpt><trkpt lat="41.12614622488987" lon="9.532977234811145"><ele>30.666666666666664</ele><time>2026-05-02T07:07:19Z</time></trkpt><trkpt lat="41.12630644306161" lon="9.532794457180016"><ele>34.33333333333333</ele><time>2026-05-02T07:07:20Z</time></trkpt><trkpt lat="41.1264685685735" lon="9.532612491766205"><ele>38.0</ele><time>2026-05-02T07:07:21Z</time></trkpt><trkpt lat="41.12663823940364" lon="9.532434584318521"><ele>38.0</ele><time>2026-05-02T07:07:22Z</time></trkpt><trkpt lat="41.12681640755966" lon="9.532260934535097"><ele>38.0</ele><time>2026-05-02T07:07:23Z</time></trkpt><trkpt lat="41.12699969803728" lon="9.532093638244891"><ele>38.0</ele><time>2026-05-02T07:07:24Z</time></trkpt><trkpt lat="41.127185517835926" lon="9.531927523949296"><ele>40.33333333333333</ele><time>2026-05-02T07:07:25Z</time></trkpt><trkpt lat="41.127362083202115" lon="9.531759436557403"><ele>42.666666666666664</ele><time>2026-05-02T07:07:26Z</time></trkpt><trkpt lat="41.127539006247375" lon="9.531585140055522"><ele>45.0</ele><time>2026-05-02T07:07:27Z</time></trkpt><trkpt lat="41.127717454887474" lon="9.531413270766045"><ele>46.5</ele><time>2026-05-02T07:07:28Z</time></trkpt><trkpt lat="41.12789788471419" lon="9.531235306049297"><ele>48.0</ele><time>2026-05-02T07:07:29Z</time></trkpt><trkpt lat="41.12808442510746" lon="9.531057993478182"><ele>43.0</ele><time>2026-05-02T07:07:30Z</time></trkpt><trkpt lat="41.12827582961971" lon="9.530879867499463"><ele>38.0</ele><time>2026-05-02T07:07:31Z</time></trkpt><trkpt lat="41.12846893854007" lon="9.530693546296234"><ele>38.0</ele><time>2026-05-02T07:07:32Z</time></trkpt><trkpt lat="41.12866459333494" lon="9.530512350402013"><ele>38.0</ele><time>2026-05-02T07:07:33Z</time></trkpt><trkpt lat="41.12886399811028" lon="9.530331968266994"><ele>35.0</ele><time>2026-05-02T07:07:34Z</time></trkpt><trkpt lat="41.129078223898496" lon="9.530160842988026"><ele>32.0</ele><time>2026-05-02T07:07:35Z</time></trkpt><trkpt lat="41.129301583515755" lon="9.530001811224063"><ele>32.0</ele><time>2026-05-02T07:07:36Z</time></trkpt><trkpt lat="41.1295197492856" lon="9.529842313012363"><ele>32.0</ele><time>2026-05-02T07:07:37Z</time></trkpt><trkpt lat="41.12974619645466" lon="9.529670611711031"><ele>31.5</ele><time>2026-05-02T07:07:38Z</time></trkpt><trkpt lat="41.12996888057612" lon="9.5294928718026"><ele>31.0</ele><time>2026-05-02T07:07:39Z</time></trkpt><trkpt lat="41.13019523926668" lon="9.529322144545333"><ele>31.0</ele><time>2026-05-02T07:07:40Z</time></trkpt><trkpt lat="41.13042004722768" lon="9.52913638026588"><ele>31.0</ele><time>2026-05-02T07:07:41Z</time></trkpt><trkpt lat="41.130637682598014" lon="9.528944209596624"><ele>30.0</ele><time>2026-05-02T07:07:42Z</time></trkpt><trkpt lat="41.13085183149875" lon="9.52874086813593"><ele>29.0</ele><time>2026-05-02T07:07:43Z</time></trkpt><trkpt lat="41.131060209007856" lon="9.528537821572947"><ele>29.0</ele><time>2026-05-02T07:07:44Z</time></trkpt><trkpt lat="41.1312709081423" lon="9.52833594014613"><ele>29.0</ele><time>2026-05-02T07:07:45Z</time></trkpt><trkpt lat="41.13148652456982" lon="9.52813762369381"><ele>24.0</ele><time>2026-05-02T07:07:46Z</time></trkpt><trkpt lat="41.13169537702946" lon="9.527939823471518"><ele>19.0</ele><time>2026-05-02T07:07:47Z</time></trkpt><trkpt lat="41.13190026796455" lon="9.527739398158886"><ele>19.0</ele><time>2026-05-02T07:07:48Z</time></trkpt><trkpt lat="41.13209793828895" lon="9.527523277047344"><ele>19.0</ele><time>2026-05-02T07:07:49Z</time></trkpt><trkpt lat="41.13228280062145" lon="9.527290296796554"><ele>13.5</ele><time>2026-05-02T07:07:50Z</time></trkpt><trkpt lat="41.13245073413262" lon="9.527043844887903"><ele>8.0</ele><time>2026-05-02T07:07:51Z</time></trkpt><trkpt lat="41.13263596984446" lon="9.526791709839225"><ele>8.0</ele><time>2026-05-02T07:07:52Z</time></trkpt><trkpt lat="41.13280862465261" lon="9.52653808362468"><ele>8.0</ele><time>2026-05-02T07:07:53Z</time></trkpt><trkpt lat="41.13297909229918" lon="9.52627834827961"><ele>9.5</ele><time>2026-05-02T07:07:54Z</time></trkpt><trkpt lat="41.133151856183446" lon="9.52602432774115"><ele>11.0</ele><time>2026-05-02T07:07:55Z</time></trkpt><trkpt lat="41.13331486984371" lon="9.525786159736818"><ele>11.0</ele><time>2026-05-02T07:07:56Z</time></trkpt><trkpt lat="41.1334842937592" lon="9.525556588317041"><ele>11.0</ele><time>2026-05-02T07:07:57Z</time></trkpt><trkpt lat="41.133678015609256" lon="9.525357276005744"><ele>10.333333333333332</ele><time>2026-05-02T07:07:58Z</time></trkpt><trkpt lat="41.13387937646356" lon="9.52519534981593"><ele>9.666666666666666</ele><time>2026-05-02T07:07:59Z</time></trkpt><trkpt lat="41.134067560905216" lon="9.525062834231743"><ele>9.0</ele><time>2026-05-02T07:08:00Z</time></trkpt><trkpt lat="41.13421590660199" lon="9.524927942683705"><ele>9.0</ele><time>2026-05-02T07:08:01Z</time></trkpt><trkpt lat="41.13431730746255" lon="9.524747829176569"><ele>9.0</ele><time>2026-05-02T07:08:02Z</time></trkpt><trkpt lat="41.134372187309594" lon="9.524525557419189"><ele>9.0</ele><time>2026-05-02T07:08:03Z</time></trkpt><trkpt lat="41.134377782523664" lon="9.52428423456422"><ele>8.666666666666666</ele><time>2026-05-02T07:08:04Z</time></trkpt><trkpt lat="41.134330820250135" lon="9.524041625333696"><ele>8.333333333333332</ele><time>2026-05-02T07:08:05Z</time></trkpt><trkpt lat="41.13424129956124" lon="9.523800111736838"><ele>8.0</ele><time>2026-05-02T07:08:06Z</time></trkpt><trkpt lat="41.134129583018776" lon="9.5235527468632"><ele>11.0</ele><time>2026-05-02T07:08:07Z</time></trkpt><trkpt lat="41.13403807244508" lon="9.523303545330437"><ele>14.0</ele><time>2026-05-02T07:08:08Z</time></trkpt><trkpt lat="41.133969339310816" lon="9.523060916466891"><ele>17.0</ele><time>2026-05-02T07:08:09Z</time></trkpt><trkpt lat="41.133943017727255" lon="9.522823789558515"><ele>17.0</ele><time>2026-05-02T07:08:10Z</time></trkpt><trkpt lat="41.13393605019047" lon="9.52259047937092"><ele>17.0</ele><time>2026-05-02T07:08:11Z</time></trkpt><trkpt lat="41.133937951675264" lon="9.522346559283454"><ele>17.0</ele><time>2026-05-02T07:08:12Z</time></trkpt><trkpt lat="41.13395301287871" lon="9.522113207662702"><ele>17.0</ele><time>2026-05-02T07:08:13Z</time></trkpt><trkpt lat="41.13392031473581" lon="9.521906247007225"><ele>17.0</ele><time>2026-05-02T07:08:14Z</time></trkpt><trkpt lat="41.1338344645298" lon="9.521748328375052"><ele>17.0</ele><time>2026-05-02T07:08:15Z</time></trkpt><trkpt lat="41.133745141833266" lon="9.521634763273829"><ele>17.0</ele><time>2026-05-02T07:08:16Z</time></trkpt><trkpt lat="41.13372724989625" lon="9.521523649232494"><ele>17.0</ele><time>2026-05-02T07:08:17Z</time></trkpt><trkpt lat="41.133819227350976" lon="9.521468272646096"><ele>17.0</ele><time>2026-05-02T07:08:18Z</time></trkpt><trkpt lat="41.13388823818114" lon="9.521480168207939"><ele>17.0</ele><time>2026-05-02T07:08:19Z</time></trkpt><trkpt lat="41.13397135427473" lon="9.52158147362297"><ele>17.0</ele><time>2026-05-02T07:08:20Z</time></trkpt><trkpt lat="41.13403516272979" lon="9.521773467302392"><ele>17.0</ele><time>2026-05-02T07:08:21Z</time></trkpt><trkpt lat="41.13414511804412" lon="9.521986620003888"><ele>18.666666666666668</ele><time>2026-05-02T07:08:22Z</time></trkpt><trkpt lat="41.13429483444269" lon="9.522195857376401"><ele>20.333333333333332</ele><time>2026-05-02T07:08:23Z</time></trkpt><trkpt lat="41.13442355545328" lon="9.522401365261139"><ele>22.0</ele><time>2026-05-02T07:08:24Z</time></trkpt><trkpt lat="41.13453711488888" lon="9.522590547911909"><ele>22.0</ele><time>2026-05-02T07:08:25Z</time></trkpt><trkpt lat="41.13464338405015" lon="9.522770123965769"><ele>22.0</ele><time>2026-05-02T07:08:26Z</time></trkpt><trkpt lat="41.13475042802388" lon="9.522939223124578"><ele>22.0</ele><time>2026-05-02T07:08:27Z</time></trkpt><trkpt lat="41.13486128664789" lon="9.52309468650432"><ele>25.333333333333332</ele><time>2026-05-02T07:08:28Z</time></trkpt><trkpt lat="41.13499425007729" lon="9.523227754184333"><ele>28.666666666666664</ele><time>2026-05-02T07:08:29Z</time></trkpt><trkpt lat="41.13516168550924" lon="9.52329955908136"><ele>32.0</ele><time>2026-05-02T07:08:30Z</time></trkpt><trkpt lat="41.135342328520984" lon="9.523305796621917"><ele>32.0</ele><time>2026-05-02T07:08:31Z</time></trkpt><trkpt lat="41.135516907780925" lon="9.523257450792437"><ele>32.0</ele><time>2026-05-02T07:08:32Z</time></trkpt><trkpt lat="41.13567611394852" lon="9.523149188357273"><ele>32.0</ele><time>2026-05-02T07:08:33Z</time></trkpt><trkpt lat="41.135824045475104" lon="9.522993132213642"><ele>35.33333333333333</ele><time>2026-05-02T07:08:34Z</time></trkpt><trkpt lat="41.13594638211563" lon="9.522801404528385"><ele>38.666666666666664</ele><time>2026-05-02T07:08:35Z</time></trkpt><trkpt lat="41.136095773959184" lon="9.522624370857105"><ele>42.0</ele><time>2026-05-02T07:08:36Z</time></trkpt><trkpt lat="41.13620578367533" lon="9.52242240795804"><ele>42.0</ele><time>2026-05-02T07:08:37Z</time></trkpt><trkpt lat="41.136331617583046" lon="9.522238078891345"><ele>42.0</ele><time>2026-05-02T07:08:38Z</time></trkpt><trkpt lat="41.13645110805706" lon="9.522068420426617"><ele>42.0</ele><time>2026-05-02T07:08:39Z</time></trkpt><trkpt lat="41.136562850211206" lon="9.521900255422873"><ele>42.333333333333336</ele><time>2026-05-02T07:08:40Z</time></trkpt><trkpt lat="41.13667957464378" lon="9.521733516690475"><ele>42.66666666666667</ele><time>2026-05-02T07:08:41Z</time></trkpt><trkpt lat="41.136777113221534" lon="9.521549591860673"><ele>43.0</ele><time>2026-05-02T07:08:42Z</time></trkpt><trkpt lat="41.13682152514381" lon="9.521314381662998"><ele>45.333333333333336</ele><time>2026-05-02T07:08:43Z</time></trkpt><trkpt lat="41.13681032347953" lon="9.521070403294884"><ele>47.66666666666667</ele><time>2026-05-02T07:08:44Z</time></trkpt><trkpt lat="41.1367441790317" lon="9.520837222188693"><ele>50.0</ele><time>2026-05-02T07:08:45Z</time></trkpt><trkpt lat="41.136631302222355" lon="9.520625266900309"><ele>53.333333333333336</ele><time>2026-05-02T07:08:46Z</time></trkpt><trkpt lat="41.136487057586976" lon="9.520456423643223"><ele>56.66666666666667</ele><time>2026-05-02T07:08:47Z</time></trkpt><trkpt lat="41.136350490664036" lon="9.520304518860184"><ele>60.0</ele><time>2026-05-02T07:08:48Z</time></trkpt><trkpt lat="41.1362393290716" lon="9.520156184995113"><ele>60.0</ele><time>2026-05-02T07:08:49Z</time></trkpt><trkpt lat="41.136135342600845" lon="9.520001649978973"><ele>60.0</ele><time>2026-05-02T07:08:50Z</time></trkpt><trkpt lat="41.136027708814844" lon="9.519843544974709"><ele>60.0</ele><time>2026-05-02T07:08:51Z</time></trkpt><trkpt lat="41.13591987987317" lon="9.519677121149968"><ele>59.66666666666667</ele><time>2026-05-02T07:08:52Z</time></trkpt><trkpt lat="41.13580581710178" lon="9.519510452642326"><ele>59.333333333333336</ele><time>2026-05-02T07:08:53Z</time></trkpt><trkpt lat="41.13569308364771" lon="9.519335719466868"><ele>59.0</ele><time>2026-05-02T07:08:54Z</time></trkpt><trkpt lat="41.13560967208026" lon="9.519121199545001"><ele>61.333333333333336</ele><time>2026-05-02T07:08:55Z</time></trkpt><trkpt lat="41.1355094270738" lon="9.518921444897279"><ele>63.66666666666667</ele><time>2026-05-02T07:08:56Z</time></trkpt><trkpt lat="41.135430745170446" lon="9.518714473115425"><ele>66.0</ele><time>2026-05-02T07:08:57Z</time></trkpt><trkpt lat="41.1353577944046" lon="9.518527957510956"><ele>66.0</ele><time>2026-05-02T07:08:58Z</time></trkpt><trkpt lat="41.135284335087604" lon="9.518352846349142"><ele>66.0</ele><time>2026-05-02T07:08:59Z</time></trkpt><trkpt lat="41.13522346374447" lon="9.51819260291636"><ele>66.0</ele><time>2026-05-02T07:09:00Z</time></trkpt><trkpt lat="41.13517015847034" lon="9.518045250311687"><ele>66.0</ele><time>2026-05-02T07:09:01Z</time></trkpt><trkpt lat="41.13511601211266" lon="9.517896975213777"><ele>67.0</ele><time>2026-05-02T07:09:02Z</time></trkpt><trkpt lat="41.13509246516615" lon="9.517733249968902"><ele>68.0</ele><time>2026-05-02T07:09:03Z</time></trkpt><trkpt lat="41.13514264533212" lon="9.517576102586977"><ele>69.0</ele><time>2026-05-02T07:09:04Z</time></trkpt><trkpt lat="41.13521982814183" lon="9.517438313216315"><ele>70.0</ele><time>2026-05-02T07:09:05Z</time></trkpt><trkpt lat="41.13531215514094" lon="9.517274562310117"><ele>70.0</ele><time>2026-05-02T07:09:06Z</time></trkpt><trkpt lat="41.135419620310444" lon="9.517126006590928"><ele>70.0</ele><time>2026-05-02T07:09:07Z</time></trkpt><trkpt lat="41.13550034327742" lon="9.51697346002583"><ele>70.0</ele><time>2026-05-02T07:09:08Z</time></trkpt><trkpt lat="41.1355643699515" lon="9.516818093779468"><ele>70.0</ele><time>2026-05-02T07:09:09Z</time></trkpt><trkpt lat="41.13562016448557" lon="9.516672838923004"><ele>69.8</ele><time>2026-05-02T07:09:10Z</time></trkpt><trkpt lat="41.135672481164725" lon="9.516532231314567"><ele>69.6</ele><time>2026-05-02T07:09:11Z</time></trkpt><trkpt lat="41.13572021179412" lon="9.516416027477195"><ele>69.4</ele><time>2026-05-02T07:09:12Z</time></trkpt><trkpt lat="41.135770659967264" lon="9.516354716166608"><ele>69.2</ele><time>2026-05-02T07:09:13Z</time></trkpt><trkpt lat="41.13581544849805" lon="9.516265439923387"><ele>69.0</ele><time>2026-05-02T07:09:15Z</time></trkpt><trkpt lat="41.135678244183325" lon="9.516096450318436"><ele>68.16666666666667</ele><time>2026-05-02T07:09:16Z</time></trkpt><trkpt lat="41.1356110587728" lon="9.516046258579866"><ele>67.33333333333333</ele><time>2026-05-02T07:09:17Z</time></trkpt><trkpt lat="41.13554933360642" lon="9.515986902277573"><ele>66.5</ele><time>2026-05-02T07:09:18Z</time></trkpt><trkpt lat="41.13548059076331" lon="9.515925788169735"><ele>65.66666666666666</ele><time>2026-05-02T07:09:19Z</time></trkpt><trkpt lat="41.13541296513695" lon="9.515847931172232"><ele>64.83333333333333</ele><time>2026-05-02T07:09:20Z</time></trkpt><trkpt lat="41.13535954299369" lon="9.515728563335385"><ele>64.0</ele><time>2026-05-02T07:09:21Z</time></trkpt><trkpt lat="41.13527503666254" lon="9.51560967919518"><ele>64.0</ele><time>2026-05-02T07:09:22Z</time></trkpt><trkpt lat="41.13520177299128" lon="9.515487828591962"><ele>64.0</ele><time>2026-05-02T07:09:23Z</time></trkpt><trkpt lat="41.135113685685404" lon="9.515340737594851"><ele>64.0</ele><time>2026-05-02T07:09:24Z</time></trkpt><trkpt lat="41.13500925492399" lon="9.515157479361093"><ele>64.0</ele><time>2026-05-02T07:09:25Z</time></trkpt><trkpt lat="41.13488202048223" lon="9.514992522268287"><ele>63.33333333333333</ele><time>2026-05-02T07:09:26Z</time></trkpt><trkpt lat="41.13477549710044" lon="9.514790167661198"><ele>62.66666666666667</ele><time>2026-05-02T07:09:27Z</time></trkpt><trkpt lat="41.13466741142904" lon="9.514584017706902"><ele>62.0</ele><time>2026-05-02T07:09:28Z</time></trkpt><trkpt lat="41.13455258855581" lon="9.514368999177252"><ele>59.66666666666667</ele><time>2026-05-02T07:09:29Z</time></trkpt><trkpt lat="41.13443920536862" lon="9.514144586127875"><ele>57.33333333333333</ele><time>2026-05-02T07:09:30Z</time></trkpt><trkpt lat="41.13435421568414" lon="9.51389333185381"><ele>55.0</ele><time>2026-05-02T07:09:31Z</time></trkpt><trkpt lat="41.134283069695115" lon="9.513636253477717"><ele>53.33333333333333</ele><time>2026-05-02T07:09:32Z</time></trkpt><trkpt lat="41.1342283188507" lon="9.513384091229522"><ele>51.66666666666667</ele><time>2026-05-02T07:09:33Z</time></trkpt><trkpt lat="41.13421927324702" lon="9.513125049197713"><ele>50.0</ele><time>2026-05-02T07:09:34Z</time></trkpt><trkpt lat="41.13424593260043" lon="9.512859211840617"><ele>49.0</ele><time>2026-05-02T07:09:35Z</time></trkpt><trkpt lat="41.13429587474286" lon="9.512560070622039"><ele>48.0</ele><time>2026-05-02T07:09:36Z</time></trkpt><trkpt lat="41.134380166319126" lon="9.512262026468987"><ele>47.333333333333336</ele><time>2026-05-02T07:09:37.001Z</time></trkpt><trkpt lat="41.13445574757044" lon="9.511979740967817"><ele>46.66666666666667</ele><time>2026-05-02T07:09:38.001Z</time></trkpt><trkpt lat="41.13452395693075" lon="9.511712837203028"><ele>46.0</ele><time>2026-05-02T07:09:39.001Z</time></trkpt><trkpt lat="41.134605064321626" lon="9.511442758582143"><ele>43.0</ele><time>2026-05-02T07:09:40.001Z</time></trkpt><trkpt lat="41.134710890150984" lon="9.511182933742882"><ele>40.0</ele><time>2026-05-02T07:09:41.001Z</time></trkpt><trkpt lat="41.13482787751505" lon="9.510925074317054"><ele>37.0</ele><time>2026-05-02T07:09:42.001Z</time></trkpt><trkpt lat="41.13494464730624" lon="9.510664351466552"><ele>32.5</ele><time>2026-05-02T07:09:43Z</time></trkpt><trkpt lat="41.13505656855751" lon="9.51039966571332"><ele>28.0</ele><time>2026-05-02T07:09:44Z</time></trkpt><trkpt lat="41.13516417027076" lon="9.51013568961863"><ele>28.0</ele><time>2026-05-02T07:09:45Z</time></trkpt><trkpt lat="41.13527848423766" lon="9.509870409259028"><ele>28.0</ele><time>2026-05-02T07:09:46Z</time></trkpt><trkpt lat="41.13541535179335" lon="9.509630140299551"><ele>27.5</ele><time>2026-05-02T07:09:47Z</time></trkpt><trkpt lat="41.13558331479141" lon="9.509420616703727"><ele>27.0</ele><time>2026-05-02T07:09:48Z</time></trkpt><trkpt lat="41.13577031527425" lon="9.50923039519738"><ele>24.5</ele><time>2026-05-02T07:09:49Z</time></trkpt><trkpt lat="41.135957075684935" lon="9.509047511037268"><ele>22.0</ele><time>2026-05-02T07:09:50Z</time></trkpt><trkpt lat="41.13615432663614" lon="9.50884328769508"><ele>23.333333333333332</ele><time>2026-05-02T07:09:51Z</time></trkpt><trkpt lat="41.13630660704365" lon="9.508690379984683"><ele>24.666666666666664</ele><time>2026-05-02T07:09:52Z</time></trkpt><trkpt lat="41.1364805228553" lon="9.508501589335687"><ele>26.0</ele><time>2026-05-02T07:09:53Z</time></trkpt><trkpt lat="41.13665158638783" lon="9.508344582924625"><ele>26.0</ele><time>2026-05-02T07:09:54Z</time></trkpt><trkpt lat="41.13678622634021" lon="9.508115532734541"><ele>26.0</ele><time>2026-05-02T07:09:55Z</time></trkpt><trkpt lat="41.13688794181626" lon="9.507847572514809"><ele>26.0</ele><time>2026-05-02T07:09:56Z</time></trkpt><trkpt lat="41.13697168537331" lon="9.50755534842809"><ele>30.5</ele><time>2026-05-02T07:09:57Z</time></trkpt><trkpt lat="41.13704877824079" lon="9.50726242390436"><ele>35.0</ele><time>2026-05-02T07:09:58Z</time></trkpt><trkpt lat="41.13712879543071" lon="9.506967991474468"><ele>36.666666666666664</ele><time>2026-05-02T07:09:59Z</time></trkpt><trkpt lat="41.13721626026483" lon="9.50668527450909"><ele>38.333333333333336</ele><time>2026-05-02T07:10:00Z</time></trkpt><trkpt lat="41.13729520681453" lon="9.506424564963526"><ele>40.0</ele><time>2026-05-02T07:10:01Z</time></trkpt><trkpt lat="41.13735033762878" lon="9.506172552472417"><ele>40.0</ele><time>2026-05-02T07:10:02Z</time></trkpt><trkpt lat="41.137365089522255" lon="9.50590977554559"><ele>40.0</ele><time>2026-05-02T07:10:03Z</time></trkpt><trkpt lat="41.137326368806484" lon="9.505616352880288"><ele>40.0</ele><time>2026-05-02T07:10:04Z</time></trkpt><trkpt lat="41.1372516277804" lon="9.505327788445063"><ele>37.0</ele><time>2026-05-02T07:10:05Z</time></trkpt><trkpt lat="41.137218787443786" lon="9.505022610608691"><ele>34.0</ele><time>2026-05-02T07:10:06Z</time></trkpt><trkpt lat="41.13706408831613" lon="9.504734639518322"><ele>32.0</ele><time>2026-05-02T07:10:07Z</time></trkpt><trkpt lat="41.1369799901721" lon="9.504431123296737"><ele>30.0</ele><time>2026-05-02T07:10:08Z</time></trkpt><trkpt lat="41.13690279005132" lon="9.50414828783456"><ele>30.0</ele><time>2026-05-02T07:10:09Z</time></trkpt><trkpt lat="41.13683530415239" lon="9.50388559423537"><ele>30.0</ele><time>2026-05-02T07:10:10Z</time></trkpt><trkpt lat="41.13681161207928" lon="9.5036132834442"><ele>30.0</ele><time>2026-05-02T07:10:11Z</time></trkpt><trkpt lat="41.13683390530273" lon="9.503343708399276"><ele>29.333333333333336</ele><time>2026-05-02T07:10:12Z</time></trkpt><trkpt lat="41.13688337631632" lon="9.503081201580695"><ele>28.666666666666668</ele><time>2026-05-02T07:10:13Z</time></trkpt><trkpt lat="41.136940753473084" lon="9.502819739738925"><ele>28.0</ele><time>2026-05-02T07:10:14Z</time></trkpt><trkpt lat="41.136992622609135" lon="9.502553731808648"><ele>28.0</ele><time>2026-05-02T07:10:15Z</time></trkpt><trkpt lat="41.13703807128298" lon="9.50228769976897"><ele>28.0</ele><time>2026-05-02T07:10:16Z</time></trkpt><trkpt lat="41.13708295313918" lon="9.50202667510695"><ele>28.0</ele><time>2026-05-02T07:10:17Z</time></trkpt><trkpt lat="41.13712044682366" lon="9.501770456169892"><ele>30.0</ele><time>2026-05-02T07:10:18Z</time></trkpt><trkpt lat="41.13712808654225" lon="9.501516720197603"><ele>32.0</ele><time>2026-05-02T07:10:19Z</time></trkpt><trkpt lat="41.13709623820449" lon="9.501272028579985"><ele>34.0</ele><time>2026-05-02T07:10:20Z</time></trkpt><trkpt lat="41.13701879367159" lon="9.501054297300332"><ele>34.0</ele><time>2026-05-02T07:10:21Z</time></trkpt><trkpt lat="41.13691388506933" lon="9.50088233941789"><ele>34.0</ele><time>2026-05-02T07:10:22Z</time></trkpt><trkpt lat="41.13678569874059" lon="9.50073732822564"><ele>34.0</ele><time>2026-05-02T07:10:23Z</time></trkpt><trkpt lat="41.13663298031848" lon="9.50059427567705"><ele>35.0</ele><time>2026-05-02T07:10:24Z</time></trkpt><trkpt lat="41.13648257665631" lon="9.50044480717225"><ele>36.0</ele><time>2026-05-02T07:10:25Z</time></trkpt><trkpt lat="41.136337546936346" lon="9.500291211871728"><ele>37.0</ele><time>2026-05-02T07:10:26Z</time></trkpt><trkpt lat="41.13620900676041" lon="9.500139391551278"><ele>37.0</ele><time>2026-05-02T07:10:27Z</time></trkpt><trkpt lat="41.13609310551163" lon="9.50000009217407"><ele>37.0</ele><time>2026-05-02T07:10:28Z</time></trkpt><trkpt lat="41.13598476011995" lon="9.499860879216774"><ele>37.0</ele><time>2026-05-02T07:10:29Z</time></trkpt><trkpt lat="41.135911277289125" lon="9.499705014225844"><ele>37.0</ele><time>2026-05-02T07:10:30Z</time></trkpt><trkpt lat="41.135831916415874" lon="9.499552949464196"><ele>32.25</ele><time>2026-05-02T07:10:31Z</time></trkpt><trkpt lat="41.13577695565623" lon="9.499380397487117"><ele>27.5</ele><time>2026-05-02T07:10:32Z</time></trkpt><trkpt lat="41.13572751640804" lon="9.49920638744777"><ele>22.75</ele><time>2026-05-02T07:10:33Z</time></trkpt><trkpt lat="41.1356709481859" lon="9.499034001195497"><ele>18.0</ele><time>2026-05-02T07:10:34Z</time></trkpt><trkpt lat="41.13561472675673" lon="9.498866976362585"><ele>21.0</ele><time>2026-05-02T07:10:35Z</time></trkpt><trkpt lat="41.13555309882465" lon="9.498703338851195"><ele>24.0</ele><time>2026-05-02T07:10:36Z</time></trkpt><trkpt lat="41.13546924414506" lon="9.498542162334019"><ele>27.0</ele><time>2026-05-02T07:10:37Z</time></trkpt><trkpt lat="41.135380778992975" lon="9.498395232573472"><ele>30.0</ele><time>2026-05-02T07:10:38Z</time></trkpt><trkpt lat="41.13526269803473" lon="9.498250566427071"><ele>30.0</ele><time>2026-05-02T07:10:39Z</time></trkpt><trkpt lat="41.13512437278297" lon="9.498104528928602"><ele>30.0</ele><time>2026-05-02T07:10:40Z</time></trkpt><trkpt lat="41.134947137035674" lon="9.497975612170684"><ele>30.0</ele><time>2026-05-02T07:10:41Z</time></trkpt><trkpt lat="41.13472222976799" lon="9.497851631170768"><ele>27.0</ele><time>2026-05-02T07:10:42Z</time></trkpt><trkpt lat="41.13449683139104" lon="9.497684298174093"><ele>24.0</ele><time>2026-05-02T07:10:43Z</time></trkpt><trkpt lat="41.13430872395915" lon="9.497521749699752"><ele>24.0</ele><time>2026-05-02T07:10:44Z</time></trkpt><trkpt lat="41.134143010258434" lon="9.497354553460728"><ele>24.0</ele><time>2026-05-02T07:10:45Z</time></trkpt><trkpt lat="41.134010328543155" lon="9.497136360742477"><ele>24.0</ele><time>2026-05-02T07:10:46Z</time></trkpt><trkpt lat="41.13390692216216" lon="9.49690569138664"><ele>25.333333333333336</ele><time>2026-05-02T07:10:47Z</time></trkpt><trkpt lat="41.13383051435002" lon="9.496659995343576"><ele>26.666666666666668</ele><time>2026-05-02T07:10:48Z</time></trkpt><trkpt lat="41.13379267245283" lon="9.496392991090293"><ele>28.0</ele><time>2026-05-02T07:10:49Z</time></trkpt><trkpt lat="41.13380373206092" lon="9.496110568744902"><ele>38.5</ele><time>2026-05-02T07:10:50Z</time></trkpt><trkpt lat="41.13386839035333" lon="9.495821317065603"><ele>49.0</ele><time>2026-05-02T07:10:51Z</time></trkpt><trkpt lat="41.133964723090166" lon="9.495537192957146"><ele>43.5</ele><time>2026-05-02T07:10:52Z</time></trkpt><trkpt lat="41.13407792268095" lon="9.495251450234559"><ele>38.0</ele><time>2026-05-02T07:10:53Z</time></trkpt><trkpt lat="41.13413324108532" lon="9.494966581373605"><ele>38.0</ele><time>2026-05-02T07:10:54Z</time></trkpt><trkpt lat="41.13411885115086" lon="9.494682408565437"><ele>38.0</ele><time>2026-05-02T07:10:55Z</time></trkpt><trkpt lat="41.13405293017241" lon="9.494366776210768"><ele>46.0</ele><time>2026-05-02T07:10:56Z</time></trkpt><trkpt lat="41.13395610749691" lon="9.494039097198023"><ele>54.0</ele><time>2026-05-02T07:10:57Z</time></trkpt><trkpt lat="41.13385453997468" lon="9.493724823738708"><ele>54.0</ele><time>2026-05-02T07:10:58Z</time></trkpt><trkpt lat="41.13374431452283" lon="9.493426896086195"><ele>54.0</ele><time>2026-05-02T07:10:59Z</time></trkpt><trkpt lat="41.133614761907545" lon="9.493153317511648"><ele>48.0</ele><time>2026-05-02T07:11:00Z</time></trkpt><trkpt lat="41.133459235877865" lon="9.492900112598269"><ele>42.0</ele><time>2026-05-02T07:11:01Z</time></trkpt><trkpt lat="41.13329326121978" lon="9.492681245615403"><ele>50.33333333333333</ele><time>2026-05-02T07:11:02Z</time></trkpt><trkpt lat="41.13313042231403" lon="9.492488962729553"><ele>58.666666666666664</ele><time>2026-05-02T07:11:03Z</time></trkpt><trkpt lat="41.132975037668146" lon="9.492292780145172"><ele>67.0</ele><time>2026-05-02T07:11:04Z</time></trkpt><trkpt lat="41.132838818636145" lon="9.492106859700183"><ele>63.666666666666664</ele><time>2026-05-02T07:11:05Z</time></trkpt><trkpt lat="41.132718009983364" lon="9.49192118950559"><ele>60.33333333333333</ele><time>2026-05-02T07:11:06Z</time></trkpt><trkpt lat="41.132631071393575" lon="9.491707551273352"><ele>57.0</ele><time>2026-05-02T07:11:07Z</time></trkpt><trkpt lat="41.132599261412956" lon="9.491460611259473"><ele>58.66666666666667</ele><time>2026-05-02T07:11:08Z</time></trkpt><trkpt lat="41.13260471243117" lon="9.491213553985965"><ele>60.333333333333336</ele><time>2026-05-02T07:11:09Z</time></trkpt><trkpt lat="41.13264583533012" lon="9.490996486853632"><ele>62.0</ele><time>2026-05-02T07:11:10Z</time></trkpt><trkpt lat="41.132725740334315" lon="9.490809486152056"><ele>62.0</ele><time>2026-05-02T07:11:11Z</time></trkpt><trkpt lat="41.132824819198746" lon="9.490639967012621"><ele>62.0</ele><time>2026-05-02T07:11:12Z</time></trkpt><trkpt lat="41.132930973413764" lon="9.490488080449069"><ele>62.0</ele><time>2026-05-02T07:11:13Z</time></trkpt><trkpt lat="41.133042816195946" lon="9.490337625216812"><ele>61.333333333333336</ele><time>2026-05-02T07:11:14Z</time></trkpt><trkpt lat="41.13315084393766" lon="9.490176777519011"><ele>60.66666666666667</ele><time>2026-05-02T07:11:15Z</time></trkpt><trkpt lat="41.13325596244562" lon="9.490007519386529"><ele>60.0</ele><time>2026-05-02T07:11:16Z</time></trkpt><trkpt lat="41.13335219986849" lon="9.489828602928606"><ele>60.0</ele><time>2026-05-02T07:11:17Z</time></trkpt><trkpt lat="41.13342369545277" lon="9.489620736484897"><ele>60.0</ele><time>2026-05-02T07:11:18Z</time></trkpt><trkpt lat="41.13348409049839" lon="9.489414985660433"><ele>60.0</ele><time>2026-05-02T07:11:19Z</time></trkpt><trkpt lat="41.13352833058746" lon="9.48919614403886"><ele>60.0</ele><time>2026-05-02T07:11:20Z</time></trkpt><trkpt lat="41.13355548563836" lon="9.48897174448762"><ele>60.0</ele><time>2026-05-02T07:11:21Z</time></trkpt><trkpt lat="41.13356883484468" lon="9.488741776789704"><ele>60.0</ele><time>2026-05-02T07:11:22Z</time></trkpt><trkpt lat="41.13356670097732" lon="9.488523757435544"><ele>58.0</ele><time>2026-05-02T07:11:23Z</time></trkpt><trkpt lat="41.13353124688954" lon="9.488300623821456"><ele>56.0</ele><time>2026-05-02T07:11:24Z</time></trkpt><trkpt lat="41.13347445839689" lon="9.48807972646705"><ele>54.0</ele><time>2026-05-02T07:11:25Z</time></trkpt><trkpt lat="41.13341006523646" lon="9.48786850866241"><ele>52.33333333333333</ele><time>2026-05-02T07:11:26Z</time></trkpt><trkpt lat="41.13333871565204" lon="9.487661910364553"><ele>50.666666666666664</ele><time>2026-05-02T07:11:27Z</time></trkpt><trkpt lat="41.133266330018834" lon="9.487455770192598"><ele>49.0</ele><time>2026-05-02T07:11:28Z</time></trkpt><trkpt lat="41.133177490775395" lon="9.487259713670069"><ele>46.0</ele><time>2026-05-02T07:11:29Z</time></trkpt><trkpt lat="41.13307388485497" lon="9.487063517045524"><ele>43.0</ele><time>2026-05-02T07:11:30Z</time></trkpt><trkpt lat="41.13296658153016" lon="9.486861036497853"><ele>40.0</ele><time>2026-05-02T07:11:31Z</time></trkpt><trkpt lat="41.13286780341726" lon="9.486665890551278"><ele>40.0</ele><time>2026-05-02T07:11:32Z</time></trkpt><trkpt lat="41.13278132686719" lon="9.486471994532858"><ele>40.0</ele><time>2026-05-02T07:11:33Z</time></trkpt><trkpt lat="41.13271143914737" lon="9.486270660557649"><ele>40.0</ele><time>2026-05-02T07:11:34Z</time></trkpt><trkpt lat="41.13267147508362" lon="9.486065124596347"><ele>38.0</ele><time>2026-05-02T07:11:35Z</time></trkpt><trkpt lat="41.13267003027119" lon="9.485839175360294"><ele>36.0</ele><time>2026-05-02T07:11:36Z</time></trkpt><trkpt lat="41.13267028499655" lon="9.48557711556687"><ele>34.0</ele><time>2026-05-02T07:11:37Z</time></trkpt><trkpt lat="41.13267472520627" lon="9.485280202974806"><ele>33.0</ele><time>2026-05-02T07:11:38Z</time></trkpt><trkpt lat="41.13267528879867" lon="9.484967357450104"><ele>32.0</ele><time>2026-05-02T07:11:39Z</time></trkpt><trkpt lat="41.132692418386" lon="9.484619427411017"><ele>31.0</ele><time>2026-05-02T07:11:40Z</time></trkpt><trkpt lat="41.1326976407049" lon="9.484269247556915"><ele>30.0</ele><time>2026-05-02T07:11:41Z</time></trkpt><trkpt lat="41.13270804616084" lon="9.483898388976193"><ele>28.5</ele><time>2026-05-02T07:11:42Z</time></trkpt><trkpt lat="41.132741428373606" lon="9.483501941186864"><ele>27.0</ele><time>2026-05-02T07:11:43Z</time></trkpt><trkpt lat="41.13278690115349" lon="9.483101257110334"><ele>25.5</ele><time>2026-05-02T07:11:44Z</time></trkpt><trkpt lat="41.13283829609615" lon="9.482706967156478"><ele>24.0</ele><time>2026-05-02T07:11:45Z</time></trkpt><trkpt lat="41.13287892022607" lon="9.482316385401136"><ele>22.5</ele><time>2026-05-02T07:11:46Z</time></trkpt><trkpt lat="41.132920610092604" lon="9.48193881372976"><ele>21.0</ele><time>2026-05-02T07:11:47Z</time></trkpt><trkpt lat="41.132970072163246" lon="9.481570351073483"><ele>20.0</ele><time>2026-05-02T07:11:48Z</time></trkpt><trkpt lat="41.13300741837358" lon="9.481196348532476"><ele>19.0</ele><time>2026-05-02T07:11:49Z</time></trkpt><trkpt lat="41.13305624492891" lon="9.480823279394775"><ele>19.0</ele><time>2026-05-02T07:11:50Z</time></trkpt><trkpt lat="41.13308684415034" lon="9.480451800486577"><ele>19.0</ele><time>2026-05-02T07:11:51Z</time></trkpt><trkpt lat="41.133116051207686" lon="9.480092877708664"><ele>18.5</ele><time>2026-05-02T07:11:52Z</time></trkpt><trkpt lat="41.133169894603824" lon="9.479737388766145"><ele>18.0</ele><time>2026-05-02T07:11:53Z</time></trkpt><trkpt lat="41.13322553132784" lon="9.47938950139668"><ele>21.5</ele><time>2026-05-02T07:11:54Z</time></trkpt><trkpt lat="41.13328484783546" lon="9.479064447838763"><ele>25.0</ele><time>2026-05-02T07:11:55Z</time></trkpt><trkpt lat="41.13334039030926" lon="9.478760915860994"><ele>25.0</ele><time>2026-05-02T07:11:56Z</time></trkpt><trkpt lat="41.13339065275524" lon="9.478470752338053"><ele>25.0</ele><time>2026-05-02T07:11:57Z</time></trkpt><trkpt lat="41.133437438677184" lon="9.478193332165866"><ele>25.0</ele><time>2026-05-02T07:11:58Z</time></trkpt><trkpt lat="41.13348512368608" lon="9.477934874116084"><ele>23.666666666666668</ele><time>2026-05-02T07:11:59Z</time></trkpt><trkpt lat="41.133530762346666" lon="9.477699932842157"><ele>22.333333333333336</ele><time>2026-05-02T07:12:00Z</time></trkpt><trkpt lat="41.1335650250504" lon="9.477494923078176"><ele>21.0</ele><time>2026-05-02T07:12:01Z</time></trkpt><trkpt lat="41.13360156731452" lon="9.47732403561702"><ele>21.0</ele><time>2026-05-02T07:12:02Z</time></trkpt><trkpt lat="41.133651174350035" lon="9.47719021617196"><ele>21.0</ele><time>2026-05-02T07:12:03Z</time></trkpt><trkpt lat="41.13370175575651" lon="9.477092210886465"><ele>21.0</ele><time>2026-05-02T07:12:04Z</time></trkpt><trkpt lat="41.133712340119246" lon="9.476970990133912"><ele>21.0</ele><time>2026-05-02T07:12:06Z</time></trkpt><trkpt lat="41.13367704703235" lon="9.476889547293416"><ele>21.0</ele><time>2026-05-02T07:12:10Z</time></trkpt><trkpt lat="41.13361229216716" lon="9.476793849132427"><ele>20.5</ele><time>2026-05-02T07:12:12Z</time></trkpt><trkpt lat="41.13351432913034" lon="9.476775258481279"><ele>20.0</ele><time>2026-05-02T07:12:13Z</time></trkpt><trkpt lat="41.13336794775315" lon="9.476776083328572"><ele>19.5</ele><time>2026-05-02T07:12:14Z</time></trkpt><trkpt lat="41.13317632546963" lon="9.476762322109614"><ele>19.0</ele><time>2026-05-02T07:12:15Z</time></trkpt><trkpt lat="41.133012564224195" lon="9.47675457417156"><ele>17.666666666666664</ele><time>2026-05-02T07:12:16Z</time></trkpt><trkpt lat="41.13284005616006" lon="9.476756536536856"><ele>16.333333333333332</ele><time>2026-05-02T07:12:17Z</time></trkpt><trkpt lat="41.1326630314597" lon="9.476748096188842"><ele>15.0</ele><time>2026-05-02T07:12:18Z</time></trkpt><trkpt lat="41.13247336363351" lon="9.476730647557819"><ele>13.666666666666666</ele><time>2026-05-02T07:12:19Z</time></trkpt><trkpt lat="41.13228194021292" lon="9.476713690853964"><ele>12.333333333333332</ele><time>2026-05-02T07:12:20Z</time></trkpt><trkpt lat="41.132075310178905" lon="9.476713833666125"><ele>11.0</ele><time>2026-05-02T07:12:21Z</time></trkpt><trkpt lat="41.13185649874569" lon="9.476708975921685"><ele>11.0</ele><time>2026-05-02T07:12:22Z</time></trkpt><trkpt lat="41.13162668798792" lon="9.47669282439714"><ele>11.0</ele><time>2026-05-02T07:12:23Z</time></trkpt><trkpt lat="41.13138237300399" lon="9.476689530551178"><ele>12.5</ele><time>2026-05-02T07:12:24Z</time></trkpt><trkpt lat="41.13114420574854" lon="9.476685971444324"><ele>14.0</ele><time>2026-05-02T07:12:25Z</time></trkpt><trkpt lat="41.130911154275566" lon="9.476674485992703"><ele>14.0</ele><time>2026-05-02T07:12:26Z</time></trkpt><trkpt lat="41.130679215961784" lon="9.476664862346706"><ele>14.0</ele><time>2026-05-02T07:12:27Z</time></trkpt><trkpt lat="41.130448687938895" lon="9.476656326545047"><ele>14.0</ele><time>2026-05-02T07:12:28Z</time></trkpt><trkpt lat="41.13021688049678" lon="9.47663863776325"><ele>14.0</ele><time>2026-05-02T07:12:29Z</time></trkpt><trkpt lat="41.12998093697261" lon="9.476575384778133"><ele>15.5</ele><time>2026-05-02T07:12:30Z</time></trkpt><trkpt lat="41.1297411601449" lon="9.476528125157394"><ele>17.0</ele><time>2026-05-02T07:12:31Z</time></trkpt><trkpt lat="41.12950243514986" lon="9.47646516182573"><ele>17.0</ele><time>2026-05-02T07:12:32Z</time></trkpt><trkpt lat="41.12926266178612" lon="9.476415618519514"><ele>17.0</ele><time>2026-05-02T07:12:33Z</time></trkpt><trkpt lat="41.12901567484629" lon="9.476361353946329"><ele>16.5</ele><time>2026-05-02T07:12:34Z</time></trkpt><trkpt lat="41.12877098966106" lon="9.476309671977594"><ele>16.0</ele><time>2026-05-02T07:12:35Z</time></trkpt><trkpt lat="41.128540010673376" lon="9.476253127864863"><ele>16.0</ele><time>2026-05-02T07:12:36Z</time></trkpt><trkpt lat="41.128308508986734" lon="9.476198996640631"><ele>16.0</ele><time>2026-05-02T07:12:37Z</time></trkpt><trkpt lat="41.12807229135864" lon="9.476140132079284"><ele>15.5</ele><time>2026-05-02T07:12:38Z</time></trkpt><trkpt lat="41.12783180058431" lon="9.476078905098525"><ele>15.0</ele><time>2026-05-02T07:12:39Z</time></trkpt><trkpt lat="41.12759101557775" lon="9.476023031762374"><ele>15.5</ele><time>2026-05-02T07:12:40Z</time></trkpt><trkpt lat="41.12734588410299" lon="9.475970179697669"><ele>16.0</ele><time>2026-05-02T07:12:41Z</time></trkpt><trkpt lat="41.127096905731" lon="9.475917711587797"><ele>16.0</ele><time>2026-05-02T07:12:42Z</time></trkpt><trkpt lat="41.126851982626725" lon="9.475865548944245"><ele>16.0</ele><time>2026-05-02T07:12:43Z</time></trkpt><trkpt lat="41.12661076103684" lon="9.475802405144334"><ele>15.5</ele><time>2026-05-02T07:12:44Z</time></trkpt><trkpt lat="41.12636668768903" lon="9.475744684252533"><ele>15.0</ele><time>2026-05-02T07:12:45Z</time></trkpt><trkpt lat="41.12612831466359" lon="9.475689298635464"><ele>15.0</ele><time>2026-05-02T07:12:46Z</time></trkpt><trkpt lat="41.125883376839084" lon="9.47564083190826"><ele>15.0</ele><time>2026-05-02T07:12:47Z</time></trkpt><trkpt lat="41.125645087907735" lon="9.475583127834016"><ele>14.0</ele><time>2026-05-02T07:12:48Z</time></trkpt><trkpt lat="41.125409536048906" lon="9.475522612163017"><ele>13.0</ele><time>2026-05-02T07:12:49Z</time></trkpt><trkpt lat="41.12517715615843" lon="9.475464621927406"><ele>12.0</ele><time>2026-05-02T07:12:50Z</time></trkpt><trkpt lat="41.12494457932625" lon="9.475403731126509"><ele>11.0</ele><time>2026-05-02T07:12:51Z</time></trkpt><trkpt lat="41.12470825647262" lon="9.475349030510692"><ele>11.0</ele><time>2026-05-02T07:12:52Z</time></trkpt><trkpt lat="41.124483224276084" lon="9.475316555476915"><ele>11.0</ele><time>2026-05-02T07:12:53Z</time></trkpt><trkpt lat="41.12423398569454" lon="9.475235314446653"><ele>13.5</ele><time>2026-05-02T07:12:54Z</time></trkpt><trkpt lat="41.12397812791473" lon="9.475098338593186"><ele>16.0</ele><time>2026-05-02T07:12:55Z</time></trkpt><trkpt lat="41.123748973196" lon="9.474938931478494"><ele>16.0</ele><time>2026-05-02T07:12:56Z</time></trkpt><trkpt lat="41.12352261259815" lon="9.474826195081643"><ele>16.0</ele><time>2026-05-02T07:12:57Z</time></trkpt><trkpt lat="41.123302321672966" lon="9.474721013028892"><ele>15.0</ele><time>2026-05-02T07:12:58Z</time></trkpt><trkpt lat="41.12310287128498" lon="9.474615503510977"><ele>14.0</ele><time>2026-05-02T07:12:59Z</time></trkpt><trkpt lat="41.122909366438265" lon="9.474513183737237"><ele>13.0</ele><time>2026-05-02T07:13:00Z</time></trkpt><trkpt lat="41.1227281397761" lon="9.474415533822716"><ele>11.333333333333332</ele><time>2026-05-02T07:13:01Z</time></trkpt><trkpt lat="41.122551403629735" lon="9.474319916359748"><ele>9.666666666666666</ele><time>2026-05-02T07:13:02Z</time></trkpt><trkpt lat="41.122385645848205" lon="9.474231998864136"><ele>8.0</ele><time>2026-05-02T07:13:03Z</time></trkpt><trkpt lat="41.12222065828469" lon="9.474145171585997"><ele>8.0</ele><time>2026-05-02T07:13:04Z</time></trkpt><trkpt lat="41.12206692941651" lon="9.474068020660999"><ele>8.0</ele><time>2026-05-02T07:13:05Z</time></trkpt><trkpt lat="41.12192325422362" lon="9.473989289522262"><ele>8.0</ele><time>2026-05-02T07:13:06Z</time></trkpt><trkpt lat="41.12178431944166" lon="9.473917549365607"><ele>8.0</ele><time>2026-05-02T07:13:07Z</time></trkpt><trkpt lat="41.12163649897707" lon="9.473839207547421"><ele>8.0</ele><time>2026-05-02T07:13:08Z</time></trkpt><trkpt lat="41.121480776392744" lon="9.473756627660945"><ele>8.0</ele><time>2026-05-02T07:13:09Z</time></trkpt><trkpt lat="41.12131630962526" lon="9.473674551098172"><ele>10.666666666666666</ele><time>2026-05-02T07:13:10Z</time></trkpt><trkpt lat="41.121144159957545" lon="9.47359755489863"><ele>13.333333333333332</ele><time>2026-05-02T07:13:11Z</time></trkpt><trkpt lat="41.12096845422501" lon="9.473522439740318"><ele>16.0</ele><time>2026-05-02T07:13:12Z</time></trkpt><trkpt lat="41.12078353577415" lon="9.473462096387314"><ele>18.0</ele><time>2026-05-02T07:13:13Z</time></trkpt><trkpt lat="41.120599583824486" lon="9.473388404994719"><ele>20.0</ele><time>2026-05-02T07:13:14Z</time></trkpt><trkpt lat="41.12041501561036" lon="9.47328307970683"><ele>22.0</ele><time>2026-05-02T07:13:15Z</time></trkpt><trkpt lat="41.120223584497325" lon="9.473189055846394"><ele>22.0</ele><time>2026-05-02T07:13:16Z</time></trkpt><trkpt lat="41.12002048798554" lon="9.473112069732997"><ele>22.0</ele><time>2026-05-02T07:13:17Z</time></trkpt><trkpt lat="41.11981898481969" lon="9.473029021211255"><ele>22.0</ele><time>2026-05-02T07:13:18Z</time></trkpt><trkpt lat="41.119614384482574" lon="9.472944332422434"><ele>22.0</ele><time>2026-05-02T07:13:19Z</time></trkpt><trkpt lat="41.119404218454534" lon="9.47286803418241"><ele>22.0</ele><time>2026-05-02T07:13:20Z</time></trkpt><trkpt lat="41.119193338895" lon="9.472782861914975"><ele>22.0</ele><time>2026-05-02T07:13:21Z</time></trkpt><trkpt lat="41.11898586379991" lon="9.47268090802052"><ele>25.5</ele><time>2026-05-02T07:13:22Z</time></trkpt><trkpt lat="41.118784172262416" lon="9.472551021147071"><ele>29.0</ele><time>2026-05-02T07:13:23Z</time></trkpt><trkpt lat="41.11857437302264" lon="9.472389008051485"><ele>29.0</ele><time>2026-05-02T07:13:24Z</time></trkpt><trkpt lat="41.118361059021154" lon="9.472197483665552"><ele>29.0</ele><time>2026-05-02T07:13:25Z</time></trkpt><trkpt lat="41.11814178354209" lon="9.471996009858271"><ele>27.5</ele><time>2026-05-02T07:13:26Z</time></trkpt><trkpt lat="41.11791818735808" lon="9.47179991831049"><ele>26.0</ele><time>2026-05-02T07:13:27Z</time></trkpt><trkpt lat="41.11768643984241" lon="9.471607553618163"><ele>26.0</ele><time>2026-05-02T07:13:28Z</time></trkpt><trkpt lat="41.11745537404645" lon="9.47142010508687"><ele>26.0</ele><time>2026-05-02T07:13:29Z</time></trkpt><trkpt lat="41.11722099979578" lon="9.471236831755869"><ele>23.0</ele><time>2026-05-02T07:13:30Z</time></trkpt><trkpt lat="41.1169719984323" lon="9.471067857530402"><ele>20.0</ele><time>2026-05-02T07:13:31Z</time></trkpt><trkpt lat="41.11672145240586" lon="9.470912701498282"><ele>19.5</ele><time>2026-05-02T07:13:32Z</time></trkpt><trkpt lat="41.116477819827644" lon="9.470764687344158"><ele>19.0</ele><time>2026-05-02T07:13:33Z</time></trkpt><trkpt lat="41.116240120462194" lon="9.47061655362878"><ele>19.0</ele><time>2026-05-02T07:13:34Z</time></trkpt><trkpt lat="41.11600213768481" lon="9.470465951871017"><ele>19.0</ele><time>2026-05-02T07:13:35Z</time></trkpt><trkpt lat="41.11578840734703" lon="9.47030217871711"><ele>18.5</ele><time>2026-05-02T07:13:36Z</time></trkpt><trkpt lat="41.1156269047672" lon="9.470083616042503"><ele>18.0</ele><time>2026-05-02T07:13:37Z</time></trkpt><trkpt lat="41.11551834796823" lon="9.469813677764934"><ele>16.0</ele><time>2026-05-02T07:13:38Z</time></trkpt><trkpt lat="41.11545674235833" lon="9.46950327838048"><ele>14.0</ele><time>2026-05-02T07:13:39Z</time></trkpt><trkpt lat="41.11544318068415" lon="9.469175572111185"><ele>14.0</ele><time>2026-05-02T07:13:40Z</time></trkpt><trkpt lat="41.115489121788634" lon="9.468843796079884"><ele>14.0</ele><time>2026-05-02T07:13:41Z</time></trkpt><trkpt lat="41.11554614663868" lon="9.468492546979784"><ele>15.5</ele><time>2026-05-02T07:13:42Z</time></trkpt><trkpt lat="41.11559320906498" lon="9.468156736150982"><ele>17.0</ele><time>2026-05-02T07:13:43Z</time></trkpt><trkpt lat="41.11563374234066" lon="9.467827078903296"><ele>22.0</ele><time>2026-05-02T07:13:44Z</time></trkpt><trkpt lat="41.115664991392016" lon="9.467514006293333"><ele>27.0</ele><time>2026-05-02T07:13:45Z</time></trkpt><trkpt lat="41.115693937298374" lon="9.4672271508479"><ele>26.666666666666664</ele><time>2026-05-02T07:13:46Z</time></trkpt><trkpt lat="41.11572325694877" lon="9.466979413361702"><ele>26.333333333333332</ele><time>2026-05-02T07:13:47Z</time></trkpt><trkpt lat="41.11573039808701" lon="9.466736829385205"><ele>26.0</ele><time>2026-05-02T07:13:48Z</time></trkpt><trkpt lat="41.11568884930667" lon="9.466489364356667"><ele>21.333333333333332</ele><time>2026-05-02T07:13:49Z</time></trkpt><trkpt lat="41.115617538814114" lon="9.466258178071"><ele>16.666666666666664</ele><time>2026-05-02T07:13:50Z</time></trkpt><trkpt lat="41.11551658887578" lon="9.466025323764404"><ele>12.0</ele><time>2026-05-02T07:13:51Z</time></trkpt><trkpt lat="41.11538251484383" lon="9.46581108307108"><ele>12.0</ele><time>2026-05-02T07:13:52Z</time></trkpt><trkpt lat="41.11521002828175" lon="9.465622653434751"><ele>12.0</ele><time>2026-05-02T07:13:53Z</time></trkpt><trkpt lat="41.11500099623548" lon="9.465477953696968"><ele>8.0</ele><time>2026-05-02T07:13:54Z</time></trkpt><trkpt lat="41.11477155138526" lon="9.46538280966091"><ele>4.0</ele><time>2026-05-02T07:13:55Z</time></trkpt><trkpt lat="41.11456622639449" lon="9.465290073472636"><ele>4.0</ele><time>2026-05-02T07:13:56Z</time></trkpt><trkpt lat="41.11437523997521" lon="9.465177364075556"><ele>4.0</ele><time>2026-05-02T07:13:57Z</time></trkpt><trkpt lat="41.114192286371114" lon="9.465046171637447"><ele>4.0</ele><time>2026-05-02T07:13:58Z</time></trkpt><trkpt lat="41.11399861234597" lon="9.464892799997221"><ele>4.666666666666666</ele><time>2026-05-02T07:13:59Z</time></trkpt><trkpt lat="41.11381641922092" lon="9.464725610343098"><ele>5.333333333333333</ele><time>2026-05-02T07:14:00Z</time></trkpt><trkpt lat="41.113638898411516" lon="9.46455948872885"><ele>6.0</ele><time>2026-05-02T07:14:01Z</time></trkpt><trkpt lat="41.11345643797812" lon="9.464401249635976"><ele>6.0</ele><time>2026-05-02T07:14:02Z</time></trkpt><trkpt lat="41.11327203675809" lon="9.464245426628759"><ele>6.0</ele><time>2026-05-02T07:14:03Z</time></trkpt><trkpt lat="41.11309825288043" lon="9.464089465357064"><ele>6.0</ele><time>2026-05-02T07:14:04Z</time></trkpt><trkpt lat="41.11292373679023" lon="9.463936538388586"><ele>6.333333333333334</ele><time>2026-05-02T07:14:05Z</time></trkpt><trkpt lat="41.112751203385606" lon="9.46379220528415"><ele>6.666666666666667</ele><time>2026-05-02T07:14:06Z</time></trkpt><trkpt lat="41.112587525762436" lon="9.46365477475727"><ele>7.0</ele><time>2026-05-02T07:14:07Z</time></trkpt><trkpt lat="41.112446596709205" lon="9.463534995525714"><ele>7.0</ele><time>2026-05-02T07:14:08Z</time></trkpt><trkpt lat="41.11231054181744" lon="9.463434532878575"><ele>7.0</ele><time>2026-05-02T07:14:09Z</time></trkpt><trkpt lat="41.11217168584145" lon="9.463360122319086"><ele>7.0</ele><time>2026-05-02T07:14:10Z</time></trkpt><trkpt lat="41.11201809643331" lon="9.46332120372136"><ele>7.0</ele><time>2026-05-02T07:14:11Z</time></trkpt><trkpt lat="41.11185991686559" lon="9.463309119195207"><ele>7.0</ele><time>2026-05-02T07:14:12Z</time></trkpt><trkpt lat="41.1117046175762" lon="9.463324751929598"><ele>7.0</ele><time>2026-05-02T07:14:13Z</time></trkpt><trkpt lat="41.1115472325322" lon="9.46336344364008"><ele>7.666666666666667</ele><time>2026-05-02T07:14:14Z</time></trkpt><trkpt lat="41.11138376404722" lon="9.463437806046025"><ele>8.333333333333334</ele><time>2026-05-02T07:14:15Z</time></trkpt><trkpt lat="41.111216043105706" lon="9.46352266694633"><ele>9.0</ele><time>2026-05-02T07:14:16Z</time></trkpt><trkpt lat="41.11103537037966" lon="9.463610447581043"><ele>9.0</ele><time>2026-05-02T07:14:17Z</time></trkpt><trkpt lat="41.1108467159427" lon="9.463690601918723"><ele>9.0</ele><time>2026-05-02T07:14:18Z</time></trkpt><trkpt lat="41.11065380492664" lon="9.463767888757078"><ele>9.0</ele><time>2026-05-02T07:14:19Z</time></trkpt><trkpt lat="41.11046626010324" lon="9.463845860746472"><ele>12.0</ele><time>2026-05-02T07:14:20Z</time></trkpt><trkpt lat="41.11030182454073" lon="9.463920205809886"><ele>15.0</ele><time>2026-05-02T07:14:21Z</time></trkpt><trkpt lat="41.11012250801186" lon="9.463978749924904"><ele>18.0</ele><time>2026-05-02T07:14:22Z</time></trkpt><trkpt lat="41.109914250498306" lon="9.464068404685044"><ele>21.666666666666664</ele><time>2026-05-02T07:14:23Z</time></trkpt><trkpt lat="41.10971318375351" lon="9.464166588108833"><ele>25.333333333333332</ele><time>2026-05-02T07:14:24Z</time></trkpt><trkpt lat="41.109507071253844" lon="9.464241379646651"><ele>29.0</ele><time>2026-05-02T07:14:25Z</time></trkpt><trkpt lat="41.109315075871145" lon="9.464311195662864"><ele>29.0</ele><time>2026-05-02T07:14:26Z</time></trkpt><trkpt lat="41.10911647664299" lon="9.464348471687863"><ele>29.0</ele><time>2026-05-02T07:14:27Z</time></trkpt><trkpt lat="41.108917575278525" lon="9.464343256724518"><ele>29.0</ele><time>2026-05-02T07:14:28Z</time></trkpt><trkpt lat="41.10871810610981" lon="9.464306932031802"><ele>31.5</ele><time>2026-05-02T07:14:29Z</time></trkpt><trkpt lat="41.108585656157274" lon="9.464233607394299"><ele>34.0</ele><time>2026-05-02T07:14:30Z</time></trkpt><trkpt lat="41.10851172905679" lon="9.464075705200523"><ele>36.5</ele><time>2026-05-02T07:14:31Z</time></trkpt><trkpt lat="41.10845676328876" lon="9.46393705777376"><ele>39.0</ele><time>2026-05-02T07:14:32Z</time></trkpt><trkpt lat="41.10843207818469" lon="9.463737265274123"><ele>40.333333333333336</ele><time>2026-05-02T07:14:33Z</time></trkpt><trkpt lat="41.10850757491143" lon="9.463530276427036"><ele>41.66666666666667</ele><time>2026-05-02T07:14:34Z</time></trkpt><trkpt lat="41.108627835031996" lon="9.463369156953318"><ele>43.0</ele><time>2026-05-02T07:14:35Z</time></trkpt><trkpt lat="41.10877266450181" lon="9.463186941736582"><ele>43.0</ele><time>2026-05-02T07:14:36Z</time></trkpt><trkpt lat="41.10895279189149" lon="9.46302348941284"><ele>43.0</ele><time>2026-05-02T07:14:37Z</time></trkpt><trkpt lat="41.10910405452145" lon="9.462846210935368"><ele>43.0</ele><time>2026-05-02T07:14:38Z</time></trkpt><trkpt lat="41.10922446071053" lon="9.462675070607968"><ele>42.66666666666667</ele><time>2026-05-02T07:14:39Z</time></trkpt><trkpt lat="41.10930294351497" lon="9.462471705983464"><ele>42.333333333333336</ele><time>2026-05-02T07:14:40Z</time></trkpt><trkpt lat="41.10932760036108" lon="9.462255251735778"><ele>42.0</ele><time>2026-05-02T07:14:41Z</time></trkpt><trkpt lat="41.10931031699912" lon="9.462038331836046"><ele>43.666666666666664</ele><time>2026-05-02T07:14:42Z</time></trkpt><trkpt lat="41.10923528919008" lon="9.461828285035855"><ele>45.33333333333333</ele><time>2026-05-02T07:14:43Z</time></trkpt><trkpt lat="41.10912482389572" lon="9.461603047175423"><ele>47.0</ele><time>2026-05-02T07:14:44Z</time></trkpt><trkpt lat="41.108959846914104" lon="9.461396211515625"><ele>48.0</ele><time>2026-05-02T07:14:45Z</time></trkpt><trkpt lat="41.10882058270705" lon="9.461176049135254"><ele>49.0</ele><time>2026-05-02T07:14:46Z</time></trkpt><trkpt lat="41.108685692158915" lon="9.460943037418785"><ele>50.0</ele><time>2026-05-02T07:14:47Z</time></trkpt><trkpt lat="41.108557031587445" lon="9.460710506710148"><ele>50.0</ele><time>2026-05-02T07:14:48Z</time></trkpt><trkpt lat="41.10843033019387" lon="9.46048985588524"><ele>50.0</ele><time>2026-05-02T07:14:49Z</time></trkpt><trkpt lat="41.10830349902791" lon="9.46026909909108"><ele>50.0</ele><time>2026-05-02T07:14:50Z</time></trkpt><trkpt lat="41.108179383253656" lon="9.460061730640454"><ele>51.0</ele><time>2026-05-02T07:14:51Z</time></trkpt><trkpt lat="41.10806494625838" lon="9.459855524176923"><ele>52.0</ele><time>2026-05-02T07:14:52Z</time></trkpt><trkpt lat="41.107951138145296" lon="9.459650707556055"><ele>53.0</ele><time>2026-05-02T07:14:53Z</time></trkpt><trkpt lat="41.10784068668236" lon="9.459446479436792"><ele>50.333333333333336</ele><time>2026-05-02T07:14:54Z</time></trkpt><trkpt lat="41.107730041952316" lon="9.459244857527993"><ele>47.66666666666667</ele><time>2026-05-02T07:14:55Z</time></trkpt><trkpt lat="41.10762039386601" lon="9.459058214119768"><ele>45.0</ele><time>2026-05-02T07:14:56Z</time></trkpt><trkpt lat="41.107509980820254" lon="9.458878113376663"><ele>44.0</ele><time>2026-05-02T07:14:57Z</time></trkpt><trkpt lat="41.10739248308016" lon="9.458702407793853"><ele>43.0</ele><time>2026-05-02T07:14:58Z</time></trkpt><trkpt lat="41.10725235407496" lon="9.45854568894034"><ele>42.0</ele><time>2026-05-02T07:14:59Z</time></trkpt><trkpt lat="41.10709879906651" lon="9.458409221755211"><ele>42.0</ele><time>2026-05-02T07:15:00Z</time></trkpt><trkpt lat="41.10696053484809" lon="9.458252720519361"><ele>42.0</ele><time>2026-05-02T07:15:01Z</time></trkpt><trkpt lat="41.10682269511749" lon="9.458104522556633"><ele>42.0</ele><time>2026-05-02T07:15:02Z</time></trkpt><trkpt lat="41.106697412843296" lon="9.457951753701023"><ele>42.333333333333336</ele><time>2026-05-02T07:15:03Z</time></trkpt><trkpt lat="41.1065950317266" lon="9.4577944118685"><ele>42.66666666666667</ele><time>2026-05-02T07:15:04Z</time></trkpt><trkpt lat="41.106488319952135" lon="9.457628893055006"><ele>43.0</ele><time>2026-05-02T07:15:05Z</time></trkpt><trkpt lat="41.106397647132354" lon="9.457452228325273"><ele>43.0</ele><time>2026-05-02T07:15:06Z</time></trkpt><trkpt lat="41.10630677009513" lon="9.457292097596017"><ele>43.0</ele><time>2026-05-02T07:15:07Z</time></trkpt><trkpt lat="41.10621467128347" lon="9.457136923504684"><ele>43.0</ele><time>2026-05-02T07:15:08Z</time></trkpt><trkpt lat="41.10611353957975" lon="9.456988910372678"><ele>40.333333333333336</ele><time>2026-05-02T07:15:09Z</time></trkpt><trkpt lat="41.105997418167135" lon="9.456851955061632"><ele>37.666666666666664</ele><time>2026-05-02T07:15:10Z</time></trkpt><trkpt lat="41.10586368320874" lon="9.456740536908343"><ele>35.0</ele><time>2026-05-02T07:15:11Z</time></trkpt><trkpt lat="41.105709798124366" lon="9.4566733044473"><ele>34.0</ele><time>2026-05-02T07:15:12Z</time></trkpt><trkpt lat="41.10555394609982" lon="9.456630736742506"><ele>33.0</ele><time>2026-05-02T07:15:13Z</time></trkpt><trkpt lat="41.105406732940445" lon="9.456598423307685"><ele>32.0</ele><time>2026-05-02T07:15:14Z</time></trkpt><trkpt lat="41.1052363280815" lon="9.456639166460251"><ele>32.0</ele><time>2026-05-02T07:15:15Z</time></trkpt><trkpt lat="41.10507774664925" lon="9.456687024371655"><ele>32.0</ele><time>2026-05-02T07:15:16Z</time></trkpt><trkpt lat="41.1049171062301" lon="9.456702287957123"><ele>32.0</ele><time>2026-05-02T07:15:17Z</time></trkpt><trkpt lat="41.10473856407558" lon="9.456732139137415"><ele>30.666666666666664</ele><time>2026-05-02T07:15:18Z</time></trkpt><trkpt lat="41.10455473934659" lon="9.456776299747865"><ele>29.333333333333336</ele><time>2026-05-02T07:15:19Z</time></trkpt><trkpt lat="41.104359574814" lon="9.456804506394674"><ele>28.0</ele><time>2026-05-02T07:15:20Z</time></trkpt><trkpt lat="41.10415926829605" lon="9.456831324698246"><ele>26.0</ele><time>2026-05-02T07:15:21Z</time></trkpt><trkpt lat="41.10396059588857" lon="9.456859581548908"><ele>24.0</ele><time>2026-05-02T07:15:22Z</time></trkpt><trkpt lat="41.10377040021223" lon="9.456893702476183"><ele>22.0</ele><time>2026-05-02T07:15:23Z</time></trkpt><trkpt lat="41.103582218290384" lon="9.456907748340962"><ele>22.0</ele><time>2026-05-02T07:15:24Z</time></trkpt><trkpt lat="41.10340513433455" lon="9.456885651148832"><ele>22.0</ele><time>2026-05-02T07:15:25Z</time></trkpt><trkpt lat="41.10323471989414" lon="9.456813149372561"><ele>22.0</ele><time>2026-05-02T07:15:26Z</time></trkpt><trkpt lat="41.10308473952966" lon="9.456719322332559"><ele>21.0</ele><time>2026-05-02T07:15:27Z</time></trkpt><trkpt lat="41.10293372265969" lon="9.456574402072192"><ele>20.0</ele><time>2026-05-02T07:15:28Z</time></trkpt><trkpt lat="41.10274118497822" lon="9.456412021399569"><ele>19.0</ele><time>2026-05-02T07:15:29Z</time></trkpt><trkpt lat="41.10253230617669" lon="9.456261979075599"><ele>17.0</ele><time>2026-05-02T07:15:30Z</time></trkpt><trkpt lat="41.10234503318106" lon="9.456089667646658"><ele>15.0</ele><time>2026-05-02T07:15:31Z</time></trkpt><trkpt lat="41.10216524880599" lon="9.455928984063771"><ele>13.0</ele><time>2026-05-02T07:15:32Z</time></trkpt><trkpt lat="41.10197020768131" lon="9.455837540667392"><ele>13.0</ele><time>2026-05-02T07:15:33Z</time></trkpt><trkpt lat="41.10176048178785" lon="9.455771533377845"><ele>13.0</ele><time>2026-05-02T07:15:34Z</time></trkpt><trkpt lat="41.10154507697183" lon="9.45574911955756"><ele>13.0</ele><time>2026-05-02T07:15:35Z</time></trkpt><trkpt lat="41.101319112106616" lon="9.455719800318079"><ele>13.5</ele><time>2026-05-02T07:15:36Z</time></trkpt><trkpt lat="41.1010927361022" lon="9.455715112231248"><ele>14.0</ele><time>2026-05-02T07:15:37Z</time></trkpt><trkpt lat="41.10085465153583" lon="9.455677828120539"><ele>14.0</ele><time>2026-05-02T07:15:38Z</time></trkpt><trkpt lat="41.10060844775987" lon="9.455646163479535"><ele>14.0</ele><time>2026-05-02T07:15:39Z</time></trkpt><trkpt lat="41.10037209160377" lon="9.45563189158086"><ele>14.0</ele><time>2026-05-02T07:15:40Z</time></trkpt><trkpt lat="41.100136548471326" lon="9.455582340867142"><ele>14.0</ele><time>2026-05-02T07:15:41Z</time></trkpt><trkpt lat="41.09992148138706" lon="9.455503309173118"><ele>16.0</ele><time>2026-05-02T07:15:42Z</time></trkpt><trkpt lat="41.09973414229942" lon="9.455359635122148"><ele>18.0</ele><time>2026-05-02T07:15:43Z</time></trkpt><trkpt lat="41.099564084602655" lon="9.455140541228728"><ele>18.0</ele><time>2026-05-02T07:15:44Z</time></trkpt><trkpt lat="41.0993929822358" lon="9.454879678089013"><ele>18.0</ele><time>2026-05-02T07:15:45Z</time></trkpt><trkpt lat="41.09921398079438" lon="9.454618575106077"><ele>17.5</ele><time>2026-05-02T07:15:46Z</time></trkpt><trkpt lat="41.09904534494355" lon="9.454360067874553"><ele>17.0</ele><time>2026-05-02T07:15:47Z</time></trkpt><trkpt lat="41.09886980351197" lon="9.454110359754031"><ele>17.0</ele><time>2026-05-02T07:15:48Z</time></trkpt><trkpt lat="41.09867014354889" lon="9.453899184916374"><ele>17.0</ele><time>2026-05-02T07:15:49Z</time></trkpt><trkpt lat="41.09842963804095" lon="9.453755564108468"><ele>16.0</ele><time>2026-05-02T07:15:50Z</time></trkpt><trkpt lat="41.098169746746834" lon="9.453682429435949"><ele>15.0</ele><time>2026-05-02T07:15:51Z</time></trkpt><trkpt lat="41.097905057378256" lon="9.453627710753175"><ele>15.0</ele><time>2026-05-02T07:15:52Z</time></trkpt><trkpt lat="41.09762805822511" lon="9.453555607631195"><ele>15.0</ele><time>2026-05-02T07:15:53Z</time></trkpt><trkpt lat="41.09735963463244" lon="9.453457745084956"><ele>16.0</ele><time>2026-05-02T07:15:54Z</time></trkpt><trkpt lat="41.0970973994195" lon="9.453360552809444"><ele>17.0</ele><time>2026-05-02T07:15:55Z</time></trkpt><trkpt lat="41.0968480884124" lon="9.453273243519476"><ele>17.0</ele><time>2026-05-02T07:15:56Z</time></trkpt><trkpt lat="41.09660845474265" lon="9.45318951431825"><ele>17.0</ele><time>2026-05-02T07:15:57Z</time></trkpt><trkpt lat="41.09637478378551" lon="9.453108298582501"><ele>17.5</ele><time>2026-05-02T07:15:58Z</time></trkpt><trkpt lat="41.09615065713544" lon="9.453030238487177"><ele>18.0</ele><time>2026-05-02T07:15:59Z</time></trkpt><trkpt lat="41.09593119696787" lon="9.452950275984719"><ele>17.0</ele><time>2026-05-02T07:16:00Z</time></trkpt><trkpt lat="41.09570646447998" lon="9.452868100630525"><ele>16.0</ele><time>2026-05-02T07:16:01Z</time></trkpt><trkpt lat="41.095479161817885" lon="9.452772495454985"><ele>16.0</ele><time>2026-05-02T07:16:02Z</time></trkpt><trkpt lat="41.095245996877026" lon="9.452672076019232"><ele>16.0</ele><time>2026-05-02T07:16:03Z</time></trkpt><trkpt lat="41.09501766032691" lon="9.452561514776997"><ele>18.0</ele><time>2026-05-02T07:16:04Z</time></trkpt><trkpt lat="41.09478614946155" lon="9.452454759350442"><ele>20.0</ele><time>2026-05-02T07:16:05Z</time></trkpt><trkpt lat="41.094557355709654" lon="9.45235133727207"><ele>20.0</ele><time>2026-05-02T07:16:06Z</time></trkpt><trkpt lat="41.094325390665915" lon="9.452250535811247"><ele>20.0</ele><time>2026-05-02T07:16:07Z</time></trkpt><trkpt lat="41.09409960992217" lon="9.452152600380206"><ele>18.0</ele><time>2026-05-02T07:16:08Z</time></trkpt><trkpt lat="41.093884032154484" lon="9.4520544624"><ele>16.0</ele><time>2026-05-02T07:16:09Z</time></trkpt><trkpt lat="41.0936739279134" lon="9.451955861447248"><ele>16.0</ele><time>2026-05-02T07:16:10Z</time></trkpt><trkpt lat="41.0934652443511" lon="9.451867644436366"><ele>16.0</ele><time>2026-05-02T07:16:11Z</time></trkpt><trkpt lat="41.09325813244896" lon="9.45180688937315"><ele>16.0</ele><time>2026-05-02T07:16:12Z</time></trkpt><trkpt lat="41.09310344390489" lon="9.451829293557708"><ele>16.5</ele><time>2026-05-02T07:16:13Z</time></trkpt><trkpt lat="41.09287126230678" lon="9.45187305665997"><ele>17.0</ele><time>2026-05-02T07:16:14Z</time></trkpt><trkpt lat="41.09263368333064" lon="9.451988401986828"><ele>19.5</ele><time>2026-05-02T07:16:15Z</time></trkpt><trkpt lat="41.09241622094855" lon="9.452135321292912"><ele>22.0</ele><time>2026-05-02T07:16:16Z</time></trkpt><trkpt lat="41.09221910491666" lon="9.452275552071205"><ele>22.0</ele><time>2026-05-02T07:16:17Z</time></trkpt><trkpt lat="41.092032224085905" lon="9.452429134808046"><ele>22.0</ele><time>2026-05-02T07:16:18Z</time></trkpt><trkpt lat="41.091875890290844" lon="9.452577944634593"><ele>22.0</ele><time>2026-05-02T07:16:19Z</time></trkpt><trkpt lat="41.09171254440049" lon="9.452747400366285"><ele>21.666666666666664</ele><time>2026-05-02T07:16:20Z</time></trkpt><trkpt lat="41.091549829612084" lon="9.452904171422066"><ele>21.333333333333332</ele><time>2026-05-02T07:16:21Z</time></trkpt><trkpt lat="41.09138254675247" lon="9.453048009352514"><ele>21.0</ele><time>2026-05-02T07:16:22Z</time></trkpt><trkpt lat="41.09119401284725" lon="9.453139373338065"><ele>22.333333333333336</ele><time>2026-05-02T07:16:23Z</time></trkpt><trkpt lat="41.09099647883388" lon="9.453166594507817"><ele>23.666666666666668</ele><time>2026-05-02T07:16:24Z</time></trkpt><trkpt lat="41.09080062479536" lon="9.453152122237313"><ele>25.0</ele><time>2026-05-02T07:16:25Z</time></trkpt><trkpt lat="41.09061658403866" lon="9.453143921853105"><ele>25.0</ele><time>2026-05-02T07:16:26Z</time></trkpt><trkpt lat="41.09043759323244" lon="9.453169138028544"><ele>25.0</ele><time>2026-05-02T07:16:27Z</time></trkpt><trkpt lat="41.09028612720818" lon="9.453186160280234"><ele>25.0</ele><time>2026-05-02T07:16:28Z</time></trkpt><trkpt lat="41.0901213140239" lon="9.45320706644166"><ele>25.0</ele><time>2026-05-02T07:16:29Z</time></trkpt><trkpt lat="41.089959864344294" lon="9.453222542485292"><ele>25.0</ele><time>2026-05-02T07:16:30Z</time></trkpt><trkpt lat="41.0897791242423" lon="9.453250114476438"><ele>25.0</ele><time>2026-05-02T07:16:31Z</time></trkpt><trkpt lat="41.08960090636594" lon="9.45328913299748"><ele>23.333333333333336</ele><time>2026-05-02T07:16:32Z</time></trkpt><trkpt lat="41.08941509298375" lon="9.4533739389217"><ele>21.666666666666668</ele><time>2026-05-02T07:16:33Z</time></trkpt><trkpt lat="41.08923171777215" lon="9.45348278835071"><ele>20.0</ele><time>2026-05-02T07:16:34Z</time></trkpt><trkpt lat="41.089046238517874" lon="9.453603483243068"><ele>19.666666666666668</ele><time>2026-05-02T07:16:35Z</time></trkpt><trkpt lat="41.08886110995977" lon="9.453727752597585"><ele>19.333333333333332</ele><time>2026-05-02T07:16:36Z</time></trkpt><trkpt lat="41.088683365189254" lon="9.453825612742332"><ele>19.0</ele><time>2026-05-02T07:16:37Z</time></trkpt><trkpt lat="41.088490934492015" lon="9.453933726663632"><ele>19.0</ele><time>2026-05-02T07:16:38Z</time></trkpt><trkpt lat="41.08828460901061" lon="9.454006822261777"><ele>19.0</ele><time>2026-05-02T07:16:39Z</time></trkpt><trkpt lat="41.088099334655496" lon="9.454014465318522"><ele>19.0</ele><time>2026-05-02T07:16:40Z</time></trkpt><trkpt lat="41.08788301137548" lon="9.45395144021112"><ele>19.666666666666664</ele><time>2026-05-02T07:16:41Z</time></trkpt><trkpt lat="41.08768598952052" lon="9.453839973591966"><ele>20.333333333333332</ele><time>2026-05-02T07:16:42Z</time></trkpt><trkpt lat="41.08751400424059" lon="9.453716904220341"><ele>21.0</ele><time>2026-05-02T07:16:43Z</time></trkpt><trkpt lat="41.0873570191757" lon="9.453596623360916"><ele>21.0</ele><time>2026-05-02T07:16:44Z</time></trkpt><trkpt lat="41.087202803012936" lon="9.453498118239544"><ele>21.0</ele><time>2026-05-02T07:16:45Z</time></trkpt><trkpt lat="41.08704021839465" lon="9.453403264682386"><ele>21.0</ele><time>2026-05-02T07:16:46Z</time></trkpt><trkpt lat="41.08688062252134" lon="9.453318494190638"><ele>21.0</ele><time>2026-05-02T07:16:47Z</time></trkpt><trkpt lat="41.08672480004427" lon="9.453245913393458"><ele>21.0</ele><time>2026-05-02T07:16:48Z</time></trkpt><trkpt lat="41.08655981485452" lon="9.45320086928418"><ele>21.0</ele><time>2026-05-02T07:16:49Z</time></trkpt><trkpt lat="41.086391613905825" lon="9.453207917676648"><ele>21.0</ele><time>2026-05-02T07:16:50Z</time></trkpt><trkpt lat="41.086220348217495" lon="9.453261742878777"><ele>21.0</ele><time>2026-05-02T07:16:51Z</time></trkpt><trkpt lat="41.08605102938931" lon="9.453347331168274"><ele>21.0</ele><time>2026-05-02T07:16:52Z</time></trkpt><trkpt lat="41.08589085870753" lon="9.453467472937428"><ele>20.0</ele><time>2026-05-02T07:16:53Z</time></trkpt><trkpt lat="41.08574303627556" lon="9.453617131449965"><ele>19.0</ele><time>2026-05-02T07:16:54Z</time></trkpt><trkpt lat="41.08562356822953" lon="9.45379612488571"><ele>18.0</ele><time>2026-05-02T07:16:55Z</time></trkpt><trkpt lat="41.08554062348008" lon="9.453981728076926"><ele>18.0</ele><time>2026-05-02T07:16:56Z</time></trkpt><trkpt lat="41.0854878249318" lon="9.454140874041252"><ele>18.0</ele><time>2026-05-02T07:16:57Z</time></trkpt><trkpt lat="41.08545357343737" lon="9.454259145260421"><ele>18.0</ele><time>2026-05-02T07:16:58Z</time></trkpt><trkpt lat="41.08532752205261" lon="9.454330088281576"><ele>18.0</ele><time>2026-05-02T07:17:00Z</time></trkpt><trkpt lat="41.08523074721246" lon="9.454278623277588"><ele>18.0</ele><time>2026-05-02T07:17:01Z</time></trkpt><trkpt lat="41.085121177833955" lon="9.454192226262897"><ele>18.0</ele><time>2026-05-02T07:17:02Z</time></trkpt><trkpt lat="41.084993205966974" lon="9.45405663907924"><ele>18.0</ele><time>2026-05-02T07:17:03Z</time></trkpt><trkpt lat="41.08484094798369" lon="9.453944469822677"><ele>16.333333333333332</ele><time>2026-05-02T07:17:04Z</time></trkpt><trkpt lat="41.08469611568843" lon="9.453832740395136"><ele>14.666666666666666</ele><time>2026-05-02T07:17:05Z</time></trkpt><trkpt lat="41.08455766459533" lon="9.453722897875988"><ele>13.0</ele><time>2026-05-02T07:17:06Z</time></trkpt><trkpt lat="41.084424467363455" lon="9.453620465120764"><ele>13.0</ele><time>2026-05-02T07:17:07Z</time></trkpt><trkpt lat="41.0842924471582" lon="9.453513794212009"><ele>13.0</ele><time>2026-05-02T07:17:08Z</time></trkpt><trkpt lat="41.08416477407866" lon="9.453395858813803"><ele>13.0</ele><time>2026-05-02T07:17:09Z</time></trkpt><trkpt lat="41.08402732954291" lon="9.453277517345388"><ele>11.666666666666666</ele><time>2026-05-02T07:17:10Z</time></trkpt><trkpt lat="41.08390026422351" lon="9.453139165885732"><ele>10.333333333333332</ele><time>2026-05-02T07:17:11Z</time></trkpt><trkpt lat="41.08379130918534" lon="9.452957289356318"><ele>9.0</ele><time>2026-05-02T07:17:12Z</time></trkpt><trkpt lat="41.08370799331881" lon="9.45276282853183"><ele>9.0</ele><time>2026-05-02T07:17:13Z</time></trkpt><trkpt lat="41.08362489745336" lon="9.452567165288926"><ele>9.0</ele><time>2026-05-02T07:17:14Z</time></trkpt><trkpt lat="41.083540278148796" lon="9.452334282465188"><ele>9.0</ele><time>2026-05-02T07:17:15Z</time></trkpt><trkpt lat="41.08346416029219" lon="9.452097322842093"><ele>8.0</ele><time>2026-05-02T07:17:16Z</time></trkpt><trkpt lat="41.083388665716285" lon="9.451846092858938"><ele>7.0</ele><time>2026-05-02T07:17:17Z</time></trkpt><trkpt lat="41.0833036270171" lon="9.451606220626987"><ele>6.0</ele><time>2026-05-02T07:17:18Z</time></trkpt><trkpt lat="41.08321822685173" lon="9.451360762873685"><ele>5.0</ele><time>2026-05-02T07:17:19Z</time></trkpt><trkpt lat="41.08313563745064" lon="9.451115481548218"><ele>4.0</ele><time>2026-05-02T07:17:20Z</time></trkpt><trkpt lat="41.083048400614814" lon="9.450871449836153"><ele>3.0</ele><time>2026-05-02T07:17:21Z</time></trkpt><trkpt lat="41.08296032785729" lon="9.450630101093981"><ele>3.0</ele><time>2026-05-02T07:17:22Z</time></trkpt><trkpt lat="41.08287677090307" lon="9.450386351117313"><ele>3.0</ele><time>2026-05-02T07:17:23Z</time></trkpt><trkpt lat="41.08280274680495" lon="9.450158252077616"><ele>3.0</ele><time>2026-05-02T07:17:24Z</time></trkpt><trkpt lat="41.08272084901944" lon="9.449895079762292"><ele>2.6666666666666665</ele><time>2026-05-02T07:17:25Z</time></trkpt><trkpt lat="41.082663427121254" lon="9.449624376238479"><ele>2.333333333333333</ele><time>2026-05-02T07:17:26Z</time></trkpt><trkpt lat="41.0826409006649" lon="9.449336287536287"><ele>2.0</ele><time>2026-05-02T07:17:27Z</time></trkpt><trkpt lat="41.08262816484828" lon="9.449053978100382"><ele>2.0</ele><time>2026-05-02T07:17:28Z</time></trkpt><trkpt lat="41.08262161811528" lon="9.448782563698384"><ele>2.0</ele><time>2026-05-02T07:17:29Z</time></trkpt><trkpt lat="41.082608411697045" lon="9.4485293645108"><ele>2.0</ele><time>2026-05-02T07:17:30Z</time></trkpt><trkpt lat="41.082607614406534" lon="9.448284342932935"><ele>2.0</ele><time>2026-05-02T07:17:31Z</time></trkpt><trkpt lat="41.08263824069278" lon="9.44805886000303"><ele>2.0</ele><time>2026-05-02T07:17:32Z</time></trkpt><trkpt lat="41.08272595612958" lon="9.447858250784467"><ele>2.0</ele><time>2026-05-02T07:17:33Z</time></trkpt><trkpt lat="41.082809870401626" lon="9.447632894765176"><ele>2.0</ele><time>2026-05-02T07:17:34Z</time></trkpt><trkpt lat="41.08292922646639" lon="9.447414603547587"><ele>2.0</ele><time>2026-05-02T07:17:35Z</time></trkpt><trkpt lat="41.08303395198456" lon="9.447190895080423"><ele>2.0</ele><time>2026-05-02T07:17:36Z</time></trkpt><trkpt lat="41.08311257313523" lon="9.44696370767715"><ele>2.0</ele><time>2026-05-02T07:17:37Z</time></trkpt><trkpt lat="41.08316191359643" lon="9.446711869797763"><ele>2.0</ele><time>2026-05-02T07:17:38Z</time></trkpt><trkpt lat="41.083177355579345" lon="9.446445288252512"><ele>2.0</ele><time>2026-05-02T07:17:39Z</time></trkpt><trkpt lat="41.083158390233734" lon="9.446171875196644"><ele>2.6666666666666665</ele><time>2026-05-02T07:17:40Z</time></trkpt><trkpt lat="41.08312568393017" lon="9.445933493608628"><ele>3.333333333333333</ele><time>2026-05-02T07:17:41Z</time></trkpt><trkpt lat="41.08311696994663" lon="9.445703321846969"><ele>4.0</ele><time>2026-05-02T07:17:42Z</time></trkpt><trkpt lat="41.08310341121369" lon="9.44546622591977"><ele>4.0</ele><time>2026-05-02T07:17:43Z</time></trkpt><trkpt lat="41.08309000432279" lon="9.445218542214045"><ele>4.0</ele><time>2026-05-02T07:17:44Z</time></trkpt><trkpt lat="41.08308320990442" lon="9.444955488508569"><ele>4.0</ele><time>2026-05-02T07:17:45Z</time></trkpt><trkpt lat="41.08307160993972" lon="9.444686767020134"><ele>3.333333333333333</ele><time>2026-05-02T07:17:46Z</time></trkpt><trkpt lat="41.083060927808965" lon="9.444419606922464"><ele>2.6666666666666665</ele><time>2026-05-02T07:17:47Z</time></trkpt><trkpt lat="41.083054888041495" lon="9.444161832034961"><ele>2.0</ele><time>2026-05-02T07:17:48Z</time></trkpt><trkpt lat="41.083059380510036" lon="9.443896450861722"><ele>2.0</ele><time>2026-05-02T07:17:49Z</time></trkpt><trkpt lat="41.083124431071695" lon="9.443643255336763"><ele>2.0</ele><time>2026-05-02T07:17:50Z</time></trkpt><trkpt lat="41.08321200817462" lon="9.443403775786873"><ele>2.0</ele><time>2026-05-02T07:17:51Z</time></trkpt><trkpt lat="41.083347209567684" lon="9.443190210682447"><ele>2.0</ele><time>2026-05-02T07:17:52Z</time></trkpt><trkpt lat="41.08350405184516" lon="9.442992528919897"><ele>2.0</ele><time>2026-05-02T07:17:53Z</time></trkpt><trkpt lat="41.08365221141726" lon="9.44279148843705"><ele>2.0</ele><time>2026-05-02T07:17:54Z</time></trkpt><trkpt lat="41.083816273944876" lon="9.442613217861703"><ele>2.0</ele><time>2026-05-02T07:17:55Z</time></trkpt><trkpt lat="41.08397206517952" lon="9.442438174541918"><ele>2.0</ele><time>2026-05-02T07:17:56Z</time></trkpt><trkpt lat="41.0841098047188" lon="9.44226547893486"><ele>2.0</ele><time>2026-05-02T07:17:57Z</time></trkpt><trkpt lat="41.08422061352898" lon="9.44207547919995"><ele>2.6666666666666665</ele><time>2026-05-02T07:17:58Z</time></trkpt><trkpt lat="41.08428626470409" lon="9.44183464377231"><ele>3.333333333333333</ele><time>2026-05-02T07:17:59Z</time></trkpt><trkpt lat="41.084320021824" lon="9.441566370010882"><ele>4.0</ele><time>2026-05-02T07:18:00Z</time></trkpt><trkpt lat="41.08432211584721" lon="9.441282813357573"><ele>4.0</ele><time>2026-05-02T07:18:00.999Z</time></trkpt><trkpt lat="41.08431433062985" lon="9.441000254233332"><ele>4.0</ele><time>2026-05-02T07:18:01.999Z</time></trkpt><trkpt lat="41.08431781113903" lon="9.440712461088047"><ele>4.0</ele><time>2026-05-02T07:18:02.999Z</time></trkpt><trkpt lat="41.08432763661145" lon="9.440433563774064"><ele>4.666666666666666</ele><time>2026-05-02T07:18:03.999Z</time></trkpt><trkpt lat="41.08434584205373" lon="9.44015792914616"><ele>5.333333333333333</ele><time>2026-05-02T07:18:04.999Z</time></trkpt><trkpt lat="41.084372662133696" lon="9.439887667418697"><ele>6.0</ele><time>2026-05-02T07:18:05.999Z</time></trkpt><trkpt lat="41.084395838185976" lon="9.439621496620738"><ele>6.0</ele><time>2026-05-02T07:18:06.999Z</time></trkpt><trkpt lat="41.08441654945243" lon="9.439348357030964"><ele>6.0</ele><time>2026-05-02T07:18:07.999Z</time></trkpt><trkpt lat="41.08444196238852" lon="9.439072969830772"><ele>6.0</ele><time>2026-05-02T07:18:08.999Z</time></trkpt><trkpt lat="41.084474641054825" lon="9.438797817141522"><ele>6.333333333333334</ele><time>2026-05-02T07:18:09.999Z</time></trkpt><trkpt lat="41.08449968160455" lon="9.438531611168315"><ele>6.666666666666667</ele><time>2026-05-02T07:18:10.999Z</time></trkpt><trkpt lat="41.084522755950424" lon="9.438269565878858"><ele>7.0</ele><time>2026-05-02T07:18:11.999Z</time></trkpt><trkpt lat="41.08454073305773" lon="9.438013765074336"><ele>7.666666666666667</ele><time>2026-05-02T07:18:12.999Z</time></trkpt><trkpt lat="41.084564975278" lon="9.437750822719437"><ele>8.333333333333334</ele><time>2026-05-02T07:18:13.999Z</time></trkpt><trkpt lat="41.08459178051257" lon="9.437487541607155"><ele>9.0</ele><time>2026-05-02T07:18:14.999Z</time></trkpt><trkpt lat="41.08461689148155" lon="9.437221090355504"><ele>8.666666666666666</ele><time>2026-05-02T07:18:15.999Z</time></trkpt><trkpt lat="41.08463887585943" lon="9.436952140221278"><ele>8.333333333333332</ele><time>2026-05-02T07:18:16.999Z</time></trkpt><trkpt lat="41.08466195875866" lon="9.436681188153534"><ele>8.0</ele><time>2026-05-02T07:18:17.999Z</time></trkpt><trkpt lat="41.08468533409893" lon="9.436407749165163"><ele>8.333333333333332</ele><time>2026-05-02T07:18:18.999Z</time></trkpt><trkpt lat="41.08470938726207" lon="9.436136749832738"><ele>8.666666666666666</ele><time>2026-05-02T07:18:19.999Z</time></trkpt><trkpt lat="41.08473285839385" lon="9.435883102509047"><ele>9.0</ele><time>2026-05-02T07:18:20.999Z</time></trkpt><trkpt lat="41.084749469203956" lon="9.435657557211284"><ele>9.5</ele><time>2026-05-02T07:18:21.999Z</time></trkpt><trkpt lat="41.084769459342866" lon="9.43544991303263"><ele>10.0</ele><time>2026-05-02T07:18:22.999Z</time></trkpt><trkpt lat="41.08478757949313" lon="9.43525790832341"><ele>10.5</ele><time>2026-05-02T07:18:23.999Z</time></trkpt><trkpt lat="41.08480788577543" lon="9.435076598856982"><ele>11.0</ele><time>2026-05-02T07:18:24.999Z</time></trkpt><trkpt lat="41.0848223188826" lon="9.434910612314109"><ele>11.0</ele><time>2026-05-02T07:18:25.999Z</time></trkpt><trkpt lat="41.084839134800404" lon="9.434771150818122"><ele>11.0</ele><time>2026-05-02T07:18:26.999Z</time></trkpt><trkpt lat="41.08485594609083" lon="9.434654458677441"><ele>11.0</ele><time>2026-05-02T07:18:27.999Z</time></trkpt><trkpt lat="41.08487728050739" lon="9.434542376891036"><ele>11.0</ele><time>2026-05-02T07:18:28.999Z</time></trkpt><trkpt lat="41.084901376125394" lon="9.434444564718554"><ele>11.0</ele><time>2026-05-02T07:18:29.999Z</time></trkpt><trkpt lat="41.08489631162326" lon="9.43434344170313"><ele>11.0</ele><time>2026-05-02T07:18:30.999Z</time></trkpt><trkpt lat="41.08490473429611" lon="9.434254272748028"><ele>11.5</ele><time>2026-05-02T07:18:31.999Z</time></trkpt><trkpt lat="41.085072308107456" lon="9.434213666953559"><ele>12.0</ele><time>2026-05-02T07:18:32.999Z</time></trkpt><trkpt lat="41.08517530364528" lon="9.434192736115797"><ele>12.5</ele><time>2026-05-02T07:18:33.999Z</time></trkpt><trkpt lat="41.08531485131655" lon="9.434181348350915"><ele>13.0</ele><time>2026-05-02T07:18:34.999Z</time></trkpt><trkpt lat="41.08547691311216" lon="9.434160300744773"><ele>13.0</ele><time>2026-05-02T07:18:35.999Z</time></trkpt><trkpt lat="41.08564038121349" lon="9.434151818253493"><ele>13.0</ele><time>2026-05-02T07:18:36.999Z</time></trkpt><trkpt lat="41.08582850635442" lon="9.43412815960125"><ele>13.0</ele><time>2026-05-02T07:18:37.999Z</time></trkpt><trkpt lat="41.08602922245268" lon="9.434103938020746"><ele>13.333333333333332</ele><time>2026-05-02T07:18:38.999Z</time></trkpt><trkpt lat="41.08623220564429" lon="9.434090067808619"><ele>13.666666666666668</ele><time>2026-05-02T07:18:39.999Z</time></trkpt><trkpt lat="41.08645218001471" lon="9.43407495177022"><ele>14.0</ele><time>2026-05-02T07:18:40.999Z</time></trkpt><trkpt lat="41.086675869504404" lon="9.434053029750258"><ele>13.0</ele><time>2026-05-02T07:18:41.999Z</time></trkpt><trkpt lat="41.086897450203395" lon="9.434029826703636"><ele>12.0</ele><time>2026-05-02T07:18:42.999Z</time></trkpt><trkpt lat="41.08710205050322" lon="9.434017661156822"><ele>11.0</ele><time>2026-05-02T07:18:43.999Z</time></trkpt><trkpt lat="41.08731089506794" lon="9.434022391359841"><ele>11.0</ele><time>2026-05-02T07:18:44.999Z</time></trkpt><trkpt lat="41.087526600132904" lon="9.434048304933993"><ele>11.0</ele><time>2026-05-02T07:18:45.999Z</time></trkpt><trkpt lat="41.08773949057918" lon="9.434114199661252"><ele>11.0</ele><time>2026-05-02T07:18:46.999Z</time></trkpt><trkpt lat="41.087948175109396" lon="9.434218594139653"><ele>11.0</ele><time>2026-05-02T07:18:47.999Z</time></trkpt><trkpt lat="41.08815084735453" lon="9.434355140905357"><ele>11.0</ele><time>2026-05-02T07:18:48.999Z</time></trkpt><trkpt lat="41.0883576744303" lon="9.434490457015373"><ele>11.0</ele><time>2026-05-02T07:18:49.999Z</time></trkpt><trkpt lat="41.08858230548186" lon="9.434622662330204"><ele>11.0</ele><time>2026-05-02T07:18:50.999Z</time></trkpt><trkpt lat="41.088798559627435" lon="9.434756594283224"><ele>11.666666666666666</ele><time>2026-05-02T07:18:51.999Z</time></trkpt><trkpt lat="41.088999776662824" lon="9.434891892521492"><ele>12.333333333333332</ele><time>2026-05-02T07:18:52.999Z</time></trkpt><trkpt lat="41.08919567152529" lon="9.435021504544691"><ele>13.0</ele><time>2026-05-02T07:18:54Z</time></trkpt><trkpt lat="41.089400278175084" lon="9.43513274031597"><ele>13.0</ele><time>2026-05-02T07:18:55Z</time></trkpt><trkpt lat="41.0896053937441" lon="9.435230234995508"><ele>13.0</ele><time>2026-05-02T07:18:56Z</time></trkpt><trkpt lat="41.08981152040961" lon="9.435317192017108"><ele>13.0</ele><time>2026-05-02T07:18:57Z</time></trkpt><trkpt lat="41.09002448067839" lon="9.43540304294714"><ele>13.5</ele><time>2026-05-02T07:18:58Z</time></trkpt><trkpt lat="41.09024532443828" lon="9.435490678430865"><ele>14.0</ele><time>2026-05-02T07:18:59Z</time></trkpt><trkpt lat="41.09046121422099" lon="9.435567983501299"><ele>14.0</ele><time>2026-05-02T07:19:00Z</time></trkpt><trkpt lat="41.09068240461651" lon="9.435652493300726"><ele>14.0</ele><time>2026-05-02T07:19:01Z</time></trkpt><trkpt lat="41.09091258908816" lon="9.435744049235252"><ele>13.5</ele><time>2026-05-02T07:19:02Z</time></trkpt><trkpt lat="41.091150862332604" lon="9.435830857509423"><ele>13.0</ele><time>2026-05-02T07:19:03Z</time></trkpt><trkpt lat="41.09138946129909" lon="9.435913140815439"><ele>12.0</ele><time>2026-05-02T07:19:04Z</time></trkpt><trkpt lat="41.09162923369959" lon="9.435995583330556"><ele>11.0</ele><time>2026-05-02T07:19:05Z</time></trkpt><trkpt lat="41.09186674195287" lon="9.436084619864856"><ele>11.0</ele><time>2026-05-02T07:19:06Z</time></trkpt><trkpt lat="41.09210917653069" lon="9.436180927565655"><ele>11.0</ele><time>2026-05-02T07:19:07Z</time></trkpt><trkpt lat="41.09235031704087" lon="9.43626771221775"><ele>11.5</ele><time>2026-05-02T07:19:08Z</time></trkpt><trkpt lat="41.09259440958912" lon="9.436360746724326"><ele>12.0</ele><time>2026-05-02T07:19:09Z</time></trkpt><trkpt lat="41.0928375575209" lon="9.436456906425397"><ele>12.0</ele><time>2026-05-02T07:19:10Z</time></trkpt><trkpt lat="41.093080094992764" lon="9.436550609197859"><ele>12.0</ele><time>2026-05-02T07:19:11Z</time></trkpt><trkpt lat="41.09332501661264" lon="9.436637060017455"><ele>13.5</ele><time>2026-05-02T07:19:12Z</time></trkpt><trkpt lat="41.09357296249116" lon="9.436710986217845"><ele>15.0</ele><time>2026-05-02T07:19:13Z</time></trkpt><trkpt lat="41.09381995129007" lon="9.436768639252481"><ele>15.0</ele><time>2026-05-02T07:19:14Z</time></trkpt><trkpt lat="41.09408125598285" lon="9.43681110367019"><ele>15.0</ele><time>2026-05-02T07:19:15Z</time></trkpt><trkpt lat="41.0943426676181" lon="9.436828468197959"><ele>14.5</ele><time>2026-05-02T07:19:16Z</time></trkpt><trkpt lat="41.09459871433293" lon="9.436828352083326"><ele>14.0</ele><time>2026-05-02T07:19:17Z</time></trkpt><trkpt lat="41.094850769343246" lon="9.436814001516076"><ele>12.5</ele><time>2026-05-02T07:19:18Z</time></trkpt><trkpt lat="41.09509726131487" lon="9.436791194709611"><ele>11.0</ele><time>2026-05-02T07:19:19Z</time></trkpt><trkpt lat="41.095335985404645" lon="9.436764585208861"><ele>11.0</ele><time>2026-05-02T07:19:20Z</time></trkpt><trkpt lat="41.095559842374236" lon="9.436740912188869"><ele>11.0</ele><time>2026-05-02T07:19:21Z</time></trkpt><trkpt lat="41.09575648833592" lon="9.436717573592238"><ele>11.0</ele><time>2026-05-02T07:19:22Z</time></trkpt><trkpt lat="41.09591982481597" lon="9.436700277204213"><ele>11.166666666666666</ele><time>2026-05-02T07:19:23Z</time></trkpt><trkpt lat="41.09605312962393" lon="9.436690190157123"><ele>11.333333333333332</ele><time>2026-05-02T07:19:24Z</time></trkpt><trkpt lat="41.09614196867993" lon="9.4366845593273"><ele>11.5</ele><time>2026-05-02T07:19:25Z</time></trkpt><trkpt lat="41.09620882213722" lon="9.436682123592657"><ele>11.666666666666666</ele><time>2026-05-02T07:19:26Z</time></trkpt><trkpt lat="41.09628253993322" lon="9.436674515634413"><ele>11.833333333333334</ele><time>2026-05-02T07:19:27Z</time></trkpt><trkpt lat="41.096367381237826" lon="9.436660423167977"><ele>12.0</ele><time>2026-05-02T07:19:28Z</time></trkpt><trkpt lat="41.09647936582255" lon="9.436642439793678"><ele>11.333333333333334</ele><time>2026-05-02T07:19:29Z</time></trkpt><trkpt lat="41.096613991495296" lon="9.436617653038883"><ele>10.666666666666668</ele><time>2026-05-02T07:19:30Z</time></trkpt><trkpt lat="41.09677307438338" lon="9.436601561260137"><ele>10.0</ele><time>2026-05-02T07:19:31Z</time></trkpt><trkpt lat="41.096934038568804" lon="9.436599445862447"><ele>10.0</ele><time>2026-05-02T07:19:32Z</time></trkpt><trkpt lat="41.0971102992112" lon="9.43660732132922"><ele>10.0</ele><time>2026-05-02T07:19:33Z</time></trkpt><trkpt lat="41.097300439874324" lon="9.436595770018709"><ele>10.0</ele><time>2026-05-02T07:19:34Z</time></trkpt><trkpt lat="41.097488556313664" lon="9.43658041246333"><ele>10.333333333333334</ele><time>2026-05-02T07:19:35Z</time></trkpt><trkpt lat="41.09767786862645" lon="9.43658679965181"><ele>10.666666666666666</ele><time>2026-05-02T07:19:36Z</time></trkpt><trkpt lat="41.09787669054439" lon="9.436613287713266"><ele>11.0</ele><time>2026-05-02T07:19:37Z</time></trkpt><trkpt lat="41.09806280973873" lon="9.436651721477151"><ele>11.0</ele><time>2026-05-02T07:19:38Z</time></trkpt><trkpt lat="41.09824499063688" lon="9.436709597262775"><ele>11.0</ele><time>2026-05-02T07:19:39Z</time></trkpt><trkpt lat="41.09842576305424" lon="9.436768733851803"><ele>11.0</ele><time>2026-05-02T07:19:40Z</time></trkpt><trkpt lat="41.0986040715202" lon="9.436830098194601"><ele>10.666666666666666</ele><time>2026-05-02T07:19:41Z</time></trkpt><trkpt lat="41.09878436319875" lon="9.436893457744834"><ele>10.333333333333334</ele><time>2026-05-02T07:19:42Z</time></trkpt><trkpt lat="41.0989691981955" lon="9.436948769370396"><ele>10.0</ele><time>2026-05-02T07:19:43Z</time></trkpt><trkpt lat="41.099156335404594" lon="9.437003287185185"><ele>9.333333333333334</ele><time>2026-05-02T07:19:44Z</time></trkpt><trkpt lat="41.09935460870186" lon="9.437061089499613"><ele>8.666666666666666</ele><time>2026-05-02T07:19:45Z</time></trkpt><trkpt lat="41.099555361679705" lon="9.4371211380502"><ele>8.0</ele><time>2026-05-02T07:19:46Z</time></trkpt><trkpt lat="41.09975595535108" lon="9.437184735987818"><ele>8.333333333333332</ele><time>2026-05-02T07:19:47Z</time></trkpt><trkpt lat="41.09996505032416" lon="9.43724233365637"><ele>8.666666666666666</ele><time>2026-05-02T07:19:48Z</time></trkpt><trkpt lat="41.10017603096221" lon="9.437304178553571"><ele>9.0</ele><time>2026-05-02T07:19:49Z</time></trkpt><trkpt lat="41.10036990354524" lon="9.437359686477825"><ele>9.0</ele><time>2026-05-02T07:19:50Z</time></trkpt><trkpt lat="41.10054950401736" lon="9.43741357640549"><ele>9.0</ele><time>2026-05-02T07:19:51Z</time></trkpt><trkpt lat="41.10074776141349" lon="9.437465308150061"><ele>9.0</ele><time>2026-05-02T07:19:52Z</time></trkpt><trkpt lat="41.100964428619534" lon="9.4375308001523"><ele>10.0</ele><time>2026-05-02T07:19:53Z</time></trkpt><trkpt lat="41.10119071373402" lon="9.437604561932533"><ele>11.0</ele><time>2026-05-02T07:19:54Z</time></trkpt><trkpt lat="41.1014219971432" lon="9.437671779650364"><ele>9.0</ele><time>2026-05-02T07:19:55Z</time></trkpt><trkpt lat="41.101657113166326" lon="9.437729844641671"><ele>7.0</ele><time>2026-05-02T07:19:56Z</time></trkpt><trkpt lat="41.10190374769554" lon="9.43779692160465"><ele>7.0</ele><time>2026-05-02T07:19:57Z</time></trkpt><trkpt lat="41.102141946412495" lon="9.437878681569984"><ele>7.0</ele><time>2026-05-02T07:19:58Z</time></trkpt><trkpt lat="41.102383817502464" lon="9.437955072704218"><ele>7.0</ele><time>2026-05-02T07:19:59Z</time></trkpt><trkpt lat="41.102602073535785" lon="9.438017439350928"><ele>7.0</ele><time>2026-05-02T07:20:00Z</time></trkpt><trkpt lat="41.1028113990285" lon="9.438069621578592"><ele>7.0</ele><time>2026-05-02T07:20:01Z</time></trkpt><trkpt lat="41.10301243778913" lon="9.438127629762205"><ele>7.0</ele><time>2026-05-02T07:20:02Z</time></trkpt><trkpt lat="41.10320639280822" lon="9.438184348941231"><ele>7.0</ele><time>2026-05-02T07:20:03Z</time></trkpt><trkpt lat="41.10340082806994" lon="9.438237947597706"><ele>7.0</ele><time>2026-05-02T07:20:04Z</time></trkpt><trkpt lat="41.10359299884787" lon="9.438290213852849"><ele>7.0</ele><time>2026-05-02T07:20:05Z</time></trkpt><trkpt lat="41.1037756694537" lon="9.438341765207499"><ele>7.0</ele><time>2026-05-02T07:20:06Z</time></trkpt><trkpt lat="41.103947347554254" lon="9.438397754848074"><ele>7.0</ele><time>2026-05-02T07:20:06.999Z</time></trkpt><trkpt lat="41.10412574234372" lon="9.438450801177215"><ele>7.0</ele><time>2026-05-02T07:20:07.999Z</time></trkpt><trkpt lat="41.10431080028056" lon="9.438478879604343"><ele>7.0</ele><time>2026-05-02T07:20:08.999Z</time></trkpt><trkpt lat="41.10449408882845" lon="9.438485273292809"><ele>7.0</ele><time>2026-05-02T07:20:09.999Z</time></trkpt><trkpt lat="41.10464807982127" lon="9.438486640397727"><ele>7.0</ele><time>2026-05-02T07:20:10.999Z</time></trkpt><trkpt lat="41.10479005213778" lon="9.438489121290141"><ele>6.999999999999999</ele><time>2026-05-02T07:20:11.999Z</time></trkpt><trkpt lat="41.10489409449566" lon="9.438496128398096"><ele>6.999999999999999</ele><time>2026-05-02T07:20:12.999Z</time></trkpt><trkpt lat="41.1049849762159" lon="9.43851282560155"><ele>7.0</ele><time>2026-05-02T07:20:13.999Z</time></trkpt><trkpt lat="41.10507173071558" lon="9.438519962725803"><ele>7.0</ele><time>2026-05-02T07:20:14.999Z</time></trkpt><trkpt lat="41.105167383442115" lon="9.438522937226173"><ele>7.5</ele><time>2026-05-02T07:20:15.999Z</time></trkpt><trkpt lat="41.10528502452009" lon="9.43853164908777"><ele>8.0</ele><time>2026-05-02T07:20:16.999Z</time></trkpt><trkpt lat="41.10540216223389" lon="9.438547393559846"><ele>8.5</ele><time>2026-05-02T07:20:17.999Z</time></trkpt><trkpt lat="41.10551884303762" lon="9.438553910745513"><ele>9.0</ele><time>2026-05-02T07:20:18.999Z</time></trkpt><trkpt lat="41.10564274224267" lon="9.438557383452531"><ele>9.25</ele><time>2026-05-02T07:20:19.999Z</time></trkpt><trkpt lat="41.1057689565272" lon="9.438564733793422"><ele>9.5</ele><time>2026-05-02T07:20:20.999Z</time></trkpt><trkpt lat="41.105897363055" lon="9.438579107588914"><ele>9.75</ele><time>2026-05-02T07:20:21.999Z</time></trkpt><trkpt lat="41.10603174665792" lon="9.438582147454431"><ele>10.0</ele><time>2026-05-02T07:20:22.999Z</time></trkpt><trkpt lat="41.106170568039595" lon="9.438594323122862"><ele>10.0</ele><time>2026-05-02T07:20:23.999Z</time></trkpt><trkpt lat="41.10630651825808" lon="9.438604413283937"><ele>10.0</ele><time>2026-05-02T07:20:24.999Z</time></trkpt><trkpt lat="41.1064419492223" lon="9.438617627114336"><ele>10.0</ele><time>2026-05-02T07:20:25.999Z</time></trkpt><trkpt lat="41.106577274996376" lon="9.438628190153704"><ele>10.0</ele><time>2026-05-02T07:20:26.999Z</time></trkpt><trkpt lat="41.106712113409635" lon="9.438642751557614"><ele>10.0</ele><time>2026-05-02T07:20:27.999Z</time></trkpt><trkpt lat="41.10684444725014" lon="9.438655821406849"><ele>10.0</ele><time>2026-05-02T07:20:28.999Z</time></trkpt><trkpt lat="41.106977857795194" lon="9.438668894925536"><ele>10.0</ele><time>2026-05-02T07:20:29.999Z</time></trkpt><trkpt lat="41.107111627644436" lon="9.438674351070661"><ele>10.0</ele><time>2026-05-02T07:20:30.999Z</time></trkpt><trkpt lat="41.10724764226763" lon="9.43867596057967"><ele>10.0</ele><time>2026-05-02T07:20:31.999Z</time></trkpt><trkpt lat="41.107378020781496" lon="9.438686458288752"><ele>10.0</ele><time>2026-05-02T07:20:32.999Z</time></trkpt><trkpt lat="41.107503755299184" lon="9.438689430229681"><ele>10.0</ele><time>2026-05-02T07:20:34Z</time></trkpt><trkpt lat="41.107621758987975" lon="9.438702863819808"><ele>10.0</ele><time>2026-05-02T07:20:35Z</time></trkpt><trkpt lat="41.10772783160778" lon="9.438712352071494"><ele>9.8</ele><time>2026-05-02T07:20:36Z</time></trkpt><trkpt lat="41.10782742839625" lon="9.43872330507751"><ele>9.6</ele><time>2026-05-02T07:20:37Z</time></trkpt><trkpt lat="41.10792678733477" lon="9.438735127923481"><ele>9.4</ele><time>2026-05-02T07:20:38Z</time></trkpt><trkpt lat="41.1080255718838" lon="9.438749447726991"><ele>9.2</ele><time>2026-05-02T07:20:39Z</time></trkpt><trkpt lat="41.10812660329472" lon="9.438772609815665"><ele>9.0</ele><time>2026-05-02T07:20:40Z</time></trkpt><trkpt lat="41.10821730872505" lon="9.438817772993495"><ele>8.666666666666666</ele><time>2026-05-02T07:20:41Z</time></trkpt><trkpt lat="41.1083023658241" lon="9.438861765403495"><ele>8.333333333333334</ele><time>2026-05-02T07:20:42Z</time></trkpt><trkpt lat="41.108380132962324" lon="9.43890235563555"><ele>8.0</ele><time>2026-05-02T07:20:43Z</time></trkpt><trkpt lat="41.10844916694853" lon="9.438934445983088"><ele>7.666666666666667</ele><time>2026-05-02T07:20:44Z</time></trkpt><trkpt lat="41.10853093368497" lon="9.438972675483104"><ele>7.333333333333334</ele><time>2026-05-02T07:20:45Z</time></trkpt><trkpt lat="41.108617584900045" lon="9.439011091337028"><ele>7.0</ele><time>2026-05-02T07:20:46Z</time></trkpt><trkpt lat="41.1087108675618" lon="9.439061220623001"><ele>7.0</ele><time>2026-05-02T07:20:47Z</time></trkpt><trkpt lat="41.10880636647894" lon="9.439107230906977"><ele>6.999999999999999</ele><time>2026-05-02T07:20:48Z</time></trkpt><trkpt lat="41.108899741681675" lon="9.439157840058376"><ele>6.999999999999999</ele><time>2026-05-02T07:20:49Z</time></trkpt><trkpt lat="41.10899374192824" lon="9.439211360651838"><ele>7.0</ele><time>2026-05-02T07:20:50Z</time></trkpt><trkpt lat="41.109085433352604" lon="9.439276766669192"><ele>7.0</ele><time>2026-05-02T07:20:51Z</time></trkpt><trkpt lat="41.10914990100396" lon="9.439371043537125"><ele>7.199999999999999</ele><time>2026-05-02T07:20:52Z</time></trkpt><trkpt lat="41.10921798865597" lon="9.439461369901327"><ele>7.3999999999999995</ele><time>2026-05-02T07:20:53Z</time></trkpt><trkpt lat="41.10929752336333" lon="9.439533852118291"><ele>7.6000000000000005</ele><time>2026-05-02T07:20:54Z</time></trkpt><trkpt lat="41.10935415323779" lon="9.43962719155859"><ele>7.800000000000001</ele><time>2026-05-02T07:20:55Z</time></trkpt><trkpt lat="41.10943431571353" lon="9.439721774658867"><ele>8.0</ele><time>2026-05-02T07:20:56Z</time></trkpt><trkpt lat="41.10952048624176" lon="9.439839043022161"><ele>7.25</ele><time>2026-05-02T07:20:57Z</time></trkpt><trkpt lat="41.10962015892408" lon="9.43996405201122"><ele>6.5</ele><time>2026-05-02T07:20:58Z</time></trkpt><trkpt lat="41.109721856635765" lon="9.440074565854607"><ele>5.75</ele><time>2026-05-02T07:20:59Z</time></trkpt><trkpt lat="41.10980916429201" lon="9.440200424355774"><ele>5.0</ele><time>2026-05-02T07:21:00Z</time></trkpt><trkpt lat="41.10988927196465" lon="9.440326174352156"><ele>5.0</ele><time>2026-05-02T07:21:01Z</time></trkpt><trkpt lat="41.10996230769924" lon="9.4404393638497"><ele>5.0</ele><time>2026-05-02T07:21:02Z</time></trkpt><trkpt lat="41.110035630477405" lon="9.440540036239424"><ele>5.0</ele><time>2026-05-02T07:21:03Z</time></trkpt><trkpt lat="41.11010474067824" lon="9.44063161046888"><ele>5.0</ele><time>2026-05-02T07:21:04Z</time></trkpt><trkpt lat="41.11017118663616" lon="9.440709010942784"><ele>5.0</ele><time>2026-05-02T07:21:05Z</time></trkpt><trkpt lat="41.110241830861035" lon="9.440790052486891"><ele>5.0</ele><time>2026-05-02T07:21:06Z</time></trkpt><trkpt lat="41.11031643775696" lon="9.440882379208615"><ele>5.0</ele><time>2026-05-02T07:21:07Z</time></trkpt><trkpt lat="41.110390674138095" lon="9.440974797343014"><ele>5.0</ele><time>2026-05-02T07:21:08Z</time></trkpt><trkpt lat="41.110461609745386" lon="9.441070293275677"><ele>5.0</ele><time>2026-05-02T07:21:09Z</time></trkpt><trkpt lat="41.110532324663524" lon="9.441168683380663"><ele>5.0</ele><time>2026-05-02T07:21:10Z</time></trkpt><trkpt lat="41.11061315382141" lon="9.441263147953896"><ele>4.6</ele><time>2026-05-02T07:21:11Z</time></trkpt><trkpt lat="41.11068772706557" lon="9.44136420449507"><ele>4.2</ele><time>2026-05-02T07:21:12Z</time></trkpt><trkpt lat="41.11074986087521" lon="9.441479259198426"><ele>3.8</ele><time>2026-05-02T07:21:13Z</time></trkpt><trkpt lat="41.11083830632523" lon="9.44154639977627"><ele>3.4</ele><time>2026-05-02T07:21:14Z</time></trkpt><trkpt lat="41.11092868883817" lon="9.441610087139482"><ele>3.0</ele><time>2026-05-02T07:21:15Z</time></trkpt><trkpt lat="41.11102130393745" lon="9.44166063761068"><ele>3.0</ele><time>2026-05-02T07:21:16Z</time></trkpt><trkpt lat="41.11111437703307" lon="9.441658679087693"><ele>3.0</ele><time>2026-05-02T07:21:17Z</time></trkpt><trkpt lat="41.11121544652885" lon="9.441631392306828"><ele>3.0</ele><time>2026-05-02T07:21:18Z</time></trkpt><trkpt lat="41.11132126370837" lon="9.44162249904763"><ele>3.0</ele><time>2026-05-02T07:21:19Z</time></trkpt><trkpt lat="41.11142387735601" lon="9.441584071261438"><ele>3.0</ele><time>2026-05-02T07:21:20Z</time></trkpt><trkpt lat="41.111521437276714" lon="9.441542516645784"><ele>2.6</ele><time>2026-05-02T07:21:21Z</time></trkpt><trkpt lat="41.11159533754589" lon="9.441453397173154"><ele>2.1999999999999997</ele><time>2026-05-02T07:21:22Z</time></trkpt><trkpt lat="41.11163126795402" lon="9.44132007548371"><ele>1.8</ele><time>2026-05-02T07:21:23Z</time></trkpt><trkpt lat="41.1116965267993" lon="9.441202166338567"><ele>1.4</ele><time>2026-05-02T07:21:24Z</time></trkpt><trkpt lat="41.11173826673014" lon="9.441075832225582"><ele>1.0</ele><time>2026-05-02T07:21:25Z</time></trkpt><trkpt lat="41.111785929208494" lon="9.440950899874098"><ele>2.0</ele><time>2026-05-02T07:21:26Z</time></trkpt><trkpt lat="41.111811829544074" lon="9.44081316881127"><ele>3.0</ele><time>2026-05-02T07:21:27Z</time></trkpt><trkpt lat="41.1118033417026" lon="9.440667381427598"><ele>3.9999999999999996</ele><time>2026-05-02T07:21:28Z</time></trkpt><trkpt lat="41.1117752567499" lon="9.440527447143339"><ele>5.0</ele><time>2026-05-02T07:21:29Z</time></trkpt><trkpt lat="41.111751599826086" lon="9.440396561288106"><ele>6.0</ele><time>2026-05-02T07:21:30Z</time></trkpt><trkpt lat="41.11173808842182" lon="9.440261588791108"><ele>6.0</ele><time>2026-05-02T07:21:31Z</time></trkpt><trkpt lat="41.11173870068213" lon="9.440141865995798"><ele>6.0</ele><time>2026-05-02T07:21:32Z</time></trkpt><trkpt lat="41.11173504049915" lon="9.440012348584956"><ele>6.0</ele><time>2026-05-02T07:21:33Z</time></trkpt><trkpt lat="41.11172392389029" lon="9.439874200324777"><ele>6.0</ele><time>2026-05-02T07:21:34Z</time></trkpt><trkpt lat="41.11172963319489" lon="9.439750006536226"><ele>6.0</ele><time>2026-05-02T07:21:35Z</time></trkpt><trkpt lat="41.111761262811214" lon="9.439643486341918"><ele>6.4</ele><time>2026-05-02T07:21:36Z</time></trkpt><trkpt lat="41.11180875005778" lon="9.439528309952964"><ele>6.8</ele><time>2026-05-02T07:21:37Z</time></trkpt><trkpt lat="41.111920761217426" lon="9.439460873925926"><ele>7.200000000000001</ele><time>2026-05-02T07:21:38Z</time></trkpt><trkpt lat="41.11201931314492" lon="9.439399866231522"><ele>7.6000000000000005</ele><time>2026-05-02T07:21:39Z</time></trkpt><trkpt lat="41.112106701427905" lon="9.439350257715612"><ele>8.0</ele><time>2026-05-02T07:21:40Z</time></trkpt><trkpt lat="41.11217895562916" lon="9.439298411332793"><ele>7.999999999999999</ele><time>2026-05-02T07:21:41Z</time></trkpt><trkpt lat="41.112248043977715" lon="9.43924452689376"><ele>8.0</ele><time>2026-05-02T07:21:42Z</time></trkpt><trkpt lat="41.11232263837244" lon="9.439219162491682"><ele>8.0</ele><time>2026-05-02T07:21:43Z</time></trkpt><trkpt lat="41.112392458566944" lon="9.439214630792561"><ele>8.0</ele><time>2026-05-02T07:21:44Z</time></trkpt><trkpt lat="41.11249130079071" lon="9.439181036915096"><ele>7.999999999999999</ele><time>2026-05-02T07:21:46Z</time></trkpt><trkpt lat="41.11255482197777" lon="9.439165299431648"><ele>8.0</ele><time>2026-05-02T07:21:48Z</time></trkpt><trkpt lat="41.11255217979487" lon="9.438965176715291"><ele>7.666666666666666</ele><time>2026-05-02T07:21:50Z</time></trkpt><trkpt lat="41.112520694206374" lon="9.438856304502547"><ele>7.333333333333333</ele><time>2026-05-02T07:21:51Z</time></trkpt><trkpt lat="41.11249994432303" lon="9.438728985231718"><ele>7.0</ele><time>2026-05-02T07:21:52Z</time></trkpt><trkpt lat="41.11248795534756" lon="9.43861835078479"><ele>6.666666666666666</ele><time>2026-05-02T07:21:53Z</time></trkpt><trkpt lat="41.112475000547676" lon="9.438519062174894"><ele>6.333333333333333</ele><time>2026-05-02T07:21:54Z</time></trkpt><trkpt lat="41.11246312104412" lon="9.43843282407388"><ele>6.0</ele><time>2026-05-02T07:21:55Z</time></trkpt><trkpt lat="41.112471434257095" lon="9.43834839218664"><ele>6.0</ele><time>2026-05-02T07:21:57Z</time></trkpt><trkpt lat="41.11263375727364" lon="9.438356443696192"><ele>6.0</ele><time>2026-05-02T07:21:59Z</time></trkpt><trkpt lat="41.112749791611556" lon="9.438338858131125"><ele>6.0</ele><time>2026-05-02T07:22:00Z</time></trkpt><trkpt lat="41.11287109940209" lon="9.438356999394387"><ele>6.0</ele><time>2026-05-02T07:22:01Z</time></trkpt><trkpt lat="41.11299770665687" lon="9.438359271285734"><ele>6.0</ele><time>2026-05-02T07:22:02Z</time></trkpt><trkpt lat="41.11313488472913" lon="9.438363648433349"><ele>6.0</ele><time>2026-05-02T07:22:03Z</time></trkpt><trkpt lat="41.113274396086545" lon="9.438350006992104"><ele>6.0</ele><time>2026-05-02T07:22:04Z</time></trkpt><trkpt lat="41.113414999618136" lon="9.43829608547104"><ele>6.0</ele><time>2026-05-02T07:22:05Z</time></trkpt><trkpt lat="41.11353466599506" lon="9.438190631497559"><ele>6.5</ele><time>2026-05-02T07:22:06Z</time></trkpt><trkpt lat="41.11364944435276" lon="9.438108371459986"><ele>7.0</ele><time>2026-05-02T07:22:07Z</time></trkpt><trkpt lat="41.11375916129019" lon="9.438024941345084"><ele>7.5</ele><time>2026-05-02T07:22:08Z</time></trkpt><trkpt lat="41.11386595868789" lon="9.43795961302799"><ele>8.0</ele><time>2026-05-02T07:22:09Z</time></trkpt><trkpt lat="41.113963998329886" lon="9.437882657624183"><ele>7.999999999999999</ele><time>2026-05-02T07:22:10Z</time></trkpt><trkpt lat="41.1140610961867" lon="9.437810133000978"><ele>8.0</ele><time>2026-05-02T07:22:11Z</time></trkpt><trkpt lat="41.11414424606608" lon="9.437758716209608"><ele>8.0</ele><time>2026-05-02T07:22:12Z</time></trkpt><trkpt lat="41.11421201675225" lon="9.43775126131227"><ele>8.0</ele><time>2026-05-02T07:22:13Z</time></trkpt><trkpt lat="41.11427426510063" lon="9.437785089000835"><ele>7.999999999999999</ele><time>2026-05-02T07:22:14Z</time></trkpt><trkpt lat="41.1143213102161" lon="9.437874776920456"><ele>8.0</ele><time>2026-05-02T07:22:15Z</time></trkpt><trkpt lat="41.11436974535568" lon="9.437978387846906"><ele>9.25</ele><time>2026-05-02T07:22:16Z</time></trkpt><trkpt lat="41.11443014581962" lon="9.438086379846517"><ele>10.5</ele><time>2026-05-02T07:22:17Z</time></trkpt><trkpt lat="41.11450495950353" lon="9.438189250714654"><ele>11.75</ele><time>2026-05-02T07:22:18Z</time></trkpt><trkpt lat="41.11458512400347" lon="9.438302605664012"><ele>13.0</ele><time>2026-05-02T07:22:19Z</time></trkpt><trkpt lat="41.114668307324756" lon="9.43842432756714"><ele>13.0</ele><time>2026-05-02T07:22:20Z</time></trkpt><trkpt lat="41.11475220704371" lon="9.438551175995375"><ele>13.0</ele><time>2026-05-02T07:22:21Z</time></trkpt><trkpt lat="41.11483357289864" lon="9.438690386557342"><ele>13.0</ele><time>2026-05-02T07:22:22Z</time></trkpt><trkpt lat="41.11492146475416" lon="9.43882456750523"><ele>13.0</ele><time>2026-05-02T07:22:23Z</time></trkpt><trkpt lat="41.11502312027501" lon="9.438937455790187"><ele>12.75</ele><time>2026-05-02T07:22:24Z</time></trkpt><trkpt lat="41.11514928170919" lon="9.439012289326865"><ele>12.5</ele><time>2026-05-02T07:22:25Z</time></trkpt><trkpt lat="41.11529045990283" lon="9.439049371290903"><ele>12.25</ele><time>2026-05-02T07:22:26Z</time></trkpt><trkpt lat="41.115435909913224" lon="9.439068292102217"><ele>12.0</ele><time>2026-05-02T07:22:27Z</time></trkpt><trkpt lat="41.11558003558263" lon="9.439093756430266"><ele>12.0</ele><time>2026-05-02T07:22:28Z</time></trkpt><trkpt lat="41.11573143549281" lon="9.43912720688058"><ele>12.0</ele><time>2026-05-02T07:22:29Z</time></trkpt><trkpt lat="41.11587443819033" lon="9.439161890294756"><ele>12.0</ele><time>2026-05-02T07:22:30Z</time></trkpt><trkpt lat="41.116026497629825" lon="9.439203449931481"><ele>12.333333333333332</ele><time>2026-05-02T07:22:31Z</time></trkpt><trkpt lat="41.116179553024836" lon="9.439249219382026"><ele>12.666666666666666</ele><time>2026-05-02T07:22:32Z</time></trkpt><trkpt lat="41.116337596012904" lon="9.439289686172252"><ele>13.0</ele><time>2026-05-02T07:22:33Z</time></trkpt><trkpt lat="41.11648724790987" lon="9.439326798898517"><ele>13.75</ele><time>2026-05-02T07:22:34Z</time></trkpt><trkpt lat="41.11663662914046" lon="9.439366772118188"><ele>14.5</ele><time>2026-05-02T07:22:35Z</time></trkpt><trkpt lat="41.116776044054674" lon="9.43940658380816"><ele>15.25</ele><time>2026-05-02T07:22:36Z</time></trkpt><trkpt lat="41.116908394021536" lon="9.439441948787236"><ele>16.0</ele><time>2026-05-02T07:22:37Z</time></trkpt><trkpt lat="41.11704244760103" lon="9.439476354414866"><ele>16.0</ele><time>2026-05-02T07:22:38Z</time></trkpt><trkpt lat="41.117177580611575" lon="9.439507231806727"><ele>16.0</ele><time>2026-05-02T07:22:39Z</time></trkpt><trkpt lat="41.11730582778189" lon="9.439539732297426"><ele>16.0</ele><time>2026-05-02T07:22:40Z</time></trkpt><trkpt lat="41.11743604566477" lon="9.439563556805037"><ele>16.0</ele><time>2026-05-02T07:22:41Z</time></trkpt><trkpt lat="41.117564115124274" lon="9.439582998018174"><ele>16.0</ele><time>2026-05-02T07:22:42Z</time></trkpt><trkpt lat="41.11769240841989" lon="9.439598680571885"><ele>16.0</ele><time>2026-05-02T07:22:43Z</time></trkpt><trkpt lat="41.117808398403994" lon="9.439617374749133"><ele>16.0</ele><time>2026-05-02T07:22:44Z</time></trkpt><trkpt lat="41.11792391732998" lon="9.439635007437957"><ele>16.0</ele><time>2026-05-02T07:22:45Z</time></trkpt><trkpt lat="41.11803288142885" lon="9.43965304536563"><ele>14.600000000000001</ele><time>2026-05-02T07:22:46Z</time></trkpt><trkpt lat="41.11812186727701" lon="9.439668344533128"><ele>13.200000000000001</ele><time>2026-05-02T07:22:47Z</time></trkpt><trkpt lat="41.11821667923648" lon="9.439688491610994"><ele>11.8</ele><time>2026-05-02T07:22:48Z</time></trkpt><trkpt lat="41.118325754169156" lon="9.439717989418241"><ele>10.4</ele><time>2026-05-02T07:22:49Z</time></trkpt><trkpt lat="41.11843914203594" lon="9.439743658873162"><ele>9.0</ele><time>2026-05-02T07:22:50Z</time></trkpt><trkpt lat="41.11855216604299" lon="9.439766527582966"><ele>9.0</ele><time>2026-05-02T07:22:51Z</time></trkpt><trkpt lat="41.11866493456909" lon="9.439774922198668"><ele>9.0</ele><time>2026-05-02T07:22:52Z</time></trkpt><trkpt lat="41.11879867866488" lon="9.439749641138581"><ele>9.0</ele><time>2026-05-02T07:22:53Z</time></trkpt><trkpt lat="41.11893118377306" lon="9.439803041126003"><ele>9.0</ele><time>2026-05-02T07:22:54Z</time></trkpt><trkpt lat="41.11909091427297" lon="9.439807047282402"><ele>9.0</ele><time>2026-05-02T07:22:56Z</time></trkpt><trkpt lat="41.119180506975766" lon="9.439823912948444"><ele>9.0</ele><time>2026-05-02T07:22:57Z</time></trkpt><trkpt lat="41.11928031237002" lon="9.439828970992599"><ele>9.0</ele><time>2026-05-02T07:22:58Z</time></trkpt><trkpt lat="41.11938806334332" lon="9.439823853207944"><ele>9.0</ele><time>2026-05-02T07:22:59Z</time></trkpt><trkpt lat="41.11950075763313" lon="9.439817191357653"><ele>9.0</ele><time>2026-05-02T07:23:00Z</time></trkpt><trkpt lat="41.11961087058115" lon="9.439810056826598"><ele>9.0</ele><time>2026-05-02T07:23:01Z</time></trkpt><trkpt lat="41.11972137369698" lon="9.439794796276184"><ele>9.0</ele><time>2026-05-02T07:23:02Z</time></trkpt><trkpt lat="41.11983321352722" lon="9.439787601719035"><ele>9.0</ele><time>2026-05-02T07:23:03Z</time></trkpt><trkpt lat="41.11994862099529" lon="9.43977346276817"><ele>9.0</ele><time>2026-05-02T07:23:04Z</time></trkpt><trkpt lat="41.12005685030611" lon="9.439737204999835"><ele>9.0</ele><time>2026-05-02T07:23:05Z</time></trkpt><trkpt lat="41.120171467376494" lon="9.43965505870117"><ele>9.0</ele><time>2026-05-02T07:23:06Z</time></trkpt><trkpt lat="41.12028710457088" lon="9.439553136969836"><ele>9.0</ele><time>2026-05-02T07:23:07Z</time></trkpt><trkpt lat="41.120419393507454" lon="9.439457543804142"><ele>9.0</ele><time>2026-05-02T07:23:08Z</time></trkpt><trkpt lat="41.12057199967613" lon="9.439367268311027"><ele>9.666666666666666</ele><time>2026-05-02T07:23:09Z</time></trkpt><trkpt lat="41.12073628926358" lon="9.439273355481244"><ele>10.333333333333332</ele><time>2026-05-02T07:23:10Z</time></trkpt><trkpt lat="41.12089951201383" lon="9.439162715883574"><ele>11.0</ele><time>2026-05-02T07:23:11Z</time></trkpt><trkpt lat="41.1210464711568" lon="9.43906298446049"><ele>11.0</ele><time>2026-05-02T07:23:12Z</time></trkpt><trkpt lat="41.12119331703675" lon="9.43896878985418"><ele>11.0</ele><time>2026-05-02T07:23:13Z</time></trkpt><trkpt lat="41.12134233948712" lon="9.438868542166823"><ele>11.0</ele><time>2026-05-02T07:23:14Z</time></trkpt><trkpt lat="41.12149607930068" lon="9.438767397081062"><ele>11.25</ele><time>2026-05-02T07:23:15Z</time></trkpt><trkpt lat="41.121637097705666" lon="9.438675013838077"><ele>11.5</ele><time>2026-05-02T07:23:16Z</time></trkpt><trkpt lat="41.12176722361617" lon="9.43858685475704"><ele>11.75</ele><time>2026-05-02T07:23:17Z</time></trkpt><trkpt lat="41.12188985636465" lon="9.438503059968125"><ele>12.0</ele><time>2026-05-02T07:23:18Z</time></trkpt><trkpt lat="41.12201547821595" lon="9.438421022719464"><ele>12.0</ele><time>2026-05-02T07:23:19Z</time></trkpt><trkpt lat="41.12214134701843" lon="9.438346239236655"><ele>12.0</ele><time>2026-05-02T07:23:20Z</time></trkpt><trkpt lat="41.12227588665832" lon="9.438219545887206"><ele>12.0</ele><time>2026-05-02T07:23:21Z</time></trkpt><trkpt lat="41.122447395859545" lon="9.43810469196327"><ele>12.666666666666668</ele><time>2026-05-02T07:23:22Z</time></trkpt><trkpt lat="41.122624709157854" lon="9.438003130448678"><ele>13.333333333333334</ele><time>2026-05-02T07:23:23Z</time></trkpt><trkpt lat="41.12279437653375" lon="9.437905427804452"><ele>14.0</ele><time>2026-05-02T07:23:24Z</time></trkpt><trkpt lat="41.12296444067054" lon="9.437812481678353"><ele>14.0</ele><time>2026-05-02T07:23:25Z</time></trkpt><trkpt lat="41.123142063067036" lon="9.437711175097373"><ele>14.0</ele><time>2026-05-02T07:23:26Z</time></trkpt><trkpt lat="41.12330949507033" lon="9.437605313118173"><ele>14.0</ele><time>2026-05-02T07:23:27Z</time></trkpt><trkpt lat="41.123465997544166" lon="9.437521270720802"><ele>12.666666666666668</ele><time>2026-05-02T07:23:28Z</time></trkpt><trkpt lat="41.12362170155329" lon="9.437466544074198"><ele>11.333333333333334</ele><time>2026-05-02T07:23:29Z</time></trkpt><trkpt lat="41.123793218666975" lon="9.437470075684327"><ele>10.0</ele><time>2026-05-02T07:23:30Z</time></trkpt><trkpt lat="41.12396713711354" lon="9.437446933758757"><ele>9.666666666666668</ele><time>2026-05-02T07:23:31Z</time></trkpt><trkpt lat="41.124154225776024" lon="9.4374347359804"><ele>9.333333333333334</ele><time>2026-05-02T07:23:32Z</time></trkpt><trkpt lat="41.124334882098395" lon="9.437410963424279"><ele>9.0</ele><time>2026-05-02T07:23:33Z</time></trkpt><trkpt lat="41.12450249316825" lon="9.43739223902137"><ele>9.0</ele><time>2026-05-02T07:23:34Z</time></trkpt><trkpt lat="41.12466416010614" lon="9.43739230984044"><ele>9.0</ele><time>2026-05-02T07:23:35Z</time></trkpt><trkpt lat="41.124828564430125" lon="9.437382825402159"><ele>9.0</ele><time>2026-05-02T07:23:36Z</time></trkpt><trkpt lat="41.12499429562321" lon="9.437361089923934"><ele>8.0</ele><time>2026-05-02T07:23:37Z</time></trkpt><trkpt lat="41.12515914752359" lon="9.43735083650636"><ele>7.0</ele><time>2026-05-02T07:23:38Z</time></trkpt><trkpt lat="41.12532960738451" lon="9.437345098648152"><ele>6.0</ele><time>2026-05-02T07:23:39Z</time></trkpt><trkpt lat="41.12549693899753" lon="9.437334290563387"><ele>6.0</ele><time>2026-05-02T07:23:40Z</time></trkpt><trkpt lat="41.125668642192" lon="9.437320743991446"><ele>6.0</ele><time>2026-05-02T07:23:41Z</time></trkpt><trkpt lat="41.12584966588867" lon="9.437307590345952"><ele>6.0</ele><time>2026-05-02T07:23:42Z</time></trkpt><trkpt lat="41.12603059877547" lon="9.437273381610373"><ele>5.333333333333333</ele><time>2026-05-02T07:23:43Z</time></trkpt><trkpt lat="41.12620538376951" lon="9.437225843289761"><ele>4.666666666666666</ele><time>2026-05-02T07:23:44Z</time></trkpt><trkpt lat="41.126375391662094" lon="9.437184976431398"><ele>4.0</ele><time>2026-05-02T07:23:45Z</time></trkpt><trkpt lat="41.12652540504476" lon="9.437157217313986"><ele>4.6</ele><time>2026-05-02T07:23:46Z</time></trkpt><trkpt lat="41.12665869546781" lon="9.43713404257832"><ele>5.2</ele><time>2026-05-02T07:23:47Z</time></trkpt><trkpt lat="41.12678164333815" lon="9.437108857100023"><ele>5.799999999999999</ele><time>2026-05-02T07:23:48Z</time></trkpt><trkpt lat="41.12688049001794" lon="9.437090537181236"><ele>6.3999999999999995</ele><time>2026-05-02T07:23:49Z</time></trkpt><trkpt lat="41.12695399920357" lon="9.43710044147927"><ele>7.0</ele><time>2026-05-02T07:23:50Z</time></trkpt><trkpt lat="41.12707209488457" lon="9.43693437481476"><ele>7.0</ele><time>2026-05-02T07:23:52Z</time></trkpt><trkpt lat="41.127122646895195" lon="9.43681009051353"><ele>6.999999999999999</ele><time>2026-05-02T07:23:53Z</time></trkpt><trkpt lat="41.12717945474711" lon="9.436691699291451"><ele>6.999999999999999</ele><time>2026-05-02T07:23:54Z</time></trkpt><trkpt lat="41.12723982861608" lon="9.436583720019048"><ele>7.0</ele><time>2026-05-02T07:23:55Z</time></trkpt><trkpt lat="41.12729491300585" lon="9.436475266847307"><ele>7.0</ele><time>2026-05-02T07:23:56Z</time></trkpt><trkpt lat="41.127350050614176" lon="9.436374358261542"><ele>8.6</ele><time>2026-05-02T07:23:57.001Z</time></trkpt><trkpt lat="41.12740711941048" lon="9.436275852427508"><ele>10.2</ele><time>2026-05-02T07:23:58.001Z</time></trkpt><trkpt lat="41.12746509251533" lon="9.436176772109054"><ele>11.8</ele><time>2026-05-02T07:23:59.001Z</time></trkpt><trkpt lat="41.12752171243279" lon="9.436084334680366"><ele>13.4</ele><time>2026-05-02T07:24:00.001Z</time></trkpt><trkpt lat="41.127577466379655" lon="9.435982724632813"><ele>15.0</ele><time>2026-05-02T07:24:01.001Z</time></trkpt><trkpt lat="41.12762702461734" lon="9.435889221451395"><ele>15.0</ele><time>2026-05-02T07:24:02.001Z</time></trkpt><trkpt lat="41.12768388859967" lon="9.435801444890576"><ele>15.0</ele><time>2026-05-02T07:24:03.001Z</time></trkpt><trkpt lat="41.12773535413423" lon="9.435705187113635"><ele>15.0</ele><time>2026-05-02T07:24:04.001Z</time></trkpt><trkpt lat="41.12779404938948" lon="9.43559913048535"><ele>15.0</ele><time>2026-05-02T07:24:05.001Z</time></trkpt><trkpt lat="41.12785972221348" lon="9.435480411576952"><ele>15.0</ele><time>2026-05-02T07:24:06.001Z</time></trkpt><trkpt lat="41.12793427700026" lon="9.43535442383975"><ele>16.25</ele><time>2026-05-02T07:24:07.001Z</time></trkpt><trkpt lat="41.12800808760082" lon="9.435227420266452"><ele>17.5</ele><time>2026-05-02T07:24:08.001Z</time></trkpt><trkpt lat="41.128082532270845" lon="9.435089273453812"><ele>18.75</ele><time>2026-05-02T07:24:09.001Z</time></trkpt><trkpt lat="41.1281563448449" lon="9.434951932618098"><ele>20.0</ele><time>2026-05-02T07:24:10.001Z</time></trkpt><trkpt lat="41.12822703424422" lon="9.434818226682182"><ele>18.0</ele><time>2026-05-02T07:24:11.001Z</time></trkpt><trkpt lat="41.128299601777556" lon="9.434694029882799"><ele>16.0</ele><time>2026-05-02T07:24:12.001Z</time></trkpt><trkpt lat="41.12836439578135" lon="9.434587912559431"><ele>14.0</ele><time>2026-05-02T07:24:13.001Z</time></trkpt><trkpt lat="41.128439172161855" lon="9.434501094283043"><ele>12.0</ele><time>2026-05-02T07:24:14.001Z</time></trkpt><trkpt lat="41.12854154308797" lon="9.434423327131737"><ele>10.0</ele><time>2026-05-02T07:24:15.001Z</time></trkpt><trkpt lat="41.12867195942777" lon="9.434376045416009"><ele>9.333333333333334</ele><time>2026-05-02T07:24:16.001Z</time></trkpt><trkpt lat="41.12881613970676" lon="9.434345347897267"><ele>8.666666666666666</ele><time>2026-05-02T07:24:17.001Z</time></trkpt><trkpt lat="41.12897723000432" lon="9.434308562579972"><ele>8.0</ele><time>2026-05-02T07:24:18.001Z</time></trkpt><trkpt lat="41.12915657769405" lon="9.434277219942762"><ele>8.0</ele><time>2026-05-02T07:24:19.001Z</time></trkpt><trkpt lat="41.12933726146688" lon="9.43427645422714"><ele>8.0</ele><time>2026-05-02T07:24:20.001Z</time></trkpt><trkpt lat="41.129525119588706" lon="9.434299764422954"><ele>8.0</ele><time>2026-05-02T07:24:21.001Z</time></trkpt><trkpt lat="41.12971483005526" lon="9.434321164155964"><ele>10.0</ele><time>2026-05-02T07:24:22.001Z</time></trkpt><trkpt lat="41.12989262373693" lon="9.434354010512896"><ele>12.0</ele><time>2026-05-02T07:24:23.001Z</time></trkpt><trkpt lat="41.13007252202411" lon="9.434377482216632"><ele>14.0</ele><time>2026-05-02T07:24:24.001Z</time></trkpt><trkpt lat="41.13024505769104" lon="9.434407432878045"><ele>14.0</ele><time>2026-05-02T07:24:25.001Z</time></trkpt><trkpt lat="41.130415462411165" lon="9.434431564060699"><ele>14.0</ele><time>2026-05-02T07:24:26.001Z</time></trkpt><trkpt lat="41.130584008787274" lon="9.43444123945518"><ele>14.0</ele><time>2026-05-02T07:24:27.001Z</time></trkpt><trkpt lat="41.13075793526918" lon="9.434414806718358"><ele>14.666666666666668</ele><time>2026-05-02T07:24:28.001Z</time></trkpt><trkpt lat="41.13092410170661" lon="9.434355129493795"><ele>15.333333333333332</ele><time>2026-05-02T07:24:29.001Z</time></trkpt><trkpt lat="41.131087087643856" lon="9.43426790193973"><ele>16.0</ele><time>2026-05-02T07:24:30.001Z</time></trkpt><trkpt lat="41.13125042582459" lon="9.434169515893691"><ele>16.0</ele><time>2026-05-02T07:24:31.001Z</time></trkpt><trkpt lat="41.13142417511811" lon="9.43407604845778"><ele>16.0</ele><time>2026-05-02T07:24:32.001Z</time></trkpt><trkpt lat="41.13160345599037" lon="9.433977544094589"><ele>16.0</ele><time>2026-05-02T07:24:33.001Z</time></trkpt><trkpt lat="41.13178078628126" lon="9.433868237769937"><ele>15.666666666666666</ele><time>2026-05-02T07:24:34.001Z</time></trkpt><trkpt lat="41.131960250579446" lon="9.433757263777911"><ele>15.333333333333332</ele><time>2026-05-02T07:24:35.001Z</time></trkpt><trkpt lat="41.132137709009164" lon="9.433644094704048"><ele>15.0</ele><time>2026-05-02T07:24:36.001Z</time></trkpt><trkpt lat="41.13230941719651" lon="9.433523310600531"><ele>13.0</ele><time>2026-05-02T07:24:37.001Z</time></trkpt><trkpt lat="41.132477663735536" lon="9.433395299857404"><ele>11.0</ele><time>2026-05-02T07:24:38.001Z</time></trkpt><trkpt lat="41.13265181944677" lon="9.433277160707291"><ele>9.0</ele><time>2026-05-02T07:24:39.001Z</time></trkpt><trkpt lat="41.132830535214076" lon="9.433170421258586"><ele>9.0</ele><time>2026-05-02T07:24:40.001Z</time></trkpt><trkpt lat="41.13301910267466" lon="9.433100875784458"><ele>9.0</ele><time>2026-05-02T07:24:41.001Z</time></trkpt><trkpt lat="41.13321391690394" lon="9.433054465863982"><ele>9.0</ele><time>2026-05-02T07:24:42.001Z</time></trkpt><trkpt lat="41.133403254273105" lon="9.43303153574584"><ele>9.333333333333334</ele><time>2026-05-02T07:24:43.001Z</time></trkpt><trkpt lat="41.133597591065325" lon="9.43299746210239"><ele>9.666666666666668</ele><time>2026-05-02T07:24:44.001Z</time></trkpt><trkpt lat="41.13379250498895" lon="9.432974873692658"><ele>10.0</ele><time>2026-05-02T07:24:45.001Z</time></trkpt><trkpt lat="41.133984573546215" lon="9.432959720948235"><ele>10.333333333333334</ele><time>2026-05-02T07:24:46.001Z</time></trkpt><trkpt lat="41.134179195122655" lon="9.432945453368777"><ele>10.666666666666666</ele><time>2026-05-02T07:24:47Z</time></trkpt><trkpt lat="41.13437084461476" lon="9.432936349696366"><ele>11.0</ele><time>2026-05-02T07:24:48Z</time></trkpt><trkpt lat="41.13455565212983" lon="9.4329292923981"><ele>11.0</ele><time>2026-05-02T07:24:49Z</time></trkpt><trkpt lat="41.13473781724266" lon="9.432918134907409"><ele>11.0</ele><time>2026-05-02T07:24:50Z</time></trkpt><trkpt lat="41.134914455685085" lon="9.432905506870606"><ele>11.0</ele><time>2026-05-02T07:24:51Z</time></trkpt><trkpt lat="41.13508788872117" lon="9.432894033457265"><ele>11.666666666666666</ele><time>2026-05-02T07:24:52Z</time></trkpt><trkpt lat="41.13525428363993" lon="9.432883767579828"><ele>12.333333333333332</ele><time>2026-05-02T07:24:53Z</time></trkpt><trkpt lat="41.13540690762427" lon="9.432869086153435"><ele>13.0</ele><time>2026-05-02T07:24:54Z</time></trkpt><trkpt lat="41.13555493243586" lon="9.43284884992182"><ele>13.0</ele><time>2026-05-02T07:24:55Z</time></trkpt><trkpt lat="41.135697550644466" lon="9.432813540441098"><ele>13.0</ele><time>2026-05-02T07:24:56Z</time></trkpt><trkpt lat="41.13582866251009" lon="9.432767745066881"><ele>13.0</ele><time>2026-05-02T07:24:57Z</time></trkpt><trkpt lat="41.13594944811757" lon="9.432728340183196"><ele>13.0</ele><time>2026-05-02T07:24:58Z</time></trkpt><trkpt lat="41.13607482861464" lon="9.432683938006921"><ele>13.0</ele><time>2026-05-02T07:24:59Z</time></trkpt><trkpt lat="41.136205275761824" lon="9.43265989245347"><ele>13.0</ele><time>2026-05-02T07:25:00Z</time></trkpt><trkpt lat="41.13633587971729" lon="9.432601127403032"><ele>13.0</ele><time>2026-05-02T07:25:01Z</time></trkpt><trkpt lat="41.13647532887195" lon="9.432570781554087"><ele>13.0</ele><time>2026-05-02T07:25:02Z</time></trkpt><trkpt lat="41.13661955396426" lon="9.432514165440164"><ele>13.0</ele><time>2026-05-02T07:25:03Z</time></trkpt><trkpt lat="41.13677656758057" lon="9.43242656055395"><ele>13.0</ele><time>2026-05-02T07:25:04Z</time></trkpt><trkpt lat="41.136934137313155" lon="9.432322738464194"><ele>13.0</ele><time>2026-05-02T07:25:05Z</time></trkpt><trkpt lat="41.13710161807206" lon="9.432202036587825"><ele>13.0</ele><time>2026-05-02T07:25:06Z</time></trkpt><trkpt lat="41.13728304215943" lon="9.432079315248492"><ele>13.0</ele><time>2026-05-02T07:25:07Z</time></trkpt><trkpt lat="41.137466033612405" lon="9.431935026011917"><ele>13.0</ele><time>2026-05-02T07:25:08Z</time></trkpt><trkpt lat="41.13763676286866" lon="9.431764237315058"><ele>13.666666666666666</ele><time>2026-05-02T07:25:09Z</time></trkpt><trkpt lat="41.137804454205664" lon="9.43156926693856"><ele>14.333333333333332</ele><time>2026-05-02T07:25:10Z</time></trkpt><trkpt lat="41.13795782173203" lon="9.431356626218326"><ele>15.0</ele><time>2026-05-02T07:25:11Z</time></trkpt><trkpt lat="41.13810519961" lon="9.431128844507093"><ele>10.5</ele><time>2026-05-02T07:25:12Z</time></trkpt><trkpt lat="41.13825013894628" lon="9.430894431765745"><ele>6.0</ele><time>2026-05-02T07:25:13Z</time></trkpt><trkpt lat="41.13840487950263" lon="9.430659178206644"><ele>9.5</ele><time>2026-05-02T07:25:14Z</time></trkpt><trkpt lat="41.13855965003028" lon="9.430433048931214"><ele>13.0</ele><time>2026-05-02T07:25:15Z</time></trkpt><trkpt lat="41.13871654613071" lon="9.430200460525603"><ele>13.0</ele><time>2026-05-02T07:25:16Z</time></trkpt><trkpt lat="41.13886436927878" lon="9.429972214981213"><ele>13.0</ele><time>2026-05-02T07:25:17Z</time></trkpt><trkpt lat="41.13900701288021" lon="9.429763220418042"><ele>13.0</ele><time>2026-05-02T07:25:18Z</time></trkpt><trkpt lat="41.13915708525713" lon="9.429560915767222"><ele>8.0</ele><time>2026-05-02T07:25:19Z</time></trkpt><trkpt lat="41.13933589408306" lon="9.429370773642562"><ele>3.0</ele><time>2026-05-02T07:25:20Z</time></trkpt><trkpt lat="41.13954232133246" lon="9.429229948407885"><ele>3.0</ele><time>2026-05-02T07:25:21Z</time></trkpt><trkpt lat="41.139736069673866" lon="9.429061664379699"><ele>3.0</ele><time>2026-05-02T07:25:22Z</time></trkpt><trkpt lat="41.139933138283894" lon="9.42891311380347"><ele>2.5</ele><time>2026-05-02T07:25:23Z</time></trkpt><trkpt lat="41.14012688707537" lon="9.428752399932774"><ele>2.0</ele><time>2026-05-02T07:25:24Z</time></trkpt><trkpt lat="41.140324793743304" lon="9.428587102225025"><ele>2.0</ele><time>2026-05-02T07:25:25Z</time></trkpt><trkpt lat="41.14052188366045" lon="9.428433603285852"><ele>2.0</ele><time>2026-05-02T07:25:26Z</time></trkpt><trkpt lat="41.14071405760947" lon="9.428285559489998"><ele>3.333333333333333</ele><time>2026-05-02T07:25:27Z</time></trkpt><trkpt lat="41.14089740930643" lon="9.428144471470382"><ele>4.666666666666667</ele><time>2026-05-02T07:25:28Z</time></trkpt><trkpt lat="41.14107925448387" lon="9.42799835127383"><ele>6.0</ele><time>2026-05-02T07:25:29Z</time></trkpt><trkpt lat="41.141264386371255" lon="9.427848738600263"><ele>6.0</ele><time>2026-05-02T07:25:30Z</time></trkpt><trkpt lat="41.141448371626694" lon="9.427702130166914"><ele>6.0</ele><time>2026-05-02T07:25:31Z</time></trkpt><trkpt lat="41.14162733471971" lon="9.427560585508074"><ele>6.0</ele><time>2026-05-02T07:25:32Z</time></trkpt><trkpt lat="41.14179877692333" lon="9.42742531460514"><ele>6.666666666666666</ele><time>2026-05-02T07:25:33Z</time></trkpt><trkpt lat="41.1419554017355" lon="9.427306167132926"><ele>7.333333333333333</ele><time>2026-05-02T07:25:34Z</time></trkpt><trkpt lat="41.14213205873871" lon="9.427252718678139"><ele>8.0</ele><time>2026-05-02T07:25:35Z</time></trkpt><trkpt lat="41.14229506192685" lon="9.427167383025902"><ele>9.0</ele><time>2026-05-02T07:25:36Z</time></trkpt><trkpt lat="41.14245732530468" lon="9.42712124731307"><ele>10.0</ele><time>2026-05-02T07:25:37Z</time></trkpt><trkpt lat="41.14262214983793" lon="9.427060874702333"><ele>11.0</ele><time>2026-05-02T07:25:38Z</time></trkpt><trkpt lat="41.14279729046773" lon="9.42699119594132"><ele>11.0</ele><time>2026-05-02T07:25:39Z</time></trkpt><trkpt lat="41.14297773688167" lon="9.426920955996"><ele>11.0</ele><time>2026-05-02T07:25:40Z</time></trkpt><trkpt lat="41.143168798141645" lon="9.426852529080918"><ele>11.0</ele><time>2026-05-02T07:25:41Z</time></trkpt><trkpt lat="41.143356145645015" lon="9.426786100721147"><ele>11.333333333333332</ele><time>2026-05-02T07:25:42Z</time></trkpt><trkpt lat="41.14353698554316" lon="9.426714130221036"><ele>11.666666666666666</ele><time>2026-05-02T07:25:43Z</time></trkpt><trkpt lat="41.14370511205901" lon="9.426639897949155"><ele>12.0</ele><time>2026-05-02T07:25:44Z</time></trkpt><trkpt lat="41.14388060091387" lon="9.426563077213075"><ele>11.333333333333334</ele><time>2026-05-02T07:25:45Z</time></trkpt><trkpt lat="41.144053668397596" lon="9.426470428490992"><ele>10.666666666666668</ele><time>2026-05-02T07:25:46Z</time></trkpt><trkpt lat="41.14424374638195" lon="9.42634694837699"><ele>10.0</ele><time>2026-05-02T07:25:47Z</time></trkpt><trkpt lat="41.1444408661362" lon="9.426225201767839"><ele>11.666666666666668</ele><time>2026-05-02T07:25:48Z</time></trkpt><trkpt lat="41.14461466331056" lon="9.426128110685461"><ele>13.333333333333334</ele><time>2026-05-02T07:25:49Z</time></trkpt><trkpt lat="41.14479374853549" lon="9.426084302408656"><ele>15.0</ele><time>2026-05-02T07:25:50Z</time></trkpt><trkpt lat="41.14498160597126" lon="9.426078209639044"><ele>15.0</ele><time>2026-05-02T07:25:51Z</time></trkpt><trkpt lat="41.14518283149131" lon="9.42607746178487"><ele>15.0</ele><time>2026-05-02T07:25:52Z</time></trkpt><trkpt lat="41.145378624874205" lon="9.426070474394365"><ele>15.0</ele><time>2026-05-02T07:25:53Z</time></trkpt><trkpt lat="41.14558277375513" lon="9.426079100104488"><ele>15.333333333333332</ele><time>2026-05-02T07:25:54Z</time></trkpt><trkpt lat="41.145777826861035" lon="9.4260819263597"><ele>15.666666666666666</ele><time>2026-05-02T07:25:55Z</time></trkpt><trkpt lat="41.14597459039407" lon="9.426083696259692"><ele>16.0</ele><time>2026-05-02T07:25:56Z</time></trkpt><trkpt lat="41.14616946613941" lon="9.426076687443794"><ele>16.0</ele><time>2026-05-02T07:25:57Z</time></trkpt><trkpt lat="41.1463503401605" lon="9.426083390262926"><ele>16.0</ele><time>2026-05-02T07:25:58Z</time></trkpt><trkpt lat="41.146533814001835" lon="9.42609291341536"><ele>16.0</ele><time>2026-05-02T07:25:59Z</time></trkpt><trkpt lat="41.14670794649773" lon="9.426091850918183"><ele>15.333333333333332</ele><time>2026-05-02T07:26:00Z</time></trkpt><trkpt lat="41.1468820899763" lon="9.426087992855628"><ele>14.666666666666668</ele><time>2026-05-02T07:26:01Z</time></trkpt><trkpt lat="41.147048652213456" lon="9.426079512337319"><ele>14.0</ele><time>2026-05-02T07:26:02.001Z</time></trkpt><trkpt lat="41.14722063373404" lon="9.426070424254945"><ele>13.666666666666668</ele><time>2026-05-02T07:26:03.001Z</time></trkpt><trkpt lat="41.14738977721001" lon="9.426063094883629"><ele>13.333333333333332</ele><time>2026-05-02T07:26:04.001Z</time></trkpt><trkpt lat="41.147558073832336" lon="9.42606657477504"><ele>13.0</ele><time>2026-05-02T07:26:05.001Z</time></trkpt><trkpt lat="41.14772010894638" lon="9.426095573969189"><ele>13.0</ele><time>2026-05-02T07:26:06.001Z</time></trkpt><trkpt lat="41.147878651622655" lon="9.426162824487287"><ele>13.0</ele><time>2026-05-02T07:26:07.001Z</time></trkpt><trkpt lat="41.14802580950479" lon="9.426294181506911"><ele>13.0</ele><time>2026-05-02T07:26:08.001Z</time></trkpt><trkpt lat="41.14815426809907" lon="9.426439845241303"><ele>14.666666666666666</ele><time>2026-05-02T07:26:09.001Z</time></trkpt><trkpt lat="41.148287769384154" lon="9.42655110987048"><ele>16.333333333333332</ele><time>2026-05-02T07:26:10.001Z</time></trkpt><trkpt lat="41.14841406787138" lon="9.426644990532711"><ele>18.0</ele><time>2026-05-02T07:26:11.001Z</time></trkpt><trkpt lat="41.14855430819392" lon="9.426711632407713"><ele>18.0</ele><time>2026-05-02T07:26:12.001Z</time></trkpt><trkpt lat="41.14870712925823" lon="9.426767150701687"><ele>18.0</ele><time>2026-05-02T07:26:13.001Z</time></trkpt><trkpt lat="41.14886876214304" lon="9.426819783589226"><ele>18.0</ele><time>2026-05-02T07:26:14.001Z</time></trkpt><trkpt lat="41.149046709286736" lon="9.426892171558164"><ele>20.333333333333336</ele><time>2026-05-02T07:26:15.001Z</time></trkpt><trkpt lat="41.14923077354421" lon="9.426966384909077"><ele>22.666666666666668</ele><time>2026-05-02T07:26:16.001Z</time></trkpt><trkpt lat="41.14941067547654" lon="9.42703750627736"><ele>25.0</ele><time>2026-05-02T07:26:17.001Z</time></trkpt><trkpt lat="41.149594786189176" lon="9.427113451876531"><ele>25.0</ele><time>2026-05-02T07:26:18.001Z</time></trkpt><trkpt lat="41.14977384331385" lon="9.427183402176075"><ele>25.0</ele><time>2026-05-02T07:26:19.001Z</time></trkpt><trkpt lat="41.149947301604385" lon="9.427251021436579"><ele>25.0</ele><time>2026-05-02T07:26:20.001Z</time></trkpt><trkpt lat="41.15012256997224" lon="9.427318988118902"><ele>25.0</ele><time>2026-05-02T07:26:21.001Z</time></trkpt><trkpt lat="41.15029353568233" lon="9.427372166159152"><ele>25.0</ele><time>2026-05-02T07:26:22.001Z</time></trkpt><trkpt lat="41.15047445265997" lon="9.427419946506483"><ele>25.0</ele><time>2026-05-02T07:26:23.001Z</time></trkpt><trkpt lat="41.15066204169161" lon="9.427416055241373"><ele>24.666666666666668</ele><time>2026-05-02T07:26:24.001Z</time></trkpt><trkpt lat="41.15084582673087" lon="9.42736710716175"><ele>24.333333333333336</ele><time>2026-05-02T07:26:25.001Z</time></trkpt><trkpt lat="41.15103155854157" lon="9.427293903476624"><ele>24.0</ele><time>2026-05-02T07:26:26.001Z</time></trkpt><trkpt lat="41.15122092290672" lon="9.427208746922478"><ele>24.0</ele><time>2026-05-02T07:26:27.001Z</time></trkpt><trkpt lat="41.151426048522815" lon="9.427128631448491"><ele>24.0</ele><time>2026-05-02T07:26:28.001Z</time></trkpt><trkpt lat="41.15163528647364" lon="9.427041864562508"><ele>24.0</ele><time>2026-05-02T07:26:29.001Z</time></trkpt><trkpt lat="41.15184821060394" lon="9.42695527882381"><ele>24.0</ele><time>2026-05-02T07:26:30.001Z</time></trkpt><trkpt lat="41.15204525749157" lon="9.426863309631857"><ele>24.0</ele><time>2026-05-02T07:26:31.001Z</time></trkpt><trkpt lat="41.152233763225716" lon="9.426781995454803"><ele>24.0</ele><time>2026-05-02T07:26:32.001Z</time></trkpt><trkpt lat="41.152426619861785" lon="9.426729544538327"><ele>23.0</ele><time>2026-05-02T07:26:33.001Z</time></trkpt><trkpt lat="41.15262092912246" lon="9.426712658621964"><ele>22.0</ele><time>2026-05-02T07:26:34.001Z</time></trkpt><trkpt lat="41.152802053665475" lon="9.42667964172663"><ele>21.0</ele><time>2026-05-02T07:26:35.001Z</time></trkpt><trkpt lat="41.15295376300929" lon="9.426588124083233"><ele>21.0</ele><time>2026-05-02T07:26:36.001Z</time></trkpt><trkpt lat="41.15307250465947" lon="9.426446861998917"><ele>21.0</ele><time>2026-05-02T07:26:37.001Z</time></trkpt><trkpt lat="41.15319040243743" lon="9.42628383447492"><ele>21.0</ele><time>2026-05-02T07:26:38.001Z</time></trkpt><trkpt lat="41.153308630248596" lon="9.426096260181822"><ele>21.666666666666668</ele><time>2026-05-02T07:26:39.001Z</time></trkpt><trkpt lat="41.15343195543782" lon="9.42592117904542"><ele>22.333333333333336</ele><time>2026-05-02T07:26:40.001Z</time></trkpt><trkpt lat="41.15356224873106" lon="9.42574462970905"><ele>23.0</ele><time>2026-05-02T07:26:41.001Z</time></trkpt><trkpt lat="41.15369977893974" lon="9.425580185216043"><ele>20.666666666666668</ele><time>2026-05-02T07:26:42.001Z</time></trkpt><trkpt lat="41.153843573614964" lon="9.425449935721407"><ele>18.333333333333332</ele><time>2026-05-02T07:26:43Z</time></trkpt><trkpt lat="41.153977477639216" lon="9.425351656728937"><ele>16.0</ele><time>2026-05-02T07:26:44Z</time></trkpt><trkpt lat="41.15408394301254" lon="9.425226359553722"><ele>16.0</ele><time>2026-05-02T07:26:45Z</time></trkpt><trkpt lat="41.154165974068306" lon="9.425047762808067"><ele>16.0</ele><time>2026-05-02T07:26:46Z</time></trkpt><trkpt lat="41.154235000649564" lon="9.424850279326828"><ele>16.0</ele><time>2026-05-02T07:26:47Z</time></trkpt><trkpt lat="41.15429864060441" lon="9.424672573861162"><ele>16.5</ele><time>2026-05-02T07:26:48Z</time></trkpt><trkpt lat="41.15436043232812" lon="9.424512718910336"><ele>17.0</ele><time>2026-05-02T07:26:49Z</time></trkpt><trkpt lat="41.15440830115914" lon="9.424345581518413"><ele>17.5</ele><time>2026-05-02T07:26:50Z</time></trkpt><trkpt lat="41.154437521635465" lon="9.424180330299077"><ele>18.0</ele><time>2026-05-02T07:26:51Z</time></trkpt><trkpt lat="41.15442179199324" lon="9.424021848705506"><ele>18.0</ele><time>2026-05-02T07:26:52Z</time></trkpt><trkpt lat="41.15434821840883" lon="9.423854046127792"><ele>18.0</ele><time>2026-05-02T07:26:53Z</time></trkpt><trkpt lat="41.154246336315786" lon="9.42371530213454"><ele>18.0</ele><time>2026-05-02T07:26:54Z</time></trkpt><trkpt lat="41.15414848239593" lon="9.423593760536507"><ele>18.0</ele><time>2026-05-02T07:26:55Z</time></trkpt><trkpt lat="41.15411025297597" lon="9.423437523518766"><ele>17.5</ele><time>2026-05-02T07:26:56Z</time></trkpt><trkpt lat="41.15410645808451" lon="9.423278226853043"><ele>17.0</ele><time>2026-05-02T07:26:57Z</time></trkpt><trkpt lat="41.15411271118935" lon="9.4231062199983"><ele>16.5</ele><time>2026-05-02T07:26:58Z</time></trkpt><trkpt lat="41.15413355758168" lon="9.422937387981113"><ele>16.0</ele><time>2026-05-02T07:26:59Z</time></trkpt><trkpt lat="41.15415665406213" lon="9.4227635998889"><ele>16.0</ele><time>2026-05-02T07:27:00Z</time></trkpt><trkpt lat="41.15418056653758" lon="9.42258424177585"><ele>16.0</ele><time>2026-05-02T07:27:01Z</time></trkpt><trkpt lat="41.15418039238399" lon="9.422387116970816"><ele>16.0</ele><time>2026-05-02T07:27:02Z</time></trkpt><trkpt lat="41.154158407551726" lon="9.422185109830888"><ele>16.0</ele><time>2026-05-02T07:27:03Z</time></trkpt><trkpt lat="41.15412328559107" lon="9.421983792619628"><ele>13.666666666666666</ele><time>2026-05-02T07:27:04Z</time></trkpt><trkpt lat="41.15408567447297" lon="9.421793600927591"><ele>11.333333333333332</ele><time>2026-05-02T07:27:05Z</time></trkpt><trkpt lat="41.15405594167698" lon="9.421597589598191"><ele>9.0</ele><time>2026-05-02T07:27:06Z</time></trkpt><trkpt lat="41.15405522501506" lon="9.421389844915504"><ele>8.666666666666666</ele><time>2026-05-02T07:27:07Z</time></trkpt><trkpt lat="41.15410108198413" lon="9.421169304242795"><ele>8.333333333333332</ele><time>2026-05-02T07:27:08Z</time></trkpt><trkpt lat="41.15415879354366" lon="9.420945912392913"><ele>8.0</ele><time>2026-05-02T07:27:09Z</time></trkpt><trkpt lat="41.154228897455894" lon="9.420741774964021"><ele>8.0</ele><time>2026-05-02T07:27:10Z</time></trkpt><trkpt lat="41.1543033034445" lon="9.420549303886382"><ele>8.0</ele><time>2026-05-02T07:27:11Z</time></trkpt><trkpt lat="41.15436861349531" lon="9.42036506879346"><ele>8.0</ele><time>2026-05-02T07:27:12Z</time></trkpt><trkpt lat="41.15443657698402" lon="9.420183231148474"><ele>7.666666666666666</ele><time>2026-05-02T07:27:13Z</time></trkpt><trkpt lat="41.15454148607484" lon="9.42003128766261"><ele>7.333333333333334</ele><time>2026-05-02T07:27:14Z</time></trkpt><trkpt lat="41.15465755666611" lon="9.41988493018493"><ele>7.0</ele><time>2026-05-02T07:27:15Z</time></trkpt><trkpt lat="41.154800510806226" lon="9.419772290019521"><ele>6.0</ele><time>2026-05-02T07:27:16Z</time></trkpt><trkpt lat="41.15493120499892" lon="9.419671536082665"><ele>5.0</ele><time>2026-05-02T07:27:17Z</time></trkpt><trkpt lat="41.155046570303035" lon="9.41954530171412"><ele>4.0</ele><time>2026-05-02T07:27:18Z</time></trkpt><trkpt lat="41.15514789795373" lon="9.419387292402122"><ele>4.0</ele><time>2026-05-02T07:27:19Z</time></trkpt><trkpt lat="41.155228165418855" lon="9.419212447135857"><ele>4.0</ele><time>2026-05-02T07:27:20Z</time></trkpt><trkpt lat="41.155290930557626" lon="9.419039085707645"><ele>4.0</ele><time>2026-05-02T07:27:21Z</time></trkpt><trkpt lat="41.15534219715571" lon="9.418844218632653"><ele>6.0</ele><time>2026-05-02T07:27:22Z</time></trkpt><trkpt lat="41.155404930960074" lon="9.418655426174622"><ele>8.0</ele><time>2026-05-02T07:27:23Z</time></trkpt><trkpt lat="41.155486593574466" lon="9.418474482186362"><ele>10.0</ele><time>2026-05-02T07:27:24Z</time></trkpt><trkpt lat="41.15558061769775" lon="9.418313587796188"><ele>10.0</ele><time>2026-05-02T07:27:25Z</time></trkpt><trkpt lat="41.15567787663712" lon="9.418156004688662"><ele>10.0</ele><time>2026-05-02T07:27:26Z</time></trkpt><trkpt lat="41.15576461375609" lon="9.417990973670616"><ele>10.0</ele><time>2026-05-02T07:27:27Z</time></trkpt><trkpt lat="41.15582904188498" lon="9.417796115533404"><ele>8.333333333333334</ele><time>2026-05-02T07:27:28Z</time></trkpt><trkpt lat="41.15587570308715" lon="9.417593329860562"><ele>6.666666666666667</ele><time>2026-05-02T07:27:29Z</time></trkpt><trkpt lat="41.155912332352685" lon="9.417393086529017"><ele>5.0</ele><time>2026-05-02T07:27:30Z</time></trkpt><trkpt lat="41.15590792391149" lon="9.417171737487651"><ele>5.666666666666667</ele><time>2026-05-02T07:27:31Z</time></trkpt><trkpt lat="41.155885544277474" lon="9.416949537625765"><ele>6.333333333333334</ele><time>2026-05-02T07:27:32Z</time></trkpt><trkpt lat="41.15586490742921" lon="9.416726994033043"><ele>7.0</ele><time>2026-05-02T07:27:33Z</time></trkpt><trkpt lat="41.15580576201788" lon="9.416521597220013"><ele>7.333333333333334</ele><time>2026-05-02T07:27:34Z</time></trkpt><trkpt lat="41.155769724650575" lon="9.41631379216929"><ele>7.666666666666666</ele><time>2026-05-02T07:27:35Z</time></trkpt><trkpt lat="41.15578287843957" lon="9.416120212429368"><ele>8.0</ele><time>2026-05-02T07:27:36Z</time></trkpt><trkpt lat="41.15587347931954" lon="9.415932927161858"><ele>8.0</ele><time>2026-05-02T07:27:37Z</time></trkpt><trkpt lat="41.15592296199553" lon="9.415704608332632"><ele>8.0</ele><time>2026-05-02T07:27:38Z</time></trkpt><trkpt lat="41.15594485761726" lon="9.415512007122956"><ele>8.0</ele><time>2026-05-02T07:27:39Z</time></trkpt><trkpt lat="41.155989240730776" lon="9.415320434889054"><ele>7.666666666666666</ele><time>2026-05-02T07:27:40Z</time></trkpt><trkpt lat="41.156021716475564" lon="9.415114210526168"><ele>7.333333333333334</ele><time>2026-05-02T07:27:41Z</time></trkpt><trkpt lat="41.15601542912261" lon="9.414893409699438"><ele>7.0</ele><time>2026-05-02T07:27:42Z</time></trkpt><trkpt lat="41.15600433245128" lon="9.414676377359568"><ele>7.0</ele><time>2026-05-02T07:27:43Z</time></trkpt><trkpt lat="41.15599324442337" lon="9.4144622210906"><ele>7.0</ele><time>2026-05-02T07:27:44Z</time></trkpt><trkpt lat="41.15596815089447" lon="9.414242869092044"><ele>7.0</ele><time>2026-05-02T07:27:45Z</time></trkpt><trkpt lat="41.15592770406268" lon="9.414015016004102"><ele>6.333333333333334</ele><time>2026-05-02T07:27:46Z</time></trkpt><trkpt lat="41.155891336483265" lon="9.413781848869986"><ele>5.666666666666667</ele><time>2026-05-02T07:27:47Z</time></trkpt><trkpt lat="41.15584862013381" lon="9.413547391752775"><ele>5.0</ele><time>2026-05-02T07:27:48Z</time></trkpt><trkpt lat="41.15579980272189" lon="9.413302798314538"><ele>5.0</ele><time>2026-05-02T07:27:49Z</time></trkpt><trkpt lat="41.155751907450096" lon="9.41305550046371"><ele>5.0</ele><time>2026-05-02T07:27:50Z</time></trkpt><trkpt lat="41.155704331261724" lon="9.412803959869573"><ele>5.0</ele><time>2026-05-02T07:27:51Z</time></trkpt><trkpt lat="41.1556582812588" lon="9.412558235241887"><ele>6.0</ele><time>2026-05-02T07:27:52Z</time></trkpt><trkpt lat="41.1556076684222" lon="9.412306247444766"><ele>7.0</ele><time>2026-05-02T07:27:53Z</time></trkpt><trkpt lat="41.15554888383528" lon="9.412059288321988"><ele>8.0</ele><time>2026-05-02T07:27:54Z</time></trkpt><trkpt lat="41.155477693646105" lon="9.411814227293197"><ele>8.0</ele><time>2026-05-02T07:27:55Z</time></trkpt><trkpt lat="41.155382930358364" lon="9.411592829706061"><ele>8.0</ele><time>2026-05-02T07:27:56Z</time></trkpt><trkpt lat="41.15525843882967" lon="9.411413012128298"><ele>8.0</ele><time>2026-05-02T07:27:57Z</time></trkpt><trkpt lat="41.15512262784716" lon="9.411277464527203"><ele>7.0</ele><time>2026-05-02T07:27:58Z</time></trkpt><trkpt lat="41.15504874189038" lon="9.41110281321843"><ele>6.0</ele><time>2026-05-02T07:27:59Z</time></trkpt><trkpt lat="41.155024267926414" lon="9.410935958751597"><ele>5.0</ele><time>2026-05-02T07:28:00Z</time></trkpt><trkpt lat="41.15509196216728" lon="9.410802895797902"><ele>4.0</ele><time>2026-05-02T07:28:01Z</time></trkpt><trkpt lat="41.15518327734112" lon="9.410692363558683"><ele>4.0</ele><time>2026-05-02T07:28:02Z</time></trkpt><trkpt lat="41.155276527370134" lon="9.410511274729984"><ele>4.0</ele><time>2026-05-02T07:28:03Z</time></trkpt><trkpt lat="41.155322639319955" lon="9.410331081560598"><ele>4.0</ele><time>2026-05-02T07:28:04Z</time></trkpt><trkpt lat="41.15533652962739" lon="9.410113164858856"><ele>6.333333333333333</ele><time>2026-05-02T07:28:05Z</time></trkpt><trkpt lat="41.155348706233525" lon="9.409902473178391"><ele>8.666666666666666</ele><time>2026-05-02T07:28:06Z</time></trkpt><trkpt lat="41.155361985326074" lon="9.409704695021096"><ele>11.0</ele><time>2026-05-02T07:28:07Z</time></trkpt><trkpt lat="41.155372107610944" lon="9.409509031941122"><ele>11.0</ele><time>2026-05-02T07:28:08Z</time></trkpt><trkpt lat="41.155374432095485" lon="9.40931109688578"><ele>11.0</ele><time>2026-05-02T07:28:09Z</time></trkpt><trkpt lat="41.15536760422227" lon="9.409119084224779"><ele>11.0</ele><time>2026-05-02T07:28:10Z</time></trkpt><trkpt lat="41.1553311014997" lon="9.408942349484688"><ele>11.0</ele><time>2026-05-02T07:28:11Z</time></trkpt><trkpt lat="41.15525412672336" lon="9.408792469563467"><ele>10.0</ele><time>2026-05-02T07:28:12Z</time></trkpt><trkpt lat="41.15513262635747" lon="9.408695164825915"><ele>9.0</ele><time>2026-05-02T07:28:13Z</time></trkpt><trkpt lat="41.155045135573125" lon="9.408576596501163"><ele>8.0</ele><time>2026-05-02T07:28:14Z</time></trkpt><trkpt lat="41.15501062116556" lon="9.408447441348647"><ele>7.0</ele><time>2026-05-02T07:28:15Z</time></trkpt><trkpt lat="41.15503757011274" lon="9.408307440858223"><ele>7.0</ele><time>2026-05-02T07:28:16Z</time></trkpt><trkpt lat="41.155114568212724" lon="9.408205005664017"><ele>7.0</ele><time>2026-05-02T07:28:17Z</time></trkpt><trkpt lat="41.15521353208927" lon="9.408102994399776"><ele>7.0</ele><time>2026-05-02T07:28:18Z</time></trkpt><trkpt lat="41.15531634862887" lon="9.40799023992009"><ele>7.0</ele><time>2026-05-02T07:28:19Z</time></trkpt><trkpt lat="41.15543386131477" lon="9.40786452731039"><ele>6.666666666666667</ele><time>2026-05-02T07:28:20Z</time></trkpt><trkpt lat="41.15556205285958" lon="9.407741955750526"><ele>6.333333333333334</ele><time>2026-05-02T07:28:21Z</time></trkpt><trkpt lat="41.15569329624106" lon="9.40763574330767"><ele>6.0</ele><time>2026-05-02T07:28:22Z</time></trkpt><trkpt lat="41.155814848297105" lon="9.407531994780378"><ele>6.0</ele><time>2026-05-02T07:28:23Z</time></trkpt><trkpt lat="41.155936948301175" lon="9.40742092967269"><ele>6.0</ele><time>2026-05-02T07:28:24Z</time></trkpt><trkpt lat="41.15606551020102" lon="9.407295849020054"><ele>6.0</ele><time>2026-05-02T07:28:25Z</time></trkpt><trkpt lat="41.15618258797212" lon="9.407146152212118"><ele>7.666666666666666</ele><time>2026-05-02T07:28:26Z</time></trkpt><trkpt lat="41.15628043899577" lon="9.406984531929378"><ele>9.333333333333332</ele><time>2026-05-02T07:28:27Z</time></trkpt><trkpt lat="41.15636750127322" lon="9.40679830288077"><ele>11.0</ele><time>2026-05-02T07:28:28Z</time></trkpt><trkpt lat="41.15645159114255" lon="9.4065990071954"><ele>11.0</ele><time>2026-05-02T07:28:29Z</time></trkpt><trkpt lat="41.15653524921038" lon="9.406392392280763"><ele>11.0</ele><time>2026-05-02T07:28:30Z</time></trkpt><trkpt lat="41.156617206137206" lon="9.406198812961986"><ele>11.0</ele><time>2026-05-02T07:28:31Z</time></trkpt><trkpt lat="41.156701232147284" lon="9.406009477491848"><ele>11.0</ele><time>2026-05-02T07:28:32Z</time></trkpt><trkpt lat="41.156780237707224" lon="9.405837718687902"><ele>11.0</ele><time>2026-05-02T07:28:33Z</time></trkpt><trkpt lat="41.15683597692726" lon="9.405655471700337"><ele>11.0</ele><time>2026-05-02T07:28:34Z</time></trkpt><trkpt lat="41.15686943212998" lon="9.405484290227628"><ele>11.0</ele><time>2026-05-02T07:28:35Z</time></trkpt><trkpt lat="41.156880486751454" lon="9.40529861416977"><ele>11.0</ele><time>2026-05-02T07:28:36Z</time></trkpt><trkpt lat="41.15686707963846" lon="9.405110936800355"><ele>11.0</ele><time>2026-05-02T07:28:37Z</time></trkpt><trkpt lat="41.15682745618495" lon="9.404932611445322"><ele>11.0</ele><time>2026-05-02T07:28:38Z</time></trkpt><trkpt lat="41.15676960904606" lon="9.4047659580966"><ele>11.0</ele><time>2026-05-02T07:28:39Z</time></trkpt><trkpt lat="41.15668456843893" lon="9.404615533851711"><ele>10.5</ele><time>2026-05-02T07:28:40Z</time></trkpt><trkpt lat="41.156583601538074" lon="9.404470243386882"><ele>10.0</ele><time>2026-05-02T07:28:41Z</time></trkpt><trkpt lat="41.15651472545828" lon="9.404298450332897"><ele>9.5</ele><time>2026-05-02T07:28:42Z</time></trkpt><trkpt lat="41.15645346312916" lon="9.404128434903472"><ele>9.0</ele><time>2026-05-02T07:28:43Z</time></trkpt><trkpt lat="41.1563979215142" lon="9.403973177901477"><ele>11.0</ele><time>2026-05-02T07:28:44Z</time></trkpt><trkpt lat="41.156355156388805" lon="9.403828660616892"><ele>13.0</ele><time>2026-05-02T07:28:45Z</time></trkpt><trkpt lat="41.156394570988446" lon="9.40364702525742"><ele>15.0</ele><time>2026-05-02T07:28:46Z</time></trkpt><trkpt lat="41.15642357079741" lon="9.403415296484502"><ele>17.0</ele><time>2026-05-02T07:28:47Z</time></trkpt><trkpt lat="41.156437262167884" lon="9.403214904154463"><ele>17.0</ele><time>2026-05-02T07:28:48Z</time></trkpt><trkpt lat="41.156449309582456" lon="9.403013158251374"><ele>17.0</ele><time>2026-05-02T07:28:49Z</time></trkpt><trkpt lat="41.15647241389326" lon="9.40279884041821"><ele>17.0</ele><time>2026-05-02T07:28:50Z</time></trkpt><trkpt lat="41.156514192512" lon="9.402578215686763"><ele>16.666666666666668</ele><time>2026-05-02T07:28:51Z</time></trkpt><trkpt lat="41.15657648085307" lon="9.402357801679516"><ele>16.333333333333332</ele><time>2026-05-02T07:28:52Z</time></trkpt><trkpt lat="41.15665049406167" lon="9.402119208129081"><ele>16.0</ele><time>2026-05-02T07:28:53Z</time></trkpt><trkpt lat="41.15672709604942" lon="9.40187524871228"><ele>16.0</ele><time>2026-05-02T07:28:54Z</time></trkpt><trkpt lat="41.15680740311358" lon="9.401627817905926"><ele>16.0</ele><time>2026-05-02T07:28:55Z</time></trkpt><trkpt lat="41.156885216040024" lon="9.401375716102855"><ele>16.0</ele><time>2026-05-02T07:28:56Z</time></trkpt><trkpt lat="41.156966529527004" lon="9.401118087339318"><ele>18.666666666666664</ele><time>2026-05-02T07:28:57Z</time></trkpt><trkpt lat="41.15705411972255" lon="9.40086570558087"><ele>21.333333333333332</ele><time>2026-05-02T07:28:58Z</time></trkpt><trkpt lat="41.15715047523246" lon="9.400603078727409"><ele>24.0</ele><time>2026-05-02T07:28:59Z</time></trkpt><trkpt lat="41.15725750361137" lon="9.400336307132932"><ele>18.0</ele><time>2026-05-02T07:29:00Z</time></trkpt><trkpt lat="41.157371055231074" lon="9.400066953608494"><ele>12.0</ele><time>2026-05-02T07:29:01Z</time></trkpt><trkpt lat="41.15748048787399" lon="9.399788487495684"><ele>15.0</ele><time>2026-05-02T07:29:02Z</time></trkpt><trkpt lat="41.157594192393525" lon="9.399512342944396"><ele>18.0</ele><time>2026-05-02T07:29:03Z</time></trkpt><trkpt lat="41.15771957090628" lon="9.399243296244341"><ele>18.0</ele><time>2026-05-02T07:29:04Z</time></trkpt><trkpt lat="41.15786446006429" lon="9.398985595425195"><ele>18.0</ele><time>2026-05-02T07:29:05Z</time></trkpt><trkpt lat="41.158003417919865" lon="9.398747640680021"><ele>19.333333333333332</ele><time>2026-05-02T07:29:06Z</time></trkpt><trkpt lat="41.15813252981134" lon="9.398518970336236"><ele>20.666666666666664</ele><time>2026-05-02T07:29:07Z</time></trkpt><trkpt lat="41.15825220863984" lon="9.398293551710267"><ele>22.0</ele><time>2026-05-02T07:29:08Z</time></trkpt><trkpt lat="41.158365663581" lon="9.398084775691173"><ele>19.666666666666664</ele><time>2026-05-02T07:29:09Z</time></trkpt><trkpt lat="41.15847281412419" lon="9.39789021536716"><ele>17.333333333333332</ele><time>2026-05-02T07:29:10Z</time></trkpt><trkpt lat="41.15857014789117" lon="9.397707178526707"><ele>15.0</ele><time>2026-05-02T07:29:11Z</time></trkpt><trkpt lat="41.15866205684771" lon="9.397562445127905"><ele>15.0</ele><time>2026-05-02T07:29:12Z</time></trkpt><trkpt lat="41.15875479238038" lon="9.39746246052375"><ele>15.0</ele><time>2026-05-02T07:29:13Z</time></trkpt><trkpt lat="41.15885155396524" lon="9.397391729539958"><ele>15.0</ele><time>2026-05-02T07:29:14Z</time></trkpt><trkpt lat="41.158963499300974" lon="9.397358886959466"><ele>15.0</ele><time>2026-05-02T07:29:15Z</time></trkpt><trkpt lat="41.15908057178191" lon="9.397378414028813"><ele>13.0</ele><time>2026-05-02T07:29:16Z</time></trkpt><trkpt lat="41.15920503229302" lon="9.39746772226354"><ele>11.0</ele><time>2026-05-02T07:29:17Z</time></trkpt><trkpt lat="41.1593089992443" lon="9.39764745317945"><ele>9.0</ele><time>2026-05-02T07:29:18Z</time></trkpt><trkpt lat="41.159454202718045" lon="9.39779660330546"><ele>9.0</ele><time>2026-05-02T07:29:19Z</time></trkpt><trkpt lat="41.15959109339697" lon="9.39798539045898"><ele>9.0</ele><time>2026-05-02T07:29:20Z</time></trkpt><trkpt lat="41.1597333520976" lon="9.39815532199189"><ele>9.0</ele><time>2026-05-02T07:29:21Z</time></trkpt><trkpt lat="41.15987198862799" lon="9.398310942914717"><ele>9.5</ele><time>2026-05-02T07:29:22Z</time></trkpt><trkpt lat="41.159987170947645" lon="9.398443549840545"><ele>10.0</ele><time>2026-05-02T07:29:23Z</time></trkpt><trkpt lat="41.160098619152315" lon="9.398563622980882"><ele>10.5</ele><time>2026-05-02T07:29:24Z</time></trkpt><trkpt lat="41.160202034776106" lon="9.398679446969425"><ele>11.0</ele><time>2026-05-02T07:29:25Z</time></trkpt><trkpt lat="41.16030833033488" lon="9.398795642298762"><ele>10.5</ele><time>2026-05-02T07:29:26Z</time></trkpt><trkpt lat="41.16041517032231" lon="9.398912911325901"><ele>10.0</ele><time>2026-05-02T07:29:27Z</time></trkpt><trkpt lat="41.160523314518635" lon="9.399029515147031"><ele>9.5</ele><time>2026-05-02T07:29:28Z</time></trkpt><trkpt lat="41.160629902160046" lon="9.399150997357996"><ele>9.0</ele><time>2026-05-02T07:29:29Z</time></trkpt><trkpt lat="41.16073744937472" lon="9.399279258962647"><ele>10.666666666666668</ele><time>2026-05-02T07:29:30Z</time></trkpt><trkpt lat="41.160849281079294" lon="9.399406824004247"><ele>12.333333333333334</ele><time>2026-05-02T07:29:31Z</time></trkpt><trkpt lat="41.160966201812016" lon="9.399532388370158"><ele>14.0</ele><time>2026-05-02T07:29:32Z</time></trkpt><trkpt lat="41.16109147483094" lon="9.399652775405627"><ele>13.0</ele><time>2026-05-02T07:29:33Z</time></trkpt><trkpt lat="41.16121561262888" lon="9.399761753211932"><ele>12.0</ele><time>2026-05-02T07:29:34Z</time></trkpt><trkpt lat="41.16134368433559" lon="9.399874805360213"><ele>11.0</ele><time>2026-05-02T07:29:35Z</time></trkpt><trkpt lat="41.16147320012539" lon="9.39999714816449"><ele>11.333333333333332</ele><time>2026-05-02T07:29:36Z</time></trkpt><trkpt lat="41.16160314507953" lon="9.400123577068863"><ele>11.666666666666666</ele><time>2026-05-02T07:29:37Z</time></trkpt><trkpt lat="41.16173234949322" lon="9.40025155277327"><ele>12.0</ele><time>2026-05-02T07:29:38Z</time></trkpt><trkpt lat="41.16186600400262" lon="9.400377498729878"><ele>11.666666666666666</ele><time>2026-05-02T07:29:39Z</time></trkpt><trkpt lat="41.16199208530455" lon="9.400505915755426"><ele>11.333333333333332</ele><time>2026-05-02T07:29:40Z</time></trkpt><trkpt lat="41.16211851414282" lon="9.400629429560182"><ele>11.0</ele><time>2026-05-02T07:29:41Z</time></trkpt><trkpt lat="41.16226334798448" lon="9.400742690081788"><ele>11.0</ele><time>2026-05-02T07:29:42Z</time></trkpt><trkpt lat="41.162405880577566" lon="9.400859791124345"><ele>11.0</ele><time>2026-05-02T07:29:43Z</time></trkpt><trkpt lat="41.16255880988295" lon="9.400980577699242"><ele>11.0</ele><time>2026-05-02T07:29:44Z</time></trkpt><trkpt lat="41.16270732020134" lon="9.401095880041769"><ele>11.0</ele><time>2026-05-02T07:29:45Z</time></trkpt><trkpt lat="41.16285748299305" lon="9.401212098466976"><ele>11.0</ele><time>2026-05-02T07:29:46Z</time></trkpt><trkpt lat="41.16299828009279" lon="9.401326018364147"><ele>11.0</ele><time>2026-05-02T07:29:47Z</time></trkpt><trkpt lat="41.16314243713911" lon="9.401448232267425"><ele>11.666666666666666</ele><time>2026-05-02T07:29:48Z</time></trkpt><trkpt lat="41.163274129713514" lon="9.401592492445271"><ele>12.333333333333332</ele><time>2026-05-02T07:29:49Z</time></trkpt><trkpt lat="41.163382692283925" lon="9.401761527626089"><ele>13.0</ele><time>2026-05-02T07:29:50Z</time></trkpt><trkpt lat="41.163477885723324" lon="9.401931901184625"><ele>13.0</ele><time>2026-05-02T07:29:51Z</time></trkpt><trkpt lat="41.16357147962881" lon="9.402089372569172"><ele>13.0</ele><time>2026-05-02T07:29:52Z</time></trkpt><trkpt lat="41.16367222179859" lon="9.40219932898082"><ele>13.0</ele><time>2026-05-02T07:29:53Z</time></trkpt><trkpt lat="41.16378425190775" lon="9.40224542574395"><ele>13.0</ele><time>2026-05-02T07:29:54Z</time></trkpt><trkpt lat="41.163895115967655" lon="9.402236342965903"><ele>13.0</ele><time>2026-05-02T07:29:55Z</time></trkpt><trkpt lat="41.16400937643426" lon="9.402164567673214"><ele>13.0</ele><time>2026-05-02T07:29:56Z</time></trkpt><trkpt lat="41.16413079002032" lon="9.40204415661661"><ele>13.0</ele><time>2026-05-02T07:29:57Z</time></trkpt><trkpt lat="41.164252298476654" lon="9.401915979172955"><ele>13.0</ele><time>2026-05-02T07:29:58Z</time></trkpt><trkpt lat="41.16437198186383" lon="9.401807931015071"><ele>16.0</ele><time>2026-05-02T07:29:59Z</time></trkpt><trkpt lat="41.16447627322271" lon="9.401720949533747"><ele>19.0</ele><time>2026-05-02T07:30:00Z</time></trkpt><trkpt lat="41.164602303806724" lon="9.401702624221551"><ele>22.0</ele><time>2026-05-02T07:30:01Z</time></trkpt><trkpt lat="41.16472713314288" lon="9.401771792359796"><ele>25.0</ele><time>2026-05-02T07:30:02Z</time></trkpt><trkpt lat="41.16485963301405" lon="9.401889668305008"><ele>27.0</ele><time>2026-05-02T07:30:03Z</time></trkpt><trkpt lat="41.16497507454336" lon="9.40203631410734"><ele>29.0</ele><time>2026-05-02T07:30:04Z</time></trkpt><trkpt lat="41.16508681945934" lon="9.402174660550248"><ele>31.0</ele><time>2026-05-02T07:30:05Z</time></trkpt><trkpt lat="41.16520242120937" lon="9.402313708034992"><ele>33.0</ele><time>2026-05-02T07:30:06Z</time></trkpt><trkpt lat="41.16532909893237" lon="9.402422616362333"><ele>35.0</ele><time>2026-05-02T07:30:07Z</time></trkpt><trkpt lat="41.16544112469253" lon="9.402534932409296"><ele>37.0</ele><time>2026-05-02T07:30:08Z</time></trkpt><trkpt lat="41.165567924327014" lon="9.402628143270283"><ele>39.0</ele><time>2026-05-02T07:30:09Z</time></trkpt><trkpt lat="41.16571992268051" lon="9.402743200174491"><ele>39.0</ele><time>2026-05-02T07:30:10Z</time></trkpt><trkpt lat="41.165902233393375" lon="9.402898439462614"><ele>39.0</ele><time>2026-05-02T07:30:11Z</time></trkpt><trkpt lat="41.16604091032718" lon="9.40303231415879"><ele>39.0</ele><time>2026-05-02T07:30:12Z</time></trkpt><trkpt lat="41.16618050586437" lon="9.403126061720672"><ele>40.666666666666664</ele><time>2026-05-02T07:30:13Z</time></trkpt><trkpt lat="41.166321717754386" lon="9.403189284866324"><ele>42.33333333333333</ele><time>2026-05-02T07:30:14Z</time></trkpt><trkpt lat="41.16647273685919" lon="9.403181961127222"><ele>44.0</ele><time>2026-05-02T07:30:15Z</time></trkpt><trkpt lat="41.16661333240114" lon="9.403107470684105"><ele>44.33333333333333</ele><time>2026-05-02T07:30:16Z</time></trkpt><trkpt lat="41.16673519064731" lon="9.402971310850658"><ele>44.666666666666664</ele><time>2026-05-02T07:30:17Z</time></trkpt><trkpt lat="41.166830704841985" lon="9.402811790737596"><ele>45.0</ele><time>2026-05-02T07:30:18Z</time></trkpt><trkpt lat="41.166933828187815" lon="9.402630606942735"><ele>45.0</ele><time>2026-05-02T07:30:19Z</time></trkpt><trkpt lat="41.167038952986196" lon="9.402454339346434"><ele>45.0</ele><time>2026-05-02T07:30:20Z</time></trkpt><trkpt lat="41.167129084679466" lon="9.402315559617467"><ele>45.0</ele><time>2026-05-02T07:30:21Z</time></trkpt><trkpt lat="41.167215578358345" lon="9.402166203437963"><ele>45.0</ele><time>2026-05-02T07:30:22Z</time></trkpt><trkpt lat="41.16729231968951" lon="9.40199249481283"><ele>45.5</ele><time>2026-05-02T07:30:23Z</time></trkpt><trkpt lat="41.16733670043696" lon="9.401821872132022"><ele>46.0</ele><time>2026-05-02T07:30:24Z</time></trkpt><trkpt lat="41.16735986271896" lon="9.40165235723383"><ele>46.5</ele><time>2026-05-02T07:30:25Z</time></trkpt><trkpt lat="41.16740977755716" lon="9.401489873653585"><ele>47.0</ele><time>2026-05-02T07:30:26Z</time></trkpt><trkpt lat="41.1675150632645" lon="9.40137357857584"><ele>50.25</ele><time>2026-05-02T07:30:27Z</time></trkpt><trkpt lat="41.167656163157346" lon="9.401327062207379"><ele>53.5</ele><time>2026-05-02T07:30:28Z</time></trkpt><trkpt lat="41.16779355613808" lon="9.401390705275869"><ele>56.75</ele><time>2026-05-02T07:30:29Z</time></trkpt><trkpt lat="41.16793765332784" lon="9.401440916580665"><ele>60.0</ele><time>2026-05-02T07:30:30Z</time></trkpt><trkpt lat="41.16806326156232" lon="9.401504663290478"><ele>60.25</ele><time>2026-05-02T07:30:31Z</time></trkpt><trkpt lat="41.168188418709725" lon="9.401558751357559"><ele>60.5</ele><time>2026-05-02T07:30:32Z</time></trkpt><trkpt lat="41.16831013376493" lon="9.40161342458167"><ele>60.75</ele><time>2026-05-02T07:30:33Z</time></trkpt><trkpt lat="41.16842836036571" lon="9.401665643160609"><ele>61.0</ele><time>2026-05-02T07:30:34Z</time></trkpt><trkpt lat="41.16855092700116" lon="9.401712294347458"><ele>63.0</ele><time>2026-05-02T07:30:35Z</time></trkpt><trkpt lat="41.16867198333988" lon="9.401765435424345"><ele>65.0</ele><time>2026-05-02T07:30:36Z</time></trkpt><trkpt lat="41.168795132653806" lon="9.401835417368416"><ele>67.0</ele><time>2026-05-02T07:30:37Z</time></trkpt><trkpt lat="41.16890805974936" lon="9.401920878409728"><ele>69.0</ele><time>2026-05-02T07:30:38Z</time></trkpt><trkpt lat="41.16901771062371" lon="9.402014260943576"><ele>69.0</ele><time>2026-05-02T07:30:39Z</time></trkpt><trkpt lat="41.169124125424936" lon="9.402107470453673"><ele>69.0</ele><time>2026-05-02T07:30:40Z</time></trkpt><trkpt lat="41.16923324166006" lon="9.402200481410192"><ele>69.0</ele><time>2026-05-02T07:30:41Z</time></trkpt><trkpt lat="41.16934114513828" lon="9.402285973795491"><ele>69.0</ele><time>2026-05-02T07:30:42Z</time></trkpt><trkpt lat="41.16944954345975" lon="9.402353943140737"><ele>69.0</ele><time>2026-05-02T07:30:43Z</time></trkpt><trkpt lat="41.16956769609851" lon="9.402374979939873"><ele>69.0</ele><time>2026-05-02T07:30:44Z</time></trkpt><trkpt lat="41.16970174185482" lon="9.402341374545841"><ele>69.0</ele><time>2026-05-02T07:30:45Z</time></trkpt><trkpt lat="41.1698545230573" lon="9.402277487298411"><ele>69.0</ele><time>2026-05-02T07:30:46Z</time></trkpt><trkpt lat="41.16998974037121" lon="9.40226147734343"><ele>68.25</ele><time>2026-05-02T07:30:47Z</time></trkpt><trkpt lat="41.17012785480846" lon="9.402240288189981"><ele>67.5</ele><time>2026-05-02T07:30:48Z</time></trkpt><trkpt lat="41.170264520019245" lon="9.402215007569048"><ele>66.75</ele><time>2026-05-02T07:30:49Z</time></trkpt><trkpt lat="41.17039675579177" lon="9.402194531255258"><ele>66.0</ele><time>2026-05-02T07:30:50Z</time></trkpt><trkpt lat="41.17053333761379" lon="9.402204155270274"><ele>66.0</ele><time>2026-05-02T07:30:51Z</time></trkpt><trkpt lat="41.17066596629582" lon="9.402285065602616"><ele>66.0</ele><time>2026-05-02T07:30:52Z</time></trkpt><trkpt lat="41.17081169286826" lon="9.402333203124329"><ele>66.0</ele><time>2026-05-02T07:30:53Z</time></trkpt><trkpt lat="41.17093865778521" lon="9.402405804340198"><ele>66.0</ele><time>2026-05-02T07:30:54Z</time></trkpt><trkpt lat="41.17106067308623" lon="9.402470770569154"><ele>64.75</ele><time>2026-05-02T07:30:55Z</time></trkpt><trkpt lat="41.1711721076387" lon="9.402555283603899"><ele>63.5</ele><time>2026-05-02T07:30:56Z</time></trkpt><trkpt lat="41.171225137311666" lon="9.402705867655216"><ele>62.25</ele><time>2026-05-02T07:30:57Z</time></trkpt><trkpt lat="41.17124479256196" lon="9.402867259348932"><ele>61.0</ele><time>2026-05-02T07:30:58Z</time></trkpt><trkpt lat="41.17127275000854" lon="9.403035430146252"><ele>61.0</ele><time>2026-05-02T07:30:59Z</time></trkpt><trkpt lat="41.17129951061553" lon="9.403201003795157"><ele>61.0</ele><time>2026-05-02T07:31:00Z</time></trkpt><trkpt lat="41.17134489005487" lon="9.403355906882021"><ele>61.0</ele><time>2026-05-02T07:31:01Z</time></trkpt><trkpt lat="41.171390360910245" lon="9.403499093116508"><ele>61.0</ele><time>2026-05-02T07:31:02Z</time></trkpt><trkpt lat="41.171466702710454" lon="9.403599908668347"><ele>58.8</ele><time>2026-05-02T07:31:03Z</time></trkpt><trkpt lat="41.171552537781466" lon="9.403611609102436"><ele>56.599999999999994</ele><time>2026-05-02T07:31:04Z</time></trkpt><trkpt lat="41.17164744539775" lon="9.403567429886962"><ele>54.4</ele><time>2026-05-02T07:31:05Z</time></trkpt><trkpt lat="41.171742599211626" lon="9.403527009890864"><ele>52.2</ele><time>2026-05-02T07:31:06Z</time></trkpt><trkpt lat="41.17182997398829" lon="9.403520468126615"><ele>50.0</ele><time>2026-05-02T07:31:07Z</time></trkpt><trkpt lat="41.1719121965701" lon="9.403552991301158"><ele>50.00000000000001</ele><time>2026-05-02T07:31:08Z</time></trkpt><trkpt lat="41.1719817056043" lon="9.403618354317512"><ele>50.0</ele><time>2026-05-02T07:31:09Z</time></trkpt><trkpt lat="41.17202871999455" lon="9.403716287012307"><ele>50.0</ele><time>2026-05-02T07:31:10Z</time></trkpt><trkpt lat="41.172016752993244" lon="9.403835604047178"><ele>50.0</ele><time>2026-05-02T07:31:11Z</time></trkpt><trkpt lat="41.17204283847609" lon="9.403916326076802"><ele>50.00000000000001</ele><time>2026-05-02T07:31:12Z</time></trkpt><trkpt lat="41.17206173610244" lon="9.404047160876623"><ele>50.0</ele><time>2026-05-02T07:31:15Z</time></trkpt><trkpt lat="41.172084654718226" lon="9.404134483081606"><ele>50.0</ele><time>2026-05-02T07:31:17Z</time></trkpt><trkpt lat="41.17213503269635" lon="9.404195496961307"><ele>50.0</ele><time>2026-05-02T07:31:20Z</time></trkpt><trkpt lat="41.1722176083697" lon="9.404064975398105"><ele>50.0</ele><time>2026-05-02T07:31:25Z</time></trkpt><trkpt lat="41.172200823819985" lon="9.403942333243275"><ele>50.0</ele><time>2026-05-02T07:31:26Z</time></trkpt><trkpt lat="41.172159127777505" lon="9.40376416098631"><ele>50.0</ele><time>2026-05-02T07:31:27Z</time></trkpt><trkpt lat="41.17213212528791" lon="9.403550715824398"><ele>50.0</ele><time>2026-05-02T07:31:28Z</time></trkpt><trkpt lat="41.172143718753624" lon="9.403368334904638"><ele>50.0</ele><time>2026-05-02T07:31:29Z</time></trkpt><trkpt lat="41.1721689058377" lon="9.403230480039547"><ele>50.0</ele><time>2026-05-02T07:31:30Z</time></trkpt><trkpt lat="41.1721936844611" lon="9.403086113096057"><ele>50.0</ele><time>2026-05-02T07:31:31Z</time></trkpt><trkpt lat="41.1722951581538" lon="9.402944922412741"><ele>45.333333333333336</ele><time>2026-05-02T07:31:32Z</time></trkpt><trkpt lat="41.17236025386537" lon="9.402715026000749"><ele>40.66666666666667</ele><time>2026-05-02T07:31:33Z</time></trkpt><trkpt lat="41.172416662352845" lon="9.402478454832806"><ele>36.0</ele><time>2026-05-02T07:31:34Z</time></trkpt><trkpt lat="41.17248102948222" lon="9.402287360096855"><ele>36.0</ele><time>2026-05-02T07:31:35Z</time></trkpt><trkpt lat="41.172599606811005" lon="9.402199258291802"><ele>36.0</ele><time>2026-05-02T07:31:36Z</time></trkpt><trkpt lat="41.172732689075566" lon="9.40223423906601"><ele>36.0</ele><time>2026-05-02T07:31:37Z</time></trkpt><trkpt lat="41.17285545714091" lon="9.402328907512578"><ele>36.0</ele><time>2026-05-02T07:31:38Z</time></trkpt><trkpt lat="41.17290714732234" lon="9.402492773691893"><ele>36.0</ele><time>2026-05-02T07:31:39Z</time></trkpt><trkpt lat="41.172934333350746" lon="9.402662298300433"><ele>36.0</ele><time>2026-05-02T07:31:40Z</time></trkpt><trkpt lat="41.17300216503016" lon="9.402812651663279"><ele>36.0</ele><time>2026-05-02T07:31:41Z</time></trkpt><trkpt lat="41.17306568008561" lon="9.402914483941263"><ele>36.0</ele><time>2026-05-02T07:31:42Z</time></trkpt><trkpt lat="41.17316674431919" lon="9.403016840317605"><ele>32.75</ele><time>2026-05-02T07:31:43Z</time></trkpt><trkpt lat="41.173296842461035" lon="9.403095886706774"><ele>29.5</ele><time>2026-05-02T07:31:44Z</time></trkpt><trkpt lat="41.17342785977116" lon="9.40316422461349"><ele>26.25</ele><time>2026-05-02T07:31:45Z</time></trkpt><trkpt lat="41.173554580107435" lon="9.403220524236366"><ele>23.0</ele><time>2026-05-02T07:31:46Z</time></trkpt><trkpt lat="41.173675240285796" lon="9.403265278741463"><ele>23.0</ele><time>2026-05-02T07:31:47Z</time></trkpt><trkpt lat="41.173800272493835" lon="9.40325342693579"><ele>23.0</ele><time>2026-05-02T07:31:48Z</time></trkpt><trkpt lat="41.17393193811546" lon="9.403249454257027"><ele>23.0</ele><time>2026-05-02T07:31:49Z</time></trkpt><trkpt lat="41.17406010510442" lon="9.403195542172526"><ele>23.0</ele><time>2026-05-02T07:31:50Z</time></trkpt><trkpt lat="41.17418833827403" lon="9.403143882667873"><ele>23.5</ele><time>2026-05-02T07:31:51Z</time></trkpt><trkpt lat="41.17429989601572" lon="9.40305885419743"><ele>24.0</ele><time>2026-05-02T07:31:52Z</time></trkpt><trkpt lat="41.17440464938402" lon="9.402916910998453"><ele>24.5</ele><time>2026-05-02T07:31:53Z</time></trkpt><trkpt lat="41.17449728134763" lon="9.402756506027295"><ele>25.0</ele><time>2026-05-02T07:31:54Z</time></trkpt><trkpt lat="41.17458499000553" lon="9.402601708645424"><ele>25.0</ele><time>2026-05-02T07:31:55Z</time></trkpt><trkpt lat="41.17466903821871" lon="9.402447938874092"><ele>25.0</ele><time>2026-05-02T07:31:56Z</time></trkpt><trkpt lat="41.17474498922875" lon="9.40230417306325"><ele>25.0</ele><time>2026-05-02T07:31:57Z</time></trkpt><trkpt lat="41.174819986588595" lon="9.402161472815463"><ele>25.0</ele><time>2026-05-02T07:31:58Z</time></trkpt><trkpt lat="41.17488938987315" lon="9.402017553763379"><ele>21.25</ele><time>2026-05-02T07:31:59Z</time></trkpt><trkpt lat="41.17494874424785" lon="9.40187020694244"><ele>17.5</ele><time>2026-05-02T07:32:00Z</time></trkpt><trkpt lat="41.174979106470644" lon="9.401707001029505"><ele>13.75</ele><time>2026-05-02T07:32:01Z</time></trkpt><trkpt lat="41.17496897737374" lon="9.401543809784842"><ele>10.0</ele><time>2026-05-02T07:32:02Z</time></trkpt><trkpt lat="41.17494106244094" lon="9.401388617325349"><ele>9.5</ele><time>2026-05-02T07:32:03Z</time></trkpt><trkpt lat="41.17493139838712" lon="9.40122539016001"><ele>9.0</ele><time>2026-05-02T07:32:04Z</time></trkpt><trkpt lat="41.17492428859545" lon="9.401062722576205"><ele>8.5</ele><time>2026-05-02T07:32:05Z</time></trkpt><trkpt lat="41.174915543637454" lon="9.40088859983436"><ele>8.0</ele><time>2026-05-02T07:32:06Z</time></trkpt><trkpt lat="41.17491556216656" lon="9.400716238465456"><ele>8.0</ele><time>2026-05-02T07:32:07Z</time></trkpt><trkpt lat="41.174933926457285" lon="9.400556903737005"><ele>8.0</ele><time>2026-05-02T07:32:08Z</time></trkpt><trkpt lat="41.17496334709422" lon="9.400393048144098"><ele>8.0</ele><time>2026-05-02T07:32:09Z</time></trkpt><trkpt lat="41.17500325945104" lon="9.400232614462976"><ele>8.0</ele><time>2026-05-02T07:32:10Z</time></trkpt><trkpt lat="41.17504568197759" lon="9.400076954978584"><ele>8.75</ele><time>2026-05-02T07:32:11Z</time></trkpt><trkpt lat="41.175086875202666" lon="9.399918535644371"><ele>9.5</ele><time>2026-05-02T07:32:12Z</time></trkpt><trkpt lat="41.17512093278525" lon="9.39976220704767"><ele>10.25</ele><time>2026-05-02T07:32:13Z</time></trkpt><trkpt lat="41.175159148013236" lon="9.399606051220998"><ele>11.0</ele><time>2026-05-02T07:32:14Z</time></trkpt><trkpt lat="41.17519778049888" lon="9.399451423236114"><ele>11.75</ele><time>2026-05-02T07:32:15Z</time></trkpt><trkpt lat="41.17524793569772" lon="9.399311154385677"><ele>12.5</ele><time>2026-05-02T07:32:16Z</time></trkpt><trkpt lat="41.17530623055066" lon="9.399179557003922"><ele>13.25</ele><time>2026-05-02T07:32:17Z</time></trkpt><trkpt lat="41.175370855881496" lon="9.399050767731657"><ele>14.0</ele><time>2026-05-02T07:32:18Z</time></trkpt><trkpt lat="41.17543815737425" lon="9.398921639253901"><ele>14.75</ele><time>2026-05-02T07:32:19Z</time></trkpt><trkpt lat="41.1755140975764" lon="9.398799279955954"><ele>15.5</ele><time>2026-05-02T07:32:20Z</time></trkpt><trkpt lat="41.17559297237113" lon="9.398664050595121"><ele>16.25</ele><time>2026-05-02T07:32:21Z</time></trkpt><trkpt lat="41.17566674490196" lon="9.398497276029076"><ele>17.0</ele><time>2026-05-02T07:32:22Z</time></trkpt><trkpt lat="41.17572830100098" lon="9.398311144212162"><ele>17.0</ele><time>2026-05-02T07:32:23Z</time></trkpt><trkpt lat="41.17577124643269" lon="9.3981082002599"><ele>17.0</ele><time>2026-05-02T07:32:24Z</time></trkpt><trkpt lat="41.175787717989486" lon="9.397891115181897"><ele>17.0</ele><time>2026-05-02T07:32:25Z</time></trkpt><trkpt lat="41.175783762386196" lon="9.397661513674764"><ele>17.0</ele><time>2026-05-02T07:32:26Z</time></trkpt><trkpt lat="41.175755190673044" lon="9.397435935949304"><ele>17.0</ele><time>2026-05-02T07:32:27Z</time></trkpt><trkpt lat="41.17570077097817" lon="9.397212956628069"><ele>17.0</ele><time>2026-05-02T07:32:28Z</time></trkpt><trkpt lat="41.17563521598645" lon="9.396993017694676"><ele>19.666666666666668</ele><time>2026-05-02T07:32:29Z</time></trkpt><trkpt lat="41.17557358402019" lon="9.396776924679234"><ele>22.333333333333336</ele><time>2026-05-02T07:32:30Z</time></trkpt><trkpt lat="41.175510473987266" lon="9.396545332799896"><ele>25.0</ele><time>2026-05-02T07:32:31Z</time></trkpt><trkpt lat="41.17544087554429" lon="9.39631431425635"><ele>25.0</ele><time>2026-05-02T07:32:32Z</time></trkpt><trkpt lat="41.175376409726844" lon="9.396083698044793"><ele>25.0</ele><time>2026-05-02T07:32:33Z</time></trkpt><trkpt lat="41.17531328694832" lon="9.395844830207674"><ele>25.0</ele><time>2026-05-02T07:32:34Z</time></trkpt><trkpt lat="41.17524483702697" lon="9.395612220250548"><ele>25.333333333333336</ele><time>2026-05-02T07:32:35Z</time></trkpt><trkpt lat="41.175174484754265" lon="9.395369273010992"><ele>25.666666666666664</ele><time>2026-05-02T07:32:36Z</time></trkpt><trkpt lat="41.175111035014766" lon="9.395125326964262"><ele>26.0</ele><time>2026-05-02T07:32:37Z</time></trkpt><trkpt lat="41.175050611644195" lon="9.3948845539851"><ele>26.0</ele><time>2026-05-02T07:32:38Z</time></trkpt><trkpt lat="41.17498335760845" lon="9.394652071787329"><ele>26.0</ele><time>2026-05-02T07:32:39Z</time></trkpt><trkpt lat="41.174910141563785" lon="9.394417790615687"><ele>26.0</ele><time>2026-05-02T07:32:40Z</time></trkpt><trkpt lat="41.174845389801774" lon="9.394187116733097"><ele>28.0</ele><time>2026-05-02T07:32:41Z</time></trkpt><trkpt lat="41.17479798353798" lon="9.393950807168563"><ele>30.0</ele><time>2026-05-02T07:32:42Z</time></trkpt><trkpt lat="41.17473882417977" lon="9.393715539781992"><ele>32.0</ele><time>2026-05-02T07:32:43Z</time></trkpt><trkpt lat="41.17470248775217" lon="9.393477445936494"><ele>32.0</ele><time>2026-05-02T07:32:44Z</time></trkpt><trkpt lat="41.1746891667763" lon="9.393226572071374"><ele>32.0</ele><time>2026-05-02T07:32:45Z</time></trkpt><trkpt lat="41.174704361613934" lon="9.392976963728477"><ele>32.0</ele><time>2026-05-02T07:32:46Z</time></trkpt><trkpt lat="41.174751477365064" lon="9.39273266027418"><ele>32.33333333333333</ele><time>2026-05-02T07:32:47Z</time></trkpt><trkpt lat="41.174827102349504" lon="9.392494819116001"><ele>32.666666666666664</ele><time>2026-05-02T07:32:48Z</time></trkpt><trkpt lat="41.17493019519301" lon="9.392273104136578"><ele>33.0</ele><time>2026-05-02T07:32:49Z</time></trkpt><trkpt lat="41.17503729802679" lon="9.392051032633866"><ele>31.0</ele><time>2026-05-02T07:32:50Z</time></trkpt><trkpt lat="41.1751649786614" lon="9.391852930483724"><ele>29.0</ele><time>2026-05-02T07:32:51Z</time></trkpt><trkpt lat="41.17528290881171" lon="9.39166765166199"><ele>27.0</ele><time>2026-05-02T07:32:52Z</time></trkpt><trkpt lat="41.17539066589834" lon="9.391497781673852"><ele>25.666666666666668</ele><time>2026-05-02T07:32:53Z</time></trkpt><trkpt lat="41.1754933994672" lon="9.391338745267658"><ele>24.333333333333336</ele><time>2026-05-02T07:32:54Z</time></trkpt><trkpt lat="41.175592890824895" lon="9.391190961159877"><ele>23.0</ele><time>2026-05-02T07:32:55Z</time></trkpt><trkpt lat="41.17571797445234" lon="9.391051574945594"><ele>23.0</ele><time>2026-05-02T07:32:56Z</time></trkpt><trkpt lat="41.17586917030137" lon="9.390958346476593"><ele>23.0</ele><time>2026-05-02T07:32:57Z</time></trkpt><trkpt lat="41.17602317859658" lon="9.390892372562819"><ele>23.0</ele><time>2026-05-02T07:32:58Z</time></trkpt><trkpt lat="41.17618679482857" lon="9.390857150495115"><ele>23.0</ele><time>2026-05-02T07:32:59Z</time></trkpt><trkpt lat="41.17635317799292" lon="9.390852579609458"><ele>23.0</ele><time>2026-05-02T07:33:00Z</time></trkpt><trkpt lat="41.176505393536324" lon="9.390868772061475"><ele>23.0</ele><time>2026-05-02T07:33:01Z</time></trkpt><trkpt lat="41.17664578471833" lon="9.390867057642794"><ele>22.4</ele><time>2026-05-02T07:33:02Z</time></trkpt><trkpt lat="41.17675508170987" lon="9.390791516573769"><ele>21.799999999999997</ele><time>2026-05-02T07:33:03Z</time></trkpt><trkpt lat="41.176807917923924" lon="9.390659780017895"><ele>21.2</ele><time>2026-05-02T07:33:04Z</time></trkpt><trkpt lat="41.17678885332304" lon="9.39050160689776"><ele>20.6</ele><time>2026-05-02T07:33:05Z</time></trkpt><trkpt lat="41.176839301685106" lon="9.39042322385768"><ele>20.0</ele><time>2026-05-02T07:33:06Z</time></trkpt><trkpt lat="41.176742248776364" lon="9.39030282846563"><ele>19.333333333333336</ele><time>2026-05-02T07:33:07Z</time></trkpt><trkpt lat="41.17659800608664" lon="9.390212030132815"><ele>18.666666666666668</ele><time>2026-05-02T07:33:08Z</time></trkpt><trkpt lat="41.17642250351722" lon="9.390120580107602"><ele>18.0</ele><time>2026-05-02T07:33:09Z</time></trkpt><trkpt lat="41.17626596120635" lon="9.390006935853913"><ele>17.666666666666668</ele><time>2026-05-02T07:33:10Z</time></trkpt><trkpt lat="41.17612776423278" lon="9.389887016574857"><ele>17.333333333333336</ele><time>2026-05-02T07:33:11Z</time></trkpt><trkpt lat="41.176000512649956" lon="9.389764086706048"><ele>17.0</ele><time>2026-05-02T07:33:12Z</time></trkpt><trkpt lat="41.175895714628915" lon="9.389607920762254"><ele>17.0</ele><time>2026-05-02T07:33:13Z</time></trkpt><trkpt lat="41.17579545726641" lon="9.389442223994108"><ele>17.0</ele><time>2026-05-02T07:33:14Z</time></trkpt><trkpt lat="41.17572083313749" lon="9.38925511552703"><ele>17.0</ele><time>2026-05-02T07:33:15Z</time></trkpt><trkpt lat="41.17567648265501" lon="9.389055659347617"><ele>17.0</ele><time>2026-05-02T07:33:16Z</time></trkpt><trkpt lat="41.1756518563126" lon="9.388845928081711"><ele>17.0</ele><time>2026-05-02T07:33:17Z</time></trkpt><trkpt lat="41.17566049717718" lon="9.388642853117926"><ele>17.0</ele><time>2026-05-02T07:33:18Z</time></trkpt><trkpt lat="41.17568800214858" lon="9.388437040276374"><ele>17.0</ele><time>2026-05-02T07:33:19Z</time></trkpt><trkpt lat="41.17572896646241" lon="9.388265407829428"><ele>17.0</ele><time>2026-05-02T07:33:20Z</time></trkpt><trkpt lat="41.17575718476551" lon="9.388091581881472"><ele>17.0</ele><time>2026-05-02T07:33:21Z</time></trkpt><trkpt lat="41.17580265906564" lon="9.38793029625337"><ele>17.0</ele><time>2026-05-02T07:33:22Z</time></trkpt><trkpt lat="41.17584607580941" lon="9.38778033876197"><ele>17.2</ele><time>2026-05-02T07:33:23Z</time></trkpt><trkpt lat="41.17588407482139" lon="9.38763752686439"><ele>17.4</ele><time>2026-05-02T07:33:24Z</time></trkpt><trkpt lat="41.175921300924074" lon="9.387501282136526"><ele>17.6</ele><time>2026-05-02T07:33:25Z</time></trkpt><trkpt lat="41.17595064407079" lon="9.387374582125606"><ele>17.8</ele><time>2026-05-02T07:33:26Z</time></trkpt><trkpt lat="41.17598091708879" lon="9.387253723848794"><ele>18.0</ele><time>2026-05-02T07:33:27Z</time></trkpt><trkpt lat="41.176018873680924" lon="9.3871166720465"><ele>19.25</ele><time>2026-05-02T07:33:28Z</time></trkpt><trkpt lat="41.17606607999675" lon="9.386979109121036"><ele>20.5</ele><time>2026-05-02T07:33:29Z</time></trkpt><trkpt lat="41.17610007302734" lon="9.386822111968108"><ele>21.75</ele><time>2026-05-02T07:33:30Z</time></trkpt><trkpt lat="41.176146493860635" lon="9.386665113490908"><ele>23.0</ele><time>2026-05-02T07:33:31Z</time></trkpt><trkpt lat="41.17619258186235" lon="9.386508297950368"><ele>24.75</ele><time>2026-05-02T07:33:32Z</time></trkpt><trkpt lat="41.176233517986354" lon="9.386338855033562"><ele>26.5</ele><time>2026-05-02T07:33:33Z</time></trkpt><trkpt lat="41.17627744562822" lon="9.38617882951548"><ele>28.25</ele><time>2026-05-02T07:33:34Z</time></trkpt><trkpt lat="41.17632134155738" lon="9.386024223169356"><ele>30.0</ele><time>2026-05-02T07:33:35Z</time></trkpt><trkpt lat="41.17636712604806" lon="9.385867367529766"><ele>30.0</ele><time>2026-05-02T07:33:36Z</time></trkpt><trkpt lat="41.17640974655072" lon="9.385712603513543"><ele>30.0</ele><time>2026-05-02T07:33:37Z</time></trkpt><trkpt lat="41.17645130988323" lon="9.385550082361643"><ele>30.0</ele><time>2026-05-02T07:33:38Z</time></trkpt><trkpt lat="41.1764956827621" lon="9.385394941668482"><ele>30.0</ele><time>2026-05-02T07:33:39Z</time></trkpt><trkpt lat="41.17653605126681" lon="9.385235275622895"><ele>26.5</ele><time>2026-05-02T07:33:40Z</time></trkpt><trkpt lat="41.176579650311524" lon="9.385082512146054"><ele>23.0</ele><time>2026-05-02T07:33:41Z</time></trkpt><trkpt lat="41.1766248846399" lon="9.384927766788703"><ele>19.5</ele><time>2026-05-02T07:33:42Z</time></trkpt><trkpt lat="41.17667112281966" lon="9.384772969505294"><ele>16.0</ele><time>2026-05-02T07:33:43Z</time></trkpt><trkpt lat="41.17671235204932" lon="9.384618691429575"><ele>16.0</ele><time>2026-05-02T07:33:44Z</time></trkpt><trkpt lat="41.17675281281797" lon="9.384462072724753"><ele>16.0</ele><time>2026-05-02T07:33:45Z</time></trkpt><trkpt lat="41.176797588444" lon="9.384312044967688"><ele>16.0</ele><time>2026-05-02T07:33:46Z</time></trkpt><trkpt lat="41.176842089906195" lon="9.384174579193877"><ele>16.0</ele><time>2026-05-02T07:33:47Z</time></trkpt><trkpt lat="41.176883044944496" lon="9.384041308466333"><ele>16.0</ele><time>2026-05-02T07:33:48Z</time></trkpt><trkpt lat="41.17692383535494" lon="9.383915974046559"><ele>16.0</ele><time>2026-05-02T07:33:49Z</time></trkpt><trkpt lat="41.17695402729821" lon="9.383799432146235"><ele>16.0</ele><time>2026-05-02T07:33:50Z</time></trkpt><trkpt lat="41.17698353579939" lon="9.38365845614547"><ele>16.0</ele><time>2026-05-02T07:33:51Z</time></trkpt><trkpt lat="41.17702791729719" lon="9.383525631324861"><ele>16.0</ele><time>2026-05-02T07:33:52Z</time></trkpt><trkpt lat="41.17706945505978" lon="9.383381179856496"><ele>17.0</ele><time>2026-05-02T07:33:53Z</time></trkpt><trkpt lat="41.177108340656865" lon="9.383248196385782"><ele>18.0</ele><time>2026-05-02T07:33:54Z</time></trkpt><trkpt lat="41.17714206016647" lon="9.38310306844668"><ele>19.0</ele><time>2026-05-02T07:33:55Z</time></trkpt><trkpt lat="41.177181562491796" lon="9.382964596007932"><ele>20.0</ele><time>2026-05-02T07:33:56Z</time></trkpt><trkpt lat="41.177226871327754" lon="9.382833164520244"><ele>21.0</ele><time>2026-05-02T07:33:57Z</time></trkpt><trkpt lat="41.17728181750386" lon="9.382704742545911"><ele>22.200000000000003</ele><time>2026-05-02T07:33:58Z</time></trkpt><trkpt lat="41.177348412334155" lon="9.382591025110024"><ele>23.400000000000002</ele><time>2026-05-02T07:33:59Z</time></trkpt><trkpt lat="41.177418908084256" lon="9.38247320389929"><ele>24.6</ele><time>2026-05-02T07:34:00Z</time></trkpt><trkpt lat="41.1774927675271" lon="9.382381997748363"><ele>25.8</ele><time>2026-05-02T07:34:01Z</time></trkpt><trkpt lat="41.17753163445621" lon="9.382287418151334"><ele>27.0</ele><time>2026-05-02T07:34:02Z</time></trkpt><trkpt lat="41.17747657198888" lon="9.382140480839386"><ele>26.400000000000002</ele><time>2026-05-02T07:34:04Z</time></trkpt><trkpt lat="41.17740654914836" lon="9.382106530623254"><ele>25.800000000000004</ele><time>2026-05-02T07:34:05Z</time></trkpt><trkpt lat="41.17731753781845" lon="9.38210332624611"><ele>25.2</ele><time>2026-05-02T07:34:06Z</time></trkpt><trkpt lat="41.17732199757483" lon="9.381940396281374"><ele>24.6</ele><time>2026-05-02T07:34:07Z</time></trkpt><trkpt lat="41.177294464664364" lon="9.381815435575232"><ele>24.0</ele><time>2026-05-02T07:34:08Z</time></trkpt><trkpt lat="41.177299342794136" lon="9.381667261277764"><ele>24.0</ele><time>2026-05-02T07:34:09Z</time></trkpt><trkpt lat="41.17729532180246" lon="9.381531103661407"><ele>24.0</ele><time>2026-05-02T07:34:10Z</time></trkpt><trkpt lat="41.17729235016021" lon="9.381412326763344"><ele>24.0</ele><time>2026-05-02T07:34:11Z</time></trkpt><trkpt lat="41.17727888395766" lon="9.381295342940579"><ele>24.0</ele><time>2026-05-02T07:34:12Z</time></trkpt><trkpt lat="41.17727938313281" lon="9.38117412205211"><ele>24.0</ele><time>2026-05-02T07:34:13Z</time></trkpt><trkpt lat="41.177284465016704" lon="9.381050821860631"><ele>23.799999999999997</ele><time>2026-05-02T07:34:14Z</time></trkpt><trkpt lat="41.17728099475187" lon="9.380927792650207"><ele>23.599999999999998</ele><time>2026-05-02T07:34:15Z</time></trkpt><trkpt lat="41.177273212324366" lon="9.38080134691091"><ele>23.4</ele><time>2026-05-02T07:34:16Z</time></trkpt><trkpt lat="41.17726304639736" lon="9.380667036340975"><ele>23.2</ele><time>2026-05-02T07:34:17Z</time></trkpt><trkpt lat="41.17725858793502" lon="9.380534432396557"><ele>23.0</ele><time>2026-05-02T07:34:18Z</time></trkpt><trkpt lat="41.17725089223891" lon="9.380417253866352"><ele>23.5</ele><time>2026-05-02T07:34:19Z</time></trkpt><trkpt lat="41.17724448883662" lon="9.380315155556406"><ele>24.0</ele><time>2026-05-02T07:34:20Z</time></trkpt><trkpt lat="41.177236678126405" lon="9.380217486676512"><ele>24.5</ele><time>2026-05-02T07:34:21Z</time></trkpt><trkpt lat="41.17723257562563" lon="9.380119429671726"><ele>25.0</ele><time>2026-05-02T07:34:22Z</time></trkpt><trkpt lat="41.1772362657821" lon="9.380019787551145"><ele>25.499999999999996</ele><time>2026-05-02T07:34:23Z</time></trkpt><trkpt lat="41.17724115446238" lon="9.379932895400225"><ele>26.0</ele><time>2026-05-02T07:34:24Z</time></trkpt><trkpt lat="41.17723095753453" lon="9.379787981498762"><ele>26.0</ele><time>2026-05-02T07:34:26Z</time></trkpt><trkpt lat="41.17721863335988" lon="9.379689143938194"><ele>26.0</ele><time>2026-05-02T07:34:27Z</time></trkpt><trkpt lat="41.177200979738195" lon="9.379559836942297"><ele>26.0</ele><time>2026-05-02T07:34:28Z</time></trkpt><trkpt lat="41.17718773097564" lon="9.379434572069526"><ele>26.0</ele><time>2026-05-02T07:34:29Z</time></trkpt><trkpt lat="41.177182942333864" lon="9.379304736083771"><ele>26.0</ele><time>2026-05-02T07:34:30Z</time></trkpt><trkpt lat="41.17718815409403" lon="9.379140597775443"><ele>27.25</ele><time>2026-05-02T07:34:31Z</time></trkpt><trkpt lat="41.17716676262759" lon="9.37896712258632"><ele>28.5</ele><time>2026-05-02T07:34:32Z</time></trkpt><trkpt lat="41.17716215342437" lon="9.37879709957992"><ele>29.75</ele><time>2026-05-02T07:34:33Z</time></trkpt><trkpt lat="41.177161178228715" lon="9.378630553678741"><ele>31.0</ele><time>2026-05-02T07:34:34Z</time></trkpt><trkpt lat="41.17715733376445" lon="9.378473386394413"><ele>32.0</ele><time>2026-05-02T07:34:35Z</time></trkpt><trkpt lat="41.17715941342635" lon="9.378339812786486"><ele>33.0</ele><time>2026-05-02T07:34:36Z</time></trkpt><trkpt lat="41.177167462675044" lon="9.378245861895598"><ele>34.0</ele><time>2026-05-02T07:34:37Z</time></trkpt><trkpt lat="41.17714604399538" lon="9.378148748265803"><ele>35.0</ele><time>2026-05-02T07:34:40Z</time></trkpt><trkpt lat="41.17728498659234" lon="9.378060284723553"><ele>36.0</ele><time>2026-05-02T07:34:42Z</time></trkpt><trkpt lat="41.17736502272362" lon="9.378035009985416"><ele>35.8</ele><time>2026-05-02T07:34:43Z</time></trkpt><trkpt lat="41.17746155490732" lon="9.37802972576874"><ele>35.6</ele><time>2026-05-02T07:34:44Z</time></trkpt><trkpt lat="41.17756700996332" lon="9.378029613250753"><ele>35.4</ele><time>2026-05-02T07:34:45Z</time></trkpt><trkpt lat="41.17767665811105" lon="9.378016512282697"><ele>35.2</ele><time>2026-05-02T07:34:46Z</time></trkpt><trkpt lat="41.17779837435708" lon="9.37800417069332"><ele>35.0</ele><time>2026-05-02T07:34:47Z</time></trkpt><trkpt lat="41.177929738480664" lon="9.377983485282888"><ele>35.0</ele><time>2026-05-02T07:34:48Z</time></trkpt><trkpt lat="41.17805670611624" lon="9.377949112772175"><ele>35.0</ele><time>2026-05-02T07:34:49Z</time></trkpt><trkpt lat="41.178173480990914" lon="9.3779024422105"><ele>35.0</ele><time>2026-05-02T07:34:50Z</time></trkpt><trkpt lat="41.17826674236575" lon="9.377851951720164"><ele>35.0</ele><time>2026-05-02T07:34:51Z</time></trkpt><trkpt lat="41.178344016788586" lon="9.377816516421419"><ele>35.0</ele><time>2026-05-02T07:34:52Z</time></trkpt><trkpt lat="41.178405295341506" lon="9.377778687081035"><ele>32.8</ele><time>2026-05-02T07:34:53Z</time></trkpt><trkpt lat="41.178485770479945" lon="9.37772727273158"><ele>30.6</ele><time>2026-05-02T07:34:55Z</time></trkpt><trkpt lat="41.17856492078727" lon="9.377698473011769"><ele>28.4</ele><time>2026-05-02T07:34:57Z</time></trkpt><trkpt lat="41.17862231457834" lon="9.377749138564239"><ele>26.2</ele><time>2026-05-02T07:35:01Z</time></trkpt><trkpt lat="41.17869162714513" lon="9.377776233373783"><ele>24.0</ele><time>2026-05-02T07:35:05Z</time></trkpt><trkpt lat="41.178794462783316" lon="9.377595522509033"><ele>24.0</ele><time>2026-05-02T07:35:10Z</time></trkpt><trkpt lat="41.178766922224455" lon="9.37744722634051"><ele>24.0</ele><time>2026-05-02T07:35:11Z</time></trkpt><trkpt lat="41.17876804135056" lon="9.377289413362353"><ele>24.0</ele><time>2026-05-02T07:35:12Z</time></trkpt><trkpt lat="41.178748802871304" lon="9.377158287078656"><ele>24.0</ele><time>2026-05-02T07:35:13Z</time></trkpt><trkpt lat="41.17875695347477" lon="9.377063656224209"><ele>24.0</ele><time>2026-05-02T07:35:14Z</time></trkpt><trkpt lat="41.1787813117783" lon="9.376886089778006"><ele>24.5</ele><time>2026-05-02T07:35:16Z</time></trkpt><trkpt lat="41.17878876551349" lon="9.376763216679224"><ele>25.0</ele><time>2026-05-02T07:35:17Z</time></trkpt><trkpt lat="41.17878213163109" lon="9.37662541160015"><ele>25.5</ele><time>2026-05-02T07:35:18Z</time></trkpt><trkpt lat="41.17877128078582" lon="9.376465695767783"><ele>26.0</ele><time>2026-05-02T07:35:19Z</time></trkpt><trkpt lat="41.17876177796104" lon="9.376289046260652"><ele>26.0</ele><time>2026-05-02T07:35:20Z</time></trkpt><trkpt lat="41.178752646315445" lon="9.376117032481735"><ele>26.0</ele><time>2026-05-02T07:35:21Z</time></trkpt><trkpt lat="41.17874778084302" lon="9.37593031827662"><ele>26.0</ele><time>2026-05-02T07:35:22Z</time></trkpt><trkpt lat="41.17874514437576" lon="9.375739588119496"><ele>26.0</ele><time>2026-05-02T07:35:23Z</time></trkpt><trkpt lat="41.17875235310012" lon="9.375540840436935"><ele>25.666666666666664</ele><time>2026-05-02T07:35:24Z</time></trkpt><trkpt lat="41.178762814767346" lon="9.37533686666314"><ele>25.333333333333336</ele><time>2026-05-02T07:35:25Z</time></trkpt><trkpt lat="41.17877197598959" lon="9.375132544642756"><ele>25.0</ele><time>2026-05-02T07:35:26Z</time></trkpt><trkpt lat="41.178780030769765" lon="9.374928770353215"><ele>25.0</ele><time>2026-05-02T07:35:27Z</time></trkpt><trkpt lat="41.17878178222851" lon="9.37472025059968"><ele>25.0</ele><time>2026-05-02T07:35:28Z</time></trkpt><trkpt lat="41.17878782426472" lon="9.374502940563046"><ele>25.0</ele><time>2026-05-02T07:35:29Z</time></trkpt><trkpt lat="41.17879137738681" lon="9.374284040140994"><ele>24.666666666666668</ele><time>2026-05-02T07:35:30Z</time></trkpt><trkpt lat="41.178787764269956" lon="9.374061881135663"><ele>24.333333333333336</ele><time>2026-05-02T07:35:31Z</time></trkpt><trkpt lat="41.17878859674245" lon="9.373829032964196"><ele>24.0</ele><time>2026-05-02T07:35:32Z</time></trkpt><trkpt lat="41.1787846696776" lon="9.37359926813958"><ele>23.333333333333332</ele><time>2026-05-02T07:35:33Z</time></trkpt><trkpt lat="41.17877695603841" lon="9.373358426561673"><ele>22.666666666666664</ele><time>2026-05-02T07:35:34Z</time></trkpt><trkpt lat="41.17875907453661" lon="9.373138685304113"><ele>22.0</ele><time>2026-05-02T07:35:35Z</time></trkpt><trkpt lat="41.178719289295664" lon="9.372941829733051"><ele>18.0</ele><time>2026-05-02T07:35:36Z</time></trkpt><trkpt lat="41.1786396682863" lon="9.372777345166346"><ele>14.0</ele><time>2026-05-02T07:35:37Z</time></trkpt><trkpt lat="41.178509486092494" lon="9.372664380286361"><ele>10.0</ele><time>2026-05-02T07:35:38Z</time></trkpt><trkpt lat="41.17833593189728" lon="9.372587644079315"><ele>13.0</ele><time>2026-05-02T07:35:39Z</time></trkpt><trkpt lat="41.17818476898391" lon="9.37247625736477"><ele>16.0</ele><time>2026-05-02T07:35:40Z</time></trkpt><trkpt lat="41.178011292965" lon="9.372383643699695"><ele>19.0</ele><time>2026-05-02T07:35:41Z</time></trkpt><trkpt lat="41.17784059638269" lon="9.372302391597275"><ele>19.0</ele><time>2026-05-02T07:35:42Z</time></trkpt><trkpt lat="41.177675713999385" lon="9.37224591055407"><ele>19.0</ele><time>2026-05-02T07:35:43Z</time></trkpt><trkpt lat="41.17752812455625" lon="9.372160261966814"><ele>19.0</ele><time>2026-05-02T07:35:44Z</time></trkpt><trkpt lat="41.177392802228105" lon="9.372054106253477"><ele>15.5</ele><time>2026-05-02T07:35:45Z</time></trkpt><trkpt lat="41.17731279448483" lon="9.371885805613672"><ele>12.0</ele><time>2026-05-02T07:35:46Z</time></trkpt><trkpt lat="41.17725763244379" lon="9.37172204189588"><ele>8.5</ele><time>2026-05-02T07:35:47Z</time></trkpt><trkpt lat="41.177213117132155" lon="9.371561553747867"><ele>5.0</ele><time>2026-05-02T07:35:48Z</time></trkpt><trkpt lat="41.177200946312524" lon="9.371392806192263"><ele>4.25</ele><time>2026-05-02T07:35:49Z</time></trkpt><trkpt lat="41.17720607918293" lon="9.371231316144899"><ele>3.5</ele><time>2026-05-02T07:35:50Z</time></trkpt><trkpt lat="41.177239228923696" lon="9.371083187252271"><ele>2.75</ele><time>2026-05-02T07:35:51Z</time></trkpt><trkpt lat="41.17728759069156" lon="9.370935323797399"><ele>2.0</ele><time>2026-05-02T07:35:52Z</time></trkpt><trkpt lat="41.17733306239098" lon="9.37078893647763"><ele>2.4000000000000004</ele><time>2026-05-02T07:35:53Z</time></trkpt><trkpt lat="41.17736881344511" lon="9.370645076607401"><ele>2.8000000000000003</ele><time>2026-05-02T07:35:54Z</time></trkpt><trkpt lat="41.1774023121958" lon="9.370524752501849"><ele>3.2</ele><time>2026-05-02T07:35:55Z</time></trkpt><trkpt lat="41.177436790290685" lon="9.37042689497456"><ele>3.6</ele><time>2026-05-02T07:35:56Z</time></trkpt><trkpt lat="41.177476765917426" lon="9.370354748152005"><ele>4.0</ele><time>2026-05-02T07:35:57Z</time></trkpt><trkpt lat="41.1775515269175" lon="9.370221626624463"><ele>4.666666666666666</ele><time>2026-05-02T07:35:59Z</time></trkpt><trkpt lat="41.17759632656403" lon="9.370146116819651"><ele>5.333333333333333</ele><time>2026-05-02T07:36:00Z</time></trkpt><trkpt lat="41.17762599512789" lon="9.370071319292583"><ele>6.0</ele><time>2026-05-02T07:36:01Z</time></trkpt><trkpt lat="41.1776151342812" lon="9.369971887414708"><ele>6.666666666666666</ele><time>2026-05-02T07:36:02Z</time></trkpt><trkpt lat="41.177567773882046" lon="9.369868960429665"><ele>7.333333333333333</ele><time>2026-05-02T07:36:03Z</time></trkpt><trkpt lat="41.17750075247582" lon="9.369809926757366"><ele>8.0</ele><time>2026-05-02T07:36:04Z</time></trkpt><trkpt lat="41.177422933199544" lon="9.36979850483157"><ele>7.0</ele><time>2026-05-02T07:36:05Z</time></trkpt><trkpt lat="41.1773359052348" lon="9.369825496861624"><ele>6.000000000000001</ele><time>2026-05-02T07:36:06Z</time></trkpt><trkpt lat="41.17725088398943" lon="9.369847798172627"><ele>5.0</ele><time>2026-05-02T07:36:07Z</time></trkpt><trkpt lat="41.17714476581844" lon="9.369826871293261"><ele>4.0</ele><time>2026-05-02T07:36:08Z</time></trkpt><trkpt lat="41.17702685362044" lon="9.369767296251794"><ele>3.0</ele><time>2026-05-02T07:36:09Z</time></trkpt><trkpt lat="41.17691321216344" lon="9.369703632384724"><ele>3.5</ele><time>2026-05-02T07:36:10Z</time></trkpt><trkpt lat="41.17680607000167" lon="9.369638288851862"><ele>4.0</ele><time>2026-05-02T07:36:11Z</time></trkpt><trkpt lat="41.176698895250155" lon="9.369547471712439"><ele>4.5</ele><time>2026-05-02T07:36:12Z</time></trkpt><trkpt lat="41.176620793536365" lon="9.369447904210679"><ele>5.0</ele><time>2026-05-02T07:36:13Z</time></trkpt><trkpt lat="41.176545077684125" lon="9.369344188971859"><ele>4.8</ele><time>2026-05-02T07:36:14Z</time></trkpt><trkpt lat="41.176476427415125" lon="9.369234545281879"><ele>4.6</ele><time>2026-05-02T07:36:15Z</time></trkpt><trkpt lat="41.17642114714697" lon="9.369122685233387"><ele>4.4</ele><time>2026-05-02T07:36:16Z</time></trkpt><trkpt lat="41.17637858429846" lon="9.369020665943363"><ele>4.2</ele><time>2026-05-02T07:36:17Z</time></trkpt><trkpt lat="41.176345599406275" lon="9.36891900546778"><ele>4.0</ele><time>2026-05-02T07:36:18Z</time></trkpt><trkpt lat="41.176317189965665" lon="9.368818719176002"><ele>3.9999999999999996</ele><time>2026-05-02T07:36:19Z</time></trkpt><trkpt lat="41.17629068070909" lon="9.368720497425944"><ele>4.0</ele><time>2026-05-02T07:36:20Z</time></trkpt><trkpt lat="41.17625330094487" lon="9.368628783430939"><ele>4.0</ele><time>2026-05-02T07:36:21Z</time></trkpt><trkpt lat="41.17624914218021" lon="9.368524123017021"><ele>4.0</ele><time>2026-05-02T07:36:22Z</time></trkpt><trkpt lat="41.1762136771784" lon="9.368422266488698"><ele>3.9999999999999996</ele><time>2026-05-02T07:36:23Z</time></trkpt><trkpt lat="41.17620489389815" lon="9.36831158296444"><ele>4.0</ele><time>2026-05-02T07:36:24Z</time></trkpt><trkpt lat="41.17620436182029" lon="9.368207460042118"><ele>3.9999999999999996</ele><time>2026-05-02T07:36:25Z</time></trkpt><trkpt lat="41.17621357717112" lon="9.368096443537299"><ele>4.0</ele><time>2026-05-02T07:36:26Z</time></trkpt><trkpt lat="41.17624829549689" lon="9.368001777989347"><ele>4.0</ele><time>2026-05-02T07:36:27Z</time></trkpt><trkpt lat="41.17627503726452" lon="9.367924680341899"><ele>4.0</ele><time>2026-05-02T07:36:28Z</time></trkpt><trkpt lat="41.176236817122074" lon="9.36778033814413"><ele>3.9999999999999996</ele><time>2026-05-02T07:36:30Z</time></trkpt><trkpt lat="41.17616802593461" lon="9.367680963389525"><ele>4.0</ele><time>2026-05-02T07:36:32Z</time></trkpt><trkpt lat="41.17604320712739" lon="9.367723522298062"><ele>4.2</ele><time>2026-05-02T07:36:33Z</time></trkpt><trkpt lat="41.17597132482078" lon="9.367757417627692"><ele>4.4</ele><time>2026-05-02T07:36:34Z</time></trkpt><trkpt lat="41.17586154456301" lon="9.367810565630666"><ele>4.6</ele><time>2026-05-02T07:36:35Z</time></trkpt><trkpt lat="41.175768589160484" lon="9.367782552717516"><ele>4.8</ele><time>2026-05-02T07:36:36Z</time></trkpt><trkpt lat="41.17568128917431" lon="9.367734031630714"><ele>5.0</ele><time>2026-05-02T07:36:37Z</time></trkpt><trkpt lat="41.17558047143468" lon="9.367684808153882"><ele>5.25</ele><time>2026-05-02T07:36:38Z</time></trkpt><trkpt lat="41.17546472481316" lon="9.367625924581763"><ele>5.5</ele><time>2026-05-02T07:36:39Z</time></trkpt><trkpt lat="41.17533987210139" lon="9.367585325726195"><ele>5.75</ele><time>2026-05-02T07:36:40Z</time></trkpt><trkpt lat="41.175202964257196" lon="9.367574763064535"><ele>6.0</ele><time>2026-05-02T07:36:41Z</time></trkpt><trkpt lat="41.175065801951845" lon="9.367528727943808"><ele>6.0</ele><time>2026-05-02T07:36:42Z</time></trkpt><trkpt lat="41.17491921754714" lon="9.367531272837343"><ele>6.0</ele><time>2026-05-02T07:36:43Z</time></trkpt><trkpt lat="41.17477114565845" lon="9.367518039772683"><ele>6.0</ele><time>2026-05-02T07:36:44Z</time></trkpt><trkpt lat="41.17462906032712" lon="9.367519744084534"><ele>6.0</ele><time>2026-05-02T07:36:45Z</time></trkpt><trkpt lat="41.17448385397451" lon="9.36753875078345"><ele>6.25</ele><time>2026-05-02T07:36:46Z</time></trkpt><trkpt lat="41.17434384188946" lon="9.367564303733865"><ele>6.5</ele><time>2026-05-02T07:36:47Z</time></trkpt><trkpt lat="41.174213514431635" lon="9.367590668721038"><ele>6.75</ele><time>2026-05-02T07:36:48Z</time></trkpt><trkpt lat="41.174095520343855" lon="9.367601540347446"><ele>7.0</ele><time>2026-05-02T07:36:49Z</time></trkpt><trkpt lat="41.173984766456" lon="9.36756475328196"><ele>7.0</ele><time>2026-05-02T07:36:50Z</time></trkpt><trkpt lat="41.17388444346999" lon="9.367496430259829"><ele>6.999999999999999</ele><time>2026-05-02T07:36:51Z</time></trkpt><trkpt lat="41.173801949660614" lon="9.367429082164152"><ele>6.999999999999999</ele><time>2026-05-02T07:36:52Z</time></trkpt><trkpt lat="41.17372226576885" lon="9.367347179814196"><ele>7.0</ele><time>2026-05-02T07:36:53Z</time></trkpt><trkpt lat="41.17366128821086" lon="9.367229359924341"><ele>7.0</ele><time>2026-05-02T07:36:54Z</time></trkpt><trkpt lat="41.17365240667105" lon="9.367035254106955"><ele>8.333333333333334</ele><time>2026-05-02T07:36:55Z</time></trkpt><trkpt lat="41.173590602676306" lon="9.36682904114414"><ele>9.666666666666666</ele><time>2026-05-02T07:36:56Z</time></trkpt><trkpt lat="41.17352661547634" lon="9.366615543911742"><ele>11.0</ele><time>2026-05-02T07:36:57Z</time></trkpt><trkpt lat="41.173451816205024" lon="9.366393567631182"><ele>13.0</ele><time>2026-05-02T07:36:58Z</time></trkpt><trkpt lat="41.17337737792092" lon="9.366151256778384"><ele>15.0</ele><time>2026-05-02T07:36:59Z</time></trkpt><trkpt lat="41.17330560013217" lon="9.365906894952948"><ele>17.0</ele><time>2026-05-02T07:37:00Z</time></trkpt><trkpt lat="41.173274362963106" lon="9.36563713460149"><ele>18.0</ele><time>2026-05-02T07:37:01Z</time></trkpt><trkpt lat="41.17324916056576" lon="9.365356176592377"><ele>19.0</ele><time>2026-05-02T07:37:02Z</time></trkpt><trkpt lat="41.17321255848609" lon="9.365077634995455"><ele>20.0</ele><time>2026-05-02T07:37:03Z</time></trkpt><trkpt lat="41.1731979620966" lon="9.364794276853635"><ele>18.0</ele><time>2026-05-02T07:37:04Z</time></trkpt><trkpt lat="41.173177749918" lon="9.364518769840704"><ele>16.0</ele><time>2026-05-02T07:37:05Z</time></trkpt><trkpt lat="41.1731608736196" lon="9.364249726418198"><ele>14.0</ele><time>2026-05-02T07:37:06Z</time></trkpt><trkpt lat="41.17313508362053" lon="9.363973800344022"><ele>14.333333333333334</ele><time>2026-05-02T07:37:07Z</time></trkpt><trkpt lat="41.17309989697617" lon="9.363694237203696"><ele>14.666666666666668</ele><time>2026-05-02T07:37:08Z</time></trkpt><trkpt lat="41.17301904501262" lon="9.363428642146554"><ele>15.0</ele><time>2026-05-02T07:37:09Z</time></trkpt><trkpt lat="41.17290436389925" lon="9.363185709555488"><ele>16.0</ele><time>2026-05-02T07:37:10Z</time></trkpt><trkpt lat="41.17281794366779" lon="9.362929903580385"><ele>17.0</ele><time>2026-05-02T07:37:11Z</time></trkpt><trkpt lat="41.17277335698498" lon="9.362674573116701"><ele>18.0</ele><time>2026-05-02T07:37:12Z</time></trkpt><trkpt lat="41.172734648829135" lon="9.362401358970205"><ele>18.333333333333332</ele><time>2026-05-02T07:37:13Z</time></trkpt><trkpt lat="41.17268915376798" lon="9.362138480937494"><ele>18.666666666666664</ele><time>2026-05-02T07:37:14Z</time></trkpt><trkpt lat="41.17265497292999" lon="9.361888637733532"><ele>19.0</ele><time>2026-05-02T07:37:15Z</time></trkpt><trkpt lat="41.17261859312654" lon="9.361646116449359"><ele>19.0</ele><time>2026-05-02T07:37:16Z</time></trkpt><trkpt lat="41.172588725590266" lon="9.361412862266167"><ele>19.0</ele><time>2026-05-02T07:37:17Z</time></trkpt><trkpt lat="41.17259648257157" lon="9.361179590389485"><ele>19.0</ele><time>2026-05-02T07:37:18Z</time></trkpt><trkpt lat="41.17258117584527" lon="9.360967007536212"><ele>18.75</ele><time>2026-05-02T07:37:19Z</time></trkpt><trkpt lat="41.172582199556224" lon="9.360769262820517"><ele>18.5</ele><time>2026-05-02T07:37:20Z</time></trkpt><trkpt lat="41.17257595800626" lon="9.360570173450709"><ele>18.25</ele><time>2026-05-02T07:37:21Z</time></trkpt><trkpt lat="41.172546227868054" lon="9.36037848996036"><ele>18.0</ele><time>2026-05-02T07:37:22Z</time></trkpt><trkpt lat="41.172501683974716" lon="9.360177010179028"><ele>19.0</ele><time>2026-05-02T07:37:23Z</time></trkpt><trkpt lat="41.17246688048956" lon="9.359949069747886"><ele>20.0</ele><time>2026-05-02T07:37:24Z</time></trkpt><trkpt lat="41.172414755492994" lon="9.359708358646103"><ele>21.0</ele><time>2026-05-02T07:37:25Z</time></trkpt><trkpt lat="41.17236048828722" lon="9.35945775497815"><ele>21.0</ele><time>2026-05-02T07:37:26Z</time></trkpt><trkpt lat="41.17230435206393" lon="9.359200276041035"><ele>21.0</ele><time>2026-05-02T07:37:27Z</time></trkpt><trkpt lat="41.17224481311626" lon="9.35892766310119"><ele>21.0</ele><time>2026-05-02T07:37:28Z</time></trkpt><trkpt lat="41.17218548973476" lon="9.358656037213164"><ele>20.5</ele><time>2026-05-02T07:37:29Z</time></trkpt><trkpt lat="41.17212034680516" lon="9.358357504374508"><ele>20.0</ele><time>2026-05-02T07:37:30Z</time></trkpt><trkpt lat="41.17205357620933" lon="9.358049975343636"><ele>22.0</ele><time>2026-05-02T07:37:31Z</time></trkpt><trkpt lat="41.17198166500656" lon="9.357741570584263"><ele>24.0</ele><time>2026-05-02T07:37:32Z</time></trkpt><trkpt lat="41.17192561937603" lon="9.357444471429567"><ele>25.5</ele><time>2026-05-02T07:37:33Z</time></trkpt><trkpt lat="41.171848736601895" lon="9.357142472703513"><ele>27.0</ele><time>2026-05-02T07:37:34Z</time></trkpt><trkpt lat="41.17177797316323" lon="9.356838174319947"><ele>27.0</ele><time>2026-05-02T07:37:35Z</time></trkpt><trkpt lat="41.171713957306174" lon="9.35653098888027"><ele>27.0</ele><time>2026-05-02T07:37:36Z</time></trkpt><trkpt lat="41.17164813485856" lon="9.356225316834522"><ele>27.5</ele><time>2026-05-02T07:37:37Z</time></trkpt><trkpt lat="41.17158221566253" lon="9.355922507960958"><ele>28.0</ele><time>2026-05-02T07:37:38Z</time></trkpt><trkpt lat="41.17151769792147" lon="9.355630123480275"><ele>28.333333333333336</ele><time>2026-05-02T07:37:39Z</time></trkpt><trkpt lat="41.171462348900064" lon="9.355357797104183"><ele>28.666666666666664</ele><time>2026-05-02T07:37:40Z</time></trkpt><trkpt lat="41.171406362363356" lon="9.355083887290915"><ele>29.0</ele><time>2026-05-02T07:37:41Z</time></trkpt><trkpt lat="41.171350679276365" lon="9.354813945285349"><ele>28.666666666666664</ele><time>2026-05-02T07:37:42Z</time></trkpt><trkpt lat="41.17129122846769" lon="9.354567071076117"><ele>28.333333333333336</ele><time>2026-05-02T07:37:43Z</time></trkpt><trkpt lat="41.17123621059557" lon="9.354315919732493"><ele>28.0</ele><time>2026-05-02T07:37:44Z</time></trkpt><trkpt lat="41.171182312487" lon="9.354065758554018"><ele>27.0</ele><time>2026-05-02T07:37:45Z</time></trkpt><trkpt lat="41.171126181738515" lon="9.353792219058"><ele>26.0</ele><time>2026-05-02T07:37:46Z</time></trkpt><trkpt lat="41.17106446040336" lon="9.353522800627603"><ele>25.0</ele><time>2026-05-02T07:37:47Z</time></trkpt><trkpt lat="41.171008100429255" lon="9.353247598269464"><ele>25.666666666666668</ele><time>2026-05-02T07:37:48Z</time></trkpt><trkpt lat="41.17095924209011" lon="9.352967527553403"><ele>26.333333333333336</ele><time>2026-05-02T07:37:49Z</time></trkpt><trkpt lat="41.17093017333389" lon="9.352677865587768"><ele>27.0</ele><time>2026-05-02T07:37:50Z</time></trkpt><trkpt lat="41.17092515392474" lon="9.352386642764916"><ele>26.666666666666664</ele><time>2026-05-02T07:37:51Z</time></trkpt><trkpt lat="41.17093645914112" lon="9.352092794803575"><ele>26.333333333333332</ele><time>2026-05-02T07:37:52Z</time></trkpt><trkpt lat="41.170950672855454" lon="9.351802932707631"><ele>26.0</ele><time>2026-05-02T07:37:53Z</time></trkpt><trkpt lat="41.17095805679943" lon="9.351503621166191"><ele>26.0</ele><time>2026-05-02T07:37:54Z</time></trkpt><trkpt lat="41.170964667068965" lon="9.351203992473756"><ele>26.0</ele><time>2026-05-02T07:37:55Z</time></trkpt><trkpt lat="41.17097627874413" lon="9.350899193852864"><ele>26.0</ele><time>2026-05-02T07:37:56Z</time></trkpt><trkpt lat="41.1709894272267" lon="9.35060130584569"><ele>26.0</ele><time>2026-05-02T07:37:57Z</time></trkpt><trkpt lat="41.17100143536156" lon="9.350303144125537"><ele>26.0</ele><time>2026-05-02T07:37:58Z</time></trkpt><trkpt lat="41.171006144978435" lon="9.35000062340402"><ele>25.5</ele><time>2026-05-02T07:37:59Z</time></trkpt><trkpt lat="41.171012529112176" lon="9.349695804859694"><ele>25.0</ele><time>2026-05-02T07:38:00Z</time></trkpt><trkpt lat="41.17102458296149" lon="9.349392860517348"><ele>25.0</ele><time>2026-05-02T07:38:01Z</time></trkpt><trkpt lat="41.17103777839951" lon="9.349085017530617"><ele>25.0</ele><time>2026-05-02T07:38:02Z</time></trkpt><trkpt lat="41.17104183943712" lon="9.348777744566902"><ele>24.5</ele><time>2026-05-02T07:38:03Z</time></trkpt><trkpt lat="41.17104989704964" lon="9.348475586847057"><ele>24.0</ele><time>2026-05-02T07:38:04Z</time></trkpt><trkpt lat="41.17106013661348" lon="9.348156872065966"><ele>25.0</ele><time>2026-05-02T07:38:05Z</time></trkpt><trkpt lat="41.171071041257456" lon="9.34785298202284"><ele>26.0</ele><time>2026-05-02T07:38:06Z</time></trkpt><trkpt lat="41.171078598467545" lon="9.347550823094032"><ele>26.0</ele><time>2026-05-02T07:38:07Z</time></trkpt><trkpt lat="41.17108905891834" lon="9.347245610877204"><ele>26.0</ele><time>2026-05-02T07:38:08Z</time></trkpt><trkpt lat="41.1711002968407" lon="9.346944825604146"><ele>26.0</ele><time>2026-05-02T07:38:09Z</time></trkpt><trkpt lat="41.171106771287846" lon="9.346647065855871"><ele>26.0</ele><time>2026-05-02T07:38:10Z</time></trkpt><trkpt lat="41.17110667949103" lon="9.346336082408472"><ele>26.5</ele><time>2026-05-02T07:38:11Z</time></trkpt><trkpt lat="41.17111227494174" lon="9.346031515567386"><ele>27.0</ele><time>2026-05-02T07:38:12Z</time></trkpt><trkpt lat="41.17111550454943" lon="9.345729866190059"><ele>28.5</ele><time>2026-05-02T07:38:13Z</time></trkpt><trkpt lat="41.17111522472377" lon="9.345423461084158"><ele>30.0</ele><time>2026-05-02T07:38:14Z</time></trkpt><trkpt lat="41.17111174261635" lon="9.345119294964734"><ele>30.0</ele><time>2026-05-02T07:38:15Z</time></trkpt><trkpt lat="41.17111071185942" lon="9.34481948457732"><ele>30.0</ele><time>2026-05-02T07:38:16Z</time></trkpt><trkpt lat="41.17110822675205" lon="9.344547811979433"><ele>30.0</ele><time>2026-05-02T07:38:17Z</time></trkpt><trkpt lat="41.17110340663551" lon="9.344289937732698"><ele>30.0</ele><time>2026-05-02T07:38:18Z</time></trkpt><trkpt lat="41.1710993698242" lon="9.344058006554377"><ele>30.0</ele><time>2026-05-02T07:38:19Z</time></trkpt><trkpt lat="41.17110245882278" lon="9.343835515809252"><ele>30.0</ele><time>2026-05-02T07:38:20Z</time></trkpt><trkpt lat="41.171096416801966" lon="9.343630320845167"><ele>30.0</ele><time>2026-05-02T07:38:21Z</time></trkpt><trkpt lat="41.17109425608549" lon="9.343437189188872"><ele>30.0</ele><time>2026-05-02T07:38:22Z</time></trkpt><trkpt lat="41.171093475327446" lon="9.34322926049137"><ele>30.0</ele><time>2026-05-02T07:38:23Z</time></trkpt><trkpt lat="41.17108936675079" lon="9.343012823099905"><ele>30.666666666666664</ele><time>2026-05-02T07:38:24Z</time></trkpt><trkpt lat="41.17107903631728" lon="9.34278085414978"><ele>31.333333333333332</ele><time>2026-05-02T07:38:25Z</time></trkpt><trkpt lat="41.17104711850963" lon="9.342531586214015"><ele>32.0</ele><time>2026-05-02T07:38:26Z</time></trkpt><trkpt lat="41.171013385398034" lon="9.342283418344813"><ele>32.666666666666664</ele><time>2026-05-02T07:38:27Z</time></trkpt><trkpt lat="41.170983805394194" lon="9.34203554591189"><ele>33.333333333333336</ele><time>2026-05-02T07:38:28Z</time></trkpt><trkpt lat="41.170954577088146" lon="9.341810490245589"><ele>34.0</ele><time>2026-05-02T07:38:29Z</time></trkpt><trkpt lat="41.17092577328004" lon="9.341601726476968"><ele>34.0</ele><time>2026-05-02T07:38:30Z</time></trkpt><trkpt lat="41.170881711719694" lon="9.341393439849641"><ele>34.0</ele><time>2026-05-02T07:38:31Z</time></trkpt><trkpt lat="41.17079858638195" lon="9.341195877904523"><ele>34.0</ele><time>2026-05-02T07:38:32Z</time></trkpt><trkpt lat="41.170678898564134" lon="9.341019876773377"><ele>35.0</ele><time>2026-05-02T07:38:33Z</time></trkpt><trkpt lat="41.17055717630162" lon="9.340847803724774"><ele>36.0</ele><time>2026-05-02T07:38:34Z</time></trkpt><trkpt lat="41.17046847223014" lon="9.340641753651798"><ele>37.0</ele><time>2026-05-02T07:38:35Z</time></trkpt><trkpt lat="41.17043686082075" lon="9.340387990132626"><ele>38.0</ele><time>2026-05-02T07:38:36Z</time></trkpt><trkpt lat="41.1704253469863" lon="9.340120725164631"><ele>39.0</ele><time>2026-05-02T07:38:37Z</time></trkpt><trkpt lat="41.170414875588904" lon="9.339896623418456"><ele>40.0</ele><time>2026-05-02T07:38:38Z</time></trkpt><trkpt lat="41.17038840500316" lon="9.339681248663009"><ele>41.333333333333336</ele><time>2026-05-02T07:38:39Z</time></trkpt><trkpt lat="41.170361723894416" lon="9.339461880664432"><ele>42.666666666666664</ele><time>2026-05-02T07:38:40Z</time></trkpt><trkpt lat="41.17034219609041" lon="9.339259045176494"><ele>44.0</ele><time>2026-05-02T07:38:41Z</time></trkpt><trkpt lat="41.17032461745438" lon="9.339059701041316"><ele>44.666666666666664</ele><time>2026-05-02T07:38:42Z</time></trkpt><trkpt lat="41.17029527594889" lon="9.338857897617652"><ele>45.333333333333336</ele><time>2026-05-02T07:38:43Z</time></trkpt><trkpt lat="41.17025799343357" lon="9.338654307444187"><ele>46.0</ele><time>2026-05-02T07:38:44Z</time></trkpt><trkpt lat="41.17019662050347" lon="9.338468929520058"><ele>46.0</ele><time>2026-05-02T07:38:45Z</time></trkpt><trkpt lat="41.17011795145099" lon="9.338309457777655"><ele>46.0</ele><time>2026-05-02T07:38:46Z</time></trkpt><trkpt lat="41.170039213839985" lon="9.338150647783806"><ele>46.0</ele><time>2026-05-02T07:38:47Z</time></trkpt><trkpt lat="41.169985360654906" lon="9.337964561459593"><ele>46.0</ele><time>2026-05-02T07:38:48Z</time></trkpt><trkpt lat="41.16996948367034" lon="9.33775123723598"><ele>46.0</ele><time>2026-05-02T07:38:49Z</time></trkpt><trkpt lat="41.16999599765212" lon="9.33753107808"><ele>46.0</ele><time>2026-05-02T07:38:50Z</time></trkpt><trkpt lat="41.17000274244575" lon="9.337335020609677"><ele>46.0</ele><time>2026-05-02T07:38:51Z</time></trkpt><trkpt lat="41.17001645843215" lon="9.337130192684304"><ele>46.0</ele><time>2026-05-02T07:38:52Z</time></trkpt><trkpt lat="41.170035959217486" lon="9.336939378991108"><ele>46.0</ele><time>2026-05-02T07:38:53Z</time></trkpt><trkpt lat="41.170059853970336" lon="9.336786943215468"><ele>46.0</ele><time>2026-05-02T07:38:54Z</time></trkpt><trkpt lat="41.170123207467114" lon="9.336678302435729"><ele>46.0</ele><time>2026-05-02T07:38:55Z</time></trkpt><trkpt lat="41.17020244595995" lon="9.336578792656454"><ele>46.0</ele><time>2026-05-02T07:38:56Z</time></trkpt><trkpt lat="41.1702619405125" lon="9.336481209500135"><ele>46.0</ele><time>2026-05-02T07:38:57Z</time></trkpt><trkpt lat="41.170375293842746" lon="9.336451731343862"><ele>46.0</ele><time>2026-05-02T07:38:58Z</time></trkpt><trkpt lat="41.17050254970472" lon="9.336428898959936"><ele>46.0</ele><time>2026-05-02T07:38:59Z</time></trkpt><trkpt lat="41.17063162315829" lon="9.336398599353652"><ele>44.66666666666667</ele><time>2026-05-02T07:39:00Z</time></trkpt><trkpt lat="41.170778257258384" lon="9.336351510290742"><ele>43.333333333333336</ele><time>2026-05-02T07:39:01Z</time></trkpt><trkpt lat="41.1709241124071" lon="9.33630810824356"><ele>42.0</ele><time>2026-05-02T07:39:02Z</time></trkpt><trkpt lat="41.17107112788625" lon="9.336258445535252"><ele>42.0</ele><time>2026-05-02T07:39:03Z</time></trkpt><trkpt lat="41.1712331347856" lon="9.336214870272347"><ele>42.0</ele><time>2026-05-02T07:39:04Z</time></trkpt><trkpt lat="41.171390329093995" lon="9.336159307137185"><ele>42.0</ele><time>2026-05-02T07:39:05Z</time></trkpt><trkpt lat="41.1715469201336" lon="9.336106893702825"><ele>42.333333333333336</ele><time>2026-05-02T07:39:06Z</time></trkpt><trkpt lat="41.17170962283877" lon="9.336061883675962"><ele>42.66666666666667</ele><time>2026-05-02T07:39:07Z</time></trkpt><trkpt lat="41.17187599462705" lon="9.336021216301084"><ele>43.0</ele><time>2026-05-02T07:39:08Z</time></trkpt><trkpt lat="41.172041560554284" lon="9.33599390447746"><ele>43.0</ele><time>2026-05-02T07:39:09Z</time></trkpt><trkpt lat="41.17220742375451" lon="9.335973658991357"><ele>43.0</ele><time>2026-05-02T07:39:10Z</time></trkpt><trkpt lat="41.17237845863462" lon="9.335953168635044"><ele>43.0</ele><time>2026-05-02T07:39:11Z</time></trkpt><trkpt lat="41.17254994176809" lon="9.335938071851574"><ele>42.0</ele><time>2026-05-02T07:39:12Z</time></trkpt><trkpt lat="41.17272100964683" lon="9.33591957453863"><ele>41.0</ele><time>2026-05-02T07:39:13Z</time></trkpt><trkpt lat="41.17289407616311" lon="9.33589911889238"><ele>40.0</ele><time>2026-05-02T07:39:14Z</time></trkpt><trkpt lat="41.173066826754244" lon="9.335883700129143"><ele>37.66666666666667</ele><time>2026-05-02T07:39:15Z</time></trkpt><trkpt lat="41.173239110632764" lon="9.335861620728053"><ele>35.333333333333336</ele><time>2026-05-02T07:39:16Z</time></trkpt><trkpt lat="41.17341545877175" lon="9.33583268912292"><ele>33.0</ele><time>2026-05-02T07:39:17Z</time></trkpt><trkpt lat="41.17359275082496" lon="9.335784339216861"><ele>33.0</ele><time>2026-05-02T07:39:18Z</time></trkpt><trkpt lat="41.17377082281942" lon="9.335696251166837"><ele>33.0</ele><time>2026-05-02T07:39:19Z</time></trkpt><trkpt lat="41.17394088655898" lon="9.335539309076138"><ele>33.0</ele><time>2026-05-02T07:39:20Z</time></trkpt><trkpt lat="41.17410587264893" lon="9.335370288556017"><ele>32.333333333333336</ele><time>2026-05-02T07:39:21Z</time></trkpt><trkpt lat="41.174239654995446" lon="9.335193672901292"><ele>31.666666666666668</ele><time>2026-05-02T07:39:22Z</time></trkpt><trkpt lat="41.17435517007129" lon="9.334984841006527"><ele>31.0</ele><time>2026-05-02T07:39:23Z</time></trkpt><trkpt lat="41.17445131707141" lon="9.334740167905318"><ele>29.5</ele><time>2026-05-02T07:39:24Z</time></trkpt><trkpt lat="41.174542341709056" lon="9.33446221761427"><ele>28.0</ele><time>2026-05-02T07:39:25Z</time></trkpt><trkpt lat="41.174670690035114" lon="9.33417384862463"><ele>28.0</ele><time>2026-05-02T07:39:26Z</time></trkpt><trkpt lat="41.174747356937324" lon="9.33396516018478"><ele>28.0</ele><time>2026-05-02T07:39:27Z</time></trkpt><trkpt lat="41.174848719519765" lon="9.333718254422624"><ele>28.0</ele><time>2026-05-02T07:39:28Z</time></trkpt><trkpt lat="41.17495360554684" lon="9.333459705418097"><ele>28.0</ele><time>2026-05-02T07:39:29Z</time></trkpt><trkpt lat="41.175066119401414" lon="9.333203022093917"><ele>28.0</ele><time>2026-05-02T07:39:30Z</time></trkpt><trkpt lat="41.17518263718599" lon="9.332955289838468"><ele>28.0</ele><time>2026-05-02T07:39:31Z</time></trkpt><trkpt lat="41.17527130947682" lon="9.332729757419639"><ele>28.333333333333336</ele><time>2026-05-02T07:39:32Z</time></trkpt><trkpt lat="41.17537719879309" lon="9.332511126571058"><ele>28.666666666666664</ele><time>2026-05-02T07:39:33Z</time></trkpt><trkpt lat="41.17549047192148" lon="9.332303207165152"><ele>29.0</ele><time>2026-05-02T07:39:34Z</time></trkpt><trkpt lat="41.175606304838944" lon="9.33208870243715"><ele>29.666666666666664</ele><time>2026-05-02T07:39:35Z</time></trkpt><trkpt lat="41.175721003625576" lon="9.33188389048509"><ele>30.333333333333336</ele><time>2026-05-02T07:39:36Z</time></trkpt><trkpt lat="41.17582462172481" lon="9.33168984660352"><ele>31.0</ele><time>2026-05-02T07:39:37Z</time></trkpt><trkpt lat="41.17592010877115" lon="9.331510542612577"><ele>30.333333333333336</ele><time>2026-05-02T07:39:38Z</time></trkpt><trkpt lat="41.17601771970085" lon="9.331330503886775"><ele>29.666666666666664</ele><time>2026-05-02T07:39:39Z</time></trkpt><trkpt lat="41.176112407845956" lon="9.33115822250803"><ele>29.0</ele><time>2026-05-02T07:39:40Z</time></trkpt><trkpt lat="41.17620438798404" lon="9.33099154957591"><ele>29.0</ele><time>2026-05-02T07:39:41Z</time></trkpt><trkpt lat="41.176300076173135" lon="9.330828690880725"><ele>29.0</ele><time>2026-05-02T07:39:42Z</time></trkpt><trkpt lat="41.176396104759114" lon="9.330665068693632"><ele>29.0</ele><time>2026-05-02T07:39:43Z</time></trkpt><trkpt lat="41.17647779593219" lon="9.330511419693094"><ele>29.25</ele><time>2026-05-02T07:39:44Z</time></trkpt><trkpt lat="41.17655567398032" lon="9.330350431321166"><ele>29.5</ele><time>2026-05-02T07:39:45Z</time></trkpt><trkpt lat="41.176637484763475" lon="9.330183754210946"><ele>29.75</ele><time>2026-05-02T07:39:46Z</time></trkpt><trkpt lat="41.17671824046374" lon="9.330022713882036"><ele>30.0</ele><time>2026-05-02T07:39:47Z</time></trkpt><trkpt lat="41.176778804075305" lon="9.329858552976123"><ele>30.0</ele><time>2026-05-02T07:39:48Z</time></trkpt><trkpt lat="41.176826114465314" lon="9.329700929776735"><ele>30.0</ele><time>2026-05-02T07:39:49Z</time></trkpt><trkpt lat="41.17687266788724" lon="9.32954498229289"><ele>30.0</ele><time>2026-05-02T07:39:50Z</time></trkpt><trkpt lat="41.17693297491535" lon="9.32938746441371"><ele>30.0</ele><time>2026-05-02T07:39:51Z</time></trkpt><trkpt lat="41.17697714022554" lon="9.329215842762737"><ele>30.0</ele><time>2026-05-02T07:39:52Z</time></trkpt><trkpt lat="41.17702638761985" lon="9.329055291714749"><ele>30.0</ele><time>2026-05-02T07:39:53Z</time></trkpt><trkpt lat="41.177078560304146" lon="9.328893230640297"><ele>30.0</ele><time>2026-05-02T07:39:54Z</time></trkpt><trkpt lat="41.17713065300868" lon="9.328728970855854"><ele>30.0</ele><time>2026-05-02T07:39:55Z</time></trkpt><trkpt lat="41.17718400231669" lon="9.328566981928807"><ele>29.75</ele><time>2026-05-02T07:39:56Z</time></trkpt><trkpt lat="41.17723320408293" lon="9.328395920212248"><ele>29.5</ele><time>2026-05-02T07:39:57Z</time></trkpt><trkpt lat="41.17728140160337" lon="9.328226234979272"><ele>29.25</ele><time>2026-05-02T07:39:58Z</time></trkpt><trkpt lat="41.17733256047703" lon="9.328059794108643"><ele>29.0</ele><time>2026-05-02T07:39:59Z</time></trkpt><trkpt lat="41.17737849406949" lon="9.327899597389434"><ele>29.666666666666664</ele><time>2026-05-02T07:40:00Z</time></trkpt><trkpt lat="41.177421834454364" lon="9.327755431968438"><ele>30.333333333333332</ele><time>2026-05-02T07:40:01Z</time></trkpt><trkpt lat="41.17746227876679" lon="9.327636435038157"><ele>31.0</ele><time>2026-05-02T07:40:02Z</time></trkpt><trkpt lat="41.177488558452076" lon="9.327552902470536"><ele>31.666666666666664</ele><time>2026-05-02T07:40:03Z</time></trkpt><trkpt lat="41.17751692227412" lon="9.327458731648957"><ele>32.333333333333336</ele><time>2026-05-02T07:40:04Z</time></trkpt><trkpt lat="41.17753995382685" lon="9.327345439189838"><ele>33.0</ele><time>2026-05-02T07:40:05Z</time></trkpt><trkpt lat="41.17757706280559" lon="9.327207349588141"><ele>33.5</ele><time>2026-05-02T07:40:06Z</time></trkpt><trkpt lat="41.17762642338907" lon="9.32707016845745"><ele>34.0</ele><time>2026-05-02T07:40:07Z</time></trkpt><trkpt lat="41.177660322506945" lon="9.326949231570591"><ele>34.5</ele><time>2026-05-02T07:40:08Z</time></trkpt><trkpt lat="41.17768941916972" lon="9.326841401678603"><ele>35.0</ele><time>2026-05-02T07:40:11Z</time></trkpt><trkpt lat="41.177707575833615" lon="9.326754048376113"><ele>35.5</ele><time>2026-05-02T07:40:13Z</time></trkpt><trkpt lat="41.17772665091522" lon="9.326650293883826"><ele>36.0</ele><time>2026-05-02T07:40:15Z</time></trkpt><trkpt lat="41.17776192212613" lon="9.326500489102497"><ele>36.5</ele><time>2026-05-02T07:40:17Z</time></trkpt><trkpt lat="41.177795481360015" lon="9.326341474786217"><ele>37.0</ele><time>2026-05-02T07:40:18Z</time></trkpt><trkpt lat="41.17782689304646" lon="9.326170470074661"><ele>37.5</ele><time>2026-05-02T07:40:19Z</time></trkpt><trkpt lat="41.17786774169017" lon="9.325989289508412"><ele>38.0</ele><time>2026-05-02T07:40:20Z</time></trkpt><trkpt lat="41.17789846192568" lon="9.32579556664266"><ele>38.0</ele><time>2026-05-02T07:40:21Z</time></trkpt><trkpt lat="41.17793248406435" lon="9.325574052990548"><ele>38.0</ele><time>2026-05-02T07:40:22Z</time></trkpt><trkpt lat="41.17798204996528" lon="9.325339340943088"><ele>38.0</ele><time>2026-05-02T07:40:23Z</time></trkpt><trkpt lat="41.17803347891912" lon="9.325101807323335"><ele>37.33333333333333</ele><time>2026-05-02T07:40:24Z</time></trkpt><trkpt lat="41.1780884524163" lon="9.324864524664834"><ele>36.666666666666664</ele><time>2026-05-02T07:40:25Z</time></trkpt><trkpt lat="41.17814106818098" lon="9.324632625195907"><ele>36.0</ele><time>2026-05-02T07:40:26Z</time></trkpt><trkpt lat="41.17819728436657" lon="9.32441104380219"><ele>37.666666666666664</ele><time>2026-05-02T07:40:27Z</time></trkpt><trkpt lat="41.17828128268439" lon="9.324190340087132"><ele>39.33333333333333</ele><time>2026-05-02T07:40:28Z</time></trkpt><trkpt lat="41.17837438705911" lon="9.323978691593911"><ele>41.0</ele><time>2026-05-02T07:40:29Z</time></trkpt><trkpt lat="41.17847650706511" lon="9.323775498705466"><ele>41.0</ele><time>2026-05-02T07:40:30Z</time></trkpt><trkpt lat="41.178582846180916" lon="9.323591201819898"><ele>41.0</ele><time>2026-05-02T07:40:31Z</time></trkpt><trkpt lat="41.17870303759091" lon="9.32343247490072"><ele>41.0</ele><time>2026-05-02T07:40:32Z</time></trkpt><trkpt lat="41.17883081642348" lon="9.323268013802874"><ele>41.0</ele><time>2026-05-02T07:40:33Z</time></trkpt><trkpt lat="41.17897564635331" lon="9.323117805933556"><ele>41.0</ele><time>2026-05-02T07:40:34Z</time></trkpt><trkpt lat="41.17913250517904" lon="9.322994475459637"><ele>41.0</ele><time>2026-05-02T07:40:35Z</time></trkpt><trkpt lat="41.17929461995265" lon="9.322885511823632"><ele>37.666666666666664</ele><time>2026-05-02T07:40:36Z</time></trkpt><trkpt lat="41.17946161481963" lon="9.322787124628864"><ele>34.333333333333336</ele><time>2026-05-02T07:40:37Z</time></trkpt><trkpt lat="41.179637582903496" lon="9.322703499959909"><ele>31.0</ele><time>2026-05-02T07:40:38Z</time></trkpt><trkpt lat="41.17981206508924" lon="9.322637165552544"><ele>31.333333333333336</ele><time>2026-05-02T07:40:39Z</time></trkpt><trkpt lat="41.179992272484874" lon="9.322574551880816"><ele>31.666666666666664</ele><time>2026-05-02T07:40:40Z</time></trkpt><trkpt lat="41.18016547699459" lon="9.322509201997832"><ele>32.0</ele><time>2026-05-02T07:40:41Z</time></trkpt><trkpt lat="41.180342942309515" lon="9.32244890347048"><ele>32.0</ele><time>2026-05-02T07:40:42Z</time></trkpt><trkpt lat="41.18051636933955" lon="9.322386826074188"><ele>32.0</ele><time>2026-05-02T07:40:43Z</time></trkpt><trkpt lat="41.180687180076795" lon="9.322320260853227"><ele>32.0</ele><time>2026-05-02T07:40:44Z</time></trkpt><trkpt lat="41.18085976660388" lon="9.322249121041105"><ele>32.666666666666664</ele><time>2026-05-02T07:40:45Z</time></trkpt><trkpt lat="41.181029808968724" lon="9.322182095831051"><ele>33.333333333333336</ele><time>2026-05-02T07:40:46Z</time></trkpt><trkpt lat="41.18120653241321" lon="9.322115832146737"><ele>34.0</ele><time>2026-05-02T07:40:47Z</time></trkpt><trkpt lat="41.18137863000154" lon="9.322050767418876"><ele>33.333333333333336</ele><time>2026-05-02T07:40:48Z</time></trkpt><trkpt lat="41.181544360523084" lon="9.321985783344134"><ele>32.666666666666664</ele><time>2026-05-02T07:40:49Z</time></trkpt><trkpt lat="41.18171442371207" lon="9.321922103589355"><ele>32.0</ele><time>2026-05-02T07:40:50Z</time></trkpt><trkpt lat="41.181886720701" lon="9.321857734162773"><ele>32.0</ele><time>2026-05-02T07:40:51Z</time></trkpt><trkpt lat="41.18205937194385" lon="9.321789799638399"><ele>32.0</ele><time>2026-05-02T07:40:52Z</time></trkpt><trkpt lat="41.18223285984937" lon="9.321718581267376"><ele>32.0</ele><time>2026-05-02T07:40:53Z</time></trkpt><trkpt lat="41.18241265087574" lon="9.321648470954932"><ele>29.333333333333332</ele><time>2026-05-02T07:40:54Z</time></trkpt><trkpt lat="41.18259407225354" lon="9.321572315560882"><ele>26.666666666666664</ele><time>2026-05-02T07:40:55Z</time></trkpt><trkpt lat="41.182780317832496" lon="9.321503018779481"><ele>24.0</ele><time>2026-05-02T07:40:56Z</time></trkpt><trkpt lat="41.18296941790018" lon="9.32143265490795"><ele>23.666666666666668</ele><time>2026-05-02T07:40:57Z</time></trkpt><trkpt lat="41.183160009668136" lon="9.321356919305211"><ele>23.333333333333336</ele><time>2026-05-02T07:40:58Z</time></trkpt><trkpt lat="41.183343200856655" lon="9.321286060251973"><ele>23.0</ele><time>2026-05-02T07:40:59Z</time></trkpt><trkpt lat="41.18353612047015" lon="9.321213719112588"><ele>23.0</ele><time>2026-05-02T07:41:00Z</time></trkpt><trkpt lat="41.18372625308128" lon="9.321146709360086"><ele>23.0</ele><time>2026-05-02T07:41:01Z</time></trkpt><trkpt lat="41.18392097648473" lon="9.32107399712933"><ele>23.0</ele><time>2026-05-02T07:41:02Z</time></trkpt><trkpt lat="41.184111939285856" lon="9.32100314531844"><ele>19.0</ele><time>2026-05-02T07:41:03Z</time></trkpt><trkpt lat="41.184310316061215" lon="9.320918850045762"><ele>15.0</ele><time>2026-05-02T07:41:04Z</time></trkpt><trkpt lat="41.18450786422043" lon="9.32083971351582"><ele>11.0</ele><time>2026-05-02T07:41:05Z</time></trkpt><trkpt lat="41.18470477413014" lon="9.320764868341973"><ele>8.333333333333332</ele><time>2026-05-02T07:41:06Z</time></trkpt><trkpt lat="41.184904877048176" lon="9.32069870427443"><ele>5.666666666666666</ele><time>2026-05-02T07:41:07Z</time></trkpt><trkpt lat="41.18511011270529" lon="9.320644309257542"><ele>3.0</ele><time>2026-05-02T07:41:08Z</time></trkpt><trkpt lat="41.185317644339534" lon="9.32061482796822"><ele>3.0</ele><time>2026-05-02T07:41:09Z</time></trkpt><trkpt lat="41.18552573434357" lon="9.320609507329339"><ele>3.0</ele><time>2026-05-02T07:41:10Z</time></trkpt><trkpt lat="41.18573599194942" lon="9.320619833606878"><ele>3.0</ele><time>2026-05-02T07:41:11Z</time></trkpt><trkpt lat="41.18594999079741" lon="9.320618176348205"><ele>2.3333333333333335</ele><time>2026-05-02T07:41:12Z</time></trkpt><trkpt lat="41.18616555198359" lon="9.320607038696583"><ele>1.6666666666666665</ele><time>2026-05-02T07:41:13Z</time></trkpt><trkpt lat="41.18637880527797" lon="9.320600739671656"><ele>1.0</ele><time>2026-05-02T07:41:14Z</time></trkpt><trkpt lat="41.18659799990574" lon="9.320604711182"><ele>0.0</ele><time>2026-05-02T07:41:15Z</time></trkpt><trkpt lat="41.18681072288471" lon="9.320638471941876"><ele>-1.0</ele><time>2026-05-02T07:41:16Z</time></trkpt><trkpt lat="41.18702562977966" lon="9.320669911766963"><ele>-2.0</ele><time>2026-05-02T07:41:17Z</time></trkpt><trkpt lat="41.187244855423515" lon="9.320701918019264"><ele>-2.0</ele><time>2026-05-02T07:41:18Z</time></trkpt><trkpt lat="41.18746191481509" lon="9.320739684088828"><ele>-2.0</ele><time>2026-05-02T07:41:19Z</time></trkpt><trkpt lat="41.18767441018156" lon="9.320771307341408"><ele>-2.0</ele><time>2026-05-02T07:41:20Z</time></trkpt><trkpt lat="41.1878893636409" lon="9.320804619017302"><ele>-2.0</ele><time>2026-05-02T07:41:21Z</time></trkpt><trkpt lat="41.18810512999622" lon="9.320836227014455"><ele>-2.0</ele><time>2026-05-02T07:41:22Z</time></trkpt><trkpt lat="41.188318924625094" lon="9.320861798009375"><ele>-2.0</ele><time>2026-05-02T07:41:23Z</time></trkpt><trkpt lat="41.1885259365129" lon="9.32088969377648"><ele>-2.0</ele><time>2026-05-02T07:41:24Z</time></trkpt><trkpt lat="41.188736795889874" lon="9.320907272396324"><ele>-2.0</ele><time>2026-05-02T07:41:25Z</time></trkpt><trkpt lat="41.188946557056695" lon="9.320919369243617"><ele>-2.0</ele><time>2026-05-02T07:41:26Z</time></trkpt><trkpt lat="41.18914938866064" lon="9.32092978658608"><ele>-1.6666666666666665</ele><time>2026-05-02T07:41:27Z</time></trkpt><trkpt lat="41.18934010717004" lon="9.320935394413604"><ele>-1.3333333333333333</ele><time>2026-05-02T07:41:28Z</time></trkpt><trkpt lat="41.18951615880965" lon="9.320933897224378"><ele>-1.0</ele><time>2026-05-02T07:41:29Z</time></trkpt><trkpt lat="41.18967459053014" lon="9.32092669672968"><ele>-1.0</ele><time>2026-05-02T07:41:30Z</time></trkpt><trkpt lat="41.189823922091364" lon="9.320910639559298"><ele>-1.0</ele><time>2026-05-02T07:41:31Z</time></trkpt><trkpt lat="41.18996022288676" lon="9.320866835402645"><ele>-1.0</ele><time>2026-05-02T07:41:32Z</time></trkpt><trkpt lat="41.190084579892904" lon="9.320801767984543"><ele>-1.0</ele><time>2026-05-02T07:41:33Z</time></trkpt><trkpt lat="41.19020083745021" lon="9.320731669151312"><ele>-1.0</ele><time>2026-05-02T07:41:34Z</time></trkpt><trkpt lat="41.19030810622913" lon="9.320688561648685"><ele>-1.0</ele><time>2026-05-02T07:41:35Z</time></trkpt><trkpt lat="41.190413578730166" lon="9.3206765170281"><ele>-1.0</ele><time>2026-05-02T07:41:36Z</time></trkpt><trkpt lat="41.19051501814664" lon="9.320698655187352"><ele>-1.0</ele><time>2026-05-02T07:41:37Z</time></trkpt><trkpt lat="41.19060600403129" lon="9.32068235928376"><ele>-1.0</ele><time>2026-05-02T07:41:38Z</time></trkpt><trkpt lat="41.19067872389076" lon="9.320617666791458"><ele>-1.0</ele><time>2026-05-02T07:41:39Z</time></trkpt><trkpt lat="41.19074093142782" lon="9.32051197262521"><ele>-1.0</ele><time>2026-05-02T07:41:40Z</time></trkpt><trkpt lat="41.190835481148426" lon="9.320462248383299"><ele>-1.0</ele><time>2026-05-02T07:41:41Z</time></trkpt><trkpt lat="41.19091136853841" lon="9.320373037783925"><ele>-1.0</ele><time>2026-05-02T07:41:42Z</time></trkpt><trkpt lat="41.19095028081722" lon="9.320232347361195"><ele>-1.0</ele><time>2026-05-02T07:41:43Z</time></trkpt><trkpt lat="41.19103950004459" lon="9.320149855170227"><ele>-1.0</ele><time>2026-05-02T07:41:44Z</time></trkpt><trkpt lat="41.1911331334149" lon="9.320065152617193"><ele>-1.0</ele><time>2026-05-02T07:41:45Z</time></trkpt><trkpt lat="41.19122659574703" lon="9.319977684858301"><ele>-1.0</ele><time>2026-05-02T07:41:46Z</time></trkpt><trkpt lat="41.191320720725535" lon="9.319888410813679"><ele>-1.0</ele><time>2026-05-02T07:41:47Z</time></trkpt><trkpt lat="41.191413559698844" lon="9.319802745390499"><ele>-1.0</ele><time>2026-05-02T07:41:48Z</time></trkpt><trkpt lat="41.19150764471543" lon="9.31971590109144"><ele>-1.0</ele><time>2026-05-02T07:41:49Z</time></trkpt><trkpt lat="41.191599972185095" lon="9.319631517377788"><ele>-1.0</ele><time>2026-05-02T07:41:50Z</time></trkpt><trkpt lat="41.19168998807858" lon="9.31954794682448"><ele>-1.0</ele><time>2026-05-02T07:41:51Z</time></trkpt><trkpt lat="41.19177432995316" lon="9.319472373205361"><ele>-1.0</ele><time>2026-05-02T07:41:52Z</time></trkpt><trkpt lat="41.19185360338101" lon="9.319406132581356"><ele>-0.9999999999999999</ele><time>2026-05-02T07:41:53Z</time></trkpt><trkpt lat="41.19192988008595" lon="9.319347824748345"><ele>-1.0</ele><time>2026-05-02T07:41:54Z</time></trkpt><trkpt lat="41.191999408129384" lon="9.319294445847158"><ele>-1.0</ele><time>2026-05-02T07:41:55Z</time></trkpt><trkpt lat="41.1920628153714" lon="9.319248263115025"><ele>-1.0</ele><time>2026-05-02T07:41:56Z</time></trkpt><trkpt lat="41.19212295545969" lon="9.319213448943307"><ele>-0.9999999999999999</ele><time>2026-05-02T07:41:57Z</time></trkpt><trkpt lat="41.19223105872514" lon="9.31915558344228"><ele>-1.0</ele><time>2026-05-02T07:41:59Z</time></trkpt><trkpt lat="41.19234042373022" lon="9.31911212358635"><ele>-0.8</ele><time>2026-05-02T07:42:01Z</time></trkpt><trkpt lat="41.19240589706081" lon="9.319092965533983"><ele>-0.6000000000000001</ele><time>2026-05-02T07:42:02Z</time></trkpt><trkpt lat="41.19253362317346" lon="9.319061691902451"><ele>-0.4</ele><time>2026-05-02T07:42:04Z</time></trkpt><trkpt lat="41.19264956587192" lon="9.319029691795034"><ele>-0.2</ele><time>2026-05-02T07:42:06Z</time></trkpt><trkpt lat="41.19274540736241" lon="9.318997573313764"><ele>0.0</ele><time>2026-05-02T07:42:08Z</time></trkpt><trkpt lat="41.192858399149074" lon="9.318973734895861"><ele>0.0</ele><time>2026-05-02T07:42:10Z</time></trkpt><trkpt lat="41.19296946118175" lon="9.318947799830745"><ele>0.0</ele><time>2026-05-02T07:42:12Z</time></trkpt><trkpt lat="41.19306846768383" lon="9.31892284060625"><ele>0.0</ele><time>2026-05-02T07:42:14Z</time></trkpt><trkpt lat="41.19315384875099" lon="9.318906060639302"><ele>0.0</ele><time>2026-05-02T07:42:16Z</time></trkpt><trkpt lat="41.193270074141175" lon="9.31886939035036"><ele>0.0</ele><time>2026-05-02T07:42:18Z</time></trkpt><trkpt lat="41.193348186235774" lon="9.318842040598843"><ele>0.0</ele><time>2026-05-02T07:42:19Z</time></trkpt><trkpt lat="41.19342832383222" lon="9.31882295382693"><ele>0.0</ele><time>2026-05-02T07:42:20Z</time></trkpt><trkpt lat="41.193497524792555" lon="9.318813897132948"><ele>0.0</ele><time>2026-05-02T07:42:21Z</time></trkpt><trkpt lat="41.19360377840213" lon="9.31879290433791"><ele>0.0</ele><time>2026-05-02T07:42:23Z</time></trkpt><trkpt lat="41.19368768903495" lon="9.318771614212306"><ele>0.0</ele><time>2026-05-02T07:42:25Z</time></trkpt><trkpt lat="41.19376613399925" lon="9.318752259510175"><ele>0.0</ele><time>2026-05-02T07:42:27Z</time></trkpt><trkpt lat="41.19383282885945" lon="9.318733702888927"><ele>0.0</ele><time>2026-05-02T07:42:29Z</time></trkpt><trkpt lat="41.19391243413023" lon="9.318710079997745"><ele>0.0</ele><time>2026-05-02T07:42:31Z</time></trkpt><trkpt lat="41.194025483541445" lon="9.318694269049756"><ele>0.0</ele><time>2026-05-02T07:42:33Z</time></trkpt><trkpt lat="41.19408992922579" lon="9.318681740130552"><ele>0.0</ele><time>2026-05-02T07:42:34Z</time></trkpt><trkpt lat="41.19415313457023" lon="9.318663103848197"><ele>0.0</ele><time>2026-05-02T07:42:35Z</time></trkpt><trkpt lat="41.194228275654005" lon="9.318657996581239"><ele>0.0</ele><time>2026-05-02T07:42:45Z</time></trkpt><trkpt lat="41.194308828046616" lon="9.3186431924993"><ele>0.0</ele><time>2026-05-02T07:42:49Z</time></trkpt><trkpt lat="41.194383583418826" lon="9.318636357485877"><ele>0.0</ele><time>2026-05-02T07:42:53Z</time></trkpt><trkpt lat="41.194458124859246" lon="9.318647745097776"><ele>0.0</ele><time>2026-05-02T07:42:57Z</time></trkpt><trkpt lat="41.194545779785415" lon="9.318663734904032"><ele>0.0</ele><time>2026-05-02T07:43:00Z</time></trkpt><trkpt lat="41.194610456157584" lon="9.318673459775342"><ele>0.0</ele><time>2026-05-02T07:43:02Z</time></trkpt><trkpt lat="41.19467996818135" lon="9.318681391535412"><ele>0.0</ele><time>2026-05-02T07:43:04Z</time></trkpt><trkpt lat="41.194751040434774" lon="9.31867769333266"><ele>0.0</ele><time>2026-05-02T07:43:06Z</time></trkpt><trkpt lat="41.19483720039279" lon="9.318707901642432"><ele>0.0</ele><time>2026-05-02T07:43:09Z</time></trkpt><trkpt lat="41.19491197347125" lon="9.318724951861308"><ele>0.0</ele><time>2026-05-02T07:43:12Z</time></trkpt><trkpt lat="41.19498516217561" lon="9.318738817108501"><ele>0.0</ele><time>2026-05-02T07:43:15Z</time></trkpt><trkpt lat="41.195068169885076" lon="9.31875742219415"><ele>0.0</ele><time>2026-05-02T07:43:18Z</time></trkpt><trkpt lat="41.19513112320817" lon="9.318759364423343"><ele>0.0</ele><time>2026-05-02T07:43:20Z</time></trkpt><trkpt lat="41.19520008843195" lon="9.318767120010737"><ele>0.0</ele><time>2026-05-02T07:43:22Z</time></trkpt><trkpt lat="41.19528422762785" lon="9.3187816134015"><ele>0.0</ele><time>2026-05-02T07:43:25Z</time></trkpt><trkpt lat="41.195407297327954" lon="9.31880718249796"><ele>0.0</ele><time>2026-05-02T07:43:27Z</time></trkpt><trkpt lat="41.195506367971106" lon="9.318831334046916"><ele>0.0</ele><time>2026-05-02T07:43:29Z</time></trkpt><trkpt lat="41.195592577945916" lon="9.318850249550664"><ele>0.0</ele><time>2026-05-02T07:43:31Z</time></trkpt><trkpt lat="41.195689243101896" lon="9.318831778838588"><ele>0.0</ele><time>2026-05-02T07:43:33Z</time></trkpt><trkpt lat="41.19574000673329" lon="9.318779241736523"><ele>0.2857142857142857</ele><time>2026-05-02T07:43:34Z</time></trkpt><trkpt lat="41.19577652489617" lon="9.31869815212965"><ele>0.5714285714285714</ele><time>2026-05-02T07:43:35Z</time></trkpt><trkpt lat="41.19583438034825" lon="9.318643671812568"><ele>0.8571428571428571</ele><time>2026-05-02T07:43:36Z</time></trkpt><trkpt lat="41.19588711136263" lon="9.318590187556323"><ele>1.1428571428571428</ele><time>2026-05-02T07:43:37Z</time></trkpt><trkpt lat="41.19593278481768" lon="9.318528122815605"><ele>1.4285714285714284</ele><time>2026-05-02T07:43:38Z</time></trkpt><trkpt lat="41.1959965542502" lon="9.318490282506398"><ele>1.7142857142857142</ele><time>2026-05-02T07:43:39Z</time></trkpt><trkpt lat="41.196059524204124" lon="9.318446467184401"><ele>2.0</ele><time>2026-05-02T07:43:40Z</time></trkpt><trkpt lat="41.19617609179888" lon="9.31839931717176"><ele>2.0</ele><time>2026-05-02T07:43:42Z</time></trkpt><trkpt lat="41.196299549853606" lon="9.318391252507148"><ele>2.0</ele><time>2026-05-02T07:43:44Z</time></trkpt><trkpt lat="41.19639933565398" lon="9.318461216888663"><ele>2.0</ele><time>2026-05-02T07:43:46Z</time></trkpt><trkpt lat="41.19644906548223" lon="9.318533307226007"><ele>2.0</ele><time>2026-05-02T07:43:47Z</time></trkpt><trkpt lat="41.19651246323736" lon="9.318634636234373"><ele>2.0</ele><time>2026-05-02T07:43:48Z</time></trkpt><trkpt lat="41.19657676187925" lon="9.318739480182906"><ele>2.333333333333333</ele><time>2026-05-02T07:43:49Z</time></trkpt><trkpt lat="41.196647653937" lon="9.318839178244138"><ele>2.6666666666666665</ele><time>2026-05-02T07:43:50Z</time></trkpt><trkpt lat="41.19669821323129" lon="9.318919117786317"><ele>3.0</ele><time>2026-05-02T07:43:51Z</time></trkpt><trkpt lat="41.19676206089638" lon="9.318998793395993"><ele>3.333333333333333</ele><time>2026-05-02T07:43:52Z</time></trkpt><trkpt lat="41.19682837987115" lon="9.319081768921583"><ele>3.6666666666666665</ele><time>2026-05-02T07:43:53Z</time></trkpt><trkpt lat="41.19688161565565" lon="9.31915962658319"><ele>4.0</ele><time>2026-05-02T07:43:54Z</time></trkpt><trkpt lat="41.19693604334229" lon="9.319217124060893"><ele>4.333333333333333</ele><time>2026-05-02T07:43:55Z</time></trkpt><trkpt lat="41.19698768317723" lon="9.319297843703243"><ele>4.666666666666666</ele><time>2026-05-02T07:43:56Z</time></trkpt><trkpt lat="41.19707881672667" lon="9.319441905978033"><ele>5.0</ele><time>2026-05-02T07:43:58Z</time></trkpt><trkpt lat="41.197125220407905" lon="9.319503383193707"><ele>5.333333333333333</ele><time>2026-05-02T07:43:59Z</time></trkpt><trkpt lat="41.197177306999706" lon="9.319560661521567"><ele>5.666666666666667</ele><time>2026-05-02T07:44:00Z</time></trkpt><trkpt lat="41.19723531094764" lon="9.31962055751728"><ele>6.0</ele><time>2026-05-02T07:44:01Z</time></trkpt><trkpt lat="41.19729134069636" lon="9.319663300028857"><ele>6.0</ele><time>2026-05-02T07:44:02Z</time></trkpt><trkpt lat="41.1973687593473" lon="9.319694354016816"><ele>6.0</ele><time>2026-05-02T07:44:03Z</time></trkpt><trkpt lat="41.1974631376342" lon="9.319729135330748"><ele>6.0</ele><time>2026-05-02T07:44:04Z</time></trkpt><trkpt lat="41.19755554170276" lon="9.319768754456009"><ele>6.0</ele><time>2026-05-02T07:44:05Z</time></trkpt><trkpt lat="41.19764952657026" lon="9.31978428049709"><ele>6.0</ele><time>2026-05-02T07:44:06Z</time></trkpt><trkpt lat="41.19771683185812" lon="9.319800354653626"><ele>6.0</ele><time>2026-05-02T07:44:07Z</time></trkpt><trkpt lat="41.19779429632902" lon="9.319802470211089"><ele>6.0</ele><time>2026-05-02T07:44:08Z</time></trkpt><trkpt lat="41.19787689156352" lon="9.319799762962289"><ele>6.0</ele><time>2026-05-02T07:44:09Z</time></trkpt><trkpt lat="41.19795970424536" lon="9.31979624023397"><ele>6.0</ele><time>2026-05-02T07:44:10Z</time></trkpt><trkpt lat="41.198023935734255" lon="9.319802336295702"><ele>6.0</ele><time>2026-05-02T07:44:11Z</time></trkpt><trkpt lat="41.19809673273857" lon="9.319805522645485"><ele>6.0</ele><time>2026-05-02T07:44:12Z</time></trkpt><trkpt lat="41.198160791729514" lon="9.319796064587988"><ele>6.0</ele><time>2026-05-02T07:44:13Z</time></trkpt><trkpt lat="41.1982979753846" lon="9.31980186281615"><ele>6.5</ele><time>2026-05-02T07:44:15Z</time></trkpt><trkpt lat="41.19838698621233" lon="9.319809511596082"><ele>7.0</ele><time>2026-05-02T07:44:16Z</time></trkpt><trkpt lat="41.1984699462308" lon="9.319809552383557"><ele>7.5</ele><time>2026-05-02T07:44:17Z</time></trkpt><trkpt lat="41.19855362816369" lon="9.31982062030006"><ele>8.0</ele><time>2026-05-02T07:44:18Z</time></trkpt><trkpt lat="41.198632317865496" lon="9.319837890505482"><ele>8.5</ele><time>2026-05-02T07:44:19Z</time></trkpt><trkpt lat="41.19871761444863" lon="9.319858011128462"><ele>9.0</ele><time>2026-05-02T07:44:20Z</time></trkpt><trkpt lat="41.198826224871226" lon="9.319876018169106"><ele>9.0</ele><time>2026-05-02T07:44:21Z</time></trkpt><trkpt lat="41.19892454687747" lon="9.319898711156197"><ele>9.0</ele><time>2026-05-02T07:44:22Z</time></trkpt><trkpt lat="41.19901301650108" lon="9.319923187815032"><ele>9.0</ele><time>2026-05-02T07:44:23Z</time></trkpt><trkpt lat="41.19913097022745" lon="9.319878853389966"><ele>9.0</ele><time>2026-05-02T07:44:25Z</time></trkpt><trkpt lat="41.199174687832844" lon="9.31976669751456"><ele>9.0</ele><time>2026-05-02T07:44:27Z</time></trkpt><trkpt lat="41.199141561339" lon="9.319667453458733"><ele>10.0</ele><time>2026-05-02T07:44:29Z</time></trkpt><trkpt lat="41.19917471290117" lon="9.31954260865815"><ele>11.0</ele><time>2026-05-02T07:44:32Z</time></trkpt><trkpt lat="41.199259084964034" lon="9.319440606659816"><ele>12.0</ele><time>2026-05-02T07:44:34Z</time></trkpt><trkpt lat="41.199349524836514" lon="9.319390083798789"><ele>13.0</ele><time>2026-05-02T07:44:36Z</time></trkpt><trkpt lat="41.19941400545217" lon="9.319382798082735"><ele>14.0</ele><time>2026-05-02T07:44:37Z</time></trkpt><trkpt lat="41.19947615508328" lon="9.319358262915866"><ele>15.0</ele><time>2026-05-02T07:44:38Z</time></trkpt><trkpt lat="41.19957463077948" lon="9.319278322096405"><ele>15.0</ele><time>2026-05-02T07:44:40Z</time></trkpt><trkpt lat="41.199647257950765" lon="9.319232384864462"><ele>15.0</ele><time>2026-05-02T07:44:41Z</time></trkpt><trkpt lat="41.19972920605751" lon="9.319195697120366"><ele>15.0</ele><time>2026-05-02T07:44:42Z</time></trkpt><trkpt lat="41.19979193708814" lon="9.319132664827766"><ele>15.0</ele><time>2026-05-02T07:44:43Z</time></trkpt><trkpt lat="41.199878276640106" lon="9.319044568928854"><ele>15.0</ele><time>2026-05-02T07:44:45Z</time></trkpt><trkpt lat="41.199924605233896" lon="9.31898541544877"><ele>15.0</ele><time>2026-05-02T07:44:51Z</time></trkpt><trkpt lat="41.19990997949335" lon="9.31889701144964"><ele>14.5</ele><time>2026-05-02T07:44:54Z</time></trkpt><trkpt lat="41.199923295553354" lon="9.318795806147058"><ele>14.0</ele><time>2026-05-02T07:44:57Z</time></trkpt><trkpt lat="41.19993828459546" lon="9.318712347672298"><ele>13.5</ele><time>2026-05-02T07:44:59Z</time></trkpt><trkpt lat="41.1999461037026" lon="9.318603924965966"><ele>13.0</ele><time>2026-05-02T07:45:01Z</time></trkpt><trkpt lat="41.199912437099826" lon="9.318479348200885"><ele>12.5</ele><time>2026-05-02T07:45:04Z</time></trkpt><trkpt lat="41.19990264324963" lon="9.31836185875993"><ele>12.0</ele><time>2026-05-02T07:45:07Z</time></trkpt><trkpt lat="41.19990718783764" lon="9.318248916793493"><ele>12.0</ele><time>2026-05-02T07:45:10Z</time></trkpt><trkpt lat="41.199898276412874" lon="9.318165227007624"><ele>12.0</ele><time>2026-05-02T07:45:12Z</time></trkpt><trkpt lat="41.19990266778246" lon="9.318042438193803"><ele>12.0</ele><time>2026-05-02T07:45:15Z</time></trkpt><trkpt lat="41.19986062602881" lon="9.317950067894916"><ele>12.0</ele><time>2026-05-02T07:45:17Z</time></trkpt><trkpt lat="41.199818178095754" lon="9.317888153600128"><ele>12.0</ele><time>2026-05-02T07:45:20Z</time></trkpt><trkpt lat="41.1997776122693" lon="9.317816163546834"><ele>12.0</ele><time>2026-05-02T07:45:56Z</time></trkpt><trkpt lat="41.1998999834638" lon="9.317656243616042"><ele>11.166666666666666</ele><time>2026-05-02T07:46:01Z</time></trkpt><trkpt lat="41.19992700360499" lon="9.317518839233108"><ele>10.333333333333334</ele><time>2026-05-02T07:46:03Z</time></trkpt><trkpt lat="41.1999750518382" lon="9.317456167789562"><ele>9.5</ele><time>2026-05-02T07:46:05Z</time></trkpt><trkpt lat="41.200075618975916" lon="9.317457519257198"><ele>8.666666666666668</ele><time>2026-05-02T07:46:08Z</time></trkpt><trkpt lat="41.20014812552244" lon="9.317511016987613"><ele>7.833333333333334</ele><time>2026-05-02T07:46:11Z</time></trkpt><trkpt lat="41.200231592274825" lon="9.317494467597587"><ele>7.0</ele><time>2026-05-02T07:46:14Z</time></trkpt><trkpt lat="41.200298258911126" lon="9.317491285572272"><ele>7.000000000000001</ele><time>2026-05-02T07:46:17Z</time></trkpt><trkpt lat="41.20036612819572" lon="9.317496243684563"><ele>7.0</ele><time>2026-05-02T07:46:19Z</time></trkpt><trkpt lat="41.20044081720104" lon="9.317508293573491"><ele>7.0</ele><time>2026-05-02T07:46:21Z</time></trkpt><trkpt lat="41.20052758939093" lon="9.317568814103941"><ele>7.0</ele><time>2026-05-02T07:46:23Z</time></trkpt><trkpt lat="41.20059155906774" lon="9.317654137335794"><ele>7.000000000000001</ele><time>2026-05-02T07:46:25Z</time></trkpt><trkpt lat="41.20067467016862" lon="9.317738843209018"><ele>7.0</ele><time>2026-05-02T07:46:27Z</time></trkpt><trkpt lat="41.200753025274864" lon="9.317809036024148"><ele>6.666666666666667</ele><time>2026-05-02T07:46:29Z</time></trkpt><trkpt lat="41.20079132807455" lon="9.317883208173894"><ele>6.333333333333334</ele><time>2026-05-02T07:46:31Z</time></trkpt><trkpt lat="41.20084177445775" lon="9.317964109574156"><ele>6.0</ele><time>2026-05-02T07:46:34Z</time></trkpt><trkpt lat="41.200855206016314" lon="9.318071941071864"><ele>5.666666666666667</ele><time>2026-05-02T07:46:37Z</time></trkpt><trkpt lat="41.200824725025434" lon="9.318193524446507"><ele>5.333333333333334</ele><time>2026-05-02T07:46:39Z</time></trkpt><trkpt lat="41.200812190425594" lon="9.318276264494765"><ele>5.0</ele><time>2026-05-02T07:46:40Z</time></trkpt><trkpt lat="41.200808934880236" lon="9.318370806564134"><ele>5.0</ele><time>2026-05-02T07:46:42Z</time></trkpt><trkpt lat="41.20081166928266" lon="9.318484497405237"><ele>5.0</ele><time>2026-05-02T07:46:47Z</time></trkpt><trkpt lat="41.200821944447256" lon="9.318612277692397"><ele>5.0</ele><time>2026-05-02T07:46:49Z</time></trkpt><trkpt lat="41.20083470611872" lon="9.31874946217474"><ele>5.0</ele><time>2026-05-02T07:46:51Z</time></trkpt><trkpt lat="41.20084522829702" lon="9.318862572759173"><ele>5.0</ele><time>2026-05-02T07:46:53Z</time></trkpt><trkpt lat="41.20105260812465" lon="9.318896822552324"><ele>4.833333333333334</ele><time>2026-05-02T07:46:54Z</time></trkpt><trkpt lat="41.2011479502733" lon="9.318941403539593"><ele>4.666666666666667</ele><time>2026-05-02T07:46:56Z</time></trkpt><trkpt lat="41.201228004910604" lon="9.318957743506637"><ele>4.5</ele><time>2026-05-02T07:46:57Z</time></trkpt><trkpt lat="41.20129999942926" lon="9.318999387509164"><ele>4.333333333333333</ele><time>2026-05-02T07:46:58Z</time></trkpt><trkpt lat="41.20135183371731" lon="9.319084944235295"><ele>4.166666666666666</ele><time>2026-05-02T07:46:59Z</time></trkpt><trkpt lat="41.201389032067276" lon="9.319156924914893"><ele>4.0</ele><time>2026-05-02T07:47:00Z</time></trkpt><trkpt lat="41.201489160811114" lon="9.319145800737452"><ele>3.4000000000000004</ele><time>2026-05-02T07:47:02Z</time></trkpt><trkpt lat="41.201552663465634" lon="9.319104840359884"><ele>2.8000000000000003</ele><time>2026-05-02T07:47:03Z</time></trkpt><trkpt lat="41.20163108579318" lon="9.319064475947352"><ele>2.2</ele><time>2026-05-02T07:47:07Z</time></trkpt><trkpt lat="41.20173361362892" lon="9.319100551178417"><ele>1.6</ele><time>2026-05-02T07:47:09Z</time></trkpt><trkpt lat="41.20182806663818" lon="9.319160980943519"><ele>1.0</ele><time>2026-05-02T07:47:11Z</time></trkpt><trkpt lat="41.20192954209047" lon="9.31922877826694"><ele>1.0</ele><time>2026-05-02T07:47:13Z</time></trkpt><trkpt lat="41.20198030902845" lon="9.319356787038895"><ele>1.0</ele><time>2026-05-02T07:47:15Z</time></trkpt><trkpt lat="41.201988192941215" lon="9.319448546485317"><ele>1.0</ele><time>2026-05-02T07:47:16Z</time></trkpt><trkpt lat="41.202069127904146" lon="9.319528407596303"><ele>1.0</ele><time>2026-05-02T07:47:18Z</time></trkpt><trkpt lat="41.20214118947439" lon="9.319490946720748"><ele>1.0</ele><time>2026-05-02T07:47:20Z</time></trkpt><trkpt lat="41.20223520593468" lon="9.319476685594005"><ele>1.0</ele><time>2026-05-02T07:47:23Z</time></trkpt><trkpt lat="41.202154552464485" lon="9.319514136028856"><ele>1.0</ele><time>2026-05-02T07:49:25Z</time></trkpt><trkpt lat="41.20206698202964" lon="9.319390132306332"><ele>1.0</ele><time>2026-05-02T07:49:27Z</time></trkpt><trkpt lat="41.202013431030814" lon="9.319307652879512"><ele>1.0</ele><time>2026-05-02T07:49:28Z</time></trkpt><trkpt lat="41.20190966133961" lon="9.31919532454987"><ele>1.0</ele><time>2026-05-02T07:49:30Z</time></trkpt><trkpt lat="41.2018505766912" lon="9.31914933464705"><ele>0.9999999999999999</ele><time>2026-05-02T07:49:30.995Z</time></trkpt><trkpt lat="41.201776078612156" lon="9.319109650883988"><ele>1.0</ele><time>2026-05-02T07:49:31.995Z</time></trkpt><trkpt lat="41.20169417876803" lon="9.319069999584837"><ele>1.0</ele><time>2026-05-02T07:49:32.995Z</time></trkpt><trkpt lat="41.201621203604" lon="9.319056495626162"><ele>1.0</ele><time>2026-05-02T07:49:33.996Z</time></trkpt><trkpt lat="41.20154599919483" lon="9.31906667516757"><ele>0.9999999999999999</ele><time>2026-05-02T07:49:34.996Z</time></trkpt><trkpt lat="41.20145240394651" lon="9.319113937056358"><ele>1.0</ele><time>2026-05-02T07:49:35.996Z</time></trkpt><trkpt lat="41.201380788730894" lon="9.319150645514439"><ele>1.5</ele><time>2026-05-02T07:49:36.996Z</time></trkpt><trkpt lat="41.20129742552752" lon="9.319089379753384"><ele>2.0</ele><time>2026-05-02T07:49:38.996Z</time></trkpt><trkpt lat="41.20124404348808" lon="9.318998558895444"><ele>2.5</ele><time>2026-05-02T07:49:39.996Z</time></trkpt><trkpt lat="41.20118540063464" lon="9.318921777360268"><ele>3.0</ele><time>2026-05-02T07:49:40.996Z</time></trkpt><trkpt lat="41.2011091035591" lon="9.318873232388304"><ele>3.4999999999999996</ele><time>2026-05-02T07:49:41.996Z</time></trkpt><trkpt lat="41.20101613667683" lon="9.318831145500985"><ele>4.0</ele><time>2026-05-02T07:49:42.997Z</time></trkpt><trkpt lat="41.200946909304704" lon="9.318774476262243"><ele>4.166666666666666</ele><time>2026-05-02T07:49:43.997Z</time></trkpt><trkpt lat="41.200899685116134" lon="9.31868852986982"><ele>4.333333333333333</ele><time>2026-05-02T07:49:44.997Z</time></trkpt><trkpt lat="41.20086602056648" lon="9.318592915748026"><ele>4.5</ele><time>2026-05-02T07:49:45.997Z</time></trkpt><trkpt lat="41.20083704715496" lon="9.318502114334157"><ele>4.666666666666667</ele><time>2026-05-02T07:49:46.997Z</time></trkpt><trkpt lat="41.20081743606045" lon="9.318401146560726"><ele>4.833333333333334</ele><time>2026-05-02T07:49:47.997Z</time></trkpt><trkpt lat="41.200812436515605" lon="9.318294314776525"><ele>5.0</ele><time>2026-05-02T07:49:48.997Z</time></trkpt><trkpt lat="41.200829649829025" lon="9.318190437709248"><ele>5.0</ele><time>2026-05-02T07:49:49.997Z</time></trkpt><trkpt lat="41.20085810578612" lon="9.31810941876822"><ele>5.0</ele><time>2026-05-02T07:49:50.997Z</time></trkpt><trkpt lat="41.20088110450615" lon="9.317977718401167"><ele>5.0</ele><time>2026-05-02T07:49:52.998Z</time></trkpt><trkpt lat="41.20081059170223" lon="9.31784532242018"><ele>5.0</ele><time>2026-05-02T07:49:54.998Z</time></trkpt><trkpt lat="41.20074596263572" lon="9.317785461938827"><ele>5.0</ele><time>2026-05-02T07:49:55.998Z</time></trkpt><trkpt lat="41.200670842156846" lon="9.317730157672223"><ele>5.4</ele><time>2026-05-02T07:49:56.998Z</time></trkpt><trkpt lat="41.20058152224614" lon="9.317655479515523"><ele>5.8</ele><time>2026-05-02T07:49:57.998Z</time></trkpt><trkpt lat="41.20052345658024" lon="9.317585045273297"><ele>6.199999999999999</ele><time>2026-05-02T07:49:58.998Z</time></trkpt><trkpt lat="41.20044728496696" lon="9.31750031752423"><ele>6.6</ele><time>2026-05-02T07:50:00.998Z</time></trkpt><trkpt lat="41.20033197750039" lon="9.317491653761941"><ele>7.0</ele><time>2026-05-02T07:50:02.998Z</time></trkpt><trkpt lat="41.20025322587549" lon="9.317491600724168"><ele>7.000000000000001</ele><time>2026-05-02T07:50:03.998Z</time></trkpt><trkpt lat="41.20017089075495" lon="9.317498628794"><ele>7.0</ele><time>2026-05-02T07:50:04.998Z</time></trkpt><trkpt lat="41.20010453097471" lon="9.317500374044712"><ele>7.0</ele><time>2026-05-02T07:50:05.998Z</time></trkpt><trkpt lat="41.20001822235265" lon="9.31743924984924"><ele>7.0</ele><time>2026-05-02T07:50:07.998Z</time></trkpt><trkpt lat="41.19993940407145" lon="9.317441077026627"><ele>7.000000000000001</ele><time>2026-05-02T07:50:09.998Z</time></trkpt><trkpt lat="41.199899948880756" lon="9.31754708924575"><ele>7.0</ele><time>2026-05-02T07:50:11.998Z</time></trkpt><trkpt lat="41.19988506831675" lon="9.317641480268026"><ele>7.000000000000001</ele><time>2026-05-02T07:50:12.999Z</time></trkpt><trkpt lat="41.19987294127092" lon="9.317743609969192"><ele>7.0</ele><time>2026-05-02T07:50:13.999Z</time></trkpt><trkpt lat="41.19981197756138" lon="9.31781911278487"><ele>7.0</ele><time>2026-05-02T07:50:15.999Z</time></trkpt><trkpt lat="41.19978203219793" lon="9.317923060187955"><ele>7.0</ele><time>2026-05-02T07:50:19.999Z</time></trkpt><trkpt lat="41.199842406496174" lon="9.318009385656945"><ele>7.000000000000001</ele><time>2026-05-02T07:50:21.999Z</time></trkpt><trkpt lat="41.19990645301956" lon="9.318084180181199"><ele>7.0</ele><time>2026-05-02T07:50:23.999Z</time></trkpt><trkpt lat="41.199904844871035" lon="9.31826221822549"><ele>7.833333333333334</ele><time>2026-05-02T07:50:25.999Z</time></trkpt><trkpt lat="41.19990209887602" lon="9.318366259524938"><ele>8.666666666666668</ele><time>2026-05-02T07:50:26.999Z</time></trkpt><trkpt lat="41.199904500130366" lon="9.318485343826936"><ele>9.5</ele><time>2026-05-02T07:50:27.999Z</time></trkpt><trkpt lat="41.1999084638195" lon="9.318602266894418"><ele>10.333333333333334</ele><time>2026-05-02T07:50:28.999Z</time></trkpt><trkpt lat="41.199920874138115" lon="9.318723583903836"><ele>11.166666666666666</ele><time>2026-05-02T07:50:29.999Z</time></trkpt><trkpt lat="41.19991803328196" lon="9.318830987387436"><ele>12.0</ele><time>2026-05-02T07:50:30.999Z</time></trkpt><trkpt lat="41.19989680294348" lon="9.31892723244512"><ele>12.6</ele><time>2026-05-02T07:50:31.999Z</time></trkpt><trkpt lat="41.19989789237283" lon="9.319012761362538"><ele>13.2</ele><time>2026-05-02T07:50:32.999Z</time></trkpt><trkpt lat="41.199833317499916" lon="9.31913331847466"><ele>13.8</ele><time>2026-05-02T07:50:34.999Z</time></trkpt><trkpt lat="41.19976630602883" lon="9.319186547676347"><ele>14.4</ele><time>2026-05-02T07:50:35.999Z</time></trkpt><trkpt lat="41.19967829687543" lon="9.319230069958909"><ele>15.0</ele><time>2026-05-02T07:50:36.999Z</time></trkpt><trkpt lat="41.19957207433873" lon="9.319279405775406"><ele>15.0</ele><time>2026-05-02T07:50:37.999Z</time></trkpt><trkpt lat="41.19949172765874" lon="9.319319698973148"><ele>15.0</ele><time>2026-05-02T07:50:38.999Z</time></trkpt><trkpt lat="41.19942231192177" lon="9.319363428970378"><ele>15.0</ele><time>2026-05-02T07:50:39.999Z</time></trkpt><trkpt lat="41.1993656082742" lon="9.319405587713165"><ele>15.0</ele><time>2026-05-02T07:50:40.999Z</time></trkpt><trkpt lat="41.19926406418351" lon="9.31943687766134"><ele>15.0</ele><time>2026-05-02T07:50:42.999Z</time></trkpt><trkpt lat="41.19917348972619" lon="9.31952640438213"><ele>15.0</ele><time>2026-05-02T07:50:44.999Z</time></trkpt><trkpt lat="41.19912105738239" lon="9.31963309793098"><ele>15.2</ele><time>2026-05-02T07:50:46.999Z</time></trkpt><trkpt lat="41.19913277075931" lon="9.319762487387257"><ele>15.4</ele><time>2026-05-02T07:50:49.999Z</time></trkpt><trkpt lat="41.1991381539558" lon="9.319859823563883"><ele>15.600000000000001</ele><time>2026-05-02T07:50:51.999Z</time></trkpt><trkpt lat="41.19903580993963" lon="9.31991055762066"><ele>15.8</ele><time>2026-05-02T07:50:53.999Z</time></trkpt><trkpt lat="41.19896121357255" lon="9.3198529937936"><ele>16.0</ele><time>2026-05-02T07:50:54.999Z</time></trkpt><trkpt lat="41.198871667384374" lon="9.319849663645652"><ele>14.600000000000001</ele><time>2026-05-02T07:50:55.999Z</time></trkpt><trkpt lat="41.19878717568013" lon="9.319833763967642"><ele>13.200000000000001</ele><time>2026-05-02T07:50:56.999Z</time></trkpt><trkpt lat="41.19867845603318" lon="9.319812721803297"><ele>11.8</ele><time>2026-05-02T07:50:57.999Z</time></trkpt><trkpt lat="41.1985769422308" lon="9.319787807589305"><ele>10.4</ele><time>2026-05-02T07:50:58.999Z</time></trkpt><trkpt lat="41.19846492425834" lon="9.319769051653758"><ele>9.0</ele><time>2026-05-02T07:50:59.999Z</time></trkpt><trkpt lat="41.19837257223185" lon="9.319764306620637"><ele>9.0</ele><time>2026-05-02T07:51:00.999Z</time></trkpt><trkpt lat="41.19828633114498" lon="9.319760329914747"><ele>9.0</ele><time>2026-05-02T07:51:01.999Z</time></trkpt><trkpt lat="41.198203559732626" lon="9.319756513196353"><ele>9.0</ele><time>2026-05-02T07:51:02.999Z</time></trkpt><trkpt lat="41.19812081630171" lon="9.319753425450106"><ele>9.0</ele><time>2026-05-02T07:51:03.999Z</time></trkpt><trkpt lat="41.198047313090036" lon="9.319751179821296"><ele>9.0</ele><time>2026-05-02T07:51:04.999Z</time></trkpt><trkpt lat="41.19796122889156" lon="9.319750251557409"><ele>9.0</ele><time>2026-05-02T07:51:05.999Z</time></trkpt><trkpt lat="41.19788117663756" lon="9.319749525933144"><ele>8.5</ele><time>2026-05-02T07:51:06.999Z</time></trkpt><trkpt lat="41.19778935930151" lon="9.31975306363128"><ele>8.0</ele><time>2026-05-02T07:51:07.999Z</time></trkpt><trkpt lat="41.19770907062118" lon="9.31974748626347"><ele>7.5</ele><time>2026-05-02T07:51:09Z</time></trkpt><trkpt lat="41.19763220481212" lon="9.319736245927375"><ele>7.0</ele><time>2026-05-02T07:51:10Z</time></trkpt><trkpt lat="41.19755158025016" lon="9.319720381824805"><ele>6.5</ele><time>2026-05-02T07:51:11Z</time></trkpt><trkpt lat="41.197470305031565" lon="9.319671909454058"><ele>6.0</ele><time>2026-05-02T07:51:12Z</time></trkpt><trkpt lat="41.197382086474164" lon="9.319640423302822"><ele>6.0</ele><time>2026-05-02T07:51:13Z</time></trkpt><trkpt lat="41.197310134189195" lon="9.319605366654898"><ele>6.0</ele><time>2026-05-02T07:51:14Z</time></trkpt><trkpt lat="41.19723956676363" lon="9.319563925707648"><ele>6.0</ele><time>2026-05-02T07:51:15Z</time></trkpt><trkpt lat="41.19719085147325" lon="9.319500955642466"><ele>6.0</ele><time>2026-05-02T07:51:16Z</time></trkpt><trkpt lat="41.19713897292215" lon="9.319437967456967"><ele>6.0</ele><time>2026-05-02T07:51:17Z</time></trkpt><trkpt lat="41.19708418619759" lon="9.319362191732546"><ele>6.0</ele><time>2026-05-02T07:51:18Z</time></trkpt><trkpt lat="41.197022351479234" lon="9.319277359056342"><ele>6.0</ele><time>2026-05-02T07:51:19Z</time></trkpt><trkpt lat="41.196958843248396" lon="9.319192426656793"><ele>6.0</ele><time>2026-05-02T07:51:20Z</time></trkpt><trkpt lat="41.19690204224702" lon="9.319116629991676"><ele>6.0</ele><time>2026-05-02T07:51:21Z</time></trkpt><trkpt lat="41.19684800355756" lon="9.319044519343086"><ele>6.0</ele><time>2026-05-02T07:51:22Z</time></trkpt><trkpt lat="41.19678620194563" lon="9.318962049815333"><ele>6.0</ele><time>2026-05-02T07:51:23Z</time></trkpt><trkpt lat="41.19671154086222" lon="9.318891091618976"><ele>6.0</ele><time>2026-05-02T07:51:24Z</time></trkpt><trkpt lat="41.19665033946387" lon="9.31880382260905"><ele>5.666666666666667</ele><time>2026-05-02T07:51:25Z</time></trkpt><trkpt lat="41.19659779394177" lon="9.31871580361545"><ele>5.333333333333333</ele><time>2026-05-02T07:51:26Z</time></trkpt><trkpt lat="41.19653963933647" lon="9.318643630767879"><ele>5.0</ele><time>2026-05-02T07:51:27Z</time></trkpt><trkpt lat="41.19648890213924" lon="9.318558856801703"><ele>4.666666666666666</ele><time>2026-05-02T07:51:28Z</time></trkpt><trkpt lat="41.196435957882436" lon="9.318489756893896"><ele>4.333333333333333</ele><time>2026-05-02T07:51:29Z</time></trkpt><trkpt lat="41.196351074689076" lon="9.31838105980269"><ele>4.0</ele><time>2026-05-02T07:51:31Z</time></trkpt><trkpt lat="41.196238756331454" lon="9.318324253494492"><ele>3.6666666666666665</ele><time>2026-05-02T07:51:33Z</time></trkpt><trkpt lat="41.1961742775446" lon="9.318349881947752"><ele>3.333333333333333</ele><time>2026-05-02T07:51:34Z</time></trkpt><trkpt lat="41.1960470788175" lon="9.318411831876805"><ele>3.0</ele><time>2026-05-02T07:51:36Z</time></trkpt><trkpt lat="41.19598696577904" lon="9.318456506918828"><ele>2.6666666666666665</ele><time>2026-05-02T07:51:36.999Z</time></trkpt><trkpt lat="41.19592927333866" lon="9.318505880218867"><ele>2.333333333333333</ele><time>2026-05-02T07:51:37.999Z</time></trkpt><trkpt lat="41.19586130033947" lon="9.318570340147552"><ele>2.0</ele><time>2026-05-02T07:51:38.999Z</time></trkpt><trkpt lat="41.1958181456922" lon="9.31863812754211"><ele>2.0</ele><time>2026-05-02T07:51:39.999Z</time></trkpt><trkpt lat="41.19576190968609" lon="9.318681210523962"><ele>2.0</ele><time>2026-05-02T07:51:40.999Z</time></trkpt><trkpt lat="41.19568319637028" lon="9.318775985959556"><ele>2.0</ele><time>2026-05-02T07:51:42.999Z</time></trkpt><trkpt lat="41.19558136256062" lon="9.318786202198133"><ele>2.0</ele><time>2026-05-02T07:51:44.999Z</time></trkpt><trkpt lat="41.19550231392886" lon="9.318754150589566"><ele>2.0</ele><time>2026-05-02T07:51:45.999Z</time></trkpt><trkpt lat="41.19539666444181" lon="9.318731033514636"><ele>1.6</ele><time>2026-05-02T07:51:46.999Z</time></trkpt><trkpt lat="41.1952836001261" lon="9.31873276365122"><ele>1.2000000000000002</ele><time>2026-05-02T07:51:48Z</time></trkpt><trkpt lat="41.19518262866388" lon="9.318704700783783"><ele>0.8</ele><time>2026-05-02T07:51:49Z</time></trkpt><trkpt lat="41.195096860595946" lon="9.318696905527338"><ele>0.4</ele><time>2026-05-02T07:51:50Z</time></trkpt><trkpt lat="41.19502008408019" lon="9.318680350516878"><ele>0.0</ele><time>2026-05-02T07:51:51Z</time></trkpt><trkpt lat="41.19493717089079" lon="9.318660505499569"><ele>0.0</ele><time>2026-05-02T07:51:52Z</time></trkpt><trkpt lat="41.19484691965177" lon="9.31864549203028"><ele>0.0</ele><time>2026-05-02T07:51:53Z</time></trkpt><trkpt lat="41.19476103043289" lon="9.31863742398855"><ele>0.0</ele><time>2026-05-02T07:51:54Z</time></trkpt><trkpt lat="41.194671640575" lon="9.318607030581564"><ele>0.0</ele><time>2026-05-02T07:51:55Z</time></trkpt><trkpt lat="41.194583636622184" lon="9.318607891420365"><ele>0.0</ele><time>2026-05-02T07:51:56Z</time></trkpt><trkpt lat="41.19449343663393" lon="9.318590675915292"><ele>0.0</ele><time>2026-05-02T07:51:57Z</time></trkpt><trkpt lat="41.19441804195846" lon="9.31858566204035"><ele>0.0</ele><time>2026-05-02T07:51:58Z</time></trkpt><trkpt lat="41.194330418787956" lon="9.318594131692498"><ele>0.0</ele><time>2026-05-02T07:52:00Z</time></trkpt><trkpt lat="41.194243943557694" lon="9.318604208674234"><ele>0.0</ele><time>2026-05-02T07:52:04Z</time></trkpt><trkpt lat="41.19417039525611" lon="9.318604395233928"><ele>0.0</ele><time>2026-05-02T07:52:06Z</time></trkpt><trkpt lat="41.194099401670115" lon="9.318624897561502"><ele>0.0</ele><time>2026-05-02T07:52:08Z</time></trkpt><trkpt lat="41.194030159357425" lon="9.3186448954922"><ele>0.0</ele><time>2026-05-02T07:52:10Z</time></trkpt><trkpt lat="41.19395910734977" lon="9.31867056409062"><ele>0.0</ele><time>2026-05-02T07:52:12Z</time></trkpt><trkpt lat="41.193889700759854" lon="9.318675139770859"><ele>0.0</ele><time>2026-05-02T07:52:14Z</time></trkpt><trkpt lat="41.19382968753443" lon="9.318700488063666"><ele>0.0</ele><time>2026-05-02T07:52:45.001Z</time></trkpt><trkpt lat="41.193767708128085" lon="9.318742200751606"><ele>0.0</ele><time>2026-05-02T07:53:24.001Z</time></trkpt><trkpt lat="41.19370106145053" lon="9.318770800337058"><ele>0.0</ele><time>2026-05-02T07:53:31.001Z</time></trkpt><trkpt lat="41.193633649566486" lon="9.31880350382768"><ele>0.0</ele><time>2026-05-02T07:53:38.001Z</time></trkpt><trkpt lat="41.19357325502331" lon="9.318835784191716"><ele>0.0</ele><time>2026-05-02T07:53:44.001Z</time></trkpt><trkpt lat="41.19353620524236" lon="9.318918005959969"><ele>0.0</ele><time>2026-05-02T07:53:51.001Z</time></trkpt><trkpt lat="41.19353742720701" lon="9.319014038828783"><ele>0.0</ele><time>2026-05-02T07:53:59.001Z</time></trkpt><trkpt lat="41.193466809881514" lon="9.319017268115703"><ele>0.0</ele><time>2026-05-02T07:54:06.001Z</time></trkpt><trkpt lat="41.193430831133306" lon="9.318934032881414"><ele>0.0</ele><time>2026-05-02T07:54:14.001Z</time></trkpt></trkseg><trkseg><trkpt lat="41.19593163575329" lon="9.263759538410616"><ele>11.0</ele><time>2026-05-02T08:37:21Z</time></trkpt><trkpt lat="41.19596350581337" lon="9.263611882708151"><ele>11.0</ele><time>2026-05-02T08:37:22Z</time></trkpt><trkpt lat="41.19599602659515" lon="9.26345913936829"><ele>11.0</ele><time>2026-05-02T08:37:23Z</time></trkpt><trkpt lat="41.19603300162287" lon="9.263306022928562"><ele>11.0</ele><time>2026-05-02T08:37:24Z</time></trkpt><trkpt lat="41.19606674547247" lon="9.26314659709658"><ele>11.5</ele><time>2026-05-02T08:37:25Z</time></trkpt><trkpt lat="41.19610219109689" lon="9.262977519476285"><ele>12.0</ele><time>2026-05-02T08:37:26Z</time></trkpt><trkpt lat="41.19614091279897" lon="9.262790384281377"><ele>12.5</ele><time>2026-05-02T08:37:27Z</time></trkpt><trkpt lat="41.196171135418965" lon="9.262589905635604"><ele>13.0</ele><time>2026-05-02T08:37:28Z</time></trkpt><trkpt lat="41.19616977932037" lon="9.262383377476906"><ele>13.75</ele><time>2026-05-02T08:37:29Z</time></trkpt><trkpt lat="41.196112937494995" lon="9.262184992589095"><ele>14.5</ele><time>2026-05-02T08:37:30Z</time></trkpt><trkpt lat="41.19604429767678" lon="9.262008695100755"><ele>15.25</ele><time>2026-05-02T08:37:31Z</time></trkpt><trkpt lat="41.195984779083076" lon="9.261844653145879"><ele>16.0</ele><time>2026-05-02T08:37:32Z</time></trkpt><trkpt lat="41.19593438668688" lon="9.261694425144888"><ele>16.0</ele><time>2026-05-02T08:37:33Z</time></trkpt><trkpt lat="41.19587622314466" lon="9.261539263254447"><ele>16.0</ele><time>2026-05-02T08:37:34Z</time></trkpt><trkpt lat="41.195807429336995" lon="9.261333836555822"><ele>16.0</ele><time>2026-05-02T08:37:35Z</time></trkpt><trkpt lat="41.19575499082518" lon="9.261133857035379"><ele>16.25</ele><time>2026-05-02T08:37:36Z</time></trkpt><trkpt lat="41.195722613274" lon="9.260932326047602"><ele>16.5</ele><time>2026-05-02T08:37:37Z</time></trkpt><trkpt lat="41.19572758618866" lon="9.260728450462286"><ele>16.75</ele><time>2026-05-02T08:37:38Z</time></trkpt><trkpt lat="41.195765057457386" lon="9.260547857016933"><ele>17.0</ele><time>2026-05-02T08:37:39Z</time></trkpt><trkpt lat="41.195824754047955" lon="9.260353384891996"><ele>17.0</ele><time>2026-05-02T08:37:40Z</time></trkpt><trkpt lat="41.19591895905033" lon="9.260152767197901"><ele>17.0</ele><time>2026-05-02T08:37:41Z</time></trkpt><trkpt lat="41.19604224963987" lon="9.259968353447492"><ele>17.0</ele><time>2026-05-02T08:37:42Z</time></trkpt><trkpt lat="41.19618524377076" lon="9.259801142707657"><ele>17.666666666666668</ele><time>2026-05-02T08:37:43Z</time></trkpt><trkpt lat="41.19634119378347" lon="9.259656873252943"><ele>18.333333333333332</ele><time>2026-05-02T08:37:44Z</time></trkpt><trkpt lat="41.196507834186804" lon="9.259518081430587"><ele>19.0</ele><time>2026-05-02T08:37:45Z</time></trkpt><trkpt lat="41.19669387130627" lon="9.259360552791158"><ele>19.0</ele><time>2026-05-02T08:37:46Z</time></trkpt><trkpt lat="41.196895097619176" lon="9.259220239366474"><ele>19.0</ele><time>2026-05-02T08:37:47Z</time></trkpt><trkpt lat="41.19707538010868" lon="9.259108028193664"><ele>19.0</ele><time>2026-05-02T08:37:48Z</time></trkpt><trkpt lat="41.19723796098402" lon="9.258993572752944"><ele>19.333333333333332</ele><time>2026-05-02T08:37:49Z</time></trkpt><trkpt lat="41.197391055887955" lon="9.258876414130134"><ele>19.666666666666668</ele><time>2026-05-02T08:37:50Z</time></trkpt><trkpt lat="41.197536158869504" lon="9.25876483609251"><ele>20.0</ele><time>2026-05-02T08:37:51Z</time></trkpt><trkpt lat="41.197665982132555" lon="9.258654376071561"><ele>20.0</ele><time>2026-05-02T08:37:52Z</time></trkpt><trkpt lat="41.19777640202525" lon="9.258563097982947"><ele>20.0</ele><time>2026-05-02T08:37:53Z</time></trkpt><trkpt lat="41.197879868941186" lon="9.25849794344142"><ele>20.0</ele><time>2026-05-02T08:37:54Z</time></trkpt><trkpt lat="41.197979245633704" lon="9.258423062201437"><ele>20.0</ele><time>2026-05-02T08:37:55Z</time></trkpt><trkpt lat="41.198080544326395" lon="9.258343810471565"><ele>21.0</ele><time>2026-05-02T08:37:56Z</time></trkpt><trkpt lat="41.19818408576726" lon="9.25827551923361"><ele>22.0</ele><time>2026-05-02T08:37:57Z</time></trkpt><trkpt lat="41.198294707014135" lon="9.258230455413699"><ele>23.0</ele><time>2026-05-02T08:37:58Z</time></trkpt><trkpt lat="41.19840721459833" lon="9.258191059527906"><ele>24.0</ele><time>2026-05-02T08:37:59Z</time></trkpt><trkpt lat="41.19853544023901" lon="9.25815798429077"><ele>24.0</ele><time>2026-05-02T08:38:00Z</time></trkpt><trkpt lat="41.19866221274125" lon="9.258149964141243"><ele>24.0</ele><time>2026-05-02T08:38:01Z</time></trkpt><trkpt lat="41.19878379461666" lon="9.258170423225888"><ele>24.0</ele><time>2026-05-02T08:38:02Z</time></trkpt><trkpt lat="41.19890520745351" lon="9.258203739749815"><ele>24.0</ele><time>2026-05-02T08:38:03Z</time></trkpt><trkpt lat="41.19905290831278" lon="9.258219694068941"><ele>23.0</ele><time>2026-05-02T08:38:04Z</time></trkpt><trkpt lat="41.19923675929347" lon="9.25824293695494"><ele>22.0</ele><time>2026-05-02T08:38:05Z</time></trkpt><trkpt lat="41.19944415459714" lon="9.25828334015117"><ele>21.0</ele><time>2026-05-02T08:38:06Z</time></trkpt><trkpt lat="41.1996540971653" lon="9.258331839447512"><ele>20.5</ele><time>2026-05-02T08:38:07Z</time></trkpt><trkpt lat="41.199895102833906" lon="9.258403089736056"><ele>20.0</ele><time>2026-05-02T08:38:08Z</time></trkpt><trkpt lat="41.20015487758844" lon="9.258470400542219"><ele>20.0</ele><time>2026-05-02T08:38:09Z</time></trkpt><trkpt lat="41.20041245964504" lon="9.258516082468638"><ele>20.0</ele><time>2026-05-02T08:38:10Z</time></trkpt><trkpt lat="41.20068208941131" lon="9.258568928665671"><ele>21.0</ele><time>2026-05-02T08:38:11Z</time></trkpt><trkpt lat="41.20095296094168" lon="9.258626030911929"><ele>22.0</ele><time>2026-05-02T08:38:12Z</time></trkpt><trkpt lat="41.20119873795169" lon="9.258679778546004"><ele>22.0</ele><time>2026-05-02T08:38:13Z</time></trkpt><trkpt lat="41.2014232304642" lon="9.258712909614722"><ele>22.0</ele><time>2026-05-02T08:38:14Z</time></trkpt><trkpt lat="41.201634284763" lon="9.25871395198425"><ele>22.0</ele><time>2026-05-02T08:38:15Z</time></trkpt><trkpt lat="41.201832666574596" lon="9.2586756402972"><ele>21.666666666666664</ele><time>2026-05-02T08:38:16Z</time></trkpt><trkpt lat="41.20201737969782" lon="9.258597932896464"><ele>21.333333333333332</ele><time>2026-05-02T08:38:17Z</time></trkpt><trkpt lat="41.20220306806593" lon="9.25845811949564"><ele>21.0</ele><time>2026-05-02T08:38:18Z</time></trkpt><trkpt lat="41.202407578714286" lon="9.258253920827874"><ele>23.5</ele><time>2026-05-02T08:38:19Z</time></trkpt><trkpt lat="41.20265257892042" lon="9.258072652838022"><ele>26.0</ele><time>2026-05-02T08:38:20Z</time></trkpt><trkpt lat="41.202914206377116" lon="9.257891063761113"><ele>23.5</ele><time>2026-05-02T08:38:21Z</time></trkpt><trkpt lat="41.20317370745135" lon="9.25768948359541"><ele>21.0</ele><time>2026-05-02T08:38:22Z</time></trkpt><trkpt lat="41.20343901060258" lon="9.257471359078608"><ele>25.5</ele><time>2026-05-02T08:38:23Z</time></trkpt><trkpt lat="41.20370842361447" lon="9.257269146114211"><ele>30.0</ele><time>2026-05-02T08:38:24Z</time></trkpt><trkpt lat="41.20395664138818" lon="9.257084885164273"><ele>28.0</ele><time>2026-05-02T08:38:25Z</time></trkpt><trkpt lat="41.20418760250362" lon="9.256917627404777"><ele>26.0</ele><time>2026-05-02T08:38:26Z</time></trkpt><trkpt lat="41.20442400791013" lon="9.256794913777698"><ele>26.0</ele><time>2026-05-02T08:38:27Z</time></trkpt><trkpt lat="41.20470107891695" lon="9.256758899984975"><ele>26.0</ele><time>2026-05-02T08:38:28Z</time></trkpt><trkpt lat="41.20498905444807" lon="9.256770851232028"><ele>24.0</ele><time>2026-05-02T08:38:29Z</time></trkpt><trkpt lat="41.20525331528702" lon="9.256778874729587"><ele>22.0</ele><time>2026-05-02T08:38:30Z</time></trkpt><trkpt lat="41.20548965771498" lon="9.256734163516068"><ele>22.5</ele><time>2026-05-02T08:38:31Z</time></trkpt><trkpt lat="41.205703578923405" lon="9.256622434035023"><ele>23.0</ele><time>2026-05-02T08:38:32Z</time></trkpt><trkpt lat="41.20591395380112" lon="9.256431701774641"><ele>26.5</ele><time>2026-05-02T08:38:33Z</time></trkpt><trkpt lat="41.206128062113244" lon="9.256176158480255"><ele>30.0</ele><time>2026-05-02T08:38:34Z</time></trkpt><trkpt lat="41.20636028090546" lon="9.25589435579081"><ele>29.5</ele><time>2026-05-02T08:38:35Z</time></trkpt><trkpt lat="41.20659466523138" lon="9.25562595206657"><ele>29.0</ele><time>2026-05-02T08:38:36Z</time></trkpt><trkpt lat="41.20680599199342" lon="9.255357199010275"><ele>29.0</ele><time>2026-05-02T08:38:37Z</time></trkpt><trkpt lat="41.20698187281573" lon="9.255041459843163"><ele>29.0</ele><time>2026-05-02T08:38:38Z</time></trkpt><trkpt lat="41.2071294805752" lon="9.254671385677693"><ele>30.5</ele><time>2026-05-02T08:38:39Z</time></trkpt><trkpt lat="41.207256528110115" lon="9.25429018669287"><ele>32.0</ele><time>2026-05-02T08:38:40Z</time></trkpt><trkpt lat="41.20736355277375" lon="9.253934085226232"><ele>32.0</ele><time>2026-05-02T08:38:41Z</time></trkpt><trkpt lat="41.20746636866076" lon="9.253611683030352"><ele>32.0</ele><time>2026-05-02T08:38:42Z</time></trkpt><trkpt lat="41.20759067314239" lon="9.253336873329717"><ele>36.0</ele><time>2026-05-02T08:38:43Z</time></trkpt><trkpt lat="41.207757011415886" lon="9.25311863446919"><ele>40.0</ele><time>2026-05-02T08:38:44Z</time></trkpt><trkpt lat="41.207960257401055" lon="9.252990641123773"><ele>35.0</ele><time>2026-05-02T08:38:45Z</time></trkpt><trkpt lat="41.208195866636466" lon="9.252948490982561"><ele>30.0</ele><time>2026-05-02T08:38:46Z</time></trkpt><trkpt lat="41.20845435383628" lon="9.252991134490925"><ele>30.0</ele><time>2026-05-02T08:38:47Z</time></trkpt><trkpt lat="41.20870468977506" lon="9.253050897869862"><ele>30.0</ele><time>2026-05-02T08:38:48Z</time></trkpt><trkpt lat="41.20893262104022" lon="9.253083328291055"><ele>31.5</ele><time>2026-05-02T08:38:49Z</time></trkpt><trkpt lat="41.20915768241537" lon="9.253092146248829"><ele>33.0</ele><time>2026-05-02T08:38:50Z</time></trkpt><trkpt lat="41.20938623191092" lon="9.25306801987443"><ele>33.0</ele><time>2026-05-02T08:38:51Z</time></trkpt><trkpt lat="41.209609488643004" lon="9.253010562119696"><ele>33.0</ele><time>2026-05-02T08:38:52Z</time></trkpt><trkpt lat="41.209820862037546" lon="9.252936150530937"><ele>33.0</ele><time>2026-05-02T08:38:53Z</time></trkpt><trkpt lat="41.21001914623754" lon="9.252865135778812"><ele>32.666666666666664</ele><time>2026-05-02T08:38:54Z</time></trkpt><trkpt lat="41.210200018942125" lon="9.252793360176238"><ele>32.33333333333333</ele><time>2026-05-02T08:38:55Z</time></trkpt><trkpt lat="41.21037509496935" lon="9.252694015677426"><ele>32.0</ele><time>2026-05-02T08:38:56Z</time></trkpt><trkpt lat="41.21054077663316" lon="9.252548257581804"><ele>32.33333333333333</ele><time>2026-05-02T08:38:57Z</time></trkpt><trkpt lat="41.2106996168402" lon="9.252370063699022"><ele>32.666666666666664</ele><time>2026-05-02T08:38:58Z</time></trkpt><trkpt lat="41.21085679354326" lon="9.252174932282523"><ele>33.0</ele><time>2026-05-02T08:38:59Z</time></trkpt><trkpt lat="41.211008413971555" lon="9.251975124140099"><ele>33.0</ele><time>2026-05-02T08:39:00Z</time></trkpt><trkpt lat="41.21116320561516" lon="9.251775966366315"><ele>33.0</ele><time>2026-05-02T08:39:01Z</time></trkpt><trkpt lat="41.21132249419343" lon="9.251573450373732"><ele>33.0</ele><time>2026-05-02T08:39:02Z</time></trkpt><trkpt lat="41.21148083294716" lon="9.251372539384233"><ele>33.0</ele><time>2026-05-02T08:39:03Z</time></trkpt><trkpt lat="41.21164344624786" lon="9.25118164982018"><ele>33.0</ele><time>2026-05-02T08:39:04Z</time></trkpt><trkpt lat="41.21180383731119" lon="9.250995924411853"><ele>33.0</ele><time>2026-05-02T08:39:05Z</time></trkpt><trkpt lat="41.21196502056651" lon="9.250800220767275"><ele>34.5</ele><time>2026-05-02T08:39:06Z</time></trkpt><trkpt lat="41.21212848846887" lon="9.250598806830014"><ele>36.0</ele><time>2026-05-02T08:39:07Z</time></trkpt><trkpt lat="41.21229668022133" lon="9.250395088096425"><ele>36.0</ele><time>2026-05-02T08:39:08Z</time></trkpt><trkpt lat="41.21246391020945" lon="9.250191286009661"><ele>36.0</ele><time>2026-05-02T08:39:09Z</time></trkpt><trkpt lat="41.21263296061743" lon="9.249990984516986"><ele>36.5</ele><time>2026-05-02T08:39:10Z</time></trkpt><trkpt lat="41.21280144017842" lon="9.249789866381207"><ele>37.0</ele><time>2026-05-02T08:39:11Z</time></trkpt><trkpt lat="41.21296461066912" lon="9.249584498926579"><ele>37.0</ele><time>2026-05-02T08:39:12Z</time></trkpt><trkpt lat="41.21312348795702" lon="9.249383427805853"><ele>37.0</ele><time>2026-05-02T08:39:13Z</time></trkpt><trkpt lat="41.213283107239185" lon="9.249187959234103"><ele>37.0</ele><time>2026-05-02T08:39:14Z</time></trkpt><trkpt lat="41.2134441953887" lon="9.248995902175382"><ele>37.66666666666667</ele><time>2026-05-02T08:39:15Z</time></trkpt><trkpt lat="41.213608540150986" lon="9.248809983893283"><ele>38.333333333333336</ele><time>2026-05-02T08:39:16Z</time></trkpt><trkpt lat="41.21376977901132" lon="9.248617837708368"><ele>39.0</ele><time>2026-05-02T08:39:16.999Z</time></trkpt><trkpt lat="41.213928339740974" lon="9.248418489175855"><ele>40.0</ele><time>2026-05-02T08:39:17.999Z</time></trkpt><trkpt lat="41.21407991023859" lon="9.248216481797623"><ele>41.0</ele><time>2026-05-02T08:39:18.999Z</time></trkpt><trkpt lat="41.21421440101668" lon="9.247991836613236"><ele>42.0</ele><time>2026-05-02T08:39:19.999Z</time></trkpt><trkpt lat="41.214322060929575" lon="9.247740684483572"><ele>43.333333333333336</ele><time>2026-05-02T08:39:20.999Z</time></trkpt><trkpt lat="41.21441700048446" lon="9.247467515628419"><ele>44.66666666666667</ele><time>2026-05-02T08:39:21.999Z</time></trkpt><trkpt lat="41.214515909598205" lon="9.247209206367089"><ele>46.0</ele><time>2026-05-02T08:39:22.999Z</time></trkpt><trkpt lat="41.21462276553615" lon="9.246950626268218"><ele>46.0</ele><time>2026-05-02T08:39:23.999Z</time></trkpt><trkpt lat="41.2147272590745" lon="9.246688162292497"><ele>46.0</ele><time>2026-05-02T08:39:24.999Z</time></trkpt><trkpt lat="41.214836115933544" lon="9.24641945767786"><ele>48.0</ele><time>2026-05-02T08:39:25.999Z</time></trkpt><trkpt lat="41.21494473615622" lon="9.246154225452448"><ele>50.0</ele><time>2026-05-02T08:39:26.999Z</time></trkpt><trkpt lat="41.215057971061505" lon="9.2458850655898"><ele>51.0</ele><time>2026-05-02T08:39:27.999Z</time></trkpt><trkpt lat="41.21516836925947" lon="9.245612997133811"><ele>52.0</ele><time>2026-05-02T08:39:28.999Z</time></trkpt><trkpt lat="41.21527957037595" lon="9.24534518558719"><ele>52.0</ele><time>2026-05-02T08:39:29.999Z</time></trkpt><trkpt lat="41.21539974671639" lon="9.245077174698961"><ele>52.0</ele><time>2026-05-02T08:39:30.999Z</time></trkpt><trkpt lat="41.21553379998147" lon="9.24481616794639"><ele>51.5</ele><time>2026-05-02T08:39:31.999Z</time></trkpt><trkpt lat="41.21568198017691" lon="9.244559354564583"><ele>51.0</ele><time>2026-05-02T08:39:32.999Z</time></trkpt><trkpt lat="41.215824788941156" lon="9.244306006369811"><ele>51.0</ele><time>2026-05-02T08:39:33.999Z</time></trkpt><trkpt lat="41.21596844098669" lon="9.24405593357305"><ele>51.0</ele><time>2026-05-02T08:39:34.999Z</time></trkpt><trkpt lat="41.216102995891106" lon="9.243808502775648"><ele>51.5</ele><time>2026-05-02T08:39:35.999Z</time></trkpt><trkpt lat="41.216236278493085" lon="9.243559973651704"><ele>52.0</ele><time>2026-05-02T08:39:36.999Z</time></trkpt><trkpt lat="41.216367662103494" lon="9.24331443997295"><ele>51.666666666666664</ele><time>2026-05-02T08:39:37.999Z</time></trkpt><trkpt lat="41.216498140622555" lon="9.243070349600435"><ele>51.33333333333333</ele><time>2026-05-02T08:39:38.999Z</time></trkpt><trkpt lat="41.21662197997161" lon="9.24284796997067"><ele>51.0</ele><time>2026-05-02T08:39:39.999Z</time></trkpt><trkpt lat="41.216734401008324" lon="9.242637513133621"><ele>51.0</ele><time>2026-05-02T08:39:40.999Z</time></trkpt><trkpt lat="41.216831426202226" lon="9.242451668955498"><ele>51.0</ele><time>2026-05-02T08:39:41.999Z</time></trkpt><trkpt lat="41.21692096188244" lon="9.242289040717598"><ele>51.0</ele><time>2026-05-02T08:39:42.999Z</time></trkpt><trkpt lat="41.217000999026745" lon="9.242146651877261"><ele>51.4</ele><time>2026-05-02T08:39:43.999Z</time></trkpt><trkpt lat="41.21707521160161" lon="9.242019198172189"><ele>51.8</ele><time>2026-05-02T08:39:44.999Z</time></trkpt><trkpt lat="41.217139582524226" lon="9.241897089061947"><ele>52.199999999999996</ele><time>2026-05-02T08:39:45.999Z</time></trkpt><trkpt lat="41.21720179819209" lon="9.241776483370183"><ele>52.599999999999994</ele><time>2026-05-02T08:39:47Z</time></trkpt><trkpt lat="41.217262277055504" lon="9.241666066397974"><ele>53.0</ele><time>2026-05-02T08:39:48Z</time></trkpt><trkpt lat="41.21732034493155" lon="9.241570627405542"><ele>53.0</ele><time>2026-05-02T08:39:49Z</time></trkpt><trkpt lat="41.21738735948813" lon="9.241488248360595"><ele>53.0</ele><time>2026-05-02T08:39:50Z</time></trkpt><trkpt lat="41.217464393094545" lon="9.241422803223148"><ele>53.0</ele><time>2026-05-02T08:39:51Z</time></trkpt><trkpt lat="41.21755405489528" lon="9.241376492166676"><ele>53.0</ele><time>2026-05-02T08:39:52Z</time></trkpt><trkpt lat="41.217651001717414" lon="9.241340984343745"><ele>53.0</ele><time>2026-05-02T08:39:53Z</time></trkpt><trkpt lat="41.217752281735805" lon="9.241326114327222"><ele>53.0</ele><time>2026-05-02T08:39:54Z</time></trkpt><trkpt lat="41.21786123415228" lon="9.241313015845991"><ele>53.0</ele><time>2026-05-02T08:39:55Z</time></trkpt><trkpt lat="41.21797310539821" lon="9.241291203637688"><ele>53.0</ele><time>2026-05-02T08:39:56Z</time></trkpt><trkpt lat="41.21808316055868" lon="9.241259365273843"><ele>53.0</ele><time>2026-05-02T08:39:57Z</time></trkpt><trkpt lat="41.2181961414233" lon="9.241225353974276"><ele>52.25</ele><time>2026-05-02T08:39:58Z</time></trkpt><trkpt lat="41.21830904506179" lon="9.241178340838344"><ele>51.5</ele><time>2026-05-02T08:39:59Z</time></trkpt><trkpt lat="41.21842839191809" lon="9.241101876538222"><ele>50.75</ele><time>2026-05-02T08:40:00Z</time></trkpt><trkpt lat="41.2185454297471" lon="9.240989053291809"><ele>50.0</ele><time>2026-05-02T08:40:01Z</time></trkpt><trkpt lat="41.21866983255647" lon="9.24085590430698"><ele>50.0</ele><time>2026-05-02T08:40:02Z</time></trkpt><trkpt lat="41.21880268279088" lon="9.240707213316378"><ele>50.0</ele><time>2026-05-02T08:40:03Z</time></trkpt><trkpt lat="41.21896907411166" lon="9.240524997581742"><ele>50.0</ele><time>2026-05-02T08:40:04Z</time></trkpt><trkpt lat="41.21911212767686" lon="9.240378292233348"><ele>50.333333333333336</ele><time>2026-05-02T08:40:05Z</time></trkpt><trkpt lat="41.21930032209406" lon="9.240222843993449"><ele>50.66666666666667</ele><time>2026-05-02T08:40:06Z</time></trkpt><trkpt lat="41.2194878012498" lon="9.240063658767824"><ele>51.0</ele><time>2026-05-02T08:40:07Z</time></trkpt><trkpt lat="41.21965074581963" lon="9.23988959167802"><ele>50.33333333333333</ele><time>2026-05-02T08:40:08Z</time></trkpt><trkpt lat="41.219803836316004" lon="9.239721658505081"><ele>49.666666666666664</ele><time>2026-05-02T08:40:09Z</time></trkpt><trkpt lat="41.21995885324183" lon="9.239551847679039"><ele>49.0</ele><time>2026-05-02T08:40:10Z</time></trkpt><trkpt lat="41.22010654698307" lon="9.239363956508054"><ele>49.0</ele><time>2026-05-02T08:40:11Z</time></trkpt><trkpt lat="41.22025282667038" lon="9.239164502420614"><ele>49.0</ele><time>2026-05-02T08:40:12Z</time></trkpt><trkpt lat="41.22040458587465" lon="9.23895191395244"><ele>49.0</ele><time>2026-05-02T08:40:13Z</time></trkpt><trkpt lat="41.22055965406378" lon="9.238737490612436"><ele>47.0</ele><time>2026-05-02T08:40:14Z</time></trkpt><trkpt lat="41.220713385823935" lon="9.238516762142226"><ele>45.0</ele><time>2026-05-02T08:40:15Z</time></trkpt><trkpt lat="41.22086887248029" lon="9.238286474500148"><ele>47.5</ele><time>2026-05-02T08:40:16Z</time></trkpt><trkpt lat="41.221034062039884" lon="9.238061424315752"><ele>50.0</ele><time>2026-05-02T08:40:17Z</time></trkpt><trkpt lat="41.221206688701976" lon="9.237827140932662"><ele>50.0</ele><time>2026-05-02T08:40:18Z</time></trkpt><trkpt lat="41.22137908549676" lon="9.237596626720157"><ele>50.0</ele><time>2026-05-02T08:40:19Z</time></trkpt><trkpt lat="41.22155364220527" lon="9.237356573611248"><ele>49.0</ele><time>2026-05-02T08:40:20Z</time></trkpt><trkpt lat="41.2217333383242" lon="9.237111853251037"><ele>48.0</ele><time>2026-05-02T08:40:21Z</time></trkpt><trkpt lat="41.22191770502698" lon="9.236865592671748"><ele>48.0</ele><time>2026-05-02T08:40:22Z</time></trkpt><trkpt lat="41.222098504325594" lon="9.236618777150575"><ele>48.0</ele><time>2026-05-02T08:40:23Z</time></trkpt><trkpt lat="41.22227985873893" lon="9.236370336354915"><ele>48.0</ele><time>2026-05-02T08:40:24Z</time></trkpt><trkpt lat="41.222461577238874" lon="9.23612191410713"><ele>48.0</ele><time>2026-05-02T08:40:25Z</time></trkpt><trkpt lat="41.22264365878977" lon="9.235871269663852"><ele>49.5</ele><time>2026-05-02T08:40:26Z</time></trkpt><trkpt lat="41.222826021366835" lon="9.235621912471185"><ele>51.0</ele><time>2026-05-02T08:40:27Z</time></trkpt><trkpt lat="41.22300869062408" lon="9.235375588559236"><ele>48.5</ele><time>2026-05-02T08:40:28Z</time></trkpt><trkpt lat="41.22318743672325" lon="9.235131092119586"><ele>46.0</ele><time>2026-05-02T08:40:29Z</time></trkpt><trkpt lat="41.22335640540852" lon="9.23489188335914"><ele>46.5</ele><time>2026-05-02T08:40:30Z</time></trkpt><trkpt lat="41.22352008840753" lon="9.234656382324912"><ele>47.0</ele><time>2026-05-02T08:40:31Z</time></trkpt><trkpt lat="41.22367677349493" lon="9.234429320594998"><ele>47.0</ele><time>2026-05-02T08:40:32Z</time></trkpt><trkpt lat="41.22382684736606" lon="9.234209626248663"><ele>47.0</ele><time>2026-05-02T08:40:33Z</time></trkpt><trkpt lat="41.22396447074581" lon="9.234012252998344"><ele>47.0</ele><time>2026-05-02T08:40:34Z</time></trkpt><trkpt lat="41.224092789001176" lon="9.233822804249003"><ele>47.33333333333333</ele><time>2026-05-02T08:40:35Z</time></trkpt><trkpt lat="41.22421582515604" lon="9.2336445848622"><ele>47.666666666666664</ele><time>2026-05-02T08:40:36Z</time></trkpt><trkpt lat="41.224335075792084" lon="9.233474668828363"><ele>48.0</ele><time>2026-05-02T08:40:37Z</time></trkpt><trkpt lat="41.22443298479201" lon="9.23329659089512"><ele>48.0</ele><time>2026-05-02T08:40:38Z</time></trkpt><trkpt lat="41.22449440267415" lon="9.233093652802767"><ele>48.0</ele><time>2026-05-02T08:40:39Z</time></trkpt><trkpt lat="41.22448805158342" lon="9.23288088755806"><ele>48.0</ele><time>2026-05-02T08:40:40Z</time></trkpt><trkpt lat="41.22443141879372" lon="9.232654192052662"><ele>48.0</ele><time>2026-05-02T08:40:41Z</time></trkpt><trkpt lat="41.224362525819636" lon="9.232410781867832"><ele>48.0</ele><time>2026-05-02T08:40:42Z</time></trkpt><trkpt lat="41.224305571038926" lon="9.232152896573117"><ele>48.0</ele><time>2026-05-02T08:40:43Z</time></trkpt><trkpt lat="41.22426002586292" lon="9.231883459536164"><ele>48.0</ele><time>2026-05-02T08:40:44Z</time></trkpt><trkpt lat="41.22421941783379" lon="9.231620981897105"><ele>48.0</ele><time>2026-05-02T08:40:45Z</time></trkpt><trkpt lat="41.22419845181798" lon="9.231370868605962"><ele>48.0</ele><time>2026-05-02T08:40:46Z</time></trkpt><trkpt lat="41.224227433606146" lon="9.231112202778988"><ele>49.33333333333333</ele><time>2026-05-02T08:40:47Z</time></trkpt><trkpt lat="41.224308097224096" lon="9.23086505628262"><ele>50.666666666666664</ele><time>2026-05-02T08:40:48Z</time></trkpt><trkpt lat="41.224440472772066" lon="9.230624368753546"><ele>52.0</ele><time>2026-05-02T08:40:49Z</time></trkpt><trkpt lat="41.224601696132645" lon="9.230367502399835"><ele>51.0</ele><time>2026-05-02T08:40:50Z</time></trkpt><trkpt lat="41.224767452642375" lon="9.230109731453584"><ele>50.0</ele><time>2026-05-02T08:40:51Z</time></trkpt><trkpt lat="41.224913209696346" lon="9.22984635916724"><ele>52.333333333333336</ele><time>2026-05-02T08:40:52Z</time></trkpt><trkpt lat="41.22504574905741" lon="9.229611799725108"><ele>54.66666666666667</ele><time>2026-05-02T08:40:53Z</time></trkpt><trkpt lat="41.225171992525496" lon="9.22939972166056"><ele>57.0</ele><time>2026-05-02T08:40:54Z</time></trkpt><trkpt lat="41.22527729419985" lon="9.22919208770063"><ele>57.0</ele><time>2026-05-02T08:40:55Z</time></trkpt><trkpt lat="41.22534983493869" lon="9.228980052786403"><ele>57.0</ele><time>2026-05-02T08:40:56Z</time></trkpt><trkpt lat="41.225359024342914" lon="9.228746449834214"><ele>57.0</ele><time>2026-05-02T08:40:57Z</time></trkpt><trkpt lat="41.225327536320506" lon="9.228494541658353"><ele>57.0</ele><time>2026-05-02T08:40:58Z</time></trkpt><trkpt lat="41.22528233717264" lon="9.2282351954468"><ele>57.0</ele><time>2026-05-02T08:40:59Z</time></trkpt><trkpt lat="41.225259807834576" lon="9.227965055779343"><ele>57.0</ele><time>2026-05-02T08:41:00Z</time></trkpt><trkpt lat="41.22527790540768" lon="9.227678829384791"><ele>58.0</ele><time>2026-05-02T08:41:01Z</time></trkpt><trkpt lat="41.225345072475115" lon="9.22738080519497"><ele>59.0</ele><time>2026-05-02T08:41:02Z</time></trkpt><trkpt lat="41.22545055527429" lon="9.227102308006504"><ele>61.0</ele><time>2026-05-02T08:41:03Z</time></trkpt><trkpt lat="41.225559721115744" lon="9.226820937890635"><ele>63.0</ele><time>2026-05-02T08:41:04Z</time></trkpt><trkpt lat="41.22564919452106" lon="9.226538366094989"><ele>61.0</ele><time>2026-05-02T08:41:05Z</time></trkpt><trkpt lat="41.22573507220604" lon="9.226252508122956"><ele>59.0</ele><time>2026-05-02T08:41:06Z</time></trkpt><trkpt lat="41.225823474015726" lon="9.225976882814697"><ele>59.0</ele><time>2026-05-02T08:41:07Z</time></trkpt><trkpt lat="41.225909718011025" lon="9.22571025763072"><ele>59.0</ele><time>2026-05-02T08:41:08Z</time></trkpt><trkpt lat="41.22599443390097" lon="9.22545076133319"><ele>59.0</ele><time>2026-05-02T08:41:09Z</time></trkpt><trkpt lat="41.22607493124375" lon="9.225195349739403"><ele>60.333333333333336</ele><time>2026-05-02T08:41:10Z</time></trkpt><trkpt lat="41.22615606586539" lon="9.224929724524054"><ele>61.66666666666667</ele><time>2026-05-02T08:41:11Z</time></trkpt><trkpt lat="41.22624214973659" lon="9.224673902617647"><ele>63.0</ele><time>2026-05-02T08:41:12Z</time></trkpt><trkpt lat="41.226326400519106" lon="9.224415632040067"><ele>62.66666666666667</ele><time>2026-05-02T08:41:13Z</time></trkpt><trkpt lat="41.22641113823713" lon="9.224151420538329"><ele>62.333333333333336</ele><time>2026-05-02T08:41:14Z</time></trkpt><trkpt lat="41.22649376307973" lon="9.223881362445072"><ele>62.0</ele><time>2026-05-02T08:41:15Z</time></trkpt><trkpt lat="41.22656301899434" lon="9.223617000211018"><ele>62.0</ele><time>2026-05-02T08:41:16Z</time></trkpt><trkpt lat="41.22661123756507" lon="9.223344936298195"><ele>62.0</ele><time>2026-05-02T08:41:17Z</time></trkpt><trkpt lat="41.226641872641075" lon="9.223075735869156"><ele>62.0</ele><time>2026-05-02T08:41:18Z</time></trkpt><trkpt lat="41.226671488105794" lon="9.222804440791688"><ele>62.66666666666667</ele><time>2026-05-02T08:41:19Z</time></trkpt><trkpt lat="41.22668658762088" lon="9.222526332047034"><ele>63.33333333333333</ele><time>2026-05-02T08:41:20Z</time></trkpt><trkpt lat="41.22667618798095" lon="9.222244270585508"><ele>64.0</ele><time>2026-05-02T08:41:21Z</time></trkpt><trkpt lat="41.22665111041816" lon="9.221949258091659"><ele>64.0</ele><time>2026-05-02T08:41:22Z</time></trkpt><trkpt lat="41.22662385664931" lon="9.221654715132331"><ele>64.0</ele><time>2026-05-02T08:41:22.999Z</time></trkpt><trkpt lat="41.22659137030586" lon="9.22135471635355"><ele>66.0</ele><time>2026-05-02T08:41:23.999Z</time></trkpt><trkpt lat="41.22656539863078" lon="9.221049590362753"><ele>68.0</ele><time>2026-05-02T08:41:24.999Z</time></trkpt><trkpt lat="41.226544356189635" lon="9.220731346650659"><ele>69.5</ele><time>2026-05-02T08:41:25.999Z</time></trkpt><trkpt lat="41.22652242983665" lon="9.220419973984978"><ele>71.0</ele><time>2026-05-02T08:41:26.999Z</time></trkpt><trkpt lat="41.22649794845498" lon="9.220105624333451"><ele>73.5</ele><time>2026-05-02T08:41:27.999Z</time></trkpt><trkpt lat="41.226471371845356" lon="9.219788726895313"><ele>76.0</ele><time>2026-05-02T08:41:28.999Z</time></trkpt><trkpt lat="41.22644681451931" lon="9.219477604459136"><ele>76.0</ele><time>2026-05-02T08:41:29.999Z</time></trkpt><trkpt lat="41.22642573742025" lon="9.219165039818066"><ele>76.0</ele><time>2026-05-02T08:41:31Z</time></trkpt><trkpt lat="41.22641490906033" lon="9.218848222903059"><ele>77.0</ele><time>2026-05-02T08:41:32Z</time></trkpt><trkpt lat="41.22641909188171" lon="9.218541739982454"><ele>78.0</ele><time>2026-05-02T08:41:33Z</time></trkpt><trkpt lat="41.22642342849409" lon="9.218249628284948"><ele>78.66666666666667</ele><time>2026-05-02T08:41:34Z</time></trkpt><trkpt lat="41.226427452429846" lon="9.217979183826555"><ele>79.33333333333334</ele><time>2026-05-02T08:41:35Z</time></trkpt><trkpt lat="41.22642930491519" lon="9.21772318477077"><ele>80.0</ele><time>2026-05-02T08:41:36Z</time></trkpt><trkpt lat="41.226434005065045" lon="9.217489504055555"><ele>80.0</ele><time>2026-05-02T08:41:37Z</time></trkpt><trkpt lat="41.22643975517615" lon="9.217252175900786"><ele>80.0</ele><time>2026-05-02T08:41:38Z</time></trkpt><trkpt lat="41.22644514377477" lon="9.216995899040326"><ele>80.0</ele><time>2026-05-02T08:41:39Z</time></trkpt><trkpt lat="41.226452989186186" lon="9.216718538675883"><ele>81.0</ele><time>2026-05-02T08:41:40Z</time></trkpt><trkpt lat="41.22646460129436" lon="9.21642397883574"><ele>82.0</ele><time>2026-05-02T08:41:41Z</time></trkpt><trkpt lat="41.2264950242926" lon="9.216133783773826"><ele>83.0</ele><time>2026-05-02T08:41:42Z</time></trkpt><trkpt lat="41.226544784651466" lon="9.215837934667787"><ele>79.5</ele><time>2026-05-02T08:41:43Z</time></trkpt><trkpt lat="41.226602908806754" lon="9.215535700644704"><ele>76.0</ele><time>2026-05-02T08:41:44Z</time></trkpt><trkpt lat="41.22665421768687" lon="9.215224922750728"><ele>76.0</ele><time>2026-05-02T08:41:45Z</time></trkpt><trkpt lat="41.22669544999141" lon="9.214912769656143"><ele>76.0</ele><time>2026-05-02T08:41:46Z</time></trkpt><trkpt lat="41.22673146791427" lon="9.2146034131983"><ele>78.0</ele><time>2026-05-02T08:41:47Z</time></trkpt><trkpt lat="41.22677435199938" lon="9.214286599638845"><ele>80.0</ele><time>2026-05-02T08:41:48Z</time></trkpt><trkpt lat="41.226811974096016" lon="9.2139695566706"><ele>81.0</ele><time>2026-05-02T08:41:49Z</time></trkpt><trkpt lat="41.22685406973796" lon="9.213664324869363"><ele>82.0</ele><time>2026-05-02T08:41:50Z</time></trkpt><trkpt lat="41.22689428795919" lon="9.213361741483137"><ele>84.0</ele><time>2026-05-02T08:41:51Z</time></trkpt><trkpt lat="41.22693566938712" lon="9.213064499808214"><ele>86.0</ele><time>2026-05-02T08:41:52Z</time></trkpt><trkpt lat="41.2269786379956" lon="9.212759606942328"><ele>86.0</ele><time>2026-05-02T08:41:53Z</time></trkpt><trkpt lat="41.22700559920854" lon="9.212446809496843"><ele>86.0</ele><time>2026-05-02T08:41:54Z</time></trkpt><trkpt lat="41.22701268017813" lon="9.212127195350083"><ele>86.0</ele><time>2026-05-02T08:41:55Z</time></trkpt><trkpt lat="41.22700334044275" lon="9.2118129366287"><ele>86.0</ele><time>2026-05-02T08:41:56Z</time></trkpt><trkpt lat="41.22695549855414" lon="9.211501085488251"><ele>86.5</ele><time>2026-05-02T08:41:57Z</time></trkpt><trkpt lat="41.22686123822778" lon="9.211193217843169"><ele>87.0</ele><time>2026-05-02T08:41:58Z</time></trkpt><trkpt lat="41.226742934241145" lon="9.210900096950908"><ele>87.5</ele><time>2026-05-02T08:41:59Z</time></trkpt><trkpt lat="41.22662757610273" lon="9.210604294740781"><ele>88.0</ele><time>2026-05-02T08:42:00Z</time></trkpt><trkpt lat="41.22650981785902" lon="9.210309105292454"><ele>88.5</ele><time>2026-05-02T08:42:01Z</time></trkpt><trkpt lat="41.2263985440599" lon="9.21000897834246"><ele>89.0</ele><time>2026-05-02T08:42:02Z</time></trkpt><trkpt lat="41.226294636593536" lon="9.209707106616191"><ele>88.0</ele><time>2026-05-02T08:42:03Z</time></trkpt><trkpt lat="41.22619428084711" lon="9.209405424837644"><ele>87.0</ele><time>2026-05-02T08:42:04Z</time></trkpt><trkpt lat="41.22609464735623" lon="9.20910651055769"><ele>87.0</ele><time>2026-05-02T08:42:05Z</time></trkpt><trkpt lat="41.22598627516441" lon="9.208809131880667"><ele>87.0</ele><time>2026-05-02T08:42:06Z</time></trkpt><trkpt lat="41.2258531355678" lon="9.208528302337688"><ele>87.0</ele><time>2026-05-02T08:42:07Z</time></trkpt><trkpt lat="41.22567721928967" lon="9.208278796110495"><ele>87.0</ele><time>2026-05-02T08:42:08Z</time></trkpt><trkpt lat="41.225484844127735" lon="9.208057962355028"><ele>84.5</ele><time>2026-05-02T08:42:09Z</time></trkpt><trkpt lat="41.225298728316034" lon="9.207842088017369"><ele>82.0</ele><time>2026-05-02T08:42:10Z</time></trkpt><trkpt lat="41.225123903310035" lon="9.207627816964475"><ele>82.0</ele><time>2026-05-02T08:42:11Z</time></trkpt><trkpt lat="41.22495149891945" lon="9.207425809657071"><ele>82.0</ele><time>2026-05-02T08:42:12Z</time></trkpt><trkpt lat="41.22476621677558" lon="9.207261199038161"><ele>81.5</ele><time>2026-05-02T08:42:13Z</time></trkpt><trkpt lat="41.22455838503601" lon="9.207141842421228"><ele>81.0</ele><time>2026-05-02T08:42:14Z</time></trkpt><trkpt lat="41.224333825250184" lon="9.207043612284115"><ele>81.0</ele><time>2026-05-02T08:42:15Z</time></trkpt><trkpt lat="41.22410531277955" lon="9.206954304869182"><ele>81.0</ele><time>2026-05-02T08:42:16Z</time></trkpt><trkpt lat="41.223885074357774" lon="9.206848742233655"><ele>81.5</ele><time>2026-05-02T08:42:17Z</time></trkpt><trkpt lat="41.22365517938875" lon="9.206752368330458"><ele>82.0</ele><time>2026-05-02T08:42:18Z</time></trkpt><trkpt lat="41.22343116541224" lon="9.206652517430582"><ele>82.0</ele><time>2026-05-02T08:42:19Z</time></trkpt><trkpt lat="41.22320712083318" lon="9.20654574673544"><ele>82.0</ele><time>2026-05-02T08:42:20Z</time></trkpt><trkpt lat="41.22298902293438" lon="9.206439834396223"><ele>81.66666666666666</ele><time>2026-05-02T08:42:21Z</time></trkpt><trkpt lat="41.22278164464789" lon="9.206339478930614"><ele>81.33333333333333</ele><time>2026-05-02T08:42:22Z</time></trkpt><trkpt lat="41.2225919514109" lon="9.206227454565807"><ele>81.0</ele><time>2026-05-02T08:42:23Z</time></trkpt><trkpt lat="41.22242133141091" lon="9.206069752811995"><ele>81.5</ele><time>2026-05-02T08:42:24Z</time></trkpt><trkpt lat="41.22227176387024" lon="9.205848710061655"><ele>82.0</ele><time>2026-05-02T08:42:25Z</time></trkpt><trkpt lat="41.222142349622985" lon="9.205570475532312"><ele>82.0</ele><time>2026-05-02T08:42:26Z</time></trkpt><trkpt lat="41.222013303641646" lon="9.205291124464722"><ele>82.0</ele><time>2026-05-02T08:42:27Z</time></trkpt><trkpt lat="41.221873229828255" lon="9.205018462591532"><ele>81.5</ele><time>2026-05-02T08:42:28Z</time></trkpt><trkpt lat="41.22172412468705" lon="9.204746115409932"><ele>81.0</ele><time>2026-05-02T08:42:29Z</time></trkpt><trkpt lat="41.22157938087516" lon="9.204481436322142"><ele>81.5</ele><time>2026-05-02T08:42:30Z</time></trkpt><trkpt lat="41.221445036530355" lon="9.204212114753734"><ele>82.0</ele><time>2026-05-02T08:42:31Z</time></trkpt><trkpt lat="41.22133793236971" lon="9.20391924165525"><ele>82.0</ele><time>2026-05-02T08:42:32Z</time></trkpt><trkpt lat="41.221288313465884" lon="9.203603781867482"><ele>82.0</ele><time>2026-05-02T08:42:33Z</time></trkpt><trkpt lat="41.22126613872494" lon="9.203274331559898"><ele>81.33333333333333</ele><time>2026-05-02T08:42:34Z</time></trkpt><trkpt lat="41.22126729472399" lon="9.202969971462258"><ele>80.66666666666667</ele><time>2026-05-02T08:42:35Z</time></trkpt><trkpt lat="41.22125933955782" lon="9.202684405044193"><ele>80.0</ele><time>2026-05-02T08:42:36Z</time></trkpt><trkpt lat="41.22125362392317" lon="9.20243555792585"><ele>79.0</ele><time>2026-05-02T08:42:37Z</time></trkpt><trkpt lat="41.22128089807992" lon="9.202222282933231"><ele>78.0</ele><time>2026-05-02T08:42:38Z</time></trkpt><trkpt lat="41.22137225682644" lon="9.202048572164871"><ele>77.0</ele><time>2026-05-02T08:42:39Z</time></trkpt><trkpt lat="41.22148399539091" lon="9.201897671833528"><ele>75.75</ele><time>2026-05-02T08:42:40Z</time></trkpt><trkpt lat="41.22155598562076" lon="9.201732081434342"><ele>74.5</ele><time>2026-05-02T08:42:41Z</time></trkpt><trkpt lat="41.221565793820034" lon="9.201539371967058"><ele>73.25</ele><time>2026-05-02T08:42:42Z</time></trkpt><trkpt lat="41.22151714950368" lon="9.201348889316957"><ele>72.0</ele><time>2026-05-02T08:42:43Z</time></trkpt><trkpt lat="41.22142827541572" lon="9.201162193532266"><ele>72.0</ele><time>2026-05-02T08:42:44Z</time></trkpt><trkpt lat="41.22127812943914" lon="9.201003702363545"><ele>72.0</ele><time>2026-05-02T08:42:45Z</time></trkpt><trkpt lat="41.22112041191948" lon="9.200841424903668"><ele>72.0</ele><time>2026-05-02T08:42:46Z</time></trkpt><trkpt lat="41.22095040662857" lon="9.200689099121096"><ele>73.0</ele><time>2026-05-02T08:42:47Z</time></trkpt><trkpt lat="41.220781530761975" lon="9.200543228872048"><ele>74.0</ele><time>2026-05-02T08:42:48Z</time></trkpt><trkpt lat="41.22063658255704" lon="9.200392842159637"><ele>75.0</ele><time>2026-05-02T08:42:49Z</time></trkpt><trkpt lat="41.22052406257871" lon="9.200207931350333"><ele>75.0</ele><time>2026-05-02T08:42:50Z</time></trkpt><trkpt lat="41.22048866221922" lon="9.199983796250054"><ele>75.0</ele><time>2026-05-02T08:42:51Z</time></trkpt><trkpt lat="41.22051999928564" lon="9.199722000138022"><ele>75.0</ele><time>2026-05-02T08:42:52Z</time></trkpt><trkpt lat="41.22055945661639" lon="9.199458952072007"><ele>74.0</ele><time>2026-05-02T08:42:53Z</time></trkpt><trkpt lat="41.22057042141048" lon="9.199199650013844"><ele>73.0</ele><time>2026-05-02T08:42:54Z</time></trkpt><trkpt lat="41.220553978379186" lon="9.19895340406803"><ele>72.0</ele><time>2026-05-02T08:42:55Z</time></trkpt><trkpt lat="41.220497545548895" lon="9.198706317929242"><ele>70.33333333333333</ele><time>2026-05-02T08:42:56Z</time></trkpt><trkpt lat="41.220410710955825" lon="9.198459362243351"><ele>68.66666666666666</ele><time>2026-05-02T08:42:57Z</time></trkpt><trkpt lat="41.22032811197767" lon="9.198216658038822"><ele>67.0</ele><time>2026-05-02T08:42:58Z</time></trkpt><trkpt lat="41.22026436023048" lon="9.197971996420703"><ele>65.33333333333333</ele><time>2026-05-02T08:42:59Z</time></trkpt><trkpt lat="41.220211778260875" lon="9.197715027574667"><ele>63.66666666666667</ele><time>2026-05-02T08:43:00Z</time></trkpt><trkpt lat="41.220178424680206" lon="9.197436723957987"><ele>62.0</ele><time>2026-05-02T08:43:01Z</time></trkpt><trkpt lat="41.220159955901664" lon="9.197147603886657"><ele>60.0</ele><time>2026-05-02T08:43:02Z</time></trkpt><trkpt lat="41.220132695099146" lon="9.196867916652051"><ele>58.0</ele><time>2026-05-02T08:43:03Z</time></trkpt><trkpt lat="41.22010228601735" lon="9.196611484835028"><ele>56.0</ele><time>2026-05-02T08:43:04Z</time></trkpt><trkpt lat="41.22007012345303" lon="9.196358941918254"><ele>54.66666666666667</ele><time>2026-05-02T08:43:05Z</time></trkpt><trkpt lat="41.220044710879556" lon="9.196108897905576"><ele>53.33333333333333</ele><time>2026-05-02T08:43:06Z</time></trkpt><trkpt lat="41.22002455047115" lon="9.195864999808602"><ele>52.0</ele><time>2026-05-02T08:43:07Z</time></trkpt><trkpt lat="41.22001905894531" lon="9.19562821554413"><ele>51.33333333333333</ele><time>2026-05-02T08:43:08Z</time></trkpt><trkpt lat="41.22003576789117" lon="9.195391217080605"><ele>50.66666666666667</ele><time>2026-05-02T08:43:09Z</time></trkpt><trkpt lat="41.220073021841124" lon="9.195153616077958"><ele>50.0</ele><time>2026-05-02T08:43:10Z</time></trkpt><trkpt lat="41.22013682995014" lon="9.194910619565743"><ele>49.333333333333336</ele><time>2026-05-02T08:43:11Z</time></trkpt><trkpt lat="41.220227500479815" lon="9.194668330022317"><ele>48.66666666666667</ele><time>2026-05-02T08:43:12Z</time></trkpt><trkpt lat="41.22033006520029" lon="9.194424778806757"><ele>48.0</ele><time>2026-05-02T08:43:13Z</time></trkpt><trkpt lat="41.220426054785136" lon="9.194166607397904"><ele>48.0</ele><time>2026-05-02T08:43:14Z</time></trkpt><trkpt lat="41.220512989641975" lon="9.193896839695814"><ele>48.0</ele><time>2026-05-02T08:43:15Z</time></trkpt><trkpt lat="41.220598427267774" lon="9.193636696216627"><ele>48.0</ele><time>2026-05-02T08:43:16Z</time></trkpt><trkpt lat="41.22068722914675" lon="9.19337527299122"><ele>47.666666666666664</ele><time>2026-05-02T08:43:17Z</time></trkpt><trkpt lat="41.22077568147866" lon="9.193111686215866"><ele>47.33333333333333</ele><time>2026-05-02T08:43:18Z</time></trkpt><trkpt lat="41.22086716204553" lon="9.192840912680301"><ele>47.0</ele><time>2026-05-02T08:43:19Z</time></trkpt><trkpt lat="41.22095460505812" lon="9.192574851324014"><ele>46.33333333333333</ele><time>2026-05-02T08:43:20Z</time></trkpt><trkpt lat="41.22104056176587" lon="9.192310437925933"><ele>45.666666666666664</ele><time>2026-05-02T08:43:21Z</time></trkpt><trkpt lat="41.22113130244968" lon="9.192041351508912"><ele>45.0</ele><time>2026-05-02T08:43:22Z</time></trkpt><trkpt lat="41.22122393288007" lon="9.191773580499781"><ele>45.0</ele><time>2026-05-02T08:43:23Z</time></trkpt><trkpt lat="41.221316597235436" lon="9.191508072405295"><ele>45.0</ele><time>2026-05-02T08:43:24Z</time></trkpt><trkpt lat="41.22141612807837" lon="9.191237291907722"><ele>45.0</ele><time>2026-05-02T08:43:25Z</time></trkpt><trkpt lat="41.22152837147307" lon="9.19097625509735"><ele>45.5</ele><time>2026-05-02T08:43:26Z</time></trkpt><trkpt lat="41.221659657482896" lon="9.190730181153885"><ele>46.0</ele><time>2026-05-02T08:43:27Z</time></trkpt><trkpt lat="41.2217959619307" lon="9.190491712626837"><ele>44.5</ele><time>2026-05-02T08:43:28Z</time></trkpt><trkpt lat="41.22193180420379" lon="9.190249628344548"><ele>43.0</ele><time>2026-05-02T08:43:29Z</time></trkpt><trkpt lat="41.22206997584169" lon="9.190013268597966"><ele>42.333333333333336</ele><time>2026-05-02T08:43:30Z</time></trkpt><trkpt lat="41.22220766471958" lon="9.189774437416283"><ele>41.666666666666664</ele><time>2026-05-02T08:43:31Z</time></trkpt><trkpt lat="41.222342091879284" lon="9.189542547123875"><ele>41.0</ele><time>2026-05-02T08:43:32Z</time></trkpt><trkpt lat="41.22246191726798" lon="9.189322991615368"><ele>40.33333333333333</ele><time>2026-05-02T08:43:33Z</time></trkpt><trkpt lat="41.22258102571966" lon="9.189120836070474"><ele>39.666666666666664</ele><time>2026-05-02T08:43:34Z</time></trkpt><trkpt lat="41.22268250895468" lon="9.188951626311328"><ele>39.0</ele><time>2026-05-02T08:43:35Z</time></trkpt><trkpt lat="41.22278946567952" lon="9.188822522623664"><ele>39.0</ele><time>2026-05-02T08:43:36Z</time></trkpt><trkpt lat="41.22292896583313" lon="9.188756791103858"><ele>39.0</ele><time>2026-05-02T08:43:37Z</time></trkpt><trkpt lat="41.2230905546726" lon="9.188768149812423"><ele>39.0</ele><time>2026-05-02T08:43:38Z</time></trkpt><trkpt lat="41.22326209802164" lon="9.18882395306073"><ele>38.666666666666664</ele><time>2026-05-02T08:43:39Z</time></trkpt><trkpt lat="41.223435171886656" lon="9.188899282114376"><ele>38.33333333333333</ele><time>2026-05-02T08:43:40Z</time></trkpt><trkpt lat="41.22361558738326" lon="9.1889713317495"><ele>38.0</ele><time>2026-05-02T08:43:41Z</time></trkpt><trkpt lat="41.223794662169986" lon="9.189040630667016"><ele>37.0</ele><time>2026-05-02T08:43:42Z</time></trkpt><trkpt lat="41.22395900645941" lon="9.189106343252055"><ele>36.0</ele><time>2026-05-02T08:43:43Z</time></trkpt><trkpt lat="41.224109778527605" lon="9.189169401475567"><ele>35.0</ele><time>2026-05-02T08:43:44Z</time></trkpt><trkpt lat="41.22424715681297" lon="9.189229972502552"><ele>34.33333333333333</ele><time>2026-05-02T08:43:45Z</time></trkpt><trkpt lat="41.224383081637946" lon="9.189284435483644"><ele>33.666666666666664</ele><time>2026-05-02T08:43:46Z</time></trkpt><trkpt lat="41.22452526235554" lon="9.189346193854613"><ele>33.0</ele><time>2026-05-02T08:43:47Z</time></trkpt><trkpt lat="41.22467728719508" lon="9.189408590800367"><ele>33.0</ele><time>2026-05-02T08:43:48Z</time></trkpt><trkpt lat="41.224837451820456" lon="9.189469183399309"><ele>33.0</ele><time>2026-05-02T08:43:49Z</time></trkpt><trkpt lat="41.225001601525996" lon="9.189537111526043"><ele>33.0</ele><time>2026-05-02T08:43:50Z</time></trkpt><trkpt lat="41.22517147199097" lon="9.189603547408296"><ele>33.0</ele><time>2026-05-02T08:43:51Z</time></trkpt><trkpt lat="41.22533945393824" lon="9.189674318742684"><ele>33.0</ele><time>2026-05-02T08:43:52Z</time></trkpt><trkpt lat="41.22549105184493" lon="9.18974326268346"><ele>33.0</ele><time>2026-05-02T08:43:53Z</time></trkpt><trkpt lat="41.2256383325236" lon="9.189806192942932"><ele>34.0</ele><time>2026-05-02T08:43:54Z</time></trkpt><trkpt lat="41.22577760323881" lon="9.189866715289234"><ele>35.0</ele><time>2026-05-02T08:43:55Z</time></trkpt><trkpt lat="41.22591476381844" lon="9.189924751058937"><ele>36.0</ele><time>2026-05-02T08:43:56Z</time></trkpt><trkpt lat="41.226048040277846" lon="9.189988586337465"><ele>37.0</ele><time>2026-05-02T08:43:57Z</time></trkpt><trkpt lat="41.226180017753556" lon="9.190054785583769"><ele>37.0</ele><time>2026-05-02T08:43:58Z</time></trkpt><trkpt lat="41.226314766010574" lon="9.190089215971538"><ele>37.0</ele><time>2026-05-02T08:43:59Z</time></trkpt><trkpt lat="41.22645314889702" lon="9.190089377792386"><ele>37.0</ele><time>2026-05-02T08:44:00Z</time></trkpt><trkpt lat="41.226589206992756" lon="9.190048630269718"><ele>37.0</ele><time>2026-05-02T08:44:01Z</time></trkpt><trkpt lat="41.22672375939702" lon="9.189980146033747"><ele>38.25</ele><time>2026-05-02T08:44:02Z</time></trkpt><trkpt lat="41.226853122530834" lon="9.18988992863892"><ele>39.5</ele><time>2026-05-02T08:44:03Z</time></trkpt><trkpt lat="41.22697302113073" lon="9.189778220237319"><ele>40.75</ele><time>2026-05-02T08:44:04Z</time></trkpt><trkpt lat="41.22707703566618" lon="9.189644537292219"><ele>42.0</ele><time>2026-05-02T08:44:05Z</time></trkpt><trkpt lat="41.227174956008334" lon="9.189491196941127"><ele>41.666666666666664</ele><time>2026-05-02T08:44:06Z</time></trkpt><trkpt lat="41.22727492949625" lon="9.189324002932231"><ele>41.33333333333333</ele><time>2026-05-02T08:44:07Z</time></trkpt><trkpt lat="41.2273795120597" lon="9.189139826688614"><ele>41.0</ele><time>2026-05-02T08:44:08Z</time></trkpt><trkpt lat="41.227487783989766" lon="9.188943267737983"><ele>42.0</ele><time>2026-05-02T08:44:09Z</time></trkpt><trkpt lat="41.22759799437622" lon="9.188740147045156"><ele>43.0</ele><time>2026-05-02T08:44:10Z</time></trkpt><trkpt lat="41.22771468307365" lon="9.18852490811099"><ele>44.0</ele><time>2026-05-02T08:44:11Z</time></trkpt><trkpt lat="41.22784446887744" lon="9.188314175066926"><ele>44.33333333333333</ele><time>2026-05-02T08:44:12Z</time></trkpt><trkpt lat="41.227975937275424" lon="9.188114309959476"><ele>44.666666666666664</ele><time>2026-05-02T08:44:13Z</time></trkpt><trkpt lat="41.228101448740446" lon="9.18790940707981"><ele>45.0</ele><time>2026-05-02T08:44:14Z</time></trkpt><trkpt lat="41.22821110590799" lon="9.187706851687281"><ele>44.0</ele><time>2026-05-02T08:44:15Z</time></trkpt><trkpt lat="41.22831846975774" lon="9.187505555173892"><ele>43.0</ele><time>2026-05-02T08:44:16Z</time></trkpt><trkpt lat="41.228435469569966" lon="9.187301246136702"><ele>42.0</ele><time>2026-05-02T08:44:17Z</time></trkpt><trkpt lat="41.22855618402503" lon="9.187094389189982"><ele>42.0</ele><time>2026-05-02T08:44:18Z</time></trkpt><trkpt lat="41.22867734001084" lon="9.186886537606124"><ele>42.0</ele><time>2026-05-02T08:44:19Z</time></trkpt><trkpt lat="41.22879219590173" lon="9.186680085603848"><ele>42.0</ele><time>2026-05-02T08:44:20Z</time></trkpt><trkpt lat="41.228912522825105" lon="9.186468696368106"><ele>39.666666666666664</ele><time>2026-05-02T08:44:21Z</time></trkpt><trkpt lat="41.22903753191782" lon="9.186257105855798"><ele>37.33333333333333</ele><time>2026-05-02T08:44:22Z</time></trkpt><trkpt lat="41.22914877654538" lon="9.186031418442184"><ele>35.0</ele><time>2026-05-02T08:44:23Z</time></trkpt><trkpt lat="41.22925982980393" lon="9.185824170435364"><ele>35.666666666666664</ele><time>2026-05-02T08:44:24Z</time></trkpt><trkpt lat="41.2293799864791" lon="9.185642173028628"><ele>36.333333333333336</ele><time>2026-05-02T08:44:25Z</time></trkpt><trkpt lat="41.229487745005606" lon="9.185462731049842"><ele>37.0</ele><time>2026-05-02T08:44:26Z</time></trkpt><trkpt lat="41.22956928612138" lon="9.185297786976436"><ele>37.0</ele><time>2026-05-02T08:44:27Z</time></trkpt><trkpt lat="41.22964155654336" lon="9.185161439203942"><ele>37.0</ele><time>2026-05-02T08:44:28Z</time></trkpt><trkpt lat="41.229708371915024" lon="9.185061897057182"><ele>37.0</ele><time>2026-05-02T08:44:29Z</time></trkpt><trkpt lat="41.22976757837394" lon="9.185000705208038"><ele>37.0</ele><time>2026-05-02T08:44:30Z</time></trkpt><trkpt lat="41.22983468426152" lon="9.184966593509793"><ele>37.0</ele><time>2026-05-02T08:44:31Z</time></trkpt><trkpt lat="41.229905295164734" lon="9.184947586661963"><ele>37.0</ele><time>2026-05-02T08:44:32Z</time></trkpt><trkpt lat="41.22999274661082" lon="9.18486124796305"><ele>37.16666666666667</ele><time>2026-05-02T08:44:34Z</time></trkpt><trkpt lat="41.22999022516908" lon="9.18470047694312"><ele>37.333333333333336</ele><time>2026-05-02T08:44:36Z</time></trkpt><trkpt lat="41.229930535392164" lon="9.184632465514865"><ele>37.5</ele><time>2026-05-02T08:44:37Z</time></trkpt><trkpt lat="41.229855284052924" lon="9.184578481121367"><ele>37.666666666666664</ele><time>2026-05-02T08:44:38Z</time></trkpt><trkpt lat="41.229775447634125" lon="9.184600090810022"><ele>37.83333333333333</ele><time>2026-05-02T08:44:39Z</time></trkpt><trkpt lat="41.22970185944734" lon="9.18465083425213"><ele>38.0</ele><time>2026-05-02T08:44:40Z</time></trkpt><trkpt lat="41.22960699169122" lon="9.184659005988552"><ele>38.0</ele><time>2026-05-02T08:44:41Z</time></trkpt><trkpt lat="41.22950573239007" lon="9.18461706078603"><ele>38.0</ele><time>2026-05-02T08:44:42Z</time></trkpt><trkpt lat="41.22939675514278" lon="9.184566092506003"><ele>38.0</ele><time>2026-05-02T08:44:43Z</time></trkpt><trkpt lat="41.229284450401984" lon="9.184530949817583"><ele>38.0</ele><time>2026-05-02T08:44:44Z</time></trkpt><trkpt lat="41.22916420323439" lon="9.184496147164355"><ele>38.0</ele><time>2026-05-02T08:44:45Z</time></trkpt><trkpt lat="41.22903993188334" lon="9.184450266839965"><ele>38.0</ele><time>2026-05-02T08:44:46Z</time></trkpt><trkpt lat="41.22891511263291" lon="9.184397055471768"><ele>38.0</ele><time>2026-05-02T08:44:47Z</time></trkpt><trkpt lat="41.22878856252063" lon="9.184355015425142"><ele>38.0</ele><time>2026-05-02T08:44:48Z</time></trkpt><trkpt lat="41.22865785725561" lon="9.184323566072356"><ele>39.25</ele><time>2026-05-02T08:44:49Z</time></trkpt><trkpt lat="41.22852995575763" lon="9.184272937298521"><ele>40.5</ele><time>2026-05-02T08:44:50Z</time></trkpt><trkpt lat="41.228394839007144" lon="9.184227801453146"><ele>41.75</ele><time>2026-05-02T08:44:51Z</time></trkpt><trkpt lat="41.22825443863887" lon="9.184179927406202"><ele>43.0</ele><time>2026-05-02T08:44:52Z</time></trkpt><trkpt lat="41.22810438918316" lon="9.184125792753958"><ele>43.75</ele><time>2026-05-02T08:44:53Z</time></trkpt><trkpt lat="41.22796753786368" lon="9.184075803438693"><ele>44.5</ele><time>2026-05-02T08:44:54Z</time></trkpt><trkpt lat="41.22783383441789" lon="9.184031701256185"><ele>45.25</ele><time>2026-05-02T08:44:55Z</time></trkpt><trkpt lat="41.2276785546699" lon="9.183984911704384"><ele>46.0</ele><time>2026-05-02T08:44:56Z</time></trkpt><trkpt lat="41.227491500258225" lon="9.183938467343657"><ele>46.5</ele><time>2026-05-02T08:44:57Z</time></trkpt><trkpt lat="41.227269299855855" lon="9.18387918200178"><ele>47.0</ele><time>2026-05-02T08:44:58Z</time></trkpt><trkpt lat="41.22701552051324" lon="9.18382782303531"><ele>47.0</ele><time>2026-05-02T08:44:59Z</time></trkpt><trkpt lat="41.226766147343724" lon="9.183774378994642"><ele>47.0</ele><time>2026-05-02T08:45:00Z</time></trkpt><trkpt lat="41.226547896591576" lon="9.183736992042704"><ele>46.5</ele><time>2026-05-02T08:45:01Z</time></trkpt><trkpt lat="41.22633307847301" lon="9.183675950644407"><ele>46.0</ele><time>2026-05-02T08:45:02Z</time></trkpt><trkpt lat="41.22608029448666" lon="9.183639118349163"><ele>46.0</ele><time>2026-05-02T08:45:03Z</time></trkpt><trkpt lat="41.2258125252484" lon="9.183575496965272"><ele>46.0</ele><time>2026-05-02T08:45:04Z</time></trkpt><trkpt lat="41.22555143199479" lon="9.183512535335673"><ele>46.66666666666667</ele><time>2026-05-02T08:45:05Z</time></trkpt><trkpt lat="41.22533391508824" lon="9.183465514721151"><ele>47.333333333333336</ele><time>2026-05-02T08:45:06Z</time></trkpt><trkpt lat="41.22512190350786" lon="9.18342121554504"><ele>48.0</ele><time>2026-05-02T08:45:07Z</time></trkpt><trkpt lat="41.22490349735859" lon="9.183385143806264"><ele>48.33333333333333</ele><time>2026-05-02T08:45:08Z</time></trkpt><trkpt lat="41.224678732089636" lon="9.18337919222034"><ele>48.666666666666664</ele><time>2026-05-02T08:45:09Z</time></trkpt><trkpt lat="41.22445563681523" lon="9.183369425368735"><ele>49.0</ele><time>2026-05-02T08:45:10Z</time></trkpt><trkpt lat="41.224226978620756" lon="9.183371081200624"><ele>49.0</ele><time>2026-05-02T08:45:11Z</time></trkpt><trkpt lat="41.22399875943946" lon="9.183379963637428"><ele>49.0</ele><time>2026-05-02T08:45:12Z</time></trkpt><trkpt lat="41.22377126175902" lon="9.183393853359648"><ele>49.0</ele><time>2026-05-02T08:45:13Z</time></trkpt><trkpt lat="41.22354831701589" lon="9.183408419924767"><ele>49.0</ele><time>2026-05-02T08:45:14Z</time></trkpt><trkpt lat="41.22332971571307" lon="9.183420519860578"><ele>49.0</ele><time>2026-05-02T08:45:15Z</time></trkpt><trkpt lat="41.223126162251276" lon="9.183425435430994"><ele>48.33333333333333</ele><time>2026-05-02T08:45:16Z</time></trkpt><trkpt lat="41.22293754627932" lon="9.183431674561056"><ele>47.666666666666664</ele><time>2026-05-02T08:45:17Z</time></trkpt><trkpt lat="41.22275100478298" lon="9.183442692366256"><ele>47.0</ele><time>2026-05-02T08:45:18Z</time></trkpt><trkpt lat="41.22256253217076" lon="9.183460691775938"><ele>47.0</ele><time>2026-05-02T08:45:19Z</time></trkpt><trkpt lat="41.22236583108747" lon="9.183482790340001"><ele>47.0</ele><time>2026-05-02T08:45:20Z</time></trkpt><trkpt lat="41.22218463071336" lon="9.183492192446707"><ele>47.0</ele><time>2026-05-02T08:45:21Z</time></trkpt><trkpt lat="41.222012156793255" lon="9.18350458810413"><ele>46.666666666666664</ele><time>2026-05-02T08:45:22Z</time></trkpt><trkpt lat="41.22184955577646" lon="9.183514588832336"><ele>46.333333333333336</ele><time>2026-05-02T08:45:23Z</time></trkpt><trkpt lat="41.22169224626964" lon="9.183521480961316"><ele>46.0</ele><time>2026-05-02T08:45:24Z</time></trkpt><trkpt lat="41.221530185587945" lon="9.183522816484356"><ele>46.0</ele><time>2026-05-02T08:45:25Z</time></trkpt><trkpt lat="41.22137000489835" lon="9.18353037719721"><ele>46.0</ele><time>2026-05-02T08:45:26Z</time></trkpt><trkpt lat="41.22120970670849" lon="9.1835452234351"><ele>46.0</ele><time>2026-05-02T08:45:27Z</time></trkpt><trkpt lat="41.22105012126736" lon="9.183553159058937"><ele>46.0</ele><time>2026-05-02T08:45:28Z</time></trkpt><trkpt lat="41.220893197352304" lon="9.18355653772494"><ele>46.0</ele><time>2026-05-02T08:45:29Z</time></trkpt><trkpt lat="41.220752486915416" lon="9.183568449086"><ele>46.0</ele><time>2026-05-02T08:45:30Z</time></trkpt><trkpt lat="41.22060942008548" lon="9.18358270043219"><ele>46.0</ele><time>2026-05-02T08:45:31Z</time></trkpt><trkpt lat="41.220466725739286" lon="9.183595723391834"><ele>45.5</ele><time>2026-05-02T08:45:32Z</time></trkpt><trkpt lat="41.22033050816753" lon="9.183603228827202"><ele>45.0</ele><time>2026-05-02T08:45:33Z</time></trkpt><trkpt lat="41.22020485963455" lon="9.183608990979618"><ele>44.5</ele><time>2026-05-02T08:45:34Z</time></trkpt><trkpt lat="41.22008065237442" lon="9.18361377369167"><ele>44.0</ele><time>2026-05-02T08:45:35Z</time></trkpt><trkpt lat="41.21995660377323" lon="9.18362061756737"><ele>44.0</ele><time>2026-05-02T08:45:36Z</time></trkpt><trkpt lat="41.21982423806105" lon="9.183621567712285"><ele>44.0</ele><time>2026-05-02T08:45:37Z</time></trkpt><trkpt lat="41.21969283672787" lon="9.183627229769032"><ele>44.0</ele><time>2026-05-02T08:45:38Z</time></trkpt><trkpt lat="41.21956284455706" lon="9.183626542092851"><ele>44.0</ele><time>2026-05-02T08:45:39Z</time></trkpt><trkpt lat="41.2194192185073" lon="9.18362911445292"><ele>44.0</ele><time>2026-05-02T08:45:40Z</time></trkpt><trkpt lat="41.219276504212424" lon="9.18363568512139"><ele>44.0</ele><time>2026-05-02T08:45:41Z</time></trkpt><trkpt lat="41.21913427039383" lon="9.183635316002078"><ele>44.0</ele><time>2026-05-02T08:45:42Z</time></trkpt><trkpt lat="41.21899261022302" lon="9.18363897745411"><ele>44.0</ele><time>2026-05-02T08:45:43Z</time></trkpt><trkpt lat="41.21885150829007" lon="9.183642609047041"><ele>44.0</ele><time>2026-05-02T08:45:44Z</time></trkpt><trkpt lat="41.218709125037755" lon="9.183661183997145"><ele>44.0</ele><time>2026-05-02T08:45:45Z</time></trkpt><trkpt lat="41.21856094388719" lon="9.183677801115435"><ele>44.0</ele><time>2026-05-02T08:45:46Z</time></trkpt><trkpt lat="41.21840901687971" lon="9.183686659105948"><ele>44.0</ele><time>2026-05-02T08:45:47Z</time></trkpt><trkpt lat="41.21825640668008" lon="9.18369142471892"><ele>44.0</ele><time>2026-05-02T08:45:48Z</time></trkpt><trkpt lat="41.21809691178757" lon="9.183706090646474"><ele>44.0</ele><time>2026-05-02T08:45:49Z</time></trkpt><trkpt lat="41.21793688864481" lon="9.18372691627412"><ele>44.0</ele><time>2026-05-02T08:45:50Z</time></trkpt><trkpt lat="41.21776689240384" lon="9.183744615310829"><ele>44.0</ele><time>2026-05-02T08:45:51Z</time></trkpt><trkpt lat="41.217582763723556" lon="9.183751381119416"><ele>44.0</ele><time>2026-05-02T08:45:52Z</time></trkpt><trkpt lat="41.217397858899666" lon="9.183759663369047"><ele>44.0</ele><time>2026-05-02T08:45:53Z</time></trkpt><trkpt lat="41.21722074857752" lon="9.18377820542991"><ele>45.0</ele><time>2026-05-02T08:45:54Z</time></trkpt><trkpt lat="41.21705793315623" lon="9.183792600608808"><ele>46.0</ele><time>2026-05-02T08:45:55Z</time></trkpt><trkpt lat="41.21688740269161" lon="9.183825258339068"><ele>47.0</ele><time>2026-05-02T08:45:56Z</time></trkpt><trkpt lat="41.21667001108767" lon="9.183852079765096"><ele>48.5</ele><time>2026-05-02T08:45:57Z</time></trkpt><trkpt lat="41.21641151752908" lon="9.183848554678352"><ele>50.0</ele><time>2026-05-02T08:45:58Z</time></trkpt><trkpt lat="41.21614085834816" lon="9.183836132610203"><ele>50.0</ele><time>2026-05-02T08:45:59Z</time></trkpt><trkpt lat="41.21587073443487" lon="9.18382298165606"><ele>50.0</ele><time>2026-05-02T08:46:00Z</time></trkpt><trkpt lat="41.21560506037791" lon="9.183809288596448"><ele>50.5</ele><time>2026-05-02T08:46:01Z</time></trkpt><trkpt lat="41.21536047647367" lon="9.183807620338834"><ele>51.0</ele><time>2026-05-02T08:46:02Z</time></trkpt><trkpt lat="41.21513171997792" lon="9.183821921472385"><ele>51.0</ele><time>2026-05-02T08:46:03Z</time></trkpt><trkpt lat="41.214917563199315" lon="9.183827746838165"><ele>51.0</ele><time>2026-05-02T08:46:04Z</time></trkpt><trkpt lat="41.214716608207084" lon="9.183824537278621"><ele>51.0</ele><time>2026-05-02T08:46:05Z</time></trkpt><trkpt lat="41.21451973260181" lon="9.183826174699025"><ele>51.33333333333333</ele><time>2026-05-02T08:46:06Z</time></trkpt><trkpt lat="41.21432113380588" lon="9.183824838065975"><ele>51.666666666666664</ele><time>2026-05-02T08:46:07Z</time></trkpt><trkpt lat="41.21411931601219" lon="9.183821825859477"><ele>52.0</ele><time>2026-05-02T08:46:08Z</time></trkpt><trkpt lat="41.213916755646174" lon="9.183823357311269"><ele>52.0</ele><time>2026-05-02T08:46:09Z</time></trkpt><trkpt lat="41.21371299064095" lon="9.183826848809426"><ele>52.0</ele><time>2026-05-02T08:46:10Z</time></trkpt><trkpt lat="41.21350487484563" lon="9.183827651460241"><ele>52.0</ele><time>2026-05-02T08:46:11Z</time></trkpt><trkpt lat="41.21329621148779" lon="9.183831053754785"><ele>52.666666666666664</ele><time>2026-05-02T08:46:12Z</time></trkpt><trkpt lat="41.21308787147699" lon="9.183836565074763"><ele>53.33333333333333</ele><time>2026-05-02T08:46:13Z</time></trkpt><trkpt lat="41.212885542394034" lon="9.183842186214902"><ele>54.0</ele><time>2026-05-02T08:46:14Z</time></trkpt><trkpt lat="41.21267258206922" lon="9.183845081913674"><ele>54.0</ele><time>2026-05-02T08:46:15Z</time></trkpt><trkpt lat="41.21245987852176" lon="9.183848676039961"><ele>54.0</ele><time>2026-05-02T08:46:16Z</time></trkpt><trkpt lat="41.21225134094652" lon="9.183848681877741"><ele>54.0</ele><time>2026-05-02T08:46:17Z</time></trkpt><trkpt lat="41.21204185213253" lon="9.183848962531316"><ele>54.0</ele><time>2026-05-02T08:46:18Z</time></trkpt><trkpt lat="41.21183112242884" lon="9.183857733140673"><ele>54.0</ele><time>2026-05-02T08:46:19Z</time></trkpt><trkpt lat="41.2116190192718" lon="9.183868242389401"><ele>54.0</ele><time>2026-05-02T08:46:20Z</time></trkpt><trkpt lat="41.21140734497083" lon="9.18387430345164"><ele>53.66666666666667</ele><time>2026-05-02T08:46:21Z</time></trkpt><trkpt lat="41.21119370625179" lon="9.183884202592674"><ele>53.333333333333336</ele><time>2026-05-02T08:46:22Z</time></trkpt><trkpt lat="41.21097655519473" lon="9.18389840047373"><ele>53.0</ele><time>2026-05-02T08:46:23Z</time></trkpt><trkpt lat="41.210756148607835" lon="9.183917985631094"><ele>52.66666666666667</ele><time>2026-05-02T08:46:24Z</time></trkpt><trkpt lat="41.21053191881049" lon="9.183942615644943"><ele>52.33333333333333</ele><time>2026-05-02T08:46:25Z</time></trkpt><trkpt lat="41.210310729252306" lon="9.183977654429075"><ele>52.0</ele><time>2026-05-02T08:46:26Z</time></trkpt><trkpt lat="41.21008607705631" lon="9.184017932579488"><ele>52.0</ele><time>2026-05-02T08:46:27Z</time></trkpt><trkpt lat="41.209859226724184" lon="9.18405725546983"><ele>52.0</ele><time>2026-05-02T08:46:28Z</time></trkpt><trkpt lat="41.20964219909884" lon="9.184095748335578"><ele>52.0</ele><time>2026-05-02T08:46:29Z</time></trkpt><trkpt lat="41.209422571400566" lon="9.184130893602601"><ele>52.33333333333333</ele><time>2026-05-02T08:46:30Z</time></trkpt><trkpt lat="41.20920648073684" lon="9.184164544108171"><ele>52.66666666666667</ele><time>2026-05-02T08:46:31Z</time></trkpt><trkpt lat="41.20899287474872" lon="9.184198292531057"><ele>53.0</ele><time>2026-05-02T08:46:32Z</time></trkpt><trkpt lat="41.20877754087892" lon="9.1842376793284"><ele>53.66666666666667</ele><time>2026-05-02T08:46:33Z</time></trkpt><trkpt lat="41.20857218291628" lon="9.184274209203922"><ele>54.33333333333333</ele><time>2026-05-02T08:46:34Z</time></trkpt><trkpt lat="41.20836266971406" lon="9.18430825900144"><ele>55.0</ele><time>2026-05-02T08:46:35Z</time></trkpt><trkpt lat="41.20814700832166" lon="9.18433961616705"><ele>56.0</ele><time>2026-05-02T08:46:36Z</time></trkpt><trkpt lat="41.207925738543295" lon="9.184369738775917"><ele>57.0</ele><time>2026-05-02T08:46:37Z</time></trkpt><trkpt lat="41.207696549218994" lon="9.184409076213248"><ele>57.0</ele><time>2026-05-02T08:46:38Z</time></trkpt><trkpt lat="41.20745905170955" lon="9.184452428570468"><ele>57.0</ele><time>2026-05-02T08:46:39Z</time></trkpt><trkpt lat="41.207215845320945" lon="9.184491995255865"><ele>57.5</ele><time>2026-05-02T08:46:40Z</time></trkpt><trkpt lat="41.206976954334" lon="9.184533901666098"><ele>58.0</ele><time>2026-05-02T08:46:41Z</time></trkpt><trkpt lat="41.20673562997195" lon="9.184582244161964"><ele>57.5</ele><time>2026-05-02T08:46:42Z</time></trkpt><trkpt lat="41.2064881948204" lon="9.184625411977047"><ele>57.0</ele><time>2026-05-02T08:46:43Z</time></trkpt><trkpt lat="41.20623918521394" lon="9.18466138887002"><ele>57.0</ele><time>2026-05-02T08:46:44Z</time></trkpt><trkpt lat="41.205988269040034" lon="9.184700813041843"><ele>57.0</ele><time>2026-05-02T08:46:45Z</time></trkpt><trkpt lat="41.205740706880626" lon="9.184742365735021"><ele>57.5</ele><time>2026-05-02T08:46:46Z</time></trkpt><trkpt lat="41.20549363092178" lon="9.18478326099405"><ele>58.0</ele><time>2026-05-02T08:46:47Z</time></trkpt><trkpt lat="41.20523967868593" lon="9.184822874152559"><ele>58.0</ele><time>2026-05-02T08:46:48Z</time></trkpt><trkpt lat="41.204986471282226" lon="9.184863956827733"><ele>58.0</ele><time>2026-05-02T08:46:49Z</time></trkpt><trkpt lat="41.20473803729183" lon="9.184900075253422"><ele>58.0</ele><time>2026-05-02T08:46:50Z</time></trkpt><trkpt lat="41.204488027475236" lon="9.184943807839927"><ele>58.0</ele><time>2026-05-02T08:46:51Z</time></trkpt><trkpt lat="41.204231763954176" lon="9.184989043713932"><ele>59.0</ele><time>2026-05-02T08:46:52Z</time></trkpt><trkpt lat="41.20397759957129" lon="9.185031427936078"><ele>60.0</ele><time>2026-05-02T08:46:53Z</time></trkpt><trkpt lat="41.203723850906606" lon="9.185072832582225"><ele>60.0</ele><time>2026-05-02T08:46:54Z</time></trkpt><trkpt lat="41.203470120224374" lon="9.185111940529904"><ele>60.0</ele><time>2026-05-02T08:46:55Z</time></trkpt><trkpt lat="41.20321739873908" lon="9.185137872216563"><ele>60.5</ele><time>2026-05-02T08:46:56Z</time></trkpt><trkpt lat="41.20296513875003" lon="9.185148518726322"><ele>61.0</ele><time>2026-05-02T08:46:57Z</time></trkpt><trkpt lat="41.20270817619134" lon="9.18513584201408"><ele>61.0</ele><time>2026-05-02T08:46:58Z</time></trkpt><trkpt lat="41.20245159392607" lon="9.185099688592917"><ele>61.0</ele><time>2026-05-02T08:46:59Z</time></trkpt><trkpt lat="41.20219692107963" lon="9.185041749069756"><ele>59.0</ele><time>2026-05-02T08:47:00Z</time></trkpt><trkpt lat="41.2019360128637" lon="9.184995067360768"><ele>57.0</ele><time>2026-05-02T08:47:01Z</time></trkpt><trkpt lat="41.20167390291702" lon="9.184949940127991"><ele>57.0</ele><time>2026-05-02T08:47:02Z</time></trkpt><trkpt lat="41.201411426589495" lon="9.184895874432522"><ele>57.0</ele><time>2026-05-02T08:47:03Z</time></trkpt><trkpt lat="41.20114976966137" lon="9.184845685329533"><ele>58.5</ele><time>2026-05-02T08:47:04Z</time></trkpt><trkpt lat="41.200883314384654" lon="9.18480263652876"><ele>60.0</ele><time>2026-05-02T08:47:05Z</time></trkpt><trkpt lat="41.20062047453234" lon="9.184761677251098"><ele>60.5</ele><time>2026-05-02T08:47:06Z</time></trkpt><trkpt lat="41.200357712696075" lon="9.18471752437445"><ele>61.0</ele><time>2026-05-02T08:47:07Z</time></trkpt><trkpt lat="41.20009457894755" lon="9.184671316438108"><ele>61.5</ele><time>2026-05-02T08:47:08Z</time></trkpt><trkpt lat="41.199833055063614" lon="9.184623922352547"><ele>62.0</ele><time>2026-05-02T08:47:09Z</time></trkpt><trkpt lat="41.199567842980834" lon="9.184575691476782"><ele>62.0</ele><time>2026-05-02T08:47:10Z</time></trkpt><trkpt lat="41.199303327690366" lon="9.184526748089526"><ele>62.0</ele><time>2026-05-02T08:47:11Z</time></trkpt><trkpt lat="41.19903836031429" lon="9.184480590136033"><ele>62.5</ele><time>2026-05-02T08:47:12Z</time></trkpt><trkpt lat="41.19877327788054" lon="9.184431291487947"><ele>63.0</ele><time>2026-05-02T08:47:13Z</time></trkpt><trkpt lat="41.19850796990631" lon="9.184383563643538"><ele>63.0</ele><time>2026-05-02T08:47:14Z</time></trkpt><trkpt lat="41.19824296931517" lon="9.184327550214162"><ele>63.0</ele><time>2026-05-02T08:47:15Z</time></trkpt><trkpt lat="41.19797853090223" lon="9.184281474530701"><ele>63.0</ele><time>2026-05-02T08:47:16Z</time></trkpt><trkpt lat="41.19770685534502" lon="9.18423179915322"><ele>63.0</ele><time>2026-05-02T08:47:17Z</time></trkpt><trkpt lat="41.19743923958199" lon="9.184184438472618"><ele>62.0</ele><time>2026-05-02T08:47:18Z</time></trkpt><trkpt lat="41.197175437342366" lon="9.18413414118566"><ele>61.0</ele><time>2026-05-02T08:47:19Z</time></trkpt><trkpt lat="41.19690810401281" lon="9.18409043587355"><ele>61.0</ele><time>2026-05-02T08:47:20Z</time></trkpt><trkpt lat="41.196642411316134" lon="9.184037405574639"><ele>61.0</ele><time>2026-05-02T08:47:21Z</time></trkpt><trkpt lat="41.196374040268715" lon="9.183993774737452"><ele>60.0</ele><time>2026-05-02T08:47:22Z</time></trkpt><trkpt lat="41.19610399360733" lon="9.183942783209053"><ele>59.0</ele><time>2026-05-02T08:47:23Z</time></trkpt><trkpt lat="41.195836840739844" lon="9.183888079077215"><ele>60.0</ele><time>2026-05-02T08:47:24Z</time></trkpt><trkpt lat="41.19557355252726" lon="9.183824260618493"><ele>61.0</ele><time>2026-05-02T08:47:25Z</time></trkpt><trkpt lat="41.19531291915266" lon="9.183751305274017"><ele>61.0</ele><time>2026-05-02T08:47:26Z</time></trkpt><trkpt lat="41.19505251569724" lon="9.183663012251696"><ele>61.0</ele><time>2026-05-02T08:47:27Z</time></trkpt><trkpt lat="41.194796476128786" lon="9.183558241497375"><ele>58.5</ele><time>2026-05-02T08:47:28Z</time></trkpt><trkpt lat="41.194542132036915" lon="9.183433207633863"><ele>56.0</ele><time>2026-05-02T08:47:29Z</time></trkpt><trkpt lat="41.194290316152696" lon="9.183296203722291"><ele>56.5</ele><time>2026-05-02T08:47:30Z</time></trkpt><trkpt lat="41.194046033964575" lon="9.183160490811318"><ele>57.0</ele><time>2026-05-02T08:47:31Z</time></trkpt><trkpt lat="41.19379804401049" lon="9.18302539921963"><ele>56.0</ele><time>2026-05-02T08:47:32Z</time></trkpt><trkpt lat="41.19355707683037" lon="9.18288321689934"><ele>55.0</ele><time>2026-05-02T08:47:33Z</time></trkpt><trkpt lat="41.193314138189024" lon="9.182745538892645"><ele>54.0</ele><time>2026-05-02T08:47:34Z</time></trkpt><trkpt lat="41.19307212728056" lon="9.182606735073316"><ele>53.0</ele><time>2026-05-02T08:47:35Z</time></trkpt><trkpt lat="41.19282496410241" lon="9.182479177838081"><ele>53.5</ele><time>2026-05-02T08:47:36Z</time></trkpt><trkpt lat="41.19258209475399" lon="9.182343494329526"><ele>54.0</ele><time>2026-05-02T08:47:37Z</time></trkpt><trkpt lat="41.19233795432653" lon="9.182206348102342"><ele>56.0</ele><time>2026-05-02T08:47:38Z</time></trkpt><trkpt lat="41.192098741831565" lon="9.182070911270529"><ele>58.0</ele><time>2026-05-02T08:47:39Z</time></trkpt><trkpt lat="41.191858305533636" lon="9.181939985761788"><ele>58.0</ele><time>2026-05-02T08:47:40Z</time></trkpt><trkpt lat="41.19161081098442" lon="9.181809023310736"><ele>58.0</ele><time>2026-05-02T08:47:41Z</time></trkpt><trkpt lat="41.191362006225305" lon="9.181676297081832"><ele>57.5</ele><time>2026-05-02T08:47:42Z</time></trkpt><trkpt lat="41.19111731501773" lon="9.181539148140791"><ele>57.0</ele><time>2026-05-02T08:47:43Z</time></trkpt><trkpt lat="41.19086722419551" lon="9.181401761081604"><ele>56.0</ele><time>2026-05-02T08:47:44Z</time></trkpt><trkpt lat="41.19062096695154" lon="9.181261814707533"><ele>55.0</ele><time>2026-05-02T08:47:45Z</time></trkpt><trkpt lat="41.19036997421012" lon="9.181118592308678"><ele>55.0</ele><time>2026-05-02T08:47:46Z</time></trkpt><trkpt lat="41.19012351858152" lon="9.180974147206364"><ele>55.0</ele><time>2026-05-02T08:47:47Z</time></trkpt><trkpt lat="41.18987235243129" lon="9.18082911914634"><ele>55.0</ele><time>2026-05-02T08:47:48Z</time></trkpt><trkpt lat="41.189626351820905" lon="9.180686938571165"><ele>55.0</ele><time>2026-05-02T08:47:49Z</time></trkpt><trkpt lat="41.189378605729814" lon="9.180541550340873"><ele>55.0</ele><time>2026-05-02T08:47:50Z</time></trkpt><trkpt lat="41.18913403034031" lon="9.180407353706295"><ele>55.0</ele><time>2026-05-02T08:47:51Z</time></trkpt><trkpt lat="41.18888834184696" lon="9.180271725347634"><ele>53.0</ele><time>2026-05-02T08:47:52Z</time></trkpt><trkpt lat="41.188639376844364" lon="9.180140681824895"><ele>51.0</ele><time>2026-05-02T08:47:53Z</time></trkpt><trkpt lat="41.18839076008887" lon="9.180016692128934"><ele>52.5</ele><time>2026-05-02T08:47:54Z</time></trkpt><trkpt lat="41.18813717209669" lon="9.179902148124643"><ele>54.0</ele><time>2026-05-02T08:47:55Z</time></trkpt><trkpt lat="41.187886551167175" lon="9.17979900145856"><ele>54.0</ele><time>2026-05-02T08:47:56Z</time></trkpt><trkpt lat="41.18762882067994" lon="9.179715794760327"><ele>54.0</ele><time>2026-05-02T08:47:57Z</time></trkpt><trkpt lat="41.187374787584176" lon="9.179656425363687"><ele>53.0</ele><time>2026-05-02T08:47:58Z</time></trkpt><trkpt lat="41.18711516602596" lon="9.179620239593554"><ele>52.0</ele><time>2026-05-02T08:47:59Z</time></trkpt><trkpt lat="41.186857573660006" lon="9.179606817585466"><ele>52.0</ele><time>2026-05-02T08:48:00Z</time></trkpt><trkpt lat="41.186594982151384" lon="9.179608091221446"><ele>52.0</ele><time>2026-05-02T08:48:01Z</time></trkpt><trkpt lat="41.186333190563516" lon="9.179617005950034"><ele>53.0</ele><time>2026-05-02T08:48:02Z</time></trkpt><trkpt lat="41.18607181862432" lon="9.179614061428897"><ele>54.0</ele><time>2026-05-02T08:48:03Z</time></trkpt><trkpt lat="41.18581022219958" lon="9.179607707341045"><ele>55.0</ele><time>2026-05-02T08:48:04Z</time></trkpt><trkpt lat="41.18554418657141" lon="9.179606101822959"><ele>56.0</ele><time>2026-05-02T08:48:05Z</time></trkpt><trkpt lat="41.185282204558625" lon="9.179610272685784"><ele>56.0</ele><time>2026-05-02T08:48:06Z</time></trkpt><trkpt lat="41.18501212504196" lon="9.179614897097132"><ele>56.0</ele><time>2026-05-02T08:48:07Z</time></trkpt><trkpt lat="41.184744219536775" lon="9.179608469742696"><ele>56.0</ele><time>2026-05-02T08:48:08Z</time></trkpt><trkpt lat="41.1844738446383" lon="9.17960546951741"><ele>56.0</ele><time>2026-05-02T08:48:09Z</time></trkpt><trkpt lat="41.18420287748345" lon="9.179600901528502"><ele>55.5</ele><time>2026-05-02T08:48:10Z</time></trkpt><trkpt lat="41.183929578853764" lon="9.179596631760996"><ele>55.0</ele><time>2026-05-02T08:48:11Z</time></trkpt><trkpt lat="41.18365703404508" lon="9.179595376768336"><ele>55.0</ele><time>2026-05-02T08:48:12Z</time></trkpt><trkpt lat="41.1833832156806" lon="9.179593773619672"><ele>55.0</ele><time>2026-05-02T08:48:13Z</time></trkpt><trkpt lat="41.18311078508706" lon="9.179592512212349"><ele>53.5</ele><time>2026-05-02T08:48:14Z</time></trkpt><trkpt lat="41.18283709230145" lon="9.179591561614824"><ele>52.0</ele><time>2026-05-02T08:48:15Z</time></trkpt><trkpt lat="41.18256732185682" lon="9.17959134511384"><ele>49.0</ele><time>2026-05-02T08:48:16Z</time></trkpt><trkpt lat="41.18229624620824" lon="9.179591527939387"><ele>46.0</ele><time>2026-05-02T08:48:17Z</time></trkpt><trkpt lat="41.182027944900156" lon="9.179585369353003"><ele>46.0</ele><time>2026-05-02T08:48:18Z</time></trkpt><trkpt lat="41.18176262763747" lon="9.179571931041593"><ele>46.0</ele><time>2026-05-02T08:48:19Z</time></trkpt><trkpt lat="41.181496887692255" lon="9.179535141531694"><ele>40.0</ele><time>2026-05-02T08:48:20Z</time></trkpt><trkpt lat="41.18123565023625" lon="9.179468051266987"><ele>34.0</ele><time>2026-05-02T08:48:21Z</time></trkpt><trkpt lat="41.18098465311515" lon="9.179348772916434"><ele>34.0</ele><time>2026-05-02T08:48:22Z</time></trkpt><trkpt lat="41.18073002677052" lon="9.179266159787964"><ele>34.0</ele><time>2026-05-02T08:48:23Z</time></trkpt><trkpt lat="41.18047007130789" lon="9.179180757338555"><ele>34.0</ele><time>2026-05-02T08:48:24Z</time></trkpt><trkpt lat="41.180221581123554" lon="9.179084389655536"><ele>34.0</ele><time>2026-05-02T08:48:25Z</time></trkpt><trkpt lat="41.17995914070298" lon="9.178990363237414"><ele>26.0</ele><time>2026-05-02T08:48:26Z</time></trkpt><trkpt lat="41.17970738557916" lon="9.17888943997033"><ele>18.0</ele><time>2026-05-02T08:48:27Z</time></trkpt><trkpt lat="41.17945372712188" lon="9.178792774484366"><ele>18.0</ele><time>2026-05-02T08:48:28Z</time></trkpt><trkpt lat="41.17919861822651" lon="9.178698836878167"><ele>18.0</ele><time>2026-05-02T08:48:29Z</time></trkpt><trkpt lat="41.17894431512285" lon="9.17860483148856"><ele>16.5</ele><time>2026-05-02T08:48:30Z</time></trkpt><trkpt lat="41.1786925785766" lon="9.178511790904238"><ele>15.0</ele><time>2026-05-02T08:48:31Z</time></trkpt><trkpt lat="41.178441104818695" lon="9.178416396772342"><ele>15.0</ele><time>2026-05-02T08:48:32Z</time></trkpt><trkpt lat="41.17819133604881" lon="9.178321760887641"><ele>15.0</ele><time>2026-05-02T08:48:33Z</time></trkpt><trkpt lat="41.17793524980283" lon="9.178221008525668"><ele>16.5</ele><time>2026-05-02T08:48:34Z</time></trkpt><trkpt lat="41.17768875980403" lon="9.178120496280533"><ele>18.0</ele><time>2026-05-02T08:48:35Z</time></trkpt><trkpt lat="41.17743764665365" lon="9.178029263680065"><ele>21.5</ele><time>2026-05-02T08:48:36Z</time></trkpt><trkpt lat="41.17718787238307" lon="9.177943840831631"><ele>25.0</ele><time>2026-05-02T08:48:37Z</time></trkpt><trkpt lat="41.176938855083385" lon="9.177853741322467"><ele>25.0</ele><time>2026-05-02T08:48:38Z</time></trkpt><trkpt lat="41.1766923806176" lon="9.177760146377224"><ele>25.0</ele><time>2026-05-02T08:48:39Z</time></trkpt><trkpt lat="41.176445891295" lon="9.177671879161045"><ele>24.0</ele><time>2026-05-02T08:48:40Z</time></trkpt><trkpt lat="41.1762042635539" lon="9.177583368807165"><ele>23.0</ele><time>2026-05-02T08:48:41Z</time></trkpt><trkpt lat="41.17596707884955" lon="9.177495956464812"><ele>23.0</ele><time>2026-05-02T08:48:42Z</time></trkpt><trkpt lat="41.17572893640542" lon="9.177408145931688"><ele>23.0</ele><time>2026-05-02T08:48:43Z</time></trkpt><trkpt lat="41.17549219548365" lon="9.177326357933579"><ele>23.0</ele><time>2026-05-02T08:48:44Z</time></trkpt><trkpt lat="41.175254604536256" lon="9.177244349350962"><ele>23.0</ele><time>2026-05-02T08:48:45Z</time></trkpt><trkpt lat="41.175026703518355" lon="9.177139466103384"><ele>23.5</ele><time>2026-05-02T08:48:46Z</time></trkpt><trkpt lat="41.17480104293151" lon="9.177040017899154"><ele>24.0</ele><time>2026-05-02T08:48:47Z</time></trkpt><trkpt lat="41.174595171220126" lon="9.176964023690944"><ele>24.0</ele><time>2026-05-02T08:48:48Z</time></trkpt><trkpt lat="41.17442568578477" lon="9.176906046074857"><ele>24.0</ele><time>2026-05-02T08:48:49Z</time></trkpt><trkpt lat="41.17427139233382" lon="9.176848976063923"><ele>24.0</ele><time>2026-05-02T08:48:50Z</time></trkpt><trkpt lat="41.17412339817945" lon="9.176793134736233"><ele>23.0</ele><time>2026-05-02T08:48:51Z</time></trkpt><trkpt lat="41.1739822062885" lon="9.176741498775515"><ele>22.0</ele><time>2026-05-02T08:48:52Z</time></trkpt><trkpt lat="41.17384694208084" lon="9.176699394751115"><ele>21.0</ele><time>2026-05-02T08:48:53Z</time></trkpt><trkpt lat="41.17367947994772" lon="9.17664720227601"><ele>21.0</ele><time>2026-05-02T08:48:54Z</time></trkpt><trkpt lat="41.17347331701314" lon="9.176568058917146"><ele>21.0</ele><time>2026-05-02T08:48:55Z</time></trkpt><trkpt lat="41.17324937656673" lon="9.176457122084479"><ele>16.5</ele><time>2026-05-02T08:48:56Z</time></trkpt><trkpt lat="41.173016823505954" lon="9.176367026698212"><ele>12.0</ele><time>2026-05-02T08:48:57Z</time></trkpt><trkpt lat="41.1727999346907" lon="9.176281030077208"><ele>12.0</ele><time>2026-05-02T08:48:58Z</time></trkpt><trkpt lat="41.17258940701211" lon="9.176200336721081"><ele>12.0</ele><time>2026-05-02T08:48:59Z</time></trkpt><trkpt lat="41.172377957550495" lon="9.176126920529697"><ele>12.0</ele><time>2026-05-02T08:49:00Z</time></trkpt><trkpt lat="41.172172009692204" lon="9.176054612057987"><ele>13.333333333333332</ele><time>2026-05-02T08:49:01Z</time></trkpt><trkpt lat="41.17198309427799" lon="9.175988486719405"><ele>14.666666666666666</ele><time>2026-05-02T08:49:02Z</time></trkpt><trkpt lat="41.17182169605686" lon="9.17592910126152"><ele>16.0</ele><time>2026-05-02T08:49:03Z</time></trkpt><trkpt lat="41.17166776510789" lon="9.175862329708696"><ele>17.666666666666664</ele><time>2026-05-02T08:49:04Z</time></trkpt><trkpt lat="41.171515959725056" lon="9.175808812023416"><ele>19.333333333333332</ele><time>2026-05-02T08:49:05Z</time></trkpt><trkpt lat="41.1713605289317" lon="9.175744244764175"><ele>21.0</ele><time>2026-05-02T08:49:06Z</time></trkpt><trkpt lat="41.171199759177284" lon="9.175690077277482"><ele>20.5</ele><time>2026-05-02T08:49:07Z</time></trkpt><trkpt lat="41.171042333195125" lon="9.175631590156858"><ele>20.0</ele><time>2026-05-02T08:49:08Z</time></trkpt><trkpt lat="41.17089824086137" lon="9.175574538107806"><ele>19.5</ele><time>2026-05-02T08:49:09Z</time></trkpt><trkpt lat="41.17077207757797" lon="9.175521479374373"><ele>19.0</ele><time>2026-05-02T08:49:10Z</time></trkpt><trkpt lat="41.17065237443648" lon="9.175478694237524"><ele>20.799999999999997</ele><time>2026-05-02T08:49:11Z</time></trkpt><trkpt lat="41.17054034154042" lon="9.17544217978241"><ele>22.599999999999998</ele><time>2026-05-02T08:49:12Z</time></trkpt><trkpt lat="41.17043029545584" lon="9.17539953817657"><ele>24.4</ele><time>2026-05-02T08:49:13Z</time></trkpt><trkpt lat="41.17032116626589" lon="9.175357627344738"><ele>26.2</ele><time>2026-05-02T08:49:14Z</time></trkpt><trkpt lat="41.17022294138519" lon="9.17531448158705"><ele>28.0</ele><time>2026-05-02T08:49:15Z</time></trkpt><trkpt lat="41.17013387820059" lon="9.175277242672497"><ele>28.0</ele><time>2026-05-02T08:49:16Z</time></trkpt><trkpt lat="41.17003852161599" lon="9.175237784027338"><ele>28.0</ele><time>2026-05-02T08:49:17Z</time></trkpt><trkpt lat="41.1699294039014" lon="9.175203809526716"><ele>28.0</ele><time>2026-05-02T08:49:18Z</time></trkpt><trkpt lat="41.16981332332821" lon="9.175168722672614"><ele>28.0</ele><time>2026-05-02T08:49:19Z</time></trkpt><trkpt lat="41.16968965919208" lon="9.175114973169194"><ele>28.5</ele><time>2026-05-02T08:49:20Z</time></trkpt><trkpt lat="41.16956361856249" lon="9.175066394398108"><ele>29.0</ele><time>2026-05-02T08:49:21Z</time></trkpt><trkpt lat="41.169435148557696" lon="9.175019302217121"><ele>29.5</ele><time>2026-05-02T08:49:22Z</time></trkpt><trkpt lat="41.16931019504533" lon="9.174972303111792"><ele>30.0</ele><time>2026-05-02T08:49:23Z</time></trkpt><trkpt lat="41.16917297549288" lon="9.174914817590066"><ele>30.5</ele><time>2026-05-02T08:49:24Z</time></trkpt><trkpt lat="41.1690413169332" lon="9.174851693487636"><ele>31.0</ele><time>2026-05-02T08:49:25Z</time></trkpt><trkpt lat="41.168897884440455" lon="9.17479076902694"><ele>31.5</ele><time>2026-05-02T08:49:26Z</time></trkpt><trkpt lat="41.16874631532764" lon="9.174737039308408"><ele>32.0</ele><time>2026-05-02T08:49:27Z</time></trkpt><trkpt lat="41.16859118306447" lon="9.174675383989019"><ele>30.333333333333332</ele><time>2026-05-02T08:49:28Z</time></trkpt><trkpt lat="41.168433014949464" lon="9.174602958724321"><ele>28.666666666666664</ele><time>2026-05-02T08:49:29Z</time></trkpt><trkpt lat="41.168266738337906" lon="9.174531691563844"><ele>27.0</ele><time>2026-05-02T08:49:30Z</time></trkpt><trkpt lat="41.168091246398475" lon="9.17448513330172"><ele>30.333333333333336</ele><time>2026-05-02T08:49:31Z</time></trkpt><trkpt lat="41.167922797715555" lon="9.174453007903017"><ele>33.66666666666667</ele><time>2026-05-02T08:49:32Z</time></trkpt><trkpt lat="41.1677650733302" lon="9.174396852325653"><ele>37.0</ele><time>2026-05-02T08:49:33Z</time></trkpt><trkpt lat="41.167603344056616" lon="9.17432903199412"><ele>37.0</ele><time>2026-05-02T08:49:34Z</time></trkpt><trkpt lat="41.167434322701325" lon="9.174278548338563"><ele>37.0</ele><time>2026-05-02T08:49:35Z</time></trkpt><trkpt lat="41.167267485094804" lon="9.174221926224309"><ele>37.0</ele><time>2026-05-02T08:49:36Z</time></trkpt><trkpt lat="41.16710075036235" lon="9.17415868865399"><ele>40.0</ele><time>2026-05-02T08:49:37Z</time></trkpt><trkpt lat="41.16691238613833" lon="9.17409551367469"><ele>43.0</ele><time>2026-05-02T08:49:38Z</time></trkpt><trkpt lat="41.166734220481516" lon="9.174016472639192"><ele>46.0</ele><time>2026-05-02T08:49:39Z</time></trkpt><trkpt lat="41.16653298013063" lon="9.173925745363594"><ele>48.66666666666667</ele><time>2026-05-02T08:49:40Z</time></trkpt><trkpt lat="41.16634958380705" lon="9.173839764608314"><ele>51.333333333333336</ele><time>2026-05-02T08:49:41Z</time></trkpt><trkpt lat="41.16618386273484" lon="9.173783379566107"><ele>54.0</ele><time>2026-05-02T08:49:42Z</time></trkpt><trkpt lat="41.166038531691186" lon="9.173736995875188"><ele>54.0</ele><time>2026-05-02T08:49:43Z</time></trkpt><trkpt lat="41.16589963867271" lon="9.173684796951614"><ele>54.0</ele><time>2026-05-02T08:49:44Z</time></trkpt><trkpt lat="41.165743831879965" lon="9.173623427794427"><ele>54.0</ele><time>2026-05-02T08:49:45Z</time></trkpt><trkpt lat="41.16555787213342" lon="9.17356989630614"><ele>53.66666666666667</ele><time>2026-05-02T08:49:46Z</time></trkpt><trkpt lat="41.165360173706" lon="9.173507866532255"><ele>53.333333333333336</ele><time>2026-05-02T08:49:47Z</time></trkpt><trkpt lat="41.1651412580557" lon="9.173414948157097"><ele>53.0</ele><time>2026-05-02T08:49:48Z</time></trkpt><trkpt lat="41.164906337039156" lon="9.173310269711328"><ele>53.5</ele><time>2026-05-02T08:49:49Z</time></trkpt><trkpt lat="41.164661559006085" lon="9.173212426865991"><ele>54.0</ele><time>2026-05-02T08:49:50Z</time></trkpt><trkpt lat="41.16440881709096" lon="9.173123916760055"><ele>55.0</ele><time>2026-05-02T08:49:51Z</time></trkpt><trkpt lat="41.16416276834595" lon="9.173039924554747"><ele>56.0</ele><time>2026-05-02T08:49:52Z</time></trkpt><trkpt lat="41.16392276070838" lon="9.172948391728655"><ele>56.0</ele><time>2026-05-02T08:49:53Z</time></trkpt><trkpt lat="41.16367965179451" lon="9.17284146231567"><ele>56.0</ele><time>2026-05-02T08:49:54Z</time></trkpt><trkpt lat="41.16344060330219" lon="9.172753423986302"><ele>54.0</ele><time>2026-05-02T08:49:55Z</time></trkpt><trkpt lat="41.163191369742" lon="9.172667064238816"><ele>52.0</ele><time>2026-05-02T08:49:56Z</time></trkpt><trkpt lat="41.16294398783381" lon="9.172574239269693"><ele>52.0</ele><time>2026-05-02T08:49:57Z</time></trkpt><trkpt lat="41.16270050894137" lon="9.172472470329758"><ele>52.0</ele><time>2026-05-02T08:49:58Z</time></trkpt><trkpt lat="41.162455652957895" lon="9.172378349419825"><ele>48.0</ele><time>2026-05-02T08:49:59Z</time></trkpt><trkpt lat="41.16221719965721" lon="9.172280160417595"><ele>44.0</ele><time>2026-05-02T08:50:00Z</time></trkpt><trkpt lat="41.16198081534325" lon="9.172189110667649"><ele>44.0</ele><time>2026-05-02T08:50:01Z</time></trkpt><trkpt lat="41.16173716389118" lon="9.172074656480328"><ele>44.0</ele><time>2026-05-02T08:50:02Z</time></trkpt><trkpt lat="41.161514173351165" lon="9.1719258708392"><ele>43.5</ele><time>2026-05-02T08:50:03Z</time></trkpt><trkpt lat="41.161292445935665" lon="9.17174509071419"><ele>43.0</ele><time>2026-05-02T08:50:04Z</time></trkpt><trkpt lat="41.16108088332149" lon="9.171535937067947"><ele>41.5</ele><time>2026-05-02T08:50:05Z</time></trkpt><trkpt lat="41.16087736723475" lon="9.171312533286251"><ele>40.0</ele><time>2026-05-02T08:50:06Z</time></trkpt><trkpt lat="41.16068124942959" lon="9.17107135628085"><ele>37.5</ele><time>2026-05-02T08:50:07Z</time></trkpt><trkpt lat="41.16049844967152" lon="9.17081183705561"><ele>35.0</ele><time>2026-05-02T08:50:08Z</time></trkpt><trkpt lat="41.16033187002259" lon="9.170525860010633"><ele>31.5</ele><time>2026-05-02T08:50:09Z</time></trkpt><trkpt lat="41.16018571360566" lon="9.17022287158022"><ele>28.0</ele><time>2026-05-02T08:50:10Z</time></trkpt><trkpt lat="41.160047453921656" lon="9.16990177952816"><ele>28.0</ele><time>2026-05-02T08:50:11Z</time></trkpt><trkpt lat="41.15993015958197" lon="9.169565968803218"><ele>28.0</ele><time>2026-05-02T08:50:12Z</time></trkpt><trkpt lat="41.15982991669213" lon="9.169222947617545"><ele>31.5</ele><time>2026-05-02T08:50:13Z</time></trkpt><trkpt lat="41.15974014470989" lon="9.168873014076533"><ele>35.0</ele><time>2026-05-02T08:50:14Z</time></trkpt><trkpt lat="41.1596602324871" lon="9.168518554940448"><ele>35.5</ele><time>2026-05-02T08:50:15Z</time></trkpt><trkpt lat="41.15957386449898" lon="9.168168662800914"><ele>36.0</ele><time>2026-05-02T08:50:16Z</time></trkpt><trkpt lat="41.159476331120466" lon="9.167820842501603"><ele>36.0</ele><time>2026-05-02T08:50:17Z</time></trkpt><trkpt lat="41.15938572119879" lon="9.167477501691403"><ele>36.0</ele><time>2026-05-02T08:50:18Z</time></trkpt><trkpt lat="41.15929400730767" lon="9.167136522437966"><ele>35.5</ele><time>2026-05-02T08:50:19Z</time></trkpt><trkpt lat="41.159200780486266" lon="9.166793375328822"><ele>35.0</ele><time>2026-05-02T08:50:20Z</time></trkpt><trkpt lat="41.15910693556027" lon="9.166451035772328"><ele>38.5</ele><time>2026-05-02T08:50:21Z</time></trkpt><trkpt lat="41.15901321323899" lon="9.166105572336686"><ele>42.0</ele><time>2026-05-02T08:50:22Z</time></trkpt><trkpt lat="41.158923863505976" lon="9.165770879484796"><ele>42.0</ele><time>2026-05-02T08:50:23Z</time></trkpt><trkpt lat="41.15883546335095" lon="9.165445401708402"><ele>42.0</ele><time>2026-05-02T08:50:24Z</time></trkpt><trkpt lat="41.15874692274007" lon="9.165119946105047"><ele>41.0</ele><time>2026-05-02T08:50:25Z</time></trkpt><trkpt lat="41.15865694678582" lon="9.164799523386364"><ele>40.0</ele><time>2026-05-02T08:50:26Z</time></trkpt><trkpt lat="41.15857605380872" lon="9.164493856481698"><ele>40.0</ele><time>2026-05-02T08:50:27Z</time></trkpt><trkpt lat="41.15849678845159" lon="9.164181466798983"><ele>40.0</ele><time>2026-05-02T08:50:28Z</time></trkpt><trkpt lat="41.158414045621974" lon="9.163870403795876"><ele>38.0</ele><time>2026-05-02T08:50:29Z</time></trkpt><trkpt lat="41.15832967272097" lon="9.163550952945"><ele>36.0</ele><time>2026-05-02T08:50:30Z</time></trkpt><trkpt lat="41.158246620081044" lon="9.163238682375598"><ele>39.5</ele><time>2026-05-02T08:50:31Z</time></trkpt><trkpt lat="41.158157246828644" lon="9.162913348111967"><ele>43.0</ele><time>2026-05-02T08:50:32Z</time></trkpt><trkpt lat="41.15806499846948" lon="9.162582944642736"><ele>41.5</ele><time>2026-05-02T08:50:33Z</time></trkpt><trkpt lat="41.15797690436852" lon="9.162257306889414"><ele>40.0</ele><time>2026-05-02T08:50:34Z</time></trkpt><trkpt lat="41.157886096257094" lon="9.161920068254052"><ele>40.0</ele><time>2026-05-02T08:50:35Z</time></trkpt><trkpt lat="41.157797914526036" lon="9.161579490346087"><ele>40.0</ele><time>2026-05-02T08:50:36Z</time></trkpt><trkpt lat="41.157712966950115" lon="9.161238706809934"><ele>38.5</ele><time>2026-05-02T08:50:37Z</time></trkpt><trkpt lat="41.15762431504481" lon="9.160903815484073"><ele>37.0</ele><time>2026-05-02T08:50:38Z</time></trkpt><trkpt lat="41.15753341607404" lon="9.16057314323199"><ele>36.0</ele><time>2026-05-02T08:50:39Z</time></trkpt><trkpt lat="41.15744244936832" lon="9.160247263020429"><ele>35.0</ele><time>2026-05-02T08:50:40Z</time></trkpt><trkpt lat="41.15735457975222" lon="9.159929220726339"><ele>37.0</ele><time>2026-05-02T08:50:41Z</time></trkpt><trkpt lat="41.15726643467588" lon="9.159606041135213"><ele>39.0</ele><time>2026-05-02T08:50:42Z</time></trkpt><trkpt lat="41.15717865838503" lon="9.159295484546949"><ele>38.0</ele><time>2026-05-02T08:50:43Z</time></trkpt><trkpt lat="41.1570932195337" lon="9.158979736304536"><ele>37.0</ele><time>2026-05-02T08:50:44Z</time></trkpt><trkpt lat="41.15700694941367" lon="9.158657258140888"><ele>37.0</ele><time>2026-05-02T08:50:45Z</time></trkpt><trkpt lat="41.15692383478137" lon="9.158336405790998"><ele>37.0</ele><time>2026-05-02T08:50:46Z</time></trkpt><trkpt lat="41.15684207917711" lon="9.158010653096191"><ele>35.5</ele><time>2026-05-02T08:50:47Z</time></trkpt><trkpt lat="41.156756660074066" lon="9.157689388896388"><ele>34.0</ele><time>2026-05-02T08:50:48Z</time></trkpt><trkpt lat="41.15667806697165" lon="9.157386424845171"><ele>30.0</ele><time>2026-05-02T08:50:49Z</time></trkpt><trkpt lat="41.1566001379772" lon="9.157093085779936"><ele>26.0</ele><time>2026-05-02T08:50:50Z</time></trkpt><trkpt lat="41.15652183264174" lon="9.156817823711817"><ele>28.0</ele><time>2026-05-02T08:50:51Z</time></trkpt><trkpt lat="41.15643941086072" lon="9.156550688650869"><ele>30.0</ele><time>2026-05-02T08:50:52Z</time></trkpt><trkpt lat="41.15634927876847" lon="9.156305879669155"><ele>32.0</ele><time>2026-05-02T08:50:53Z</time></trkpt><trkpt lat="41.156251436539115" lon="9.156071233793684"><ele>32.0</ele><time>2026-05-02T08:50:54Z</time></trkpt><trkpt lat="41.15613476113101" lon="9.155836432477452"><ele>32.0</ele><time>2026-05-02T08:50:55Z</time></trkpt><trkpt lat="41.15598763546929" lon="9.155598768376883"><ele>32.0</ele><time>2026-05-02T08:50:56Z</time></trkpt><trkpt lat="41.15580945786888" lon="9.15535615831243"><ele>32.5</ele><time>2026-05-02T08:50:57Z</time></trkpt><trkpt lat="41.15561316473666" lon="9.15510885194051"><ele>33.0</ele><time>2026-05-02T08:50:58Z</time></trkpt><trkpt lat="41.15541330152552" lon="9.154861128759807"><ele>23.5</ele><time>2026-05-02T08:50:59Z</time></trkpt><trkpt lat="41.15521368157698" lon="9.1546021985152"><ele>14.0</ele><time>2026-05-02T08:51:00Z</time></trkpt><trkpt lat="41.155022372138916" lon="9.154340598511796"><ele>17.0</ele><time>2026-05-02T08:51:01Z</time></trkpt><trkpt lat="41.15483853325668" lon="9.154070825081781"><ele>20.0</ele><time>2026-05-02T08:51:02Z</time></trkpt><trkpt lat="41.15467733552875" lon="9.153776778420626"><ele>13.5</ele><time>2026-05-02T08:51:03Z</time></trkpt><trkpt lat="41.154552769888916" lon="9.153468522761315"><ele>7.0</ele><time>2026-05-02T08:51:04Z</time></trkpt><trkpt lat="41.154450155246145" lon="9.153150642765551"><ele>6.5</ele><time>2026-05-02T08:51:05Z</time></trkpt><trkpt lat="41.154364633662624" lon="9.152823521067607"><ele>6.0</ele><time>2026-05-02T08:51:06Z</time></trkpt><trkpt lat="41.154298273821965" lon="9.152480210681134"><ele>11.0</ele><time>2026-05-02T08:51:07Z</time></trkpt><trkpt lat="41.15426064160561" lon="9.152119010927068"><ele>16.0</ele><time>2026-05-02T08:51:08Z</time></trkpt><trkpt lat="41.15425305445739" lon="9.151752909946302"><ele>15.5</ele><time>2026-05-02T08:51:09Z</time></trkpt><trkpt lat="41.15425589859232" lon="9.151391192943008"><ele>15.0</ele><time>2026-05-02T08:51:10Z</time></trkpt><trkpt lat="41.15424948812053" lon="9.15104020966927"><ele>13.5</ele><time>2026-05-02T08:51:11Z</time></trkpt><trkpt lat="41.15422307180746" lon="9.150691065556073"><ele>12.0</ele><time>2026-05-02T08:51:12Z</time></trkpt><trkpt lat="41.1541675233877" lon="9.150342000126763"><ele>12.0</ele><time>2026-05-02T08:51:13Z</time></trkpt><trkpt lat="41.15408501787991" lon="9.149998745810692"><ele>12.0</ele><time>2026-05-02T08:51:14Z</time></trkpt><trkpt lat="41.153973195817144" lon="9.149669350819387"><ele>15.0</ele><time>2026-05-02T08:51:15Z</time></trkpt><trkpt lat="41.153837719793614" lon="9.149346499577026"><ele>18.0</ele><time>2026-05-02T08:51:16Z</time></trkpt><trkpt lat="41.15368958825227" lon="9.149031459197342"><ele>18.0</ele><time>2026-05-02T08:51:17Z</time></trkpt><trkpt lat="41.153537054613984" lon="9.148715765799642"><ele>18.0</ele><time>2026-05-02T08:51:18Z</time></trkpt><trkpt lat="41.15338603318886" lon="9.148401249134915"><ele>17.5</ele><time>2026-05-02T08:51:19Z</time></trkpt><trkpt lat="41.153231872071316" lon="9.148092701213505"><ele>17.0</ele><time>2026-05-02T08:51:20Z</time></trkpt><trkpt lat="41.153093667567255" lon="9.14777323221183"><ele>24.0</ele><time>2026-05-02T08:51:21Z</time></trkpt><trkpt lat="41.15297731311758" lon="9.147470130251275"><ele>31.0</ele><time>2026-05-02T08:51:22Z</time></trkpt><trkpt lat="41.15287021299566" lon="9.147194897719555"><ele>31.0</ele><time>2026-05-02T08:51:23Z</time></trkpt><trkpt lat="41.152752872457185" lon="9.14693480236924"><ele>31.0</ele><time>2026-05-02T08:51:24Z</time></trkpt><trkpt lat="41.1526370629117" lon="9.146673378351435"><ele>31.0</ele><time>2026-05-02T08:51:25Z</time></trkpt><trkpt lat="41.152524268266134" lon="9.146416990809682"><ele>31.0</ele><time>2026-05-02T08:51:26Z</time></trkpt><trkpt lat="41.152410294506" lon="9.146161836033764"><ele>31.0</ele><time>2026-05-02T08:51:27Z</time></trkpt><trkpt lat="41.15230002453954" lon="9.14591353774474"><ele>34.66666666666667</ele><time>2026-05-02T08:51:28Z</time></trkpt><trkpt lat="41.15219049494619" lon="9.14567165760836"><ele>38.333333333333336</ele><time>2026-05-02T08:51:29Z</time></trkpt><trkpt lat="41.15208744693021" lon="9.145425959208833"><ele>42.0</ele><time>2026-05-02T08:51:30Z</time></trkpt><trkpt lat="41.15198863090626" lon="9.145174768897649"><ele>42.0</ele><time>2026-05-02T08:51:31Z</time></trkpt><trkpt lat="41.1518942804342" lon="9.144920162587857"><ele>42.0</ele><time>2026-05-02T08:51:32Z</time></trkpt><trkpt lat="41.151804070914025" lon="9.144667460424447"><ele>42.0</ele><time>2026-05-02T08:51:33Z</time></trkpt><trkpt lat="41.15171320771342" lon="9.144411162510645"><ele>41.333333333333336</ele><time>2026-05-02T08:51:34Z</time></trkpt><trkpt lat="41.15162383300395" lon="9.144151354654646"><ele>40.66666666666667</ele><time>2026-05-02T08:51:35Z</time></trkpt><trkpt lat="41.15152765727238" lon="9.143894619422452"><ele>40.0</ele><time>2026-05-02T08:51:36Z</time></trkpt><trkpt lat="41.15142543736775" lon="9.143630727753015"><ele>40.0</ele><time>2026-05-02T08:51:37Z</time></trkpt><trkpt lat="41.15133376635173" lon="9.14336488548929"><ele>40.0</ele><time>2026-05-02T08:51:38Z</time></trkpt><trkpt lat="41.151238342809414" lon="9.143097546018538"><ele>40.0</ele><time>2026-05-02T08:51:39Z</time></trkpt><trkpt lat="41.15114453499734" lon="9.142829016317446"><ele>38.5</ele><time>2026-05-02T08:51:40Z</time></trkpt><trkpt lat="41.151046037145335" lon="9.142557607608328"><ele>37.0</ele><time>2026-05-02T08:51:41Z</time></trkpt><trkpt lat="41.15094595917592" lon="9.142283540945334"><ele>33.0</ele><time>2026-05-02T08:51:42Z</time></trkpt><trkpt lat="41.15083367748238" lon="9.14201329236794"><ele>29.0</ele><time>2026-05-02T08:51:43Z</time></trkpt><trkpt lat="41.150711152328974" lon="9.141746201804983"><ele>29.5</ele><time>2026-05-02T08:51:44Z</time></trkpt><trkpt lat="41.15058083302139" lon="9.141485440058014"><ele>30.0</ele><time>2026-05-02T08:51:45Z</time></trkpt><trkpt lat="41.1504462136659" lon="9.141226369890395"><ele>30.0</ele><time>2026-05-02T08:51:46Z</time></trkpt><trkpt lat="41.1503095731501" lon="9.140966041872975"><ele>30.0</ele><time>2026-05-02T08:51:47Z</time></trkpt><trkpt lat="41.150171251293166" lon="9.140706056431855"><ele>29.5</ele><time>2026-05-02T08:51:48Z</time></trkpt><trkpt lat="41.150031633962094" lon="9.140436685338072"><ele>29.0</ele><time>2026-05-02T08:51:49Z</time></trkpt><trkpt lat="41.14988972011233" lon="9.1401704753072"><ele>30.5</ele><time>2026-05-02T08:51:50Z</time></trkpt><trkpt lat="41.149740249989485" lon="9.139895941889192"><ele>32.0</ele><time>2026-05-02T08:51:51Z</time></trkpt><trkpt lat="41.149594516655874" lon="9.139631484840839"><ele>32.0</ele><time>2026-05-02T08:51:52Z</time></trkpt><trkpt lat="41.149448077485154" lon="9.139359015523508"><ele>32.0</ele><time>2026-05-02T08:51:53Z</time></trkpt><trkpt lat="41.149300086249255" lon="9.139083976522539"><ele>32.0</ele><time>2026-05-02T08:51:54Z</time></trkpt><trkpt lat="41.14915120249992" lon="9.138804493567893"><ele>32.0</ele><time>2026-05-02T08:51:55Z</time></trkpt><trkpt lat="41.14900141573291" lon="9.138529420880703"><ele>32.0</ele><time>2026-05-02T08:51:56Z</time></trkpt><trkpt lat="41.14885080009635" lon="9.138250697073842"><ele>32.0</ele><time>2026-05-02T08:51:57Z</time></trkpt><trkpt lat="41.14869643908437" lon="9.13796456157994"><ele>29.0</ele><time>2026-05-02T08:51:58Z</time></trkpt><trkpt lat="41.14854239741069" lon="9.137676995153932"><ele>26.0</ele><time>2026-05-02T08:51:59Z</time></trkpt><trkpt lat="41.14839201569496" lon="9.137395030817148"><ele>26.0</ele><time>2026-05-02T08:52:00Z</time></trkpt><trkpt lat="41.14824357167463" lon="9.137112608513345"><ele>26.0</ele><time>2026-05-02T08:52:01Z</time></trkpt><trkpt lat="41.148098844161325" lon="9.136830281157813"><ele>20.0</ele><time>2026-05-02T08:52:02Z</time></trkpt><trkpt lat="41.147950759088424" lon="9.1365467025925"><ele>14.0</ele><time>2026-05-02T08:52:03Z</time></trkpt><trkpt lat="41.14780089771814" lon="9.136271424438728"><ele>14.0</ele><time>2026-05-02T08:52:04Z</time></trkpt><trkpt lat="41.147644883711386" lon="9.135993741782713"><ele>14.0</ele><time>2026-05-02T08:52:05Z</time></trkpt><trkpt lat="41.1474947474815" lon="9.135722351509656"><ele>21.5</ele><time>2026-05-02T08:52:06Z</time></trkpt><trkpt lat="41.147330642008775" lon="9.135466030343771"><ele>29.0</ele><time>2026-05-02T08:52:07Z</time></trkpt><trkpt lat="41.147153209831906" lon="9.135224025634633"><ele>29.0</ele><time>2026-05-02T08:52:08Z</time></trkpt><trkpt lat="41.14696611445821" lon="9.135001426668765"><ele>29.0</ele><time>2026-05-02T08:52:09Z</time></trkpt><trkpt lat="41.146764995016554" lon="9.13479557522069"><ele>29.5</ele><time>2026-05-02T08:52:10Z</time></trkpt><trkpt lat="41.14655060109462" lon="9.134607687223387"><ele>30.0</ele><time>2026-05-02T08:52:11Z</time></trkpt><trkpt lat="41.14632649382294" lon="9.134441013101252"><ele>32.5</ele><time>2026-05-02T08:52:12Z</time></trkpt><trkpt lat="41.14609723064475" lon="9.134298946029668"><ele>35.0</ele><time>2026-05-02T08:52:13Z</time></trkpt><trkpt lat="41.14585757108993" lon="9.134186426822497"><ele>35.0</ele><time>2026-05-02T08:52:14Z</time></trkpt><trkpt lat="41.14560510794114" lon="9.134106763675371"><ele>35.0</ele><time>2026-05-02T08:52:15Z</time></trkpt><trkpt lat="41.14534881763872" lon="9.134050676602351"><ele>33.5</ele><time>2026-05-02T08:52:16Z</time></trkpt><trkpt lat="41.145091005328936" lon="9.134004678335696"><ele>32.0</ele><time>2026-05-02T08:52:17Z</time></trkpt><trkpt lat="41.14483282851617" lon="9.13395179836314"><ele>32.0</ele><time>2026-05-02T08:52:18Z</time></trkpt><trkpt lat="41.14457026790628" lon="9.133897264578978"><ele>32.0</ele><time>2026-05-02T08:52:19Z</time></trkpt><trkpt lat="41.144308663514856" lon="9.133840816522266"><ele>31.5</ele><time>2026-05-02T08:52:20Z</time></trkpt><trkpt lat="41.144046651230425" lon="9.133789617559497"><ele>31.0</ele><time>2026-05-02T08:52:21Z</time></trkpt><trkpt lat="41.143780209591476" lon="9.133743473096962"><ele>31.0</ele><time>2026-05-02T08:52:22Z</time></trkpt><trkpt lat="41.14351555285652" lon="9.133697032563317"><ele>31.0</ele><time>2026-05-02T08:52:23Z</time></trkpt><trkpt lat="41.143250649958965" lon="9.13364350451881"><ele>32.5</ele><time>2026-05-02T08:52:24Z</time></trkpt><trkpt lat="41.142991501272704" lon="9.133576441873256"><ele>34.0</ele><time>2026-05-02T08:52:25Z</time></trkpt><trkpt lat="41.142738390372536" lon="9.133486429164284"><ele>34.0</ele><time>2026-05-02T08:52:26Z</time></trkpt><trkpt lat="41.142491968641984" lon="9.133378204615429"><ele>34.0</ele><time>2026-05-02T08:52:27Z</time></trkpt><trkpt lat="41.14225375064022" lon="9.13324899020224"><ele>35.5</ele><time>2026-05-02T08:52:28Z</time></trkpt><trkpt lat="41.14202521267752" lon="9.133095547850798"><ele>37.0</ele><time>2026-05-02T08:52:29Z</time></trkpt><trkpt lat="41.14180746635693" lon="9.132913484701016"><ele>37.0</ele><time>2026-05-02T08:52:30Z</time></trkpt><trkpt lat="41.14160306604055" lon="9.13271604830543"><ele>37.0</ele><time>2026-05-02T08:52:31Z</time></trkpt><trkpt lat="41.14140721792199" lon="9.132507538961379"><ele>39.0</ele><time>2026-05-02T08:52:32Z</time></trkpt><trkpt lat="41.141220487329555" lon="9.132293070063"><ele>41.0</ele><time>2026-05-02T08:52:33Z</time></trkpt><trkpt lat="41.14103218007663" lon="9.132073610474313"><ele>41.0</ele><time>2026-05-02T08:52:34Z</time></trkpt><trkpt lat="41.14083504892646" lon="9.131858519591638"><ele>41.0</ele><time>2026-05-02T08:52:35Z</time></trkpt><trkpt lat="41.140636494100804" lon="9.1316482355617"><ele>41.0</ele><time>2026-05-02T08:52:36Z</time></trkpt><trkpt lat="41.14043787051742" lon="9.131431780122274"><ele>41.0</ele><time>2026-05-02T08:52:37Z</time></trkpt><trkpt lat="41.14023694832378" lon="9.131208501725366"><ele>41.0</ele><time>2026-05-02T08:52:38Z</time></trkpt><trkpt lat="41.140034865534865" lon="9.130987655997515"><ele>41.0</ele><time>2026-05-02T08:52:39Z</time></trkpt><trkpt lat="41.139833930944505" lon="9.130768246475352"><ele>44.0</ele><time>2026-05-02T08:52:40Z</time></trkpt><trkpt lat="41.1396310511742" lon="9.130547797713499"><ele>47.0</ele><time>2026-05-02T08:52:41Z</time></trkpt><trkpt lat="41.13942673539992" lon="9.130324364256845"><ele>47.0</ele><time>2026-05-02T08:52:42Z</time></trkpt><trkpt lat="41.1392249977357" lon="9.130105530014632"><ele>47.0</ele><time>2026-05-02T08:52:43Z</time></trkpt><trkpt lat="41.13902138693487" lon="9.12988547407482"><ele>48.5</ele><time>2026-05-02T08:52:44Z</time></trkpt><trkpt lat="41.13882395815108" lon="9.129662783823044"><ele>50.0</ele><time>2026-05-02T08:52:45Z</time></trkpt><trkpt lat="41.13862002216869" lon="9.129440899253652"><ele>50.0</ele><time>2026-05-02T08:52:46Z</time></trkpt><trkpt lat="41.138412377995245" lon="9.129223211162026"><ele>50.0</ele><time>2026-05-02T08:52:47Z</time></trkpt><trkpt lat="41.13820541691968" lon="9.128993786406594"><ele>52.0</ele><time>2026-05-02T08:52:48Z</time></trkpt><trkpt lat="41.13800751622778" lon="9.12876505341915"><ele>54.0</ele><time>2026-05-02T08:52:49Z</time></trkpt><trkpt lat="41.13780352505389" lon="9.128540076062079"><ele>54.0</ele><time>2026-05-02T08:52:50Z</time></trkpt><trkpt lat="41.13759788131358" lon="9.128325747228656"><ele>54.0</ele><time>2026-05-02T08:52:51Z</time></trkpt><trkpt lat="41.13739657797842" lon="9.128105033055153"><ele>55.0</ele><time>2026-05-02T08:52:52Z</time></trkpt><trkpt lat="41.137193266960196" lon="9.127879794439117"><ele>56.0</ele><time>2026-05-02T08:52:53Z</time></trkpt><trkpt lat="41.13699108806712" lon="9.127657478081"><ele>56.0</ele><time>2026-05-02T08:52:54Z</time></trkpt><trkpt lat="41.13679154727856" lon="9.127432394425929"><ele>56.0</ele><time>2026-05-02T08:52:55Z</time></trkpt><trkpt lat="41.13659269838585" lon="9.127210090419679"><ele>58.0</ele><time>2026-05-02T08:52:56Z</time></trkpt><trkpt lat="41.13638494991329" lon="9.126996239534746"><ele>60.0</ele><time>2026-05-02T08:52:57Z</time></trkpt><trkpt lat="41.13617926179054" lon="9.126781794626934"><ele>59.0</ele><time>2026-05-02T08:52:58Z</time></trkpt><trkpt lat="41.13597664032103" lon="9.126557071535581"><ele>58.0</ele><time>2026-05-02T08:52:59Z</time></trkpt><trkpt lat="41.13577754397714" lon="9.126330133121742"><ele>60.0</ele><time>2026-05-02T08:53:00Z</time></trkpt><trkpt lat="41.135570862589695" lon="9.126107445003152"><ele>62.0</ele><time>2026-05-02T08:53:01Z</time></trkpt><trkpt lat="41.13536350620244" lon="9.125886779420398"><ele>59.5</ele><time>2026-05-02T08:53:02Z</time></trkpt><trkpt lat="41.13515795364773" lon="9.125663689506526"><ele>57.0</ele><time>2026-05-02T08:53:03Z</time></trkpt><trkpt lat="41.134953411392004" lon="9.125437720666513"><ele>60.5</ele><time>2026-05-02T08:53:04Z</time></trkpt><trkpt lat="41.134748832280714" lon="9.125214064907217"><ele>64.0</ele><time>2026-05-02T08:53:05Z</time></trkpt><trkpt lat="41.13454360462918" lon="9.12498795545738"><ele>63.0</ele><time>2026-05-02T08:53:06Z</time></trkpt><trkpt lat="41.13434051578725" lon="9.124764142669594"><ele>62.0</ele><time>2026-05-02T08:53:07Z</time></trkpt><trkpt lat="41.13414267000263" lon="9.124532688018396"><ele>64.5</ele><time>2026-05-02T08:53:08Z</time></trkpt><trkpt lat="41.13395357491939" lon="9.124285288504542"><ele>67.0</ele><time>2026-05-02T08:53:09Z</time></trkpt><trkpt lat="41.133780459830625" lon="9.124023173694361"><ele>67.0</ele><time>2026-05-02T08:53:10Z</time></trkpt><trkpt lat="41.133610708867494" lon="9.123745788985852"><ele>67.0</ele><time>2026-05-02T08:53:11Z</time></trkpt><trkpt lat="41.13345006117945" lon="9.12346115192449"><ele>66.5</ele><time>2026-05-02T08:53:12Z</time></trkpt><trkpt lat="41.133301266868315" lon="9.123167435957802"><ele>66.0</ele><time>2026-05-02T08:53:13Z</time></trkpt><trkpt lat="41.13315707473769" lon="9.12286503416629"><ele>66.0</ele><time>2026-05-02T08:53:14Z</time></trkpt><trkpt lat="41.13301948610857" lon="9.122562038607613"><ele>66.0</ele><time>2026-05-02T08:53:15Z</time></trkpt><trkpt lat="41.132878365490235" lon="9.122252979008323"><ele>64.0</ele><time>2026-05-02T08:53:16Z</time></trkpt><trkpt lat="41.132736752946016" lon="9.121953699773746"><ele>62.0</ele><time>2026-05-02T08:53:17Z</time></trkpt><trkpt lat="41.132589484653124" lon="9.121655896716982"><ele>61.5</ele><time>2026-05-02T08:53:18Z</time></trkpt><trkpt lat="41.132447566817454" lon="9.121360202747772"><ele>61.0</ele><time>2026-05-02T08:53:19Z</time></trkpt><trkpt lat="41.13231288403232" lon="9.121061463625415"><ele>63.0</ele><time>2026-05-02T08:53:20Z</time></trkpt><trkpt lat="41.13217622127181" lon="9.120765443058056"><ele>65.0</ele><time>2026-05-02T08:53:21Z</time></trkpt><trkpt lat="41.1320357625524" lon="9.120468486719446"><ele>65.0</ele><time>2026-05-02T08:53:22Z</time></trkpt><trkpt lat="41.13189864114946" lon="9.120174649250753"><ele>65.0</ele><time>2026-05-02T08:53:23Z</time></trkpt><trkpt lat="41.13175935754285" lon="9.119875257175826"><ele>64.5</ele><time>2026-05-02T08:53:24Z</time></trkpt><trkpt lat="41.13162070710782" lon="9.119576744235204"><ele>64.0</ele><time>2026-05-02T08:53:25Z</time></trkpt><trkpt lat="41.1314814121364" lon="9.119279501224538"><ele>64.0</ele><time>2026-05-02T08:53:26Z</time></trkpt><trkpt lat="41.13134294750866" lon="9.11898431901823"><ele>64.0</ele><time>2026-05-02T08:53:27Z</time></trkpt><trkpt lat="41.13120110329513" lon="9.118683373152486"><ele>64.0</ele><time>2026-05-02T08:53:28Z</time></trkpt><trkpt lat="41.131060930792685" lon="9.118386454685071"><ele>64.0</ele><time>2026-05-02T08:53:29Z</time></trkpt><trkpt lat="41.130917063265045" lon="9.118081205532228"><ele>62.0</ele><time>2026-05-02T08:53:30Z</time></trkpt><trkpt lat="41.13077373870514" lon="9.117777683317186"><ele>60.0</ele><time>2026-05-02T08:53:31Z</time></trkpt><trkpt lat="41.13063440103519" lon="9.117479314926603"><ele>54.0</ele><time>2026-05-02T08:53:32Z</time></trkpt><trkpt lat="41.130488787697736" lon="9.117164541942252"><ele>48.0</ele><time>2026-05-02T08:53:33Z</time></trkpt><trkpt lat="41.13034388247547" lon="9.116843621046343"><ele>47.5</ele><time>2026-05-02T08:53:34Z</time></trkpt><trkpt lat="41.13019095146127" lon="9.116518002581522"><ele>47.0</ele><time>2026-05-02T08:53:35Z</time></trkpt><trkpt lat="41.1300408019589" lon="9.116202813844335"><ele>49.5</ele><time>2026-05-02T08:53:36Z</time></trkpt><trkpt lat="41.12989002445303" lon="9.115887273490804"><ele>52.0</ele><time>2026-05-02T08:53:37Z</time></trkpt><trkpt lat="41.129741177239055" lon="9.115572548980722"><ele>54.0</ele><time>2026-05-02T08:53:38Z</time></trkpt><trkpt lat="41.129595671005994" lon="9.115263189888788"><ele>56.0</ele><time>2026-05-02T08:53:39Z</time></trkpt><trkpt lat="41.129452167344674" lon="9.114952832909733"><ele>57.5</ele><time>2026-05-02T08:53:40Z</time></trkpt><trkpt lat="41.129304978535295" lon="9.114636252970024"><ele>59.0</ele><time>2026-05-02T08:53:41Z</time></trkpt><trkpt lat="41.12915179257496" lon="9.114312168852258"><ele>62.0</ele><time>2026-05-02T08:53:42Z</time></trkpt><trkpt lat="41.128997262292074" lon="9.113989322830184"><ele>65.0</ele><time>2026-05-02T08:53:43Z</time></trkpt><trkpt lat="41.128855398996066" lon="9.11364116211613"><ele>65.0</ele><time>2026-05-02T08:53:44Z</time></trkpt><trkpt lat="41.128697108906835" lon="9.11332374379444"><ele>65.0</ele><time>2026-05-02T08:53:45Z</time></trkpt><trkpt lat="41.12854677265179" lon="9.11299641298167"><ele>64.0</ele><time>2026-05-02T08:53:46Z</time></trkpt><trkpt lat="41.12839531514128" lon="9.11266670700005"><ele>63.0</ele><time>2026-05-02T08:53:47Z</time></trkpt><trkpt lat="41.12823995927003" lon="9.112330812635241"><ele>64.5</ele><time>2026-05-02T08:53:48Z</time></trkpt><trkpt lat="41.12809808183093" lon="9.11199080662606"><ele>66.0</ele><time>2026-05-02T08:53:49Z</time></trkpt><trkpt lat="41.127978673337424" lon="9.111631982294297"><ele>64.5</ele><time>2026-05-02T08:53:50Z</time></trkpt><trkpt lat="41.127880122484754" lon="9.11126747818407"><ele>63.0</ele><time>2026-05-02T08:53:51Z</time></trkpt><trkpt lat="41.12779048257262" lon="9.110895304549526"><ele>63.0</ele><time>2026-05-02T08:53:52Z</time></trkpt><trkpt lat="41.12771247824798" lon="9.1105165349182"><ele>63.0</ele><time>2026-05-02T08:53:53Z</time></trkpt><trkpt lat="41.12765464936393" lon="9.110140439292534"><ele>63.0</ele><time>2026-05-02T08:53:54Z</time></trkpt><trkpt lat="41.12761185148328" lon="9.109756376692983"><ele>63.0</ele><time>2026-05-02T08:53:55Z</time></trkpt><trkpt lat="41.12758356646005" lon="9.109372816031748"><ele>62.0</ele><time>2026-05-02T08:53:56Z</time></trkpt><trkpt lat="41.12757481064964" lon="9.108990281687609"><ele>61.0</ele><time>2026-05-02T08:53:57Z</time></trkpt><trkpt lat="41.127576499305576" lon="9.108601236803878"><ele>60.5</ele><time>2026-05-02T08:53:58Z</time></trkpt><trkpt lat="41.12757341389486" lon="9.108218730681404"><ele>60.0</ele><time>2026-05-02T08:53:58.999Z</time></trkpt><trkpt lat="41.12756810913648" lon="9.107841114221822"><ele>60.0</ele><time>2026-05-02T08:53:59.999Z</time></trkpt><trkpt lat="41.127559996026456" lon="9.10745641658213"><ele>60.0</ele><time>2026-05-02T08:54:00.999Z</time></trkpt><trkpt lat="41.127554724534" lon="9.10707432375083"><ele>60.0</ele><time>2026-05-02T08:54:01.999Z</time></trkpt><trkpt lat="41.12755028431109" lon="9.10669530685933"><ele>60.0</ele><time>2026-05-02T08:54:02.999Z</time></trkpt><trkpt lat="41.12754338890521" lon="9.106314049934038"><ele>60.0</ele><time>2026-05-02T08:54:03.999Z</time></trkpt><trkpt lat="41.12753374777234" lon="9.10592872687189"><ele>60.0</ele><time>2026-05-02T08:54:04.999Z</time></trkpt><trkpt lat="41.12752390705525" lon="9.105547566435545"><ele>59.5</ele><time>2026-05-02T08:54:05.999Z</time></trkpt><trkpt lat="41.12751050144449" lon="9.105162093556618"><ele>59.0</ele><time>2026-05-02T08:54:06.999Z</time></trkpt><trkpt lat="41.127496852332804" lon="9.104781686057967"><ele>59.0</ele><time>2026-05-02T08:54:07.999Z</time></trkpt><trkpt lat="41.12748586524966" lon="9.10439777110024"><ele>59.0</ele><time>2026-05-02T08:54:08.999Z</time></trkpt><trkpt lat="41.127479032122466" lon="9.104010557595153"><ele>60.5</ele><time>2026-05-02T08:54:09.999Z</time></trkpt><trkpt lat="41.127473038321625" lon="9.10363076784947"><ele>62.0</ele><time>2026-05-02T08:54:10.999Z</time></trkpt><trkpt lat="41.127467684750535" lon="9.103255793683568"><ele>62.5</ele><time>2026-05-02T08:54:11.999Z</time></trkpt><trkpt lat="41.12746009592497" lon="9.102875388511425"><ele>63.0</ele><time>2026-05-02T08:54:12.999Z</time></trkpt><trkpt lat="41.12745453211138" lon="9.102496404970628"><ele>63.5</ele><time>2026-05-02T08:54:13.999Z</time></trkpt><trkpt lat="41.127448257767256" lon="9.102113283479786"><ele>64.0</ele><time>2026-05-02T08:54:14.999Z</time></trkpt><trkpt lat="41.12743929950521" lon="9.101728086414077"><ele>63.5</ele><time>2026-05-02T08:54:15.999Z</time></trkpt><trkpt lat="41.127434254720995" lon="9.101347260804847"><ele>63.0</ele><time>2026-05-02T08:54:16.999Z</time></trkpt><trkpt lat="41.127422958540805" lon="9.100960397886459"><ele>61.0</ele><time>2026-05-02T08:54:17.999Z</time></trkpt><trkpt lat="41.127414074815945" lon="9.100570464726617"><ele>59.0</ele><time>2026-05-02T08:54:18.999Z</time></trkpt><trkpt lat="41.127406049052006" lon="9.100188570022837"><ele>57.5</ele><time>2026-05-02T08:54:19.999Z</time></trkpt><trkpt lat="41.12740283642414" lon="9.099784679626175"><ele>56.0</ele><time>2026-05-02T08:54:20.999Z</time></trkpt><trkpt lat="41.12739550284525" lon="9.099393025941133"><ele>57.0</ele><time>2026-05-02T08:54:21.999Z</time></trkpt><trkpt lat="41.12738754442382" lon="9.09899578732125"><ele>58.0</ele><time>2026-05-02T08:54:22.999Z</time></trkpt><trkpt lat="41.12738110104662" lon="9.098603869789365"><ele>58.0</ele><time>2026-05-02T08:54:23.999Z</time></trkpt><trkpt lat="41.12737934727388" lon="9.098215323458449"><ele>58.0</ele><time>2026-05-02T08:54:24.999Z</time></trkpt><trkpt lat="41.12738437883095" lon="9.097825676256164"><ele>55.5</ele><time>2026-05-02T08:54:25.999Z</time></trkpt><trkpt lat="41.127395116898285" lon="9.097443267999182"><ele>53.0</ele><time>2026-05-02T08:54:26.999Z</time></trkpt><trkpt lat="41.12741496222379" lon="9.097063603623033"><ele>52.5</ele><time>2026-05-02T08:54:27.999Z</time></trkpt><trkpt lat="41.1274346633836" lon="9.09668407705731"><ele>52.0</ele><time>2026-05-02T08:54:28.999Z</time></trkpt><trkpt lat="41.12746036615041" lon="9.096302762721576"><ele>50.5</ele><time>2026-05-02T08:54:29.999Z</time></trkpt><trkpt lat="41.12747980709203" lon="9.095919184074862"><ele>49.0</ele><time>2026-05-02T08:54:31Z</time></trkpt><trkpt lat="41.12750632394915" lon="9.095532336286901"><ele>46.5</ele><time>2026-05-02T08:54:32Z</time></trkpt><trkpt lat="41.127533445270636" lon="9.095146270930297"><ele>44.0</ele><time>2026-05-02T08:54:33Z</time></trkpt><trkpt lat="41.12756178577818" lon="9.094761141718601"><ele>40.5</ele><time>2026-05-02T08:54:34Z</time></trkpt><trkpt lat="41.12759127368841" lon="9.094379385365102"><ele>37.0</ele><time>2026-05-02T08:54:35Z</time></trkpt><trkpt lat="41.127613022382434" lon="9.093995875441786"><ele>34.0</ele><time>2026-05-02T08:54:36Z</time></trkpt><trkpt lat="41.12763071768732" lon="9.093609828041789"><ele>31.0</ele><time>2026-05-02T08:54:37Z</time></trkpt><trkpt lat="41.12763794131087" lon="9.093228136051787"><ele>29.0</ele><time>2026-05-02T08:54:38Z</time></trkpt><trkpt lat="41.127628838727226" lon="9.092845526078385"><ele>27.0</ele><time>2026-05-02T08:54:39Z</time></trkpt><trkpt lat="41.12759997295994" lon="9.092469145288108"><ele>24.5</ele><time>2026-05-02T08:54:40Z</time></trkpt><trkpt lat="41.127549227998074" lon="9.092094497077248"><ele>22.0</ele><time>2026-05-02T08:54:41Z</time></trkpt><trkpt lat="41.127478077458186" lon="9.0917269884837"><ele>16.0</ele><time>2026-05-02T08:54:42Z</time></trkpt><trkpt lat="41.12739180781779" lon="9.091360638116983"><ele>10.0</ele><time>2026-05-02T08:54:43Z</time></trkpt><trkpt lat="41.127296696254945" lon="9.090997514313752"><ele>10.0</ele><time>2026-05-02T08:54:44Z</time></trkpt><trkpt lat="41.127196532050185" lon="9.090636665299149"><ele>10.0</ele><time>2026-05-02T08:54:45Z</time></trkpt><trkpt lat="41.12709469654291" lon="9.090276881321408"><ele>10.0</ele><time>2026-05-02T08:54:46Z</time></trkpt><trkpt lat="41.127001855714894" lon="9.08991525800163"><ele>10.0</ele><time>2026-05-02T08:54:47Z</time></trkpt><trkpt lat="41.12690130311505" lon="9.089551465686382"><ele>10.0</ele><time>2026-05-02T08:54:48Z</time></trkpt><trkpt lat="41.12680030078056" lon="9.0891939193522"><ele>10.0</ele><time>2026-05-02T08:54:49Z</time></trkpt><trkpt lat="41.12670071873256" lon="9.088838572588962"><ele>10.5</ele><time>2026-05-02T08:54:50Z</time></trkpt><trkpt lat="41.126601835316585" lon="9.088489798800952"><ele>11.0</ele><time>2026-05-02T08:54:51Z</time></trkpt><trkpt lat="41.12650282569598" lon="9.088143771253518"><ele>13.5</ele><time>2026-05-02T08:54:52Z</time></trkpt><trkpt lat="41.12640880476184" lon="9.087791177600874"><ele>16.0</ele><time>2026-05-02T08:54:53Z</time></trkpt><trkpt lat="41.12631639449047" lon="9.087441524991233"><ele>15.5</ele><time>2026-05-02T08:54:54Z</time></trkpt><trkpt lat="41.126228107005694" lon="9.08708800043513"><ele>15.0</ele><time>2026-05-02T08:54:55Z</time></trkpt><trkpt lat="41.12612341457738" lon="9.086734502640672"><ele>15.0</ele><time>2026-05-02T08:54:56Z</time></trkpt><trkpt lat="41.12602880978571" lon="9.086375180685907"><ele>15.0</ele><time>2026-05-02T08:54:57Z</time></trkpt><trkpt lat="41.125932097645666" lon="9.086017281660077"><ele>15.5</ele><time>2026-05-02T08:54:58Z</time></trkpt><trkpt lat="41.125834158940116" lon="9.085654915256619"><ele>16.0</ele><time>2026-05-02T08:54:59Z</time></trkpt><trkpt lat="41.1257359993548" lon="9.08529095055834"><ele>16.0</ele><time>2026-05-02T08:55:00Z</time></trkpt><trkpt lat="41.12563983225153" lon="9.084925675109478"><ele>16.0</ele><time>2026-05-02T08:55:01Z</time></trkpt><trkpt lat="41.1255545011568" lon="9.08455461233014"><ele>16.0</ele><time>2026-05-02T08:55:02Z</time></trkpt><trkpt lat="41.1254877182045" lon="9.08417205330836"><ele>16.0</ele><time>2026-05-02T08:55:03Z</time></trkpt><trkpt lat="41.12543276195819" lon="9.083788865853215"><ele>16.0</ele><time>2026-05-02T08:55:04Z</time></trkpt><trkpt lat="41.12539247026771" lon="9.083398189991533"><ele>16.0</ele><time>2026-05-02T08:55:05Z</time></trkpt><trkpt lat="41.12536152913731" lon="9.083008674296758"><ele>16.0</ele><time>2026-05-02T08:55:06Z</time></trkpt><trkpt lat="41.12534252973001" lon="9.082611300997048"><ele>16.0</ele><time>2026-05-02T08:55:07Z</time></trkpt><trkpt lat="41.125330110708525" lon="9.082209447226965"><ele>15.0</ele><time>2026-05-02T08:55:08Z</time></trkpt><trkpt lat="41.12533057379746" lon="9.081803351551505"><ele>14.0</ele><time>2026-05-02T08:55:09Z</time></trkpt><trkpt lat="41.1253049717564" lon="9.081376625220912"><ele>13.5</ele><time>2026-05-02T08:55:10Z</time></trkpt><trkpt lat="41.12528345450844" lon="9.080949988812444"><ele>13.0</ele><time>2026-05-02T08:55:11Z</time></trkpt><trkpt lat="41.12526200053764" lon="9.080512681464182"><ele>12.5</ele><time>2026-05-02T08:55:12Z</time></trkpt><trkpt lat="41.12523527986463" lon="9.080065484282313"><ele>12.0</ele><time>2026-05-02T08:55:13Z</time></trkpt><trkpt lat="41.12521942713404" lon="9.079623138076608"><ele>12.0</ele><time>2026-05-02T08:55:14Z</time></trkpt><trkpt lat="41.125199688391234" lon="9.079173947681811"><ele>12.0</ele><time>2026-05-02T08:55:15Z</time></trkpt><trkpt lat="41.12517760591291" lon="9.078717715950056"><ele>11.5</ele><time>2026-05-02T08:55:16Z</time></trkpt><trkpt lat="41.12515374694961" lon="9.078264080175089"><ele>11.0</ele><time>2026-05-02T08:55:17Z</time></trkpt><trkpt lat="41.12513192563425" lon="9.07781253542745"><ele>11.0</ele><time>2026-05-02T08:55:18Z</time></trkpt><trkpt lat="41.125116017875946" lon="9.077369529872334"><ele>11.0</ele><time>2026-05-02T08:55:19Z</time></trkpt><trkpt lat="41.12510196546781" lon="9.076919408047855"><ele>11.5</ele><time>2026-05-02T08:55:20Z</time></trkpt><trkpt lat="41.12508465131365" lon="9.0764766337259"><ele>12.0</ele><time>2026-05-02T08:55:21Z</time></trkpt><trkpt lat="41.1250632921465" lon="9.076032366543528"><ele>13.5</ele><time>2026-05-02T08:55:22Z</time></trkpt><trkpt lat="41.125045494971516" lon="9.07558661283758"><ele>15.0</ele><time>2026-05-02T08:55:23Z</time></trkpt><trkpt lat="41.12502798896179" lon="9.075140815568673"><ele>15.5</ele><time>2026-05-02T08:55:24Z</time></trkpt><trkpt lat="41.1250125512367" lon="9.07469713142911"><ele>16.0</ele><time>2026-05-02T08:55:25Z</time></trkpt><trkpt lat="41.12499703361334" lon="9.074257621139404"><ele>16.0</ele><time>2026-05-02T08:55:26Z</time></trkpt><trkpt lat="41.12497618839558" lon="9.073808367767846"><ele>16.0</ele><time>2026-05-02T08:55:27Z</time></trkpt><trkpt lat="41.124955072074414" lon="9.07336197475978"><ele>15.5</ele><time>2026-05-02T08:55:28Z</time></trkpt><trkpt lat="41.12493059518524" lon="9.072942308028919"><ele>15.0</ele><time>2026-05-02T08:55:29Z</time></trkpt><trkpt lat="41.124885424573" lon="9.072556740697351"><ele>16.0</ele><time>2026-05-02T08:55:30Z</time></trkpt><trkpt lat="41.12481912032744" lon="9.072197342471407"><ele>17.0</ele><time>2026-05-02T08:55:31Z</time></trkpt><trkpt lat="41.124738326643524" lon="9.071854961361671"><ele>15.5</ele><time>2026-05-02T08:55:32Z</time></trkpt><trkpt lat="41.124629572391854" lon="9.071516471986847"><ele>14.0</ele><time>2026-05-02T08:55:33Z</time></trkpt><trkpt lat="41.124506228411484" lon="9.071193339735153"><ele>14.0</ele><time>2026-05-02T08:55:34Z</time></trkpt><trkpt lat="41.12435980264473" lon="9.070875105837526"><ele>14.0</ele><time>2026-05-02T08:55:35Z</time></trkpt><trkpt lat="41.12419927342971" lon="9.07057192204719"><ele>13.5</ele><time>2026-05-02T08:55:36Z</time></trkpt><trkpt lat="41.1240236567951" lon="9.070291535804877"><ele>13.0</ele><time>2026-05-02T08:55:37Z</time></trkpt><trkpt lat="41.12384024594617" lon="9.070040222122499"><ele>12.5</ele><time>2026-05-02T08:55:38Z</time></trkpt><trkpt lat="41.12366003026332" lon="9.069819255716933"><ele>12.0</ele><time>2026-05-02T08:55:39Z</time></trkpt><trkpt lat="41.12349390450717" lon="9.069608789238227"><ele>12.0</ele><time>2026-05-02T08:55:40Z</time></trkpt><trkpt lat="41.12333928672401" lon="9.069408234178638"><ele>12.0</ele><time>2026-05-02T08:55:41Z</time></trkpt><trkpt lat="41.12319318640648" lon="9.069220915211437"><ele>12.0</ele><time>2026-05-02T08:55:42Z</time></trkpt><trkpt lat="41.12306700660879" lon="9.069059625897445"><ele>12.0</ele><time>2026-05-02T08:55:43Z</time></trkpt><trkpt lat="41.122982646172694" lon="9.068908724555156"><ele>12.0</ele><time>2026-05-02T08:55:44Z</time></trkpt><trkpt lat="41.12295571908736" lon="9.06874017789987"><ele>12.0</ele><time>2026-05-02T08:55:45Z</time></trkpt><trkpt lat="41.12290814938281" lon="9.068597941442153"><ele>12.0</ele><time>2026-05-02T08:55:46Z</time></trkpt><trkpt lat="41.12280165633843" lon="9.068528118502575"><ele>12.0</ele><time>2026-05-02T08:55:47Z</time></trkpt><trkpt lat="41.12266718102304" lon="9.068486931867636"><ele>12.0</ele><time>2026-05-02T08:55:48Z</time></trkpt><trkpt lat="41.12254686911387" lon="9.068405192196675"><ele>12.0</ele><time>2026-05-02T08:55:49Z</time></trkpt><trkpt lat="41.12243038758818" lon="9.068259219533342"><ele>12.0</ele><time>2026-05-02T08:55:50Z</time></trkpt><trkpt lat="41.12230186428518" lon="9.068095598153686"><ele>12.333333333333332</ele><time>2026-05-02T08:55:51Z</time></trkpt><trkpt lat="41.122161401154194" lon="9.067918797314588"><ele>12.666666666666666</ele><time>2026-05-02T08:55:52Z</time></trkpt><trkpt lat="41.122020416390065" lon="9.067737277176333"><ele>13.0</ele><time>2026-05-02T08:55:53Z</time></trkpt><trkpt lat="41.12187194554578" lon="9.067545456402424"><ele>13.333333333333332</ele><time>2026-05-02T08:55:54Z</time></trkpt><trkpt lat="41.12171751628565" lon="9.067345415972806"><ele>13.666666666666668</ele><time>2026-05-02T08:55:55Z</time></trkpt><trkpt lat="41.121555704772994" lon="9.067141985297692"><ele>14.0</ele><time>2026-05-02T08:55:56Z</time></trkpt><trkpt lat="41.121380663846054" lon="9.066940252688385"><ele>15.5</ele><time>2026-05-02T08:55:57Z</time></trkpt><trkpt lat="41.12118224815311" lon="9.066754822360457"><ele>17.0</ele><time>2026-05-02T08:55:58Z</time></trkpt><trkpt lat="41.12097215956824" lon="9.066612253400912"><ele>17.666666666666668</ele><time>2026-05-02T08:55:59Z</time></trkpt><trkpt lat="41.12075962881287" lon="9.066519445622832"><ele>18.333333333333332</ele><time>2026-05-02T08:56:00Z</time></trkpt><trkpt lat="41.12054096529558" lon="9.066445696831021"><ele>19.0</ele><time>2026-05-02T08:56:01Z</time></trkpt><trkpt lat="41.12032731769657" lon="9.066405453584991"><ele>20.0</ele><time>2026-05-02T08:56:02Z</time></trkpt><trkpt lat="41.120124155960205" lon="9.06639040345943"><ele>21.0</ele><time>2026-05-02T08:56:03Z</time></trkpt><trkpt lat="41.11991421293178" lon="9.066379516036537"><ele>22.0</ele><time>2026-05-02T08:56:04Z</time></trkpt><trkpt lat="41.11970052053875" lon="9.066383419698909"><ele>22.333333333333332</ele><time>2026-05-02T08:56:04.999Z</time></trkpt><trkpt lat="41.11947879361585" lon="9.06638208960548"><ele>22.666666666666668</ele><time>2026-05-02T08:56:05.999Z</time></trkpt><trkpt lat="41.119256992001596" lon="9.066368029767782"><ele>23.0</ele><time>2026-05-02T08:56:06.999Z</time></trkpt><trkpt lat="41.11902769589815" lon="9.0663315803505"><ele>22.0</ele><time>2026-05-02T08:56:07.999Z</time></trkpt><trkpt lat="41.11880435670821" lon="9.066266123241208"><ele>21.0</ele><time>2026-05-02T08:56:08.999Z</time></trkpt><trkpt lat="41.1185776071865" lon="9.066173230620448"><ele>21.0</ele><time>2026-05-02T08:56:09.999Z</time></trkpt><trkpt lat="41.118356683121384" lon="9.066043395377699"><ele>21.0</ele><time>2026-05-02T08:56:10.999Z</time></trkpt><trkpt lat="41.11814489807838" lon="9.065888112535667"><ele>21.0</ele><time>2026-05-02T08:56:11.999Z</time></trkpt><trkpt lat="41.11793848648786" lon="9.065706779243742"><ele>21.0</ele><time>2026-05-02T08:56:12.999Z</time></trkpt><trkpt lat="41.11771124379529" lon="9.065561447458778"><ele>21.0</ele><time>2026-05-02T08:56:13.999Z</time></trkpt><trkpt lat="41.1174717479022" lon="9.065410698631306"><ele>21.0</ele><time>2026-05-02T08:56:14.999Z</time></trkpt><trkpt lat="41.117235108286785" lon="9.065252712670231"><ele>21.0</ele><time>2026-05-02T08:56:15.999Z</time></trkpt><trkpt lat="41.116997020070954" lon="9.06508860189281"><ele>21.0</ele><time>2026-05-02T08:56:16.999Z</time></trkpt><trkpt lat="41.11675411680588" lon="9.064931292305147"><ele>22.0</ele><time>2026-05-02T08:56:18Z</time></trkpt><trkpt lat="41.116507389501585" lon="9.06478101608082"><ele>23.0</ele><time>2026-05-02T08:56:19Z</time></trkpt><trkpt lat="41.116259467350005" lon="9.06462253673235"><ele>23.0</ele><time>2026-05-02T08:56:20Z</time></trkpt><trkpt lat="41.116017391944936" lon="9.064456861449262"><ele>23.0</ele><time>2026-05-02T08:56:21Z</time></trkpt><trkpt lat="41.115783199815226" lon="9.064293599847904"><ele>23.5</ele><time>2026-05-02T08:56:22Z</time></trkpt><trkpt lat="41.11554885090579" lon="9.064136391665762"><ele>24.0</ele><time>2026-05-02T08:56:23Z</time></trkpt><trkpt lat="41.115321428536085" lon="9.063979879259163"><ele>25.5</ele><time>2026-05-02T08:56:24Z</time></trkpt><trkpt lat="41.11509843326857" lon="9.063826936410031"><ele>27.0</ele><time>2026-05-02T08:56:25Z</time></trkpt><trkpt lat="41.114873763880134" lon="9.063676922470199"><ele>27.0</ele><time>2026-05-02T08:56:26Z</time></trkpt><trkpt lat="41.114650518011224" lon="9.063530528263902"><ele>27.0</ele><time>2026-05-02T08:56:27Z</time></trkpt><trkpt lat="41.11442549564094" lon="9.063383141560779"><ele>28.5</ele><time>2026-05-02T08:56:28Z</time></trkpt><trkpt lat="41.11420258719509" lon="9.063235161269269"><ele>30.0</ele><time>2026-05-02T08:56:29Z</time></trkpt><trkpt lat="41.11397867349523" lon="9.063085459759405"><ele>30.0</ele><time>2026-05-02T08:56:30Z</time></trkpt><trkpt lat="41.11374795217506" lon="9.062929891416143"><ele>30.0</ele><time>2026-05-02T08:56:31Z</time></trkpt><trkpt lat="41.113513208199976" lon="9.062777998572813"><ele>30.0</ele><time>2026-05-02T08:56:32Z</time></trkpt><trkpt lat="41.11326718594561" lon="9.062627290613564"><ele>30.0</ele><time>2026-05-02T08:56:33Z</time></trkpt><trkpt lat="41.11301986434667" lon="9.062461066739276"><ele>33.5</ele><time>2026-05-02T08:56:34Z</time></trkpt><trkpt lat="41.11278125488419" lon="9.062281746759941"><ele>37.0</ele><time>2026-05-02T08:56:35Z</time></trkpt><trkpt lat="41.112534856368065" lon="9.062113801973682"><ele>37.5</ele><time>2026-05-02T08:56:36Z</time></trkpt><trkpt lat="41.11226504340142" lon="9.061978744255244"><ele>38.0</ele><time>2026-05-02T08:56:37Z</time></trkpt><trkpt lat="41.11198098439685" lon="9.061880394084746"><ele>38.0</ele><time>2026-05-02T08:56:38Z</time></trkpt><trkpt lat="41.11169730715032" lon="9.06178622050806"><ele>38.0</ele><time>2026-05-02T08:56:39Z</time></trkpt><trkpt lat="41.11142887025988" lon="9.061684257322552"><ele>41.5</ele><time>2026-05-02T08:56:40Z</time></trkpt><trkpt lat="41.111165483150856" lon="9.061578071934273"><ele>45.0</ele><time>2026-05-02T08:56:41Z</time></trkpt><trkpt lat="41.11090272017187" lon="9.061471741041752"><ele>45.5</ele><time>2026-05-02T08:56:42Z</time></trkpt><trkpt lat="41.11064245886997" lon="9.06136319195088"><ele>46.0</ele><time>2026-05-02T08:56:43Z</time></trkpt><trkpt lat="41.11038632495865" lon="9.061266669949296"><ele>46.0</ele><time>2026-05-02T08:56:44Z</time></trkpt><trkpt lat="41.110147400092444" lon="9.061211914435638"><ele>46.0</ele><time>2026-05-02T08:56:45Z</time></trkpt><trkpt lat="41.10990016273404" lon="9.061208536128568"><ele>46.5</ele><time>2026-05-02T08:56:46Z</time></trkpt><trkpt lat="41.10964907061909" lon="9.061246107699157"><ele>47.0</ele><time>2026-05-02T08:56:47Z</time></trkpt><trkpt lat="41.10940153828603" lon="9.061313112143548"><ele>47.0</ele><time>2026-05-02T08:56:48Z</time></trkpt><trkpt lat="41.109168861441916" lon="9.061420839759066"><ele>47.0</ele><time>2026-05-02T08:56:49Z</time></trkpt><trkpt lat="41.108937704289104" lon="9.061566504408617"><ele>42.0</ele><time>2026-05-02T08:56:50Z</time></trkpt><trkpt lat="41.108719051917234" lon="9.061731162140497"><ele>37.0</ele><time>2026-05-02T08:56:51Z</time></trkpt><trkpt lat="41.10849997474393" lon="9.061907433625635"><ele>37.0</ele><time>2026-05-02T08:56:52Z</time></trkpt><trkpt lat="41.108277879702825" lon="9.062081141570657"><ele>37.0</ele><time>2026-05-02T08:56:53Z</time></trkpt><trkpt lat="41.108051922088414" lon="9.062247356289241"><ele>38.5</ele><time>2026-05-02T08:56:54Z</time></trkpt><trkpt lat="41.10782995500919" lon="9.062405724849578"><ele>40.0</ele><time>2026-05-02T08:56:55Z</time></trkpt><trkpt lat="41.10761503244311" lon="9.062562541537323"><ele>36.5</ele><time>2026-05-02T08:56:56Z</time></trkpt><trkpt lat="41.10740341855601" lon="9.062719550166937"><ele>33.0</ele><time>2026-05-02T08:56:57Z</time></trkpt><trkpt lat="41.10720676452928" lon="9.062868959790839"><ele>33.0</ele><time>2026-05-02T08:56:58Z</time></trkpt><trkpt lat="41.107020328361216" lon="9.06302391022159"><ele>33.0</ele><time>2026-05-02T08:56:59Z</time></trkpt><trkpt lat="41.10684634168924" lon="9.063199718171541"><ele>33.0</ele><time>2026-05-02T08:57:00Z</time></trkpt><trkpt lat="41.106684360207375" lon="9.063402838705413"><ele>27.5</ele><time>2026-05-02T08:57:01Z</time></trkpt><trkpt lat="41.10652968063685" lon="9.06362938090731"><ele>22.0</ele><time>2026-05-02T08:57:02Z</time></trkpt><trkpt lat="41.10637864425214" lon="9.063865703464396"><ele>22.0</ele><time>2026-05-02T08:57:03Z</time></trkpt><trkpt lat="41.10622389095702" lon="9.064104398033992"><ele>22.0</ele><time>2026-05-02T08:57:04Z</time></trkpt><trkpt lat="41.10606191184844" lon="9.06434234109231"><ele>22.666666666666664</ele><time>2026-05-02T08:57:05Z</time></trkpt><trkpt lat="41.105900078069475" lon="9.064556383981238"><ele>23.333333333333332</ele><time>2026-05-02T08:57:06Z</time></trkpt><trkpt lat="41.105728734880856" lon="9.064730203612203"><ele>24.0</ele><time>2026-05-02T08:57:07Z</time></trkpt><trkpt lat="41.10553522171818" lon="9.064862355791043"><ele>24.0</ele><time>2026-05-02T08:57:08Z</time></trkpt><trkpt lat="41.10532599431147" lon="9.06493937659196"><ele>24.0</ele><time>2026-05-02T08:57:09Z</time></trkpt><trkpt lat="41.10511508488796" lon="9.064971857435092"><ele>24.0</ele><time>2026-05-02T08:57:10Z</time></trkpt><trkpt lat="41.104897002406915" lon="9.064968566246506"><ele>24.0</ele><time>2026-05-02T08:57:11Z</time></trkpt><trkpt lat="41.10467796124891" lon="9.064913867363094"><ele>24.0</ele><time>2026-05-02T08:57:12Z</time></trkpt><trkpt lat="41.10446661214132" lon="9.064803033304036"><ele>24.0</ele><time>2026-05-02T08:57:13Z</time></trkpt><trkpt lat="41.10426429805168" lon="9.064651204641809"><ele>24.0</ele><time>2026-05-02T08:57:14Z</time></trkpt><trkpt lat="41.10406602056817" lon="9.064497301284714"><ele>24.0</ele><time>2026-05-02T08:57:15Z</time></trkpt><trkpt lat="41.103859516135884" lon="9.064347254239246"><ele>24.0</ele><time>2026-05-02T08:57:16Z</time></trkpt><trkpt lat="41.10365605481464" lon="9.064207588212525"><ele>23.666666666666668</ele><time>2026-05-02T08:57:17Z</time></trkpt><trkpt lat="41.103473437255325" lon="9.06408583439565"><ele>23.333333333333336</ele><time>2026-05-02T08:57:18Z</time></trkpt><trkpt lat="41.10330781214011" lon="9.06392081548689"><ele>23.0</ele><time>2026-05-02T08:57:19Z</time></trkpt><trkpt lat="41.1031626643279" lon="9.063721318243248"><ele>23.0</ele><time>2026-05-02T08:57:20Z</time></trkpt><trkpt lat="41.1030348585207" lon="9.06349467650537"><ele>23.0</ele><time>2026-05-02T08:57:21Z</time></trkpt><trkpt lat="41.10293617951722" lon="9.063241459367795"><ele>23.0</ele><time>2026-05-02T08:57:22Z</time></trkpt><trkpt lat="41.102865758368104" lon="9.062963281733902"><ele>24.5</ele><time>2026-05-02T08:57:23Z</time></trkpt><trkpt lat="41.102836117855546" lon="9.062669175932093"><ele>26.0</ele><time>2026-05-02T08:57:24Z</time></trkpt><trkpt lat="41.10283074322452" lon="9.062362962670809"><ele>27.0</ele><time>2026-05-02T08:57:25Z</time></trkpt><trkpt lat="41.10282703129982" lon="9.062048031870994"><ele>28.0</ele><time>2026-05-02T08:57:26Z</time></trkpt><trkpt lat="41.102809672791984" lon="9.061726507089162"><ele>29.0</ele><time>2026-05-02T08:57:27Z</time></trkpt><trkpt lat="41.10280821642404" lon="9.061398791685283"><ele>30.0</ele><time>2026-05-02T08:57:28Z</time></trkpt><trkpt lat="41.10280350361346" lon="9.061069009157713"><ele>30.5</ele><time>2026-05-02T08:57:29Z</time></trkpt><trkpt lat="41.1028120876482" lon="9.060729838165543"><ele>31.0</ele><time>2026-05-02T08:57:30Z</time></trkpt><trkpt lat="41.10280829511338" lon="9.060388113214263"><ele>31.0</ele><time>2026-05-02T08:57:31Z</time></trkpt><trkpt lat="41.102803407568146" lon="9.060037951924315"><ele>31.0</ele><time>2026-05-02T08:57:32Z</time></trkpt><trkpt lat="41.1027985457933" lon="9.059689637184702"><ele>31.5</ele><time>2026-05-02T08:57:33Z</time></trkpt><trkpt lat="41.1027785086796" lon="9.059343237292385"><ele>32.0</ele><time>2026-05-02T08:57:34Z</time></trkpt><trkpt lat="41.10278884007526" lon="9.058992135412776"><ele>33.0</ele><time>2026-05-02T08:57:35Z</time></trkpt><trkpt lat="41.10278408727391" lon="9.058639096138513"><ele>34.0</ele><time>2026-05-02T08:57:36Z</time></trkpt><trkpt lat="41.10277938540181" lon="9.058289839842045"><ele>34.5</ele><time>2026-05-02T08:57:37Z</time></trkpt><trkpt lat="41.10277347279241" lon="9.057940138543625"><ele>35.0</ele><time>2026-05-02T08:57:38Z</time></trkpt><trkpt lat="41.102760190111354" lon="9.057588731472018"><ele>35.5</ele><time>2026-05-02T08:57:39Z</time></trkpt><trkpt lat="41.10272280672894" lon="9.057241685616889"><ele>36.0</ele><time>2026-05-02T08:57:40Z</time></trkpt><trkpt lat="41.102689087129036" lon="9.056892701343198"><ele>37.0</ele><time>2026-05-02T08:57:41Z</time></trkpt><trkpt lat="41.102643370488074" lon="9.05654504056414"><ele>38.0</ele><time>2026-05-02T08:57:42Z</time></trkpt><trkpt lat="41.1026205810765" lon="9.056189960913605"><ele>38.0</ele><time>2026-05-02T08:57:43Z</time></trkpt><trkpt lat="41.102584708165885" lon="9.055846715113656"><ele>38.0</ele><time>2026-05-02T08:57:44Z</time></trkpt><trkpt lat="41.10254805353281" lon="9.055495989508968"><ele>40.5</ele><time>2026-05-02T08:57:45Z</time></trkpt><trkpt lat="41.10251124618772" lon="9.055143802700409"><ele>43.0</ele><time>2026-05-02T08:57:46Z</time></trkpt><trkpt lat="41.10247396254485" lon="9.05478705804033"><ele>44.5</ele><time>2026-05-02T08:57:47Z</time></trkpt><trkpt lat="41.10243663230964" lon="9.054433480280284"><ele>46.0</ele><time>2026-05-02T08:57:48Z</time></trkpt><trkpt lat="41.102399775848106" lon="9.054083949697247"><ele>42.5</ele><time>2026-05-02T08:57:49Z</time></trkpt><trkpt lat="41.10236139743344" lon="9.053733429864733"><ele>39.0</ele><time>2026-05-02T08:57:50Z</time></trkpt><trkpt lat="41.10229229826911" lon="9.053385434278695"><ele>40.5</ele><time>2026-05-02T08:57:51Z</time></trkpt><trkpt lat="41.102243579903316" lon="9.053031277858516"><ele>42.0</ele><time>2026-05-02T08:57:52Z</time></trkpt><trkpt lat="41.10219113248866" lon="9.052675104146733"><ele>42.0</ele><time>2026-05-02T08:57:53Z</time></trkpt><trkpt lat="41.102139220754566" lon="9.05230747006935"><ele>42.0</ele><time>2026-05-02T08:57:54Z</time></trkpt><trkpt lat="41.10208699641034" lon="9.051948356372494"><ele>42.5</ele><time>2026-05-02T08:57:55Z</time></trkpt><trkpt lat="41.102036163732194" lon="9.051584544002058"><ele>43.0</ele><time>2026-05-02T08:57:56Z</time></trkpt><trkpt lat="41.10198422189708" lon="9.051221849242724"><ele>43.0</ele><time>2026-05-02T08:57:57Z</time></trkpt><trkpt lat="41.10193043295796" lon="9.050861855000282"><ele>43.0</ele><time>2026-05-02T08:57:58Z</time></trkpt><trkpt lat="41.10187592932464" lon="9.050502662280538"><ele>43.5</ele><time>2026-05-02T08:57:59Z</time></trkpt><trkpt lat="41.10182522137897" lon="9.050139264315064"><ele>44.0</ele><time>2026-05-02T08:58:00Z</time></trkpt><trkpt lat="41.10177829996554" lon="9.04977765098403"><ele>44.0</ele><time>2026-05-02T08:58:01Z</time></trkpt><trkpt lat="41.1017342788509" lon="9.049415541714952"><ele>44.0</ele><time>2026-05-02T08:58:02Z</time></trkpt><trkpt lat="41.10168920831602" lon="9.049048227766693"><ele>44.0</ele><time>2026-05-02T08:58:03Z</time></trkpt><trkpt lat="41.101647673517355" lon="9.048685695607738"><ele>44.0</ele><time>2026-05-02T08:58:04Z</time></trkpt><trkpt lat="41.10160624889747" lon="9.048323055747987"><ele>41.0</ele><time>2026-05-02T08:58:05Z</time></trkpt><trkpt lat="41.101560644645794" lon="9.047959007099404"><ele>38.0</ele><time>2026-05-02T08:58:06Z</time></trkpt><trkpt lat="41.101514210434466" lon="9.047592233283407"><ele>39.5</ele><time>2026-05-02T08:58:07Z</time></trkpt><trkpt lat="41.10146380706731" lon="9.047226820783157"><ele>41.0</ele><time>2026-05-02T08:58:08Z</time></trkpt><trkpt lat="41.10141515525768" lon="9.046860261658857"><ele>42.0</ele><time>2026-05-02T08:58:09Z</time></trkpt><trkpt lat="41.101367996146955" lon="9.046495576759613"><ele>43.0</ele><time>2026-05-02T08:58:10Z</time></trkpt><trkpt lat="41.10132581914524" lon="9.046132444828434"><ele>44.5</ele><time>2026-05-02T08:58:11Z</time></trkpt><trkpt lat="41.10128190460631" lon="9.04576647832225"><ele>46.0</ele><time>2026-05-02T08:58:12Z</time></trkpt><trkpt lat="41.10123398393181" lon="9.045397477399769"><ele>46.0</ele><time>2026-05-02T08:58:13Z</time></trkpt><trkpt lat="41.10118711145898" lon="9.045027847562753"><ele>46.0</ele><time>2026-05-02T08:58:14Z</time></trkpt><trkpt lat="41.10113861647176" lon="9.04465473410289"><ele>46.5</ele><time>2026-05-02T08:58:15Z</time></trkpt><trkpt lat="41.101092233087115" lon="9.044284440601515"><ele>47.0</ele><time>2026-05-02T08:58:16Z</time></trkpt><trkpt lat="41.10104878269108" lon="9.043913886799485"><ele>47.5</ele><time>2026-05-02T08:58:17Z</time></trkpt><trkpt lat="41.10100010615981" lon="9.043547637166435"><ele>48.0</ele><time>2026-05-02T08:58:18Z</time></trkpt><trkpt lat="41.10095218400076" lon="9.043186123029443"><ele>49.5</ele><time>2026-05-02T08:58:19Z</time></trkpt><trkpt lat="41.100909619925474" lon="9.04284166127809"><ele>51.0</ele><time>2026-05-02T08:58:20Z</time></trkpt><trkpt lat="41.10085860752635" lon="9.042516704733222"><ele>52.0</ele><time>2026-05-02T08:58:21Z</time></trkpt><trkpt lat="41.10076235056415" lon="9.042208307880001"><ele>53.0</ele><time>2026-05-02T08:58:22Z</time></trkpt><trkpt lat="41.10063006058221" lon="9.041919830089101"><ele>54.0</ele><time>2026-05-02T08:58:23Z</time></trkpt><trkpt lat="41.10047812435645" lon="9.041619722636424"><ele>55.0</ele><time>2026-05-02T08:58:24Z</time></trkpt><trkpt lat="41.10034062513092" lon="9.041322180145945"><ele>55.0</ele><time>2026-05-02T08:58:25Z</time></trkpt><trkpt lat="41.10022041826112" lon="9.041046923581973"><ele>55.0</ele><time>2026-05-02T08:58:26Z</time></trkpt><trkpt lat="41.10011619776879" lon="9.040797687678838"><ele>54.666666666666664</ele><time>2026-05-02T08:58:27Z</time></trkpt><trkpt lat="41.10005002295659" lon="9.040572485166244"><ele>54.33333333333333</ele><time>2026-05-02T08:58:28Z</time></trkpt><trkpt lat="41.10002613507084" lon="9.040383123136712"><ele>54.0</ele><time>2026-05-02T08:58:29Z</time></trkpt><trkpt lat="41.10001444999037" lon="9.040180051948509"><ele>54.0</ele><time>2026-05-02T08:58:30Z</time></trkpt><trkpt lat="41.09999200373116" lon="9.03993211671893"><ele>54.0</ele><time>2026-05-02T08:58:31Z</time></trkpt><trkpt lat="41.099959239590234" lon="9.039619225698475"><ele>54.0</ele><time>2026-05-02T08:58:32Z</time></trkpt><trkpt lat="41.099938558640204" lon="9.039300418977055"><ele>54.0</ele><time>2026-05-02T08:58:33Z</time></trkpt><trkpt lat="41.099926694762836" lon="9.038966015063542"><ele>54.0</ele><time>2026-05-02T08:58:34Z</time></trkpt><trkpt lat="41.09990582504538" lon="9.038633094272406"><ele>54.0</ele><time>2026-05-02T08:58:35Z</time></trkpt><trkpt lat="41.09986839862027" lon="9.038276672699117"><ele>54.0</ele><time>2026-05-02T08:58:36Z</time></trkpt><trkpt lat="41.09982779530972" lon="9.037883139959419"><ele>54.5</ele><time>2026-05-02T08:58:37Z</time></trkpt><trkpt lat="41.09978789760728" lon="9.037466961886302"><ele>55.0</ele><time>2026-05-02T08:58:38Z</time></trkpt><trkpt lat="41.09975268796373" lon="9.037068272027131"><ele>55.0</ele><time>2026-05-02T08:58:39Z</time></trkpt><trkpt lat="41.09970769394312" lon="9.036689321446008"><ele>55.0</ele><time>2026-05-02T08:58:40Z</time></trkpt><trkpt lat="41.09964191481663" lon="9.036313900606999"><ele>55.0</ele><time>2026-05-02T08:58:41Z</time></trkpt><trkpt lat="41.09956245843767" lon="9.035932379098446"><ele>55.0</ele><time>2026-05-02T08:58:42Z</time></trkpt><trkpt lat="41.099492379900155" lon="9.035581788776815"><ele>55.0</ele><time>2026-05-02T08:58:43Z</time></trkpt><trkpt lat="41.09943044842979" lon="9.035245241298854"><ele>55.0</ele><time>2026-05-02T08:58:44Z</time></trkpt><trkpt lat="41.0993674468807" lon="9.034935997004805"><ele>56.5</ele><time>2026-05-02T08:58:45Z</time></trkpt><trkpt lat="41.09927613108752" lon="9.034638868460295"><ele>58.0</ele><time>2026-05-02T08:58:46Z</time></trkpt><trkpt lat="41.09915167667445" lon="9.03437817790529"><ele>56.0</ele><time>2026-05-02T08:58:47Z</time></trkpt><trkpt lat="41.09898599730578" lon="9.034146023432132"><ele>54.0</ele><time>2026-05-02T08:58:48Z</time></trkpt><trkpt lat="41.09878662087092" lon="9.033929343456112"><ele>54.0</ele><time>2026-05-02T08:58:49Z</time></trkpt><trkpt lat="41.098586605375345" lon="9.033703630057262"><ele>54.0</ele><time>2026-05-02T08:58:50Z</time></trkpt><trkpt lat="41.098396178737794" lon="9.03347661480007"><ele>56.0</ele><time>2026-05-02T08:58:51Z</time></trkpt><trkpt lat="41.098213035338226" lon="9.033242491226648"><ele>58.0</ele><time>2026-05-02T08:58:52Z</time></trkpt><trkpt lat="41.09803332701643" lon="9.033009538137232"><ele>58.0</ele><time>2026-05-02T08:58:53Z</time></trkpt><trkpt lat="41.09785710145674" lon="9.032779193930796"><ele>58.0</ele><time>2026-05-02T08:58:54Z</time></trkpt><trkpt lat="41.09768246085483" lon="9.032565619941693"><ele>58.5</ele><time>2026-05-02T08:58:55Z</time></trkpt><trkpt lat="41.09748817040166" lon="9.032387866305799"><ele>59.0</ele><time>2026-05-02T08:58:56Z</time></trkpt><trkpt lat="41.09726144989792" lon="9.032261159984671"><ele>59.0</ele><time>2026-05-02T08:58:57Z</time></trkpt><trkpt lat="41.09700964428804" lon="9.032155083520513"><ele>59.0</ele><time>2026-05-02T08:58:58Z</time></trkpt><trkpt lat="41.096754080132605" lon="9.032037399149715"><ele>60.5</ele><time>2026-05-02T08:58:59Z</time></trkpt><trkpt lat="41.09650019199348" lon="9.03190021863586"><ele>62.0</ele><time>2026-05-02T08:59:00Z</time></trkpt><trkpt lat="41.09625666080303" lon="9.031762557958409"><ele>62.0</ele><time>2026-05-02T08:59:01Z</time></trkpt><trkpt lat="41.096023909698864" lon="9.03163297529259"><ele>62.0</ele><time>2026-05-02T08:59:02Z</time></trkpt><trkpt lat="41.09581115258807" lon="9.031492673150494"><ele>62.0</ele><time>2026-05-02T08:59:03Z</time></trkpt><trkpt lat="41.09562185663235" lon="9.031297345148976"><ele>62.0</ele><time>2026-05-02T08:59:04Z</time></trkpt><trkpt lat="41.095449403395506" lon="9.031054426144065"><ele>62.0</ele><time>2026-05-02T08:59:05Z</time></trkpt><trkpt lat="41.095268651774106" lon="9.030811381412935"><ele>62.0</ele><time>2026-05-02T08:59:06Z</time></trkpt><trkpt lat="41.09507860277129" lon="9.030578179451853"><ele>63.5</ele><time>2026-05-02T08:59:07Z</time></trkpt><trkpt lat="41.09488436533193" lon="9.030348021271582"><ele>65.0</ele><time>2026-05-02T08:59:08Z</time></trkpt><trkpt lat="41.094686877025836" lon="9.030105083364745"><ele>63.5</ele><time>2026-05-02T08:59:09Z</time></trkpt><trkpt lat="41.09449015720784" lon="9.029861860882303"><ele>62.0</ele><time>2026-05-02T08:59:10Z</time></trkpt><trkpt lat="41.094287286395044" lon="9.029612323284702"><ele>63.0</ele><time>2026-05-02T08:59:11Z</time></trkpt><trkpt lat="41.09408417572777" lon="9.029359716682507"><ele>64.0</ele><time>2026-05-02T08:59:12Z</time></trkpt><trkpt lat="41.093879279655624" lon="9.029114221373701"><ele>64.0</ele><time>2026-05-02T08:59:13Z</time></trkpt><trkpt lat="41.09367568125264" lon="9.028871434854006"><ele>64.0</ele><time>2026-05-02T08:59:14Z</time></trkpt><trkpt lat="41.09347347409731" lon="9.028632350504994"><ele>64.0</ele><time>2026-05-02T08:59:15Z</time></trkpt><trkpt lat="41.09327667613534" lon="9.02839408164107"><ele>64.0</ele><time>2026-05-02T08:59:16Z</time></trkpt><trkpt lat="41.093089030747876" lon="9.02816084248702"><ele>68.0</ele><time>2026-05-02T08:59:17Z</time></trkpt><trkpt lat="41.092906473386485" lon="9.027930416743889"><ele>72.0</ele><time>2026-05-02T08:59:18Z</time></trkpt><trkpt lat="41.09272201336059" lon="9.027731256800003"><ele>72.0</ele><time>2026-05-02T08:59:19Z</time></trkpt><trkpt lat="41.09250989336095" lon="9.027574878079921"><ele>72.0</ele><time>2026-05-02T08:59:20Z</time></trkpt><trkpt lat="41.092277987491904" lon="9.027461025086092"><ele>76.0</ele><time>2026-05-02T08:59:21Z</time></trkpt><trkpt lat="41.09203867278752" lon="9.027367031711906"><ele>80.0</ele><time>2026-05-02T08:59:22Z</time></trkpt><trkpt lat="41.091792306928056" lon="9.027258206028375"><ele>81.0</ele><time>2026-05-02T08:59:23Z</time></trkpt><trkpt lat="41.09155237085303" lon="9.027136132801612"><ele>82.0</ele><time>2026-05-02T08:59:24Z</time></trkpt><trkpt lat="41.091318112965574" lon="9.02701525446116"><ele>82.0</ele><time>2026-05-02T08:59:25Z</time></trkpt><trkpt lat="41.09108942393705" lon="9.026896921423601"><ele>82.0</ele><time>2026-05-02T08:59:26Z</time></trkpt><trkpt lat="41.09088319042454" lon="9.026785881797174"><ele>83.33333333333333</ele><time>2026-05-02T08:59:27Z</time></trkpt><trkpt lat="41.09068958579047" lon="9.026700914350757"><ele>84.66666666666667</ele><time>2026-05-02T08:59:28Z</time></trkpt><trkpt lat="41.090489008863536" lon="9.026699156855077"><ele>86.0</ele><time>2026-05-02T08:59:29Z</time></trkpt><trkpt lat="41.09027081425178" lon="9.026783731020767"><ele>86.0</ele><time>2026-05-02T08:59:30Z</time></trkpt><trkpt lat="41.090041507000024" lon="9.026881990510784"><ele>86.0</ele><time>2026-05-02T08:59:31Z</time></trkpt><trkpt lat="41.089812656736555" lon="9.026969420597698"><ele>89.5</ele><time>2026-05-02T08:59:32Z</time></trkpt><trkpt lat="41.08958082402803" lon="9.027047715419144"><ele>93.0</ele><time>2026-05-02T08:59:33Z</time></trkpt><trkpt lat="41.08934654622426" lon="9.027121712973093"><ele>93.0</ele><time>2026-05-02T08:59:34Z</time></trkpt><trkpt lat="41.08912268829406" lon="9.027197460110228"><ele>93.0</ele><time>2026-05-02T08:59:35Z</time></trkpt><trkpt lat="41.08889925921762" lon="9.027248194176256"><ele>95.0</ele><time>2026-05-02T08:59:36Z</time></trkpt><trkpt lat="41.08867702099476" lon="9.027220206985714"><ele>97.0</ele><time>2026-05-02T08:59:37Z</time></trkpt><trkpt lat="41.088460561058056" lon="9.027119513182884"><ele>97.5</ele><time>2026-05-02T08:59:38Z</time></trkpt><trkpt lat="41.08825259126201" lon="9.026990250458196"><ele>98.0</ele><time>2026-05-02T08:59:39Z</time></trkpt><trkpt lat="41.08803517046076" lon="9.026887272397772"><ele>98.0</ele><time>2026-05-02T08:59:40Z</time></trkpt><trkpt lat="41.08780486803948" lon="9.026801273556746"><ele>98.0</ele><time>2026-05-02T08:59:41Z</time></trkpt><trkpt lat="41.08757329046623" lon="9.02671211568981"><ele>98.5</ele><time>2026-05-02T08:59:42Z</time></trkpt><trkpt lat="41.08735331729875" lon="9.0266226480706"><ele>99.0</ele><time>2026-05-02T08:59:43Z</time></trkpt><trkpt lat="41.08713796026614" lon="9.026521304427641"><ele>99.0</ele><time>2026-05-02T08:59:44Z</time></trkpt><trkpt lat="41.08694011873378" lon="9.02638223245406"><ele>99.0</ele><time>2026-05-02T08:59:45Z</time></trkpt><trkpt lat="41.08674818118897" lon="9.02620081397608"><ele>98.5</ele><time>2026-05-02T08:59:46Z</time></trkpt><trkpt lat="41.08655807482728" lon="9.026017836846766"><ele>98.0</ele><time>2026-05-02T08:59:47Z</time></trkpt><trkpt lat="41.08635753099693" lon="9.025845575523702"><ele>100.0</ele><time>2026-05-02T08:59:48Z</time></trkpt><trkpt lat="41.08615461943994" lon="9.025676286002703"><ele>102.0</ele><time>2026-05-02T08:59:49Z</time></trkpt><trkpt lat="41.0859490952965" lon="9.025501575845695"><ele>102.0</ele><time>2026-05-02T08:59:50Z</time></trkpt><trkpt lat="41.08574188465404" lon="9.025325086556489"><ele>102.0</ele><time>2026-05-02T08:59:51Z</time></trkpt><trkpt lat="41.085531779001705" lon="9.02514951850691"><ele>103.5</ele><time>2026-05-02T08:59:52Z</time></trkpt><trkpt lat="41.0853223402489" lon="9.024968949091496"><ele>105.0</ele><time>2026-05-02T08:59:53Z</time></trkpt><trkpt lat="41.08511605056145" lon="9.02477557423836"><ele>101.5</ele><time>2026-05-02T08:59:54Z</time></trkpt><trkpt lat="41.08491680926632" lon="9.024567380422596"><ele>98.0</ele><time>2026-05-02T08:59:55Z</time></trkpt><trkpt lat="41.0847327930539" lon="9.024352488864498"><ele>100.0</ele><time>2026-05-02T08:59:56Z</time></trkpt><trkpt lat="41.08456499051238" lon="9.024144896938934"><ele>102.0</ele><time>2026-05-02T08:59:57Z</time></trkpt><trkpt lat="41.08439599602779" lon="9.023951206439897"><ele>102.0</ele><time>2026-05-02T08:59:58Z</time></trkpt><trkpt lat="41.084243579831494" lon="9.023768893767748"><ele>102.0</ele><time>2026-05-02T08:59:59Z</time></trkpt><trkpt lat="41.08411712767272" lon="9.023561653871429"><ele>102.0</ele><time>2026-05-02T09:00:00Z</time></trkpt><trkpt lat="41.08404234457218" lon="9.02330998086334"><ele>100.66666666666666</ele><time>2026-05-02T09:00:01Z</time></trkpt><trkpt lat="41.08399905430635" lon="9.023030838026207"><ele>99.33333333333333</ele><time>2026-05-02T09:00:02Z</time></trkpt><trkpt lat="41.08397009838032" lon="9.022758969162648"><ele>98.0</ele><time>2026-05-02T09:00:03Z</time></trkpt><trkpt lat="41.083926218711476" lon="9.022489647017027"><ele>99.66666666666666</ele><time>2026-05-02T09:00:04Z</time></trkpt><trkpt lat="41.083867269449826" lon="9.022217972251642"><ele>101.33333333333334</ele><time>2026-05-02T09:00:05Z</time></trkpt><trkpt lat="41.08380227791398" lon="9.021957360781514"><ele>103.0</ele><time>2026-05-02T09:00:06Z</time></trkpt><trkpt lat="41.08370641145675" lon="9.021716105233006"><ele>102.33333333333334</ele><time>2026-05-02T09:00:07Z</time></trkpt><trkpt lat="41.08357535631863" lon="9.021493769363644"><ele>101.66666666666666</ele><time>2026-05-02T09:00:08Z</time></trkpt><trkpt lat="41.08341814057557" lon="9.021288285388419"><ele>101.0</ele><time>2026-05-02T09:00:09Z</time></trkpt><trkpt lat="41.083243806259716" lon="9.021088123289193"><ele>100.5</ele><time>2026-05-02T09:00:10Z</time></trkpt><trkpt lat="41.08307428953454" lon="9.020873251256823"><ele>100.0</ele><time>2026-05-02T09:00:11Z</time></trkpt><trkpt lat="41.0829080601286" lon="9.020650513712308"><ele>102.0</ele><time>2026-05-02T09:00:12Z</time></trkpt><trkpt lat="41.08274558472185" lon="9.020430710863062"><ele>104.0</ele><time>2026-05-02T09:00:13Z</time></trkpt><trkpt lat="41.08258517542626" lon="9.020216281169802"><ele>105.0</ele><time>2026-05-02T09:00:14Z</time></trkpt><trkpt lat="41.082429816194036" lon="9.020009460642123"><ele>106.0</ele><time>2026-05-02T09:00:15Z</time></trkpt><trkpt lat="41.0822816570226" lon="9.019812771081185"><ele>107.0</ele><time>2026-05-02T09:00:16Z</time></trkpt><trkpt lat="41.082132307727406" lon="9.01962109612652"><ele>107.33333333333333</ele><time>2026-05-02T09:00:17Z</time></trkpt><trkpt lat="41.08198060400404" lon="9.019425209972008"><ele>107.66666666666666</ele><time>2026-05-02T09:00:18Z</time></trkpt><trkpt lat="41.081832542359344" lon="9.019228125239813"><ele>108.0</ele><time>2026-05-02T09:00:19Z</time></trkpt><trkpt lat="41.08168364868172" lon="9.019027535604001"><ele>109.66666666666666</ele><time>2026-05-02T09:00:20Z</time></trkpt><trkpt lat="41.08153754817514" lon="9.018817502221648"><ele>111.33333333333333</ele><time>2026-05-02T09:00:21Z</time></trkpt><trkpt lat="41.08138484156749" lon="9.018612306401677"><ele>113.0</ele><time>2026-05-02T09:00:22Z</time></trkpt><trkpt lat="41.08123196600602" lon="9.018410576856626"><ele>113.66666666666666</ele><time>2026-05-02T09:00:23Z</time></trkpt><trkpt lat="41.08107708976417" lon="9.01821332422457"><ele>114.33333333333334</ele><time>2026-05-02T09:00:24Z</time></trkpt><trkpt lat="41.08091286886614" lon="9.018034587520296"><ele>115.0</ele><time>2026-05-02T09:00:25Z</time></trkpt><trkpt lat="41.08072069253194" lon="9.017917341026124"><ele>116.66666666666667</ele><time>2026-05-02T09:00:26Z</time></trkpt><trkpt lat="41.08051332074217" lon="9.017890558413473"><ele>118.33333333333334</ele><time>2026-05-02T09:00:27Z</time></trkpt><trkpt lat="41.08029693456621" lon="9.017913802478214"><ele>120.0</ele><time>2026-05-02T09:00:28Z</time></trkpt><trkpt lat="41.080055163630455" lon="9.017958173287267"><ele>122.0</ele><time>2026-05-02T09:00:29Z</time></trkpt><trkpt lat="41.07980715956512" lon="9.017985037913352"><ele>124.0</ele><time>2026-05-02T09:00:30Z</time></trkpt><trkpt lat="41.07955900663064" lon="9.017995558037104"><ele>124.0</ele><time>2026-05-02T09:00:31Z</time></trkpt><trkpt lat="41.07931755575102" lon="9.0180186956521"><ele>124.0</ele><time>2026-05-02T09:00:32Z</time></trkpt><trkpt lat="41.07908048388047" lon="9.018035372317286"><ele>126.33333333333334</ele><time>2026-05-02T09:00:33Z</time></trkpt><trkpt lat="41.0788635130761" lon="9.018044374793586"><ele>128.66666666666666</ele><time>2026-05-02T09:00:34Z</time></trkpt><trkpt lat="41.0786473895236" lon="9.018070304922336"><ele>131.0</ele><time>2026-05-02T09:00:35Z</time></trkpt><trkpt lat="41.078431299048056" lon="9.018090008536797"><ele>131.5</ele><time>2026-05-02T09:00:36Z</time></trkpt><trkpt lat="41.078207464501496" lon="9.01804775305106"><ele>132.0</ele><time>2026-05-02T09:00:37Z</time></trkpt><trkpt lat="41.07797978814091" lon="9.017985102139617"><ele>132.0</ele><time>2026-05-02T09:00:38Z</time></trkpt><trkpt lat="41.07773584555968" lon="9.017912783500329"><ele>132.0</ele><time>2026-05-02T09:00:39Z</time></trkpt><trkpt lat="41.077490942873894" lon="9.017860489655117"><ele>133.0</ele><time>2026-05-02T09:00:40Z</time></trkpt><trkpt lat="41.07725872731123" lon="9.017786809139139"><ele>134.0</ele><time>2026-05-02T09:00:41Z</time></trkpt><trkpt lat="41.077027226544644" lon="9.017716815117883"><ele>134.0</ele><time>2026-05-02T09:00:42Z</time></trkpt><trkpt lat="41.076793091671945" lon="9.017649183693974"><ele>134.0</ele><time>2026-05-02T09:00:43Z</time></trkpt><trkpt lat="41.07655405142853" lon="9.017580795877793"><ele>134.5</ele><time>2026-05-02T09:00:44Z</time></trkpt><trkpt lat="41.076314668451346" lon="9.017518269976994"><ele>135.0</ele><time>2026-05-02T09:00:45Z</time></trkpt><trkpt lat="41.07607316603502" lon="9.017456555325513"><ele>135.5</ele><time>2026-05-02T09:00:46Z</time></trkpt><trkpt lat="41.075828097486706" lon="9.017393458109115"><ele>136.0</ele><time>2026-05-02T09:00:47Z</time></trkpt><trkpt lat="41.07558244769788" lon="9.017332574544668"><ele>138.0</ele><time>2026-05-02T09:00:48Z</time></trkpt><trkpt lat="41.07534052504725" lon="9.017265169380673"><ele>140.0</ele><time>2026-05-02T09:00:49Z</time></trkpt><trkpt lat="41.07509988243154" lon="9.017197086041412"><ele>141.0</ele><time>2026-05-02T09:00:50Z</time></trkpt><trkpt lat="41.07486833965116" lon="9.017134717884806"><ele>142.0</ele><time>2026-05-02T09:00:51Z</time></trkpt><trkpt lat="41.07464598868284" lon="9.017079617497952"><ele>142.0</ele><time>2026-05-02T09:00:52Z</time></trkpt><trkpt lat="41.074422123383364" lon="9.017023778129566"><ele>142.0</ele><time>2026-05-02T09:00:53Z</time></trkpt><trkpt lat="41.0742062412772" lon="9.016904235929465"><ele>143.0</ele><time>2026-05-02T09:00:54Z</time></trkpt><trkpt lat="41.07398274710249" lon="9.016780670827607"><ele>144.0</ele><time>2026-05-02T09:00:55Z</time></trkpt><trkpt lat="41.073768279471714" lon="9.016657147979604"><ele>144.0</ele><time>2026-05-02T09:00:56Z</time></trkpt><trkpt lat="41.073554937115354" lon="9.01656008562693"><ele>144.0</ele><time>2026-05-02T09:00:57Z</time></trkpt><trkpt lat="41.073341780701284" lon="9.016432281155923"><ele>145.0</ele><time>2026-05-02T09:00:58Z</time></trkpt><trkpt lat="41.07314460805081" lon="9.016265251488512"><ele>146.0</ele><time>2026-05-02T09:00:59Z</time></trkpt><trkpt lat="41.07294244305194" lon="9.016084359547904"><ele>146.0</ele><time>2026-05-02T09:01:00Z</time></trkpt><trkpt lat="41.0727323771006" lon="9.015891482341447"><ele>146.0</ele><time>2026-05-02T09:01:01Z</time></trkpt><trkpt lat="41.07252308501885" lon="9.015699167507691"><ele>146.5</ele><time>2026-05-02T09:01:02Z</time></trkpt><trkpt lat="41.07231634809388" lon="9.015530333230675"><ele>147.0</ele><time>2026-05-02T09:01:03Z</time></trkpt><trkpt lat="41.072127863902764" lon="9.015358759693694"><ele>147.0</ele><time>2026-05-02T09:01:04Z</time></trkpt><trkpt lat="41.07195211406469" lon="9.01520413935601"><ele>147.0</ele><time>2026-05-02T09:01:05Z</time></trkpt><trkpt lat="41.07177972921327" lon="9.015079541208129"><ele>147.0</ele><time>2026-05-02T09:01:06Z</time></trkpt><trkpt lat="41.07159034112473" lon="9.015013994018135"><ele>147.33333333333334</ele><time>2026-05-02T09:01:07Z</time></trkpt><trkpt lat="41.071380094529076" lon="9.01500415335988"><ele>147.66666666666669</ele><time>2026-05-02T09:01:08Z</time></trkpt><trkpt lat="41.07115099536226" lon="9.01501245403702"><ele>148.0</ele><time>2026-05-02T09:01:09Z</time></trkpt><trkpt lat="41.070913855742425" lon="9.015003825293558"><ele>150.0</ele><time>2026-05-02T09:01:10Z</time></trkpt><trkpt lat="41.07067788634974" lon="9.014982880349775"><ele>152.0</ele><time>2026-05-02T09:01:11Z</time></trkpt><trkpt lat="41.07043349797473" lon="9.014956875198063"><ele>152.0</ele><time>2026-05-02T09:01:12Z</time></trkpt><trkpt lat="41.070184626894886" lon="9.014935975311303"><ele>152.0</ele><time>2026-05-02T09:01:13Z</time></trkpt><trkpt lat="41.069937747418784" lon="9.014915797849223"><ele>152.5</ele><time>2026-05-02T09:01:14Z</time></trkpt><trkpt lat="41.06969243069474" lon="9.014899758909888"><ele>153.0</ele><time>2026-05-02T09:01:15Z</time></trkpt><trkpt lat="41.069439605914894" lon="9.01488265236239"><ele>153.0</ele><time>2026-05-02T09:01:16Z</time></trkpt><trkpt lat="41.06919004510643" lon="9.01486002812724"><ele>153.0</ele><time>2026-05-02T09:01:17Z</time></trkpt><trkpt lat="41.06894443804635" lon="9.014827674518923"><ele>154.0</ele><time>2026-05-02T09:01:18Z</time></trkpt><trkpt lat="41.068706652408366" lon="9.014785543160377"><ele>155.0</ele><time>2026-05-02T09:01:19Z</time></trkpt><trkpt lat="41.06845374436354" lon="9.014726254236269"><ele>156.0</ele><time>2026-05-02T09:01:20Z</time></trkpt><trkpt lat="41.068185862698584" lon="9.014669613824585"><ele>157.0</ele><time>2026-05-02T09:01:21Z</time></trkpt><trkpt lat="41.067920216593976" lon="9.01462404805454"><ele>157.0</ele><time>2026-05-02T09:01:22Z</time></trkpt><trkpt lat="41.06765776273195" lon="9.014578312255958"><ele>157.0</ele><time>2026-05-02T09:01:23Z</time></trkpt><trkpt lat="41.06739573431987" lon="9.014532428045895"><ele>158.0</ele><time>2026-05-02T09:01:24Z</time></trkpt><trkpt lat="41.06714018698781" lon="9.01448995303543"><ele>159.0</ele><time>2026-05-02T09:01:25Z</time></trkpt><trkpt lat="41.06689797285661" lon="9.014450831056326"><ele>159.0</ele><time>2026-05-02T09:01:26Z</time></trkpt><trkpt lat="41.0666583097162" lon="9.014412865078913"><ele>159.0</ele><time>2026-05-02T09:01:27Z</time></trkpt><trkpt lat="41.06644259872726" lon="9.014368409698024"><ele>158.66666666666666</ele><time>2026-05-02T09:01:28Z</time></trkpt><trkpt lat="41.06622104014479" lon="9.014288150823491"><ele>158.33333333333331</ele><time>2026-05-02T09:01:29Z</time></trkpt><trkpt lat="41.06602681318067" lon="9.014154776199103"><ele>158.0</ele><time>2026-05-02T09:01:30Z</time></trkpt><trkpt lat="41.065869948733045" lon="9.01397147243796"><ele>155.5</ele><time>2026-05-02T09:01:31Z</time></trkpt><trkpt lat="41.06573215094923" lon="9.013732493117045"><ele>153.0</ele><time>2026-05-02T09:01:32Z</time></trkpt><trkpt lat="41.06558906901285" lon="9.013489658926533"><ele>152.5</ele><time>2026-05-02T09:01:33Z</time></trkpt><trkpt lat="41.065437393866766" lon="9.013253671635763"><ele>152.0</ele><time>2026-05-02T09:01:34Z</time></trkpt><trkpt lat="41.065280114635655" lon="9.013027262951924"><ele>152.0</ele><time>2026-05-02T09:01:35Z</time></trkpt><trkpt lat="41.065123430220154" lon="9.012798248994844"><ele>152.0</ele><time>2026-05-02T09:01:36Z</time></trkpt><trkpt lat="41.0649629167326" lon="9.012566803101462"><ele>153.5</ele><time>2026-05-02T09:01:37Z</time></trkpt><trkpt lat="41.06480223774654" lon="9.01233053098539"><ele>155.0</ele><time>2026-05-02T09:01:38Z</time></trkpt><trkpt lat="41.06463745955752" lon="9.012089464875988"><ele>155.0</ele><time>2026-05-02T09:01:39Z</time></trkpt><trkpt lat="41.06447400715942" lon="9.011848279940827"><ele>155.0</ele><time>2026-05-02T09:01:40Z</time></trkpt><trkpt lat="41.06430994656487" lon="9.011607531893551"><ele>154.5</ele><time>2026-05-02T09:01:41Z</time></trkpt><trkpt lat="41.06414221409924" lon="9.01136725798946"><ele>154.0</ele><time>2026-05-02T09:01:42Z</time></trkpt><trkpt lat="41.063977215785606" lon="9.011128088400248"><ele>157.5</ele><time>2026-05-02T09:01:43Z</time></trkpt><trkpt lat="41.063817030425675" lon="9.01090059048952"><ele>161.0</ele><time>2026-05-02T09:01:44Z</time></trkpt><trkpt lat="41.063669618675284" lon="9.010683804513967"><ele>161.0</ele><time>2026-05-02T09:01:45Z</time></trkpt><trkpt lat="41.06355217759665" lon="9.010465413758714"><ele>161.0</ele><time>2026-05-02T09:01:46Z</time></trkpt><trkpt lat="41.063487843904156" lon="9.010225883664349"><ele>161.0</ele><time>2026-05-02T09:01:47Z</time></trkpt><trkpt lat="41.063464965685654" lon="9.00994910648867"><ele>161.0</ele><time>2026-05-02T09:01:48Z</time></trkpt><trkpt lat="41.06344519185553" lon="9.00966134943639"><ele>161.0</ele><time>2026-05-02T09:01:49Z</time></trkpt><trkpt lat="41.06341018832722" lon="9.00937958401637"><ele>161.0</ele><time>2026-05-02T09:01:50Z</time></trkpt><trkpt lat="41.063369221713266" lon="9.009104127210152"><ele>161.33333333333331</ele><time>2026-05-02T09:01:51Z</time></trkpt><trkpt lat="41.063325648257575" lon="9.008835798236344"><ele>161.66666666666666</ele><time>2026-05-02T09:01:52Z</time></trkpt><trkpt lat="41.06328577088959" lon="9.008563195528716"><ele>162.0</ele><time>2026-05-02T09:01:53Z</time></trkpt><trkpt lat="41.063250165745586" lon="9.008303687581405"><ele>162.0</ele><time>2026-05-02T09:01:54Z</time></trkpt><trkpt lat="41.063215387493244" lon="9.008046974695702"><ele>162.0</ele><time>2026-05-02T09:01:55Z</time></trkpt><trkpt lat="41.06316875678877" lon="9.007794835147356"><ele>162.0</ele><time>2026-05-02T09:01:56Z</time></trkpt><trkpt lat="41.0630890908626" lon="9.00756220040003"><ele>160.33333333333334</ele><time>2026-05-02T09:01:57Z</time></trkpt><trkpt lat="41.06297164381888" lon="9.007370511049945"><ele>158.66666666666669</ele><time>2026-05-02T09:01:58Z</time></trkpt><trkpt lat="41.06282233662065" lon="9.007211750019263"><ele>157.0</ele><time>2026-05-02T09:01:59Z</time></trkpt><trkpt lat="41.062645289957985" lon="9.007089116261298"><ele>157.0</ele><time>2026-05-02T09:02:00Z</time></trkpt><trkpt lat="41.06245043475187" lon="9.007013835503377"><ele>157.0</ele><time>2026-05-02T09:02:01Z</time></trkpt><trkpt lat="41.062230264665395" lon="9.006984878918015"><ele>157.0</ele><time>2026-05-02T09:02:02Z</time></trkpt><trkpt lat="41.061991151957514" lon="9.006957982141364"><ele>158.5</ele><time>2026-05-02T09:02:03Z</time></trkpt><trkpt lat="41.061748553143445" lon="9.006910586968331"><ele>160.0</ele><time>2026-05-02T09:02:04Z</time></trkpt><trkpt lat="41.061511366534056" lon="9.006855426769302"><ele>160.0</ele><time>2026-05-02T09:02:05Z</time></trkpt><trkpt lat="41.061270717544765" lon="9.006798269744857"><ele>160.0</ele><time>2026-05-02T09:02:06Z</time></trkpt><trkpt lat="41.061030098904546" lon="9.0067412452682"><ele>160.5</ele><time>2026-05-02T09:02:07Z</time></trkpt><trkpt lat="41.06077983705039" lon="9.006688641383779"><ele>161.0</ele><time>2026-05-02T09:02:08Z</time></trkpt><trkpt lat="41.06052424189199" lon="9.006639144329972"><ele>161.0</ele><time>2026-05-02T09:02:09Z</time></trkpt><trkpt lat="41.060270774054985" lon="9.006583806001675"><ele>161.0</ele><time>2026-05-02T09:02:10Z</time></trkpt><trkpt lat="41.0600130021508" lon="9.006527028356754"><ele>162.5</ele><time>2026-05-02T09:02:11Z</time></trkpt><trkpt lat="41.059746154318695" lon="9.006467136240698"><ele>164.0</ele><time>2026-05-02T09:02:12Z</time></trkpt><trkpt lat="41.059478393788396" lon="9.006405011018904"><ele>164.0</ele><time>2026-05-02T09:02:13Z</time></trkpt><trkpt lat="41.059209371566375" lon="9.006343355690317"><ele>164.0</ele><time>2026-05-02T09:02:14Z</time></trkpt><trkpt lat="41.0589363846481" lon="9.006282319339238"><ele>164.0</ele><time>2026-05-02T09:02:15Z</time></trkpt><trkpt lat="41.058672411221075" lon="9.00622535800925"><ele>164.0</ele><time>2026-05-02T09:02:16Z</time></trkpt><trkpt lat="41.058408506584634" lon="9.00616953460022"><ele>165.5</ele><time>2026-05-02T09:02:17Z</time></trkpt><trkpt lat="41.05815424663186" lon="9.00611302179109"><ele>167.0</ele><time>2026-05-02T09:02:18Z</time></trkpt><trkpt lat="41.05790021910059" lon="9.006056069966702"><ele>167.0</ele><time>2026-05-02T09:02:19Z</time></trkpt><trkpt lat="41.05764611876076" lon="9.005996821115945"><ele>167.0</ele><time>2026-05-02T09:02:20Z</time></trkpt><trkpt lat="41.05738856651918" lon="9.00593430027925"><ele>167.0</ele><time>2026-05-02T09:02:21Z</time></trkpt><trkpt lat="41.057130694844695" lon="9.005864962907674"><ele>167.0</ele><time>2026-05-02T09:02:22Z</time></trkpt><trkpt lat="41.056872871465" lon="9.005788229419759"><ele>168.0</ele><time>2026-05-02T09:02:23Z</time></trkpt><trkpt lat="41.056618021859386" lon="9.0057157628103"><ele>169.0</ele><time>2026-05-02T09:02:24Z</time></trkpt><trkpt lat="41.05636548546782" lon="9.005647532038097"><ele>169.0</ele><time>2026-05-02T09:02:25Z</time></trkpt><trkpt lat="41.056114741769385" lon="9.005577938301991"><ele>169.0</ele><time>2026-05-02T09:02:26Z</time></trkpt><trkpt lat="41.055865170506685" lon="9.005506072052196"><ele>169.5</ele><time>2026-05-02T09:02:27Z</time></trkpt><trkpt lat="41.05561875503636" lon="9.005426891957004"><ele>170.0</ele><time>2026-05-02T09:02:28Z</time></trkpt><trkpt lat="41.05537375528249" lon="9.005337196646284"><ele>170.0</ele><time>2026-05-02T09:02:29Z</time></trkpt><trkpt lat="41.05513445475585" lon="9.005248725234642"><ele>170.0</ele><time>2026-05-02T09:02:30Z</time></trkpt><trkpt lat="41.05489416683735" lon="9.005159836430224"><ele>171.5</ele><time>2026-05-02T09:02:31Z</time></trkpt><trkpt lat="41.054657627039724" lon="9.005079649250565"><ele>173.0</ele><time>2026-05-02T09:02:32Z</time></trkpt><trkpt lat="41.054419390147444" lon="9.00500463397904"><ele>173.0</ele><time>2026-05-02T09:02:33Z</time></trkpt><trkpt lat="41.054180086444724" lon="9.004928667669137"><ele>173.0</ele><time>2026-05-02T09:02:34Z</time></trkpt><trkpt lat="41.053943736769796" lon="9.004841003807465"><ele>173.0</ele><time>2026-05-02T09:02:35Z</time></trkpt><trkpt lat="41.053716477606926" lon="9.004759826218736"><ele>173.0</ele><time>2026-05-02T09:02:36Z</time></trkpt><trkpt lat="41.053498729838104" lon="9.004673858492037"><ele>173.0</ele><time>2026-05-02T09:02:37Z</time></trkpt><trkpt lat="41.053300537127484" lon="9.004556635325393"><ele>173.0</ele><time>2026-05-02T09:02:38Z</time></trkpt><trkpt lat="41.05312407408353" lon="9.00436706154059"><ele>173.0</ele><time>2026-05-02T09:02:39Z</time></trkpt><trkpt lat="41.05298619998569" lon="9.004123373200652"><ele>172.0</ele><time>2026-05-02T09:02:40Z</time></trkpt><trkpt lat="41.05287018324985" lon="9.003839648434903"><ele>171.0</ele><time>2026-05-02T09:02:41Z</time></trkpt><trkpt lat="41.052763156911666" lon="9.003528334934785"><ele>171.0</ele><time>2026-05-02T09:02:42Z</time></trkpt><trkpt lat="41.05263074160845" lon="9.003223673903973"><ele>171.0</ele><time>2026-05-02T09:02:43Z</time></trkpt><trkpt lat="41.05247709868869" lon="9.002936224325754"><ele>172.5</ele><time>2026-05-02T09:02:44Z</time></trkpt><trkpt lat="41.052330053996585" lon="9.002662685874476"><ele>174.0</ele><time>2026-05-02T09:02:45Z</time></trkpt><trkpt lat="41.05219710259812" lon="9.00239862861304"><ele>174.5</ele><time>2026-05-02T09:02:46Z</time></trkpt><trkpt lat="41.0520690808748" lon="9.00214865046791"><ele>175.0</ele><time>2026-05-02T09:02:47Z</time></trkpt><trkpt lat="41.05194953186795" lon="9.001900981090962"><ele>175.0</ele><time>2026-05-02T09:02:48Z</time></trkpt><trkpt lat="41.051835809443084" lon="9.001667368125183"><ele>175.0</ele><time>2026-05-02T09:02:49Z</time></trkpt><trkpt lat="41.051728522564744" lon="9.001457029985447"><ele>175.0</ele><time>2026-05-02T09:02:50Z</time></trkpt><trkpt lat="41.05163761038918" lon="9.001264133776631"><ele>175.66666666666669</ele><time>2026-05-02T09:02:51Z</time></trkpt><trkpt lat="41.05155442957768" lon="9.001088962883655"><ele>176.33333333333334</ele><time>2026-05-02T09:02:52Z</time></trkpt><trkpt lat="41.05147162475009" lon="9.000915785430848"><ele>177.0</ele><time>2026-05-02T09:02:53Z</time></trkpt><trkpt lat="41.0513874444229" lon="9.000751813082655"><ele>177.0</ele><time>2026-05-02T09:02:54Z</time></trkpt><trkpt lat="41.05129941648517" lon="9.000580416906674"><ele>177.0</ele><time>2026-05-02T09:02:55Z</time></trkpt><trkpt lat="41.051208573626546" lon="9.000395508105367"><ele>177.0</ele><time>2026-05-02T09:02:56Z</time></trkpt><trkpt lat="41.051110827516" lon="9.000207638475622"><ele>177.0</ele><time>2026-05-02T09:02:57Z</time></trkpt><trkpt lat="41.051018564587245" lon="9.000015753975218"><ele>177.0</ele><time>2026-05-02T09:02:58Z</time></trkpt><trkpt lat="41.050923256755475" lon="8.99982421298991"><ele>177.0</ele><time>2026-05-02T09:02:59Z</time></trkpt><trkpt lat="41.05083575776773" lon="8.999644321185075"><ele>177.75</ele><time>2026-05-02T09:03:00Z</time></trkpt><trkpt lat="41.050761693505216" lon="8.999490947772237"><ele>178.5</ele><time>2026-05-02T09:03:01Z</time></trkpt><trkpt lat="41.050693313603915" lon="8.999343352360412"><ele>179.25</ele><time>2026-05-02T09:03:02Z</time></trkpt><trkpt lat="41.050619691110114" lon="8.999194134862261"><ele>180.0</ele><time>2026-05-02T09:03:03Z</time></trkpt><trkpt lat="41.0505459793628" lon="8.999039683719673"><ele>180.33333333333334</ele><time>2026-05-02T09:03:04Z</time></trkpt><trkpt lat="41.0504606474789" lon="8.998879592996273"><ele>180.66666666666669</ele><time>2026-05-02T09:03:05Z</time></trkpt><trkpt lat="41.05034520977137" lon="8.998712649524792"><ele>181.0</ele><time>2026-05-02T09:03:06Z</time></trkpt><trkpt lat="41.05019104185628" lon="8.998511768327033"><ele>180.5</ele><time>2026-05-02T09:03:07Z</time></trkpt><trkpt lat="41.05003396350168" lon="8.998267891686531"><ele>180.0</ele><time>2026-05-02T09:03:08Z</time></trkpt><trkpt lat="41.049866297187606" lon="8.997999796142535"><ele>180.0</ele><time>2026-05-02T09:03:09Z</time></trkpt><trkpt lat="41.049690808250915" lon="8.997715464345763"><ele>180.0</ele><time>2026-05-02T09:03:10Z</time></trkpt><trkpt lat="41.04949287207635" lon="8.997444773594703"><ele>179.0</ele><time>2026-05-02T09:03:11Z</time></trkpt><trkpt lat="41.04928285501735" lon="8.997202007603809"><ele>178.0</ele><time>2026-05-02T09:03:12Z</time></trkpt><trkpt lat="41.049070782832224" lon="8.996962728520305"><ele>178.0</ele><time>2026-05-02T09:03:13Z</time></trkpt><trkpt lat="41.048864307092394" lon="8.996714148308687"><ele>178.0</ele><time>2026-05-02T09:03:14Z</time></trkpt><trkpt lat="41.04866572125891" lon="8.996457607304169"><ele>177.5</ele><time>2026-05-02T09:03:15Z</time></trkpt><trkpt lat="41.0484613938389" lon="8.996205075923214"><ele>177.0</ele><time>2026-05-02T09:03:16Z</time></trkpt><trkpt lat="41.048248573128085" lon="8.995974852925817"><ele>175.0</ele><time>2026-05-02T09:03:17Z</time></trkpt><trkpt lat="41.04802788118538" lon="8.99575226429668"><ele>173.0</ele><time>2026-05-02T09:03:18Z</time></trkpt><trkpt lat="41.0478076263396" lon="8.995531448196868"><ele>173.0</ele><time>2026-05-02T09:03:19Z</time></trkpt><trkpt lat="41.04759043465603" lon="8.99530512886196"><ele>173.0</ele><time>2026-05-02T09:03:20Z</time></trkpt><trkpt lat="41.04737310576834" lon="8.995072602947474"><ele>172.5</ele><time>2026-05-02T09:03:21Z</time></trkpt><trkpt lat="41.04715421405652" lon="8.99484125820371"><ele>172.0</ele><time>2026-05-02T09:03:22Z</time></trkpt><trkpt lat="41.046936481786574" lon="8.994609160795356"><ele>172.0</ele><time>2026-05-02T09:03:23Z</time></trkpt><trkpt lat="41.046714129566446" lon="8.994375078808554"><ele>172.0</ele><time>2026-05-02T09:03:24Z</time></trkpt><trkpt lat="41.04649035443864" lon="8.994139345430197"><ele>171.5</ele><time>2026-05-02T09:03:25Z</time></trkpt><trkpt lat="41.046265702536004" lon="8.993905088951342"><ele>171.0</ele><time>2026-05-02T09:03:26Z</time></trkpt><trkpt lat="41.0460368877045" lon="8.993663963255505"><ele>171.0</ele><time>2026-05-02T09:03:27Z</time></trkpt><trkpt lat="41.04580275643362" lon="8.99342446596352"><ele>171.0</ele><time>2026-05-02T09:03:28Z</time></trkpt><trkpt lat="41.045571896727445" lon="8.993180026701454"><ele>169.0</ele><time>2026-05-02T09:03:29Z</time></trkpt><trkpt lat="41.04534115590017" lon="8.992932247612575"><ele>167.0</ele><time>2026-05-02T09:03:30Z</time></trkpt><trkpt lat="41.04510824987843" lon="8.992681752829828"><ele>165.5</ele><time>2026-05-02T09:03:31Z</time></trkpt><trkpt lat="41.04486719766185" lon="8.992439299532062"><ele>164.0</ele><time>2026-05-02T09:03:32Z</time></trkpt><trkpt lat="41.04463085768476" lon="8.992193662180474"><ele>164.0</ele><time>2026-05-02T09:03:33Z</time></trkpt><trkpt lat="41.04439977296752" lon="8.991949977237446"><ele>164.0</ele><time>2026-05-02T09:03:34Z</time></trkpt><trkpt lat="41.044182858636795" lon="8.991715659972925"><ele>166.0</ele><time>2026-05-02T09:03:35Z</time></trkpt><trkpt lat="41.04397664565743" lon="8.991495711818239"><ele>168.0</ele><time>2026-05-02T09:03:36Z</time></trkpt><trkpt lat="41.04377162998958" lon="8.991286033357953"><ele>168.0</ele><time>2026-05-02T09:03:37Z</time></trkpt><trkpt lat="41.04358293747698" lon="8.991070890409668"><ele>168.0</ele><time>2026-05-02T09:03:38Z</time></trkpt><trkpt lat="41.04341406797243" lon="8.990838873678078"><ele>164.0</ele><time>2026-05-02T09:03:39Z</time></trkpt><trkpt lat="41.04328543739502" lon="8.99057723012118"><ele>160.0</ele><time>2026-05-02T09:03:40Z</time></trkpt><trkpt lat="41.043168660767" lon="8.9902910968088"><ele>158.0</ele><time>2026-05-02T09:03:41Z</time></trkpt><trkpt lat="41.04306893730313" lon="8.989992464556725"><ele>156.0</ele><time>2026-05-02T09:03:42Z</time></trkpt><trkpt lat="41.04300273030787" lon="8.989668125415667"><ele>156.0</ele><time>2026-05-02T09:03:43Z</time></trkpt><trkpt lat="41.04297460482223" lon="8.98934374843721"><ele>156.0</ele><time>2026-05-02T09:03:44Z</time></trkpt><trkpt lat="41.042942827889654" lon="8.989033122347815"><ele>155.0</ele><time>2026-05-02T09:03:45Z</time></trkpt><trkpt lat="41.04289324244962" lon="8.988732013582737"><ele>154.0</ele><time>2026-05-02T09:03:46Z</time></trkpt><trkpt lat="41.04284977478494" lon="8.988446106617534"><ele>153.33333333333334</ele><time>2026-05-02T09:03:47Z</time></trkpt><trkpt lat="41.04281162661415" lon="8.988167995393193"><ele>152.66666666666666</ele><time>2026-05-02T09:03:48Z</time></trkpt><trkpt lat="41.04277631330155" lon="8.987916119415713"><ele>152.0</ele><time>2026-05-02T09:03:49Z</time></trkpt><trkpt lat="41.0427393795636" lon="8.987668309137414"><ele>152.0</ele><time>2026-05-02T09:03:50Z</time></trkpt><trkpt lat="41.042712536769194" lon="8.987457002154065"><ele>152.0</ele><time>2026-05-02T09:03:51Z</time></trkpt><trkpt lat="41.04269329638897" lon="8.987297288635348"><ele>152.0</ele><time>2026-05-02T09:03:52Z</time></trkpt><trkpt lat="41.04267653066471" lon="8.987162716797403"><ele>152.0</ele><time>2026-05-02T09:03:53Z</time></trkpt><trkpt lat="41.042659414747085" lon="8.987053199370619"><ele>152.0</ele><time>2026-05-02T09:03:54Z</time></trkpt><trkpt lat="41.04263687290483" lon="8.986947158218053"><ele>152.0</ele><time>2026-05-02T09:03:55Z</time></trkpt><trkpt lat="41.042622035843856" lon="8.986841625532993"><ele>152.0</ele><time>2026-05-02T09:03:56Z</time></trkpt><trkpt lat="41.04260752812783" lon="8.986743126786335"><ele>152.0</ele><time>2026-05-02T09:03:57Z</time></trkpt><trkpt lat="41.04259060411236" lon="8.986641847158483"><ele>152.0</ele><time>2026-05-02T09:03:58Z</time></trkpt><trkpt lat="41.04257452375955" lon="8.98654836188956"><ele>152.0</ele><time>2026-05-02T09:03:59Z</time></trkpt><trkpt lat="41.0425528432797" lon="8.986444512271918"><ele>152.0</ele><time>2026-05-02T09:04:00Z</time></trkpt><trkpt lat="41.04252500947375" lon="8.986317348800153"><ele>152.0</ele><time>2026-05-02T09:04:01Z</time></trkpt><trkpt lat="41.04248958742975" lon="8.986131978436637"><ele>152.0</ele><time>2026-05-02T09:04:02Z</time></trkpt><trkpt lat="41.042449258398364" lon="8.985922552845047"><ele>152.0</ele><time>2026-05-02T09:04:03Z</time></trkpt><trkpt lat="41.04243282825567" lon="8.985659145254498"><ele>152.0</ele><time>2026-05-02T09:04:04Z</time></trkpt><trkpt lat="41.04240383860527" lon="8.985440727199633"><ele>152.0</ele><time>2026-05-02T09:04:05Z</time></trkpt><trkpt lat="41.04237201346399" lon="8.985222366537394"><ele>152.0</ele><time>2026-05-02T09:04:06Z</time></trkpt><trkpt lat="41.04234128034171" lon="8.985031143486987"><ele>152.25</ele><time>2026-05-02T09:04:07Z</time></trkpt><trkpt lat="41.04232377578304" lon="8.98487395932583"><ele>152.5</ele><time>2026-05-02T09:04:08Z</time></trkpt><trkpt lat="41.04230440751253" lon="8.984720989717477"><ele>152.75</ele><time>2026-05-02T09:04:09Z</time></trkpt><trkpt lat="41.042278400884214" lon="8.984581546173391"><ele>153.0</ele><time>2026-05-02T09:04:10Z</time></trkpt><trkpt lat="41.04223036530812" lon="8.984394964358795"><ele>153.33333333333334</ele><time>2026-05-02T09:04:11Z</time></trkpt><trkpt lat="41.042183681883905" lon="8.984129594745497"><ele>153.66666666666669</ele><time>2026-05-02T09:04:12Z</time></trkpt><trkpt lat="41.04215464351061" lon="8.983820234922076"><ele>154.0</ele><time>2026-05-02T09:04:13Z</time></trkpt><trkpt lat="41.042120949935196" lon="8.98349204591733"><ele>155.0</ele><time>2026-05-02T09:04:14Z</time></trkpt><trkpt lat="41.042073216365374" lon="8.983174842251831"><ele>156.0</ele><time>2026-05-02T09:04:15Z</time></trkpt><trkpt lat="41.0420238502691" lon="8.982869157868647"><ele>156.0</ele><time>2026-05-02T09:04:16Z</time></trkpt><trkpt lat="41.0419794665415" lon="8.982570647700117"><ele>156.0</ele><time>2026-05-02T09:04:17Z</time></trkpt><trkpt lat="41.04194034739548" lon="8.98228082161808"><ele>155.0</ele><time>2026-05-02T09:04:18Z</time></trkpt><trkpt lat="41.04189611403598" lon="8.98198985398618"><ele>154.0</ele><time>2026-05-02T09:04:19Z</time></trkpt><trkpt lat="41.041831505973725" lon="8.981689790696516"><ele>154.0</ele><time>2026-05-02T09:04:20Z</time></trkpt><trkpt lat="41.04172574763878" lon="8.981434331126868"><ele>154.0</ele><time>2026-05-02T09:04:21Z</time></trkpt><trkpt lat="41.041563678205975" lon="8.98120352296686"><ele>152.5</ele><time>2026-05-02T09:04:22Z</time></trkpt><trkpt lat="41.04135381561755" lon="8.980981291041951"><ele>151.0</ele><time>2026-05-02T09:04:23Z</time></trkpt><trkpt lat="41.04113229298597" lon="8.980738869967801"><ele>151.0</ele><time>2026-05-02T09:04:24Z</time></trkpt><trkpt lat="41.04091618506082" lon="8.98046997585002"><ele>151.0</ele><time>2026-05-02T09:04:25Z</time></trkpt><trkpt lat="41.040705250913646" lon="8.980195779144918"><ele>152.5</ele><time>2026-05-02T09:04:26Z</time></trkpt><trkpt lat="41.04048510202" lon="8.979914128026273"><ele>154.0</ele><time>2026-05-02T09:04:27Z</time></trkpt><trkpt lat="41.040274907376244" lon="8.979630776012492"><ele>154.0</ele><time>2026-05-02T09:04:28Z</time></trkpt><trkpt lat="41.04007439057213" lon="8.979367859448349"><ele>154.0</ele><time>2026-05-02T09:04:29Z</time></trkpt><trkpt lat="41.039875588412166" lon="8.97911283793728"><ele>155.0</ele><time>2026-05-02T09:04:30Z</time></trkpt><trkpt lat="41.03968312250092" lon="8.978871991960478"><ele>156.0</ele><time>2026-05-02T09:04:31Z</time></trkpt><trkpt lat="41.039508462483575" lon="8.97865104694934"><ele>156.0</ele><time>2026-05-02T09:04:32Z</time></trkpt><trkpt lat="41.039353391874336" lon="8.97844682966059"><ele>156.0</ele><time>2026-05-02T09:04:33Z</time></trkpt><trkpt lat="41.03919662513827" lon="8.97829286053353"><ele>156.0</ele><time>2026-05-02T09:04:34Z</time></trkpt><trkpt lat="41.03901631674809" lon="8.978216139898402"><ele>155.0</ele><time>2026-05-02T09:04:35Z</time></trkpt><trkpt lat="41.038807028627566" lon="8.97821170729368"><ele>154.0</ele><time>2026-05-02T09:04:36Z</time></trkpt><trkpt lat="41.03856761587632" lon="8.978238234771167"><ele>151.5</ele><time>2026-05-02T09:04:37Z</time></trkpt><trkpt lat="41.03829618956373" lon="8.978217684961297"><ele>149.0</ele><time>2026-05-02T09:04:38Z</time></trkpt><trkpt lat="41.03802437980137" lon="8.978165300091842"><ele>149.0</ele><time>2026-05-02T09:04:39Z</time></trkpt><trkpt lat="41.037770784975436" lon="8.978142346006507"><ele>149.0</ele><time>2026-05-02T09:04:40Z</time></trkpt><trkpt lat="41.03754197361222" lon="8.978123682904279"><ele>147.33333333333331</ele><time>2026-05-02T09:04:41Z</time></trkpt><trkpt lat="41.037319693892314" lon="8.978096353712198"><ele>145.66666666666666</ele><time>2026-05-02T09:04:42Z</time></trkpt><trkpt lat="41.037106196183124" lon="8.978046360675343"><ele>144.0</ele><time>2026-05-02T09:04:43Z</time></trkpt><trkpt lat="41.03690990301846" lon="8.97794743794133"><ele>144.0</ele><time>2026-05-02T09:04:44Z</time></trkpt><trkpt lat="41.036750729698" lon="8.977772042731665"><ele>144.0</ele><time>2026-05-02T09:04:45Z</time></trkpt><trkpt lat="41.03658888304949" lon="8.977537636445739"><ele>144.0</ele><time>2026-05-02T09:04:46Z</time></trkpt><trkpt lat="41.03641254614264" lon="8.977304872296076"><ele>142.0</ele><time>2026-05-02T09:04:47Z</time></trkpt><trkpt lat="41.03623257989572" lon="8.977090157600779"><ele>140.0</ele><time>2026-05-02T09:04:48Z</time></trkpt><trkpt lat="41.03605537411313" lon="8.976882990786558"><ele>140.0</ele><time>2026-05-02T09:04:49Z</time></trkpt><trkpt lat="41.03588808305336" lon="8.976668080119545"><ele>140.0</ele><time>2026-05-02T09:04:50Z</time></trkpt><trkpt lat="41.03571262924872" lon="8.976471009880491"><ele>139.0</ele><time>2026-05-02T09:04:51Z</time></trkpt><trkpt lat="41.035540160497966" lon="8.976278545833683"><ele>138.0</ele><time>2026-05-02T09:04:52Z</time></trkpt><trkpt lat="41.035384802948535" lon="8.976087690280139"><ele>137.0</ele><time>2026-05-02T09:04:53Z</time></trkpt><trkpt lat="41.03523491472587" lon="8.975909019079419"><ele>136.66666666666666</ele><time>2026-05-02T09:04:54Z</time></trkpt><trkpt lat="41.03509363793505" lon="8.9757328668931"><ele>136.33333333333334</ele><time>2026-05-02T09:04:55Z</time></trkpt><trkpt lat="41.03494754513501" lon="8.975560302728644"><ele>136.0</ele><time>2026-05-02T09:04:56Z</time></trkpt><trkpt lat="41.0348006415973" lon="8.975378594115814"><ele>136.0</ele><time>2026-05-02T09:04:57Z</time></trkpt><trkpt lat="41.03465439297197" lon="8.975178667203824"><ele>136.0</ele><time>2026-05-02T09:04:58Z</time></trkpt><trkpt lat="41.03450280252818" lon="8.974967966970478"><ele>136.0</ele><time>2026-05-02T09:04:59Z</time></trkpt><trkpt lat="41.034359307832815" lon="8.974742963957645"><ele>135.5</ele><time>2026-05-02T09:05:00Z</time></trkpt><trkpt lat="41.034206983218745" lon="8.974508172879508"><ele>135.0</ele><time>2026-05-02T09:05:01Z</time></trkpt><trkpt lat="41.03405873932361" lon="8.974287196981757"><ele>134.0</ele><time>2026-05-02T09:05:02Z</time></trkpt><trkpt lat="41.03390794071013" lon="8.974062968439563"><ele>133.0</ele><time>2026-05-02T09:05:03Z</time></trkpt><trkpt lat="41.03375987571014" lon="8.973841576542107"><ele>133.0</ele><time>2026-05-02T09:05:04Z</time></trkpt><trkpt lat="41.03360260384862" lon="8.973601088485175"><ele>133.0</ele><time>2026-05-02T09:05:05Z</time></trkpt><trkpt lat="41.03345252121211" lon="8.973363484737064"><ele>134.5</ele><time>2026-05-02T09:05:06Z</time></trkpt><trkpt lat="41.03330041410206" lon="8.973116990587442"><ele>136.0</ele><time>2026-05-02T09:05:07Z</time></trkpt><trkpt lat="41.03315145293988" lon="8.972875483244827"><ele>136.0</ele><time>2026-05-02T09:05:08Z</time></trkpt><trkpt lat="41.03301270260453" lon="8.972645351817633"><ele>136.0</ele><time>2026-05-02T09:05:09Z</time></trkpt><trkpt lat="41.03288008054767" lon="8.972423043554018"><ele>136.0</ele><time>2026-05-02T09:05:10Z</time></trkpt><trkpt lat="41.03275690187199" lon="8.972221329185853"><ele>135.66666666666669</ele><time>2026-05-02T09:05:11Z</time></trkpt><trkpt lat="41.032632872565266" lon="8.972021282280954"><ele>135.33333333333334</ele><time>2026-05-02T09:05:12Z</time></trkpt><trkpt lat="41.03251307331777" lon="8.97183037343346"><ele>135.0</ele><time>2026-05-02T09:05:13Z</time></trkpt><trkpt lat="41.03239258055919" lon="8.97163998611923"><ele>134.66666666666666</ele><time>2026-05-02T09:05:14Z</time></trkpt><trkpt lat="41.032240545865946" lon="8.971483291606118"><ele>134.33333333333331</ele><time>2026-05-02T09:05:15Z</time></trkpt><trkpt lat="41.03205277995959" lon="8.971381831988479"><ele>134.0</ele><time>2026-05-02T09:05:16Z</time></trkpt><trkpt lat="41.03183317928951" lon="8.971314649650626"><ele>133.0</ele><time>2026-05-02T09:05:17Z</time></trkpt><trkpt lat="41.03162209074514" lon="8.971223531489336"><ele>132.0</ele><time>2026-05-02T09:05:18Z</time></trkpt><trkpt lat="41.03142288015422" lon="8.971121848173171"><ele>131.0</ele><time>2026-05-02T09:05:19Z</time></trkpt><trkpt lat="41.03122860647342" lon="8.971040533592264"><ele>131.0</ele><time>2026-05-02T09:05:20Z</time></trkpt><trkpt lat="41.03106053480305" lon="8.970932559351203"><ele>131.0</ele><time>2026-05-02T09:05:21Z</time></trkpt><trkpt lat="41.030913846123106" lon="8.970849347051997"><ele>131.0</ele><time>2026-05-02T09:05:22Z</time></trkpt><trkpt lat="41.03078440705424" lon="8.970788759840396"><ele>133.25</ele><time>2026-05-02T09:05:23Z</time></trkpt><trkpt lat="41.030657681526854" lon="8.970715327129152"><ele>135.5</ele><time>2026-05-02T09:05:24Z</time></trkpt><trkpt lat="41.03054652484832" lon="8.970633219895642"><ele>137.75</ele><time>2026-05-02T09:05:25Z</time></trkpt><trkpt lat="41.030453900315486" lon="8.970543948471523"><ele>140.0</ele><time>2026-05-02T09:05:26Z</time></trkpt><trkpt lat="41.03037717921763" lon="8.970441229185772"><ele>140.0</ele><time>2026-05-02T09:05:27Z</time></trkpt><trkpt lat="41.03029939798129" lon="8.970328569286261"><ele>140.0</ele><time>2026-05-02T09:05:28Z</time></trkpt><trkpt lat="41.030213943196415" lon="8.970193009052357"><ele>140.0</ele><time>2026-05-02T09:05:29Z</time></trkpt><trkpt lat="41.03013402131428" lon="8.970063921807283"><ele>140.0</ele><time>2026-05-02T09:05:30Z</time></trkpt><trkpt lat="41.030031130137445" lon="8.96990948790666"><ele>142.66666666666666</ele><time>2026-05-02T09:05:31Z</time></trkpt><trkpt lat="41.029920522480865" lon="8.969740224645394"><ele>145.33333333333334</ele><time>2026-05-02T09:05:32Z</time></trkpt><trkpt lat="41.02980798858882" lon="8.969549778140522"><ele>148.0</ele><time>2026-05-02T09:05:33Z</time></trkpt><trkpt lat="41.029687083667326" lon="8.969322941690809"><ele>148.66666666666669</ele><time>2026-05-02T09:05:34Z</time></trkpt><trkpt lat="41.0295524940609" lon="8.969093248682741"><ele>149.33333333333334</ele><time>2026-05-02T09:05:35Z</time></trkpt><trkpt lat="41.02941919799189" lon="8.968892857279668"><ele>150.0</ele><time>2026-05-02T09:05:36Z</time></trkpt><trkpt lat="41.029316624428155" lon="8.968694343603595"><ele>150.0</ele><time>2026-05-02T09:05:37Z</time></trkpt><trkpt lat="41.02925599441777" lon="8.96845522470843"><ele>150.0</ele><time>2026-05-02T09:05:38Z</time></trkpt><trkpt lat="41.02925528934309" lon="8.968167305306334"><ele>150.0</ele><time>2026-05-02T09:05:39Z</time></trkpt><trkpt lat="41.029280445332404" lon="8.96785068003518"><ele>149.0</ele><time>2026-05-02T09:05:40Z</time></trkpt><trkpt lat="41.02928969894943" lon="8.967545856230629"><ele>148.0</ele><time>2026-05-02T09:05:41Z</time></trkpt><trkpt lat="41.02927607872066" lon="8.967231035357555"><ele>147.0</ele><time>2026-05-02T09:05:42Z</time></trkpt><trkpt lat="41.02924496845519" lon="8.96691062404483"><ele>146.0</ele><time>2026-05-02T09:05:43Z</time></trkpt><trkpt lat="41.0291773373346" lon="8.966582925561779"><ele>161.0</ele><time>2026-05-02T09:05:44Z</time></trkpt><trkpt lat="41.02909838113783" lon="8.966236189639696"><ele>176.0</ele><time>2026-05-02T09:05:45Z</time></trkpt><trkpt lat="41.02903026884309" lon="8.965877074036952"><ele>175.0</ele><time>2026-05-02T09:05:46Z</time></trkpt><trkpt lat="41.02896014744699" lon="8.96551785191473"><ele>174.0</ele><time>2026-05-02T09:05:47Z</time></trkpt><trkpt lat="41.02887955196108" lon="8.96517026401255"><ele>170.0</ele><time>2026-05-02T09:05:48Z</time></trkpt><trkpt lat="41.02877770833021" lon="8.964833437146384"><ele>166.0</ele><time>2026-05-02T09:05:49Z</time></trkpt><trkpt lat="41.0286755515553" lon="8.964492118819022"><ele>165.0</ele><time>2026-05-02T09:05:50Z</time></trkpt><trkpt lat="41.02859211973955" lon="8.964150045558474"><ele>164.0</ele><time>2026-05-02T09:05:51Z</time></trkpt><trkpt lat="41.02852324338615" lon="8.963820830836552"><ele>164.0</ele><time>2026-05-02T09:05:52Z</time></trkpt><trkpt lat="41.02846038775585" lon="8.96351279780935"><ele>164.0</ele><time>2026-05-02T09:05:53Z</time></trkpt><trkpt lat="41.028403116269416" lon="8.963247240097092"><ele>164.0</ele><time>2026-05-02T09:05:54Z</time></trkpt><trkpt lat="41.028374335483264" lon="8.963026262469539"><ele>163.66666666666666</ele><time>2026-05-02T09:05:55Z</time></trkpt><trkpt lat="41.02841222439032" lon="8.962822328465066"><ele>163.33333333333334</ele><time>2026-05-02T09:05:56Z</time></trkpt><trkpt lat="41.02851981499103" lon="8.962649034916462"><ele>163.0</ele><time>2026-05-02T09:05:57Z</time></trkpt><trkpt lat="41.0287047707473" lon="8.962556345528421"><ele>162.66666666666669</ele><time>2026-05-02T09:05:58Z</time></trkpt><trkpt lat="41.028881098035534" lon="8.962506978024864"><ele>162.33333333333334</ele><time>2026-05-02T09:05:59Z</time></trkpt><trkpt lat="41.02908134762294" lon="8.962516577790758"><ele>162.0</ele><time>2026-05-02T09:06:00Z</time></trkpt><trkpt lat="41.02928669261754" lon="8.962521015766956"><ele>162.0</ele><time>2026-05-02T09:06:01Z</time></trkpt><trkpt lat="41.02945890808197" lon="8.96253431890336"><ele>162.0</ele><time>2026-05-02T09:06:02Z</time></trkpt><trkpt lat="41.02961039642652" lon="8.962461773853773"><ele>162.0</ele><time>2026-05-02T09:06:03Z</time></trkpt><trkpt lat="41.02973130361124" lon="8.962312973732026"><ele>162.0</ele><time>2026-05-02T09:06:04Z</time></trkpt><trkpt lat="41.02980725505393" lon="8.96208527300803"><ele>162.0</ele><time>2026-05-02T09:06:05Z</time></trkpt><trkpt lat="41.02989245951886" lon="8.961813990337811"><ele>162.0</ele><time>2026-05-02T09:06:06Z</time></trkpt><trkpt lat="41.030003939046615" lon="8.961523578003183"><ele>163.0</ele><time>2026-05-02T09:06:07Z</time></trkpt><trkpt lat="41.030122194043884" lon="8.961241590241622"><ele>164.0</ele><time>2026-05-02T09:06:08Z</time></trkpt><trkpt lat="41.0302290110663" lon="8.960981049570421"><ele>166.0</ele><time>2026-05-02T09:06:09Z</time></trkpt><trkpt lat="41.03033985973149" lon="8.960754694844814"><ele>168.0</ele><time>2026-05-02T09:06:10Z</time></trkpt><trkpt lat="41.03041009891003" lon="8.960532234842143"><ele>170.0</ele><time>2026-05-02T09:06:11Z</time></trkpt><trkpt lat="41.03047196872394" lon="8.960320775595411"><ele>170.0</ele><time>2026-05-02T09:06:12Z</time></trkpt><trkpt lat="41.03048133713787" lon="8.96007839267972"><ele>170.0</ele><time>2026-05-02T09:06:13Z</time></trkpt><trkpt lat="41.03042227666155" lon="8.95983472575048"><ele>170.0</ele><time>2026-05-02T09:06:14Z</time></trkpt><trkpt lat="41.030325188996116" lon="8.959617272181193"><ele>170.75</ele><time>2026-05-02T09:06:15Z</time></trkpt><trkpt lat="41.03022468686754" lon="8.959495172678926"><ele>171.5</ele><time>2026-05-02T09:06:16Z</time></trkpt><trkpt lat="41.03010701428181" lon="8.959466927750737"><ele>172.25</ele><time>2026-05-02T09:06:17Z</time></trkpt><trkpt lat="41.02996957126994" lon="8.959499525430747"><ele>173.0</ele><time>2026-05-02T09:06:18Z</time></trkpt><trkpt lat="41.02981431913864" lon="8.959564648537711"><ele>175.33333333333331</ele><time>2026-05-02T09:06:19Z</time></trkpt><trkpt lat="41.02963293334134" lon="8.95960518034424"><ele>177.66666666666666</ele><time>2026-05-02T09:06:20Z</time></trkpt><trkpt lat="41.02944370353119" lon="8.959650583793827"><ele>180.0</ele><time>2026-05-02T09:06:21Z</time></trkpt><trkpt lat="41.02925688323474" lon="8.959687917701785"><ele>181.0</ele><time>2026-05-02T09:06:22Z</time></trkpt><trkpt lat="41.02908126164368" lon="8.959684931955557"><ele>182.0</ele><time>2026-05-02T09:06:23Z</time></trkpt><trkpt lat="41.02892234693523" lon="8.959611455910892"><ele>183.0</ele><time>2026-05-02T09:06:24Z</time></trkpt><trkpt lat="41.02877997443956" lon="8.959453446012489"><ele>183.0</ele><time>2026-05-02T09:06:25Z</time></trkpt><trkpt lat="41.028612014965866" lon="8.959267283033943"><ele>183.0</ele><time>2026-05-02T09:06:26Z</time></trkpt><trkpt lat="41.0284601847218" lon="8.959085865662768"><ele>183.0</ele><time>2026-05-02T09:06:27Z</time></trkpt><trkpt lat="41.02836565444439" lon="8.958905689199822"><ele>183.0</ele><time>2026-05-02T09:06:28Z</time></trkpt><trkpt lat="41.0283267541289" lon="8.9587156462824"><ele>183.0</ele><time>2026-05-02T09:06:29Z</time></trkpt><trkpt lat="41.02834200145742" lon="8.958531127817363"><ele>183.0</ele><time>2026-05-02T09:06:30Z</time></trkpt><trkpt lat="41.02838593269903" lon="8.95829539709639"><ele>185.0</ele><time>2026-05-02T09:06:31Z</time></trkpt><trkpt lat="41.02843918415134" lon="8.958001730485599"><ele>187.0</ele><time>2026-05-02T09:06:32Z</time></trkpt><trkpt lat="41.028478901585466" lon="8.957691994029794"><ele>188.5</ele><time>2026-05-02T09:06:33Z</time></trkpt><trkpt lat="41.02850133099411" lon="8.957381426781295"><ele>190.0</ele><time>2026-05-02T09:06:34Z</time></trkpt><trkpt lat="41.028511771087345" lon="8.957055715817159"><ele>190.0</ele><time>2026-05-02T09:06:35Z</time></trkpt><trkpt lat="41.028524578681484" lon="8.956724727938019"><ele>190.0</ele><time>2026-05-02T09:06:36Z</time></trkpt><trkpt lat="41.0285397251327" lon="8.956394844432063"><ele>190.5</ele><time>2026-05-02T09:06:37Z</time></trkpt><trkpt lat="41.02855290644676" lon="8.956065101303139"><ele>191.0</ele><time>2026-05-02T09:06:38Z</time></trkpt><trkpt lat="41.02856469735048" lon="8.955740386923972"><ele>191.0</ele><time>2026-05-02T09:06:39Z</time></trkpt><trkpt lat="41.02858358489432" lon="8.955419006037504"><ele>191.0</ele><time>2026-05-02T09:06:40Z</time></trkpt><trkpt lat="41.02860875064284" lon="8.955108291268408"><ele>191.5</ele><time>2026-05-02T09:06:41Z</time></trkpt><trkpt lat="41.02868760861193" lon="8.954820961942882"><ele>192.0</ele><time>2026-05-02T09:06:42Z</time></trkpt><trkpt lat="41.028767010124284" lon="8.954523670241375"><ele>192.0</ele><time>2026-05-02T09:06:43Z</time></trkpt><trkpt lat="41.02884649668077" lon="8.954226060667477"><ele>192.0</ele><time>2026-05-02T09:06:44Z</time></trkpt><trkpt lat="41.028922056856665" lon="8.95393943352733"><ele>189.0</ele><time>2026-05-02T09:06:45Z</time></trkpt><trkpt lat="41.02896985383365" lon="8.953623006321601"><ele>186.0</ele><time>2026-05-02T09:06:46Z</time></trkpt><trkpt lat="41.029018273117835" lon="8.953300886618534"><ele>182.0</ele><time>2026-05-02T09:06:47Z</time></trkpt><trkpt lat="41.029037067945346" lon="8.95297181914619"><ele>178.0</ele><time>2026-05-02T09:06:48Z</time></trkpt><trkpt lat="41.02904391448565" lon="8.952648925037272"><ele>175.5</ele><time>2026-05-02T09:06:49Z</time></trkpt><trkpt lat="41.029034136662304" lon="8.952331596893016"><ele>173.0</ele><time>2026-05-02T09:06:50Z</time></trkpt><trkpt lat="41.02900778166153" lon="8.95201720383012"><ele>172.5</ele><time>2026-05-02T09:06:51Z</time></trkpt><trkpt lat="41.02897493165005" lon="8.951696522356402"><ele>172.0</ele><time>2026-05-02T09:06:52Z</time></trkpt><trkpt lat="41.02894337869681" lon="8.951380223339656"><ele>172.0</ele><time>2026-05-02T09:06:53Z</time></trkpt><trkpt lat="41.028909503440325" lon="8.951062560294993"><ele>172.0</ele><time>2026-05-02T09:06:54Z</time></trkpt><trkpt lat="41.02887110890257" lon="8.950745719391325"><ele>173.5</ele><time>2026-05-02T09:06:55Z</time></trkpt><trkpt lat="41.02883698243251" lon="8.950425840872704"><ele>175.0</ele><time>2026-05-02T09:06:56Z</time></trkpt><trkpt lat="41.028792842032985" lon="8.950108607706301"><ele>174.5</ele><time>2026-05-02T09:06:57Z</time></trkpt><trkpt lat="41.02874755311133" lon="8.949795618298786"><ele>174.0</ele><time>2026-05-02T09:06:58Z</time></trkpt><trkpt lat="41.02869264326486" lon="8.94949234229831"><ele>174.5</ele><time>2026-05-02T09:06:59Z</time></trkpt><trkpt lat="41.02862240712742" lon="8.949205813580006"><ele>175.0</ele><time>2026-05-02T09:07:00Z</time></trkpt><trkpt lat="41.028537451581634" lon="8.94892533709636"><ele>175.0</ele><time>2026-05-02T09:07:01Z</time></trkpt><trkpt lat="41.02844411073912" lon="8.948647981593188"><ele>175.0</ele><time>2026-05-02T09:07:02Z</time></trkpt><trkpt lat="41.02835725749501" lon="8.948381527277032"><ele>175.0</ele><time>2026-05-02T09:07:03Z</time></trkpt><trkpt lat="41.0282693928489" lon="8.948133178422234"><ele>173.66666666666669</ele><time>2026-05-02T09:07:04Z</time></trkpt><trkpt lat="41.02819567784946" lon="8.947911712465618"><ele>172.33333333333334</ele><time>2026-05-02T09:07:05Z</time></trkpt><trkpt lat="41.02813335596694" lon="8.947715297290115"><ele>171.0</ele><time>2026-05-02T09:07:06Z</time></trkpt><trkpt lat="41.0280870192377" lon="8.947526019841806"><ele>171.0</ele><time>2026-05-02T09:07:07Z</time></trkpt><trkpt lat="41.028054684353826" lon="8.947311038114925"><ele>171.0</ele><time>2026-05-02T09:07:08Z</time></trkpt><trkpt lat="41.02805291633699" lon="8.94703834247776"><ele>171.0</ele><time>2026-05-02T09:07:09Z</time></trkpt><trkpt lat="41.028102343960214" lon="8.946722374554966"><ele>169.5</ele><time>2026-05-02T09:07:10Z</time></trkpt><trkpt lat="41.028143893340484" lon="8.946402877622058"><ele>168.0</ele><time>2026-05-02T09:07:11Z</time></trkpt><trkpt lat="41.02810860547076" lon="8.946082959780663"><ele>167.0</ele><time>2026-05-02T09:07:12Z</time></trkpt><trkpt lat="41.02803088849419" lon="8.945810359741914"><ele>166.0</ele><time>2026-05-02T09:07:13Z</time></trkpt><trkpt lat="41.02793635584289" lon="8.945601400501051"><ele>165.0</ele><time>2026-05-02T09:07:14Z</time></trkpt><trkpt lat="41.02778738002359" lon="8.945456498289582"><ele>165.0</ele><time>2026-05-02T09:07:15Z</time></trkpt><trkpt lat="41.02759948016111" lon="8.945352924801401"><ele>165.0</ele><time>2026-05-02T09:07:16Z</time></trkpt><trkpt lat="41.027402113176066" lon="8.945259400410979"><ele>165.0</ele><time>2026-05-02T09:07:17Z</time></trkpt><trkpt lat="41.0272366357016" lon="8.945158113557245"><ele>163.0</ele><time>2026-05-02T09:07:18Z</time></trkpt><trkpt lat="41.027085020707624" lon="8.945012728346882"><ele>161.0</ele><time>2026-05-02T09:07:19Z</time></trkpt><trkpt lat="41.026960269481236" lon="8.944800827551985"><ele>159.0</ele><time>2026-05-02T09:07:20Z</time></trkpt><trkpt lat="41.02686790110014" lon="8.944559483805536"><ele>159.0</ele><time>2026-05-02T09:07:21Z</time></trkpt><trkpt lat="41.02676248733396" lon="8.944352758853734"><ele>159.0</ele><time>2026-05-02T09:07:22Z</time></trkpt><trkpt lat="41.02661223918654" lon="8.944206741320878"><ele>159.0</ele><time>2026-05-02T09:07:23Z</time></trkpt><trkpt lat="41.0263991017148" lon="8.944110441428837"><ele>159.0</ele><time>2026-05-02T09:07:24Z</time></trkpt><trkpt lat="41.02614120364848" lon="8.944057812134396"><ele>159.0</ele><time>2026-05-02T09:07:25Z</time></trkpt><trkpt lat="41.02585032120317" lon="8.943982801879418"><ele>155.0</ele><time>2026-05-02T09:07:26Z</time></trkpt><trkpt lat="41.02553560719035" lon="8.94385643733703"><ele>151.0</ele><time>2026-05-02T09:07:27Z</time></trkpt><trkpt lat="41.025204467411086" lon="8.943722310736948"><ele>149.0</ele><time>2026-05-02T09:07:28Z</time></trkpt><trkpt lat="41.024906879046966" lon="8.943612581983352"><ele>147.0</ele><time>2026-05-02T09:07:29Z</time></trkpt><trkpt lat="41.02463034325282" lon="8.943516109708463"><ele>147.0</ele><time>2026-05-02T09:07:30Z</time></trkpt><trkpt lat="41.02436721234634" lon="8.943422554924439"><ele>147.0</ele><time>2026-05-02T09:07:31Z</time></trkpt><trkpt lat="41.02412245253266" lon="8.943330781004166"><ele>149.0</ele><time>2026-05-02T09:07:32Z</time></trkpt><trkpt lat="41.02388580558841" lon="8.94325781224828"><ele>151.0</ele><time>2026-05-02T09:07:33Z</time></trkpt><trkpt lat="41.02364824158466" lon="8.943221383420685"><ele>151.0</ele><time>2026-05-02T09:07:34Z</time></trkpt><trkpt lat="41.02339385024866" lon="8.9432309505593"><ele>151.0</ele><time>2026-05-02T09:07:35Z</time></trkpt><trkpt lat="41.023124168014505" lon="8.943238590062023"><ele>146.5</ele><time>2026-05-02T09:07:36Z</time></trkpt><trkpt lat="41.02283179531562" lon="8.943223532167107"><ele>142.0</ele><time>2026-05-02T09:07:37Z</time></trkpt><trkpt lat="41.02252951741259" lon="8.94318663822277"><ele>138.5</ele><time>2026-05-02T09:07:38Z</time></trkpt><trkpt lat="41.02223803605865" lon="8.943150871019503"><ele>135.0</ele><time>2026-05-02T09:07:39Z</time></trkpt><trkpt lat="41.0219582317406" lon="8.943121025990877"><ele>135.0</ele><time>2026-05-02T09:07:40Z</time></trkpt><trkpt lat="41.02166889490581" lon="8.943090600806107"><ele>135.0</ele><time>2026-05-02T09:07:41Z</time></trkpt><trkpt lat="41.02137415010949" lon="8.943057181987871"><ele>133.5</ele><time>2026-05-02T09:07:42Z</time></trkpt><trkpt lat="41.02108085951505" lon="8.943016190895227"><ele>132.0</ele><time>2026-05-02T09:07:43Z</time></trkpt><trkpt lat="41.020784513755466" lon="8.942971250309078"><ele>130.5</ele><time>2026-05-02T09:07:44Z</time></trkpt><trkpt lat="41.02048183669944" lon="8.942939139125802"><ele>129.0</ele><time>2026-05-02T09:07:45Z</time></trkpt><trkpt lat="41.020173444710075" lon="8.94291563577399"><ele>128.0</ele><time>2026-05-02T09:07:46Z</time></trkpt><trkpt lat="41.01986213908987" lon="8.942901075266349"><ele>127.0</ele><time>2026-05-02T09:07:47Z</time></trkpt><trkpt lat="41.019545390601536" lon="8.942889147946321"><ele>127.0</ele><time>2026-05-02T09:07:48Z</time></trkpt><trkpt lat="41.01923801642775" lon="8.942875549202038"><ele>127.0</ele><time>2026-05-02T09:07:49Z</time></trkpt><trkpt lat="41.018940237695695" lon="8.94285271287787"><ele>125.5</ele><time>2026-05-02T09:07:50Z</time></trkpt><trkpt lat="41.01865484752112" lon="8.942837032749328"><ele>124.0</ele><time>2026-05-02T09:07:51Z</time></trkpt><trkpt lat="41.018380881580846" lon="8.94281504053431"><ele>124.5</ele><time>2026-05-02T09:07:52Z</time></trkpt><trkpt lat="41.01811201996685" lon="8.94278732011515"><ele>125.0</ele><time>2026-05-02T09:07:53Z</time></trkpt><trkpt lat="41.017847127328274" lon="8.942770532613018"><ele>125.0</ele><time>2026-05-02T09:07:54Z</time></trkpt><trkpt lat="41.01759048168031" lon="8.94276008372174"><ele>125.0</ele><time>2026-05-02T09:07:55Z</time></trkpt><trkpt lat="41.01735404612931" lon="8.9427427643054"><ele>127.0</ele><time>2026-05-02T09:07:56Z</time></trkpt><trkpt lat="41.01712846080822" lon="8.942711230330085"><ele>129.0</ele><time>2026-05-02T09:07:57Z</time></trkpt><trkpt lat="41.01694721944489" lon="8.94259204713479"><ele>131.0</ele><time>2026-05-02T09:07:58Z</time></trkpt><trkpt lat="41.01679945388004" lon="8.942385907943203"><ele>131.0</ele><time>2026-05-02T09:07:59Z</time></trkpt><trkpt lat="41.01665839614387" lon="8.94215973840603"><ele>131.0</ele><time>2026-05-02T09:08:00Z</time></trkpt><trkpt lat="41.01652688957628" lon="8.941965567037998"><ele>131.0</ele><time>2026-05-02T09:08:01Z</time></trkpt><trkpt lat="41.01641051289573" lon="8.941762561802259"><ele>129.66666666666666</ele><time>2026-05-02T09:08:02Z</time></trkpt><trkpt lat="41.016319641169694" lon="8.941516385077833"><ele>128.33333333333334</ele><time>2026-05-02T09:08:03Z</time></trkpt><trkpt lat="41.01623683258677" lon="8.941223617381887"><ele>127.0</ele><time>2026-05-02T09:08:04Z</time></trkpt><trkpt lat="41.01613177188527" lon="8.940912240864481"><ele>127.5</ele><time>2026-05-02T09:08:05Z</time></trkpt><trkpt lat="41.01601909955492" lon="8.94059864919154"><ele>128.0</ele><time>2026-05-02T09:08:06Z</time></trkpt><trkpt lat="41.01590856341883" lon="8.940281866451217"><ele>131.0</ele><time>2026-05-02T09:08:07Z</time></trkpt><trkpt lat="41.01580328865882" lon="8.93996019038627"><ele>134.0</ele><time>2026-05-02T09:08:08Z</time></trkpt><trkpt lat="41.015694394086744" lon="8.939645944840693"><ele>134.0</ele><time>2026-05-02T09:08:09Z</time></trkpt><trkpt lat="41.015578661359044" lon="8.939325251396202"><ele>134.0</ele><time>2026-05-02T09:08:10Z</time></trkpt><trkpt lat="41.01547036836501" lon="8.938990534233552"><ele>133.5</ele><time>2026-05-02T09:08:11Z</time></trkpt><trkpt lat="41.01536440390869" lon="8.938651555014301"><ele>133.0</ele><time>2026-05-02T09:08:12Z</time></trkpt><trkpt lat="41.01525232698951" lon="8.93832574989896"><ele>133.0</ele><time>2026-05-02T09:08:13Z</time></trkpt><trkpt lat="41.01514099024758" lon="8.9380193510028"><ele>133.0</ele><time>2026-05-02T09:08:14Z</time></trkpt><trkpt lat="41.01505218789851" lon="8.937725431816336"><ele>134.5</ele><time>2026-05-02T09:08:15Z</time></trkpt><trkpt lat="41.014993949391034" lon="8.937420119208562"><ele>136.0</ele><time>2026-05-02T09:08:16Z</time></trkpt><trkpt lat="41.014960054364536" lon="8.9371173841255"><ele>135.0</ele><time>2026-05-02T09:08:17Z</time></trkpt><trkpt lat="41.0149134968864" lon="8.936813167242386"><ele>134.0</ele><time>2026-05-02T09:08:18Z</time></trkpt><trkpt lat="41.01486074536843" lon="8.936463726776196"><ele>134.0</ele><time>2026-05-02T09:08:19Z</time></trkpt><trkpt lat="41.01476562903988" lon="8.936159476441592"><ele>134.0</ele><time>2026-05-02T09:08:20Z</time></trkpt><trkpt lat="41.01467162190877" lon="8.935866913683277"><ele>132.33333333333331</ele><time>2026-05-02T09:08:21Z</time></trkpt><trkpt lat="41.01458409029105" lon="8.935588530825322"><ele>130.66666666666666</ele><time>2026-05-02T09:08:22Z</time></trkpt><trkpt lat="41.01450531482829" lon="8.935324827359025"><ele>129.0</ele><time>2026-05-02T09:08:23Z</time></trkpt><trkpt lat="41.014413821743005" lon="8.93506580436379"><ele>128.66666666666666</ele><time>2026-05-02T09:08:24Z</time></trkpt><trkpt lat="41.014293956056896" lon="8.934828859087707"><ele>128.33333333333331</ele><time>2026-05-02T09:08:25Z</time></trkpt><trkpt lat="41.01417053281908" lon="8.934605235301005"><ele>128.0</ele><time>2026-05-02T09:08:26Z</time></trkpt><trkpt lat="41.01405807795925" lon="8.934387381868913"><ele>127.0</ele><time>2026-05-02T09:08:27Z</time></trkpt><trkpt lat="41.01395085571972" lon="8.934170136917931"><ele>126.0</ele><time>2026-05-02T09:08:28Z</time></trkpt><trkpt lat="41.01383502739533" lon="8.933942452378725"><ele>125.0</ele><time>2026-05-02T09:08:29Z</time></trkpt><trkpt lat="41.01370204592624" lon="8.933683430083434"><ele>125.0</ele><time>2026-05-02T09:08:30Z</time></trkpt><trkpt lat="41.01355861800323" lon="8.933406744188703"><ele>125.0</ele><time>2026-05-02T09:08:31Z</time></trkpt><trkpt lat="41.01339351698808" lon="8.933105039401129"><ele>123.5</ele><time>2026-05-02T09:08:32Z</time></trkpt><trkpt lat="41.01323094448342" lon="8.932764340575401"><ele>122.0</ele><time>2026-05-02T09:08:33Z</time></trkpt><trkpt lat="41.01305184547842" lon="8.932386949421446"><ele>122.0</ele><time>2026-05-02T09:08:34Z</time></trkpt><trkpt lat="41.01284361432871" lon="8.932015472492433"><ele>122.0</ele><time>2026-05-02T09:08:35Z</time></trkpt><trkpt lat="41.0126379570792" lon="8.931669252355206"><ele>119.5</ele><time>2026-05-02T09:08:36Z</time></trkpt><trkpt lat="41.01244778193956" lon="8.931330101078581"><ele>117.0</ele><time>2026-05-02T09:08:37Z</time></trkpt><trkpt lat="41.01225148687728" lon="8.930978767635665"><ele>111.0</ele><time>2026-05-02T09:08:38Z</time></trkpt><trkpt lat="41.012047808727296" lon="8.930620899164566"><ele>105.0</ele><time>2026-05-02T09:08:39Z</time></trkpt><trkpt lat="41.01184061838463" lon="8.930257721733854"><ele>110.0</ele><time>2026-05-02T09:08:40Z</time></trkpt><trkpt lat="41.011643413545826" lon="8.929905927541357"><ele>115.0</ele><time>2026-05-02T09:08:41Z</time></trkpt><trkpt lat="41.01145891194028" lon="8.929565394972258"><ele>115.0</ele><time>2026-05-02T09:08:42Z</time></trkpt><trkpt lat="41.01128276321579" lon="8.929244454927085"><ele>115.0</ele><time>2026-05-02T09:08:43Z</time></trkpt><trkpt lat="41.01111396145942" lon="8.928940629094608"><ele>114.0</ele><time>2026-05-02T09:08:44Z</time></trkpt><trkpt lat="41.010946832327335" lon="8.92864046861357"><ele>113.0</ele><time>2026-05-02T09:08:45Z</time></trkpt><trkpt lat="41.01078322062138" lon="8.928349210602235"><ele>113.0</ele><time>2026-05-02T09:08:46Z</time></trkpt><trkpt lat="41.01059696882184" lon="8.928076294231749"><ele>113.0</ele><time>2026-05-02T09:08:47Z</time></trkpt><trkpt lat="41.01038300154122" lon="8.927833875408021"><ele>113.0</ele><time>2026-05-02T09:08:48Z</time></trkpt><trkpt lat="41.01016191782543" lon="8.927603476233791"><ele>113.0</ele><time>2026-05-02T09:08:49Z</time></trkpt><trkpt lat="41.00992716496516" lon="8.927357628162685"><ele>109.5</ele><time>2026-05-02T09:08:50Z</time></trkpt><trkpt lat="41.009673945316216" lon="8.927154981635972"><ele>106.0</ele><time>2026-05-02T09:08:51Z</time></trkpt><trkpt lat="41.009437203150796" lon="8.92698897857215"><ele>106.0</ele><time>2026-05-02T09:08:52Z</time></trkpt><trkpt lat="41.00922734925396" lon="8.926784750972862"><ele>106.0</ele><time>2026-05-02T09:08:53Z</time></trkpt><trkpt lat="41.009087807426184" lon="8.92652375400638"><ele>96.0</ele><time>2026-05-02T09:08:54Z</time></trkpt><trkpt lat="41.00895084992523" lon="8.92620259543475"><ele>86.0</ele><time>2026-05-02T09:08:55Z</time></trkpt><trkpt lat="41.008805225869054" lon="8.925834420572288"><ele>85.0</ele><time>2026-05-02T09:08:56Z</time></trkpt><trkpt lat="41.00867613584882" lon="8.92549035993357"><ele>84.0</ele><time>2026-05-02T09:08:57Z</time></trkpt><trkpt lat="41.008567833263825" lon="8.925207625713663"><ele>83.0</ele><time>2026-05-02T09:08:58Z</time></trkpt><trkpt lat="41.008464264634405" lon="8.924977263828712"><ele>82.0</ele><time>2026-05-02T09:08:59Z</time></trkpt><trkpt lat="41.0083502409781" lon="8.924808241740692"><ele>81.0</ele><time>2026-05-02T09:09:00Z</time></trkpt><trkpt lat="41.00819457971765" lon="8.92469981686511"><ele>79.0</ele><time>2026-05-02T09:09:01Z</time></trkpt><trkpt lat="41.0080155765753" lon="8.92464775884173"><ele>77.0</ele><time>2026-05-02T09:09:02Z</time></trkpt><trkpt lat="41.00786329044665" lon="8.924583834049557"><ele>75.0</ele><time>2026-05-02T09:09:03Z</time></trkpt><trkpt lat="41.00774545526761" lon="8.924422087103927"><ele>75.33333333333333</ele><time>2026-05-02T09:09:04Z</time></trkpt><trkpt lat="41.0076517683839" lon="8.924164501713305"><ele>75.66666666666666</ele><time>2026-05-02T09:09:05Z</time></trkpt><trkpt lat="41.00759625294403" lon="8.923916087244137"><ele>76.0</ele><time>2026-05-02T09:09:06Z</time></trkpt><trkpt lat="41.00754628713783" lon="8.923703363600632"><ele>76.0</ele><time>2026-05-02T09:09:07Z</time></trkpt><trkpt lat="41.007525094386054" lon="8.92350677836193"><ele>76.0</ele><time>2026-05-02T09:09:08Z</time></trkpt><trkpt lat="41.007572730825565" lon="8.923306590508558"><ele>76.0</ele><time>2026-05-02T09:09:09Z</time></trkpt><trkpt lat="41.007662373925235" lon="8.923104045727554"><ele>78.33333333333333</ele><time>2026-05-02T09:09:10Z</time></trkpt><trkpt lat="41.00775139586265" lon="8.922902191897537"><ele>80.66666666666667</ele><time>2026-05-02T09:09:11Z</time></trkpt><trkpt lat="41.00778529365657" lon="8.922689359464373"><ele>83.0</ele><time>2026-05-02T09:09:12Z</time></trkpt><trkpt lat="41.00775463002138" lon="8.92247214510411"><ele>83.0</ele><time>2026-05-02T09:09:13Z</time></trkpt><trkpt lat="41.007693417986005" lon="8.922266134698486"><ele>83.0</ele><time>2026-05-02T09:09:14Z</time></trkpt><trkpt lat="41.00761984805177" lon="8.922052651087146"><ele>83.0</ele><time>2026-05-02T09:09:15Z</time></trkpt><trkpt lat="41.00751917815657" lon="8.921825848113297"><ele>88.0</ele><time>2026-05-02T09:09:16Z</time></trkpt><trkpt lat="41.00738938086071" lon="8.9215364613085"><ele>93.0</ele><time>2026-05-02T09:09:17Z</time></trkpt><trkpt lat="41.00724507388391" lon="8.921245435754159"><ele>93.0</ele><time>2026-05-02T09:09:18Z</time></trkpt><trkpt lat="41.0071318003276" lon="8.920980503478733"><ele>93.0</ele><time>2026-05-02T09:09:19Z</time></trkpt><trkpt lat="41.00703821888784" lon="8.920738950666687"><ele>93.0</ele><time>2026-05-02T09:09:20Z</time></trkpt><trkpt lat="41.006981714008774" lon="8.920534780487637"><ele>90.33333333333333</ele><time>2026-05-02T09:09:21Z</time></trkpt><trkpt lat="41.00697362822405" lon="8.920345873573767"><ele>87.66666666666666</ele><time>2026-05-02T09:09:22Z</time></trkpt><trkpt lat="41.0070199029944" lon="8.920161713394322"><ele>85.0</ele><time>2026-05-02T09:09:23Z</time></trkpt><trkpt lat="41.00711375342689" lon="8.91997924491096"><ele>85.0</ele><time>2026-05-02T09:09:24Z</time></trkpt><trkpt lat="41.00723631614092" lon="8.919818773532862"><ele>85.0</ele><time>2026-05-02T09:09:25Z</time></trkpt><trkpt lat="41.007385973799046" lon="8.919705388901512"><ele>85.0</ele><time>2026-05-02T09:09:26Z</time></trkpt><trkpt lat="41.00756532359298" lon="8.919665032179722"><ele>82.0</ele><time>2026-05-02T09:09:27Z</time></trkpt><trkpt lat="41.00775656317942" lon="8.919651794021297"><ele>79.0</ele><time>2026-05-02T09:09:28Z</time></trkpt><trkpt lat="41.00794414813317" lon="8.919630503535101"><ele>76.0</ele><time>2026-05-02T09:09:29Z</time></trkpt><trkpt lat="41.00814325648536" lon="8.919600483798451"><ele>75.66666666666666</ele><time>2026-05-02T09:09:30Z</time></trkpt><trkpt lat="41.00834454845634" lon="8.919548326488012"><ele>75.33333333333333</ele><time>2026-05-02T09:09:31Z</time></trkpt><trkpt lat="41.00851806835547" lon="8.919471916317617"><ele>75.0</ele><time>2026-05-02T09:09:32Z</time></trkpt><trkpt lat="41.00866832359511" lon="8.919394759831581"><ele>75.0</ele><time>2026-05-02T09:09:33Z</time></trkpt><trkpt lat="41.00880612495512" lon="8.919312949457947"><ele>75.0</ele><time>2026-05-02T09:09:34Z</time></trkpt><trkpt lat="41.00891475422265" lon="8.919197276552984"><ele>75.0</ele><time>2026-05-02T09:09:35Z</time></trkpt><trkpt lat="41.008997668063486" lon="8.9190147563878"><ele>78.33333333333333</ele><time>2026-05-02T09:09:36Z</time></trkpt><trkpt lat="41.00906826629483" lon="8.918796956739913"><ele>81.66666666666666</ele><time>2026-05-02T09:09:37Z</time></trkpt><trkpt lat="41.00914096298735" lon="8.918553821139197"><ele>85.0</ele><time>2026-05-02T09:09:38Z</time></trkpt><trkpt lat="41.00920649325943" lon="8.91830257294104"><ele>86.0</ele><time>2026-05-02T09:09:39Z</time></trkpt><trkpt lat="41.00925480104327" lon="8.918052502354135"><ele>87.0</ele><time>2026-05-02T09:09:40Z</time></trkpt><trkpt lat="41.00926037411509" lon="8.917785108795094"><ele>88.0</ele><time>2026-05-02T09:09:41Z</time></trkpt><trkpt lat="41.00922553533675" lon="8.917462125786944"><ele>90.5</ele><time>2026-05-02T09:09:42Z</time></trkpt><trkpt lat="41.00916949400543" lon="8.917110086988167"><ele>93.0</ele><time>2026-05-02T09:09:43Z</time></trkpt><trkpt lat="41.00912318050572" lon="8.916780536630997"><ele>99.0</ele><time>2026-05-02T09:09:44Z</time></trkpt><trkpt lat="41.009081961571354" lon="8.916462177016093"><ele>105.0</ele><time>2026-05-02T09:09:45Z</time></trkpt><trkpt lat="41.009039470017846" lon="8.916156152993244"><ele>106.33333333333334</ele><time>2026-05-02T09:09:46Z</time></trkpt><trkpt lat="41.00900879544344" lon="8.915878933185505"><ele>107.66666666666667</ele><time>2026-05-02T09:09:47Z</time></trkpt><trkpt lat="41.009011743812295" lon="8.91561052615876"><ele>109.0</ele><time>2026-05-02T09:09:48Z</time></trkpt><trkpt lat="41.00904515292799" lon="8.915336619592264"><ele>110.33333333333334</ele><time>2026-05-02T09:09:49Z</time></trkpt><trkpt lat="41.00909243215267" lon="8.915070151444388"><ele>111.66666666666666</ele><time>2026-05-02T09:09:50Z</time></trkpt><trkpt lat="41.00912307413987" lon="8.914827094649404"><ele>113.0</ele><time>2026-05-02T09:09:51Z</time></trkpt><trkpt lat="41.00914273318054" lon="8.91460923875983"><ele>111.5</ele><time>2026-05-02T09:09:52Z</time></trkpt><trkpt lat="41.00917410338645" lon="8.91441653707025"><ele>110.0</ele><time>2026-05-02T09:09:53Z</time></trkpt><trkpt lat="41.009213734799566" lon="8.914231891970324"><ele>108.5</ele><time>2026-05-02T09:09:54Z</time></trkpt><trkpt lat="41.00924808242091" lon="8.914054893975118"><ele>107.0</ele><time>2026-05-02T09:09:55Z</time></trkpt><trkpt lat="41.00926197075771" lon="8.913889342114954"><ele>107.0</ele><time>2026-05-02T09:09:56Z</time></trkpt><trkpt lat="41.00927072444539" lon="8.913734451565439"><ele>107.0</ele><time>2026-05-02T09:09:57Z</time></trkpt><trkpt lat="41.0092696421567" lon="8.913587802992966"><ele>107.0</ele><time>2026-05-02T09:09:58Z</time></trkpt><trkpt lat="41.009249476687465" lon="8.913418991276197"><ele>107.0</ele><time>2026-05-02T09:09:59Z</time></trkpt><trkpt lat="41.0092112471542" lon="8.91321552110432"><ele>107.33333333333333</ele><time>2026-05-02T09:10:00Z</time></trkpt><trkpt lat="41.00916155421211" lon="8.912990110592853"><ele>107.66666666666666</ele><time>2026-05-02T09:10:01Z</time></trkpt><trkpt lat="41.009115718849124" lon="8.91276065108409"><ele>108.0</ele><time>2026-05-02T09:10:02Z</time></trkpt><trkpt lat="41.00908012940794" lon="8.912546594473824"><ele>108.75</ele><time>2026-05-02T09:10:03Z</time></trkpt><trkpt lat="41.009045747854785" lon="8.912344933228345"><ele>109.5</ele><time>2026-05-02T09:10:04Z</time></trkpt><trkpt lat="41.009005947855584" lon="8.91215552654308"><ele>110.25</ele><time>2026-05-02T09:10:05Z</time></trkpt><trkpt lat="41.00896560004927" lon="8.911982176878412"><ele>111.0</ele><time>2026-05-02T09:10:06Z</time></trkpt><trkpt lat="41.00890202684191" lon="8.911815595662889"><ele>110.75</ele><time>2026-05-02T09:10:07Z</time></trkpt><trkpt lat="41.0088136181583" lon="8.911686705355201"><ele>110.5</ele><time>2026-05-02T09:10:08Z</time></trkpt><trkpt lat="41.00870512240681" lon="8.911597266145694"><ele>110.25</ele><time>2026-05-02T09:10:09Z</time></trkpt><trkpt lat="41.00858782897582" lon="8.911558198087123"><ele>110.0</ele><time>2026-05-02T09:10:10Z</time></trkpt><trkpt lat="41.00844663290857" lon="8.911569210483083"><ele>111.0</ele><time>2026-05-02T09:10:11Z</time></trkpt><trkpt lat="41.00824950314567" lon="8.911579329631001"><ele>112.0</ele><time>2026-05-02T09:10:12Z</time></trkpt><trkpt lat="41.00801700532819" lon="8.911562483785705"><ele>113.0</ele><time>2026-05-02T09:10:13Z</time></trkpt><trkpt lat="41.00778687491091" lon="8.91160702579665"><ele>113.0</ele><time>2026-05-02T09:10:14Z</time></trkpt><trkpt lat="41.007547673341435" lon="8.911721794284558"><ele>113.0</ele><time>2026-05-02T09:10:15Z</time></trkpt><trkpt lat="41.007286003698106" lon="8.911866306070207"><ele>115.0</ele><time>2026-05-02T09:10:16Z</time></trkpt><trkpt lat="41.007011481900065" lon="8.912013328404091"><ele>117.0</ele><time>2026-05-02T09:10:17Z</time></trkpt><trkpt lat="41.00674048053301" lon="8.912137175413369"><ele>118.5</ele><time>2026-05-02T09:10:18Z</time></trkpt><trkpt lat="41.00648772358478" lon="8.912258217119518"><ele>120.0</ele><time>2026-05-02T09:10:19Z</time></trkpt><trkpt lat="41.00627645833002" lon="8.912365679330973"><ele>120.0</ele><time>2026-05-02T09:10:20Z</time></trkpt><trkpt lat="41.0060941792258" lon="8.912413540407256"><ele>120.0</ele><time>2026-05-02T09:10:21Z</time></trkpt><trkpt lat="41.00592267050351" lon="8.91237085768318"><ele>120.0</ele><time>2026-05-02T09:10:22Z</time></trkpt><trkpt lat="41.00576897474726" lon="8.912245544873775"><ele>122.33333333333334</ele><time>2026-05-02T09:10:23Z</time></trkpt><trkpt lat="41.00566495512683" lon="8.912054587830733"><ele>124.66666666666667</ele><time>2026-05-02T09:10:24Z</time></trkpt><trkpt lat="41.00558537878688" lon="8.911782433804289"><ele>127.0</ele><time>2026-05-02T09:10:25Z</time></trkpt><trkpt lat="41.005491032262505" lon="8.911499129634263"><ele>127.0</ele><time>2026-05-02T09:10:26Z</time></trkpt><trkpt lat="41.00538262189749" lon="8.911242148654612"><ele>127.0</ele><time>2026-05-02T09:10:27Z</time></trkpt><trkpt lat="41.00527832343858" lon="8.910994543877708"><ele>127.0</ele><time>2026-05-02T09:10:28Z</time></trkpt><trkpt lat="41.005184133581146" lon="8.910731113969517"><ele>127.5</ele><time>2026-05-02T09:10:29Z</time></trkpt><trkpt lat="41.00506944215153" lon="8.91045731891576"><ele>128.0</ele><time>2026-05-02T09:10:30Z</time></trkpt><trkpt lat="41.00495334818963" lon="8.910175738272093"><ele>131.66666666666666</ele><time>2026-05-02T09:10:31Z</time></trkpt><trkpt lat="41.0048455669127" lon="8.909911244722254"><ele>135.33333333333334</ele><time>2026-05-02T09:10:32Z</time></trkpt><trkpt lat="41.004740368119734" lon="8.909690522615833"><ele>139.0</ele><time>2026-05-02T09:10:33Z</time></trkpt><trkpt lat="41.004653932182535" lon="8.909474257151103"><ele>139.0</ele><time>2026-05-02T09:10:34Z</time></trkpt><trkpt lat="41.00453828335865" lon="8.909316703632205"><ele>139.0</ele><time>2026-05-02T09:10:35Z</time></trkpt><trkpt lat="41.0043805299275" lon="8.909217152101098"><ele>139.0</ele><time>2026-05-02T09:10:36Z</time></trkpt><trkpt lat="41.00417402254126" lon="8.909140997445046"><ele>140.66666666666669</ele><time>2026-05-02T09:10:37Z</time></trkpt><trkpt lat="41.003953971567384" lon="8.909068767252833"><ele>142.33333333333334</ele><time>2026-05-02T09:10:38Z</time></trkpt><trkpt lat="41.00375431463937" lon="8.908959797534362"><ele>144.0</ele><time>2026-05-02T09:10:39Z</time></trkpt><trkpt lat="41.00355937663625" lon="8.908870988825877"><ele>144.0</ele><time>2026-05-02T09:10:40Z</time></trkpt><trkpt lat="41.00335784681678" lon="8.908792800245546"><ele>144.0</ele><time>2026-05-02T09:10:41Z</time></trkpt><trkpt lat="41.003178445706155" lon="8.908703935090363"><ele>144.0</ele><time>2026-05-02T09:10:42Z</time></trkpt><trkpt lat="41.003011135489274" lon="8.908637605634524"><ele>146.33333333333334</ele><time>2026-05-02T09:10:43Z</time></trkpt><trkpt lat="41.00282683477164" lon="8.908617528104124"><ele>148.66666666666669</ele><time>2026-05-02T09:10:44Z</time></trkpt><trkpt lat="41.00262214158089" lon="8.908661095551716"><ele>151.0</ele><time>2026-05-02T09:10:45Z</time></trkpt><trkpt lat="41.002401461402336" lon="8.908742193824413"><ele>151.66666666666669</ele><time>2026-05-02T09:10:46Z</time></trkpt><trkpt lat="41.00220525958541" lon="8.908821164094075"><ele>152.33333333333334</ele><time>2026-05-02T09:10:47Z</time></trkpt><trkpt lat="41.00202766661426" lon="8.908865687696146"><ele>153.0</ele><time>2026-05-02T09:10:48Z</time></trkpt><trkpt lat="41.00186110538719" lon="8.908858321209458"><ele>153.0</ele><time>2026-05-02T09:10:49Z</time></trkpt><trkpt lat="41.00171142741081" lon="8.908800214615207"><ele>153.0</ele><time>2026-05-02T09:10:50Z</time></trkpt><trkpt lat="41.001609131379865" lon="8.90867959544617"><ele>153.0</ele><time>2026-05-02T09:10:51Z</time></trkpt><trkpt lat="41.001550288534716" lon="8.90851788374767"><ele>153.0</ele><time>2026-05-02T09:10:52Z</time></trkpt><trkpt lat="41.001558625781165" lon="8.908310906699638"><ele>153.0</ele><time>2026-05-02T09:10:53Z</time></trkpt><trkpt lat="41.001635842796674" lon="8.90813571677442"><ele>153.0</ele><time>2026-05-02T09:10:54Z</time></trkpt><trkpt lat="41.001743182510815" lon="8.908004434124328"><ele>153.0</ele><time>2026-05-02T09:10:55Z</time></trkpt><trkpt lat="41.001904716601985" lon="8.907880189106415"><ele>150.66666666666666</ele><time>2026-05-02T09:10:56Z</time></trkpt><trkpt lat="41.00205165741635" lon="8.907747694492286"><ele>148.33333333333331</ele><time>2026-05-02T09:10:57Z</time></trkpt><trkpt lat="41.00218917614171" lon="8.907620364333654"><ele>146.0</ele><time>2026-05-02T09:10:58Z</time></trkpt><trkpt lat="41.002299400003615" lon="8.907473894934379"><ele>151.33333333333331</ele><time>2026-05-02T09:10:59Z</time></trkpt><trkpt lat="41.002381638449044" lon="8.90727849635845"><ele>156.66666666666666</ele><time>2026-05-02T09:11:00Z</time></trkpt><trkpt lat="41.00242483909899" lon="8.90707879323778"><ele>162.0</ele><time>2026-05-02T09:11:01Z</time></trkpt><trkpt lat="41.00243445237236" lon="8.906862349566984"><ele>163.66666666666666</ele><time>2026-05-02T09:11:02Z</time></trkpt><trkpt lat="41.002375934705555" lon="8.906641189017048"><ele>165.33333333333331</ele><time>2026-05-02T09:11:03Z</time></trkpt><trkpt lat="41.00232349787904" lon="8.906422724269044"><ele>167.0</ele><time>2026-05-02T09:11:04Z</time></trkpt><trkpt lat="41.00228125702941" lon="8.906202838036892"><ele>167.0</ele><time>2026-05-02T09:11:05Z</time></trkpt><trkpt lat="41.00225683744924" lon="8.90599661142622"><ele>167.0</ele><time>2026-05-02T09:11:06Z</time></trkpt><trkpt lat="41.00228311942812" lon="8.905799421132746"><ele>167.0</ele><time>2026-05-02T09:11:07Z</time></trkpt><trkpt lat="41.00234572769381" lon="8.905617829898892"><ele>168.66666666666666</ele><time>2026-05-02T09:11:08Z</time></trkpt><trkpt lat="41.00246798951879" lon="8.905476221510643"><ele>170.33333333333334</ele><time>2026-05-02T09:11:09Z</time></trkpt><trkpt lat="41.00261315011568" lon="8.905320438672105"><ele>172.0</ele><time>2026-05-02T09:11:10Z</time></trkpt><trkpt lat="41.00272217056573" lon="8.90520615926083"><ele>170.5</ele><time>2026-05-02T09:11:11Z</time></trkpt><trkpt lat="41.00276654507254" lon="8.905046455440703"><ele>169.0</ele><time>2026-05-02T09:11:12Z</time></trkpt><trkpt lat="41.002762745268306" lon="8.904855732845903"><ele>167.5</ele><time>2026-05-02T09:11:13Z</time></trkpt><trkpt lat="41.00270194841429" lon="8.904663158516415"><ele>166.0</ele><time>2026-05-02T09:11:14Z</time></trkpt><trkpt lat="41.002607648411235" lon="8.90451715066935"><ele>166.0</ele><time>2026-05-02T09:11:15Z</time></trkpt><trkpt lat="41.002505033597465" lon="8.904396638171725"><ele>166.0</ele><time>2026-05-02T09:11:16Z</time></trkpt><trkpt lat="41.00243489595719" lon="8.904262863939177"><ele>166.0</ele><time>2026-05-02T09:11:17Z</time></trkpt><trkpt lat="41.00240260028893" lon="8.904087778290187"><ele>166.0</ele><time>2026-05-02T09:11:18Z</time></trkpt><trkpt lat="41.00238674266377" lon="8.903926944898245"><ele>165.4</ele><time>2026-05-02T09:11:19Z</time></trkpt><trkpt lat="41.00241041011899" lon="8.903775360902943"><ele>164.8</ele><time>2026-05-02T09:11:20Z</time></trkpt><trkpt lat="41.00246691165322" lon="8.903653235071841"><ele>164.20000000000002</ele><time>2026-05-02T09:11:21Z</time></trkpt><trkpt lat="41.00252233994184" lon="8.903555522742217"><ele>163.60000000000002</ele><time>2026-05-02T09:11:22Z</time></trkpt><trkpt lat="41.00258518226189" lon="8.903494965448346"><ele>163.0</ele><time>2026-05-02T09:11:23Z</time></trkpt><trkpt lat="41.002657028401046" lon="8.903424877068792"><ele>164.60000000000002</ele><time>2026-05-02T09:11:24Z</time></trkpt><trkpt lat="41.002716091042046" lon="8.90334051618285"><ele>166.20000000000002</ele><time>2026-05-02T09:11:25Z</time></trkpt><trkpt lat="41.00276247815495" lon="8.903218311326778"><ele>167.8</ele><time>2026-05-02T09:11:26Z</time></trkpt><trkpt lat="41.002788822969556" lon="8.903072415111927"><ele>169.4</ele><time>2026-05-02T09:11:27Z</time></trkpt><trkpt lat="41.002794535370654" lon="8.902902798138612"><ele>171.0</ele><time>2026-05-02T09:11:28Z</time></trkpt><trkpt lat="41.00279874361558" lon="8.9027516355855"><ele>171.75</ele><time>2026-05-02T09:11:29Z</time></trkpt><trkpt lat="41.00276529003113" lon="8.902562724916683"><ele>172.5</ele><time>2026-05-02T09:11:30Z</time></trkpt><trkpt lat="41.002729737883584" lon="8.902403676828746"><ele>173.25</ele><time>2026-05-02T09:11:31Z</time></trkpt><trkpt lat="41.00267316686149" lon="8.90226133626034"><ele>174.0</ele><time>2026-05-02T09:11:32Z</time></trkpt><trkpt lat="41.002595925259" lon="8.902145630724451"><ele>174.0</ele><time>2026-05-02T09:11:33Z</time></trkpt><trkpt lat="41.002505718120545" lon="8.902048122203427"><ele>174.0</ele><time>2026-05-02T09:11:34Z</time></trkpt><trkpt lat="41.002417691268676" lon="8.901927403296396"><ele>174.0</ele><time>2026-05-02T09:11:35Z</time></trkpt><trkpt lat="41.0023288381347" lon="8.901801707128635"><ele>174.0</ele><time>2026-05-02T09:11:36Z</time></trkpt><trkpt lat="41.00224267576746" lon="8.901675938279551"><ele>175.75</ele><time>2026-05-02T09:11:37Z</time></trkpt><trkpt lat="41.00215417675004" lon="8.901554090672061"><ele>177.5</ele><time>2026-05-02T09:11:38Z</time></trkpt><trkpt lat="41.0020636739114" lon="8.9014736160531"><ele>179.25</ele><time>2026-05-02T09:11:39Z</time></trkpt><trkpt lat="41.00196212728928" lon="8.901424623414808"><ele>181.0</ele><time>2026-05-02T09:11:40Z</time></trkpt><trkpt lat="41.001850157014395" lon="8.90139708860943"><ele>181.0</ele><time>2026-05-02T09:11:41Z</time></trkpt><trkpt lat="41.001720581876995" lon="8.90138800387116"><ele>181.0</ele><time>2026-05-02T09:11:42Z</time></trkpt><trkpt lat="41.001591699616554" lon="8.901430744115608"><ele>181.0</ele><time>2026-05-02T09:11:43Z</time></trkpt><trkpt lat="41.00146412338105" lon="8.901502197743621"><ele>181.0</ele><time>2026-05-02T09:11:44Z</time></trkpt><trkpt lat="41.00128712383612" lon="8.901573767777597"><ele>181.75</ele><time>2026-05-02T09:11:45Z</time></trkpt><trkpt lat="41.001132089033156" lon="8.901604792200231"><ele>182.5</ele><time>2026-05-02T09:11:46Z</time></trkpt><trkpt lat="41.00096877139212" lon="8.901668824443954"><ele>183.25</ele><time>2026-05-02T09:11:47Z</time></trkpt><trkpt lat="41.00084933430535" lon="8.90169860443494"><ele>184.0</ele><time>2026-05-02T09:11:48Z</time></trkpt><trkpt lat="41.00075985524702" lon="8.90173105464207"><ele>186.6</ele><time>2026-05-02T09:11:49Z</time></trkpt><trkpt lat="41.000678791629916" lon="8.901760585665002"><ele>189.2</ele><time>2026-05-02T09:11:50Z</time></trkpt><trkpt lat="41.00058012354764" lon="8.90179454949499"><ele>191.79999999999998</ele><time>2026-05-02T09:11:51Z</time></trkpt><trkpt lat="41.00048874968937" lon="8.901841928083964"><ele>194.39999999999998</ele><time>2026-05-02T09:11:52Z</time></trkpt><trkpt lat="41.000393702441905" lon="8.901891706594295"><ele>197.0</ele><time>2026-05-02T09:11:53Z</time></trkpt><trkpt lat="41.000309617403275" lon="8.901982199247414"><ele>197.0</ele><time>2026-05-02T09:11:54Z</time></trkpt><trkpt lat="41.00023366133328" lon="8.90209381307764"><ele>197.0</ele><time>2026-05-02T09:11:55Z</time></trkpt><trkpt lat="41.00018383096177" lon="8.902228468571963"><ele>197.0</ele><time>2026-05-02T09:11:56Z</time></trkpt><trkpt lat="41.000152114065905" lon="8.902377461155384"><ele>197.0</ele><time>2026-05-02T09:11:57Z</time></trkpt><trkpt lat="41.00013344490188" lon="8.902523469333202"><ele>197.6</ele><time>2026-05-02T09:11:58Z</time></trkpt><trkpt lat="41.00012312068343" lon="8.902669251343072"><ele>198.2</ele><time>2026-05-02T09:11:59Z</time></trkpt><trkpt lat="41.00011939377854" lon="8.902813837107097"><ele>198.8</ele><time>2026-05-02T09:12:00Z</time></trkpt><trkpt lat="41.000117160931346" lon="8.902958810685815"><ele>199.4</ele><time>2026-05-02T09:12:01Z</time></trkpt><trkpt lat="41.00011164811877" lon="8.903106779113662"><ele>200.0</ele><time>2026-05-02T09:12:02Z</time></trkpt><trkpt lat="41.00010880888052" lon="8.90325394077842"><ele>200.0</ele><time>2026-05-02T09:12:03Z</time></trkpt><trkpt lat="41.00006235588589" lon="8.903392284815997"><ele>200.0</ele><time>2026-05-02T09:12:04Z</time></trkpt><trkpt lat="41.000000496311245" lon="8.903536737650997"><ele>200.0</ele><time>2026-05-02T09:12:05Z</time></trkpt><trkpt lat="40.999911492878034" lon="8.903682187457184"><ele>200.0</ele><time>2026-05-02T09:12:06Z</time></trkpt><trkpt lat="40.99980521168258" lon="8.903866406447607"><ele>199.33333333333334</ele><time>2026-05-02T09:12:07Z</time></trkpt><trkpt lat="40.999685889221446" lon="8.904107795827223"><ele>198.66666666666669</ele><time>2026-05-02T09:12:08Z</time></trkpt><trkpt lat="40.99954415378405" lon="8.90431332176716"><ele>198.0</ele><time>2026-05-02T09:12:09Z</time></trkpt><trkpt lat="40.99940083914197" lon="8.904483033065373"><ele>198.0</ele><time>2026-05-02T09:12:10Z</time></trkpt><trkpt lat="40.9992440159519" lon="8.90460630511636"><ele>198.0</ele><time>2026-05-02T09:12:11Z</time></trkpt><trkpt lat="40.99904949894535" lon="8.904747194001747"><ele>198.0</ele><time>2026-05-02T09:12:12Z</time></trkpt><trkpt lat="40.998812332857895" lon="8.904914375108296"><ele>197.0</ele><time>2026-05-02T09:12:13Z</time></trkpt><trkpt lat="40.998544824912386" lon="8.905097577559745"><ele>196.0</ele><time>2026-05-02T09:12:14Z</time></trkpt><trkpt lat="40.9983143668167" lon="8.905282820333527"><ele>196.0</ele><time>2026-05-02T09:12:15Z</time></trkpt><trkpt lat="40.9980944918266" lon="8.905412224924088"><ele>196.0</ele><time>2026-05-02T09:12:16Z</time></trkpt><trkpt lat="40.99789426763943" lon="8.905502557411841"><ele>196.0</ele><time>2026-05-02T09:12:17Z</time></trkpt><trkpt lat="40.99773021803666" lon="8.905563205160828"><ele>196.0</ele><time>2026-05-02T09:12:18Z</time></trkpt><trkpt lat="40.99758256333558" lon="8.905537253734188"><ele>196.0</ele><time>2026-05-02T09:12:19Z</time></trkpt><trkpt lat="40.99747295694189" lon="8.905505247139786"><ele>196.0</ele><time>2026-05-02T09:12:20Z</time></trkpt><trkpt lat="40.99736768194135" lon="8.90541622760837"><ele>198.25</ele><time>2026-05-02T09:12:21Z</time></trkpt><trkpt lat="40.99725392790083" lon="8.90538637953632"><ele>200.5</ele><time>2026-05-02T09:12:22Z</time></trkpt><trkpt lat="40.99712713317746" lon="8.905457192274628"><ele>202.75</ele><time>2026-05-02T09:12:23Z</time></trkpt><trkpt lat="40.9970016458278" lon="8.90557146164886"><ele>205.0</ele><time>2026-05-02T09:12:24Z</time></trkpt><trkpt lat="40.99685503981612" lon="8.905590863311337"><ele>205.0</ele><time>2026-05-02T09:12:25Z</time></trkpt><trkpt lat="40.99667678749485" lon="8.90552935235807"><ele>205.0</ele><time>2026-05-02T09:12:26Z</time></trkpt><trkpt lat="40.99652270013094" lon="8.905407298451776"><ele>205.0</ele><time>2026-05-02T09:12:27Z</time></trkpt><trkpt lat="40.99640356802702" lon="8.905253750026437"><ele>203.33333333333331</ele><time>2026-05-02T09:12:28Z</time></trkpt><trkpt lat="40.99630039176915" lon="8.905096197372924"><ele>201.66666666666669</ele><time>2026-05-02T09:12:29Z</time></trkpt><trkpt lat="40.996180660818034" lon="8.904961386559382"><ele>200.0</ele><time>2026-05-02T09:12:30Z</time></trkpt><trkpt lat="40.99606366281412" lon="8.90483193538528"><ele>200.0</ele><time>2026-05-02T09:12:31Z</time></trkpt><trkpt lat="40.99594335780821" lon="8.904709298633813"><ele>200.0</ele><time>2026-05-02T09:12:32Z</time></trkpt><trkpt lat="40.99581093607466" lon="8.904622475061911"><ele>200.0</ele><time>2026-05-02T09:12:33Z</time></trkpt><trkpt lat="40.99566973194925" lon="8.90460221668504"><ele>200.0</ele><time>2026-05-02T09:12:34Z</time></trkpt><trkpt lat="40.995534561019866" lon="8.904635929815603"><ele>203.66666666666669</ele><time>2026-05-02T09:12:35Z</time></trkpt><trkpt lat="40.99541002571428" lon="8.904709394088545"><ele>207.33333333333331</ele><time>2026-05-02T09:12:36Z</time></trkpt><trkpt lat="40.99526660027816" lon="8.904835598541919"><ele>211.0</ele><time>2026-05-02T09:12:37Z</time></trkpt><trkpt lat="40.995120185101435" lon="8.9049304486422"><ele>210.25</ele><time>2026-05-02T09:12:38Z</time></trkpt><trkpt lat="40.99498931748193" lon="8.904992184316551"><ele>209.5</ele><time>2026-05-02T09:12:39Z</time></trkpt><trkpt lat="40.99487262416222" lon="8.905051035820422"><ele>208.75</ele><time>2026-05-02T09:12:40Z</time></trkpt><trkpt lat="40.99476483394648" lon="8.905129726513616"><ele>208.0</ele><time>2026-05-02T09:12:41Z</time></trkpt><trkpt lat="40.994668567290546" lon="8.90524143827728"><ele>213.5</ele><time>2026-05-02T09:12:42Z</time></trkpt><trkpt lat="40.994579523628424" lon="8.905388039773497"><ele>219.0</ele><time>2026-05-02T09:12:43Z</time></trkpt><trkpt lat="40.99447894851991" lon="8.905527326584192"><ele>224.5</ele><time>2026-05-02T09:12:44Z</time></trkpt><trkpt lat="40.9943708122998" lon="8.905610823139002"><ele>230.0</ele><time>2026-05-02T09:12:45Z</time></trkpt><trkpt lat="40.994262043959665" lon="8.905653987212101"><ele>226.75</ele><time>2026-05-02T09:12:46Z</time></trkpt><trkpt lat="40.99414739358382" lon="8.905664674510318"><ele>223.5</ele><time>2026-05-02T09:12:47Z</time></trkpt><trkpt lat="40.99403380496882" lon="8.905665803580614"><ele>220.25</ele><time>2026-05-02T09:12:48Z</time></trkpt><trkpt lat="40.993918818289245" lon="8.90566799467588"><ele>217.0</ele><time>2026-05-02T09:12:49Z</time></trkpt><trkpt lat="40.99380239610714" lon="8.905658469925127"><ele>217.0</ele><time>2026-05-02T09:12:50Z</time></trkpt><trkpt lat="40.993682152520684" lon="8.905635705434756"><ele>217.0</ele><time>2026-05-02T09:12:51Z</time></trkpt><trkpt lat="40.993568383346386" lon="8.90561036719026"><ele>217.0</ele><time>2026-05-02T09:12:52Z</time></trkpt><trkpt lat="40.99346329431844" lon="8.9055715367633"><ele>217.0</ele><time>2026-05-02T09:12:53Z</time></trkpt><trkpt lat="40.99337270674756" lon="8.905510263904912"><ele>217.0</ele><time>2026-05-02T09:12:54Z</time></trkpt><trkpt lat="40.99328409844061" lon="8.905419898837758"><ele>216.5</ele><time>2026-05-02T09:12:55Z</time></trkpt><trkpt lat="40.99320809741824" lon="8.905283946883786"><ele>216.0</ele><time>2026-05-02T09:12:56Z</time></trkpt><trkpt lat="40.99316896406148" lon="8.905131777535116"><ele>215.5</ele><time>2026-05-02T09:12:57Z</time></trkpt><trkpt lat="40.99317592995608" lon="8.904972558980418"><ele>215.0</ele><time>2026-05-02T09:12:58Z</time></trkpt><trkpt lat="40.99320675972286" lon="8.904814474481109"><ele>215.0</ele><time>2026-05-02T09:12:59Z</time></trkpt><trkpt lat="40.99325483604481" lon="8.904665367224785"><ele>215.0</ele><time>2026-05-02T09:13:00Z</time></trkpt><trkpt lat="40.993330020545365" lon="8.904548548916893"><ele>215.0</ele><time>2026-05-02T09:13:01Z</time></trkpt><trkpt lat="40.9934132170607" lon="8.9044665344915"><ele>215.0</ele><time>2026-05-02T09:13:02Z</time></trkpt><trkpt lat="40.99348583202667" lon="8.904375909486408"><ele>215.0</ele><time>2026-05-02T09:13:03Z</time></trkpt><trkpt lat="40.99352925055805" lon="8.904265630524584"><ele>208.75</ele><time>2026-05-02T09:13:04Z</time></trkpt><trkpt lat="40.99356235065358" lon="8.904116080869667"><ele>202.5</ele><time>2026-05-02T09:13:05Z</time></trkpt><trkpt lat="40.99358971491968" lon="8.903930075498035"><ele>196.25</ele><time>2026-05-02T09:13:06Z</time></trkpt><trkpt lat="40.993619799503506" lon="8.903723494008242"><ele>190.0</ele><time>2026-05-02T09:13:07Z</time></trkpt><trkpt lat="40.99364548318899" lon="8.903512009171735"><ele>187.0</ele><time>2026-05-02T09:13:08Z</time></trkpt><trkpt lat="40.99365396185748" lon="8.90330072047261"><ele>184.0</ele><time>2026-05-02T09:13:09Z</time></trkpt><trkpt lat="40.99363172315605" lon="8.90307959120294"><ele>181.0</ele><time>2026-05-02T09:13:10Z</time></trkpt><trkpt lat="40.99359357303089" lon="8.90284225560017"><ele>181.0</ele><time>2026-05-02T09:13:11Z</time></trkpt><trkpt lat="40.993553489858364" lon="8.902615957326523"><ele>181.0</ele><time>2026-05-02T09:13:12Z</time></trkpt><trkpt lat="40.99351464115039" lon="8.902400032550212"><ele>181.0</ele><time>2026-05-02T09:13:13Z</time></trkpt><trkpt lat="40.99344646133293" lon="8.902206695724194"><ele>188.33333333333334</ele><time>2026-05-02T09:13:14Z</time></trkpt><trkpt lat="40.99332539876928" lon="8.902084363123283"><ele>195.66666666666669</ele><time>2026-05-02T09:13:15Z</time></trkpt><trkpt lat="40.99317825107931" lon="8.902029086450497"><ele>203.0</ele><time>2026-05-02T09:13:16Z</time></trkpt><trkpt lat="40.993023310080844" lon="8.902018952335514"><ele>203.0</ele><time>2026-05-02T09:13:17Z</time></trkpt><trkpt lat="40.99289061510023" lon="8.901962285061876"><ele>203.0</ele><time>2026-05-02T09:13:18Z</time></trkpt><trkpt lat="40.992776246866576" lon="8.90190001783054"><ele>203.0</ele><time>2026-05-02T09:13:19Z</time></trkpt><trkpt lat="40.99270694064776" lon="8.901775167926894"><ele>203.0</ele><time>2026-05-02T09:13:20Z</time></trkpt><trkpt lat="40.99262030333271" lon="8.901660847766491"><ele>202.0</ele><time>2026-05-02T09:13:21Z</time></trkpt><trkpt lat="40.99252149264911" lon="8.901571945231423"><ele>201.0</ele><time>2026-05-02T09:13:22Z</time></trkpt><trkpt lat="40.99241390254948" lon="8.901526266630883"><ele>200.0</ele><time>2026-05-02T09:13:23Z</time></trkpt><trkpt lat="40.99229842512834" lon="8.90153363684746"><ele>199.0</ele><time>2026-05-02T09:13:24Z</time></trkpt><trkpt lat="40.992191340373154" lon="8.901565723448236"><ele>199.0</ele><time>2026-05-02T09:13:25Z</time></trkpt><trkpt lat="40.99208061228202" lon="8.90157051380565"><ele>199.0</ele><time>2026-05-02T09:13:26Z</time></trkpt><trkpt lat="40.991962279500875" lon="8.901577265358457"><ele>199.0</ele><time>2026-05-02T09:13:27Z</time></trkpt><trkpt lat="40.99184502562731" lon="8.901538372128101"><ele>199.0</ele><time>2026-05-02T09:13:28Z</time></trkpt><trkpt lat="40.991740921264096" lon="8.901466897862285"><ele>201.25</ele><time>2026-05-02T09:13:29Z</time></trkpt><trkpt lat="40.99165814285166" lon="8.901355034208795"><ele>203.5</ele><time>2026-05-02T09:13:30Z</time></trkpt><trkpt lat="40.991594430515484" lon="8.901223621153049"><ele>205.75</ele><time>2026-05-02T09:13:31Z</time></trkpt><trkpt lat="40.991580922742386" lon="8.901071351611344"><ele>208.0</ele><time>2026-05-02T09:13:32Z</time></trkpt><trkpt lat="40.991586065207315" lon="8.900919906629088"><ele>205.25</ele><time>2026-05-02T09:13:33Z</time></trkpt><trkpt lat="40.99162411363782" lon="8.900769145592275"><ele>202.5</ele><time>2026-05-02T09:13:34Z</time></trkpt><trkpt lat="40.99169774636758" lon="8.90062935599043"><ele>199.75</ele><time>2026-05-02T09:13:35Z</time></trkpt><trkpt lat="40.99178217600474" lon="8.90048802534559"><ele>197.0</ele><time>2026-05-02T09:13:36Z</time></trkpt><trkpt lat="40.99187887205133" lon="8.900370541672055"><ele>192.5</ele><time>2026-05-02T09:13:37Z</time></trkpt><trkpt lat="40.99193504954573" lon="8.900238318655768"><ele>188.0</ele><time>2026-05-02T09:13:38Z</time></trkpt><trkpt lat="40.991942303067" lon="8.900078971898509"><ele>183.5</ele><time>2026-05-02T09:13:39Z</time></trkpt><trkpt lat="40.99190756443035" lon="8.899909618976519"><ele>179.0</ele><time>2026-05-02T09:13:40Z</time></trkpt><trkpt lat="40.991836801257435" lon="8.899740065448777"><ele>178.75</ele><time>2026-05-02T09:13:41Z</time></trkpt><trkpt lat="40.991753321968886" lon="8.899599167948802"><ele>178.5</ele><time>2026-05-02T09:13:42Z</time></trkpt><trkpt lat="40.991658714293486" lon="8.899461735516777"><ele>178.25</ele><time>2026-05-02T09:13:43Z</time></trkpt><trkpt lat="40.991562784306936" lon="8.899310292426138"><ele>178.0</ele><time>2026-05-02T09:13:44Z</time></trkpt><trkpt lat="40.991471591976804" lon="8.899158177350055"><ele>178.0</ele><time>2026-05-02T09:13:45Z</time></trkpt><trkpt lat="40.99136574765742" lon="8.899030589506681"><ele>178.0</ele><time>2026-05-02T09:13:46Z</time></trkpt><trkpt lat="40.991242864052225" lon="8.898932469430298"><ele>178.0</ele><time>2026-05-02T09:13:47Z</time></trkpt><trkpt lat="40.99111817894774" lon="8.898853202029377"><ele>178.0</ele><time>2026-05-02T09:13:48Z</time></trkpt><trkpt lat="40.99101481034259" lon="8.898737642190618"><ele>178.0</ele><time>2026-05-02T09:13:49Z</time></trkpt><trkpt lat="40.99092912579054" lon="8.898618163988692"><ele>178.0</ele><time>2026-05-02T09:13:50Z</time></trkpt><trkpt lat="40.99085804080434" lon="8.89850001944504"><ele>178.0</ele><time>2026-05-02T09:13:51Z</time></trkpt><trkpt lat="40.9907816050234" lon="8.898380216979328"><ele>178.0</ele><time>2026-05-02T09:13:52Z</time></trkpt><trkpt lat="40.990747044621195" lon="8.898230048296877"><ele>177.75</ele><time>2026-05-02T09:13:53Z</time></trkpt><trkpt lat="40.99072610634145" lon="8.89806738340621"><ele>177.5</ele><time>2026-05-02T09:13:54Z</time></trkpt><trkpt lat="40.99070109549759" lon="8.897905478539728"><ele>177.25</ele><time>2026-05-02T09:13:55Z</time></trkpt><trkpt lat="40.99068645888893" lon="8.897750160154546"><ele>177.0</ele><time>2026-05-02T09:13:56Z</time></trkpt><trkpt lat="40.99063829289941" lon="8.897609014790365"><ele>173.75</ele><time>2026-05-02T09:13:57Z</time></trkpt><trkpt lat="40.99056205618105" lon="8.89749375338038"><ele>170.5</ele><time>2026-05-02T09:13:58Z</time></trkpt><trkpt lat="40.990456208181" lon="8.897420864424173"><ele>167.25</ele><time>2026-05-02T09:13:59Z</time></trkpt><trkpt lat="40.9903402442372" lon="8.897402666711642"><ele>164.0</ele><time>2026-05-02T09:14:00Z</time></trkpt><trkpt lat="40.99021686841632" lon="8.897410561486723"><ele>164.0</ele><time>2026-05-02T09:14:01Z</time></trkpt><trkpt lat="40.99009183574639" lon="8.897406763342733"><ele>164.0</ele><time>2026-05-02T09:14:02Z</time></trkpt><trkpt lat="40.98997769532205" lon="8.897311642774145"><ele>164.0</ele><time>2026-05-02T09:14:03Z</time></trkpt><trkpt lat="40.98987293711322" lon="8.89717551149248"><ele>164.0</ele><time>2026-05-02T09:14:04Z</time></trkpt><trkpt lat="40.9897949874406" lon="8.897030101391904"><ele>162.0</ele><time>2026-05-02T09:14:05Z</time></trkpt><trkpt lat="40.98972820667203" lon="8.896872510336864"><ele>160.0</ele><time>2026-05-02T09:14:06Z</time></trkpt><trkpt lat="40.989653798101436" lon="8.896711609567781"><ele>158.0</ele><time>2026-05-02T09:14:07Z</time></trkpt><trkpt lat="40.98956845362945" lon="8.89656608352867"><ele>156.0</ele><time>2026-05-02T09:14:08Z</time></trkpt><trkpt lat="40.98946908661628" lon="8.896434400980779"><ele>156.0</ele><time>2026-05-02T09:14:09Z</time></trkpt><trkpt lat="40.98935413398979" lon="8.896328551077907"><ele>156.0</ele><time>2026-05-02T09:14:10Z</time></trkpt><trkpt lat="40.98922746752256" lon="8.896231908394757"><ele>156.0</ele><time>2026-05-02T09:14:11Z</time></trkpt><trkpt lat="40.98907927609172" lon="8.896158916717113"><ele>156.0</ele><time>2026-05-02T09:14:12Z</time></trkpt><trkpt lat="40.988912110628334" lon="8.8961106842094"><ele>162.66666666666666</ele><time>2026-05-02T09:14:13Z</time></trkpt><trkpt lat="40.98874071612153" lon="8.896051601028276"><ele>169.33333333333331</ele><time>2026-05-02T09:14:14Z</time></trkpt><trkpt lat="40.988599870620305" lon="8.896017181912466"><ele>176.0</ele><time>2026-05-02T09:14:15Z</time></trkpt><trkpt lat="40.98847445720135" lon="8.895967950941305"><ele>171.5</ele><time>2026-05-02T09:14:16Z</time></trkpt><trkpt lat="40.98835980434456" lon="8.895885661079323"><ele>167.0</ele><time>2026-05-02T09:14:17Z</time></trkpt><trkpt lat="40.988267404560524" lon="8.895784679370058"><ele>162.5</ele><time>2026-05-02T09:14:18Z</time></trkpt><trkpt lat="40.988171151253745" lon="8.895721985421606"><ele>158.0</ele><time>2026-05-02T09:14:19Z</time></trkpt><trkpt lat="40.98809777912519" lon="8.89561346432113"><ele>158.0</ele><time>2026-05-02T09:14:20Z</time></trkpt><trkpt lat="40.98803461308186" lon="8.895473268719357"><ele>158.0</ele><time>2026-05-02T09:14:21Z</time></trkpt><trkpt lat="40.98796945291095" lon="8.89525140397579"><ele>158.0</ele><time>2026-05-02T09:14:22Z</time></trkpt><trkpt lat="40.98788291863498" lon="8.895080146764064"><ele>158.66666666666666</ele><time>2026-05-02T09:14:23Z</time></trkpt><trkpt lat="40.987740105131444" lon="8.894984664288902"><ele>159.33333333333334</ele><time>2026-05-02T09:14:24Z</time></trkpt><trkpt lat="40.98756830129604" lon="8.894903329982066"><ele>160.0</ele><time>2026-05-02T09:14:25Z</time></trkpt><trkpt lat="40.98740518265979" lon="8.894786652709879"><ele>160.0</ele><time>2026-05-02T09:14:26Z</time></trkpt><trkpt lat="40.98732275023862" lon="8.894587801008521"><ele>160.0</ele><time>2026-05-02T09:14:27Z</time></trkpt><trkpt lat="40.98729312243373" lon="8.894351417012997"><ele>160.0</ele><time>2026-05-02T09:14:28Z</time></trkpt><trkpt lat="40.987248363389014" lon="8.89404476173024"><ele>152.0</ele><time>2026-05-02T09:14:29Z</time></trkpt><trkpt lat="40.987169336134045" lon="8.893752759547969"><ele>144.0</ele><time>2026-05-02T09:14:30Z</time></trkpt><trkpt lat="40.987053203392165" lon="8.893464238529702"><ele>140.0</ele><time>2026-05-02T09:14:31Z</time></trkpt><trkpt lat="40.98694086409421" lon="8.893199166584997"><ele>136.0</ele><time>2026-05-02T09:14:32Z</time></trkpt><trkpt lat="40.98684638026058" lon="8.89295138540937"><ele>132.0</ele><time>2026-05-02T09:14:33Z</time></trkpt><trkpt lat="40.98674886225973" lon="8.892712422597235"><ele>136.33333333333334</ele><time>2026-05-02T09:14:34Z</time></trkpt><trkpt lat="40.98664025433066" lon="8.892489769291885"><ele>140.66666666666669</ele><time>2026-05-02T09:14:35Z</time></trkpt><trkpt lat="40.98652976565577" lon="8.892277039953616"><ele>145.0</ele><time>2026-05-02T09:14:36Z</time></trkpt><trkpt lat="40.986405169856766" lon="8.89207822591263"><ele>145.0</ele><time>2026-05-02T09:14:37Z</time></trkpt><trkpt lat="40.98625655342757" lon="8.891906364736649"><ele>145.0</ele><time>2026-05-02T09:14:38Z</time></trkpt><trkpt lat="40.98609682524917" lon="8.891755107512243"><ele>145.0</ele><time>2026-05-02T09:14:39Z</time></trkpt><trkpt lat="40.98593354329395" lon="8.891612723359417"><ele>144.33333333333334</ele><time>2026-05-02T09:14:40Z</time></trkpt><trkpt lat="40.98576714407813" lon="8.891513465107112"><ele>143.66666666666666</ele><time>2026-05-02T09:14:41Z</time></trkpt><trkpt lat="40.98559354087899" lon="8.891482682301685"><ele>143.0</ele><time>2026-05-02T09:14:42Z</time></trkpt><trkpt lat="40.98542734230465" lon="8.891449249238027"><ele>143.0</ele><time>2026-05-02T09:14:43Z</time></trkpt><trkpt lat="40.985322697269794" lon="8.891316479512556"><ele>143.0</ele><time>2026-05-02T09:14:44Z</time></trkpt><trkpt lat="40.98526043611992" lon="8.891132858561111"><ele>143.0</ele><time>2026-05-02T09:14:45Z</time></trkpt><trkpt lat="40.98519302670871" lon="8.890919545684588"><ele>141.66666666666666</ele><time>2026-05-02T09:14:46Z</time></trkpt><trkpt lat="40.98511704399147" lon="8.890698602958304"><ele>140.33333333333334</ele><time>2026-05-02T09:14:47Z</time></trkpt><trkpt lat="40.98503567224724" lon="8.890507988356244"><ele>139.0</ele><time>2026-05-02T09:14:48Z</time></trkpt><trkpt lat="40.984918483880065" lon="8.890334395620364"><ele>139.0</ele><time>2026-05-02T09:14:49Z</time></trkpt><trkpt lat="40.984754813630936" lon="8.890170913906937"><ele>139.0</ele><time>2026-05-02T09:14:50Z</time></trkpt><trkpt lat="40.98458707230699" lon="8.890026952973672"><ele>139.0</ele><time>2026-05-02T09:14:51Z</time></trkpt><trkpt lat="40.98441813071355" lon="8.889867718763739"><ele>138.33333333333334</ele><time>2026-05-02T09:14:52Z</time></trkpt><trkpt lat="40.984246943738356" lon="8.889695354119986"><ele>137.66666666666666</ele><time>2026-05-02T09:14:53Z</time></trkpt><trkpt lat="40.984075171884555" lon="8.889533927847515"><ele>137.0</ele><time>2026-05-02T09:14:54Z</time></trkpt><trkpt lat="40.98390477614686" lon="8.889411363406781"><ele>137.0</ele><time>2026-05-02T09:14:55Z</time></trkpt><trkpt lat="40.983740156125386" lon="8.889344793570796"><ele>137.0</ele><time>2026-05-02T09:14:56Z</time></trkpt><trkpt lat="40.983583971075234" lon="8.889334965178785"><ele>137.0</ele><time>2026-05-02T09:14:57Z</time></trkpt><trkpt lat="40.98344438499528" lon="8.889386214835584"><ele>139.66666666666666</ele><time>2026-05-02T09:14:58Z</time></trkpt><trkpt lat="40.983311628518756" lon="8.889501578685863"><ele>142.33333333333334</ele><time>2026-05-02T09:14:59Z</time></trkpt><trkpt lat="40.98318016452795" lon="8.889637220522877"><ele>145.0</ele><time>2026-05-02T09:15:00Z</time></trkpt><trkpt lat="40.9830680977506" lon="8.889759531036512"><ele>145.0</ele><time>2026-05-02T09:15:01Z</time></trkpt><trkpt lat="40.98296080638155" lon="8.889868313483795"><ele>145.0</ele><time>2026-05-02T09:15:02Z</time></trkpt><trkpt lat="40.98284410937569" lon="8.889958018414914"><ele>145.0</ele><time>2026-05-02T09:15:03Z</time></trkpt><trkpt lat="40.982709452293264" lon="8.889968387596584"><ele>145.0</ele><time>2026-05-02T09:15:04Z</time></trkpt><trkpt lat="40.98257828828162" lon="8.88993448299749"><ele>143.5</ele><time>2026-05-02T09:15:05Z</time></trkpt><trkpt lat="40.98246176376959" lon="8.889838521829828"><ele>142.0</ele><time>2026-05-02T09:15:06Z</time></trkpt><trkpt lat="40.98236047625677" lon="8.889720844050236"><ele>140.5</ele><time>2026-05-02T09:15:07Z</time></trkpt><trkpt lat="40.982283787266404" lon="8.889567261635785"><ele>139.0</ele><time>2026-05-02T09:15:08Z</time></trkpt><trkpt lat="40.98225051362243" lon="8.889370186810462"><ele>132.66666666666669</ele><time>2026-05-02T09:15:09Z</time></trkpt><trkpt lat="40.982254553034224" lon="8.889164729301982"><ele>126.33333333333334</ele><time>2026-05-02T09:15:10Z</time></trkpt><trkpt lat="40.98224640414904" lon="8.888969628206437"><ele>120.0</ele><time>2026-05-02T09:15:11Z</time></trkpt><trkpt lat="40.98232254426562" lon="8.88875578078456"><ele>120.0</ele><time>2026-05-02T09:15:12Z</time></trkpt><trkpt lat="40.982337536754116" lon="8.88856680368551"><ele>120.0</ele><time>2026-05-02T09:15:13Z</time></trkpt><trkpt lat="40.98229483768042" lon="8.88836135343987"><ele>120.0</ele><time>2026-05-02T09:15:14Z</time></trkpt><trkpt lat="40.98218741126033" lon="8.888177653700113"><ele>117.0</ele><time>2026-05-02T09:15:15Z</time></trkpt><trkpt lat="40.98204236828248" lon="8.887995988286413"><ele>114.0</ele><time>2026-05-02T09:15:16Z</time></trkpt><trkpt lat="40.981884334148845" lon="8.887806950242167"><ele>111.0</ele><time>2026-05-02T09:15:17Z</time></trkpt><trkpt lat="40.981730374129164" lon="8.887618091501059"><ele>113.33333333333334</ele><time>2026-05-02T09:15:18Z</time></trkpt><trkpt lat="40.98157276889437" lon="8.887459265218869"><ele>115.66666666666667</ele><time>2026-05-02T09:15:19Z</time></trkpt><trkpt lat="40.981412783954724" lon="8.887332201679085"><ele>118.0</ele><time>2026-05-02T09:15:20Z</time></trkpt><trkpt lat="40.98125954350131" lon="8.887231200866193"><ele>118.0</ele><time>2026-05-02T09:15:21Z</time></trkpt><trkpt lat="40.98110161491489" lon="8.88716216859487"><ele>118.0</ele><time>2026-05-02T09:15:22Z</time></trkpt><trkpt lat="40.980949732436635" lon="8.887119718107948"><ele>118.0</ele><time>2026-05-02T09:15:23Z</time></trkpt><trkpt lat="40.98079402959813" lon="8.88709836622488"><ele>123.0</ele><time>2026-05-02T09:15:24Z</time></trkpt><trkpt lat="40.98063494757996" lon="8.887097567113459"><ele>128.0</ele><time>2026-05-02T09:15:25Z</time></trkpt><trkpt lat="40.980473076479335" lon="8.88707857731664"><ele>133.0</ele><time>2026-05-02T09:15:26Z</time></trkpt><trkpt lat="40.98033384140773" lon="8.886993261499548"><ele>133.0</ele><time>2026-05-02T09:15:27Z</time></trkpt><trkpt lat="40.980223736900214" lon="8.886819694318136"><ele>133.0</ele><time>2026-05-02T09:15:28Z</time></trkpt><trkpt lat="40.980175149351055" lon="8.886570993128684"><ele>133.0</ele><time>2026-05-02T09:15:29Z</time></trkpt><trkpt lat="40.98012720890989" lon="8.886314064451618"><ele>128.33333333333334</ele><time>2026-05-02T09:15:30Z</time></trkpt><trkpt lat="40.98008799503228" lon="8.886090924786386"><ele>123.66666666666666</ele><time>2026-05-02T09:15:31Z</time></trkpt><trkpt lat="40.9800484107649" lon="8.885879571631474"><ele>119.0</ele><time>2026-05-02T09:15:32Z</time></trkpt><trkpt lat="40.98000692211383" lon="8.885697749195861"><ele>118.99999999999999</ele><time>2026-05-02T09:15:33Z</time></trkpt><trkpt lat="40.979977048865585" lon="8.885564545485177"><ele>119.0</ele><time>2026-05-02T09:15:34Z</time></trkpt><trkpt lat="40.97994697539856" lon="8.885466942503607"><ele>119.0</ele><time>2026-05-02T09:15:35Z</time></trkpt><trkpt lat="40.97991227999682" lon="8.885383835083214"><ele>119.0</ele><time>2026-05-02T09:15:36Z</time></trkpt><trkpt lat="40.97986644902905" lon="8.885299208174734"><ele>118.99999999999999</ele><time>2026-05-02T09:15:37Z</time></trkpt><trkpt lat="40.97981112267833" lon="8.885202683685895"><ele>119.0</ele><time>2026-05-02T09:15:38Z</time></trkpt><trkpt lat="40.97975061127154" lon="8.885096703369932"><ele>116.2</ele><time>2026-05-02T09:15:39Z</time></trkpt><trkpt lat="40.979703087666564" lon="8.88495901198441"><ele>113.4</ele><time>2026-05-02T09:15:40Z</time></trkpt><trkpt lat="40.979656683918655" lon="8.884821160227107"><ele>110.6</ele><time>2026-05-02T09:15:41Z</time></trkpt><trkpt lat="40.97962020272209" lon="8.88469843868842"><ele>107.8</ele><time>2026-05-02T09:15:42Z</time></trkpt><trkpt lat="40.979563875731564" lon="8.884594470013557"><ele>105.0</ele><time>2026-05-02T09:15:43Z</time></trkpt><trkpt lat="40.9794187103364" lon="8.884586137911382"><ele>105.0</ele><time>2026-05-02T09:15:44Z</time></trkpt><trkpt lat="40.97933961730946" lon="8.88448733214554"><ele>105.0</ele><time>2026-05-02T09:15:45Z</time></trkpt><trkpt lat="40.97924415786213" lon="8.884410282120717"><ele>105.0</ele><time>2026-05-02T09:15:46Z</time></trkpt><trkpt lat="40.979132653665076" lon="8.88437260695207"><ele>105.0</ele><time>2026-05-02T09:15:47Z</time></trkpt><trkpt lat="40.97902690383008" lon="8.884343635154872"><ele>105.0</ele><time>2026-05-02T09:15:48Z</time></trkpt><trkpt lat="40.97891886712743" lon="8.884307533556767"><ele>109.6</ele><time>2026-05-02T09:15:49Z</time></trkpt><trkpt lat="40.97881453306556" lon="8.884286113282904"><ele>114.2</ele><time>2026-05-02T09:15:50Z</time></trkpt><trkpt lat="40.97872152587169" lon="8.884288840969912"><ele>118.80000000000001</ele><time>2026-05-02T09:15:51Z</time></trkpt><trkpt lat="40.978629810829084" lon="8.884305636211089"><ele>123.4</ele><time>2026-05-02T09:15:52Z</time></trkpt><trkpt lat="40.97853772194519" lon="8.884322908180163"><ele>128.0</ele><time>2026-05-02T09:15:53Z</time></trkpt><trkpt lat="40.97843993673811" lon="8.88435943883149"><ele>128.25</ele><time>2026-05-02T09:15:54Z</time></trkpt><trkpt lat="40.9783353959289" lon="8.884414097302297"><ele>128.5</ele><time>2026-05-02T09:15:55Z</time></trkpt><trkpt lat="40.97822875171716" lon="8.884482646627962"><ele>128.75</ele><time>2026-05-02T09:15:56Z</time></trkpt><trkpt lat="40.97812247961514" lon="8.884550137603721"><ele>129.0</ele><time>2026-05-02T09:15:57Z</time></trkpt><trkpt lat="40.97801413605805" lon="8.884620619438765"><ele>129.0</ele><time>2026-05-02T09:15:58Z</time></trkpt><trkpt lat="40.97790498220184" lon="8.88469140489865"><ele>129.0</ele><time>2026-05-02T09:15:59Z</time></trkpt><trkpt lat="40.977792685425136" lon="8.884763891454257"><ele>129.0</ele><time>2026-05-02T09:16:00Z</time></trkpt><trkpt lat="40.97769272424594" lon="8.884854740478335"><ele>129.0</ele><time>2026-05-02T09:16:01Z</time></trkpt><trkpt lat="40.97760150497593" lon="8.884979292036649"><ele>131.75</ele><time>2026-05-02T09:16:02Z</time></trkpt><trkpt lat="40.977524060002395" lon="8.885120761574358"><ele>134.5</ele><time>2026-05-02T09:16:03Z</time></trkpt><trkpt lat="40.97745922279822" lon="8.885260125858176"><ele>137.25</ele><time>2026-05-02T09:16:04Z</time></trkpt><trkpt lat="40.97739771882667" lon="8.885379491193795"><ele>140.0</ele><time>2026-05-02T09:16:05Z</time></trkpt><trkpt lat="40.97731890041918" lon="8.88546757950636"><ele>140.0</ele><time>2026-05-02T09:16:06Z</time></trkpt><trkpt lat="40.97722907731609" lon="8.885523402666703"><ele>140.0</ele><time>2026-05-02T09:16:07Z</time></trkpt><trkpt lat="40.977131729269985" lon="8.885561200994955"><ele>140.0</ele><time>2026-05-02T09:16:08Z</time></trkpt><trkpt lat="40.97701895908162" lon="8.885585281774794"><ele>140.0</ele><time>2026-05-02T09:16:09Z</time></trkpt><trkpt lat="40.976907640225036" lon="8.885598781389858"><ele>140.0</ele><time>2026-05-02T09:16:10Z</time></trkpt><trkpt lat="40.9767828434752" lon="8.885610508699521"><ele>136.75</ele><time>2026-05-02T09:16:11Z</time></trkpt><trkpt lat="40.976661087857025" lon="8.885622354524205"><ele>133.5</ele><time>2026-05-02T09:16:12Z</time></trkpt><trkpt lat="40.97655118184988" lon="8.885647728342386"><ele>130.25</ele><time>2026-05-02T09:16:13Z</time></trkpt><trkpt lat="40.97643458279924" lon="8.885675682327316"><ele>127.0</ele><time>2026-05-02T09:16:14Z</time></trkpt><trkpt lat="40.976315907060496" lon="8.885706725701667"><ele>127.0</ele><time>2026-05-02T09:16:15Z</time></trkpt><trkpt lat="40.976200481416605" lon="8.885756800603053"><ele>127.0</ele><time>2026-05-02T09:16:16Z</time></trkpt><trkpt lat="40.97609248701429" lon="8.885817264513777"><ele>127.0</ele><time>2026-05-02T09:16:17Z</time></trkpt><trkpt lat="40.97598700919721" lon="8.885860517959014"><ele>127.0</ele><time>2026-05-02T09:16:18Z</time></trkpt><trkpt lat="40.97587874687807" lon="8.885859592728508"><ele>126.0</ele><time>2026-05-02T09:16:19Z</time></trkpt><trkpt lat="40.97577359234666" lon="8.885820322900681"><ele>125.0</ele><time>2026-05-02T09:16:20Z</time></trkpt><trkpt lat="40.975669636852984" lon="8.885751598089433"><ele>124.0</ele><time>2026-05-02T09:16:21Z</time></trkpt><trkpt lat="40.97556630216548" lon="8.885673959305585"><ele>123.0</ele><time>2026-05-02T09:16:22Z</time></trkpt><trkpt lat="40.97545414497814" lon="8.885595762558726"><ele>123.0</ele><time>2026-05-02T09:16:23Z</time></trkpt><trkpt lat="40.97536993273957" lon="8.885490132083255"><ele>123.0</ele><time>2026-05-02T09:16:24Z</time></trkpt><trkpt lat="40.975313195061474" lon="8.885358799974602"><ele>123.0</ele><time>2026-05-02T09:16:25Z</time></trkpt><trkpt lat="40.97527330810812" lon="8.885214485713295"><ele>123.0</ele><time>2026-05-02T09:16:26Z</time></trkpt><trkpt lat="40.97523965188213" lon="8.885051966679876"><ele>120.0</ele><time>2026-05-02T09:16:27Z</time></trkpt><trkpt lat="40.97520020285958" lon="8.884814881956649"><ele>117.0</ele><time>2026-05-02T09:16:28Z</time></trkpt><trkpt lat="40.97516843457426" lon="8.884551839372701"><ele>114.0</ele><time>2026-05-02T09:16:29Z</time></trkpt><trkpt lat="40.9751804126539" lon="8.884177755423035"><ele>113.5</ele><time>2026-05-02T09:16:30Z</time></trkpt><trkpt lat="40.97511430155822" lon="8.883816253568327"><ele>113.0</ele><time>2026-05-02T09:16:31Z</time></trkpt><trkpt lat="40.97501291003745" lon="8.883494870755678"><ele>107.66666666666666</ele><time>2026-05-02T09:16:32Z</time></trkpt><trkpt lat="40.975044037291184" lon="8.883341809481232"><ele>102.33333333333334</ele><time>2026-05-02T09:16:33Z</time></trkpt><trkpt lat="40.9750645465105" lon="8.883035200448216"><ele>97.0</ele><time>2026-05-02T09:16:34Z</time></trkpt><trkpt lat="40.975139509581965" lon="8.88273218820627"><ele>95.0</ele><time>2026-05-02T09:16:35Z</time></trkpt><trkpt lat="40.97526642516278" lon="8.882426909368162"><ele>93.0</ele><time>2026-05-02T09:16:36Z</time></trkpt><trkpt lat="40.9753995777061" lon="8.882170704752236"><ele>93.0</ele><time>2026-05-02T09:16:37Z</time></trkpt><trkpt lat="40.97547964775574" lon="8.881946682724104"><ele>93.0</ele><time>2026-05-02T09:16:38Z</time></trkpt><trkpt lat="40.97550402894716" lon="8.881707152796357"><ele>93.0</ele><time>2026-05-02T09:16:39Z</time></trkpt><trkpt lat="40.97545904094468" lon="8.881478662979266"><ele>93.0</ele><time>2026-05-02T09:16:40Z</time></trkpt><trkpt lat="40.97534278590159" lon="8.881303321384113"><ele>93.0</ele><time>2026-05-02T09:16:41Z</time></trkpt><trkpt lat="40.975175240975254" lon="8.881185063398593"><ele>93.0</ele><time>2026-05-02T09:16:42Z</time></trkpt><trkpt lat="40.974982463873154" lon="8.881147785802431"><ele>95.66666666666666</ele><time>2026-05-02T09:16:43Z</time></trkpt><trkpt lat="40.97477899850777" lon="8.881192733637283"><ele>98.33333333333333</ele><time>2026-05-02T09:16:44Z</time></trkpt><trkpt lat="40.974608771653834" lon="8.881367972626062"><ele>101.0</ele><time>2026-05-02T09:16:45Z</time></trkpt><trkpt lat="40.97444777461197" lon="8.881561682077466"><ele>101.0</ele><time>2026-05-02T09:16:46Z</time></trkpt><trkpt lat="40.97431873535959" lon="8.881721487738673"><ele>101.0</ele><time>2026-05-02T09:16:47Z</time></trkpt><trkpt lat="40.97423444695292" lon="8.881911577084656"><ele>101.0</ele><time>2026-05-02T09:16:48Z</time></trkpt><trkpt lat="40.97418030557689" lon="8.882109985354964"><ele>100.8</ele><time>2026-05-02T09:16:49Z</time></trkpt><trkpt lat="40.97410733928418" lon="8.882244663294916"><ele>100.6</ele><time>2026-05-02T09:16:50Z</time></trkpt><trkpt lat="40.974013612416186" lon="8.882311150240762"><ele>100.4</ele><time>2026-05-02T09:16:51Z</time></trkpt><trkpt lat="40.973918282253074" lon="8.882333198428274"><ele>100.2</ele><time>2026-05-02T09:16:52Z</time></trkpt><trkpt lat="40.97382392225301" lon="8.882319355553546"><ele>100.0</ele><time>2026-05-02T09:16:53Z</time></trkpt><trkpt lat="40.97372362760639" lon="8.882262481610974"><ele>100.0</ele><time>2026-05-02T09:16:54Z</time></trkpt><trkpt lat="40.9736388571024" lon="8.882160887217006"><ele>100.0</ele><time>2026-05-02T09:16:55Z</time></trkpt><trkpt lat="40.97358594282686" lon="8.88198169250042"><ele>100.0</ele><time>2026-05-02T09:16:56Z</time></trkpt><trkpt lat="40.973564045331685" lon="8.881813771527018"><ele>100.0</ele><time>2026-05-02T09:16:57Z</time></trkpt><trkpt lat="40.973575876895154" lon="8.881647496026096"><ele>98.25</ele><time>2026-05-02T09:16:58Z</time></trkpt><trkpt lat="40.973598339611584" lon="8.88149112315877"><ele>96.5</ele><time>2026-05-02T09:16:59Z</time></trkpt><trkpt lat="40.9736246359567" lon="8.881335124436395"><ele>94.75</ele><time>2026-05-02T09:17:00Z</time></trkpt><trkpt lat="40.973672551778314" lon="8.881179662693807"><ele>93.0</ele><time>2026-05-02T09:17:01Z</time></trkpt><trkpt lat="40.97373794595488" lon="8.881031783197018"><ele>91.25</ele><time>2026-05-02T09:17:02Z</time></trkpt><trkpt lat="40.973794753932864" lon="8.88088847952048"><ele>89.5</ele><time>2026-05-02T09:17:03Z</time></trkpt><trkpt lat="40.973826707280494" lon="8.880731803357115"><ele>87.75</ele><time>2026-05-02T09:17:04Z</time></trkpt><trkpt lat="40.97383095877884" lon="8.880566173663862"><ele>86.0</ele><time>2026-05-02T09:17:05Z</time></trkpt><trkpt lat="40.97382360281944" lon="8.880392539565937"><ele>86.0</ele><time>2026-05-02T09:17:06Z</time></trkpt><trkpt lat="40.973804184332664" lon="8.880210354070421"><ele>86.0</ele><time>2026-05-02T09:17:07Z</time></trkpt><trkpt lat="40.97377119752538" lon="8.880025198770522"><ele>86.0</ele><time>2026-05-02T09:17:08Z</time></trkpt><trkpt lat="40.97373808385203" lon="8.879829028559671"><ele>86.0</ele><time>2026-05-02T09:17:09Z</time></trkpt><trkpt lat="40.97370312597712" lon="8.87962244925358"><ele>84.0</ele><time>2026-05-02T09:17:10Z</time></trkpt><trkpt lat="40.973670720992956" lon="8.87943475328822"><ele>82.0</ele><time>2026-05-02T09:17:11Z</time></trkpt><trkpt lat="40.973638831059034" lon="8.87925677828763"><ele>80.0</ele><time>2026-05-02T09:17:12Z</time></trkpt><trkpt lat="40.973613178061825" lon="8.87908797933893"><ele>78.0</ele><time>2026-05-02T09:17:13Z</time></trkpt><trkpt lat="40.973579758526135" lon="8.878929857235796"><ele>77.4</ele><time>2026-05-02T09:17:14Z</time></trkpt><trkpt lat="40.97352636424642" lon="8.878788079376534"><ele>76.8</ele><time>2026-05-02T09:17:15Z</time></trkpt><trkpt lat="40.97344950580092" lon="8.878676935881956"><ele>76.2</ele><time>2026-05-02T09:17:16Z</time></trkpt><trkpt lat="40.97335883746168" lon="8.878602021294196"><ele>75.6</ele><time>2026-05-02T09:17:17Z</time></trkpt><trkpt lat="40.97326098973826" lon="8.878559476472041"><ele>75.0</ele><time>2026-05-02T09:17:18Z</time></trkpt><trkpt lat="40.9731510452359" lon="8.878545591058996"><ele>78.75</ele><time>2026-05-02T09:17:19Z</time></trkpt><trkpt lat="40.973038859925076" lon="8.878560555986503"><ele>82.5</ele><time>2026-05-02T09:17:20Z</time></trkpt><trkpt lat="40.972925670644656" lon="8.878599733170969"><ele>86.25</ele><time>2026-05-02T09:17:21Z</time></trkpt><trkpt lat="40.97281874436553" lon="8.878661680773995"><ele>90.0</ele><time>2026-05-02T09:17:22Z</time></trkpt><trkpt lat="40.97272514308217" lon="8.87875218246798"><ele>90.0</ele><time>2026-05-02T09:17:23Z</time></trkpt><trkpt lat="40.97263886150082" lon="8.878853619211114"><ele>90.0</ele><time>2026-05-02T09:17:24Z</time></trkpt><trkpt lat="40.97255354861806" lon="8.878958822012173"><ele>90.0</ele><time>2026-05-02T09:17:25Z</time></trkpt><trkpt lat="40.97247333624155" lon="8.879106153828642"><ele>90.0</ele><time>2026-05-02T09:17:26Z</time></trkpt><trkpt lat="40.97237822262053" lon="8.879315418261394"><ele>93.0</ele><time>2026-05-02T09:17:27Z</time></trkpt><trkpt lat="40.97229250433082" lon="8.879503689759373"><ele>96.0</ele><time>2026-05-02T09:17:28Z</time></trkpt><trkpt lat="40.97220244379838" lon="8.879668050242424"><ele>99.0</ele><time>2026-05-02T09:17:29Z</time></trkpt><trkpt lat="40.97208234431367" lon="8.879769584461432"><ele>99.0</ele><time>2026-05-02T09:17:30Z</time></trkpt><trkpt lat="40.971958306498244" lon="8.879814890795256"><ele>99.0</ele><time>2026-05-02T09:17:31Z</time></trkpt><trkpt lat="40.971866302878816" lon="8.879804608421281"><ele>99.0</ele><time>2026-05-02T09:17:32Z</time></trkpt><trkpt lat="40.971797437449275" lon="8.879747636910484"><ele>99.0</ele><time>2026-05-02T09:17:34Z</time></trkpt><trkpt lat="40.97172527765824" lon="8.879710188896725"><ele>99.0</ele><time>2026-05-02T09:17:36Z</time></trkpt><trkpt lat="40.97166235867168" lon="8.879680230456778"><ele>99.0</ele><time>2026-05-02T09:17:37Z</time></trkpt><trkpt lat="40.971593840346465" lon="8.879612346661668"><ele>97.6</ele><time>2026-05-02T09:17:38Z</time></trkpt><trkpt lat="40.97153518138354" lon="8.879515038846916"><ele>96.2</ele><time>2026-05-02T09:17:39Z</time></trkpt><trkpt lat="40.9714949819174" lon="8.879396307602462"><ele>94.8</ele><time>2026-05-02T09:17:40Z</time></trkpt><trkpt lat="40.97148048581658" lon="8.879294117293464"><ele>93.39999999999999</ele><time>2026-05-02T09:17:41Z</time></trkpt><trkpt lat="40.971466616853135" lon="8.879182527093905"><ele>92.0</ele><time>2026-05-02T09:17:42Z</time></trkpt><trkpt lat="40.97149197872356" lon="8.879040095200095"><ele>91.0</ele><time>2026-05-02T09:17:43Z</time></trkpt><trkpt lat="40.97151855158036" lon="8.878876920928393"><ele>90.0</ele><time>2026-05-02T09:17:44Z</time></trkpt><trkpt lat="40.97154274598921" lon="8.878673819640328"><ele>89.0</ele><time>2026-05-02T09:17:45Z</time></trkpt><trkpt lat="40.97156817492688" lon="8.878479749283793"><ele>88.0</ele><time>2026-05-02T09:17:46Z</time></trkpt><trkpt lat="40.97159979586224" lon="8.87828920890777"><ele>87.66666666666666</ele><time>2026-05-02T09:17:47Z</time></trkpt><trkpt lat="40.971619359507606" lon="8.878092513693376"><ele>87.33333333333333</ele><time>2026-05-02T09:17:48Z</time></trkpt><trkpt lat="40.971660090276565" lon="8.877897380023303"><ele>87.0</ele><time>2026-05-02T09:17:49Z</time></trkpt><trkpt lat="40.97170608803267" lon="8.877700955789592"><ele>81.66666666666667</ele><time>2026-05-02T09:17:50Z</time></trkpt><trkpt lat="40.97174167988072" lon="8.877497761741369"><ele>76.33333333333334</ele><time>2026-05-02T09:17:51Z</time></trkpt><trkpt lat="40.97175623768289" lon="8.877299757653986"><ele>71.0</ele><time>2026-05-02T09:17:52Z</time></trkpt><trkpt lat="40.971757199577844" lon="8.877107194683209"><ele>71.0</ele><time>2026-05-02T09:17:53Z</time></trkpt><trkpt lat="40.97174594793004" lon="8.876921295999257"><ele>71.0</ele><time>2026-05-02T09:17:54Z</time></trkpt><trkpt lat="40.97172948012446" lon="8.87674003288521"><ele>71.0</ele><time>2026-05-02T09:17:55Z</time></trkpt><trkpt lat="40.97170108071913" lon="8.8765552689384"><ele>71.0</ele><time>2026-05-02T09:17:56Z</time></trkpt><trkpt lat="40.97164891504948" lon="8.876361730693466"><ele>72.5</ele><time>2026-05-02T09:17:57Z</time></trkpt><trkpt lat="40.9715797418879" lon="8.876191207903892"><ele>74.0</ele><time>2026-05-02T09:17:58Z</time></trkpt><trkpt lat="40.971511605679275" lon="8.876031828893973"><ele>75.5</ele><time>2026-05-02T09:17:59Z</time></trkpt><trkpt lat="40.97143937093844" lon="8.87588346797216"><ele>77.0</ele><time>2026-05-02T09:18:00Z</time></trkpt><trkpt lat="40.971364125349155" lon="8.875744718285382"><ele>77.0</ele><time>2026-05-02T09:18:01Z</time></trkpt><trkpt lat="40.97128461962931" lon="8.875617921389054"><ele>77.0</ele><time>2026-05-02T09:18:02Z</time></trkpt><trkpt lat="40.97120738214817" lon="8.875499399628104"><ele>77.0</ele><time>2026-05-02T09:18:03Z</time></trkpt><trkpt lat="40.97112235328943" lon="8.87541163728594"><ele>77.0</ele><time>2026-05-02T09:18:04Z</time></trkpt><trkpt lat="40.97103729477594" lon="8.875348962376341"><ele>77.0</ele><time>2026-05-02T09:18:05Z</time></trkpt><trkpt lat="40.97095791241589" lon="8.875302821959798"><ele>77.0</ele><time>2026-05-02T09:18:06Z</time></trkpt><trkpt lat="40.97088496811252" lon="8.875270323254567"><ele>77.0</ele><time>2026-05-02T09:18:07Z</time></trkpt><trkpt lat="40.970815952327" lon="8.875245566053131"><ele>77.0</ele><time>2026-05-02T09:18:08Z</time></trkpt><trkpt lat="40.97074280477124" lon="8.875234741294094"><ele>77.0</ele><time>2026-05-02T09:18:09Z</time></trkpt><trkpt lat="40.97066621123354" lon="8.875239979960444"><ele>77.0</ele><time>2026-05-02T09:18:10Z</time></trkpt><trkpt lat="40.97060629051034" lon="8.875271534353688"><ele>77.0</ele><time>2026-05-02T09:18:11Z</time></trkpt><trkpt lat="40.970512588217" lon="8.87531171404694"><ele>79.8</ele><time>2026-05-02T09:18:13Z</time></trkpt><trkpt lat="40.97042442447401" lon="8.875301843284507"><ele>82.6</ele><time>2026-05-02T09:18:15Z</time></trkpt><trkpt lat="40.970303526278904" lon="8.875212545635154"><ele>85.39999999999999</ele><time>2026-05-02T09:18:17Z</time></trkpt><trkpt lat="40.970229330498455" lon="8.875183747924181"><ele>88.2</ele><time>2026-05-02T09:18:18Z</time></trkpt><trkpt lat="40.9701528082159" lon="8.875198028424702"><ele>91.0</ele><time>2026-05-02T09:18:19Z</time></trkpt><trkpt lat="40.97007950633496" lon="8.875238677482857"><ele>90.16666666666666</ele><time>2026-05-02T09:18:20Z</time></trkpt><trkpt lat="40.97000512314349" lon="8.875297616731292"><ele>89.33333333333333</ele><time>2026-05-02T09:18:21Z</time></trkpt><trkpt lat="40.96993521787585" lon="8.875363316293601"><ele>88.5</ele><time>2026-05-02T09:18:22Z</time></trkpt><trkpt lat="40.969880547447474" lon="8.875444381811102"><ele>87.66666666666667</ele><time>2026-05-02T09:18:23Z</time></trkpt><trkpt lat="40.96983782748246" lon="8.875546289381232"><ele>86.83333333333334</ele><time>2026-05-02T09:18:24Z</time></trkpt><trkpt lat="40.96978745026948" lon="8.8756633358834"><ele>86.0</ele><time>2026-05-02T09:18:25Z</time></trkpt><trkpt lat="40.96972062072354" lon="8.875765720586598"><ele>86.0</ele><time>2026-05-02T09:18:26Z</time></trkpt><trkpt lat="40.96960635722813" lon="8.875776591965046"><ele>86.0</ele><time>2026-05-02T09:18:27Z</time></trkpt><trkpt lat="40.96948510197809" lon="8.875789671768857"><ele>86.0</ele><time>2026-05-02T09:18:28Z</time></trkpt><trkpt lat="40.969353334967714" lon="8.875793978073744"><ele>86.0</ele><time>2026-05-02T09:18:29Z</time></trkpt><trkpt lat="40.96921864500595" lon="8.875792895279993"><ele>85.25</ele><time>2026-05-02T09:18:30Z</time></trkpt><trkpt lat="40.969091108925" lon="8.875771322868097"><ele>84.5</ele><time>2026-05-02T09:18:31Z</time></trkpt><trkpt lat="40.96897490895674" lon="8.875714424267974"><ele>83.75</ele><time>2026-05-02T09:18:32Z</time></trkpt><trkpt lat="40.968865020267124" lon="8.875619433082864"><ele>83.0</ele><time>2026-05-02T09:18:33Z</time></trkpt><trkpt lat="40.968744992216266" lon="8.875487934690579"><ele>83.0</ele><time>2026-05-02T09:18:34Z</time></trkpt><trkpt lat="40.96862008984147" lon="8.875344104373676"><ele>83.0</ele><time>2026-05-02T09:18:35Z</time></trkpt><trkpt lat="40.96848998389626" lon="8.875229562063424"><ele>83.0</ele><time>2026-05-02T09:18:36Z</time></trkpt><trkpt lat="40.96836092059681" lon="8.875120990348877"><ele>81.33333333333334</ele><time>2026-05-02T09:18:37Z</time></trkpt><trkpt lat="40.968221639098694" lon="8.875041919801657"><ele>79.66666666666667</ele><time>2026-05-02T09:18:38Z</time></trkpt><trkpt lat="40.96806299272198" lon="8.875011745594025"><ele>78.0</ele><time>2026-05-02T09:18:39Z</time></trkpt><trkpt lat="40.96787297824367" lon="8.874997741930628"><ele>78.0</ele><time>2026-05-02T09:18:40Z</time></trkpt><trkpt lat="40.967691269099674" lon="8.874954816911691"><ele>78.0</ele><time>2026-05-02T09:18:41Z</time></trkpt><trkpt lat="40.96750731924127" lon="8.87493196887893"><ele>78.0</ele><time>2026-05-02T09:18:42Z</time></trkpt><trkpt lat="40.9673081741688" lon="8.874956773703646"><ele>76.0</ele><time>2026-05-02T09:18:43Z</time></trkpt><trkpt lat="40.967098049338446" lon="8.874934048532841"><ele>74.0</ele><time>2026-05-02T09:18:44Z</time></trkpt><trkpt lat="40.966910969988106" lon="8.87490136073635"><ele>72.0</ele><time>2026-05-02T09:18:45Z</time></trkpt><trkpt lat="40.96674403147372" lon="8.874873571719226"><ele>71.25</ele><time>2026-05-02T09:18:46Z</time></trkpt><trkpt lat="40.966607955114576" lon="8.874875662164044"><ele>70.5</ele><time>2026-05-02T09:18:47Z</time></trkpt><trkpt lat="40.96647922302635" lon="8.874903865023859"><ele>69.75</ele><time>2026-05-02T09:18:48Z</time></trkpt><trkpt lat="40.96636595418004" lon="8.874930795987606"><ele>69.0</ele><time>2026-05-02T09:18:49Z</time></trkpt><trkpt lat="40.966261087357815" lon="8.874979641868464"><ele>69.0</ele><time>2026-05-02T09:18:50Z</time></trkpt><trkpt lat="40.966168570659605" lon="8.875040762124689"><ele>69.0</ele><time>2026-05-02T09:18:51Z</time></trkpt><trkpt lat="40.966087479135986" lon="8.875100545319567"><ele>69.0</ele><time>2026-05-02T09:18:52Z</time></trkpt><trkpt lat="40.966003202075036" lon="8.875146303440548"><ele>69.0</ele><time>2026-05-02T09:18:53Z</time></trkpt><trkpt lat="40.96592766024787" lon="8.87521021934742"><ele>69.0</ele><time>2026-05-02T09:18:54Z</time></trkpt><trkpt lat="40.9658572415965" lon="8.875303581003047"><ele>69.25</ele><time>2026-05-02T09:18:55Z</time></trkpt><trkpt lat="40.96576480152978" lon="8.875397384096791"><ele>69.5</ele><time>2026-05-02T09:18:56Z</time></trkpt><trkpt lat="40.96567607341562" lon="8.875505170171396"><ele>69.75</ele><time>2026-05-02T09:18:57Z</time></trkpt><trkpt lat="40.96558185591053" lon="8.875623191128222"><ele>70.0</ele><time>2026-05-02T09:18:58Z</time></trkpt><trkpt lat="40.96548318204031" lon="8.875733898361021"><ele>70.0</ele><time>2026-05-02T09:18:59Z</time></trkpt><trkpt lat="40.965393982371076" lon="8.875843884274962"><ele>70.0</ele><time>2026-05-02T09:19:00Z</time></trkpt><trkpt lat="40.96529775106072" lon="8.875935194819894"><ele>70.0</ele><time>2026-05-02T09:19:01Z</time></trkpt><trkpt lat="40.965220038948154" lon="8.876032709444617"><ele>70.0</ele><time>2026-05-02T09:19:02Z</time></trkpt><trkpt lat="40.96514304704395" lon="8.87612701416261"><ele>72.33333333333333</ele><time>2026-05-02T09:19:03Z</time></trkpt><trkpt lat="40.96504128513692" lon="8.87625173039591"><ele>74.66666666666667</ele><time>2026-05-02T09:19:04Z</time></trkpt><trkpt lat="40.96491452586648" lon="8.876407216190328"><ele>77.0</ele><time>2026-05-02T09:19:05Z</time></trkpt><trkpt lat="40.96479237553821" lon="8.876585384256158"><ele>73.33333333333334</ele><time>2026-05-02T09:19:06Z</time></trkpt><trkpt lat="40.9646564905923" lon="8.876742086626253"><ele>69.66666666666667</ele><time>2026-05-02T09:19:07Z</time></trkpt><trkpt lat="40.964519496111635" lon="8.876920766479902"><ele>66.0</ele><time>2026-05-02T09:19:08Z</time></trkpt><trkpt lat="40.96435302425281" lon="8.877104097929738"><ele>66.0</ele><time>2026-05-02T09:19:09Z</time></trkpt><trkpt lat="40.96419746494295" lon="8.877271234485077"><ele>66.0</ele><time>2026-05-02T09:19:10Z</time></trkpt><trkpt lat="40.964008637071956" lon="8.8774070803381"><ele>66.0</ele><time>2026-05-02T09:19:10.999Z</time></trkpt><trkpt lat="40.963799242662716" lon="8.877504793025606"><ele>61.0</ele><time>2026-05-02T09:19:11.999Z</time></trkpt><trkpt lat="40.96356051527417" lon="8.87757669820783"><ele>56.0</ele><time>2026-05-02T09:19:12.999Z</time></trkpt><trkpt lat="40.9633448627976" lon="8.877612508954313"><ele>56.0</ele><time>2026-05-02T09:19:13.999Z</time></trkpt><trkpt lat="40.963135896440825" lon="8.877659059091593"><ele>56.0</ele><time>2026-05-02T09:19:14.999Z</time></trkpt><trkpt lat="40.962923355039116" lon="8.877715887109993"><ele>56.0</ele><time>2026-05-02T09:19:15.999Z</time></trkpt><trkpt lat="40.962705928181066" lon="8.87776982769429"><ele>54.66666666666667</ele><time>2026-05-02T09:19:16.999Z</time></trkpt><trkpt lat="40.96249490589625" lon="8.87781114113768"><ele>53.33333333333333</ele><time>2026-05-02T09:19:17.999Z</time></trkpt><trkpt lat="40.962289601092486" lon="8.877850497960294"><ele>52.0</ele><time>2026-05-02T09:19:18.999Z</time></trkpt><trkpt lat="40.96208404510957" lon="8.877901849181026"><ele>52.0</ele><time>2026-05-02T09:19:19.999Z</time></trkpt><trkpt lat="40.96187751861394" lon="8.877967610655176"><ele>52.0</ele><time>2026-05-02T09:19:20.999Z</time></trkpt><trkpt lat="40.961668578779815" lon="8.878045316387368"><ele>52.0</ele><time>2026-05-02T09:19:21.999Z</time></trkpt><trkpt lat="40.961468357616305" lon="8.878130100342291"><ele>51.33333333333333</ele><time>2026-05-02T09:19:22.999Z</time></trkpt><trkpt lat="40.961274104915674" lon="8.878207759631547"><ele>50.66666666666667</ele><time>2026-05-02T09:19:23.999Z</time></trkpt><trkpt lat="40.96108030001037" lon="8.878297550406401"><ele>50.0</ele><time>2026-05-02T09:19:24.999Z</time></trkpt><trkpt lat="40.960884066871174" lon="8.878388911235897"><ele>49.66666666666667</ele><time>2026-05-02T09:19:25.999Z</time></trkpt><trkpt lat="40.96068538108526" lon="8.878479034326912"><ele>49.33333333333333</ele><time>2026-05-02T09:19:27Z</time></trkpt><trkpt lat="40.960483427608494" lon="8.878566000610753"><ele>49.0</ele><time>2026-05-02T09:19:28Z</time></trkpt><trkpt lat="40.9602840222789" lon="8.87865903822622"><ele>49.0</ele><time>2026-05-02T09:19:29Z</time></trkpt><trkpt lat="40.96008655646253" lon="8.878750899547214"><ele>49.0</ele><time>2026-05-02T09:19:30Z</time></trkpt><trkpt lat="40.95989534021284" lon="8.878838665874834"><ele>49.0</ele><time>2026-05-02T09:19:31Z</time></trkpt><trkpt lat="40.95970664786145" lon="8.878923017631676"><ele>47.33333333333333</ele><time>2026-05-02T09:19:32Z</time></trkpt><trkpt lat="40.95953161320408" lon="8.878999111714158"><ele>45.666666666666664</ele><time>2026-05-02T09:19:33Z</time></trkpt><trkpt lat="40.959372128047185" lon="8.879068974892304"><ele>44.0</ele><time>2026-05-02T09:19:34Z</time></trkpt><trkpt lat="40.95921458325427" lon="8.879139114329854"><ele>43.5</ele><time>2026-05-02T09:19:35Z</time></trkpt><trkpt lat="40.95906548308088" lon="8.879186258937427"><ele>43.0</ele><time>2026-05-02T09:19:36Z</time></trkpt><trkpt lat="40.95893038497175" lon="8.879200271415378"><ele>42.5</ele><time>2026-05-02T09:19:37Z</time></trkpt><trkpt lat="40.95880384758462" lon="8.879172615831687"><ele>42.0</ele><time>2026-05-02T09:19:38Z</time></trkpt><trkpt lat="40.958689979954436" lon="8.87913321727279"><ele>42.0</ele><time>2026-05-02T09:19:39Z</time></trkpt><trkpt lat="40.95859486396527" lon="8.879077690327936"><ele>42.0</ele><time>2026-05-02T09:19:40Z</time></trkpt><trkpt lat="40.95850328108562" lon="8.879021366933195"><ele>42.0</ele><time>2026-05-02T09:19:41Z</time></trkpt><trkpt lat="40.95840869101657" lon="8.878950950534932"><ele>42.0</ele><time>2026-05-02T09:19:42Z</time></trkpt><trkpt lat="40.95830949348051" lon="8.878852450900158"><ele>42.0</ele><time>2026-05-02T09:19:43Z</time></trkpt><trkpt lat="40.958216361841316" lon="8.878732449067632"><ele>42.25</ele><time>2026-05-02T09:19:44Z</time></trkpt><trkpt lat="40.958133682868734" lon="8.878585382660177"><ele>42.5</ele><time>2026-05-02T09:19:45Z</time></trkpt><trkpt lat="40.958061007615214" lon="8.878413196219155"><ele>42.75</ele><time>2026-05-02T09:19:46Z</time></trkpt><trkpt lat="40.95799626566745" lon="8.878230221492093"><ele>43.0</ele><time>2026-05-02T09:19:47Z</time></trkpt><trkpt lat="40.95792943483985" lon="8.878043511125448"><ele>42.0</ele><time>2026-05-02T09:19:48Z</time></trkpt><trkpt lat="40.9578644805447" lon="8.87785774485985"><ele>41.0</ele><time>2026-05-02T09:19:49Z</time></trkpt><trkpt lat="40.9577973896035" lon="8.877664576408412"><ele>40.0</ele><time>2026-05-02T09:19:50Z</time></trkpt><trkpt lat="40.95773111771043" lon="8.877465897874794"><ele>39.333333333333336</ele><time>2026-05-02T09:19:51Z</time></trkpt><trkpt lat="40.95765697873585" lon="8.877260824038263"><ele>38.666666666666664</ele><time>2026-05-02T09:19:52Z</time></trkpt><trkpt lat="40.957581220321075" lon="8.87705261507962"><ele>38.0</ele><time>2026-05-02T09:19:53Z</time></trkpt><trkpt lat="40.95750371448745" lon="8.876833179077359"><ele>40.0</ele><time>2026-05-02T09:19:54Z</time></trkpt><trkpt lat="40.95741827381857" lon="8.876604883325928"><ele>42.0</ele><time>2026-05-02T09:19:55Z</time></trkpt><trkpt lat="40.95732981868581" lon="8.876380465781477"><ele>44.0</ele><time>2026-05-02T09:19:56Z</time></trkpt><trkpt lat="40.95724409500262" lon="8.876148606473741"><ele>43.666666666666664</ele><time>2026-05-02T09:19:57Z</time></trkpt><trkpt lat="40.95716352585115" lon="8.875890835136369"><ele>43.333333333333336</ele><time>2026-05-02T09:19:58Z</time></trkpt><trkpt lat="40.95707037668707" lon="8.875639616714736"><ele>43.0</ele><time>2026-05-02T09:19:59Z</time></trkpt><trkpt lat="40.95696940066043" lon="8.875405508029852"><ele>43.0</ele><time>2026-05-02T09:20:00Z</time></trkpt><trkpt lat="40.956863272361936" lon="8.87519254814387"><ele>43.0</ele><time>2026-05-02T09:20:01Z</time></trkpt><trkpt lat="40.95675171478361" lon="8.875004062248953"><ele>43.0</ele><time>2026-05-02T09:20:02Z</time></trkpt><trkpt lat="40.95660229049736" lon="8.874830608321426"><ele>42.66666666666667</ele><time>2026-05-02T09:20:03Z</time></trkpt><trkpt lat="40.95644040553028" lon="8.874677262509158"><ele>42.333333333333336</ele><time>2026-05-02T09:20:04Z</time></trkpt><trkpt lat="40.95626037958746" lon="8.874549191199671"><ele>42.0</ele><time>2026-05-02T09:20:05Z</time></trkpt><trkpt lat="40.956074234812256" lon="8.874433045916797"><ele>42.0</ele><time>2026-05-02T09:20:06Z</time></trkpt><trkpt lat="40.9558868187849" lon="8.874302274768585"><ele>42.0</ele><time>2026-05-02T09:20:07Z</time></trkpt><trkpt lat="40.95569603036305" lon="8.874161627007188"><ele>42.0</ele><time>2026-05-02T09:20:08Z</time></trkpt><trkpt lat="40.95551795903187" lon="8.874024756254059"><ele>38.666666666666664</ele><time>2026-05-02T09:20:09Z</time></trkpt><trkpt lat="40.95534149063491" lon="8.873896983860561"><ele>35.33333333333333</ele><time>2026-05-02T09:20:10Z</time></trkpt><trkpt lat="40.95516244991946" lon="8.873767190039546"><ele>32.0</ele><time>2026-05-02T09:20:11Z</time></trkpt><trkpt lat="40.954976437856466" lon="8.873631786455775"><ele>30.0</ele><time>2026-05-02T09:20:12Z</time></trkpt><trkpt lat="40.95478687232275" lon="8.873490925092854"><ele>28.0</ele><time>2026-05-02T09:20:13Z</time></trkpt><trkpt lat="40.954594658482876" lon="8.873346864100327"><ele>26.0</ele><time>2026-05-02T09:20:14Z</time></trkpt><trkpt lat="40.95439233777729" lon="8.873205257914357"><ele>25.666666666666664</ele><time>2026-05-02T09:20:15Z</time></trkpt><trkpt lat="40.95419561418216" lon="8.873063338033392"><ele>25.333333333333336</ele><time>2026-05-02T09:20:16Z</time></trkpt><trkpt lat="40.954001427578774" lon="8.872915979562388"><ele>25.0</ele><time>2026-05-02T09:20:17Z</time></trkpt><trkpt lat="40.953804742251165" lon="8.872771186914225"><ele>25.0</ele><time>2026-05-02T09:20:18Z</time></trkpt><trkpt lat="40.95360180616379" lon="8.872626609627396"><ele>25.0</ele><time>2026-05-02T09:20:19Z</time></trkpt><trkpt lat="40.95339456854854" lon="8.872469833648209"><ele>25.5</ele><time>2026-05-02T09:20:20Z</time></trkpt><trkpt lat="40.95318473306237" lon="8.87230997988529"><ele>26.0</ele><time>2026-05-02T09:20:21Z</time></trkpt><trkpt lat="40.95298044262381" lon="8.87215470528033"><ele>26.0</ele><time>2026-05-02T09:20:22Z</time></trkpt><trkpt lat="40.95276848347682" lon="8.871999682040745"><ele>26.0</ele><time>2026-05-02T09:20:23Z</time></trkpt><trkpt lat="40.952551199687555" lon="8.87184746808466"><ele>25.5</ele><time>2026-05-02T09:20:24Z</time></trkpt><trkpt lat="40.95233423229354" lon="8.871697514783307"><ele>25.0</ele><time>2026-05-02T09:20:25Z</time></trkpt><trkpt lat="40.95208355374272" lon="8.871520284309875"><ele>25.0</ele><time>2026-05-02T09:20:26Z</time></trkpt><trkpt lat="40.95180488464073" lon="8.87130727784666"><ele>25.0</ele><time>2026-05-02T09:20:27Z</time></trkpt><trkpt lat="40.95154412523186" lon="8.87109061701507"><ele>21.5</ele><time>2026-05-02T09:20:28Z</time></trkpt><trkpt lat="40.95129055600146" lon="8.870902853463553"><ele>18.0</ele><time>2026-05-02T09:20:29Z</time></trkpt><trkpt lat="40.95103524571378" lon="8.870720001133932"><ele>18.5</ele><time>2026-05-02T09:20:30Z</time></trkpt><trkpt lat="40.95078132142028" lon="8.870535597632902"><ele>19.0</ele><time>2026-05-02T09:20:31Z</time></trkpt><trkpt lat="40.95053413897888" lon="8.87035682489926"><ele>19.0</ele><time>2026-05-02T09:20:32Z</time></trkpt><trkpt lat="40.95029747555732" lon="8.870185540736129"><ele>19.0</ele><time>2026-05-02T09:20:33Z</time></trkpt><trkpt lat="40.9500495882337" lon="8.870019234338221"><ele>18.5</ele><time>2026-05-02T09:20:34Z</time></trkpt><trkpt lat="40.94979053401471" lon="8.869869166744"><ele>18.0</ele><time>2026-05-02T09:20:35Z</time></trkpt><trkpt lat="40.94951615434601" lon="8.869731693292637"><ele>18.0</ele><time>2026-05-02T09:20:36Z</time></trkpt><trkpt lat="40.94924372899979" lon="8.869599523610322"><ele>18.0</ele><time>2026-05-02T09:20:37Z</time></trkpt><trkpt lat="40.94896075752053" lon="8.869459775585618"><ele>17.5</ele><time>2026-05-02T09:20:38Z</time></trkpt><trkpt lat="40.94867210528091" lon="8.869320169564547"><ele>17.0</ele><time>2026-05-02T09:20:39Z</time></trkpt><trkpt lat="40.9483837373111" lon="8.86918171425324"><ele>15.5</ele><time>2026-05-02T09:20:40Z</time></trkpt><trkpt lat="40.94809772792589" lon="8.86903503123586"><ele>14.0</ele><time>2026-05-02T09:20:41Z</time></trkpt><trkpt lat="40.947809631621006" lon="8.868885287439149"><ele>12.5</ele><time>2026-05-02T09:20:42Z</time></trkpt><trkpt lat="40.947513485381464" lon="8.868738031586634"><ele>11.0</ele><time>2026-05-02T09:20:43Z</time></trkpt><trkpt lat="40.947226966166426" lon="8.868595568061345"><ele>11.0</ele><time>2026-05-02T09:20:44Z</time></trkpt><trkpt lat="40.94693216199481" lon="8.86845445166774"><ele>11.0</ele><time>2026-05-02T09:20:45Z</time></trkpt><trkpt lat="40.94664157736529" lon="8.868306047074679"><ele>10.0</ele><time>2026-05-02T09:20:46Z</time></trkpt><trkpt lat="40.94636657224242" lon="8.868163874309802"><ele>9.0</ele><time>2026-05-02T09:20:47Z</time></trkpt><trkpt lat="40.9460947798634" lon="8.868024677489869"><ele>9.0</ele><time>2026-05-02T09:20:48Z</time></trkpt><trkpt lat="40.94582282806031" lon="8.86789138288041"><ele>9.0</ele><time>2026-05-02T09:20:49Z</time></trkpt><trkpt lat="40.94554485749038" lon="8.86776700404026"><ele>9.0</ele><time>2026-05-02T09:20:50Z</time></trkpt><trkpt lat="40.94526486010269" lon="8.867670046365543"><ele>9.0</ele><time>2026-05-02T09:20:51Z</time></trkpt><trkpt lat="40.94498142984401" lon="8.867613627429868"><ele>8.5</ele><time>2026-05-02T09:20:52Z</time></trkpt><trkpt lat="40.94469037550949" lon="8.867597705804524"><ele>8.0</ele><time>2026-05-02T09:20:53Z</time></trkpt><trkpt lat="40.944407359068116" lon="8.86761132078486"><ele>9.0</ele><time>2026-05-02T09:20:54Z</time></trkpt><trkpt lat="40.94413222635083" lon="8.86765738748602"><ele>10.0</ele><time>2026-05-02T09:20:55Z</time></trkpt><trkpt lat="40.94386942973969" lon="8.867661006034778"><ele>10.0</ele><time>2026-05-02T09:20:56Z</time></trkpt><trkpt lat="40.94360441652992" lon="8.867618414162322"><ele>10.0</ele><time>2026-05-02T09:20:57Z</time></trkpt><trkpt lat="40.94334457794805" lon="8.867515640967937"><ele>7.5</ele><time>2026-05-02T09:20:58Z</time></trkpt><trkpt lat="40.94308193090139" lon="8.867349226999"><ele>5.0</ele><time>2026-05-02T09:20:59Z</time></trkpt><trkpt lat="40.94281798966816" lon="8.867141465441753"><ele>4.5</ele><time>2026-05-02T09:21:00Z</time></trkpt><trkpt lat="40.94253627033662" lon="8.866924496790684"><ele>4.0</ele><time>2026-05-02T09:21:01Z</time></trkpt><trkpt lat="40.94223566206399" lon="8.86671506916986"><ele>3.5</ele><time>2026-05-02T09:21:02Z</time></trkpt><trkpt lat="40.94190950305694" lon="8.866498637631283"><ele>3.0</ele><time>2026-05-02T09:21:03Z</time></trkpt><trkpt lat="40.94159967041147" lon="8.8662871691732"><ele>2.5</ele><time>2026-05-02T09:21:04Z</time></trkpt><trkpt lat="40.94131648285081" lon="8.866093422727586"><ele>2.0</ele><time>2026-05-02T09:21:05Z</time></trkpt><trkpt lat="40.94107098600937" lon="8.865921333087984"><ele>2.0</ele><time>2026-05-02T09:21:06Z</time></trkpt><trkpt lat="40.940862709727945" lon="8.865780075771422"><ele>2.0</ele><time>2026-05-02T09:21:07Z</time></trkpt><trkpt lat="40.94068695724282" lon="8.865668335113686"><ele>2.0</ele><time>2026-05-02T09:21:08Z</time></trkpt><trkpt lat="40.94056250722554" lon="8.865569189498444"><ele>1.9999999999999998</ele><time>2026-05-02T09:21:09Z</time></trkpt><trkpt lat="40.94046813550273" lon="8.865443659944754"><ele>2.0</ele><time>2026-05-02T09:21:10Z</time></trkpt><trkpt lat="40.940397282515335" lon="8.865361145335958"><ele>2.0</ele><time>2026-05-02T09:21:11Z</time></trkpt><trkpt lat="40.940331961005626" lon="8.865344951341038"><ele>2.0</ele><time>2026-05-02T09:21:12Z</time></trkpt><trkpt lat="40.940266008428104" lon="8.86536922682113"><ele>1.9999999999999998</ele><time>2026-05-02T09:21:13Z</time></trkpt><trkpt lat="40.94020448582772" lon="8.865407406439614"><ele>2.0</ele><time>2026-05-02T09:21:14Z</time></trkpt><trkpt lat="40.94008847957142" lon="8.865445475984163"><ele>2.0</ele><time>2026-05-02T09:21:16Z</time></trkpt><trkpt lat="40.940010907344735" lon="8.865425886061574"><ele>2.0</ele><time>2026-05-02T09:21:17Z</time></trkpt><trkpt lat="40.93994826404847" lon="8.865330503228234"><ele>2.0</ele><time>2026-05-02T09:21:18Z</time></trkpt><trkpt lat="40.93985036292209" lon="8.865280814926537"><ele>2.0</ele><time>2026-05-02T09:21:19Z</time></trkpt><trkpt lat="40.93973548562869" lon="8.865199012891015"><ele>2.0</ele><time>2026-05-02T09:21:20Z</time></trkpt><trkpt lat="40.939599907292305" lon="8.865112557239994"><ele>2.333333333333333</ele><time>2026-05-02T09:21:21Z</time></trkpt><trkpt lat="40.939436327190414" lon="8.865005104759549"><ele>2.6666666666666665</ele><time>2026-05-02T09:21:22Z</time></trkpt><trkpt lat="40.9392683197887" lon="8.864885322182388"><ele>3.0</ele><time>2026-05-02T09:21:23Z</time></trkpt><trkpt lat="40.93909373614771" lon="8.864764200620467"><ele>3.0</ele><time>2026-05-02T09:21:24Z</time></trkpt><trkpt lat="40.93891008748916" lon="8.86464486309424"><ele>3.0</ele><time>2026-05-02T09:21:25Z</time></trkpt><trkpt lat="40.938729769350836" lon="8.86451890905473"><ele>3.0</ele><time>2026-05-02T09:21:26Z</time></trkpt><trkpt lat="40.93854973611062" lon="8.864397059269047"><ele>2.3333333333333335</ele><time>2026-05-02T09:21:27Z</time></trkpt><trkpt lat="40.93837056543072" lon="8.864278105187305"><ele>1.6666666666666665</ele><time>2026-05-02T09:21:28Z</time></trkpt><trkpt lat="40.93819159424592" lon="8.86415455458726"><ele>1.0</ele><time>2026-05-02T09:21:29Z</time></trkpt><trkpt lat="40.93801019656042" lon="8.864029634732702"><ele>1.0</ele><time>2026-05-02T09:21:30Z</time></trkpt><trkpt lat="40.93782594983743" lon="8.863900813619885"><ele>1.0</ele><time>2026-05-02T09:21:31Z</time></trkpt><trkpt lat="40.93763331827642" lon="8.86377137129801"><ele>1.0</ele><time>2026-05-02T09:21:32Z</time></trkpt><trkpt lat="40.93743306487977" lon="8.86363818986063"><ele>2.5</ele><time>2026-05-02T09:21:33Z</time></trkpt><trkpt lat="40.93723378479634" lon="8.863506055313206"><ele>4.0</ele><time>2026-05-02T09:21:34Z</time></trkpt><trkpt lat="40.93703333857734" lon="8.863364344057782"><ele>4.0</ele><time>2026-05-02T09:21:35Z</time></trkpt><trkpt lat="40.936825427134046" lon="8.863222781684952"><ele>4.0</ele><time>2026-05-02T09:21:36Z</time></trkpt><trkpt lat="40.93661336057308" lon="8.863085269211394"><ele>8.5</ele><time>2026-05-02T09:21:37Z</time></trkpt><trkpt lat="40.93639283567918" lon="8.862944315275646"><ele>13.0</ele><time>2026-05-02T09:21:38Z</time></trkpt><trkpt lat="40.93617579420252" lon="8.86279992027998"><ele>13.0</ele><time>2026-05-02T09:21:39Z</time></trkpt><trkpt lat="40.935955424716056" lon="8.862652828586745"><ele>13.0</ele><time>2026-05-02T09:21:40Z</time></trkpt><trkpt lat="40.93574008540001" lon="8.862482569343534"><ele>13.0</ele><time>2026-05-02T09:21:41Z</time></trkpt><trkpt lat="40.935514492338875" lon="8.862347856818836"><ele>13.0</ele><time>2026-05-02T09:21:42Z</time></trkpt><trkpt lat="40.93529365632699" lon="8.862193632493964"><ele>13.0</ele><time>2026-05-02T09:21:43Z</time></trkpt><trkpt lat="40.93506580043894" lon="8.862038442810723"><ele>13.0</ele><time>2026-05-02T09:21:44Z</time></trkpt><trkpt lat="40.93483530403161" lon="8.861879318217314"><ele>11.0</ele><time>2026-05-02T09:21:45Z</time></trkpt><trkpt lat="40.934599448864056" lon="8.86172682024513"><ele>9.0</ele><time>2026-05-02T09:21:46Z</time></trkpt><trkpt lat="40.93437104905865" lon="8.861570630955978"><ele>11.0</ele><time>2026-05-02T09:21:47Z</time></trkpt><trkpt lat="40.93414071709046" lon="8.8614133928064"><ele>13.0</ele><time>2026-05-02T09:21:48Z</time></trkpt><trkpt lat="40.93390960736283" lon="8.861258185836348"><ele>13.0</ele><time>2026-05-02T09:21:49Z</time></trkpt><trkpt lat="40.93368078830084" lon="8.86110797793261"><ele>13.0</ele><time>2026-05-02T09:21:50Z</time></trkpt><trkpt lat="40.933445271239485" lon="8.860973740639352"><ele>11.0</ele><time>2026-05-02T09:21:51Z</time></trkpt><trkpt lat="40.93320809558142" lon="8.860829747099368"><ele>9.0</ele><time>2026-05-02T09:21:52Z</time></trkpt><trkpt lat="40.93296724559918" lon="8.860716127173326"><ele>9.0</ele><time>2026-05-02T09:21:53Z</time></trkpt><trkpt lat="40.932722910524504" lon="8.860601208967495"><ele>9.0</ele><time>2026-05-02T09:21:54Z</time></trkpt><trkpt lat="40.93248207399801" lon="8.860487936233609"><ele>12.0</ele><time>2026-05-02T09:21:55Z</time></trkpt><trkpt lat="40.9322356909635" lon="8.860372054761244"><ele>15.0</ele><time>2026-05-02T09:21:56Z</time></trkpt><trkpt lat="40.93199421610109" lon="8.860258481395448"><ele>15.0</ele><time>2026-05-02T09:21:57Z</time></trkpt><trkpt lat="40.931753474713354" lon="8.860145253004744"><ele>15.0</ele><time>2026-05-02T09:21:58Z</time></trkpt><trkpt lat="40.9315118913355" lon="8.860048113896115"><ele>9.5</ele><time>2026-05-02T09:21:59Z</time></trkpt><trkpt lat="40.93127873220042" lon="8.859904409088344"><ele>4.0</ele><time>2026-05-02T09:22:00Z</time></trkpt><trkpt lat="40.931041829593156" lon="8.859735860124166"><ele>3.5</ele><time>2026-05-02T09:22:01Z</time></trkpt><trkpt lat="40.93080778944128" lon="8.859546271357306"><ele>3.0</ele><time>2026-05-02T09:22:02Z</time></trkpt><trkpt lat="40.930589259711034" lon="8.859349994668563"><ele>2.5</ele><time>2026-05-02T09:22:03Z</time></trkpt><trkpt lat="40.93037840757085" lon="8.859148533596178"><ele>2.0</ele><time>2026-05-02T09:22:04Z</time></trkpt><trkpt lat="40.93016711361786" lon="8.858928169580713"><ele>2.0</ele><time>2026-05-02T09:22:05Z</time></trkpt><trkpt lat="40.929961390301536" lon="8.8586770451323"><ele>2.0</ele><time>2026-05-02T09:22:06Z</time></trkpt><trkpt lat="40.929761024043536" lon="8.85839895586718"><ele>2.0</ele><time>2026-05-02T09:22:07Z</time></trkpt><trkpt lat="40.929567380240464" lon="8.858106627720936"><ele>2.0</ele><time>2026-05-02T09:22:08Z</time></trkpt><trkpt lat="40.929369746483886" lon="8.857798647823964"><ele>3.0</ele><time>2026-05-02T09:22:09Z</time></trkpt><trkpt lat="40.92916595836668" lon="8.857483887033602"><ele>4.0</ele><time>2026-05-02T09:22:10Z</time></trkpt><trkpt lat="40.92896485442345" lon="8.857167891313985"><ele>4.0</ele><time>2026-05-02T09:22:11Z</time></trkpt><trkpt lat="40.92876088359701" lon="8.856853732102076"><ele>4.0</ele><time>2026-05-02T09:22:12Z</time></trkpt><trkpt lat="40.92855803035173" lon="8.856543125158359"><ele>4.0</ele><time>2026-05-02T09:22:13Z</time></trkpt><trkpt lat="40.92835527441072" lon="8.856226290915325"><ele>4.0</ele><time>2026-05-02T09:22:14Z</time></trkpt><trkpt lat="40.92815059979661" lon="8.855914578483917"><ele>4.0</ele><time>2026-05-02T09:22:15Z</time></trkpt><trkpt lat="40.927955108669366" lon="8.855609158043872"><ele>4.0</ele><time>2026-05-02T09:22:16Z</time></trkpt><trkpt lat="40.92776148194379" lon="8.855306792034925"><ele>4.0</ele><time>2026-05-02T09:22:17Z</time></trkpt><trkpt lat="40.92755304792208" lon="8.854990628925266"><ele>4.0</ele><time>2026-05-02T09:22:18Z</time></trkpt><trkpt lat="40.92733522643354" lon="8.854669397115495"><ele>4.0</ele><time>2026-05-02T09:22:19Z</time></trkpt><trkpt lat="40.927118065719064" lon="8.854327302752298"><ele>4.0</ele><time>2026-05-02T09:22:20Z</time></trkpt><trkpt lat="40.92690359620171" lon="8.853989239072012"><ele>3.5</ele><time>2026-05-02T09:22:21Z</time></trkpt><trkpt lat="40.92669565466979" lon="8.85365188441583"><ele>3.0</ele><time>2026-05-02T09:22:22Z</time></trkpt><trkpt lat="40.92648604461151" lon="8.853319805574937"><ele>3.0</ele><time>2026-05-02T09:22:23Z</time></trkpt><trkpt lat="40.926274489689646" lon="8.852992811382292"><ele>3.0</ele><time>2026-05-02T09:22:24Z</time></trkpt><trkpt lat="40.92605943717488" lon="8.852655724576962"><ele>4.0</ele><time>2026-05-02T09:22:25Z</time></trkpt><trkpt lat="40.92583984092039" lon="8.852308177769316"><ele>5.0</ele><time>2026-05-02T09:22:26Z</time></trkpt><trkpt lat="40.925617513854164" lon="8.851960433915545"><ele>4.0</ele><time>2026-05-02T09:22:27Z</time></trkpt><trkpt lat="40.92539519449802" lon="8.85161386568201"><ele>3.0</ele><time>2026-05-02T09:22:28Z</time></trkpt><trkpt lat="40.92516648869513" lon="8.851269906898048"><ele>3.5</ele><time>2026-05-02T09:22:29Z</time></trkpt><trkpt lat="40.92494832221461" lon="8.850925300400746"><ele>4.0</ele><time>2026-05-02T09:22:30Z</time></trkpt><trkpt lat="40.9247322927143" lon="8.850580674627475"><ele>4.0</ele><time>2026-05-02T09:22:31Z</time></trkpt><trkpt lat="40.924515763526635" lon="8.85023468314348"><ele>4.0</ele><time>2026-05-02T09:22:32Z</time></trkpt><trkpt lat="40.92430226723941" lon="8.84988992069439"><ele>4.5</ele><time>2026-05-02T09:22:33Z</time></trkpt><trkpt lat="40.92408418874322" lon="8.849546451372628"><ele>5.0</ele><time>2026-05-02T09:22:34Z</time></trkpt><trkpt lat="40.9238643728386" lon="8.849204607223417"><ele>4.0</ele><time>2026-05-02T09:22:35Z</time></trkpt><trkpt lat="40.92364156064491" lon="8.848862891873514"><ele>3.0</ele><time>2026-05-02T09:22:36Z</time></trkpt><trkpt lat="40.92342252953095" lon="8.848525698201067"><ele>3.0</ele><time>2026-05-02T09:22:37Z</time></trkpt><trkpt lat="40.92320409897447" lon="8.848187400557784"><ele>3.0</ele><time>2026-05-02T09:22:38Z</time></trkpt><trkpt lat="40.92298608420934" lon="8.847845814901051"><ele>3.0</ele><time>2026-05-02T09:22:39Z</time></trkpt><trkpt lat="40.922768375892765" lon="8.84750465758629"><ele>3.0</ele><time>2026-05-02T09:22:40Z</time></trkpt><trkpt lat="40.92254881451114" lon="8.847162597957634"><ele>3.0</ele><time>2026-05-02T09:22:41Z</time></trkpt><trkpt lat="40.92233136754225" lon="8.846821561765495"><ele>3.0</ele><time>2026-05-02T09:22:42Z</time></trkpt><trkpt lat="40.92211623061322" lon="8.846487713479393"><ele>3.0</ele><time>2026-05-02T09:22:43Z</time></trkpt><trkpt lat="40.92190070240834" lon="8.846152164805904"><ele>3.0</ele><time>2026-05-02T09:22:44Z</time></trkpt><trkpt lat="40.92168827272686" lon="8.845816540346403"><ele>4.5</ele><time>2026-05-02T09:22:45Z</time></trkpt><trkpt lat="40.921473300929314" lon="8.8454852974527"><ele>6.0</ele><time>2026-05-02T09:22:46Z</time></trkpt><trkpt lat="40.92126064842925" lon="8.845155507027572"><ele>4.5</ele><time>2026-05-02T09:22:47Z</time></trkpt><trkpt lat="40.92104683345027" lon="8.844826784209294"><ele>3.0</ele><time>2026-05-02T09:22:48Z</time></trkpt><trkpt lat="40.92083402439165" lon="8.844493480700782"><ele>3.5</ele><time>2026-05-02T09:22:49Z</time></trkpt><trkpt lat="40.920622123617036" lon="8.844156909429396"><ele>4.0</ele><time>2026-05-02T09:22:50Z</time></trkpt><trkpt lat="40.920423036745106" lon="8.84381910726832"><ele>4.0</ele><time>2026-05-02T09:22:51Z</time></trkpt><trkpt lat="40.92023860379947" lon="8.843478108285181"><ele>4.0</ele><time>2026-05-02T09:22:52Z</time></trkpt><trkpt lat="40.920070635880464" lon="8.84310983248973"><ele>4.0</ele><time>2026-05-02T09:22:53Z</time></trkpt><trkpt lat="40.919919414395615" lon="8.842737823466667"><ele>4.0</ele><time>2026-05-02T09:22:54Z</time></trkpt><trkpt lat="40.91977081193856" lon="8.842356567974454"><ele>4.0</ele><time>2026-05-02T09:22:55Z</time></trkpt><trkpt lat="40.91963080601343" lon="8.841973897243994"><ele>4.0</ele><time>2026-05-02T09:22:56Z</time></trkpt><trkpt lat="40.919502068540154" lon="8.841584218282936"><ele>5.0</ele><time>2026-05-02T09:22:57Z</time></trkpt><trkpt lat="40.91937484237122" lon="8.841191068612428"><ele>6.0</ele><time>2026-05-02T09:22:58Z</time></trkpt><trkpt lat="40.91924172450342" lon="8.84079603255505"><ele>10.5</ele><time>2026-05-02T09:22:59Z</time></trkpt><trkpt lat="40.91910759008854" lon="8.84041075534147"><ele>15.0</ele><time>2026-05-02T09:23:00Z</time></trkpt><trkpt lat="40.91897121147975" lon="8.8400141750311"><ele>16.0</ele><time>2026-05-02T09:23:01Z</time></trkpt><trkpt lat="40.91883966327386" lon="8.839619503988493"><ele>17.0</ele><time>2026-05-02T09:23:02Z</time></trkpt><trkpt lat="40.91870988280383" lon="8.839234564083295"><ele>17.0</ele><time>2026-05-02T09:23:03Z</time></trkpt><trkpt lat="40.918566153952284" lon="8.838839717233114"><ele>17.0</ele><time>2026-05-02T09:23:04Z</time></trkpt><trkpt lat="40.91843203973377" lon="8.838447131736253"><ele>22.0</ele><time>2026-05-02T09:23:05Z</time></trkpt><trkpt lat="40.91829744695" lon="8.838053793695448"><ele>27.0</ele><time>2026-05-02T09:23:06Z</time></trkpt><trkpt lat="40.9181624267268" lon="8.837661864867744"><ele>27.5</ele><time>2026-05-02T09:23:07Z</time></trkpt><trkpt lat="40.91803301940511" lon="8.837271454698259"><ele>28.0</ele><time>2026-05-02T09:23:08Z</time></trkpt><trkpt lat="40.91789223194698" lon="8.83687331999637"><ele>28.0</ele><time>2026-05-02T09:23:09Z</time></trkpt><trkpt lat="40.91775599761566" lon="8.83647503153129"><ele>28.0</ele><time>2026-05-02T09:23:10Z</time></trkpt><trkpt lat="40.91762239713033" lon="8.836078119968"><ele>32.0</ele><time>2026-05-02T09:23:11Z</time></trkpt><trkpt lat="40.91748667639542" lon="8.835682996204174"><ele>36.0</ele><time>2026-05-02T09:23:12Z</time></trkpt><trkpt lat="40.91735028009015" lon="8.835290613129954"><ele>37.5</ele><time>2026-05-02T09:23:13Z</time></trkpt><trkpt lat="40.91721217948216" lon="8.8348966749551"><ele>39.0</ele><time>2026-05-02T09:23:14Z</time></trkpt><trkpt lat="40.91707865550791" lon="8.834505952689469"><ele>39.0</ele><time>2026-05-02T09:23:15Z</time></trkpt><trkpt lat="40.91694350553071" lon="8.834108749915819"><ele>39.0</ele><time>2026-05-02T09:23:16Z</time></trkpt><trkpt lat="40.91680954323291" lon="8.833713751005684"><ele>42.5</ele><time>2026-05-02T09:23:17Z</time></trkpt><trkpt lat="40.91667491525672" lon="8.833316344709727"><ele>46.0</ele><time>2026-05-02T09:23:18Z</time></trkpt><trkpt lat="40.91653791009927" lon="8.8329231346146"><ele>45.0</ele><time>2026-05-02T09:23:19Z</time></trkpt><trkpt lat="40.9164056214063" lon="8.832536669916463"><ele>44.0</ele><time>2026-05-02T09:23:20Z</time></trkpt><trkpt lat="40.91627949206307" lon="8.83216147849079"><ele>44.0</ele><time>2026-05-02T09:23:21Z</time></trkpt><trkpt lat="40.91615712690233" lon="8.831804282944525"><ele>44.0</ele><time>2026-05-02T09:23:22Z</time></trkpt><trkpt lat="40.91603728267889" lon="8.831470827725422"><ele>44.0</ele><time>2026-05-02T09:23:23Z</time></trkpt><trkpt lat="40.91592172632149" lon="8.831153106767902"><ele>44.0</ele><time>2026-05-02T09:23:24Z</time></trkpt><trkpt lat="40.91581286425644" lon="8.830832356694813"><ele>46.5</ele><time>2026-05-02T09:23:25Z</time></trkpt><trkpt lat="40.91570612281998" lon="8.83052221609243"><ele>49.0</ele><time>2026-05-02T09:23:26Z</time></trkpt><trkpt lat="40.91560172189986" lon="8.83021333477039"><ele>49.0</ele><time>2026-05-02T09:23:27Z</time></trkpt><trkpt lat="40.915497208879486" lon="8.829905374640488"><ele>49.0</ele><time>2026-05-02T09:23:28Z</time></trkpt><trkpt lat="40.9153960558269" lon="8.829596677302053"><ele>50.5</ele><time>2026-05-02T09:23:29Z</time></trkpt><trkpt lat="40.915296421459786" lon="8.829288746162737"><ele>52.0</ele><time>2026-05-02T09:23:30Z</time></trkpt><trkpt lat="40.915192298906234" lon="8.828981387057958"><ele>52.0</ele><time>2026-05-02T09:23:31Z</time></trkpt><trkpt lat="40.91508308436075" lon="8.828670151574068"><ele>52.0</ele><time>2026-05-02T09:23:32Z</time></trkpt><trkpt lat="40.91497717504852" lon="8.828359442303796"><ele>53.5</ele><time>2026-05-02T09:23:33Z</time></trkpt><trkpt lat="40.914870414304445" lon="8.828043836551249"><ele>55.0</ele><time>2026-05-02T09:23:34Z</time></trkpt><trkpt lat="40.91475843438245" lon="8.827720469087213"><ele>53.5</ele><time>2026-05-02T09:23:35Z</time></trkpt><trkpt lat="40.91464681373795" lon="8.82740609692055"><ele>52.0</ele><time>2026-05-02T09:23:36Z</time></trkpt><trkpt lat="40.91452971944494" lon="8.827077167585784"><ele>45.5</ele><time>2026-05-02T09:23:37Z</time></trkpt><trkpt lat="40.91441047100789" lon="8.82674607571832"><ele>39.0</ele><time>2026-05-02T09:23:38Z</time></trkpt><trkpt lat="40.914291179164614" lon="8.826408762988038"><ele>34.0</ele><time>2026-05-02T09:23:39Z</time></trkpt><trkpt lat="40.914173665345096" lon="8.826061451948766"><ele>29.0</ele><time>2026-05-02T09:23:40Z</time></trkpt><trkpt lat="40.914054151986505" lon="8.825729655082498"><ele>25.5</ele><time>2026-05-02T09:23:41Z</time></trkpt><trkpt lat="40.913938167471905" lon="8.825395737380726"><ele>22.0</ele><time>2026-05-02T09:23:42Z</time></trkpt><trkpt lat="40.91382730239803" lon="8.825058894540105"><ele>21.0</ele><time>2026-05-02T09:23:43Z</time></trkpt><trkpt lat="40.91371162529745" lon="8.824725391952358"><ele>20.0</ele><time>2026-05-02T09:23:44Z</time></trkpt><trkpt lat="40.91358401742164" lon="8.824380453870985"><ele>19.5</ele><time>2026-05-02T09:23:45Z</time></trkpt><trkpt lat="40.913454081737854" lon="8.824015899764644"><ele>19.0</ele><time>2026-05-02T09:23:46Z</time></trkpt><trkpt lat="40.913325968413815" lon="8.82363584799166"><ele>22.0</ele><time>2026-05-02T09:23:47Z</time></trkpt><trkpt lat="40.91319506566147" lon="8.823233110339933"><ele>25.0</ele><time>2026-05-02T09:23:48Z</time></trkpt><trkpt lat="40.91306593702469" lon="8.822833306466922"><ele>25.0</ele><time>2026-05-02T09:23:49Z</time></trkpt><trkpt lat="40.912930103830256" lon="8.822428799537162"><ele>25.0</ele><time>2026-05-02T09:23:50Z</time></trkpt><trkpt lat="40.91279262354928" lon="8.822025494239998"><ele>26.5</ele><time>2026-05-02T09:23:51Z</time></trkpt><trkpt lat="40.912654767664215" lon="8.821629971938151"><ele>28.0</ele><time>2026-05-02T09:23:52Z</time></trkpt><trkpt lat="40.912519276913144" lon="8.821233084943056"><ele>35.5</ele><time>2026-05-02T09:23:53Z</time></trkpt><trkpt lat="40.91238470337974" lon="8.820838212980062"><ele>43.0</ele><time>2026-05-02T09:23:54Z</time></trkpt><trkpt lat="40.91225307298138" lon="8.820448976458794"><ele>43.5</ele><time>2026-05-02T09:23:55Z</time></trkpt><trkpt lat="40.912120872661966" lon="8.820060681994981"><ele>44.0</ele><time>2026-05-02T09:23:56Z</time></trkpt><trkpt lat="40.91198912189406" lon="8.81967879345625"><ele>44.5</ele><time>2026-05-02T09:23:57Z</time></trkpt><trkpt lat="40.91186583689194" lon="8.819315621825522"><ele>45.0</ele><time>2026-05-02T09:23:58Z</time></trkpt><trkpt lat="40.91174732363339" lon="8.818979623254108"><ele>47.0</ele><time>2026-05-02T09:23:59Z</time></trkpt><trkpt lat="40.911635627762045" lon="8.818657609470975"><ele>49.0</ele><time>2026-05-02T09:24:00Z</time></trkpt><trkpt lat="40.911528333364174" lon="8.818356666795927"><ele>49.0</ele><time>2026-05-02T09:24:01Z</time></trkpt><trkpt lat="40.911420943646604" lon="8.81805893686739"><ele>49.0</ele><time>2026-05-02T09:24:02Z</time></trkpt><trkpt lat="40.91130135056739" lon="8.817753296840497"><ele>49.0</ele><time>2026-05-02T09:24:03Z</time></trkpt><trkpt lat="40.91115878324517" lon="8.81744067981658"><ele>49.0</ele><time>2026-05-02T09:24:04Z</time></trkpt><trkpt lat="40.91099776567245" lon="8.817116294853694"><ele>48.5</ele><time>2026-05-02T09:24:05Z</time></trkpt><trkpt lat="40.91083183717582" lon="8.816772827956326"><ele>48.0</ele><time>2026-05-02T09:24:06Z</time></trkpt><trkpt lat="40.9106727465921" lon="8.81642015500967"><ele>48.0</ele><time>2026-05-02T09:24:07Z</time></trkpt><trkpt lat="40.910501552394685" lon="8.8160573690651"><ele>48.0</ele><time>2026-05-02T09:24:08Z</time></trkpt><trkpt lat="40.91032433926199" lon="8.815696602244149"><ele>50.5</ele><time>2026-05-02T09:24:09Z</time></trkpt><trkpt lat="40.91015050461789" lon="8.815338851033479"><ele>53.0</ele><time>2026-05-02T09:24:10Z</time></trkpt><trkpt lat="40.90997742895597" lon="8.814971712128713"><ele>55.0</ele><time>2026-05-02T09:24:11Z</time></trkpt><trkpt lat="40.90980102241275" lon="8.81461974692093"><ele>57.0</ele><time>2026-05-02T09:24:12Z</time></trkpt><trkpt lat="40.90962904049084" lon="8.814270421048775"><ele>57.5</ele><time>2026-05-02T09:24:13Z</time></trkpt><trkpt lat="40.90945571168857" lon="8.813914161593225"><ele>58.0</ele><time>2026-05-02T09:24:14Z</time></trkpt><trkpt lat="40.90928419445364" lon="8.813563206129983"><ele>61.0</ele><time>2026-05-02T09:24:15Z</time></trkpt><trkpt lat="40.909113824771865" lon="8.813213908715035"><ele>64.0</ele><time>2026-05-02T09:24:16Z</time></trkpt><trkpt lat="40.90894129764516" lon="8.812862378971662"><ele>65.5</ele><time>2026-05-02T09:24:17Z</time></trkpt><trkpt lat="40.908768940342156" lon="8.812510484263042"><ele>67.0</ele><time>2026-05-02T09:24:18Z</time></trkpt><trkpt lat="40.908596604277705" lon="8.812159656331549"><ele>66.5</ele><time>2026-05-02T09:24:19Z</time></trkpt><trkpt lat="40.90842802059798" lon="8.811807639630317"><ele>66.0</ele><time>2026-05-02T09:24:20Z</time></trkpt><trkpt lat="40.90825637853256" lon="8.811454354369772"><ele>66.0</ele><time>2026-05-02T09:24:21Z</time></trkpt><trkpt lat="40.908088991591434" lon="8.811112006222983"><ele>66.0</ele><time>2026-05-02T09:24:22Z</time></trkpt><trkpt lat="40.90792564466423" lon="8.810779295427045"><ele>66.5</ele><time>2026-05-02T09:24:23Z</time></trkpt><trkpt lat="40.90775853474523" lon="8.810437046991648"><ele>67.0</ele><time>2026-05-02T09:24:24Z</time></trkpt><trkpt lat="40.90760497247402" lon="8.810115621287913"><ele>64.0</ele><time>2026-05-02T09:24:25Z</time></trkpt><trkpt lat="40.907450975814484" lon="8.809800936292364"><ele>61.0</ele><time>2026-05-02T09:24:26Z</time></trkpt><trkpt lat="40.907303049046334" lon="8.809500712134675"><ele>61.0</ele><time>2026-05-02T09:24:27Z</time></trkpt><trkpt lat="40.90716860653812" lon="8.809222223523921"><ele>61.0</ele><time>2026-05-02T09:24:28Z</time></trkpt><trkpt lat="40.90703384945088" lon="8.8089530798183"><ele>61.0</ele><time>2026-05-02T09:24:29Z</time></trkpt><trkpt lat="40.906913890080205" lon="8.808701416420014"><ele>61.0</ele><time>2026-05-02T09:24:30Z</time></trkpt><trkpt lat="40.90679856149516" lon="8.808444146607911"><ele>59.666666666666664</ele><time>2026-05-02T09:24:31Z</time></trkpt><trkpt lat="40.90669426805643" lon="8.808211597451553"><ele>58.33333333333333</ele><time>2026-05-02T09:24:32Z</time></trkpt><trkpt lat="40.9066174034016" lon="8.80800470610577"><ele>57.0</ele><time>2026-05-02T09:24:33Z</time></trkpt><trkpt lat="40.906554556620385" lon="8.807798195002775"><ele>56.33333333333333</ele><time>2026-05-02T09:24:34Z</time></trkpt><trkpt lat="40.90649416301441" lon="8.807590396428129"><ele>55.666666666666664</ele><time>2026-05-02T09:24:35Z</time></trkpt><trkpt lat="40.90643476546929" lon="8.807365114306382"><ele>55.0</ele><time>2026-05-02T09:24:36Z</time></trkpt><trkpt lat="40.90637645734691" lon="8.807122179967012"><ele>55.0</ele><time>2026-05-02T09:24:37Z</time></trkpt><trkpt lat="40.90632169518462" lon="8.806861119464966"><ele>55.0</ele><time>2026-05-02T09:24:38Z</time></trkpt><trkpt lat="40.906278443903624" lon="8.806595820600359"><ele>55.0</ele><time>2026-05-02T09:24:39Z</time></trkpt><trkpt lat="40.90623860733552" lon="8.806314266769284"><ele>55.33333333333333</ele><time>2026-05-02T09:24:40Z</time></trkpt><trkpt lat="40.90620499556397" lon="8.806027283450792"><ele>55.66666666666667</ele><time>2026-05-02T09:24:41Z</time></trkpt><trkpt lat="40.906175127338194" lon="8.805743994926507"><ele>56.0</ele><time>2026-05-02T09:24:42Z</time></trkpt><trkpt lat="40.90613794577703" lon="8.805438354592026"><ele>59.5</ele><time>2026-05-02T09:24:43Z</time></trkpt><trkpt lat="40.906105218871325" lon="8.805124897297341"><ele>63.0</ele><time>2026-05-02T09:24:44Z</time></trkpt><trkpt lat="40.90607661307034" lon="8.80482316878985"><ele>63.0</ele><time>2026-05-02T09:24:45Z</time></trkpt><trkpt lat="40.90605057281591" lon="8.804543810551435"><ele>63.0</ele><time>2026-05-02T09:24:46Z</time></trkpt><trkpt lat="40.906022062213516" lon="8.80428698652329"><ele>63.0</ele><time>2026-05-02T09:24:47Z</time></trkpt><trkpt lat="40.90599387561428" lon="8.804020606457284"><ele>62.66666666666667</ele><time>2026-05-02T09:24:48Z</time></trkpt><trkpt lat="40.9059670414671" lon="8.803749214673168"><ele>62.333333333333336</ele><time>2026-05-02T09:24:49Z</time></trkpt><trkpt lat="40.90593730041242" lon="8.803478233540568"><ele>62.0</ele><time>2026-05-02T09:24:50Z</time></trkpt><trkpt lat="40.90590618010571" lon="8.803202161333369"><ele>62.0</ele><time>2026-05-02T09:24:51Z</time></trkpt><trkpt lat="40.90588119797679" lon="8.802945605710008"><ele>62.0</ele><time>2026-05-02T09:24:52Z</time></trkpt><trkpt lat="40.905854692347575" lon="8.802699796453247"><ele>62.0</ele><time>2026-05-02T09:24:53Z</time></trkpt><trkpt lat="40.9058282693802" lon="8.8024559903621"><ele>63.0</ele><time>2026-05-02T09:24:54Z</time></trkpt><trkpt lat="40.90579611723739" lon="8.802199266770208"><ele>64.0</ele><time>2026-05-02T09:24:55Z</time></trkpt><trkpt lat="40.90576016482032" lon="8.801907897538243"><ele>65.0</ele><time>2026-05-02T09:24:56Z</time></trkpt><trkpt lat="40.90571834291717" lon="8.80157815768555"><ele>65.5</ele><time>2026-05-02T09:24:57Z</time></trkpt><trkpt lat="40.905688819693985" lon="8.801250680414652"><ele>66.0</ele><time>2026-05-02T09:24:58Z</time></trkpt><trkpt lat="40.905664689388466" lon="8.80090843606006"><ele>68.0</ele><time>2026-05-02T09:24:59Z</time></trkpt><trkpt lat="40.905635241050476" lon="8.800568216026377"><ele>70.0</ele><time>2026-05-02T09:25:00Z</time></trkpt><trkpt lat="40.905598475722925" lon="8.80023506732513"><ele>71.5</ele><time>2026-05-02T09:25:01Z</time></trkpt><trkpt lat="40.90555858543348" lon="8.799895031294144"><ele>73.0</ele><time>2026-05-02T09:25:02Z</time></trkpt><trkpt lat="40.90552109198681" lon="8.79955186820691"><ele>75.0</ele><time>2026-05-02T09:25:03Z</time></trkpt><trkpt lat="40.90548665761552" lon="8.799204228056606"><ele>77.0</ele><time>2026-05-02T09:25:04Z</time></trkpt><trkpt lat="40.90545687512751" lon="8.798867924296925"><ele>77.0</ele><time>2026-05-02T09:25:05Z</time></trkpt><trkpt lat="40.905422533595676" lon="8.798522680011008"><ele>77.0</ele><time>2026-05-02T09:25:06Z</time></trkpt><trkpt lat="40.90538190770968" lon="8.798174685493958"><ele>79.0</ele><time>2026-05-02T09:25:07Z</time></trkpt><trkpt lat="40.90533107755618" lon="8.79781878124788"><ele>81.0</ele><time>2026-05-02T09:25:08Z</time></trkpt><trkpt lat="40.905263483562955" lon="8.79744186998217"><ele>80.5</ele><time>2026-05-02T09:25:09Z</time></trkpt><trkpt lat="40.905169413559975" lon="8.797061965921472"><ele>80.0</ele><time>2026-05-02T09:25:10Z</time></trkpt><trkpt lat="40.9050461256144" lon="8.796691704257936"><ele>80.0</ele><time>2026-05-02T09:25:11Z</time></trkpt><trkpt lat="40.90491496668511" lon="8.796337150148808"><ele>80.0</ele><time>2026-05-02T09:25:12Z</time></trkpt><trkpt lat="40.90477685165241" lon="8.795989069848847"><ele>81.5</ele><time>2026-05-02T09:25:13Z</time></trkpt><trkpt lat="40.90463465158259" lon="8.795645475485909"><ele>83.0</ele><time>2026-05-02T09:25:14Z</time></trkpt><trkpt lat="40.90449559553518" lon="8.795302961336473"><ele>83.0</ele><time>2026-05-02T09:25:15Z</time></trkpt><trkpt lat="40.9043644284069" lon="8.79497051435924"><ele>83.0</ele><time>2026-05-02T09:25:16Z</time></trkpt><trkpt lat="40.904235730034465" lon="8.794645227209339"><ele>77.0</ele><time>2026-05-02T09:25:17Z</time></trkpt><trkpt lat="40.904116662872475" lon="8.7943467397441"><ele>71.0</ele><time>2026-05-02T09:25:18Z</time></trkpt><trkpt lat="40.904018032356824" lon="8.794084934605435"><ele>71.0</ele><time>2026-05-02T09:25:19Z</time></trkpt><trkpt lat="40.90392489357661" lon="8.79384722140367"><ele>71.0</ele><time>2026-05-02T09:25:20Z</time></trkpt><trkpt lat="40.90383976155206" lon="8.7936277779885"><ele>71.0</ele><time>2026-05-02T09:25:21Z</time></trkpt><trkpt lat="40.90375961140564" lon="8.793444006074138"><ele>71.0</ele><time>2026-05-02T09:25:22.001Z</time></trkpt><trkpt lat="40.90369091063805" lon="8.793278029954896"><ele>71.0</ele><time>2026-05-02T09:25:23.001Z</time></trkpt><trkpt lat="40.903608135451755" lon="8.793073504636471"><ele>71.0</ele><time>2026-05-02T09:25:24.001Z</time></trkpt><trkpt lat="40.90351434077383" lon="8.792818129445932"><ele>71.0</ele><time>2026-05-02T09:25:25.001Z</time></trkpt><trkpt lat="40.90341608114085" lon="8.792546081562431"><ele>71.0</ele><time>2026-05-02T09:25:26.001Z</time></trkpt><trkpt lat="40.90331537682868" lon="8.792281666334349"><ele>71.0</ele><time>2026-05-02T09:25:27.001Z</time></trkpt><trkpt lat="40.90320795880735" lon="8.792016464210196"><ele>71.0</ele><time>2026-05-02T09:25:28.001Z</time></trkpt><trkpt lat="40.903103874334455" lon="8.791759939293371"><ele>71.0</ele><time>2026-05-02T09:25:29Z</time></trkpt><trkpt lat="40.90299615840936" lon="8.791495159253682"><ele>70.5</ele><time>2026-05-02T09:25:30Z</time></trkpt><trkpt lat="40.90288488786129" lon="8.79121573971861"><ele>70.0</ele><time>2026-05-02T09:25:31Z</time></trkpt><trkpt lat="40.90277016445174" lon="8.790944946366254"><ele>69.0</ele><time>2026-05-02T09:25:32Z</time></trkpt><trkpt lat="40.90266385266733" lon="8.790670763237085"><ele>68.0</ele><time>2026-05-02T09:25:33Z</time></trkpt><trkpt lat="40.90256819258714" lon="8.790413492327461"><ele>69.0</ele><time>2026-05-02T09:25:34Z</time></trkpt><trkpt lat="40.90248252876855" lon="8.79018275852235"><ele>70.0</ele><time>2026-05-02T09:25:35Z</time></trkpt><trkpt lat="40.90240575480273" lon="8.789982759987062"><ele>71.0</ele><time>2026-05-02T09:25:36Z</time></trkpt><trkpt lat="40.902343198829655" lon="8.789796440025532"><ele>71.0</ele><time>2026-05-02T09:25:37Z</time></trkpt><trkpt lat="40.90229368766194" lon="8.789619338986796"><ele>71.0</ele><time>2026-05-02T09:25:38Z</time></trkpt><trkpt lat="40.90225028501982" lon="8.789435802761052"><ele>71.0</ele><time>2026-05-02T09:25:39Z</time></trkpt><trkpt lat="40.90220922149046" lon="8.78924865601393"><ele>71.0</ele><time>2026-05-02T09:25:40Z</time></trkpt><trkpt lat="40.90216768680828" lon="8.789056493159519"><ele>71.33333333333334</ele><time>2026-05-02T09:25:41Z</time></trkpt><trkpt lat="40.90213442489605" lon="8.788856379332868"><ele>71.66666666666667</ele><time>2026-05-02T09:25:42Z</time></trkpt><trkpt lat="40.902106334703774" lon="8.788656427286314"><ele>72.0</ele><time>2026-05-02T09:25:43Z</time></trkpt><trkpt lat="40.902077490516014" lon="8.788450630676783"><ele>72.66666666666667</ele><time>2026-05-02T09:25:44Z</time></trkpt><trkpt lat="40.90205425782014" lon="8.788255133941195"><ele>73.33333333333334</ele><time>2026-05-02T09:25:45Z</time></trkpt><trkpt lat="40.902037738463456" lon="8.788061000056048"><ele>74.0</ele><time>2026-05-02T09:25:46Z</time></trkpt><trkpt lat="40.902030592407655" lon="8.787849724807991"><ele>75.0</ele><time>2026-05-02T09:25:47Z</time></trkpt><trkpt lat="40.90203172202615" lon="8.787631634679508"><ele>76.0</ele><time>2026-05-02T09:25:48Z</time></trkpt><trkpt lat="40.9020386302446" lon="8.787405308040595"><ele>77.0</ele><time>2026-05-02T09:25:49Z</time></trkpt><trkpt lat="40.90204981904151" lon="8.787182795577442"><ele>77.0</ele><time>2026-05-02T09:25:50Z</time></trkpt><trkpt lat="40.902062627144524" lon="8.786958200841982"><ele>77.0</ele><time>2026-05-02T09:25:51Z</time></trkpt><trkpt lat="40.90207649416275" lon="8.786723271235925"><ele>77.0</ele><time>2026-05-02T09:25:52Z</time></trkpt><trkpt lat="40.90209401246441" lon="8.786490265787032"><ele>78.0</ele><time>2026-05-02T09:25:53Z</time></trkpt><trkpt lat="40.90211095555558" lon="8.786261812810059"><ele>79.0</ele><time>2026-05-02T09:25:54Z</time></trkpt><trkpt lat="40.90212532088962" lon="8.78602987155912"><ele>80.0</ele><time>2026-05-02T09:25:55Z</time></trkpt><trkpt lat="40.902137800843306" lon="8.785794879799868"><ele>80.0</ele><time>2026-05-02T09:25:56Z</time></trkpt><trkpt lat="40.90215429428776" lon="8.785560185149736"><ele>80.0</ele><time>2026-05-02T09:25:57Z</time></trkpt><trkpt lat="40.90216921369932" lon="8.785322913968113"><ele>80.0</ele><time>2026-05-02T09:25:58Z</time></trkpt><trkpt lat="40.90218738294712" lon="8.785085398361218"><ele>81.0</ele><time>2026-05-02T09:25:59Z</time></trkpt><trkpt lat="40.902201644361256" lon="8.784824823761408"><ele>82.0</ele><time>2026-05-02T09:26:00Z</time></trkpt><trkpt lat="40.90222234956866" lon="8.784556860670248"><ele>83.0</ele><time>2026-05-02T09:26:01Z</time></trkpt><trkpt lat="40.90224428467625" lon="8.78428010736014"><ele>85.5</ele><time>2026-05-02T09:26:02Z</time></trkpt><trkpt lat="40.902266944282914" lon="8.783973434908797"><ele>88.0</ele><time>2026-05-02T09:26:03Z</time></trkpt><trkpt lat="40.90229197510898" lon="8.783640432584368"><ele>88.0</ele><time>2026-05-02T09:26:04Z</time></trkpt><trkpt lat="40.90229332834713" lon="8.78329369156812"><ele>88.0</ele><time>2026-05-02T09:26:05Z</time></trkpt><trkpt lat="40.90231749382733" lon="8.78293234553081"><ele>87.0</ele><time>2026-05-02T09:26:06Z</time></trkpt><trkpt lat="40.90235086143937" lon="8.782561659928328"><ele>86.0</ele><time>2026-05-02T09:26:07Z</time></trkpt><trkpt lat="40.90238946294112" lon="8.782204980615354"><ele>86.0</ele><time>2026-05-02T09:26:08Z</time></trkpt><trkpt lat="40.902419591459555" lon="8.781852704887344"><ele>86.0</ele><time>2026-05-02T09:26:09Z</time></trkpt><trkpt lat="40.902445081806164" lon="8.781503928351055"><ele>86.5</ele><time>2026-05-02T09:26:10Z</time></trkpt><trkpt lat="40.902473623191064" lon="8.781154993389718"><ele>87.0</ele><time>2026-05-02T09:26:11Z</time></trkpt><trkpt lat="40.902499444179625" lon="8.780804458043516"><ele>89.0</ele><time>2026-05-02T09:26:12Z</time></trkpt><trkpt lat="40.902526815528006" lon="8.78045154466479"><ele>91.0</ele><time>2026-05-02T09:26:13Z</time></trkpt><trkpt lat="40.9025530025698" lon="8.780094129058114"><ele>91.5</ele><time>2026-05-02T09:26:14Z</time></trkpt><trkpt lat="40.902579936022406" lon="8.779737431836605"><ele>92.0</ele><time>2026-05-02T09:26:15Z</time></trkpt><trkpt lat="40.90260523399138" lon="8.779379829562018"><ele>99.0</ele><time>2026-05-02T09:26:16Z</time></trkpt><trkpt lat="40.90262722723165" lon="8.779018446707452"><ele>106.0</ele><time>2026-05-02T09:26:17Z</time></trkpt><trkpt lat="40.902651197964985" lon="8.778648269334372"><ele>102.5</ele><time>2026-05-02T09:26:18Z</time></trkpt><trkpt lat="40.90267870156596" lon="8.778272946475665"><ele>99.0</ele><time>2026-05-02T09:26:19Z</time></trkpt><trkpt lat="40.90270531783692" lon="8.777891109742512"><ele>98.0</ele><time>2026-05-02T09:26:20Z</time></trkpt><trkpt lat="40.902726362731414" lon="8.777504322890687"><ele>97.0</ele><time>2026-05-02T09:26:21Z</time></trkpt><trkpt lat="40.90275844576058" lon="8.777109176021032"><ele>97.0</ele><time>2026-05-02T09:26:22Z</time></trkpt><trkpt lat="40.902789462309435" lon="8.776707262551307"><ele>97.0</ele><time>2026-05-02T09:26:23Z</time></trkpt><trkpt lat="40.902817755344074" lon="8.776301005511701"><ele>98.0</ele><time>2026-05-02T09:26:24Z</time></trkpt><trkpt lat="40.90284139065873" lon="8.775891376221011"><ele>99.0</ele><time>2026-05-02T09:26:25Z</time></trkpt><trkpt lat="40.902863456551586" lon="8.77548373060415"><ele>100.0</ele><time>2026-05-02T09:26:26Z</time></trkpt><trkpt lat="40.90287914701503" lon="8.77507470202051"><ele>101.0</ele><time>2026-05-02T09:26:27Z</time></trkpt><trkpt lat="40.902871079040956" lon="8.774662429868304"><ele>102.5</ele><time>2026-05-02T09:26:28Z</time></trkpt><trkpt lat="40.90284592654937" lon="8.774248411896298"><ele>104.0</ele><time>2026-05-02T09:26:29Z</time></trkpt><trkpt lat="40.90279947765393" lon="8.773875607163149"><ele>104.0</ele><time>2026-05-02T09:26:30Z</time></trkpt><trkpt lat="40.9027256129971" lon="8.773526516273954"><ele>104.0</ele><time>2026-05-02T09:26:31Z</time></trkpt><trkpt lat="40.902640709890555" lon="8.77318414129255"><ele>105.5</ele><time>2026-05-02T09:26:32Z</time></trkpt><trkpt lat="40.902540970966385" lon="8.772847772248397"><ele>107.0</ele><time>2026-05-02T09:26:33Z</time></trkpt><trkpt lat="40.90242837262465" lon="8.772514281223813"><ele>107.0</ele><time>2026-05-02T09:26:34Z</time></trkpt><trkpt lat="40.90229780934678" lon="8.772186193182288"><ele>107.0</ele><time>2026-05-02T09:26:35Z</time></trkpt><trkpt lat="40.902150944536764" lon="8.771870112358878"><ele>108.5</ele><time>2026-05-02T09:26:36Z</time></trkpt><trkpt lat="40.90198625088902" lon="8.771556288208414"><ele>110.0</ele><time>2026-05-02T09:26:37Z</time></trkpt><trkpt lat="40.90180430478942" lon="8.77124292408857"><ele>111.0</ele><time>2026-05-02T09:26:38Z</time></trkpt><trkpt lat="40.901599648498284" lon="8.770944068852643"><ele>112.0</ele><time>2026-05-02T09:26:39Z</time></trkpt><trkpt lat="40.901414335100604" lon="8.770631877691565"><ele>112.0</ele><time>2026-05-02T09:26:40Z</time></trkpt><trkpt lat="40.90122058558599" lon="8.770328773032295"><ele>112.0</ele><time>2026-05-02T09:26:41Z</time></trkpt><trkpt lat="40.90102750682483" lon="8.770027732628284"><ele>116.5</ele><time>2026-05-02T09:26:42Z</time></trkpt><trkpt lat="40.90082404070233" lon="8.76974308299079"><ele>121.0</ele><time>2026-05-02T09:26:43Z</time></trkpt><trkpt lat="40.900634780893995" lon="8.76944235783895"><ele>122.5</ele><time>2026-05-02T09:26:44Z</time></trkpt><trkpt lat="40.90044188082655" lon="8.769143973404876"><ele>124.0</ele><time>2026-05-02T09:26:45Z</time></trkpt><trkpt lat="40.900249393308464" lon="8.768847048901815"><ele>122.0</ele><time>2026-05-02T09:26:46Z</time></trkpt><trkpt lat="40.900069920677744" lon="8.768535343710806"><ele>120.0</ele><time>2026-05-02T09:26:47Z</time></trkpt><trkpt lat="40.8998763938486" lon="8.768235470528625"><ele>119.5</ele><time>2026-05-02T09:26:48Z</time></trkpt><trkpt lat="40.89968236302885" lon="8.767934917477236"><ele>119.0</ele><time>2026-05-02T09:26:49Z</time></trkpt><trkpt lat="40.89948890806753" lon="8.767635256427413"><ele>119.0</ele><time>2026-05-02T09:26:50Z</time></trkpt><trkpt lat="40.89929593022575" lon="8.767336334436184"><ele>119.0</ele><time>2026-05-02T09:26:51Z</time></trkpt><trkpt lat="40.89909916588337" lon="8.767031546621187"><ele>116.5</ele><time>2026-05-02T09:26:52Z</time></trkpt><trkpt lat="40.898900217530034" lon="8.76672337256973"><ele>114.0</ele><time>2026-05-02T09:26:53Z</time></trkpt><trkpt lat="40.89869702345835" lon="8.766411695029447"><ele>114.0</ele><time>2026-05-02T09:26:54Z</time></trkpt><trkpt lat="40.898470978159345" lon="8.76612510685528"><ele>114.0</ele><time>2026-05-02T09:26:55Z</time></trkpt><trkpt lat="40.89826708352398" lon="8.765809657265208"><ele>113.0</ele><time>2026-05-02T09:26:56Z</time></trkpt><trkpt lat="40.89806658226125" lon="8.76549059538223"><ele>112.0</ele><time>2026-05-02T09:26:57Z</time></trkpt><trkpt lat="40.89785770453767" lon="8.765173196837784"><ele>112.0</ele><time>2026-05-02T09:26:58Z</time></trkpt><trkpt lat="40.89765559675092" lon="8.764864574124537"><ele>112.0</ele><time>2026-05-02T09:26:59Z</time></trkpt><trkpt lat="40.897462568147226" lon="8.764575266435987"><ele>109.5</ele><time>2026-05-02T09:27:00Z</time></trkpt><trkpt lat="40.897278835473664" lon="8.76430116560639"><ele>107.0</ele><time>2026-05-02T09:27:01Z</time></trkpt><trkpt lat="40.897106110479704" lon="8.764038772339509"><ele>107.0</ele><time>2026-05-02T09:27:02Z</time></trkpt><trkpt lat="40.896938128644415" lon="8.763779768978436"><ele>107.0</ele><time>2026-05-02T09:27:03Z</time></trkpt><trkpt lat="40.89677135083315" lon="8.763520502297707"><ele>107.5</ele><time>2026-05-02T09:27:04Z</time></trkpt><trkpt lat="40.8966059992183" lon="8.763257248812241"><ele>108.0</ele><time>2026-05-02T09:27:05Z</time></trkpt><trkpt lat="40.8964394154492" lon="8.762992071437644"><ele>108.0</ele><time>2026-05-02T09:27:06Z</time></trkpt><trkpt lat="40.89627065530823" lon="8.76272647894474"><ele>108.0</ele><time>2026-05-02T09:27:07Z</time></trkpt><trkpt lat="40.8960955197569" lon="8.762459566348205"><ele>108.0</ele><time>2026-05-02T09:27:08Z</time></trkpt><trkpt lat="40.895922614166295" lon="8.762194409541857"><ele>108.0</ele><time>2026-05-02T09:27:09Z</time></trkpt><trkpt lat="40.89574337244586" lon="8.761922327720002"><ele>107.5</ele><time>2026-05-02T09:27:10Z</time></trkpt><trkpt lat="40.89556430476726" lon="8.761651425143402"><ele>107.0</ele><time>2026-05-02T09:27:11.001Z</time></trkpt><trkpt lat="40.8953840659381" lon="8.761371545587869"><ele>107.0</ele><time>2026-05-02T09:27:12.001Z</time></trkpt><trkpt lat="40.89520067762501" lon="8.761079295396174"><ele>107.0</ele><time>2026-05-02T09:27:13.001Z</time></trkpt><trkpt lat="40.895011157546854" lon="8.760793201917684"><ele>107.0</ele><time>2026-05-02T09:27:14.001Z</time></trkpt><trkpt lat="40.89482344707945" lon="8.760501058515443"><ele>107.0</ele><time>2026-05-02T09:27:15.001Z</time></trkpt><trkpt lat="40.89463547868728" lon="8.760208225208261"><ele>109.0</ele><time>2026-05-02T09:27:16.001Z</time></trkpt><trkpt lat="40.89444666211987" lon="8.759925405004088"><ele>111.0</ele><time>2026-05-02T09:27:17.001Z</time></trkpt><trkpt lat="40.89426051361327" lon="8.759640454761561"><ele>111.0</ele><time>2026-05-02T09:27:18.001Z</time></trkpt><trkpt lat="40.8940732569705" lon="8.759357128978642"><ele>111.0</ele><time>2026-05-02T09:27:19.001Z</time></trkpt><trkpt lat="40.89388536833378" lon="8.759077994694904"><ele>111.0</ele><time>2026-05-02T09:27:20.001Z</time></trkpt><trkpt lat="40.89369422782836" lon="8.758787540035922"><ele>111.0</ele><time>2026-05-02T09:27:21.001Z</time></trkpt><trkpt lat="40.89350603111273" lon="8.758492404661604"><ele>111.0</ele><time>2026-05-02T09:27:22.001Z</time></trkpt><trkpt lat="40.893319989780025" lon="8.758194815169746"><ele>111.0</ele><time>2026-05-02T09:27:23.001Z</time></trkpt><trkpt lat="40.8931356672334" lon="8.757902841984151"><ele>112.0</ele><time>2026-05-02T09:27:24.001Z</time></trkpt><trkpt lat="40.892947346021344" lon="8.757618671122511"><ele>113.0</ele><time>2026-05-02T09:27:25.001Z</time></trkpt><trkpt lat="40.892776156895806" lon="8.757318832662593"><ele>113.0</ele><time>2026-05-02T09:27:26.001Z</time></trkpt><trkpt lat="40.892617982360356" lon="8.757007729432923"><ele>113.0</ele><time>2026-05-02T09:27:27.001Z</time></trkpt><trkpt lat="40.892476299736806" lon="8.75667683797172"><ele>112.5</ele><time>2026-05-02T09:27:28.001Z</time></trkpt><trkpt lat="40.89235134466919" lon="8.756334175000697"><ele>112.0</ele><time>2026-05-02T09:27:29.001Z</time></trkpt><trkpt lat="40.8922339926654" lon="8.755986347102871"><ele>115.0</ele><time>2026-05-02T09:27:30.001Z</time></trkpt><trkpt lat="40.892129170560665" lon="8.755633060383328"><ele>118.0</ele><time>2026-05-02T09:27:31.001Z</time></trkpt><trkpt lat="40.892036833654934" lon="8.755273647196027"><ele>121.0</ele><time>2026-05-02T09:27:32.001Z</time></trkpt><trkpt lat="40.891962545264825" lon="8.75490480501446"><ele>124.0</ele><time>2026-05-02T09:27:33.001Z</time></trkpt><trkpt lat="40.89190680768329" lon="8.75453528305163"><ele>124.5</ele><time>2026-05-02T09:27:34.001Z</time></trkpt><trkpt lat="40.89186672530694" lon="8.754162513557777"><ele>125.0</ele><time>2026-05-02T09:27:35Z</time></trkpt><trkpt lat="40.89183909203462" lon="8.753792288407977"><ele>128.0</ele><time>2026-05-02T09:27:36Z</time></trkpt><trkpt lat="40.89181127486223" lon="8.753422460369684"><ele>131.0</ele><time>2026-05-02T09:27:37Z</time></trkpt><trkpt lat="40.89178509800559" lon="8.753044280609412"><ele>133.0</ele><time>2026-05-02T09:27:38Z</time></trkpt><trkpt lat="40.891756553103825" lon="8.752669091346842"><ele>135.0</ele><time>2026-05-02T09:27:39Z</time></trkpt><trkpt lat="40.891727311067655" lon="8.75229119696864"><ele>135.0</ele><time>2026-05-02T09:27:40Z</time></trkpt><trkpt lat="40.89169380557811" lon="8.751899537347652"><ele>135.0</ele><time>2026-05-02T09:27:41Z</time></trkpt><trkpt lat="40.891660979138024" lon="8.751510546876016"><ele>135.0</ele><time>2026-05-02T09:27:42Z</time></trkpt><trkpt lat="40.89162883707558" lon="8.751126840849844"><ele>135.0</ele><time>2026-05-02T09:27:43Z</time></trkpt><trkpt lat="40.89160291348633" lon="8.7507432625172"><ele>136.0</ele><time>2026-05-02T09:27:44Z</time></trkpt><trkpt lat="40.89158055885442" lon="8.750358429974996"><ele>137.0</ele><time>2026-05-02T09:27:45Z</time></trkpt><trkpt lat="40.89155126689929" lon="8.749966340921134"><ele>137.0</ele><time>2026-05-02T09:27:46Z</time></trkpt><trkpt lat="40.89151444655315" lon="8.749578399115482"><ele>137.0</ele><time>2026-05-02T09:27:47Z</time></trkpt><trkpt lat="40.891471776553544" lon="8.749190709432442"><ele>137.5</ele><time>2026-05-02T09:27:48Z</time></trkpt><trkpt lat="40.89141480332556" lon="8.748810513093376"><ele>138.0</ele><time>2026-05-02T09:27:49Z</time></trkpt><trkpt lat="40.891336662946735" lon="8.748446016831275"><ele>138.5</ele><time>2026-05-02T09:27:50Z</time></trkpt><trkpt lat="40.89123902854978" lon="8.748083878733139"><ele>139.0</ele><time>2026-05-02T09:27:51Z</time></trkpt><trkpt lat="40.89112720558942" lon="8.747720886988796"><ele>140.5</ele><time>2026-05-02T09:27:52Z</time></trkpt><trkpt lat="40.89100148047513" lon="8.747375586158606"><ele>142.0</ele><time>2026-05-02T09:27:53Z</time></trkpt><trkpt lat="40.890859468697194" lon="8.747037520952077"><ele>146.0</ele><time>2026-05-02T09:27:54Z</time></trkpt><trkpt lat="40.89070319412639" lon="8.746705529833084"><ele>150.0</ele><time>2026-05-02T09:27:55Z</time></trkpt><trkpt lat="40.89053181141846" lon="8.746391817873135"><ele>150.0</ele><time>2026-05-02T09:27:56Z</time></trkpt><trkpt lat="40.89034949871434" lon="8.74609004994874"><ele>150.0</ele><time>2026-05-02T09:27:57Z</time></trkpt><trkpt lat="40.89016333757766" lon="8.745807245967823"><ele>163.0</ele><time>2026-05-02T09:27:58Z</time></trkpt><trkpt lat="40.88996688705709" lon="8.745537612068576"><ele>176.0</ele><time>2026-05-02T09:27:59Z</time></trkpt><trkpt lat="40.88977830986784" lon="8.745279821151314"><ele>178.0</ele><time>2026-05-02T09:28:00Z</time></trkpt><trkpt lat="40.88958595079011" lon="8.7450122828976"><ele>180.0</ele><time>2026-05-02T09:28:01.019Z</time></trkpt><trkpt lat="40.88939861105314" lon="8.744749612068661"><ele>182.0</ele><time>2026-05-02T09:28:02.021Z</time></trkpt><trkpt lat="40.88921538167199" lon="8.744488258257928"><ele>184.0</ele><time>2026-05-02T09:28:03.031Z</time></trkpt><trkpt lat="40.88903124619344" lon="8.74422908218444"><ele>178.0</ele><time>2026-05-02T09:28:04.02Z</time></trkpt><trkpt lat="40.88814218998038" lon="8.742761621259845"><ele>174.0</ele><time>2026-05-02T09:28:11Z</time></trkpt><trkpt lat="40.8879826831059" lon="8.74251796350672"><ele>170.0</ele><time>2026-05-02T09:28:12Z</time></trkpt><trkpt lat="40.88780270174511" lon="8.742264675393042"><ele>170.0</ele><time>2026-05-02T09:28:13Z</time></trkpt><trkpt lat="40.88765363502743" lon="8.742001712683525"><ele>170.0</ele><time>2026-05-02T09:28:14Z</time></trkpt><trkpt lat="40.88751838608395" lon="8.74173258480997"><ele>163.0</ele><time>2026-05-02T09:28:15Z</time></trkpt><trkpt lat="40.88738998908318" lon="8.74145314720332"><ele>156.0</ele><time>2026-05-02T09:28:16Z</time></trkpt><trkpt lat="40.887280132698436" lon="8.741176769173927"><ele>154.0</ele><time>2026-05-02T09:28:17Z</time></trkpt><trkpt lat="40.887180270593994" lon="8.740903318000079"><ele>152.0</ele><time>2026-05-02T09:28:18Z</time></trkpt><trkpt lat="40.88708902779844" lon="8.740625476432728"><ele>152.0</ele><time>2026-05-02T09:28:19Z</time></trkpt><trkpt lat="40.88700351348141" lon="8.740336416991463"><ele>152.0</ele><time>2026-05-02T09:28:20Z</time></trkpt><trkpt lat="40.88692527925147" lon="8.740027847814947"><ele>152.5</ele><time>2026-05-02T09:28:21Z</time></trkpt><trkpt lat="40.88686147054142" lon="8.739707165588948"><ele>153.0</ele><time>2026-05-02T09:28:22Z</time></trkpt><trkpt lat="40.88680598825255" lon="8.739376297555765"><ele>147.5</ele><time>2026-05-02T09:28:23Z</time></trkpt><trkpt lat="40.88674845475772" lon="8.739040333564338"><ele>142.0</ele><time>2026-05-02T09:28:24Z</time></trkpt><trkpt lat="40.88669026508801" lon="8.73871754907955"><ele>142.5</ele><time>2026-05-02T09:28:25Z</time></trkpt><trkpt lat="40.886642404434774" lon="8.738407683821237"><ele>143.0</ele><time>2026-05-02T09:28:26Z</time></trkpt><trkpt lat="40.88659014141731" lon="8.738096432320397"><ele>143.0</ele><time>2026-05-02T09:28:27Z</time></trkpt><trkpt lat="40.88654571425912" lon="8.737788702441293"><ele>143.0</ele><time>2026-05-02T09:28:28Z</time></trkpt><trkpt lat="40.886504854055076" lon="8.737480988952193"><ele>141.0</ele><time>2026-05-02T09:28:29Z</time></trkpt><trkpt lat="40.88648157943581" lon="8.737180401129821"><ele>139.0</ele><time>2026-05-02T09:28:30Z</time></trkpt><trkpt lat="40.88648818146839" lon="8.736879052712197"><ele>136.5</ele><time>2026-05-02T09:28:31Z</time></trkpt><trkpt lat="40.88652028950791" lon="8.73658520475659"><ele>134.0</ele><time>2026-05-02T09:28:32Z</time></trkpt><trkpt lat="40.88657251738736" lon="8.73629467800772"><ele>131.66666666666666</ele><time>2026-05-02T09:28:33Z</time></trkpt><trkpt lat="40.8866295111721" lon="8.736014800989778"><ele>129.33333333333334</ele><time>2026-05-02T09:28:34Z</time></trkpt><trkpt lat="40.88670342650925" lon="8.735734247801638"><ele>127.0</ele><time>2026-05-02T09:28:35Z</time></trkpt><trkpt lat="40.88679290008605" lon="8.735447245429775"><ele>126.5</ele><time>2026-05-02T09:28:36Z</time></trkpt><trkpt lat="40.88689168304603" lon="8.735165539447786"><ele>126.0</ele><time>2026-05-02T09:28:37Z</time></trkpt><trkpt lat="40.886986150788935" lon="8.734884794006891"><ele>126.0</ele><time>2026-05-02T09:28:38Z</time></trkpt><trkpt lat="40.88707865277057" lon="8.734597284963384"><ele>126.0</ele><time>2026-05-02T09:28:39Z</time></trkpt><trkpt lat="40.88717267851379" lon="8.734307740819553"><ele>121.5</ele><time>2026-05-02T09:28:40Z</time></trkpt><trkpt lat="40.88726161140242" lon="8.734022457352879"><ele>117.0</ele><time>2026-05-02T09:28:41Z</time></trkpt><trkpt lat="40.88735296472399" lon="8.733730872726309"><ele>113.0</ele><time>2026-05-02T09:28:42Z</time></trkpt><trkpt lat="40.887443611937485" lon="8.733446213121496"><ele>109.0</ele><time>2026-05-02T09:28:43Z</time></trkpt><trkpt lat="40.887531201274726" lon="8.733169464030933"><ele>110.0</ele><time>2026-05-02T09:28:44Z</time></trkpt><trkpt lat="40.88762308494437" lon="8.732892300932212"><ele>111.0</ele><time>2026-05-02T09:28:45Z</time></trkpt><trkpt lat="40.8877115393257" lon="8.732609892474848"><ele>108.0</ele><time>2026-05-02T09:28:46Z</time></trkpt><trkpt lat="40.8878036266764" lon="8.732333569069105"><ele>105.0</ele><time>2026-05-02T09:28:47Z</time></trkpt><trkpt lat="40.88789357152462" lon="8.732065640743858"><ele>105.33333333333334</ele><time>2026-05-02T09:28:48Z</time></trkpt><trkpt lat="40.88796740600211" lon="8.731791257524893"><ele>105.66666666666667</ele><time>2026-05-02T09:28:49Z</time></trkpt><trkpt lat="40.88801673558589" lon="8.7315120398387"><ele>106.0</ele><time>2026-05-02T09:28:50Z</time></trkpt><trkpt lat="40.88805243041932" lon="8.731218226204302"><ele>105.66666666666667</ele><time>2026-05-02T09:28:51Z</time></trkpt><trkpt lat="40.88807786632992" lon="8.730925963977027"><ele>105.33333333333334</ele><time>2026-05-02T09:28:52Z</time></trkpt><trkpt lat="40.88808343931231" lon="8.73065369130047"><ele>105.0</ele><time>2026-05-02T09:28:53Z</time></trkpt><trkpt lat="40.888072921766145" lon="8.730386405469744"><ele>103.0</ele><time>2026-05-02T09:28:54Z</time></trkpt><trkpt lat="40.88804093015888" lon="8.730132872527781"><ele>101.0</ele><time>2026-05-02T09:28:55Z</time></trkpt><trkpt lat="40.88800354983364" lon="8.729881994280694"><ele>99.0</ele><time>2026-05-02T09:28:56Z</time></trkpt><trkpt lat="40.887948290610794" lon="8.729639592383181"><ele>99.0</ele><time>2026-05-02T09:28:57Z</time></trkpt><trkpt lat="40.88787353596387" lon="8.72940219312331"><ele>99.0</ele><time>2026-05-02T09:28:58Z</time></trkpt><trkpt lat="40.88777308331954" lon="8.729155072877422"><ele>99.0</ele><time>2026-05-02T09:28:59Z</time></trkpt><trkpt lat="40.887654575580136" lon="8.728893133211391"><ele>99.5</ele><time>2026-05-02T09:29:00Z</time></trkpt><trkpt lat="40.88751562739114" lon="8.728598940906128"><ele>100.0</ele><time>2026-05-02T09:29:01Z</time></trkpt><trkpt lat="40.887383834729626" lon="8.728289459940887"><ele>100.0</ele><time>2026-05-02T09:29:02Z</time></trkpt><trkpt lat="40.88727183167737" lon="8.72798940112857"><ele>100.0</ele><time>2026-05-02T09:29:03Z</time></trkpt><trkpt lat="40.887157802899985" lon="8.727662241718242"><ele>97.5</ele><time>2026-05-02T09:29:04Z</time></trkpt><trkpt lat="40.887048936820115" lon="8.727317058948405"><ele>95.0</ele><time>2026-05-02T09:29:05Z</time></trkpt><trkpt lat="40.8869589936731" lon="8.726944504407157"><ele>93.0</ele><time>2026-05-02T09:29:06Z</time></trkpt><trkpt lat="40.88688464057055" lon="8.726564837364222"><ele>91.0</ele><time>2026-05-02T09:29:07Z</time></trkpt><trkpt lat="40.88683079055518" lon="8.72618381394642"><ele>88.5</ele><time>2026-05-02T09:29:08Z</time></trkpt><trkpt lat="40.88679799285343" lon="8.72578221773979"><ele>86.0</ele><time>2026-05-02T09:29:09Z</time></trkpt><trkpt lat="40.88677978712791" lon="8.725380545791998"><ele>84.5</ele><time>2026-05-02T09:29:10Z</time></trkpt><trkpt lat="40.88678632387814" lon="8.724969570228671"><ele>83.0</ele><time>2026-05-02T09:29:11Z</time></trkpt><trkpt lat="40.886812325595095" lon="8.724555007262492"><ele>82.0</ele><time>2026-05-02T09:29:12Z</time></trkpt><trkpt lat="40.886860051280586" lon="8.72413611129472"><ele>81.0</ele><time>2026-05-02T09:29:13Z</time></trkpt><trkpt lat="40.8869351542701" lon="8.723713244515483"><ele>83.0</ele><time>2026-05-02T09:29:14Z</time></trkpt><trkpt lat="40.887035970265735" lon="8.723292726893357"><ele>85.0</ele><time>2026-05-02T09:29:15.001Z</time></trkpt><trkpt lat="40.88715895165651" lon="8.722875117533238"><ele>88.5</ele><time>2026-05-02T09:29:16.001Z</time></trkpt><trkpt lat="40.88731252838312" lon="8.722465958830309"><ele>92.0</ele><time>2026-05-02T09:29:17.001Z</time></trkpt><trkpt lat="40.887494040040195" lon="8.722075710440212"><ele>93.0</ele><time>2026-05-02T09:29:18.001Z</time></trkpt><trkpt lat="40.887696127242606" lon="8.721669608768634"><ele>94.0</ele><time>2026-05-02T09:29:19.001Z</time></trkpt><trkpt lat="40.88789570340101" lon="8.721240434083375"><ele>94.0</ele><time>2026-05-02T09:29:20.001Z</time></trkpt><trkpt lat="40.8880815362042" lon="8.720827672703114"><ele>94.0</ele><time>2026-05-02T09:29:21.001Z</time></trkpt><trkpt lat="40.888252586586084" lon="8.720446792181082"><ele>93.0</ele><time>2026-05-02T09:29:22.001Z</time></trkpt><trkpt lat="40.88842501432705" lon="8.720077121665573"><ele>92.0</ele><time>2026-05-02T09:29:23.001Z</time></trkpt><trkpt lat="40.88859399014077" lon="8.719710902116757"><ele>85.0</ele><time>2026-05-02T09:29:24.001Z</time></trkpt><trkpt lat="40.88875981097465" lon="8.719344107517992"><ele>78.0</ele><time>2026-05-02T09:29:25.001Z</time></trkpt><trkpt lat="40.8889334056156" lon="8.719001371124735"><ele>78.0</ele><time>2026-05-02T09:29:26.001Z</time></trkpt><trkpt lat="40.88911456193046" lon="8.718684765723962"><ele>78.0</ele><time>2026-05-02T09:29:27.001Z</time></trkpt><trkpt lat="40.88929068238067" lon="8.718392595211812"><ele>73.5</ele><time>2026-05-02T09:29:28.001Z</time></trkpt><trkpt lat="40.889468221779595" lon="8.71811905536221"><ele>69.0</ele><time>2026-05-02T09:29:29.001Z</time></trkpt><trkpt lat="40.88964759103614" lon="8.717849172354022"><ele>74.5</ele><time>2026-05-02T09:29:30.001Z</time></trkpt><trkpt lat="40.889835219003764" lon="8.717587029829168"><ele>80.0</ele><time>2026-05-02T09:29:31.001Z</time></trkpt><trkpt lat="40.89001918680778" lon="8.717327649979936"><ele>73.0</ele><time>2026-05-02T09:29:32.001Z</time></trkpt><trkpt lat="40.89019770305221" lon="8.717051055736261"><ele>66.0</ele><time>2026-05-02T09:29:33.001Z</time></trkpt><trkpt lat="40.89037684312089" lon="8.71676929403159"><ele>66.0</ele><time>2026-05-02T09:29:34.001Z</time></trkpt><trkpt lat="40.89056174635358" lon="8.716500095674622"><ele>66.0</ele><time>2026-05-02T09:29:35.001Z</time></trkpt><trkpt lat="40.890743067160614" lon="8.716227029186086"><ele>72.5</ele><time>2026-05-02T09:29:36.001Z</time></trkpt><trkpt lat="40.89092256835894" lon="8.715961653427776"><ele>79.0</ele><time>2026-05-02T09:29:37.001Z</time></trkpt><trkpt lat="40.89109552158388" lon="8.715702928023303"><ele>74.0</ele><time>2026-05-02T09:29:38.001Z</time></trkpt><trkpt lat="40.8912569458269" lon="8.715462775236622"><ele>69.0</ele><time>2026-05-02T09:29:39.001Z</time></trkpt><trkpt lat="40.89141136719235" lon="8.715227341500752"><ele>69.0</ele><time>2026-05-02T09:29:40.001Z</time></trkpt><trkpt lat="40.891563285631" lon="8.714993041762956"><ele>69.0</ele><time>2026-05-02T09:29:41Z</time></trkpt><trkpt lat="40.89171859856804" lon="8.714767514931749"><ele>65.0</ele><time>2026-05-02T09:29:42Z</time></trkpt><trkpt lat="40.891859020652554" lon="8.714541462824998"><ele>61.0</ele><time>2026-05-02T09:29:43Z</time></trkpt><trkpt lat="40.89198984640404" lon="8.714292784520289"><ele>61.0</ele><time>2026-05-02T09:29:44Z</time></trkpt><trkpt lat="40.89210836959706" lon="8.714010643913634"><ele>61.0</ele><time>2026-05-02T09:29:45Z</time></trkpt><trkpt lat="40.89220469917602" lon="8.713719761770776"><ele>63.0</ele><time>2026-05-02T09:29:46Z</time></trkpt><trkpt lat="40.89228182576331" lon="8.713411786170719"><ele>65.0</ele><time>2026-05-02T09:29:47Z</time></trkpt><trkpt lat="40.892340452798095" lon="8.713086681769072"><ele>65.0</ele><time>2026-05-02T09:29:48Z</time></trkpt><trkpt lat="40.892371465610864" lon="8.71275207152834"><ele>65.0</ele><time>2026-05-02T09:29:49Z</time></trkpt><trkpt lat="40.89238099125143" lon="8.712403412797485"><ele>65.0</ele><time>2026-05-02T09:29:50Z</time></trkpt><trkpt lat="40.892388967361136" lon="8.712054134415942"><ele>65.0</ele><time>2026-05-02T09:29:51Z</time></trkpt><trkpt lat="40.892400912969414" lon="8.711699964902053"><ele>62.5</ele><time>2026-05-02T09:29:52Z</time></trkpt><trkpt lat="40.8924174939323" lon="8.711342211258469"><ele>60.0</ele><time>2026-05-02T09:29:53Z</time></trkpt><trkpt lat="40.89243414180082" lon="8.710981802640426"><ele>60.0</ele><time>2026-05-02T09:29:54Z</time></trkpt><trkpt lat="40.89245271402486" lon="8.710623344804027"><ele>60.0</ele><time>2026-05-02T09:29:55Z</time></trkpt><trkpt lat="40.89246799105169" lon="8.710267761808478"><ele>58.5</ele><time>2026-05-02T09:29:56Z</time></trkpt><trkpt lat="40.892484854289464" lon="8.709915340373275"><ele>57.0</ele><time>2026-05-02T09:29:57Z</time></trkpt><trkpt lat="40.89250300960516" lon="8.709570863414086"><ele>55.5</ele><time>2026-05-02T09:29:58Z</time></trkpt><trkpt lat="40.89251940886864" lon="8.7092328062893"><ele>54.0</ele><time>2026-05-02T09:29:59Z</time></trkpt><trkpt lat="40.89253475060577" lon="8.708903335100318"><ele>56.0</ele><time>2026-05-02T09:30:00Z</time></trkpt><trkpt lat="40.8925510279802" lon="8.708575847443292"><ele>58.0</ele><time>2026-05-02T09:30:01Z</time></trkpt><trkpt lat="40.89257145100209" lon="8.708259353493583"><ele>58.0</ele><time>2026-05-02T09:30:02Z</time></trkpt><trkpt lat="40.89258821004995" lon="8.707943921434632"><ele>58.0</ele><time>2026-05-02T09:30:03Z</time></trkpt><trkpt lat="40.89261036131494" lon="8.707626386684456"><ele>63.0</ele><time>2026-05-02T09:30:04Z</time></trkpt><trkpt lat="40.892652228678756" lon="8.707309503472603"><ele>68.0</ele><time>2026-05-02T09:30:05Z</time></trkpt><trkpt lat="40.89269086805142" lon="8.70697825645224"><ele>70.5</ele><time>2026-05-02T09:30:06Z</time></trkpt><trkpt lat="40.89273906202648" lon="8.706678216707282"><ele>73.0</ele><time>2026-05-02T09:30:07Z</time></trkpt><trkpt lat="40.892794219699184" lon="8.706375022799426"><ele>73.0</ele><time>2026-05-02T09:30:08Z</time></trkpt><trkpt lat="40.89284658712796" lon="8.706081978000698"><ele>73.0</ele><time>2026-05-02T09:30:09Z</time></trkpt><trkpt lat="40.89290566205579" lon="8.70578609022624"><ele>73.0</ele><time>2026-05-02T09:30:10Z</time></trkpt><trkpt lat="40.89298621181276" lon="8.70546891455405"><ele>73.0</ele><time>2026-05-02T09:30:11Z</time></trkpt><trkpt lat="40.89306119587564" lon="8.705134916049138"><ele>73.0</ele><time>2026-05-02T09:30:12Z</time></trkpt><trkpt lat="40.89313694937491" lon="8.70482641243819"><ele>73.0</ele><time>2026-05-02T09:30:13Z</time></trkpt><trkpt lat="40.893210043881155" lon="8.704540537705242"><ele>71.0</ele><time>2026-05-02T09:30:14Z</time></trkpt><trkpt lat="40.89328006884638" lon="8.704247063141725"><ele>69.0</ele><time>2026-05-02T09:30:15Z</time></trkpt><trkpt lat="40.89334979592722" lon="8.703956812498586"><ele>69.0</ele><time>2026-05-02T09:30:16Z</time></trkpt><trkpt lat="40.89341455788005" lon="8.703659889398402"><ele>69.0</ele><time>2026-05-02T09:30:17Z</time></trkpt><trkpt lat="40.89347229586548" lon="8.703355878458762"><ele>69.5</ele><time>2026-05-02T09:30:18Z</time></trkpt><trkpt lat="40.89351593943563" lon="8.703041381004832"><ele>70.0</ele><time>2026-05-02T09:30:19Z</time></trkpt><trkpt lat="40.893542746221655" lon="8.70272353221585"><ele>70.0</ele><time>2026-05-02T09:30:20Z</time></trkpt><trkpt lat="40.89355229124763" lon="8.702398803285357"><ele>70.0</ele><time>2026-05-02T09:30:21Z</time></trkpt><trkpt lat="40.893562837357486" lon="8.702067114480066"><ele>68.5</ele><time>2026-05-02T09:30:22Z</time></trkpt><trkpt lat="40.893563376495244" lon="8.701730384157917"><ele>67.0</ele><time>2026-05-02T09:30:23Z</time></trkpt><trkpt lat="40.89355856062764" lon="8.701390802013847"><ele>65.5</ele><time>2026-05-02T09:30:24Z</time></trkpt><trkpt lat="40.89355935179817" lon="8.701044743968295"><ele>64.0</ele><time>2026-05-02T09:30:25Z</time></trkpt><trkpt lat="40.893559602974385" lon="8.70069379167658"><ele>64.0</ele><time>2026-05-02T09:30:26Z</time></trkpt><trkpt lat="40.893559594373265" lon="8.700340321754991"><ele>64.0</ele><time>2026-05-02T09:30:27Z</time></trkpt><trkpt lat="40.8935635690051" lon="8.699985135911335"><ele>64.0</ele><time>2026-05-02T09:30:28Z</time></trkpt><trkpt lat="40.893565255332774" lon="8.699617242684209"><ele>64.0</ele><time>2026-05-02T09:30:29Z</time></trkpt><trkpt lat="40.893562358708444" lon="8.699252799830159"><ele>63.0</ele><time>2026-05-02T09:30:30Z</time></trkpt><trkpt lat="40.89356222839372" lon="8.698884562551559"><ele>62.0</ele><time>2026-05-02T09:30:31Z</time></trkpt><trkpt lat="40.893562200138675" lon="8.69851394255158"><ele>60.5</ele><time>2026-05-02T09:30:32Z</time></trkpt><trkpt lat="40.893557988306746" lon="8.698136791270251"><ele>59.0</ele><time>2026-05-02T09:30:33Z</time></trkpt><trkpt lat="40.89355503356594" lon="8.697758585344284"><ele>59.5</ele><time>2026-05-02T09:30:34Z</time></trkpt><trkpt lat="40.89355439871823" lon="8.697379454686839"><ele>60.0</ele><time>2026-05-02T09:30:35Z</time></trkpt><trkpt lat="40.893557422880264" lon="8.697005986134425"><ele>58.0</ele><time>2026-05-02T09:30:36Z</time></trkpt><trkpt lat="40.893557790792535" lon="8.696618973125812"><ele>56.0</ele><time>2026-05-02T09:30:37Z</time></trkpt><trkpt lat="40.89355860586052" lon="8.69624124810743"><ele>51.0</ele><time>2026-05-02T09:30:38Z</time></trkpt><trkpt lat="40.893557840382805" lon="8.69586624970343"><ele>46.0</ele><time>2026-05-02T09:30:39Z</time></trkpt><trkpt lat="40.89355953398405" lon="8.695513533359646"><ele>43.5</ele><time>2026-05-02T09:30:40Z</time></trkpt><trkpt lat="40.89355998017624" lon="8.695161675963075"><ele>41.0</ele><time>2026-05-02T09:30:41Z</time></trkpt><trkpt lat="40.8935570459581" lon="8.69481534250643"><ele>41.0</ele><time>2026-05-02T09:30:42Z</time></trkpt><trkpt lat="40.893557211160235" lon="8.694478976425856"><ele>41.0</ele><time>2026-05-02T09:30:43Z</time></trkpt><trkpt lat="40.89355610294302" lon="8.694144510611157"><ele>43.5</ele><time>2026-05-02T09:30:44Z</time></trkpt><trkpt lat="40.8935452344542" lon="8.69381242600493"><ele>46.0</ele><time>2026-05-02T09:30:45Z</time></trkpt><trkpt lat="40.89351498256521" lon="8.693489970864842"><ele>49.5</ele><time>2026-05-02T09:30:46Z</time></trkpt><trkpt lat="40.893457461061125" lon="8.693169647719792"><ele>53.0</ele><time>2026-05-02T09:30:47Z</time></trkpt><trkpt lat="40.8933824234954" lon="8.69285670576647"><ele>61.0</ele><time>2026-05-02T09:30:48Z</time></trkpt><trkpt lat="40.893293405864" lon="8.692558008414448"><ele>69.0</ele><time>2026-05-02T09:30:49Z</time></trkpt><trkpt lat="40.893183347380166" lon="8.69227140910552"><ele>69.0</ele><time>2026-05-02T09:30:50Z</time></trkpt><trkpt lat="40.893051355042005" lon="8.69199157785158"><ele>69.0</ele><time>2026-05-02T09:30:51Z</time></trkpt><trkpt lat="40.89290102152729" lon="8.691719811024702"><ele>64.0</ele><time>2026-05-02T09:30:52Z</time></trkpt><trkpt lat="40.8927257922565" lon="8.691459545299079"><ele>59.0</ele><time>2026-05-02T09:30:53Z</time></trkpt><trkpt lat="40.89253668007942" lon="8.69121241064261"><ele>64.0</ele><time>2026-05-02T09:30:54Z</time></trkpt><trkpt lat="40.89233921951537" lon="8.690972182786176"><ele>69.0</ele><time>2026-05-02T09:30:55Z</time></trkpt><trkpt lat="40.892133282376136" lon="8.690735153670367"><ele>69.0</ele><time>2026-05-02T09:30:56Z</time></trkpt><trkpt lat="40.8919190298841" lon="8.690499850252522"><ele>69.0</ele><time>2026-05-02T09:30:57Z</time></trkpt><trkpt lat="40.891704665029884" lon="8.690256851130307"><ele>67.0</ele><time>2026-05-02T09:30:58Z</time></trkpt><trkpt lat="40.891496181408236" lon="8.690012438843999"><ele>65.0</ele><time>2026-05-02T09:30:59Z</time></trkpt><trkpt lat="40.89128204865892" lon="8.689762438750913"><ele>65.0</ele><time>2026-05-02T09:31:00Z</time></trkpt><trkpt lat="40.89107978051803" lon="8.689530073042663"><ele>65.0</ele><time>2026-05-02T09:31:01Z</time></trkpt><trkpt lat="40.89089285032794" lon="8.6893137500735"><ele>63.0</ele><time>2026-05-02T09:31:02Z</time></trkpt><trkpt lat="40.8907190948847" lon="8.689111051836631"><ele>61.0</ele><time>2026-05-02T09:31:03Z</time></trkpt><trkpt lat="40.89055034284198" lon="8.688911038541246"><ele>61.0</ele><time>2026-05-02T09:31:04Z</time></trkpt><trkpt lat="40.89038513737232" lon="8.688713370446488"><ele>61.0</ele><time>2026-05-02T09:31:05Z</time></trkpt><trkpt lat="40.890223811490046" lon="8.688521844155737"><ele>61.0</ele><time>2026-05-02T09:31:06Z</time></trkpt><trkpt lat="40.890055611753276" lon="8.688336063960687"><ele>67.66666666666666</ele><time>2026-05-02T09:31:07Z</time></trkpt><trkpt lat="40.88989062704924" lon="8.688146669413074"><ele>74.33333333333333</ele><time>2026-05-02T09:31:08Z</time></trkpt><trkpt lat="40.8897181263709" lon="8.68795189438709"><ele>81.0</ele><time>2026-05-02T09:31:09Z</time></trkpt><trkpt lat="40.8895437917073" lon="8.687746769176039"><ele>84.5</ele><time>2026-05-02T09:31:10Z</time></trkpt><trkpt lat="40.889369481009" lon="8.687535738655393"><ele>88.0</ele><time>2026-05-02T09:31:11Z</time></trkpt><trkpt lat="40.88919481876671" lon="8.687325503985234"><ele>88.5</ele><time>2026-05-02T09:31:12Z</time></trkpt><trkpt lat="40.88901736588867" lon="8.687116128061543"><ele>89.0</ele><time>2026-05-02T09:31:13Z</time></trkpt><trkpt lat="40.888842723320316" lon="8.686901916960686"><ele>92.0</ele><time>2026-05-02T09:31:14Z</time></trkpt><trkpt lat="40.88868668922753" lon="8.68666018127419"><ele>95.0</ele><time>2026-05-02T09:31:15Z</time></trkpt><trkpt lat="40.88854050839326" lon="8.686411869388422"><ele>95.0</ele><time>2026-05-02T09:31:16Z</time></trkpt><trkpt lat="40.888404198881055" lon="8.686160605167794"><ele>95.0</ele><time>2026-05-02T09:31:17Z</time></trkpt><trkpt lat="40.888276911120606" lon="8.685895839329406"><ele>97.5</ele><time>2026-05-02T09:31:18.001Z</time></trkpt><trkpt lat="40.888159964574065" lon="8.685623834408066"><ele>100.0</ele><time>2026-05-02T09:31:19.001Z</time></trkpt><trkpt lat="40.88805236173458" lon="8.685347763954395"><ele>104.0</ele><time>2026-05-02T09:31:20.001Z</time></trkpt><trkpt lat="40.887952888775025" lon="8.685067459249073"><ele>108.0</ele><time>2026-05-02T09:31:21.001Z</time></trkpt><trkpt lat="40.88785084956243" lon="8.684790281915403"><ele>108.0</ele><time>2026-05-02T09:31:22.001Z</time></trkpt><trkpt lat="40.887748803597525" lon="8.684516374924305"><ele>108.0</ele><time>2026-05-02T09:31:23.001Z</time></trkpt><trkpt lat="40.88764459863287" lon="8.684242621644204"><ele>110.0</ele><time>2026-05-02T09:31:24.001Z</time></trkpt><trkpt lat="40.88753824263608" lon="8.683970816884298"><ele>112.0</ele><time>2026-05-02T09:31:25.001Z</time></trkpt><trkpt lat="40.88743638937464" lon="8.683702744593726"><ele>116.5</ele><time>2026-05-02T09:31:26.001Z</time></trkpt><trkpt lat="40.88733430065663" lon="8.683439846298025"><ele>121.0</ele><time>2026-05-02T09:31:27.001Z</time></trkpt><trkpt lat="40.8872333304643" lon="8.683167108463605"><ele>121.0</ele><time>2026-05-02T09:31:28.001Z</time></trkpt><trkpt lat="40.887140058036735" lon="8.682894346440975"><ele>121.0</ele><time>2026-05-02T09:31:29.001Z</time></trkpt><trkpt lat="40.8870540915916" lon="8.68260670420881"><ele>128.0</ele><time>2026-05-02T09:31:30.001Z</time></trkpt><trkpt lat="40.88697393993631" lon="8.682309738158713"><ele>135.0</ele><time>2026-05-02T09:31:31.001Z</time></trkpt><trkpt lat="40.88689652646792" lon="8.68200304533283"><ele>133.0</ele><time>2026-05-02T09:31:32.001Z</time></trkpt><trkpt lat="40.88682502055667" lon="8.681694761965637"><ele>131.0</ele><time>2026-05-02T09:31:33.001Z</time></trkpt><trkpt lat="40.88675398514618" lon="8.681380902760838"><ele>132.0</ele><time>2026-05-02T09:31:34.001Z</time></trkpt><trkpt lat="40.886688761525804" lon="8.68106626637929"><ele>133.0</ele><time>2026-05-02T09:31:35.001Z</time></trkpt><trkpt lat="40.88662763288379" lon="8.680738654395915"><ele>133.0</ele><time>2026-05-02T09:31:36.001Z</time></trkpt><trkpt lat="40.88657417454253" lon="8.680413678409955"><ele>133.0</ele><time>2026-05-02T09:31:37.001Z</time></trkpt><trkpt lat="40.88652828698531" lon="8.680075255345864"><ele>135.0</ele><time>2026-05-02T09:31:38.001Z</time></trkpt><trkpt lat="40.88649707664151" lon="8.679731285085698"><ele>137.0</ele><time>2026-05-02T09:31:39.001Z</time></trkpt><trkpt lat="40.886473439828556" lon="8.67938671676572"><ele>138.5</ele><time>2026-05-02T09:31:40.001Z</time></trkpt><trkpt lat="40.8864594542333" lon="8.679050698341086"><ele>140.0</ele><time>2026-05-02T09:31:41.001Z</time></trkpt><trkpt lat="40.886442568022964" lon="8.678709042069991"><ele>141.0</ele><time>2026-05-02T09:31:42.001Z</time></trkpt><trkpt lat="40.88642345229916" lon="8.67837211492187"><ele>142.0</ele><time>2026-05-02T09:31:43.001Z</time></trkpt><trkpt lat="40.886403176075945" lon="8.678022915294768"><ele>146.0</ele><time>2026-05-02T09:31:44.001Z</time></trkpt><trkpt lat="40.886390232223576" lon="8.67767354257789"><ele>150.0</ele><time>2026-05-02T09:31:45.001Z</time></trkpt><trkpt lat="40.88637344725037" lon="8.67731908125698"><ele>150.0</ele><time>2026-05-02T09:31:46.001Z</time></trkpt><trkpt lat="40.88635435767189" lon="8.676960555331405"><ele>150.0</ele><time>2026-05-02T09:31:47.001Z</time></trkpt><trkpt lat="40.88633905304633" lon="8.676609854541809"><ele>151.5</ele><time>2026-05-02T09:31:48.001Z</time></trkpt><trkpt lat="40.886318107224476" lon="8.676245137048484"><ele>153.0</ele><time>2026-05-02T09:31:49.001Z</time></trkpt><trkpt lat="40.88630183232576" lon="8.675878257358997"><ele>153.5</ele><time>2026-05-02T09:31:50.001Z</time></trkpt><trkpt lat="40.88628782854545" lon="8.675515794103054"><ele>154.0</ele><time>2026-05-02T09:31:51.001Z</time></trkpt><trkpt lat="40.88626911303405" lon="8.675152786813065"><ele>153.0</ele><time>2026-05-02T09:31:52.001Z</time></trkpt><trkpt lat="40.886248262924106" lon="8.67479160199209"><ele>152.0</ele><time>2026-05-02T09:31:53.001Z</time></trkpt><trkpt lat="40.88623359576999" lon="8.674427144248808"><ele>149.5</ele><time>2026-05-02T09:31:54.001Z</time></trkpt><trkpt lat="40.88621483982927" lon="8.674062277833846"><ele>147.0</ele><time>2026-05-02T09:31:55.001Z</time></trkpt><trkpt lat="40.886201491405" lon="8.673709708275151"><ele>145.0</ele><time>2026-05-02T09:31:56.001Z</time></trkpt><trkpt lat="40.88618475718188" lon="8.673361509078973"><ele>143.0</ele><time>2026-05-02T09:31:57.001Z</time></trkpt><trkpt lat="40.88616642629369" lon="8.673009831569399"><ele>141.0</ele><time>2026-05-02T09:31:58Z</time></trkpt><trkpt lat="40.886146476222905" lon="8.672656781019269"><ele>139.0</ele><time>2026-05-02T09:31:59.001Z</time></trkpt><trkpt lat="40.886130970009525" lon="8.672323508904576"><ele>139.0</ele><time>2026-05-02T09:32:00Z</time></trkpt><trkpt lat="40.88611138866235" lon="8.671983892270097"><ele>139.0</ele><time>2026-05-02T09:32:01Z</time></trkpt><trkpt lat="40.88609421101006" lon="8.671647287416835"><ele>136.5</ele><time>2026-05-02T09:32:02Z</time></trkpt><trkpt lat="40.8860765902015" lon="8.671304971121565"><ele>134.0</ele><time>2026-05-02T09:32:03Z</time></trkpt><trkpt lat="40.88605890879576" lon="8.67096495762266"><ele>133.5</ele><time>2026-05-02T09:32:04Z</time></trkpt><trkpt lat="40.88604567931438" lon="8.670624184241742"><ele>133.0</ele><time>2026-05-02T09:32:05Z</time></trkpt><trkpt lat="40.886026450821404" lon="8.670279418877271"><ele>133.5</ele><time>2026-05-02T09:32:06Z</time></trkpt><trkpt lat="40.88599413425312" lon="8.669945332769327"><ele>134.0</ele><time>2026-05-02T09:32:07Z</time></trkpt><trkpt lat="40.88595182230921" lon="8.669608671530307"><ele>143.0</ele><time>2026-05-02T09:32:08Z</time></trkpt><trkpt lat="40.88589953702812" lon="8.669277268927532"><ele>152.0</ele><time>2026-05-02T09:32:09Z</time></trkpt><trkpt lat="40.88584441988699" lon="8.668949320041841"><ele>152.0</ele><time>2026-05-02T09:32:10Z</time></trkpt><trkpt lat="40.88578071532589" lon="8.66862145375705"><ele>152.0</ele><time>2026-05-02T09:32:11Z</time></trkpt><trkpt lat="40.88571352073884" lon="8.668294642084794"><ele>150.5</ele><time>2026-05-02T09:32:12Z</time></trkpt><trkpt lat="40.88564093764068" lon="8.667974177886995"><ele>149.0</ele><time>2026-05-02T09:32:13Z</time></trkpt><trkpt lat="40.88556233981757" lon="8.667653622655628"><ele>146.0</ele><time>2026-05-02T09:32:14Z</time></trkpt><trkpt lat="40.88547367696093" lon="8.667336334064979"><ele>143.0</ele><time>2026-05-02T09:32:15Z</time></trkpt><trkpt lat="40.88537619737643" lon="8.667025208475463"><ele>141.5</ele><time>2026-05-02T09:32:16Z</time></trkpt><trkpt lat="40.88527099417158" lon="8.666717446399916"><ele>140.0</ele><time>2026-05-02T09:32:17Z</time></trkpt><trkpt lat="40.88516489078306" lon="8.666419998766354"><ele>140.0</ele><time>2026-05-02T09:32:18Z</time></trkpt><trkpt lat="40.88504728490978" lon="8.666121782708409"><ele>140.0</ele><time>2026-05-02T09:32:19Z</time></trkpt><trkpt lat="40.88492938915523" lon="8.665820344610314"><ele>140.0</ele><time>2026-05-02T09:32:20Z</time></trkpt><trkpt lat="40.88480259457565" lon="8.665528345537634"><ele>140.0</ele><time>2026-05-02T09:32:21Z</time></trkpt><trkpt lat="40.88467534087072" lon="8.66524056115195"><ele>140.0</ele><time>2026-05-02T09:32:22Z</time></trkpt><trkpt lat="40.884543884228236" lon="8.664946591660579"><ele>140.0</ele><time>2026-05-02T09:32:23Z</time></trkpt><trkpt lat="40.88442339064372" lon="8.664653662734986"><ele>137.0</ele><time>2026-05-02T09:32:24Z</time></trkpt><trkpt lat="40.884299948830495" lon="8.664364385016805"><ele>134.0</ele><time>2026-05-02T09:32:25Z</time></trkpt><trkpt lat="40.88417921368687" lon="8.66407270390611"><ele>130.0</ele><time>2026-05-02T09:32:26Z</time></trkpt><trkpt lat="40.8840581686723" lon="8.663786290874711"><ele>126.0</ele><time>2026-05-02T09:32:27Z</time></trkpt><trkpt lat="40.88392575804762" lon="8.6634966977344"><ele>122.0</ele><time>2026-05-02T09:32:28Z</time></trkpt><trkpt lat="40.88380318643997" lon="8.663205821810845"><ele>118.0</ele><time>2026-05-02T09:32:29Z</time></trkpt><trkpt lat="40.883666844888126" lon="8.662920117495217"><ele>118.5</ele><time>2026-05-02T09:32:30Z</time></trkpt><trkpt lat="40.8835298548768" lon="8.662648605431565"><ele>119.0</ele><time>2026-05-02T09:32:31Z</time></trkpt><trkpt lat="40.88337593707268" lon="8.66237834308915"><ele>119.0</ele><time>2026-05-02T09:32:32Z</time></trkpt><trkpt lat="40.883224267955896" lon="8.66210470302253"><ele>119.0</ele><time>2026-05-02T09:32:33Z</time></trkpt><trkpt lat="40.8830786620074" lon="8.661839123780258"><ele>119.5</ele><time>2026-05-02T09:32:34Z</time></trkpt><trkpt lat="40.882918622275646" lon="8.661580338782002"><ele>120.0</ele><time>2026-05-02T09:32:35Z</time></trkpt><trkpt lat="40.882750889724754" lon="8.661332984636282"><ele>121.0</ele><time>2026-05-02T09:32:36Z</time></trkpt><trkpt lat="40.88258047009356" lon="8.661085010431659"><ele>122.0</ele><time>2026-05-02T09:32:37Z</time></trkpt><trkpt lat="40.88241285126209" lon="8.66083440850066"><ele>122.0</ele><time>2026-05-02T09:32:38Z</time></trkpt><trkpt lat="40.88224299302898" lon="8.660580584657842"><ele>122.0</ele><time>2026-05-02T09:32:39Z</time></trkpt><trkpt lat="40.882071394405955" lon="8.660322942486511"><ele>122.0</ele><time>2026-05-02T09:32:40Z</time></trkpt><trkpt lat="40.88189891193281" lon="8.660062025671422"><ele>122.0</ele><time>2026-05-02T09:32:41Z</time></trkpt><trkpt lat="40.881734520078005" lon="8.659804360129638"><ele>122.0</ele><time>2026-05-02T09:32:42Z</time></trkpt><trkpt lat="40.88156937572018" lon="8.659537884713473"><ele>122.0</ele><time>2026-05-02T09:32:43Z</time></trkpt><trkpt lat="40.88141699824854" lon="8.659273551356643"><ele>122.0</ele><time>2026-05-02T09:32:44Z</time></trkpt><trkpt lat="40.88127626100735" lon="8.658988707299383"><ele>122.0</ele><time>2026-05-02T09:32:45Z</time></trkpt><trkpt lat="40.881168048475594" lon="8.658695491265197"><ele>121.0</ele><time>2026-05-02T09:32:46Z</time></trkpt><trkpt lat="40.881090400424284" lon="8.658402133257264"><ele>120.0</ele><time>2026-05-02T09:32:47Z</time></trkpt><trkpt lat="40.881043132902185" lon="8.658126739037952"><ele>119.0</ele><time>2026-05-02T09:32:48Z</time></trkpt><trkpt lat="40.88102421090033" lon="8.657898161797863"><ele>117.33333333333333</ele><time>2026-05-02T09:32:49Z</time></trkpt><trkpt lat="40.88100919865866" lon="8.657692624960337"><ele>115.66666666666666</ele><time>2026-05-02T09:32:50Z</time></trkpt><trkpt lat="40.88099118418658" lon="8.65749759510013"><ele>114.0</ele><time>2026-05-02T09:32:51Z</time></trkpt><trkpt lat="40.88098838031081" lon="8.657299572881767"><ele>114.0</ele><time>2026-05-02T09:32:52Z</time></trkpt><trkpt lat="40.880999695000504" lon="8.657126314478575"><ele>114.0</ele><time>2026-05-02T09:32:53Z</time></trkpt><trkpt lat="40.881007053517195" lon="8.656966164550902"><ele>114.0</ele><time>2026-05-02T09:32:54Z</time></trkpt><trkpt lat="40.88102939327103" lon="8.656819843060532"><ele>114.0</ele><time>2026-05-02T09:32:55Z</time></trkpt><trkpt lat="40.88104438609197" lon="8.656666063867705"><ele>111.25</ele><time>2026-05-02T09:32:56Z</time></trkpt><trkpt lat="40.8810882430148" lon="8.656506211676435"><ele>108.5</ele><time>2026-05-02T09:32:57Z</time></trkpt><trkpt lat="40.88112026393447" lon="8.65633368853846"><ele>105.75</ele><time>2026-05-02T09:32:58Z</time></trkpt><trkpt lat="40.88116772246854" lon="8.656164310254146"><ele>103.0</ele><time>2026-05-02T09:32:59Z</time></trkpt><trkpt lat="40.8812197486769" lon="8.655986789475294"><ele>100.0</ele><time>2026-05-02T09:33:00Z</time></trkpt><trkpt lat="40.88127133363787" lon="8.655805395591871"><ele>97.0</ele><time>2026-05-02T09:33:01Z</time></trkpt><trkpt lat="40.88133462323942" lon="8.655624800200158"><ele>94.0</ele><time>2026-05-02T09:33:02Z</time></trkpt><trkpt lat="40.881410255032705" lon="8.655451072449539"><ele>91.0</ele><time>2026-05-02T09:33:03Z</time></trkpt><trkpt lat="40.881489484545305" lon="8.655287489269163"><ele>87.33333333333333</ele><time>2026-05-02T09:33:04Z</time></trkpt><trkpt lat="40.88158483736463" lon="8.655131118088963"><ele>83.66666666666667</ele><time>2026-05-02T09:33:05Z</time></trkpt><trkpt lat="40.88167384215464" lon="8.654966044767107"><ele>80.0</ele><time>2026-05-02T09:33:06Z</time></trkpt><trkpt lat="40.88176014090538" lon="8.65480719774699"><ele>79.66666666666667</ele><time>2026-05-02T09:33:07Z</time></trkpt><trkpt lat="40.88185648561598" lon="8.654646611275057"><ele>79.33333333333333</ele><time>2026-05-02T09:33:08Z</time></trkpt><trkpt lat="40.88194776950743" lon="8.65448770250117"><ele>79.0</ele><time>2026-05-02T09:33:09Z</time></trkpt><trkpt lat="40.88203707621111" lon="8.654328079017095"><ele>79.0</ele><time>2026-05-02T09:33:10Z</time></trkpt><trkpt lat="40.88213402973956" lon="8.654150844888036"><ele>79.0</ele><time>2026-05-02T09:33:11Z</time></trkpt><trkpt lat="40.88223956939379" lon="8.653960234039806"><ele>79.0</ele><time>2026-05-02T09:33:12Z</time></trkpt><trkpt lat="40.882356678681504" lon="8.653740536802133"><ele>75.66666666666666</ele><time>2026-05-02T09:33:13Z</time></trkpt><trkpt lat="40.882475614015206" lon="8.653515432836796"><ele>72.33333333333333</ele><time>2026-05-02T09:33:14Z</time></trkpt><trkpt lat="40.882600463547924" lon="8.653283320344322"><ele>69.0</ele><time>2026-05-02T09:33:15Z</time></trkpt><trkpt lat="40.882738597597736" lon="8.653057031347027"><ele>68.66666666666667</ele><time>2026-05-02T09:33:16Z</time></trkpt><trkpt lat="40.88288045684317" lon="8.652832748704798"><ele>68.33333333333334</ele><time>2026-05-02T09:33:17Z</time></trkpt><trkpt lat="40.8830239983835" lon="8.652599656675498"><ele>68.0</ele><time>2026-05-02T09:33:18Z</time></trkpt><trkpt lat="40.88316550406805" lon="8.65235860233743"><ele>65.0</ele><time>2026-05-02T09:33:19Z</time></trkpt><trkpt lat="40.88330752817561" lon="8.652113289663758"><ele>62.0</ele><time>2026-05-02T09:33:20Z</time></trkpt><trkpt lat="40.88344662901984" lon="8.651860526251783"><ele>62.0</ele><time>2026-05-02T09:33:21Z</time></trkpt><trkpt lat="40.88359417437219" lon="8.651609949569945"><ele>62.0</ele><time>2026-05-02T09:33:22Z</time></trkpt><trkpt lat="40.88374254846868" lon="8.651357912927637"><ele>58.5</ele><time>2026-05-02T09:33:23Z</time></trkpt><trkpt lat="40.88389352408817" lon="8.651101324535496"><ele>55.0</ele><time>2026-05-02T09:33:24Z</time></trkpt><trkpt lat="40.88404001847996" lon="8.650845603603214"><ele>55.0</ele><time>2026-05-02T09:33:25Z</time></trkpt><trkpt lat="40.88418091609799" lon="8.65060147559231"><ele>55.0</ele><time>2026-05-02T09:33:26Z</time></trkpt><trkpt lat="40.88431532429665" lon="8.650361187834548"><ele>57.0</ele><time>2026-05-02T09:33:27Z</time></trkpt><trkpt lat="40.8844454162687" lon="8.65012115636386"><ele>59.0</ele><time>2026-05-02T09:33:28Z</time></trkpt><trkpt lat="40.88457419896528" lon="8.649869364570092"><ele>59.0</ele><time>2026-05-02T09:33:29Z</time></trkpt><trkpt lat="40.884681569377435" lon="8.649595160516098"><ele>59.0</ele><time>2026-05-02T09:33:30Z</time></trkpt><trkpt lat="40.884785901880655" lon="8.649290297334556"><ele>53.5</ele><time>2026-05-02T09:33:31Z</time></trkpt><trkpt lat="40.88488133963933" lon="8.648982248050546"><ele>48.0</ele><time>2026-05-02T09:33:32Z</time></trkpt><trkpt lat="40.884965757474326" lon="8.648660518167308"><ele>46.0</ele><time>2026-05-02T09:33:33Z</time></trkpt><trkpt lat="40.88504509611752" lon="8.648333736125348"><ele>44.0</ele><time>2026-05-02T09:33:34Z</time></trkpt><trkpt lat="40.88512306599004" lon="8.647995667421277"><ele>38.0</ele><time>2026-05-02T09:33:35Z</time></trkpt><trkpt lat="40.88520864421411" lon="8.647672143017234"><ele>32.0</ele><time>2026-05-02T09:33:36Z</time></trkpt><trkpt lat="40.88529148609692" lon="8.647356792551005"><ele>32.0</ele><time>2026-05-02T09:33:37Z</time></trkpt><trkpt lat="40.885356179669756" lon="8.647046722224163"><ele>32.0</ele><time>2026-05-02T09:33:38Z</time></trkpt><trkpt lat="40.8853982406389" lon="8.646734927946198"><ele>29.666666666666664</ele><time>2026-05-02T09:33:39Z</time></trkpt><trkpt lat="40.885412882044655" lon="8.646418604752133"><ele>27.333333333333336</ele><time>2026-05-02T09:33:40Z</time></trkpt><trkpt lat="40.88539615138318" lon="8.646145040346019"><ele>25.0</ele><time>2026-05-02T09:33:41Z</time></trkpt><trkpt lat="40.88538490230099" lon="8.645907664275397"><ele>25.0</ele><time>2026-05-02T09:33:42Z</time></trkpt><trkpt lat="40.885387052353394" lon="8.645710772770094"><ele>25.0</ele><time>2026-05-02T09:33:43Z</time></trkpt><trkpt lat="40.88541032907758" lon="8.64554207056691"><ele>25.0</ele><time>2026-05-02T09:33:44Z</time></trkpt><trkpt lat="40.885467567200735" lon="8.645385260107252"><ele>25.0</ele><time>2026-05-02T09:33:45Z</time></trkpt><trkpt lat="40.88555464184253" lon="8.645258162447968"><ele>25.0</ele><time>2026-05-02T09:33:46Z</time></trkpt><trkpt lat="40.88564190088143" lon="8.645169601622799"><ele>25.0</ele><time>2026-05-02T09:33:47Z</time></trkpt><trkpt lat="40.88571722659092" lon="8.645091258630464"><ele>25.0</ele><time>2026-05-02T09:33:48Z</time></trkpt><trkpt lat="40.8857673813196" lon="8.644993849427598"><ele>25.0</ele><time>2026-05-02T09:33:49Z</time></trkpt><trkpt lat="40.88579980531666" lon="8.64489021320142"><ele>25.0</ele><time>2026-05-02T09:33:50Z</time></trkpt><trkpt lat="40.88580852743718" lon="8.644786955727032"><ele>25.0</ele><time>2026-05-02T09:33:51Z</time></trkpt><trkpt lat="40.885801795482664" lon="8.644700448392472"><ele>25.0</ele><time>2026-05-02T09:33:53.001Z</time></trkpt><trkpt lat="40.88573554909917" lon="8.644529270118262"><ele>25.0</ele><time>2026-05-02T09:33:56.001Z</time></trkpt><trkpt lat="40.88568183635102" lon="8.644436754966282"><ele>25.0</ele><time>2026-05-02T09:33:57.001Z</time></trkpt><trkpt lat="40.88561354342183" lon="8.644349672679143"><ele>25.0</ele><time>2026-05-02T09:33:58.001Z</time></trkpt><trkpt lat="40.885519037286954" lon="8.64424028045525"><ele>25.0</ele><time>2026-05-02T09:33:59Z</time></trkpt><trkpt lat="40.88541350056468" lon="8.644114799115236"><ele>25.0</ele><time>2026-05-02T09:34:00Z</time></trkpt><trkpt lat="40.88530237218598" lon="8.644003615933958"><ele>25.0</ele><time>2026-05-02T09:34:01Z</time></trkpt><trkpt lat="40.8851718707991" lon="8.643870831932107"><ele>25.0</ele><time>2026-05-02T09:34:02Z</time></trkpt><trkpt lat="40.885026749815886" lon="8.643707122385951"><ele>25.0</ele><time>2026-05-02T09:34:03Z</time></trkpt><trkpt lat="40.88487394108894" lon="8.643546090485874"><ele>25.0</ele><time>2026-05-02T09:34:04Z</time></trkpt><trkpt lat="40.88471245197843" lon="8.643368732698091"><ele>25.0</ele><time>2026-05-02T09:34:05Z</time></trkpt><trkpt lat="40.884542242964685" lon="8.643188975923803"><ele>25.0</ele><time>2026-05-02T09:34:06Z</time></trkpt><trkpt lat="40.88437584798094" lon="8.643007493832881"><ele>25.0</ele><time>2026-05-02T09:34:07Z</time></trkpt><trkpt lat="40.88420151116913" lon="8.64281867656734"><ele>25.0</ele><time>2026-05-02T09:34:08Z</time></trkpt><trkpt lat="40.88402591150258" lon="8.642623918828606"><ele>24.5</ele><time>2026-05-02T09:34:09Z</time></trkpt><trkpt lat="40.883858236622736" lon="8.642419691843385"><ele>24.0</ele><time>2026-05-02T09:34:10Z</time></trkpt><trkpt lat="40.883711585211515" lon="8.642196672336171"><ele>24.0</ele><time>2026-05-02T09:34:11Z</time></trkpt><trkpt lat="40.883586595596476" lon="8.641943502850696"><ele>24.0</ele><time>2026-05-02T09:34:12Z</time></trkpt><trkpt lat="40.88348011467085" lon="8.64168120774053"><ele>24.0</ele><time>2026-05-02T09:34:13Z</time></trkpt><trkpt lat="40.8833738547126" lon="8.641421300070755"><ele>24.0</ele><time>2026-05-02T09:34:14Z</time></trkpt><trkpt lat="40.88326404825204" lon="8.64116881553849"><ele>24.0</ele><time>2026-05-02T09:34:15Z</time></trkpt><trkpt lat="40.88315293232399" lon="8.64092194957181"><ele>24.0</ele><time>2026-05-02T09:34:16Z</time></trkpt><trkpt lat="40.883040690834214" lon="8.640669722484228"><ele>24.0</ele><time>2026-05-02T09:34:17Z</time></trkpt><trkpt lat="40.88292817692428" lon="8.640407981023186"><ele>24.0</ele><time>2026-05-02T09:34:18Z</time></trkpt><trkpt lat="40.88283063522922" lon="8.640132873820917"><ele>23.0</ele><time>2026-05-02T09:34:19Z</time></trkpt><trkpt lat="40.882750204302354" lon="8.6398388772362"><ele>22.0</ele><time>2026-05-02T09:34:20Z</time></trkpt><trkpt lat="40.88268765614512" lon="8.639539590809154"><ele>23.0</ele><time>2026-05-02T09:34:21Z</time></trkpt><trkpt lat="40.882631366994204" lon="8.639251387507054"><ele>24.0</ele><time>2026-05-02T09:34:22Z</time></trkpt><trkpt lat="40.882569746624704" lon="8.638966198465752"><ele>25.0</ele><time>2026-05-02T09:34:23Z</time></trkpt><trkpt lat="40.88250277608516" lon="8.638680934269145"><ele>23.5</ele><time>2026-05-02T09:34:24Z</time></trkpt><trkpt lat="40.88243599054613" lon="8.63839388166373"><ele>22.0</ele><time>2026-05-02T09:34:25Z</time></trkpt><trkpt lat="40.882369532152666" lon="8.638109957783405"><ele>22.0</ele><time>2026-05-02T09:34:26Z</time></trkpt><trkpt lat="40.88230231175181" lon="8.637817599841474"><ele>22.0</ele><time>2026-05-02T09:34:27Z</time></trkpt><trkpt lat="40.88223479611935" lon="8.637533305204759"><ele>21.666666666666664</ele><time>2026-05-02T09:34:28Z</time></trkpt><trkpt lat="40.88216577404465" lon="8.637254553340144"><ele>21.333333333333332</ele><time>2026-05-02T09:34:29Z</time></trkpt><trkpt lat="40.8821031946901" lon="8.636977336133729"><ele>21.0</ele><time>2026-05-02T09:34:30Z</time></trkpt><trkpt lat="40.88204041824914" lon="8.636702901386025"><ele>20.0</ele><time>2026-05-02T09:34:31Z</time></trkpt><trkpt lat="40.88197194042074" lon="8.636433054282909"><ele>19.0</ele><time>2026-05-02T09:34:32Z</time></trkpt><trkpt lat="40.88188569093779" lon="8.636184635760083"><ele>18.0</ele><time>2026-05-02T09:34:33Z</time></trkpt><trkpt lat="40.881768757277676" lon="8.635948392497003"><ele>22.0</ele><time>2026-05-02T09:34:34Z</time></trkpt><trkpt lat="40.881634101392606" lon="8.63574371198081"><ele>26.0</ele><time>2026-05-02T09:34:35Z</time></trkpt><trkpt lat="40.88148401455076" lon="8.635570864648097"><ele>30.0</ele><time>2026-05-02T09:34:36Z</time></trkpt><trkpt lat="40.88129818345266" lon="8.635433096769132"><ele>30.0</ele><time>2026-05-02T09:34:37Z</time></trkpt><trkpt lat="40.88109413168032" lon="8.63531787700322"><ele>30.0</ele><time>2026-05-02T09:34:38Z</time></trkpt><trkpt lat="40.88090318892703" lon="8.635240475926928"><ele>30.0</ele><time>2026-05-02T09:34:39Z</time></trkpt><trkpt lat="40.88070179132426" lon="8.6352288357978"><ele>30.666666666666664</ele><time>2026-05-02T09:34:40Z</time></trkpt><trkpt lat="40.88050678712089" lon="8.635261249948478"><ele>31.333333333333332</ele><time>2026-05-02T09:34:41Z</time></trkpt><trkpt lat="40.880306455975195" lon="8.635312660525337"><ele>32.0</ele><time>2026-05-02T09:34:42Z</time></trkpt><trkpt lat="40.880105809353715" lon="8.635370121339774"><ele>36.33333333333333</ele><time>2026-05-02T09:34:43Z</time></trkpt><trkpt lat="40.8799082250556" lon="8.635429810672417"><ele>40.666666666666664</ele><time>2026-05-02T09:34:44Z</time></trkpt><trkpt lat="40.879727544983126" lon="8.635511335772955"><ele>45.0</ele><time>2026-05-02T09:34:45Z</time></trkpt><trkpt lat="40.87957149861691" lon="8.635619831962556"><ele>45.0</ele><time>2026-05-02T09:34:46Z</time></trkpt><trkpt lat="40.87942335305262" lon="8.635695036947517"><ele>45.0</ele><time>2026-05-02T09:34:47Z</time></trkpt><trkpt lat="40.87926781736981" lon="8.63568278760916"><ele>45.0</ele><time>2026-05-02T09:34:48Z</time></trkpt><trkpt lat="40.8791275093005" lon="8.635548717825726"><ele>44.666666666666664</ele><time>2026-05-02T09:34:49Z</time></trkpt><trkpt lat="40.878988548956194" lon="8.635356994768083"><ele>44.33333333333333</ele><time>2026-05-02T09:34:50Z</time></trkpt><trkpt lat="40.87884529625938" lon="8.635184314999092"><ele>44.0</ele><time>2026-05-02T09:34:51Z</time></trkpt><trkpt lat="40.87868700050626" lon="8.63507276779054"><ele>42.0</ele><time>2026-05-02T09:34:52Z</time></trkpt><trkpt lat="40.87851358837577" lon="8.635050242141972"><ele>40.0</ele><time>2026-05-02T09:34:53Z</time></trkpt><trkpt lat="40.878317976244176" lon="8.635095439228978"><ele>38.0</ele><time>2026-05-02T09:34:54Z</time></trkpt><trkpt lat="40.87814059615217" lon="8.635213145838216"><ele>40.0</ele><time>2026-05-02T09:34:55Z</time></trkpt><trkpt lat="40.877980669630176" lon="8.635347666389016"><ele>42.0</ele><time>2026-05-02T09:34:56Z</time></trkpt><trkpt lat="40.87783355459575" lon="8.635460446622082"><ele>44.0</ele><time>2026-05-02T09:34:57Z</time></trkpt><trkpt lat="40.87769001209437" lon="8.635559291142611"><ele>42.25</ele><time>2026-05-02T09:34:58Z</time></trkpt><trkpt lat="40.8775547446128" lon="8.635656711381973"><ele>40.5</ele><time>2026-05-02T09:34:59Z</time></trkpt><trkpt lat="40.87743596866039" lon="8.635734176436921"><ele>38.75</ele><time>2026-05-02T09:35:00Z</time></trkpt><trkpt lat="40.877299666934185" lon="8.635805292894636"><ele>37.0</ele><time>2026-05-02T09:35:01Z</time></trkpt><trkpt lat="40.8771732321861" lon="8.635843326498952"><ele>37.0</ele><time>2026-05-02T09:35:02Z</time></trkpt><trkpt lat="40.877065666594234" lon="8.635804049595794"><ele>37.0</ele><time>2026-05-02T09:35:03Z</time></trkpt><trkpt lat="40.87697131075335" lon="8.635702139478552"><ele>37.0</ele><time>2026-05-02T09:35:04Z</time></trkpt><trkpt lat="40.87689917572432" lon="8.635524076069947"><ele>37.0</ele><time>2026-05-02T09:35:05Z</time></trkpt><trkpt lat="40.876872004777205" lon="8.635317112769842"><ele>34.66666666666667</ele><time>2026-05-02T09:35:06Z</time></trkpt><trkpt lat="40.8768506235574" lon="8.63509503249084"><ele>32.333333333333336</ele><time>2026-05-02T09:35:07Z</time></trkpt><trkpt lat="40.87681758654579" lon="8.634871294563487"><ele>30.0</ele><time>2026-05-02T09:35:08Z</time></trkpt><trkpt lat="40.87681159303934" lon="8.634648552072429"><ele>29.0</ele><time>2026-05-02T09:35:09Z</time></trkpt><trkpt lat="40.87679374821738" lon="8.63442264717099"><ele>28.0</ele><time>2026-05-02T09:35:10Z</time></trkpt><trkpt lat="40.87676351451883" lon="8.634200455047063"><ele>27.0</ele><time>2026-05-02T09:35:11Z</time></trkpt><trkpt lat="40.87671639033182" lon="8.633983919050648"><ele>28.666666666666664</ele><time>2026-05-02T09:35:12Z</time></trkpt><trkpt lat="40.876634574495" lon="8.633768624075312"><ele>30.333333333333332</ele><time>2026-05-02T09:35:13Z</time></trkpt><trkpt lat="40.876509274420805" lon="8.63356899832452"><ele>32.0</ele><time>2026-05-02T09:35:14Z</time></trkpt><trkpt lat="40.87635883484153" lon="8.633398915347698"><ele>32.0</ele><time>2026-05-02T09:35:15Z</time></trkpt><trkpt lat="40.87620308624343" lon="8.633241908885887"><ele>32.0</ele><time>2026-05-02T09:35:16Z</time></trkpt><trkpt lat="40.8760272603549" lon="8.633107204715742"><ele>32.0</ele><time>2026-05-02T09:35:17Z</time></trkpt><trkpt lat="40.87584185584979" lon="8.633007288324935"><ele>33.0</ele><time>2026-05-02T09:35:18Z</time></trkpt><trkpt lat="40.87563214823887" lon="8.632956074876764"><ele>34.0</ele><time>2026-05-02T09:35:19Z</time></trkpt><trkpt lat="40.8754070774738" lon="8.632928677771828"><ele>35.0</ele><time>2026-05-02T09:35:20Z</time></trkpt><trkpt lat="40.875186321048325" lon="8.632897741387097"><ele>34.0</ele><time>2026-05-02T09:35:21Z</time></trkpt><trkpt lat="40.874982324510555" lon="8.632835616472878"><ele>33.0</ele><time>2026-05-02T09:35:22Z</time></trkpt><trkpt lat="40.87478883912516" lon="8.632817899679539"><ele>32.0</ele><time>2026-05-02T09:35:23Z</time></trkpt><trkpt lat="40.874603011350054" lon="8.632774207302512"><ele>29.333333333333332</ele><time>2026-05-02T09:35:24Z</time></trkpt><trkpt lat="40.874421152191495" lon="8.632736527059722"><ele>26.666666666666664</ele><time>2026-05-02T09:35:25Z</time></trkpt><trkpt lat="40.87425077192413" lon="8.63270647768095"><ele>24.0</ele><time>2026-05-02T09:35:26Z</time></trkpt><trkpt lat="40.87408974019017" lon="8.632654632833878"><ele>23.0</ele><time>2026-05-02T09:35:27Z</time></trkpt><trkpt lat="40.87393322087826" lon="8.63262296176955"><ele>22.0</ele><time>2026-05-02T09:35:28Z</time></trkpt><trkpt lat="40.87377729498379" lon="8.632591609322608"><ele>21.0</ele><time>2026-05-02T09:35:29Z</time></trkpt><trkpt lat="40.87360370547359" lon="8.63255670517575"><ele>20.666666666666668</ele><time>2026-05-02T09:35:30Z</time></trkpt><trkpt lat="40.87342492749613" lon="8.632520757770974"><ele>20.333333333333336</ele><time>2026-05-02T09:35:31Z</time></trkpt><trkpt lat="40.873227970275344" lon="8.632481591803405"><ele>20.0</ele><time>2026-05-02T09:35:32Z</time></trkpt><trkpt lat="40.87303151295116" lon="8.63244254793029"><ele>20.0</ele><time>2026-05-02T09:35:33Z</time></trkpt><trkpt lat="40.872828153061135" lon="8.63240213291819"><ele>20.0</ele><time>2026-05-02T09:35:34Z</time></trkpt><trkpt lat="40.87263074830453" lon="8.63236195824124"><ele>20.0</ele><time>2026-05-02T09:35:35Z</time></trkpt><trkpt lat="40.872440633540066" lon="8.632323267198506"><ele>20.0</ele><time>2026-05-02T09:35:36Z</time></trkpt><trkpt lat="40.87225749485228" lon="8.632285995873355"><ele>20.0</ele><time>2026-05-02T09:35:37Z</time></trkpt><trkpt lat="40.87207128163385" lon="8.632248098241229"><ele>20.0</ele><time>2026-05-02T09:35:38Z</time></trkpt><trkpt lat="40.87188295407668" lon="8.632209770243355"><ele>19.666666666666668</ele><time>2026-05-02T09:35:39Z</time></trkpt><trkpt lat="40.87168277541372" lon="8.632200237155466"><ele>19.333333333333332</ele><time>2026-05-02T09:35:40Z</time></trkpt><trkpt lat="40.871485607609756" lon="8.632161066008686"><ele>19.0</ele><time>2026-05-02T09:35:41Z</time></trkpt><trkpt lat="40.87128145626634" lon="8.632118999161008"><ele>19.0</ele><time>2026-05-02T09:35:42Z</time></trkpt><trkpt lat="40.871071418142186" lon="8.63207640536487"><ele>19.0</ele><time>2026-05-02T09:35:43Z</time></trkpt><trkpt lat="40.87085242582368" lon="8.63203621128595"><ele>19.0</ele><time>2026-05-02T09:35:44Z</time></trkpt><trkpt lat="40.8706301371237" lon="8.631990452856128"><ele>16.0</ele><time>2026-05-02T09:35:45Z</time></trkpt><trkpt lat="40.8704070129218" lon="8.631943171059591"><ele>13.0</ele><time>2026-05-02T09:35:46Z</time></trkpt><trkpt lat="40.870179944455835" lon="8.63189796760387"><ele>12.0</ele><time>2026-05-02T09:35:47Z</time></trkpt><trkpt lat="40.8699559089066" lon="8.631852060284162"><ele>11.0</ele><time>2026-05-02T09:35:48Z</time></trkpt><trkpt lat="40.8697211921098" lon="8.63180438814573"><ele>11.0</ele><time>2026-05-02T09:35:49Z</time></trkpt><trkpt lat="40.86948543561839" lon="8.631758386067046"><ele>11.0</ele><time>2026-05-02T09:35:50Z</time></trkpt><trkpt lat="40.869237271054935" lon="8.631708982398104"><ele>10.0</ele><time>2026-05-02T09:35:51Z</time></trkpt><trkpt lat="40.86898548643464" lon="8.63165868866261"><ele>9.0</ele><time>2026-05-02T09:35:52Z</time></trkpt><trkpt lat="40.86872288072113" lon="8.631610484002502"><ele>9.0</ele><time>2026-05-02T09:35:53Z</time></trkpt><trkpt lat="40.868451714632855" lon="8.631556498624175"><ele>9.0</ele><time>2026-05-02T09:35:54Z</time></trkpt><trkpt lat="40.86817980459208" lon="8.631500999025938"><ele>9.5</ele><time>2026-05-02T09:35:55Z</time></trkpt><trkpt lat="40.86790605868471" lon="8.631445127586087"><ele>10.0</ele><time>2026-05-02T09:35:56Z</time></trkpt><trkpt lat="40.867640416654986" lon="8.631368936103476"><ele>9.5</ele><time>2026-05-02T09:35:57Z</time></trkpt><trkpt lat="40.86739417407025" lon="8.631223179049258"><ele>9.0</ele><time>2026-05-02T09:35:58Z</time></trkpt><trkpt lat="40.867176761774715" lon="8.631004132487858"><ele>8.5</ele><time>2026-05-02T09:35:59Z</time></trkpt><trkpt lat="40.86699108956601" lon="8.630742322296024"><ele>8.0</ele><time>2026-05-02T09:36:00Z</time></trkpt><trkpt lat="40.86680746000724" lon="8.63047673565779"><ele>8.5</ele><time>2026-05-02T09:36:01Z</time></trkpt><trkpt lat="40.866617411870266" lon="8.630237967281094"><ele>9.0</ele><time>2026-05-02T09:36:02Z</time></trkpt><trkpt lat="40.86641967172074" lon="8.630020000887246"><ele>9.0</ele><time>2026-05-02T09:36:03Z</time></trkpt><trkpt lat="40.866225902300265" lon="8.629785586479956"><ele>9.0</ele><time>2026-05-02T09:36:04Z</time></trkpt><trkpt lat="40.86603382764115" lon="8.629550937722163"><ele>10.0</ele><time>2026-05-02T09:36:05Z</time></trkpt><trkpt lat="40.86583941852326" lon="8.629312389049863"><ele>11.0</ele><time>2026-05-02T09:36:06Z</time></trkpt><trkpt lat="40.86564246292405" lon="8.629086018942015"><ele>11.0</ele><time>2026-05-02T09:36:07Z</time></trkpt><trkpt lat="40.86545161048478" lon="8.6288563218283"><ele>11.0</ele><time>2026-05-02T09:36:08Z</time></trkpt><trkpt lat="40.86525741051262" lon="8.628625553941335"><ele>11.0</ele><time>2026-05-02T09:36:09Z</time></trkpt><trkpt lat="40.86506412360733" lon="8.628390726705414"><ele>11.0</ele><time>2026-05-02T09:36:10Z</time></trkpt><trkpt lat="40.86485942716306" lon="8.628160127657207"><ele>11.0</ele><time>2026-05-02T09:36:11Z</time></trkpt><trkpt lat="40.86467327693105" lon="8.627923014563233"><ele>11.0</ele><time>2026-05-02T09:36:12Z</time></trkpt><trkpt lat="40.86446847681779" lon="8.627684768941457"><ele>10.5</ele><time>2026-05-02T09:36:13Z</time></trkpt><trkpt lat="40.864270587320554" lon="8.627442322894993"><ele>10.0</ele><time>2026-05-02T09:36:14Z</time></trkpt><trkpt lat="40.864072299082785" lon="8.627205952528787"><ele>10.0</ele><time>2026-05-02T09:36:15Z</time></trkpt><trkpt lat="40.86388482471742" lon="8.626987914531615"><ele>10.0</ele><time>2026-05-02T09:36:16Z</time></trkpt><trkpt lat="40.86371278794951" lon="8.626781099598928"><ele>9.0</ele><time>2026-05-02T09:36:17Z</time></trkpt><trkpt lat="40.863545718780834" lon="8.626577067671318"><ele>8.0</ele><time>2026-05-02T09:36:18Z</time></trkpt><trkpt lat="40.86337842672501" lon="8.62637980235022"><ele>7.5</ele><time>2026-05-02T09:36:19Z</time></trkpt><trkpt lat="40.86320636951937" lon="8.626171743698821"><ele>7.0</ele><time>2026-05-02T09:36:20Z</time></trkpt><trkpt lat="40.86302803263386" lon="8.625962586631022"><ele>6.5</ele><time>2026-05-02T09:36:21Z</time></trkpt><trkpt lat="40.8628529111718" lon="8.625751765343145"><ele>6.0</ele><time>2026-05-02T09:36:22Z</time></trkpt><trkpt lat="40.862679868286534" lon="8.625542174508375"><ele>6.25</ele><time>2026-05-02T09:36:23Z</time></trkpt><trkpt lat="40.86254103694214" lon="8.625373369720114"><ele>6.5</ele><time>2026-05-02T09:36:24Z</time></trkpt><trkpt lat="40.862446189999304" lon="8.625251059227617"><ele>6.75</ele><time>2026-05-02T09:36:25Z</time></trkpt><trkpt lat="40.862385694061786" lon="8.625170745857288"><ele>7.0</ele><time>2026-05-02T09:36:26Z</time></trkpt><trkpt lat="40.862389519335686" lon="8.625082793416357"><ele>7.0</ele><time>2026-05-02T09:36:29Z</time></trkpt><trkpt lat="40.862429930547236" lon="8.625017102033757"><ele>7.0</ele><time>2026-05-02T09:36:32Z</time></trkpt><trkpt lat="40.862545299161475" lon="8.6250365961062"><ele>7.0</ele><time>2026-05-02T09:36:35Z</time></trkpt><trkpt lat="40.86258919070539" lon="8.62497206602867"><ele>7.0</ele><time>2026-05-02T09:36:38Z</time></trkpt></trkseg><trkseg><trkpt lat="40.862506316143914" lon="8.624952604553846"><ele>7.0</ele><time>2026-05-02T10:01:25.999Z</time></trkpt><trkpt lat="40.86244736462932" lon="8.625032314625402"><ele>6.999999999999999</ele><time>2026-05-02T10:01:28.999Z</time></trkpt><trkpt lat="40.86235992832154" lon="8.625023765383363"><ele>6.999999999999999</ele><time>2026-05-02T10:01:31.999Z</time></trkpt><trkpt lat="40.86226099621199" lon="8.624999778410086"><ele>7.0</ele><time>2026-05-02T10:01:46.999Z</time></trkpt><trkpt lat="40.86218852688806" lon="8.62494931533627"><ele>7.0</ele><time>2026-05-02T10:01:47.999Z</time></trkpt><trkpt lat="40.86209417020161" lon="8.624826403195419"><ele>7.0</ele><time>2026-05-02T10:01:48.999Z</time></trkpt><trkpt lat="40.86198722272242" lon="8.624689063208788"><ele>7.0</ele><time>2026-05-02T10:01:49.999Z</time></trkpt><trkpt lat="40.8618491316402" lon="8.624518373892599"><ele>7.0</ele><time>2026-05-02T10:01:50.999Z</time></trkpt><trkpt lat="40.86168654159219" lon="8.62432300582157"><ele>7.0</ele><time>2026-05-02T10:01:51.999Z</time></trkpt><trkpt lat="40.861533079161916" lon="8.624143929081841"><ele>7.0</ele><time>2026-05-02T10:01:52.999Z</time></trkpt><trkpt lat="40.86138284555557" lon="8.623967323073256"><ele>7.0</ele><time>2026-05-02T10:01:53.999Z</time></trkpt><trkpt lat="40.86122834037144" lon="8.623780089655991"><ele>7.0</ele><time>2026-05-02T10:01:54.999Z</time></trkpt><trkpt lat="40.8610695870224" lon="8.623593617808863"><ele>7.0</ele><time>2026-05-02T10:01:55.999Z</time></trkpt><trkpt lat="40.86092746861186" lon="8.623430747448982"><ele>7.0</ele><time>2026-05-02T10:01:56.999Z</time></trkpt><trkpt lat="40.86078649154197" lon="8.623267699887618"><ele>7.0</ele><time>2026-05-02T10:01:57.999Z</time></trkpt><trkpt lat="40.86066003038433" lon="8.62308732535325"><ele>7.0</ele><time>2026-05-02T10:01:58.999Z</time></trkpt><trkpt lat="40.8605145502857" lon="8.622932405499135"><ele>7.0</ele><time>2026-05-02T10:01:59.999Z</time></trkpt><trkpt lat="40.86037840383933" lon="8.622772219892862"><ele>7.0</ele><time>2026-05-02T10:02:00.999Z</time></trkpt><trkpt lat="40.860244971683585" lon="8.622608617183932"><ele>7.0</ele><time>2026-05-02T10:02:01.999Z</time></trkpt><trkpt lat="40.86012299487905" lon="8.62246113595617"><ele>7.0</ele><time>2026-05-02T10:02:02.999Z</time></trkpt><trkpt lat="40.86000353986189" lon="8.622315320387253"><ele>7.0</ele><time>2026-05-02T10:02:03.999Z</time></trkpt><trkpt lat="40.85988174440988" lon="8.622168666597123"><ele>7.0</ele><time>2026-05-02T10:02:04.999Z</time></trkpt><trkpt lat="40.85975520601358" lon="8.622021706051768"><ele>7.0</ele><time>2026-05-02T10:02:05.999Z</time></trkpt><trkpt lat="40.859619660424144" lon="8.621862376202003"><ele>7.0</ele><time>2026-05-02T10:02:06.999Z</time></trkpt><trkpt lat="40.8594881517792" lon="8.621704137150967"><ele>7.0</ele><time>2026-05-02T10:02:07.999Z</time></trkpt><trkpt lat="40.85935503099838" lon="8.62153233915639"><ele>7.0</ele><time>2026-05-02T10:02:08.999Z</time></trkpt><trkpt lat="40.859212458945805" lon="8.621357020682344"><ele>7.333333333333334</ele><time>2026-05-02T10:02:09.999Z</time></trkpt><trkpt lat="40.85906352138522" lon="8.621183408545862"><ele>7.666666666666666</ele><time>2026-05-02T10:02:10.999Z</time></trkpt><trkpt lat="40.85891413819143" lon="8.62100801409266"><ele>8.0</ele><time>2026-05-02T10:02:11.999Z</time></trkpt><trkpt lat="40.85876141132687" lon="8.620822734022445"><ele>8.0</ele><time>2026-05-02T10:02:12.999Z</time></trkpt><trkpt lat="40.858607620966694" lon="8.620636342771563"><ele>8.0</ele><time>2026-05-02T10:02:13.999Z</time></trkpt><trkpt lat="40.858454362335564" lon="8.620451384881429"><ele>8.0</ele><time>2026-05-02T10:02:14.999Z</time></trkpt><trkpt lat="40.858304910229776" lon="8.620264848591043"><ele>8.333333333333332</ele><time>2026-05-02T10:02:15.999Z</time></trkpt><trkpt lat="40.85815642082198" lon="8.62007941968478"><ele>8.666666666666666</ele><time>2026-05-02T10:02:16.999Z</time></trkpt><trkpt lat="40.85799647194819" lon="8.619891764288218"><ele>9.0</ele><time>2026-05-02T10:02:17.999Z</time></trkpt><trkpt lat="40.857841610892834" lon="8.61970871853955"><ele>9.0</ele><time>2026-05-02T10:02:18.999Z</time></trkpt><trkpt lat="40.85767903496276" lon="8.619519406058814"><ele>9.0</ele><time>2026-05-02T10:02:19.999Z</time></trkpt><trkpt lat="40.85751153105026" lon="8.619287350054828"><ele>10.0</ele><time>2026-05-02T10:02:20.999Z</time></trkpt><trkpt lat="40.85731718741426" lon="8.619052432552486"><ele>11.0</ele><time>2026-05-02T10:02:21.999Z</time></trkpt><trkpt lat="40.85713990234184" lon="8.618837321646325"><ele>10.5</ele><time>2026-05-02T10:02:22.999Z</time></trkpt><trkpt lat="40.856959705906064" lon="8.618638130793304"><ele>10.0</ele><time>2026-05-02T10:02:23.999Z</time></trkpt><trkpt lat="40.856789684013926" lon="8.618418608936476"><ele>11.0</ele><time>2026-05-02T10:02:24.999Z</time></trkpt><trkpt lat="40.85661390163104" lon="8.618214158149897"><ele>12.0</ele><time>2026-05-02T10:02:25.999Z</time></trkpt><trkpt lat="40.85644354916927" lon="8.618015844744894"><ele>11.666666666666666</ele><time>2026-05-02T10:02:26.999Z</time></trkpt><trkpt lat="40.85628783843892" lon="8.617804996005477"><ele>11.333333333333332</ele><time>2026-05-02T10:02:27.999Z</time></trkpt><trkpt lat="40.856126548701994" lon="8.617610041017867"><ele>11.0</ele><time>2026-05-02T10:02:28.999Z</time></trkpt><trkpt lat="40.855966581634675" lon="8.617416465953838"><ele>11.666666666666666</ele><time>2026-05-02T10:02:29.999Z</time></trkpt><trkpt lat="40.85580753754082" lon="8.617222636707213"><ele>12.333333333333332</ele><time>2026-05-02T10:02:30.999Z</time></trkpt><trkpt lat="40.85564787104511" lon="8.617029376402131"><ele>13.0</ele><time>2026-05-02T10:02:31.999Z</time></trkpt><trkpt lat="40.85548924238893" lon="8.616838656307507"><ele>13.0</ele><time>2026-05-02T10:02:32.999Z</time></trkpt><trkpt lat="40.85532837493359" lon="8.616644778556713"><ele>13.0</ele><time>2026-05-02T10:02:33.999Z</time></trkpt><trkpt lat="40.85516881159237" lon="8.61645154191707"><ele>13.0</ele><time>2026-05-02T10:02:34.999Z</time></trkpt><trkpt lat="40.85500175713833" lon="8.616249233270596"><ele>12.5</ele><time>2026-05-02T10:02:35.999Z</time></trkpt><trkpt lat="40.854830275794015" lon="8.616041563527864"><ele>12.0</ele><time>2026-05-02T10:02:36.999Z</time></trkpt><trkpt lat="40.8546556107374" lon="8.615830531704516"><ele>12.0</ele><time>2026-05-02T10:02:37.999Z</time></trkpt><trkpt lat="40.854473103879364" lon="8.615610945184773"><ele>12.0</ele><time>2026-05-02T10:02:38.999Z</time></trkpt><trkpt lat="40.85430293017254" lon="8.615406197511412"><ele>13.333333333333332</ele><time>2026-05-02T10:02:39.999Z</time></trkpt><trkpt lat="40.85414688931348" lon="8.615219035317885"><ele>14.666666666666666</ele><time>2026-05-02T10:02:40.999Z</time></trkpt><trkpt lat="40.85399609349758" lon="8.61503821876619"><ele>16.0</ele><time>2026-05-02T10:02:41.999Z</time></trkpt><trkpt lat="40.85384611024123" lon="8.614858670946859"><ele>16.0</ele><time>2026-05-02T10:02:42.999Z</time></trkpt><trkpt lat="40.85369321273234" lon="8.614676882142435"><ele>16.0</ele><time>2026-05-02T10:02:43.999Z</time></trkpt><trkpt lat="40.85353718164896" lon="8.614491367652663"><ele>16.0</ele><time>2026-05-02T10:02:44.999Z</time></trkpt><trkpt lat="40.85337274465387" lon="8.61432495116124"><ele>15.666666666666666</ele><time>2026-05-02T10:02:45.999Z</time></trkpt><trkpt lat="40.85322594593116" lon="8.614121106827623"><ele>15.333333333333332</ele><time>2026-05-02T10:02:46.999Z</time></trkpt><trkpt lat="40.85305755239856" lon="8.613952096074"><ele>15.0</ele><time>2026-05-02T10:02:47.999Z</time></trkpt><trkpt lat="40.85290021778392" lon="8.613768819598345"><ele>15.333333333333332</ele><time>2026-05-02T10:02:48.999Z</time></trkpt><trkpt lat="40.852745197136215" lon="8.613584667426393"><ele>15.666666666666666</ele><time>2026-05-02T10:02:49.999Z</time></trkpt><trkpt lat="40.852594098588824" lon="8.613401221269834"><ele>16.0</ele><time>2026-05-02T10:02:50.999Z</time></trkpt><trkpt lat="40.85245367647608" lon="8.61320332080288"><ele>16.0</ele><time>2026-05-02T10:02:51.999Z</time></trkpt><trkpt lat="40.85230351926717" lon="8.613025071013016"><ele>16.0</ele><time>2026-05-02T10:02:52.999Z</time></trkpt><trkpt lat="40.85216401977492" lon="8.612859472435897"><ele>16.0</ele><time>2026-05-02T10:02:53.999Z</time></trkpt><trkpt lat="40.852029801087085" lon="8.612699692244082"><ele>16.0</ele><time>2026-05-02T10:02:54.999Z</time></trkpt><trkpt lat="40.85189961383373" lon="8.612544835428999"><ele>16.0</ele><time>2026-05-02T10:02:55.999Z</time></trkpt><trkpt lat="40.85177033964236" lon="8.612391064683392"><ele>16.0</ele><time>2026-05-02T10:02:56.999Z</time></trkpt><trkpt lat="40.85164656519952" lon="8.612242470270507"><ele>16.0</ele><time>2026-05-02T10:02:57.999Z</time></trkpt><trkpt lat="40.85152039160299" lon="8.612092138527938"><ele>16.0</ele><time>2026-05-02T10:02:58.999Z</time></trkpt><trkpt lat="40.85139067974126" lon="8.611937591053408"><ele>16.0</ele><time>2026-05-02T10:02:59.999Z</time></trkpt><trkpt lat="40.85125660649409" lon="8.611777847171153"><ele>16.0</ele><time>2026-05-02T10:03:00.999Z</time></trkpt><trkpt lat="40.851126231140924" lon="8.611622509219762"><ele>16.0</ele><time>2026-05-02T10:03:01.999Z</time></trkpt><trkpt lat="40.85099847341702" lon="8.611470290068285"><ele>16.0</ele><time>2026-05-02T10:03:02.999Z</time></trkpt><trkpt lat="40.85087035320714" lon="8.611317639036832"><ele>16.0</ele><time>2026-05-02T10:03:03.999Z</time></trkpt><trkpt lat="40.850740215097716" lon="8.611162583718892"><ele>16.0</ele><time>2026-05-02T10:03:04.999Z</time></trkpt><trkpt lat="40.85060934600025" lon="8.611006657467946"><ele>16.0</ele><time>2026-05-02T10:03:05.999Z</time></trkpt><trkpt lat="40.850474989499766" lon="8.610846573775856"><ele>15.666666666666666</ele><time>2026-05-02T10:03:06.999Z</time></trkpt><trkpt lat="40.85034328995789" lon="8.61068956966107"><ele>15.333333333333332</ele><time>2026-05-02T10:03:07.999Z</time></trkpt><trkpt lat="40.85022333340443" lon="8.610546564840721"><ele>15.0</ele><time>2026-05-02T10:03:08.997Z</time></trkpt><trkpt lat="40.85010207677151" lon="8.610402168570507"><ele>15.333333333333332</ele><time>2026-05-02T10:03:09.997Z</time></trkpt><trkpt lat="40.8499803628971" lon="8.610257612021774"><ele>15.666666666666666</ele><time>2026-05-02T10:03:10.997Z</time></trkpt><trkpt lat="40.84985922090562" lon="8.610114530392146"><ele>16.0</ele><time>2026-05-02T10:03:11.997Z</time></trkpt><trkpt lat="40.849724003204365" lon="8.609986055025997"><ele>16.0</ele><time>2026-05-02T10:03:12.997Z</time></trkpt><trkpt lat="40.84959970473645" lon="8.609837885275834"><ele>16.0</ele><time>2026-05-02T10:03:13.997Z</time></trkpt><trkpt lat="40.849473667507155" lon="8.609691143413"><ele>16.0</ele><time>2026-05-02T10:03:14.997Z</time></trkpt><trkpt lat="40.849345853444966" lon="8.609543696524266"><ele>17.0</ele><time>2026-05-02T10:03:15.997Z</time></trkpt><trkpt lat="40.84921429693212" lon="8.609393742160025"><ele>18.0</ele><time>2026-05-02T10:03:16.997Z</time></trkpt><trkpt lat="40.84909702464809" lon="8.609208946491549"><ele>19.0</ele><time>2026-05-02T10:03:17.997Z</time></trkpt><trkpt lat="40.84896009808912" lon="8.609048024032738"><ele>19.0</ele><time>2026-05-02T10:03:18.997Z</time></trkpt><trkpt lat="40.84882570816669" lon="8.608887461448457"><ele>19.0</ele><time>2026-05-02T10:03:19.997Z</time></trkpt><trkpt lat="40.84868537992343" lon="8.608720696998876"><ele>19.0</ele><time>2026-05-02T10:03:20.997Z</time></trkpt><trkpt lat="40.848555774217374" lon="8.608566264024926"><ele>19.666666666666664</ele><time>2026-05-02T10:03:21.997Z</time></trkpt><trkpt lat="40.84841604892908" lon="8.60843696036035"><ele>20.333333333333332</ele><time>2026-05-02T10:03:22.998Z</time></trkpt><trkpt lat="40.84827268089575" lon="8.608274484237759"><ele>21.0</ele><time>2026-05-02T10:03:23.998Z</time></trkpt><trkpt lat="40.84811669177771" lon="8.608098953849497"><ele>21.0</ele><time>2026-05-02T10:03:24.998Z</time></trkpt><trkpt lat="40.847958649258736" lon="8.607908636912013"><ele>21.0</ele><time>2026-05-02T10:03:25.998Z</time></trkpt><trkpt lat="40.8478123506028" lon="8.607686282502709"><ele>21.0</ele><time>2026-05-02T10:03:26.998Z</time></trkpt><trkpt lat="40.84765156723772" lon="8.60751308095119"><ele>22.0</ele><time>2026-05-02T10:03:27.998Z</time></trkpt><trkpt lat="40.84752160307313" lon="8.607341070384807"><ele>23.0</ele><time>2026-05-02T10:03:28.998Z</time></trkpt><trkpt lat="40.847406806229586" lon="8.607187352028022"><ele>24.0</ele><time>2026-05-02T10:03:29.998Z</time></trkpt><trkpt lat="40.84730933088235" lon="8.60703146590566"><ele>24.0</ele><time>2026-05-02T10:03:30.998Z</time></trkpt><trkpt lat="40.847229332926894" lon="8.606874792747044"><ele>24.0</ele><time>2026-05-02T10:03:31.998Z</time></trkpt><trkpt lat="40.84716300181396" lon="8.606716601719171"><ele>24.0</ele><time>2026-05-02T10:03:32.998Z</time></trkpt><trkpt lat="40.847091559056025" lon="8.606561566148516"><ele>24.0</ele><time>2026-05-02T10:03:33.998Z</time></trkpt><trkpt lat="40.84700859502244" lon="8.606389786896038"><ele>24.0</ele><time>2026-05-02T10:03:34.998Z</time></trkpt><trkpt lat="40.8469168401629" lon="8.606202031346898"><ele>24.0</ele><time>2026-05-02T10:03:35.998Z</time></trkpt><trkpt lat="40.846810870044024" lon="8.605989825427976"><ele>24.0</ele><time>2026-05-02T10:03:36.998Z</time></trkpt><trkpt lat="40.846688441059754" lon="8.605736136468384"><ele>24.0</ele><time>2026-05-02T10:03:37.998Z</time></trkpt><trkpt lat="40.846530675546724" lon="8.605473558628402"><ele>24.0</ele><time>2026-05-02T10:03:38.998Z</time></trkpt><trkpt lat="40.84636005388895" lon="8.605227603174743"><ele>24.0</ele><time>2026-05-02T10:03:39.999Z</time></trkpt><trkpt lat="40.846163707148904" lon="8.604984560804015"><ele>24.0</ele><time>2026-05-02T10:03:40.999Z</time></trkpt><trkpt lat="40.84596878208341" lon="8.604745685848341"><ele>24.5</ele><time>2026-05-02T10:03:41.999Z</time></trkpt><trkpt lat="40.84579610377272" lon="8.60453134101828"><ele>25.0</ele><time>2026-05-02T10:03:42.999Z</time></trkpt><trkpt lat="40.84563628196" lon="8.604328786685711"><ele>23.333333333333336</ele><time>2026-05-02T10:03:43.999Z</time></trkpt><trkpt lat="40.84548615214802" lon="8.60413769593727"><ele>21.666666666666668</ele><time>2026-05-02T10:03:44.999Z</time></trkpt><trkpt lat="40.845344296499256" lon="8.603954425291292"><ele>20.0</ele><time>2026-05-02T10:03:45.999Z</time></trkpt><trkpt lat="40.84519363426259" lon="8.603759027764447"><ele>19.5</ele><time>2026-05-02T10:03:46.999Z</time></trkpt><trkpt lat="40.845030482792424" lon="8.603548444531452"><ele>19.0</ele><time>2026-05-02T10:03:47.999Z</time></trkpt><trkpt lat="40.84485880173464" lon="8.603328881133946"><ele>19.0</ele><time>2026-05-02T10:03:48.999Z</time></trkpt><trkpt lat="40.844679326856294" lon="8.603098803735163"><ele>19.0</ele><time>2026-05-02T10:03:49.999Z</time></trkpt><trkpt lat="40.84448765713318" lon="8.602855402747617"><ele>18.5</ele><time>2026-05-02T10:03:50.999Z</time></trkpt><trkpt lat="40.844299366638644" lon="8.602616845776128"><ele>18.0</ele><time>2026-05-02T10:03:51.999Z</time></trkpt><trkpt lat="40.844112856322845" lon="8.602375155413913"><ele>19.0</ele><time>2026-05-02T10:03:52.999Z</time></trkpt><trkpt lat="40.843932290173775" lon="8.602146099697265"><ele>20.0</ele><time>2026-05-02T10:03:53.999Z</time></trkpt><trkpt lat="40.84375402924016" lon="8.601924763176076"><ele>20.0</ele><time>2026-05-02T10:03:54.999Z</time></trkpt><trkpt lat="40.84358530101279" lon="8.601711322061407"><ele>20.0</ele><time>2026-05-02T10:03:55.999Z</time></trkpt><trkpt lat="40.84341963234663" lon="8.601502229662481"><ele>21.0</ele><time>2026-05-02T10:03:56.999Z</time></trkpt><trkpt lat="40.8432627798085" lon="8.601299238906895"><ele>22.0</ele><time>2026-05-02T10:03:57.999Z</time></trkpt><trkpt lat="40.84312108963035" lon="8.601112780672269"><ele>23.0</ele><time>2026-05-02T10:03:58.999Z</time></trkpt><trkpt lat="40.84298261770075" lon="8.60093739527083"><ele>23.0</ele><time>2026-05-02T10:03:59.999Z</time></trkpt><trkpt lat="40.84284411680155" lon="8.600766173646734"><ele>23.0</ele><time>2026-05-02T10:04:00.999Z</time></trkpt><trkpt lat="40.842713071712275" lon="8.600611319744193"><ele>23.0</ele><time>2026-05-02T10:04:01.999Z</time></trkpt><trkpt lat="40.842584628360214" lon="8.60045627735186"><ele>24.0</ele><time>2026-05-02T10:04:02.999Z</time></trkpt><trkpt lat="40.84244621306187" lon="8.600295433617111"><ele>25.0</ele><time>2026-05-02T10:04:03.999Z</time></trkpt><trkpt lat="40.842311999544584" lon="8.600107850584045"><ele>26.0</ele><time>2026-05-02T10:04:04.999Z</time></trkpt><trkpt lat="40.8421167274093" lon="8.599880721270475"><ele>26.0</ele><time>2026-05-02T10:04:05.999Z</time></trkpt><trkpt lat="40.84189527822672" lon="8.599619990013428"><ele>26.0</ele><time>2026-05-02T10:04:06.999Z</time></trkpt><trkpt lat="40.84167486335676" lon="8.59935970020627"><ele>25.5</ele><time>2026-05-02T10:04:07.999Z</time></trkpt><trkpt lat="40.84145757599975" lon="8.599102908095903"><ele>25.0</ele><time>2026-05-02T10:04:08.999Z</time></trkpt><trkpt lat="40.84122641304678" lon="8.59885878062954"><ele>25.0</ele><time>2026-05-02T10:04:09.999Z</time></trkpt><trkpt lat="40.8410096057953" lon="8.59857349298306"><ele>25.0</ele><time>2026-05-02T10:04:10.999Z</time></trkpt><trkpt lat="40.84077331787351" lon="8.598319135132625"><ele>25.0</ele><time>2026-05-02T10:04:11.999Z</time></trkpt><trkpt lat="40.84056184645404" lon="8.598068456566118"><ele>25.0</ele><time>2026-05-02T10:04:12.999Z</time></trkpt><trkpt lat="40.84037048502089" lon="8.59783845156852"><ele>25.0</ele><time>2026-05-02T10:04:13.999Z</time></trkpt><trkpt lat="40.84020609449573" lon="8.597604967803559"><ele>25.0</ele><time>2026-05-02T10:04:14.999Z</time></trkpt><trkpt lat="40.840062194631045" lon="8.597401717705878"><ele>25.0</ele><time>2026-05-02T10:04:15.999Z</time></trkpt><trkpt lat="40.83992347699361" lon="8.597195756876978"><ele>25.0</ele><time>2026-05-02T10:04:16.999Z</time></trkpt><trkpt lat="40.83978427759786" lon="8.597011585194055"><ele>25.0</ele><time>2026-05-02T10:04:17.999Z</time></trkpt><trkpt lat="40.83965818671972" lon="8.59682115559306"><ele>24.333333333333336</ele><time>2026-05-02T10:04:18.999Z</time></trkpt><trkpt lat="40.83954263124061" lon="8.5966308065901"><ele>23.666666666666668</ele><time>2026-05-02T10:04:19.999Z</time></trkpt><trkpt lat="40.83943002368121" lon="8.596453805978816"><ele>23.0</ele><time>2026-05-02T10:04:20.999Z</time></trkpt><trkpt lat="40.83931460016987" lon="8.596271279727098"><ele>23.0</ele><time>2026-05-02T10:04:21.999Z</time></trkpt><trkpt lat="40.839187749046616" lon="8.596065738597687"><ele>23.0</ele><time>2026-05-02T10:04:22.999Z</time></trkpt><trkpt lat="40.839028994991615" lon="8.595807493892197"><ele>23.0</ele><time>2026-05-02T10:04:23.999Z</time></trkpt><trkpt lat="40.83883111509679" lon="8.595499253857243"><ele>23.0</ele><time>2026-05-02T10:04:24.999Z</time></trkpt><trkpt lat="40.838612302636676" lon="8.595155352747971"><ele>23.5</ele><time>2026-05-02T10:04:25.999Z</time></trkpt><trkpt lat="40.838390517622415" lon="8.594827947829387"><ele>24.0</ele><time>2026-05-02T10:04:26.999Z</time></trkpt><trkpt lat="40.83820054017075" lon="8.594532452285627"><ele>22.5</ele><time>2026-05-02T10:04:27.999Z</time></trkpt><trkpt lat="40.83802514657524" lon="8.59425200134004"><ele>21.0</ele><time>2026-05-02T10:04:28.999Z</time></trkpt><trkpt lat="40.83787373747118" lon="8.594017723820453"><ele>21.0</ele><time>2026-05-02T10:04:29.999Z</time></trkpt><trkpt lat="40.83774649098255" lon="8.59380471433581"><ele>21.0</ele><time>2026-05-02T10:04:30.999Z</time></trkpt><trkpt lat="40.83763581108782" lon="8.593582337955665"><ele>21.0</ele><time>2026-05-02T10:04:31.999Z</time></trkpt><trkpt lat="40.83754409720129" lon="8.59335379659941"><ele>20.666666666666668</ele><time>2026-05-02T10:04:32.999Z</time></trkpt><trkpt lat="40.837460942801" lon="8.593113422051436"><ele>20.333333333333336</ele><time>2026-05-02T10:04:33.999Z</time></trkpt><trkpt lat="40.837388336723095" lon="8.59285856404348"><ele>20.0</ele><time>2026-05-02T10:04:34.999Z</time></trkpt><trkpt lat="40.83732467345581" lon="8.59259066789399"><ele>19.666666666666668</ele><time>2026-05-02T10:04:35.999Z</time></trkpt><trkpt lat="40.83728188770392" lon="8.592307934811881"><ele>19.333333333333332</ele><time>2026-05-02T10:04:36.999Z</time></trkpt><trkpt lat="40.83725874003182" lon="8.592013825582024"><ele>19.0</ele><time>2026-05-02T10:04:37.999Z</time></trkpt><trkpt lat="40.83724780844977" lon="8.591715859043154"><ele>18.5</ele><time>2026-05-02T10:04:38.999Z</time></trkpt><trkpt lat="40.837253555564395" lon="8.591413519211134"><ele>18.0</ele><time>2026-05-02T10:04:39.999Z</time></trkpt><trkpt lat="40.8372796490315" lon="8.59111130720891"><ele>17.5</ele><time>2026-05-02T10:04:40.999Z</time></trkpt><trkpt lat="40.837313587843504" lon="8.59080611686798"><ele>17.0</ele><time>2026-05-02T10:04:41.999Z</time></trkpt><trkpt lat="40.83733940855924" lon="8.59050510578503"><ele>16.333333333333336</ele><time>2026-05-02T10:04:42.999Z</time></trkpt><trkpt lat="40.837359313825544" lon="8.590211601268406"><ele>15.666666666666668</ele><time>2026-05-02T10:04:43.999Z</time></trkpt><trkpt lat="40.837363117568515" lon="8.589950669196794"><ele>15.0</ele><time>2026-05-02T10:04:44.999Z</time></trkpt><trkpt lat="40.837352001286256" lon="8.589696661042833"><ele>14.666666666666668</ele><time>2026-05-02T10:04:45.999Z</time></trkpt><trkpt lat="40.83731655998026" lon="8.589433543923812"><ele>14.333333333333334</ele><time>2026-05-02T10:04:46.999Z</time></trkpt><trkpt lat="40.837272387560816" lon="8.589172544071854"><ele>14.0</ele><time>2026-05-02T10:04:47.999Z</time></trkpt><trkpt lat="40.83720987681619" lon="8.5889056779666"><ele>13.5</ele><time>2026-05-02T10:04:48.999Z</time></trkpt><trkpt lat="40.837127360950376" lon="8.588638975799743"><ele>13.0</ele><time>2026-05-02T10:04:49.999Z</time></trkpt><trkpt lat="40.83702702613848" lon="8.588360077061695"><ele>13.0</ele><time>2026-05-02T10:04:50.999Z</time></trkpt><trkpt lat="40.83692278181298" lon="8.588071263697358"><ele>13.0</ele><time>2026-05-02T10:04:51.999Z</time></trkpt><trkpt lat="40.836827236428945" lon="8.587800173022767"><ele>11.333333333333332</ele><time>2026-05-02T10:04:52.999Z</time></trkpt><trkpt lat="40.83674173921234" lon="8.587546915719008"><ele>9.666666666666666</ele><time>2026-05-02T10:04:53.999Z</time></trkpt><trkpt lat="40.83666693414282" lon="8.587332402368656"><ele>8.0</ele><time>2026-05-02T10:04:54.999Z</time></trkpt><trkpt lat="40.836594755733174" lon="8.587139323126593"><ele>8.0</ele><time>2026-05-02T10:04:55.999Z</time></trkpt><trkpt lat="40.83652314228876" lon="8.586962153541146"><ele>8.0</ele><time>2026-05-02T10:04:56.999Z</time></trkpt><trkpt lat="40.83644856531505" lon="8.58679068565963"><ele>8.0</ele><time>2026-05-02T10:04:57.999Z</time></trkpt><trkpt lat="40.83636862848156" lon="8.586638055652507"><ele>8.0</ele><time>2026-05-02T10:04:58.999Z</time></trkpt><trkpt lat="40.836289958758805" lon="8.586501923373174"><ele>8.0</ele><time>2026-05-02T10:04:59.999Z</time></trkpt><trkpt lat="40.83622419854366" lon="8.586397561901492"><ele>8.0</ele><time>2026-05-02T10:05:00.999Z</time></trkpt><trkpt lat="40.8361629147622" lon="8.58630916959586"><ele>8.0</ele><time>2026-05-02T10:05:01.999Z</time></trkpt><trkpt lat="40.83608748664847" lon="8.586215869708102"><ele>8.0</ele><time>2026-05-02T10:05:02.999Z</time></trkpt><trkpt lat="40.83601213400787" lon="8.586122991156929"><ele>8.0</ele><time>2026-05-02T10:05:03.999Z</time></trkpt><trkpt lat="40.83593745025184" lon="8.586029731737685"><ele>7.2</ele><time>2026-05-02T10:05:04.999Z</time></trkpt><trkpt lat="40.83586178078387" lon="8.585939089772083"><ele>6.4</ele><time>2026-05-02T10:05:05.999Z</time></trkpt><trkpt lat="40.835792427754356" lon="8.585855041396576"><ele>5.6000000000000005</ele><time>2026-05-02T10:05:06.999Z</time></trkpt><trkpt lat="40.835711281862515" lon="8.585774234518073"><ele>4.800000000000001</ele><time>2026-05-02T10:05:07.999Z</time></trkpt><trkpt lat="40.835617124841825" lon="8.585674356478105"><ele>4.0</ele><time>2026-05-02T10:05:08.999Z</time></trkpt><trkpt lat="40.83552123230179" lon="8.585575329693443"><ele>4.0</ele><time>2026-05-02T10:05:09.999Z</time></trkpt><trkpt lat="40.83542902808838" lon="8.58546981524834"><ele>4.0</ele><time>2026-05-02T10:05:10.999Z</time></trkpt><trkpt lat="40.83533421500038" lon="8.585355370560759"><ele>4.0</ele><time>2026-05-02T10:05:11.999Z</time></trkpt><trkpt lat="40.83523062138668" lon="8.585239575369746"><ele>4.0</ele><time>2026-05-02T10:05:12.999Z</time></trkpt><trkpt lat="40.835122537899835" lon="8.585125745876239"><ele>3.5</ele><time>2026-05-02T10:05:13.999Z</time></trkpt><trkpt lat="40.83501616541102" lon="8.58501091249471"><ele>3.0</ele><time>2026-05-02T10:05:14.998Z</time></trkpt><trkpt lat="40.83491227967308" lon="8.584902753755731"><ele>2.5</ele><time>2026-05-02T10:05:15.998Z</time></trkpt><trkpt lat="40.834809239607466" lon="8.584794881311543"><ele>2.0</ele><time>2026-05-02T10:05:16.998Z</time></trkpt><trkpt lat="40.834708330360776" lon="8.5846870867497"><ele>2.0</ele><time>2026-05-02T10:05:17.998Z</time></trkpt><trkpt lat="40.83461197402929" lon="8.584581072713043"><ele>2.0</ele><time>2026-05-02T10:05:18.998Z</time></trkpt><trkpt lat="40.83452491485767" lon="8.584476636208409"><ele>2.0</ele><time>2026-05-02T10:05:19.998Z</time></trkpt><trkpt lat="40.834448438306694" lon="8.58436954928669"><ele>2.0</ele><time>2026-05-02T10:05:20.998Z</time></trkpt><trkpt lat="40.83437836547916" lon="8.584257335972419"><ele>2.0</ele><time>2026-05-02T10:05:21.998Z</time></trkpt><trkpt lat="40.83431307549101" lon="8.584145795986469"><ele>2.0</ele><time>2026-05-02T10:05:22.998Z</time></trkpt><trkpt lat="40.834250383820574" lon="8.584032835304127"><ele>2.0</ele><time>2026-05-02T10:05:23.998Z</time></trkpt><trkpt lat="40.834190166212046" lon="8.583920963039906"><ele>2.0</ele><time>2026-05-02T10:05:24.998Z</time></trkpt><trkpt lat="40.83413058723172" lon="8.583796222193637"><ele>2.0</ele><time>2026-05-02T10:05:25.998Z</time></trkpt><trkpt lat="40.83406356940035" lon="8.583641584718379"><ele>5.0</ele><time>2026-05-02T10:05:26.998Z</time></trkpt><trkpt lat="40.83396553882513" lon="8.583410170427033"><ele>8.0</ele><time>2026-05-02T10:05:27.998Z</time></trkpt><trkpt lat="40.83386161741322" lon="8.583148831610886"><ele>11.0</ele><time>2026-05-02T10:05:28.998Z</time></trkpt><trkpt lat="40.833746256522396" lon="8.582850879853218"><ele>11.5</ele><time>2026-05-02T10:05:29.998Z</time></trkpt><trkpt lat="40.83363365927918" lon="8.582506332732732"><ele>12.0</ele><time>2026-05-02T10:05:30.998Z</time></trkpt><trkpt lat="40.833499981061536" lon="8.582152907221252"><ele>11.5</ele><time>2026-05-02T10:05:31.999Z</time></trkpt><trkpt lat="40.83338278466192" lon="8.581842313168055"><ele>11.0</ele><time>2026-05-02T10:05:32.999Z</time></trkpt><trkpt lat="40.83327212205589" lon="8.581592322350465"><ele>11.0</ele><time>2026-05-02T10:05:33.999Z</time></trkpt><trkpt lat="40.833181146617754" lon="8.581345280454599"><ele>11.0</ele><time>2026-05-02T10:05:34.999Z</time></trkpt><trkpt lat="40.833089779752335" lon="8.581061499877292"><ele>11.0</ele><time>2026-05-02T10:05:35.999Z</time></trkpt><trkpt lat="40.832973586381264" lon="8.580753992232152"><ele>11.0</ele><time>2026-05-02T10:05:36.999Z</time></trkpt><trkpt lat="40.832844890051526" lon="8.580414539948594"><ele>11.0</ele><time>2026-05-02T10:05:37.999Z</time></trkpt><trkpt lat="40.832701655027385" lon="8.580074313295043"><ele>13.5</ele><time>2026-05-02T10:05:38.999Z</time></trkpt><trkpt lat="40.83258170795387" lon="8.579723851218494"><ele>16.0</ele><time>2026-05-02T10:05:39.999Z</time></trkpt><trkpt lat="40.832454988761796" lon="8.579387589219499"><ele>16.0</ele><time>2026-05-02T10:05:40.999Z</time></trkpt><trkpt lat="40.83234072187457" lon="8.579031810707527"><ele>16.0</ele><time>2026-05-02T10:05:41.999Z</time></trkpt><trkpt lat="40.832202028851945" lon="8.578686728369162"><ele>15.5</ele><time>2026-05-02T10:05:42.999Z</time></trkpt><trkpt lat="40.832082070725676" lon="8.578328524016348"><ele>15.0</ele><time>2026-05-02T10:05:43.999Z</time></trkpt><trkpt lat="40.83195455995938" lon="8.577974477397094"><ele>15.5</ele><time>2026-05-02T10:05:44.999Z</time></trkpt><trkpt lat="40.83182691347204" lon="8.577616458142828"><ele>16.0</ele><time>2026-05-02T10:05:45.999Z</time></trkpt><trkpt lat="40.831706349696105" lon="8.577256727224139"><ele>15.5</ele><time>2026-05-02T10:05:46.999Z</time></trkpt><trkpt lat="40.83158007618414" lon="8.576904517569293"><ele>15.0</ele><time>2026-05-02T10:05:47.999Z</time></trkpt><trkpt lat="40.83144316519812" lon="8.57653989939631"><ele>15.5</ele><time>2026-05-02T10:05:48.999Z</time></trkpt><trkpt lat="40.83130573991385" lon="8.576161885953825"><ele>16.0</ele><time>2026-05-02T10:05:49.999Z</time></trkpt><trkpt lat="40.83118022569605" lon="8.575776068181156"><ele>16.0</ele><time>2026-05-02T10:05:50.999Z</time></trkpt><trkpt lat="40.831043236005186" lon="8.575391188948577"><ele>16.0</ele><time>2026-05-02T10:05:51.999Z</time></trkpt><trkpt lat="40.83088900610927" lon="8.575011020396936"><ele>16.5</ele><time>2026-05-02T10:05:52.999Z</time></trkpt><trkpt lat="40.83076690942089" lon="8.574637309884661"><ele>17.0</ele><time>2026-05-02T10:05:53.999Z</time></trkpt><trkpt lat="40.83064375601528" lon="8.574310289658603"><ele>17.0</ele><time>2026-05-02T10:05:54.999Z</time></trkpt><trkpt lat="40.830535916608284" lon="8.573974408795717"><ele>17.0</ele><time>2026-05-02T10:05:55.999Z</time></trkpt><trkpt lat="40.83042614308457" lon="8.573637687410441"><ele>17.5</ele><time>2026-05-02T10:05:56.999Z</time></trkpt><trkpt lat="40.8303092388577" lon="8.573316761600235"><ele>18.0</ele><time>2026-05-02T10:05:57.999Z</time></trkpt><trkpt lat="40.83019501097505" lon="8.572987238046384"><ele>19.5</ele><time>2026-05-02T10:05:58.999Z</time></trkpt><trkpt lat="40.8300882629649" lon="8.572652156167564"><ele>21.0</ele><time>2026-05-02T10:05:59.999Z</time></trkpt><trkpt lat="40.82998185536049" lon="8.572311822288013"><ele>20.5</ele><time>2026-05-02T10:06:00.999Z</time></trkpt><trkpt lat="40.82987691265466" lon="8.571980755486642"><ele>20.0</ele><time>2026-05-02T10:06:01.999Z</time></trkpt><trkpt lat="40.82976926096966" lon="8.571646782389914"><ele>20.0</ele><time>2026-05-02T10:06:02.999Z</time></trkpt><trkpt lat="40.829665242867385" lon="8.57131644695194"><ele>20.0</ele><time>2026-05-02T10:06:04Z</time></trkpt><trkpt lat="40.8295641472161" lon="8.570988570942607"><ele>20.0</ele><time>2026-05-02T10:06:05Z</time></trkpt><trkpt lat="40.829459722437214" lon="8.570672838909223"><ele>20.0</ele><time>2026-05-02T10:06:06Z</time></trkpt><trkpt lat="40.829357532894555" lon="8.570351777325985"><ele>20.5</ele><time>2026-05-02T10:06:07Z</time></trkpt><trkpt lat="40.82925696377124" lon="8.57002507684373"><ele>21.0</ele><time>2026-05-02T10:06:08Z</time></trkpt><trkpt lat="40.829150837582205" lon="8.569693855057723"><ele>20.5</ele><time>2026-05-02T10:06:09Z</time></trkpt><trkpt lat="40.82904091459237" lon="8.569360840587871"><ele>20.0</ele><time>2026-05-02T10:06:10Z</time></trkpt><trkpt lat="40.82893655261218" lon="8.569033384902342"><ele>20.0</ele><time>2026-05-02T10:06:11Z</time></trkpt><trkpt lat="40.82884303020326" lon="8.568704893452791"><ele>20.0</ele><time>2026-05-02T10:06:12Z</time></trkpt><trkpt lat="40.82874738621934" lon="8.568366772321198"><ele>20.0</ele><time>2026-05-02T10:06:13Z</time></trkpt><trkpt lat="40.828658532249285" lon="8.568023398050183"><ele>20.0</ele><time>2026-05-02T10:06:14Z</time></trkpt><trkpt lat="40.82857571724559" lon="8.567675700314508"><ele>20.0</ele><time>2026-05-02T10:06:15Z</time></trkpt><trkpt lat="40.82848630323172" lon="8.567333138323262"><ele>20.0</ele><time>2026-05-02T10:06:16Z</time></trkpt><trkpt lat="40.82839565620451" lon="8.566995955102986"><ele>21.5</ele><time>2026-05-02T10:06:17Z</time></trkpt><trkpt lat="40.82830592073912" lon="8.566656401771823"><ele>23.0</ele><time>2026-05-02T10:06:18Z</time></trkpt><trkpt lat="40.828222269106625" lon="8.566310657574677"><ele>22.0</ele><time>2026-05-02T10:06:19Z</time></trkpt><trkpt lat="40.82815697755298" lon="8.565946963622089"><ele>21.0</ele><time>2026-05-02T10:06:20Z</time></trkpt><trkpt lat="40.82811410703225" lon="8.565576729572987"><ele>21.5</ele><time>2026-05-02T10:06:21Z</time></trkpt><trkpt lat="40.82808962624002" lon="8.565203465366938"><ele>22.0</ele><time>2026-05-02T10:06:22Z</time></trkpt><trkpt lat="40.8280840292536" lon="8.564823721142824"><ele>21.0</ele><time>2026-05-02T10:06:23Z</time></trkpt><trkpt lat="40.82809657332472" lon="8.564450815953597"><ele>20.0</ele><time>2026-05-02T10:06:24Z</time></trkpt><trkpt lat="40.828133531415354" lon="8.564067462728687"><ele>19.0</ele><time>2026-05-02T10:06:25Z</time></trkpt><trkpt lat="40.8281818223786" lon="8.563693658282961"><ele>18.0</ele><time>2026-05-02T10:06:26Z</time></trkpt><trkpt lat="40.82823105509964" lon="8.563313016696945"><ele>18.0</ele><time>2026-05-02T10:06:27Z</time></trkpt><trkpt lat="40.82827466287343" lon="8.562933283502037"><ele>18.0</ele><time>2026-05-02T10:06:28Z</time></trkpt><trkpt lat="40.82831436942693" lon="8.562557216053733"><ele>18.0</ele><time>2026-05-02T10:06:29Z</time></trkpt><trkpt lat="40.828352463214976" lon="8.562187810160928"><ele>18.0</ele><time>2026-05-02T10:06:30Z</time></trkpt><trkpt lat="40.828398740359205" lon="8.561823559891891"><ele>17.0</ele><time>2026-05-02T10:06:31Z</time></trkpt><trkpt lat="40.82844272649789" lon="8.561449276372237"><ele>16.0</ele><time>2026-05-02T10:06:32Z</time></trkpt><trkpt lat="40.82848447102441" lon="8.56108417967614"><ele>14.5</ele><time>2026-05-02T10:06:33Z</time></trkpt><trkpt lat="40.82852441952387" lon="8.560720486162815"><ele>13.0</ele><time>2026-05-02T10:06:34Z</time></trkpt><trkpt lat="40.82856434546762" lon="8.560373970299288"><ele>14.0</ele><time>2026-05-02T10:06:35Z</time></trkpt><trkpt lat="40.828591542164915" lon="8.560039326675948"><ele>15.0</ele><time>2026-05-02T10:06:36Z</time></trkpt><trkpt lat="40.828595410633135" lon="8.55970694819794"><ele>15.0</ele><time>2026-05-02T10:06:37Z</time></trkpt><trkpt lat="40.82857864964444" lon="8.55936205077718"><ele>15.0</ele><time>2026-05-02T10:06:38Z</time></trkpt><trkpt lat="40.828549866760135" lon="8.559020217827124"><ele>15.0</ele><time>2026-05-02T10:06:39Z</time></trkpt><trkpt lat="40.82852357114385" lon="8.55867162435276"><ele>15.0</ele><time>2026-05-02T10:06:40Z</time></trkpt><trkpt lat="40.8284910213256" lon="8.558330858871669"><ele>16.0</ele><time>2026-05-02T10:06:41Z</time></trkpt><trkpt lat="40.82846798258216" lon="8.55798645908606"><ele>17.0</ele><time>2026-05-02T10:06:42Z</time></trkpt><trkpt lat="40.82845262020558" lon="8.557638426121878"><ele>17.0</ele><time>2026-05-02T10:06:43Z</time></trkpt><trkpt lat="40.82844503698737" lon="8.557305545984836"><ele>17.0</ele><time>2026-05-02T10:06:44Z</time></trkpt><trkpt lat="40.82843880928854" lon="8.556968891571156"><ele>16.0</ele><time>2026-05-02T10:06:45Z</time></trkpt><trkpt lat="40.8284303983041" lon="8.556641995782305"><ele>15.0</ele><time>2026-05-02T10:06:46Z</time></trkpt><trkpt lat="40.82840763884435" lon="8.5563157671103"><ele>14.5</ele><time>2026-05-02T10:06:47Z</time></trkpt><trkpt lat="40.828364693100035" lon="8.556001049074569"><ele>14.0</ele><time>2026-05-02T10:06:48Z</time></trkpt><trkpt lat="40.82830946364004" lon="8.555730142827956"><ele>14.0</ele><time>2026-05-02T10:06:49Z</time></trkpt><trkpt lat="40.82825507645203" lon="8.55550176300169"><ele>14.0</ele><time>2026-05-02T10:06:50Z</time></trkpt><trkpt lat="40.82821524827183" lon="8.555311282467974"><ele>14.0</ele><time>2026-05-02T10:06:51Z</time></trkpt><trkpt lat="40.828184582173634" lon="8.55513203918868"><ele>14.0</ele><time>2026-05-02T10:06:52Z</time></trkpt><trkpt lat="40.82817045837798" lon="8.554965866610441"><ele>13.999999999999998</ele><time>2026-05-02T10:06:53Z</time></trkpt><trkpt lat="40.82816238348813" lon="8.554816150398414"><ele>13.999999999999998</ele><time>2026-05-02T10:06:54Z</time></trkpt><trkpt lat="40.82814345813802" lon="8.55468095495124"><ele>14.0</ele><time>2026-05-02T10:06:55Z</time></trkpt><trkpt lat="40.828115222397805" lon="8.554577382569486"><ele>14.0</ele><time>2026-05-02T10:06:56Z</time></trkpt><trkpt lat="40.82804804154828" lon="8.55447590620407"><ele>14.0</ele><time>2026-05-02T10:06:58Z</time></trkpt><trkpt lat="40.827976243541876" lon="8.554492745298765"><ele>13.999999999999998</ele><time>2026-05-02T10:07:00Z</time></trkpt><trkpt lat="40.827917953625736" lon="8.554553966762128"><ele>13.999999999999998</ele><time>2026-05-02T10:07:01Z</time></trkpt><trkpt lat="40.82787048719382" lon="8.554672812895152"><ele>14.0</ele><time>2026-05-02T10:07:02Z</time></trkpt><trkpt lat="40.82779000802623" lon="8.554783219674157"><ele>14.0</ele><time>2026-05-02T10:07:03Z</time></trkpt><trkpt lat="40.827678949731386" lon="8.554864218343358"><ele>14.5</ele><time>2026-05-02T10:07:04Z</time></trkpt><trkpt lat="40.82756924180632" lon="8.55493903790936"><ele>15.0</ele><time>2026-05-02T10:07:05Z</time></trkpt><trkpt lat="40.827447410249654" lon="8.555018129346623"><ele>15.5</ele><time>2026-05-02T10:07:06Z</time></trkpt><trkpt lat="40.827318991361025" lon="8.555102045008343"><ele>16.0</ele><time>2026-05-02T10:07:07Z</time></trkpt><trkpt lat="40.82718278297279" lon="8.555192957807975"><ele>16.0</ele><time>2026-05-02T10:07:08Z</time></trkpt><trkpt lat="40.82703869982883" lon="8.555289661095715"><ele>16.0</ele><time>2026-05-02T10:07:09Z</time></trkpt><trkpt lat="40.82688628606691" lon="8.555395845747631"><ele>16.0</ele><time>2026-05-02T10:07:10Z</time></trkpt><trkpt lat="40.82672633834777" lon="8.555502404737116"><ele>16.333333333333332</ele><time>2026-05-02T10:07:11Z</time></trkpt><trkpt lat="40.82655504786589" lon="8.555613256445547"><ele>16.666666666666668</ele><time>2026-05-02T10:07:12Z</time></trkpt><trkpt lat="40.82638333907761" lon="8.555727624941557"><ele>17.0</ele><time>2026-05-02T10:07:13Z</time></trkpt><trkpt lat="40.82620929082693" lon="8.55584718855406"><ele>17.0</ele><time>2026-05-02T10:07:14Z</time></trkpt><trkpt lat="40.82602471658747" lon="8.555973174009148"><ele>17.0</ele><time>2026-05-02T10:07:15Z</time></trkpt><trkpt lat="40.82583613795314" lon="8.556092166059626"><ele>17.0</ele><time>2026-05-02T10:07:16Z</time></trkpt><trkpt lat="40.82565052130596" lon="8.556213713070147"><ele>17.333333333333336</ele><time>2026-05-02T10:07:17Z</time></trkpt><trkpt lat="40.82546518305964" lon="8.556341323311397"><ele>17.666666666666668</ele><time>2026-05-02T10:07:18Z</time></trkpt><trkpt lat="40.82527253599707" lon="8.556468885458697"><ele>18.0</ele><time>2026-05-02T10:07:19Z</time></trkpt><trkpt lat="40.82507825161905" lon="8.556596335111864"><ele>19.666666666666668</ele><time>2026-05-02T10:07:20Z</time></trkpt><trkpt lat="40.824890893481516" lon="8.556722520477948"><ele>21.333333333333336</ele><time>2026-05-02T10:07:21Z</time></trkpt><trkpt lat="40.82470696083827" lon="8.556848175481937"><ele>23.0</ele><time>2026-05-02T10:07:22Z</time></trkpt><trkpt lat="40.8245146755001" lon="8.556976446969488"><ele>24.0</ele><time>2026-05-02T10:07:23Z</time></trkpt><trkpt lat="40.82431217048889" lon="8.557114076487455"><ele>25.0</ele><time>2026-05-02T10:07:24Z</time></trkpt><trkpt lat="40.82409803354482" lon="8.55725838136836"><ele>25.0</ele><time>2026-05-02T10:07:25Z</time></trkpt><trkpt lat="40.82387835023278" lon="8.557401176972647"><ele>25.0</ele><time>2026-05-02T10:07:26Z</time></trkpt><trkpt lat="40.82365336008805" lon="8.557550344302157"><ele>24.5</ele><time>2026-05-02T10:07:27Z</time></trkpt><trkpt lat="40.82342830808613" lon="8.557701050306587"><ele>24.0</ele><time>2026-05-02T10:07:28Z</time></trkpt><trkpt lat="40.82321083338425" lon="8.557846495103572"><ele>25.0</ele><time>2026-05-02T10:07:29Z</time></trkpt><trkpt lat="40.822997379212374" lon="8.557983872014066"><ele>26.0</ele><time>2026-05-02T10:07:30Z</time></trkpt><trkpt lat="40.82278131531791" lon="8.558126402067273"><ele>26.0</ele><time>2026-05-02T10:07:31Z</time></trkpt><trkpt lat="40.82256680205257" lon="8.558271888899748"><ele>26.0</ele><time>2026-05-02T10:07:32Z</time></trkpt><trkpt lat="40.822347641703786" lon="8.558418465311215"><ele>26.0</ele><time>2026-05-02T10:07:33Z</time></trkpt><trkpt lat="40.82212386569369" lon="8.558568548677663"><ele>26.0</ele><time>2026-05-02T10:07:34Z</time></trkpt><trkpt lat="40.821896515464786" lon="8.558720255332465"><ele>27.0</ele><time>2026-05-02T10:07:35Z</time></trkpt><trkpt lat="40.82167097738708" lon="8.558868738916786"><ele>28.0</ele><time>2026-05-02T10:07:36Z</time></trkpt><trkpt lat="40.8214399462466" lon="8.559019312751651"><ele>28.0</ele><time>2026-05-02T10:07:37Z</time></trkpt><trkpt lat="40.82121404006863" lon="8.559168057413533"><ele>28.0</ele><time>2026-05-02T10:07:38Z</time></trkpt><trkpt lat="40.82099309040883" lon="8.559308714251777"><ele>29.0</ele><time>2026-05-02T10:07:39Z</time></trkpt><trkpt lat="40.8207807447955" lon="8.559443174941816"><ele>30.0</ele><time>2026-05-02T10:07:40Z</time></trkpt><trkpt lat="40.82057773715525" lon="8.559585350107294"><ele>30.5</ele><time>2026-05-02T10:07:41Z</time></trkpt><trkpt lat="40.82037014537706" lon="8.559731712454282"><ele>31.0</ele><time>2026-05-02T10:07:42Z</time></trkpt><trkpt lat="40.82015560016254" lon="8.559880981681582"><ele>31.0</ele><time>2026-05-02T10:07:43Z</time></trkpt><trkpt lat="40.81993878904671" lon="8.560026883665737"><ele>31.0</ele><time>2026-05-02T10:07:44Z</time></trkpt><trkpt lat="40.819722195711854" lon="8.560162772957284"><ele>31.0</ele><time>2026-05-02T10:07:45Z</time></trkpt><trkpt lat="40.81951527697228" lon="8.5602956640235"><ele>31.0</ele><time>2026-05-02T10:07:46Z</time></trkpt><trkpt lat="40.81931561751442" lon="8.56043380239054"><ele>31.5</ele><time>2026-05-02T10:07:47Z</time></trkpt><trkpt lat="40.81911248002709" lon="8.560567788711603"><ele>32.0</ele><time>2026-05-02T10:07:48Z</time></trkpt><trkpt lat="40.818904107252735" lon="8.560696575802558"><ele>32.0</ele><time>2026-05-02T10:07:49Z</time></trkpt><trkpt lat="40.81869080485705" lon="8.560815478643082"><ele>32.0</ele><time>2026-05-02T10:07:50Z</time></trkpt><trkpt lat="40.8184799743232" lon="8.560919128854994"><ele>33.0</ele><time>2026-05-02T10:07:51Z</time></trkpt><trkpt lat="40.8182678921616" lon="8.561009854569019"><ele>34.0</ele><time>2026-05-02T10:07:52Z</time></trkpt><trkpt lat="40.81806253021813" lon="8.56109168204036"><ele>35.0</ele><time>2026-05-02T10:07:53Z</time></trkpt><trkpt lat="40.81787332210008" lon="8.561177306284932"><ele>35.33333333333333</ele><time>2026-05-02T10:07:54Z</time></trkpt><trkpt lat="40.81769635643636" lon="8.561261062023478"><ele>35.666666666666664</ele><time>2026-05-02T10:07:55Z</time></trkpt><trkpt lat="40.8175402955942" lon="8.561327691335668"><ele>36.0</ele><time>2026-05-02T10:07:56Z</time></trkpt><trkpt lat="40.81740657999284" lon="8.561382103061518"><ele>37.0</ele><time>2026-05-02T10:07:57Z</time></trkpt><trkpt lat="40.817288795287546" lon="8.561431109198328"><ele>38.0</ele><time>2026-05-02T10:07:58Z</time></trkpt><trkpt lat="40.817186690275065" lon="8.561463061309754"><ele>39.0</ele><time>2026-05-02T10:07:59Z</time></trkpt><trkpt lat="40.81709131076049" lon="8.561464939968786"><ele>40.0</ele><time>2026-05-02T10:08:00Z</time></trkpt><trkpt lat="40.817000426981274" lon="8.561413866777421"><ele>41.0</ele><time>2026-05-02T10:08:01Z</time></trkpt><trkpt lat="40.816917080079044" lon="8.5613296537922"><ele>40.75</ele><time>2026-05-02T10:08:02Z</time></trkpt><trkpt lat="40.81683839318463" lon="8.561194697574434"><ele>40.5</ele><time>2026-05-02T10:08:03Z</time></trkpt><trkpt lat="40.81680699926207" lon="8.561008674463398"><ele>40.25</ele><time>2026-05-02T10:08:04Z</time></trkpt><trkpt lat="40.81674521547846" lon="8.560804761837577"><ele>40.0</ele><time>2026-05-02T10:08:05Z</time></trkpt><trkpt lat="40.81668784239531" lon="8.560567315114183"><ele>40.66666666666667</ele><time>2026-05-02T10:08:06Z</time></trkpt><trkpt lat="40.81661913527584" lon="8.560321939307412"><ele>41.333333333333336</ele><time>2026-05-02T10:08:07Z</time></trkpt><trkpt lat="40.81656042209449" lon="8.560073315797469"><ele>42.0</ele><time>2026-05-02T10:08:08Z</time></trkpt><trkpt lat="40.816500281642575" lon="8.559818855128627"><ele>42.0</ele><time>2026-05-02T10:08:09Z</time></trkpt><trkpt lat="40.81643441254841" lon="8.559563929947206"><ele>42.0</ele><time>2026-05-02T10:08:10Z</time></trkpt><trkpt lat="40.81636604439412" lon="8.559297913085071"><ele>42.0</ele><time>2026-05-02T10:08:11Z</time></trkpt><trkpt lat="40.81629411675265" lon="8.559017308910235"><ele>41.0</ele><time>2026-05-02T10:08:12Z</time></trkpt><trkpt lat="40.81622095275816" lon="8.558731551623957"><ele>40.0</ele><time>2026-05-02T10:08:13Z</time></trkpt><trkpt lat="40.816149466175325" lon="8.558450220116068"><ele>39.66666666666667</ele><time>2026-05-02T10:08:14Z</time></trkpt><trkpt lat="40.816076096149466" lon="8.55817147409726"><ele>39.333333333333336</ele><time>2026-05-02T10:08:15Z</time></trkpt><trkpt lat="40.81600564080766" lon="8.55789256961013"><ele>39.0</ele><time>2026-05-02T10:08:16Z</time></trkpt><trkpt lat="40.815929651577896" lon="8.557591565755269"><ele>41.5</ele><time>2026-05-02T10:08:17Z</time></trkpt><trkpt lat="40.81585424192781" lon="8.557285810939138"><ele>44.0</ele><time>2026-05-02T10:08:18Z</time></trkpt><trkpt lat="40.815777742016174" lon="8.556981466994129"><ele>44.0</ele><time>2026-05-02T10:08:19Z</time></trkpt><trkpt lat="40.81569665601282" lon="8.55665651736405"><ele>44.0</ele><time>2026-05-02T10:08:20Z</time></trkpt><trkpt lat="40.81562638044098" lon="8.55636137264978"><ele>43.5</ele><time>2026-05-02T10:08:21.001Z</time></trkpt><trkpt lat="40.81555175272858" lon="8.556069212804216"><ele>43.0</ele><time>2026-05-02T10:08:22.001Z</time></trkpt><trkpt lat="40.81547740238189" lon="8.55577801603588"><ele>43.0</ele><time>2026-05-02T10:08:23.001Z</time></trkpt><trkpt lat="40.81540119525095" lon="8.555473523431932"><ele>43.0</ele><time>2026-05-02T10:08:24.001Z</time></trkpt><trkpt lat="40.81532748777536" lon="8.555176909332703"><ele>42.5</ele><time>2026-05-02T10:08:25.001Z</time></trkpt><trkpt lat="40.81524553312111" lon="8.554859754804742"><ele>42.0</ele><time>2026-05-02T10:08:26.001Z</time></trkpt><trkpt lat="40.81516622806299" lon="8.554547394514532"><ele>42.333333333333336</ele><time>2026-05-02T10:08:27.001Z</time></trkpt><trkpt lat="40.815091977905404" lon="8.554262314529076"><ele>42.66666666666667</ele><time>2026-05-02T10:08:28.001Z</time></trkpt><trkpt lat="40.81502493404947" lon="8.553984381095674"><ele>43.0</ele><time>2026-05-02T10:08:29.001Z</time></trkpt><trkpt lat="40.81495446903783" lon="8.553705782438813"><ele>42.333333333333336</ele><time>2026-05-02T10:08:30.001Z</time></trkpt><trkpt lat="40.814883699540765" lon="8.553420195266837"><ele>41.666666666666664</ele><time>2026-05-02T10:08:31.001Z</time></trkpt><trkpt lat="40.81481341615861" lon="8.553143236346859"><ele>41.0</ele><time>2026-05-02T10:08:32.001Z</time></trkpt><trkpt lat="40.81474153610624" lon="8.552881588038098"><ele>40.33333333333333</ele><time>2026-05-02T10:08:33.001Z</time></trkpt><trkpt lat="40.814669193906816" lon="8.552609942299513"><ele>39.666666666666664</ele><time>2026-05-02T10:08:34.001Z</time></trkpt><trkpt lat="40.814594088476" lon="8.552323619532354"><ele>39.0</ele><time>2026-05-02T10:08:35.001Z</time></trkpt><trkpt lat="40.81452653738266" lon="8.552023138413045"><ele>37.5</ele><time>2026-05-02T10:08:36.001Z</time></trkpt><trkpt lat="40.8144571117944" lon="8.551707467616172"><ele>36.0</ele><time>2026-05-02T10:08:37.001Z</time></trkpt><trkpt lat="40.81437847707123" lon="8.55139929880585"><ele>36.0</ele><time>2026-05-02T10:08:38.001Z</time></trkpt><trkpt lat="40.81430048098946" lon="8.551102650895986"><ele>36.0</ele><time>2026-05-02T10:08:39.001Z</time></trkpt><trkpt lat="40.81422512469076" lon="8.550799428878015"><ele>36.0</ele><time>2026-05-02T10:08:40.001Z</time></trkpt><trkpt lat="40.81415126247665" lon="8.550492879602434"><ele>36.0</ele><time>2026-05-02T10:08:41.001Z</time></trkpt><trkpt lat="40.81407464011905" lon="8.550180540185622"><ele>35.0</ele><time>2026-05-02T10:08:42.001Z</time></trkpt><trkpt lat="40.81399506822328" lon="8.549858010871217"><ele>34.0</ele><time>2026-05-02T10:08:43.001Z</time></trkpt><trkpt lat="40.81391426690554" lon="8.549534950495266"><ele>32.5</ele><time>2026-05-02T10:08:44.001Z</time></trkpt><trkpt lat="40.81383098371965" lon="8.549200801325043"><ele>31.0</ele><time>2026-05-02T10:08:45.001Z</time></trkpt><trkpt lat="40.813749350072456" lon="8.548864684115713"><ele>30.0</ele><time>2026-05-02T10:08:46.001Z</time></trkpt><trkpt lat="40.81366017152819" lon="8.54852245849809"><ele>29.0</ele><time>2026-05-02T10:08:47.001Z</time></trkpt><trkpt lat="40.81357263223733" lon="8.548171225931144"><ele>28.5</ele><time>2026-05-02T10:08:48.001Z</time></trkpt><trkpt lat="40.81348679953923" lon="8.547806413021027"><ele>28.0</ele><time>2026-05-02T10:08:49.001Z</time></trkpt><trkpt lat="40.81339905097092" lon="8.547443115482844"><ele>28.0</ele><time>2026-05-02T10:08:50.001Z</time></trkpt><trkpt lat="40.813307445267185" lon="8.547081194181416"><ele>28.0</ele><time>2026-05-02T10:08:51.001Z</time></trkpt><trkpt lat="40.81321285222212" lon="8.546715656121966"><ele>25.5</ele><time>2026-05-02T10:08:52.001Z</time></trkpt><trkpt lat="40.81311926929281" lon="8.546345527279547"><ele>23.0</ele><time>2026-05-02T10:08:53.001Z</time></trkpt><trkpt lat="40.81302457747138" lon="8.545966808584076"><ele>22.5</ele><time>2026-05-02T10:08:54.001Z</time></trkpt><trkpt lat="40.81292146616412" lon="8.54557222119356"><ele>22.0</ele><time>2026-05-02T10:08:55.001Z</time></trkpt><trkpt lat="40.81281970439942" lon="8.54517230317243"><ele>21.5</ele><time>2026-05-02T10:08:56.001Z</time></trkpt><trkpt lat="40.812721974225084" lon="8.54477990574088"><ele>21.0</ele><time>2026-05-02T10:08:57.001Z</time></trkpt><trkpt lat="40.812634220722494" lon="8.544411396295432"><ele>21.0</ele><time>2026-05-02T10:08:58.001Z</time></trkpt><trkpt lat="40.81254287376102" lon="8.54405356324714"><ele>21.0</ele><time>2026-05-02T10:08:59.001Z</time></trkpt><trkpt lat="40.81244866966613" lon="8.543695657907968"><ele>20.5</ele><time>2026-05-02T10:09:00.001Z</time></trkpt><trkpt lat="40.812367307318034" lon="8.5433553111805"><ele>20.0</ele><time>2026-05-02T10:09:01.001Z</time></trkpt><trkpt lat="40.812287627175664" lon="8.543030473299927"><ele>19.5</ele><time>2026-05-02T10:09:02.001Z</time></trkpt><trkpt lat="40.812208718708625" lon="8.542719371825841"><ele>19.0</ele><time>2026-05-02T10:09:03.001Z</time></trkpt><trkpt lat="40.81213617233873" lon="8.542428002770077"><ele>19.0</ele><time>2026-05-02T10:09:04.001Z</time></trkpt><trkpt lat="40.81206862313731" lon="8.542156774252023"><ele>19.0</ele><time>2026-05-02T10:09:05.001Z</time></trkpt><trkpt lat="40.812001614624606" lon="8.54189728774331"><ele>19.0</ele><time>2026-05-02T10:09:06.001Z</time></trkpt><trkpt lat="40.811939647004735" lon="8.541650516088843"><ele>18.666666666666664</ele><time>2026-05-02T10:09:07.001Z</time></trkpt><trkpt lat="40.811888608994174" lon="8.54142652265993"><ele>18.333333333333332</ele><time>2026-05-02T10:09:08.001Z</time></trkpt><trkpt lat="40.811837545898854" lon="8.541219564550556"><ele>18.0</ele><time>2026-05-02T10:09:09.001Z</time></trkpt><trkpt lat="40.81178972815489" lon="8.541029857096197"><ele>19.0</ele><time>2026-05-02T10:09:10.001Z</time></trkpt><trkpt lat="40.81174329409006" lon="8.540851471166887"><ele>20.0</ele><time>2026-05-02T10:09:11.001Z</time></trkpt><trkpt lat="40.81169097756597" lon="8.540687782980003"><ele>21.0</ele><time>2026-05-02T10:09:12.001Z</time></trkpt><trkpt lat="40.81162475673816" lon="8.540542169348614"><ele>22.0</ele><time>2026-05-02T10:09:13.001Z</time></trkpt><trkpt lat="40.81152888459475" lon="8.540400959494168"><ele>21.75</ele><time>2026-05-02T10:09:14.001Z</time></trkpt><trkpt lat="40.811421799300994" lon="8.540272200847491"><ele>21.5</ele><time>2026-05-02T10:09:15.001Z</time></trkpt><trkpt lat="40.81131119917573" lon="8.540145501352793"><ele>21.25</ele><time>2026-05-02T10:09:16.001Z</time></trkpt><trkpt lat="40.81119970987032" lon="8.54000755303941"><ele>21.0</ele><time>2026-05-02T10:09:17.001Z</time></trkpt><trkpt lat="40.811095054148346" lon="8.539851099950408"><ele>21.333333333333332</ele><time>2026-05-02T10:09:18.001Z</time></trkpt><trkpt lat="40.81097003415741" lon="8.53972199081585"><ele>21.666666666666664</ele><time>2026-05-02T10:09:19.001Z</time></trkpt><trkpt lat="40.81085989927376" lon="8.539571394216887"><ele>22.0</ele><time>2026-05-02T10:09:20.001Z</time></trkpt><trkpt lat="40.81074525396047" lon="8.539428234216999"><ele>21.333333333333332</ele><time>2026-05-02T10:09:21.001Z</time></trkpt><trkpt lat="40.810624351911514" lon="8.539281191728813"><ele>20.666666666666668</ele><time>2026-05-02T10:09:22.001Z</time></trkpt><trkpt lat="40.81050559164376" lon="8.539122761870175"><ele>20.0</ele><time>2026-05-02T10:09:23.001Z</time></trkpt><trkpt lat="40.81037939858978" lon="8.538964258377096"><ele>20.0</ele><time>2026-05-02T10:09:24.001Z</time></trkpt><trkpt lat="40.810256920764814" lon="8.53881049249198"><ele>20.0</ele><time>2026-05-02T10:09:25.001Z</time></trkpt><trkpt lat="40.81013255523924" lon="8.538653310391242"><ele>20.0</ele><time>2026-05-02T10:09:26.001Z</time></trkpt><trkpt lat="40.81000669011137" lon="8.53849697327995"><ele>20.333333333333336</ele><time>2026-05-02T10:09:27.001Z</time></trkpt><trkpt lat="40.80988096079364" lon="8.5383059856168"><ele>20.666666666666668</ele><time>2026-05-02T10:09:28.001Z</time></trkpt><trkpt lat="40.809722726740745" lon="8.538103220092305"><ele>21.0</ele><time>2026-05-02T10:09:29.001Z</time></trkpt><trkpt lat="40.809547044651005" lon="8.537878038829998"><ele>21.0</ele><time>2026-05-02T10:09:30.001Z</time></trkpt><trkpt lat="40.809386320982696" lon="8.537676288841668"><ele>21.0</ele><time>2026-05-02T10:09:31.001Z</time></trkpt><trkpt lat="40.809225729641184" lon="8.537481641057097"><ele>21.0</ele><time>2026-05-02T10:09:32.001Z</time></trkpt><trkpt lat="40.80908929063564" lon="8.537241742004587"><ele>20.0</ele><time>2026-05-02T10:09:33.001Z</time></trkpt><trkpt lat="40.80898233649026" lon="8.536948593838432"><ele>19.0</ele><time>2026-05-02T10:09:34.001Z</time></trkpt><trkpt lat="40.80891519682694" lon="8.536615503835415"><ele>19.0</ele><time>2026-05-02T10:09:35.001Z</time></trkpt><trkpt lat="40.80885230271453" lon="8.53625010973894"><ele>19.0</ele><time>2026-05-02T10:09:36.001Z</time></trkpt><trkpt lat="40.80877256716145" lon="8.53583592794056"><ele>19.0</ele><time>2026-05-02T10:09:37.001Z</time></trkpt><trkpt lat="40.80870805979204" lon="8.535375461891862"><ele>19.0</ele><time>2026-05-02T10:09:38.001Z</time></trkpt><trkpt lat="40.808627216193116" lon="8.534898048754423"><ele>18.5</ele><time>2026-05-02T10:09:39.001Z</time></trkpt><trkpt lat="40.80853709086395" lon="8.53440452441665"><ele>18.0</ele><time>2026-05-02T10:09:40.001Z</time></trkpt><trkpt lat="40.80844931735037" lon="8.533925174622533"><ele>18.0</ele><time>2026-05-02T10:09:41.001Z</time></trkpt><trkpt lat="40.80836933194515" lon="8.533458509060207"><ele>18.0</ele><time>2026-05-02T10:09:42.001Z</time></trkpt><trkpt lat="40.80830893499755" lon="8.532999328160496"><ele>17.5</ele><time>2026-05-02T10:09:43.001Z</time></trkpt><trkpt lat="40.808231677703084" lon="8.532538676567745"><ele>17.0</ele><time>2026-05-02T10:09:44.001Z</time></trkpt><trkpt lat="40.80815375121021" lon="8.532074034839784"><ele>16.5</ele><time>2026-05-02T10:09:45.001Z</time></trkpt><trkpt lat="40.80807530290558" lon="8.531606281777925"><ele>16.0</ele><time>2026-05-02T10:09:46.001Z</time></trkpt><trkpt lat="40.80798912790778" lon="8.53114801814926"><ele>16.0</ele><time>2026-05-02T10:09:47.001Z</time></trkpt><trkpt lat="40.8079139904751" lon="8.530703368202747"><ele>16.0</ele><time>2026-05-02T10:09:48.001Z</time></trkpt><trkpt lat="40.80783959566495" lon="8.530282943094068"><ele>16.5</ele><time>2026-05-02T10:09:49.001Z</time></trkpt><trkpt lat="40.807775626624164" lon="8.529889404510188"><ele>17.0</ele><time>2026-05-02T10:09:50.001Z</time></trkpt><trkpt lat="40.80771034495873" lon="8.529505056170953"><ele>17.5</ele><time>2026-05-02T10:09:51.001Z</time></trkpt><trkpt lat="40.807650701072184" lon="8.529124741689605"><ele>18.0</ele><time>2026-05-02T10:09:52.001Z</time></trkpt><trkpt lat="40.8075931024191" lon="8.528754211982688"><ele>18.0</ele><time>2026-05-02T10:09:53.001Z</time></trkpt><trkpt lat="40.807528797582655" lon="8.528388337627671"><ele>18.0</ele><time>2026-05-02T10:09:54.001Z</time></trkpt><trkpt lat="40.80746893823419" lon="8.528045149042946"><ele>17.5</ele><time>2026-05-02T10:09:55.001Z</time></trkpt><trkpt lat="40.80740470505915" lon="8.527723880077769"><ele>17.0</ele><time>2026-05-02T10:09:56.001Z</time></trkpt><trkpt lat="40.80731115634098" lon="8.527399646895427"><ele>17.0</ele><time>2026-05-02T10:09:57.001Z</time></trkpt><trkpt lat="40.80722178913577" lon="8.52706211614481"><ele>17.0</ele><time>2026-05-02T10:09:58.001Z</time></trkpt><trkpt lat="40.80711280645049" lon="8.526705090129136"><ele>17.5</ele><time>2026-05-02T10:09:59.001Z</time></trkpt><trkpt lat="40.806790658000466" lon="8.526444656013307"><ele>18.0</ele><time>2026-05-02T10:10:00.001Z</time></trkpt><trkpt lat="40.80660134891562" lon="8.526118833743649"><ele>17.0</ele><time>2026-05-02T10:10:01.001Z</time></trkpt><trkpt lat="40.806414397437585" lon="8.525785301133352"><ele>16.0</ele><time>2026-05-02T10:10:02.001Z</time></trkpt><trkpt lat="40.80622923643421" lon="8.525461389765058"><ele>16.5</ele><time>2026-05-02T10:10:03.001Z</time></trkpt><trkpt lat="40.80604651347866" lon="8.525133708194593"><ele>17.0</ele><time>2026-05-02T10:10:04.001Z</time></trkpt><trkpt lat="40.80586434056464" lon="8.524817530983187"><ele>16.5</ele><time>2026-05-02T10:10:05.001Z</time></trkpt><trkpt lat="40.80569178114931" lon="8.52451813830798"><ele>16.0</ele><time>2026-05-02T10:10:06.001Z</time></trkpt><trkpt lat="40.805525283369775" lon="8.524227940940131"><ele>16.0</ele><time>2026-05-02T10:10:07.001Z</time></trkpt><trkpt lat="40.805364501178154" lon="8.523931346809702"><ele>16.0</ele><time>2026-05-02T10:10:08.001Z</time></trkpt><trkpt lat="40.805203051490025" lon="8.52363641830416"><ele>17.0</ele><time>2026-05-02T10:10:09.001Z</time></trkpt><trkpt lat="40.805037290087974" lon="8.52334638123181"><ele>18.0</ele><time>2026-05-02T10:10:10.001Z</time></trkpt><trkpt lat="40.804876400291406" lon="8.52306238899571"><ele>17.0</ele><time>2026-05-02T10:10:11.001Z</time></trkpt><trkpt lat="40.804710439189854" lon="8.522798606662672"><ele>16.0</ele><time>2026-05-02T10:10:12.001Z</time></trkpt><trkpt lat="40.804524236325484" lon="8.52256304035041"><ele>17.5</ele><time>2026-05-02T10:10:13.001Z</time></trkpt><trkpt lat="40.80432105467395" lon="8.522350160449177"><ele>19.0</ele><time>2026-05-02T10:10:14.001Z</time></trkpt><trkpt lat="40.804115518880174" lon="8.522141128492184"><ele>18.0</ele><time>2026-05-02T10:10:15.001Z</time></trkpt><trkpt lat="40.80392569357524" lon="8.521942728540234"><ele>17.0</ele><time>2026-05-02T10:10:16.001Z</time></trkpt><trkpt lat="40.803747216207924" lon="8.521758590590144"><ele>17.0</ele><time>2026-05-02T10:10:17.001Z</time></trkpt><trkpt lat="40.80358042464624" lon="8.521588338133075"><ele>17.0</ele><time>2026-05-02T10:10:18.001Z</time></trkpt><trkpt lat="40.80342856388754" lon="8.52142777333005"><ele>17.0</ele><time>2026-05-02T10:10:19.001Z</time></trkpt><trkpt lat="40.803310254168856" lon="8.521291507066465"><ele>17.25</ele><time>2026-05-02T10:10:20.001Z</time></trkpt><trkpt lat="40.80320467653715" lon="8.521169232168894"><ele>17.5</ele><time>2026-05-02T10:10:21.001Z</time></trkpt><trkpt lat="40.80312638159641" lon="8.52103541528759"><ele>17.75</ele><time>2026-05-02T10:10:22.001Z</time></trkpt><trkpt lat="40.80306797585194" lon="8.520899199248834"><ele>18.0</ele><time>2026-05-02T10:10:23.001Z</time></trkpt><trkpt lat="40.803027134070334" lon="8.520752003654781"><ele>18.0</ele><time>2026-05-02T10:10:24.001Z</time></trkpt><trkpt lat="40.80299931662066" lon="8.520583389825596"><ele>18.0</ele><time>2026-05-02T10:10:25.001Z</time></trkpt><trkpt lat="40.80298136092622" lon="8.520376481640193"><ele>18.0</ele><time>2026-05-02T10:10:26.001Z</time></trkpt><trkpt lat="40.802967048809414" lon="8.520118037204435"><ele>17.333333333333332</ele><time>2026-05-02T10:10:27.001Z</time></trkpt><trkpt lat="40.802952214091405" lon="8.519837784160584"><ele>16.666666666666664</ele><time>2026-05-02T10:10:28.001Z</time></trkpt><trkpt lat="40.80294729806826" lon="8.519550288366897"><ele>16.0</ele><time>2026-05-02T10:10:29.001Z</time></trkpt><trkpt lat="40.80294455996521" lon="8.519230286180177"><ele>15.5</ele><time>2026-05-02T10:10:30.001Z</time></trkpt><trkpt lat="40.802937322160005" lon="8.518913245707344"><ele>15.0</ele><time>2026-05-02T10:10:31.001Z</time></trkpt><trkpt lat="40.80293296525783" lon="8.518583789633803"><ele>15.0</ele><time>2026-05-02T10:10:32.001Z</time></trkpt><trkpt lat="40.802925803898766" lon="8.518266168919416"><ele>15.0</ele><time>2026-05-02T10:10:33.001Z</time></trkpt><trkpt lat="40.80292062231141" lon="8.517954376673643"><ele>14.666666666666668</ele><time>2026-05-02T10:10:34.001Z</time></trkpt><trkpt lat="40.8029123142843" lon="8.517656345680551"><ele>14.333333333333334</ele><time>2026-05-02T10:10:35.001Z</time></trkpt><trkpt lat="40.802906692836295" lon="8.51736564964954"><ele>14.0</ele><time>2026-05-02T10:10:36.001Z</time></trkpt><trkpt lat="40.80290069301588" lon="8.517082847684541"><ele>14.333333333333334</ele><time>2026-05-02T10:10:37.001Z</time></trkpt><trkpt lat="40.802889210740794" lon="8.516810591463306"><ele>14.666666666666668</ele><time>2026-05-02T10:10:38.001Z</time></trkpt><trkpt lat="40.802853388908474" lon="8.516543475624257"><ele>15.0</ele><time>2026-05-02T10:10:39.001Z</time></trkpt><trkpt lat="40.80278276067332" lon="8.516260056508418"><ele>15.0</ele><time>2026-05-02T10:10:40.001Z</time></trkpt><trkpt lat="40.80269701806935" lon="8.515950551804998"><ele>15.0</ele><time>2026-05-02T10:10:41.001Z</time></trkpt><trkpt lat="40.80261944063932" lon="8.515621988756536"><ele>16.0</ele><time>2026-05-02T10:10:42.001Z</time></trkpt><trkpt lat="40.80253512016009" lon="8.515277139323706"><ele>17.0</ele><time>2026-05-02T10:10:43.001Z</time></trkpt><trkpt lat="40.802444868621826" lon="8.514927880165173"><ele>17.0</ele><time>2026-05-02T10:10:44.001Z</time></trkpt><trkpt lat="40.80235127602704" lon="8.514573777300408"><ele>17.0</ele><time>2026-05-02T10:10:45.001Z</time></trkpt><trkpt lat="40.80225736321067" lon="8.514220112472788"><ele>17.0</ele><time>2026-05-02T10:10:46.001Z</time></trkpt><trkpt lat="40.80216456541441" lon="8.513876444997344"><ele>17.0</ele><time>2026-05-02T10:10:47.001Z</time></trkpt><trkpt lat="40.8020764854747" lon="8.513544195387153"><ele>17.0</ele><time>2026-05-02T10:10:48.001Z</time></trkpt><trkpt lat="40.80199329740611" lon="8.51324006218696"><ele>17.0</ele><time>2026-05-02T10:10:49.001Z</time></trkpt><trkpt lat="40.80191707555733" lon="8.51295755627326"><ele>17.0</ele><time>2026-05-02T10:10:50.001Z</time></trkpt><trkpt lat="40.801846212931004" lon="8.512692105447025"><ele>17.0</ele><time>2026-05-02T10:10:51.001Z</time></trkpt><trkpt lat="40.801782203433504" lon="8.512448030112733"><ele>17.0</ele><time>2026-05-02T10:10:52.001Z</time></trkpt><trkpt lat="40.801716980589525" lon="8.512216853855666"><ele>17.5</ele><time>2026-05-02T10:10:53.001Z</time></trkpt><trkpt lat="40.80166115396477" lon="8.512022481854773"><ele>18.0</ele><time>2026-05-02T10:10:54.001Z</time></trkpt><trkpt lat="40.801611933950774" lon="8.511841171565315"><ele>18.5</ele><time>2026-05-02T10:10:55.001Z</time></trkpt><trkpt lat="40.801567082871856" lon="8.511679593085775"><ele>19.0</ele><time>2026-05-02T10:10:56.001Z</time></trkpt><trkpt lat="40.80152526888343" lon="8.511513917870358"><ele>19.0</ele><time>2026-05-02T10:10:57.001Z</time></trkpt><trkpt lat="40.801486706324596" lon="8.51133838762412"><ele>19.0</ele><time>2026-05-02T10:10:58.001Z</time></trkpt><trkpt lat="40.80144307034839" lon="8.511175907226457"><ele>19.0</ele><time>2026-05-02T10:10:59.001Z</time></trkpt><trkpt lat="40.80139872420894" lon="8.511016210329046"><ele>19.0</ele><time>2026-05-02T10:11:00.001Z</time></trkpt><trkpt lat="40.80135527821067" lon="8.510853888547722"><ele>18.75</ele><time>2026-05-02T10:11:01.001Z</time></trkpt><trkpt lat="40.80131031730317" lon="8.510690545453757"><ele>18.5</ele><time>2026-05-02T10:11:02.001Z</time></trkpt><trkpt lat="40.80126922624052" lon="8.510531014245574"><ele>18.25</ele><time>2026-05-02T10:11:03.001Z</time></trkpt><trkpt lat="40.801222617888975" lon="8.510363854289109"><ele>18.0</ele><time>2026-05-02T10:11:04.001Z</time></trkpt><trkpt lat="40.801196701570014" lon="8.510182260014286"><ele>17.5</ele><time>2026-05-02T10:11:05.001Z</time></trkpt><trkpt lat="40.80115371494589" lon="8.510018023986548"><ele>17.0</ele><time>2026-05-02T10:11:06.001Z</time></trkpt><trkpt lat="40.80110962708448" lon="8.50984955827824"><ele>16.5</ele><time>2026-05-02T10:11:07.001Z</time></trkpt><trkpt lat="40.80106588796614" lon="8.509679763838976"><ele>16.0</ele><time>2026-05-02T10:11:08.001Z</time></trkpt><trkpt lat="40.80102221256017" lon="8.509502417004686"><ele>16.400000000000002</ele><time>2026-05-02T10:11:09.001Z</time></trkpt><trkpt lat="40.80097782427683" lon="8.509343783949825"><ele>16.8</ele><time>2026-05-02T10:11:10.001Z</time></trkpt><trkpt lat="40.80095731867854" lon="8.509200520037568"><ele>17.200000000000003</ele><time>2026-05-02T10:11:11.001Z</time></trkpt><trkpt lat="40.800947351944345" lon="8.509092447900215"><ele>17.6</ele><time>2026-05-02T10:11:12.001Z</time></trkpt><trkpt lat="40.800957690153794" lon="8.508956163228836"><ele>18.0</ele><time>2026-05-02T10:11:14.001Z</time></trkpt><trkpt lat="40.800997650689176" lon="8.508841435233391"><ele>17.6</ele><time>2026-05-02T10:11:16.001Z</time></trkpt><trkpt lat="40.801037277040116" lon="8.508769236212142"><ele>17.200000000000003</ele><time>2026-05-02T10:11:17.001Z</time></trkpt><trkpt lat="40.80107142059657" lon="8.508694061203542"><ele>16.8</ele><time>2026-05-02T10:11:18.001Z</time></trkpt><trkpt lat="40.80108776136051" lon="8.508612816778186"><ele>16.400000000000002</ele><time>2026-05-02T10:11:19.001Z</time></trkpt><trkpt lat="40.80114695001798" lon="8.50847750932144"><ele>16.0</ele><time>2026-05-02T10:11:21.001Z</time></trkpt><trkpt lat="40.801030989802" lon="8.508334749091592"><ele>16.400000000000002</ele><time>2026-05-02T10:11:22.001Z</time></trkpt><trkpt lat="40.80098887475959" lon="8.508231749718307"><ele>16.8</ele><time>2026-05-02T10:11:23.001Z</time></trkpt><trkpt lat="40.80096624100446" lon="8.50811699945802"><ele>17.200000000000003</ele><time>2026-05-02T10:11:24.001Z</time></trkpt><trkpt lat="40.80098150103775" lon="8.507974215660566"><ele>17.6</ele><time>2026-05-02T10:11:25.001Z</time></trkpt><trkpt lat="40.8010391475114" lon="8.507822022814109"><ele>18.0</ele><time>2026-05-02T10:11:26.001Z</time></trkpt><trkpt lat="40.801107718411494" lon="8.507661811135376"><ele>18.0</ele><time>2026-05-02T10:11:27.001Z</time></trkpt><trkpt lat="40.80119574405633" lon="8.507481868412"><ele>18.0</ele><time>2026-05-02T10:11:28.001Z</time></trkpt><trkpt lat="40.80129038874198" lon="8.507297131625997"><ele>18.0</ele><time>2026-05-02T10:11:29.001Z</time></trkpt><trkpt lat="40.80137469147383" lon="8.507109002869887"><ele>18.666666666666668</ele><time>2026-05-02T10:11:30.001Z</time></trkpt><trkpt lat="40.80147102817784" lon="8.506914068636322"><ele>19.333333333333336</ele><time>2026-05-02T10:11:31.001Z</time></trkpt><trkpt lat="40.80157366573939" lon="8.5067121878719"><ele>20.0</ele><time>2026-05-02T10:11:32.001Z</time></trkpt><trkpt lat="40.801666987225396" lon="8.50650009940776"><ele>20.0</ele><time>2026-05-02T10:11:33.001Z</time></trkpt><trkpt lat="40.801768871482125" lon="8.506286529538853"><ele>20.0</ele><time>2026-05-02T10:11:34.001Z</time></trkpt><trkpt lat="40.80186793175919" lon="8.506076283314302"><ele>20.0</ele><time>2026-05-02T10:11:35.001Z</time></trkpt><trkpt lat="40.80196445657725" lon="8.505860348929238"><ele>20.0</ele><time>2026-05-02T10:11:36.001Z</time></trkpt><trkpt lat="40.80205863752907" lon="8.505631706510728"><ele>20.0</ele><time>2026-05-02T10:11:37.001Z</time></trkpt><trkpt lat="40.802148038789305" lon="8.50537247366493"><ele>20.0</ele><time>2026-05-02T10:11:38.001Z</time></trkpt><trkpt lat="40.80221412968756" lon="8.50509919163089"><ele>20.5</ele><time>2026-05-02T10:11:39.001Z</time></trkpt><trkpt lat="40.8022747293344" lon="8.504807408457765"><ele>21.0</ele><time>2026-05-02T10:11:40.001Z</time></trkpt><trkpt lat="40.80233994077299" lon="8.50450276557107"><ele>21.5</ele><time>2026-05-02T10:11:41.001Z</time></trkpt><trkpt lat="40.80240919178781" lon="8.504195449971741"><ele>22.0</ele><time>2026-05-02T10:11:42.001Z</time></trkpt><trkpt lat="40.80247408791105" lon="8.50387898972509"><ele>22.5</ele><time>2026-05-02T10:11:43.001Z</time></trkpt><trkpt lat="40.802536914550394" lon="8.503562701594978"><ele>23.0</ele><time>2026-05-02T10:11:44.001Z</time></trkpt><trkpt lat="40.80260481675258" lon="8.503251008243941"><ele>22.0</ele><time>2026-05-02T10:11:45.001Z</time></trkpt><trkpt lat="40.80267101701027" lon="8.50293512151909"><ele>21.0</ele><time>2026-05-02T10:11:46.001Z</time></trkpt><trkpt lat="40.802737120159456" lon="8.502622344435819"><ele>21.0</ele><time>2026-05-02T10:11:47.001Z</time></trkpt><trkpt lat="40.80281089828637" lon="8.502300423749674"><ele>21.0</ele><time>2026-05-02T10:11:48.001Z</time></trkpt><trkpt lat="40.802879150322056" lon="8.501979624697983"><ele>21.0</ele><time>2026-05-02T10:11:49.001Z</time></trkpt><trkpt lat="40.80295102114095" lon="8.501660518631779"><ele>21.0</ele><time>2026-05-02T10:11:50.001Z</time></trkpt><trkpt lat="40.80302374058234" lon="8.501334931584081"><ele>21.0</ele><time>2026-05-02T10:11:51.001Z</time></trkpt><trkpt lat="40.80309380046899" lon="8.501007922571"><ele>21.0</ele><time>2026-05-02T10:11:52.001Z</time></trkpt><trkpt lat="40.80316316347673" lon="8.50068016696313"><ele>21.5</ele><time>2026-05-02T10:11:53.001Z</time></trkpt><trkpt lat="40.80324791162391" lon="8.500356321705077"><ele>22.0</ele><time>2026-05-02T10:11:54.001Z</time></trkpt><trkpt lat="40.80331763449536" lon="8.500038887227868"><ele>22.0</ele><time>2026-05-02T10:11:55.001Z</time></trkpt><trkpt lat="40.80338840565528" lon="8.499716680103212"><ele>22.0</ele><time>2026-05-02T10:11:56.001Z</time></trkpt><trkpt lat="40.80346021252541" lon="8.499389757577845"><ele>20.0</ele><time>2026-05-02T10:11:57.001Z</time></trkpt><trkpt lat="40.80352778072952" lon="8.49905980031777"><ele>18.0</ele><time>2026-05-02T10:11:58.001Z</time></trkpt><trkpt lat="40.80357902369479" lon="8.498721977738816"><ele>18.0</ele><time>2026-05-02T10:11:59.001Z</time></trkpt><trkpt lat="40.80363908397771" lon="8.498383984478298"><ele>18.0</ele><time>2026-05-02T10:12:00.001Z</time></trkpt><trkpt lat="40.80369816267164" lon="8.498039624054124"><ele>18.0</ele><time>2026-05-02T10:12:01.001Z</time></trkpt><trkpt lat="40.803758871132985" lon="8.497691708982922"><ele>18.0</ele><time>2026-05-02T10:12:02.001Z</time></trkpt><trkpt lat="40.803823399544555" lon="8.497337032852803"><ele>18.5</ele><time>2026-05-02T10:12:03.001Z</time></trkpt><trkpt lat="40.80388560514559" lon="8.49697681665021"><ele>19.0</ele><time>2026-05-02T10:12:04.001Z</time></trkpt><trkpt lat="40.80395078340335" lon="8.496628480881887"><ele>19.0</ele><time>2026-05-02T10:12:05.001Z</time></trkpt><trkpt lat="40.80401602987919" lon="8.496272557229407"><ele>19.0</ele><time>2026-05-02T10:12:06.001Z</time></trkpt><trkpt lat="40.80407953277435" lon="8.49591914987683"><ele>19.0</ele><time>2026-05-02T10:12:07.001Z</time></trkpt><trkpt lat="40.80414098939182" lon="8.495561346131154"><ele>19.0</ele><time>2026-05-02T10:12:08.001Z</time></trkpt><trkpt lat="40.804200111601595" lon="8.495207046231267"><ele>19.0</ele><time>2026-05-02T10:12:09.001Z</time></trkpt><trkpt lat="40.80426104024108" lon="8.494852332956038"><ele>19.0</ele><time>2026-05-02T10:12:10.001Z</time></trkpt><trkpt lat="40.80432334779345" lon="8.494501157551053"><ele>18.0</ele><time>2026-05-02T10:12:11.001Z</time></trkpt><trkpt lat="40.80438514090115" lon="8.494148587328848"><ele>17.0</ele><time>2026-05-02T10:12:12.001Z</time></trkpt><trkpt lat="40.804444584083065" lon="8.49378766048001"><ele>16.5</ele><time>2026-05-02T10:12:13.001Z</time></trkpt><trkpt lat="40.80450141355484" lon="8.493422447018883"><ele>16.0</ele><time>2026-05-02T10:12:14.001Z</time></trkpt><trkpt lat="40.80455554096485" lon="8.493047933985729"><ele>15.5</ele><time>2026-05-02T10:12:15.001Z</time></trkpt><trkpt lat="40.8046094478273" lon="8.49266514647361"><ele>15.0</ele><time>2026-05-02T10:12:16.001Z</time></trkpt><trkpt lat="40.804665184125795" lon="8.492280626050794"><ele>14.5</ele><time>2026-05-02T10:12:17.001Z</time></trkpt><trkpt lat="40.80472107520941" lon="8.491893487053694"><ele>14.0</ele><time>2026-05-02T10:12:18.001Z</time></trkpt><trkpt lat="40.80477611120547" lon="8.491506555158331"><ele>14.0</ele><time>2026-05-02T10:12:19.001Z</time></trkpt><trkpt lat="40.80483402115204" lon="8.491117760390175"><ele>14.0</ele><time>2026-05-02T10:12:20.001Z</time></trkpt><trkpt lat="40.80489491738533" lon="8.49073914315284"><ele>14.0</ele><time>2026-05-02T10:12:21.001Z</time></trkpt><trkpt lat="40.80495200418432" lon="8.490351407096394"><ele>14.0</ele><time>2026-05-02T10:12:22.001Z</time></trkpt><trkpt lat="40.805009655368266" lon="8.489966146726822"><ele>14.5</ele><time>2026-05-02T10:12:23.001Z</time></trkpt><trkpt lat="40.80506715944249" lon="8.48958962816465"><ele>15.0</ele><time>2026-05-02T10:12:24.001Z</time></trkpt><trkpt lat="40.80512277936501" lon="8.489213153357895"><ele>14.0</ele><time>2026-05-02T10:12:25.001Z</time></trkpt><trkpt lat="40.80518046586463" lon="8.488834514025326"><ele>13.0</ele><time>2026-05-02T10:12:26.001Z</time></trkpt><trkpt lat="40.80524008078796" lon="8.488459511956094"><ele>13.0</ele><time>2026-05-02T10:12:27.001Z</time></trkpt><trkpt lat="40.805299051881825" lon="8.488081599621866"><ele>13.0</ele><time>2026-05-02T10:12:28.001Z</time></trkpt><trkpt lat="40.80535878504173" lon="8.48769713781026"><ele>13.0</ele><time>2026-05-02T10:12:29.001Z</time></trkpt><trkpt lat="40.80541591794561" lon="8.487314010733412"><ele>13.0</ele><time>2026-05-02T10:12:30.001Z</time></trkpt><trkpt lat="40.805475570896625" lon="8.486933841784227"><ele>14.0</ele><time>2026-05-02T10:12:31.001Z</time></trkpt><trkpt lat="40.80553323901607" lon="8.486551421327214"><ele>15.0</ele><time>2026-05-02T10:12:32.001Z</time></trkpt><trkpt lat="40.80558838848496" lon="8.486163007290005"><ele>15.5</ele><time>2026-05-02T10:12:33.001Z</time></trkpt><trkpt lat="40.80564600084337" lon="8.485776389096593"><ele>16.0</ele><time>2026-05-02T10:12:34.001Z</time></trkpt><trkpt lat="40.80570443362807" lon="8.485385858253492"><ele>16.5</ele><time>2026-05-02T10:12:35.001Z</time></trkpt><trkpt lat="40.80576543469302" lon="8.485001726349232"><ele>17.0</ele><time>2026-05-02T10:12:36.001Z</time></trkpt><trkpt lat="40.805823696433706" lon="8.484606409743547"><ele>18.0</ele><time>2026-05-02T10:12:37.001Z</time></trkpt><trkpt lat="40.80588600686232" lon="8.484212461278142"><ele>19.0</ele><time>2026-05-02T10:12:38.001Z</time></trkpt><trkpt lat="40.80595040831454" lon="8.483819767060838"><ele>17.5</ele><time>2026-05-02T10:12:39.001Z</time></trkpt><trkpt lat="40.80601469136202" lon="8.483423921177772"><ele>16.0</ele><time>2026-05-02T10:12:40.001Z</time></trkpt><trkpt lat="40.80607500125771" lon="8.483023751009275"><ele>17.0</ele><time>2026-05-02T10:12:41.001Z</time></trkpt><trkpt lat="40.80613840170536" lon="8.482627977774293"><ele>18.0</ele><time>2026-05-02T10:12:42.001Z</time></trkpt><trkpt lat="40.806199774382264" lon="8.482226934190644"><ele>18.5</ele><time>2026-05-02T10:12:43.001Z</time></trkpt><trkpt lat="40.806260311512716" lon="8.481829268384105"><ele>19.0</ele><time>2026-05-02T10:12:44.001Z</time></trkpt><trkpt lat="40.80632074488091" lon="8.48143416731275"><ele>18.5</ele><time>2026-05-02T10:12:45.001Z</time></trkpt><trkpt lat="40.80637958855665" lon="8.481040281450712"><ele>18.0</ele><time>2026-05-02T10:12:46.001Z</time></trkpt><trkpt lat="40.80643861029453" lon="8.480655952670528"><ele>18.5</ele><time>2026-05-02T10:12:47.001Z</time></trkpt><trkpt lat="40.806496118350026" lon="8.480290508368038"><ele>19.0</ele><time>2026-05-02T10:12:48.001Z</time></trkpt><trkpt lat="40.80655274550541" lon="8.479931143295117"><ele>19.5</ele><time>2026-05-02T10:12:49.001Z</time></trkpt><trkpt lat="40.80660548566891" lon="8.479577720803594"><ele>20.0</ele><time>2026-05-02T10:12:50.001Z</time></trkpt><trkpt lat="40.806657473219815" lon="8.47923047956988"><ele>20.0</ele><time>2026-05-02T10:12:51.001Z</time></trkpt><trkpt lat="40.80670592727041" lon="8.478892800914654"><ele>20.0</ele><time>2026-05-02T10:12:52.001Z</time></trkpt><trkpt lat="40.80675137547304" lon="8.47857912736724"><ele>19.666666666666668</ele><time>2026-05-02T10:12:53.001Z</time></trkpt><trkpt lat="40.80679894655206" lon="8.478284408507825"><ele>19.333333333333332</ele><time>2026-05-02T10:12:54.001Z</time></trkpt><trkpt lat="40.806844150077154" lon="8.478007961850732"><ele>19.0</ele><time>2026-05-02T10:12:55.001Z</time></trkpt><trkpt lat="40.80688573055759" lon="8.477742702816656"><ele>19.0</ele><time>2026-05-02T10:12:56.001Z</time></trkpt><trkpt lat="40.806920804616844" lon="8.477499553451661"><ele>19.0</ele><time>2026-05-02T10:12:57.001Z</time></trkpt><trkpt lat="40.80694487993142" lon="8.477303786882247"><ele>19.0</ele><time>2026-05-02T10:12:58.001Z</time></trkpt><trkpt lat="40.806975916579496" lon="8.477120128885044"><ele>19.75</ele><time>2026-05-02T10:12:59.001Z</time></trkpt><trkpt lat="40.80701495516536" lon="8.476958889959905"><ele>20.5</ele><time>2026-05-02T10:13:00.001Z</time></trkpt><trkpt lat="40.807066985049765" lon="8.476808101236626"><ele>21.25</ele><time>2026-05-02T10:13:01.001Z</time></trkpt><trkpt lat="40.80711131566758" lon="8.476650694439297"><ele>22.0</ele><time>2026-05-02T10:13:02.001Z</time></trkpt><trkpt lat="40.807118839959706" lon="8.476482895650872"><ele>22.0</ele><time>2026-05-02T10:13:03.001Z</time></trkpt><trkpt lat="40.807119000494396" lon="8.476306246362862"><ele>22.0</ele><time>2026-05-02T10:13:04.001Z</time></trkpt><trkpt lat="40.807139179291" lon="8.476109332746496"><ele>22.0</ele><time>2026-05-02T10:13:05.001Z</time></trkpt><trkpt lat="40.80717145671735" lon="8.47588410467294"><ele>22.333333333333332</ele><time>2026-05-02T10:13:06.001Z</time></trkpt><trkpt lat="40.80720481563004" lon="8.475638300197591"><ele>22.666666666666668</ele><time>2026-05-02T10:13:07.001Z</time></trkpt><trkpt lat="40.80723996602373" lon="8.475381996340296"><ele>23.0</ele><time>2026-05-02T10:13:08.001Z</time></trkpt><trkpt lat="40.80728066699911" lon="8.475112043374171"><ele>23.666666666666668</ele><time>2026-05-02T10:13:09.001Z</time></trkpt><trkpt lat="40.80732538103748" lon="8.474834627395296"><ele>24.333333333333336</ele><time>2026-05-02T10:13:10.001Z</time></trkpt><trkpt lat="40.80736960932117" lon="8.474540720844333"><ele>25.0</ele><time>2026-05-02T10:13:11.001Z</time></trkpt><trkpt lat="40.80741534116193" lon="8.47424255883214"><ele>26.5</ele><time>2026-05-02T10:13:12.001Z</time></trkpt><trkpt lat="40.80746568056695" lon="8.473939453295317"><ele>28.0</ele><time>2026-05-02T10:13:13.001Z</time></trkpt><trkpt lat="40.80752270107851" lon="8.473622966093492"><ele>28.5</ele><time>2026-05-02T10:13:14.001Z</time></trkpt><trkpt lat="40.807589620875994" lon="8.473309204510105"><ele>29.0</ele><time>2026-05-02T10:13:15.001Z</time></trkpt><trkpt lat="40.80766254923672" lon="8.472995338185635"><ele>33.0</ele><time>2026-05-02T10:13:16.001Z</time></trkpt><trkpt lat="40.80774002692205" lon="8.472686600442433"><ele>37.0</ele><time>2026-05-02T10:13:17.001Z</time></trkpt><trkpt lat="40.80782912444458" lon="8.472379319437175"><ele>38.5</ele><time>2026-05-02T10:13:18.001Z</time></trkpt><trkpt lat="40.80793434716412" lon="8.472078472024435"><ele>40.0</ele><time>2026-05-02T10:13:19.001Z</time></trkpt><trkpt lat="40.80805977961219" lon="8.471792797152105"><ele>40.0</ele><time>2026-05-02T10:13:20.001Z</time></trkpt><trkpt lat="40.8081915498154" lon="8.471510418109963"><ele>40.0</ele><time>2026-05-02T10:13:21.001Z</time></trkpt><trkpt lat="40.80830233520537" lon="8.471213372749249"><ele>40.5</ele><time>2026-05-02T10:13:22.001Z</time></trkpt><trkpt lat="40.80838638230579" lon="8.470890993421317"><ele>41.0</ele><time>2026-05-02T10:13:23.001Z</time></trkpt><trkpt lat="40.808465888938414" lon="8.47056993364285"><ele>44.0</ele><time>2026-05-02T10:13:24.001Z</time></trkpt><trkpt lat="40.80856983413875" lon="8.470262313561323"><ele>47.0</ele><time>2026-05-02T10:13:25.001Z</time></trkpt><trkpt lat="40.80871267588381" lon="8.469978406161339"><ele>47.0</ele><time>2026-05-02T10:13:26.001Z</time></trkpt><trkpt lat="40.80889710874499" lon="8.469762280660138"><ele>47.0</ele><time>2026-05-02T10:13:27.001Z</time></trkpt><trkpt lat="40.80908119186974" lon="8.469550816417284"><ele>47.5</ele><time>2026-05-02T10:13:28.001Z</time></trkpt><trkpt lat="40.80927195363308" lon="8.46934090680696"><ele>48.0</ele><time>2026-05-02T10:13:29.001Z</time></trkpt><trkpt lat="40.80943103157394" lon="8.469124553461615"><ele>49.0</ele><time>2026-05-02T10:13:30.001Z</time></trkpt><trkpt lat="40.809552639616435" lon="8.46890048496067"><ele>50.0</ele><time>2026-05-02T10:13:31.001Z</time></trkpt><trkpt lat="40.809631759875316" lon="8.46864784666599"><ele>51.0</ele><time>2026-05-02T10:13:32.001Z</time></trkpt><trkpt lat="40.809682794402974" lon="8.468364467258098"><ele>52.33333333333333</ele><time>2026-05-02T10:13:33.001Z</time></trkpt><trkpt lat="40.80970123042539" lon="8.4680736269021"><ele>53.666666666666664</ele><time>2026-05-02T10:13:34.001Z</time></trkpt><trkpt lat="40.80967167673456" lon="8.467777264352003"><ele>55.0</ele><time>2026-05-02T10:13:35.001Z</time></trkpt><trkpt lat="40.80961453639432" lon="8.467466106628367"><ele>56.0</ele><time>2026-05-02T10:13:36.001Z</time></trkpt><trkpt lat="40.80956461550497" lon="8.46712699061016"><ele>57.0</ele><time>2026-05-02T10:13:37.001Z</time></trkpt><trkpt lat="40.809558814888064" lon="8.466781439422395"><ele>58.33333333333333</ele><time>2026-05-02T10:13:38.001Z</time></trkpt><trkpt lat="40.809556953270416" lon="8.46648967557787"><ele>59.666666666666664</ele><time>2026-05-02T10:13:39Z</time></trkpt><trkpt lat="40.80958858772241" lon="8.466251718481221"><ele>61.0</ele><time>2026-05-02T10:13:40Z</time></trkpt><trkpt lat="40.80967803709757" lon="8.466026328716987"><ele>62.5</ele><time>2026-05-02T10:13:41Z</time></trkpt><trkpt lat="40.80980927590617" lon="8.46576673547884"><ele>64.0</ele><time>2026-05-02T10:13:42Z</time></trkpt><trkpt lat="40.80992152399153" lon="8.465497947739804"><ele>65.33333333333333</ele><time>2026-05-02T10:13:43Z</time></trkpt><trkpt lat="40.810001034331535" lon="8.46528125332101"><ele>66.66666666666667</ele><time>2026-05-02T10:13:44Z</time></trkpt><trkpt lat="40.81000062347606" lon="8.465064227665525"><ele>68.0</ele><time>2026-05-02T10:13:45Z</time></trkpt><trkpt lat="40.809940304118506" lon="8.464837183637805"><ele>68.33333333333334</ele><time>2026-05-02T10:13:46Z</time></trkpt><trkpt lat="40.80984108669945" lon="8.464611007124297"><ele>68.66666666666667</ele><time>2026-05-02T10:13:47Z</time></trkpt><trkpt lat="40.809780826112224" lon="8.46437020246047"><ele>69.0</ele><time>2026-05-02T10:13:48Z</time></trkpt><trkpt lat="40.809787894778566" lon="8.464138079505016"><ele>69.0</ele><time>2026-05-02T10:13:49Z</time></trkpt><trkpt lat="40.80984788817157" lon="8.463920974011614"><ele>69.0</ele><time>2026-05-02T10:13:50Z</time></trkpt><trkpt lat="40.80993077212964" lon="8.463667535731032"><ele>69.0</ele><time>2026-05-02T10:13:51Z</time></trkpt><trkpt lat="40.810018490010705" lon="8.46343322390884"><ele>69.33333333333333</ele><time>2026-05-02T10:13:52Z</time></trkpt><trkpt lat="40.81007746985296" lon="8.463196438183374"><ele>69.66666666666666</ele><time>2026-05-02T10:13:53Z</time></trkpt><trkpt lat="40.810107010763126" lon="8.462962015967754"><ele>70.0</ele><time>2026-05-02T10:13:54Z</time></trkpt><trkpt lat="40.81008117735934" lon="8.46273730585602"><ele>71.0</ele><time>2026-05-02T10:13:55Z</time></trkpt><trkpt lat="40.8100332318489" lon="8.462496139743527"><ele>72.0</ele><time>2026-05-02T10:13:56Z</time></trkpt><trkpt lat="40.80998445987467" lon="8.462255772583774"><ele>73.0</ele><time>2026-05-02T10:13:57Z</time></trkpt><trkpt lat="40.80994154051595" lon="8.461999571401757"><ele>73.33333333333333</ele><time>2026-05-02T10:13:58Z</time></trkpt><trkpt lat="40.8099012095454" lon="8.461744227705514"><ele>73.66666666666667</ele><time>2026-05-02T10:13:59Z</time></trkpt><trkpt lat="40.8098607114598" lon="8.461484561170925"><ele>74.0</ele><time>2026-05-02T10:14:00Z</time></trkpt><trkpt lat="40.80984823029646" lon="8.461217738313215"><ele>74.66666666666667</ele><time>2026-05-02T10:14:01Z</time></trkpt><trkpt lat="40.80983813776893" lon="8.460957063676597"><ele>75.33333333333333</ele><time>2026-05-02T10:14:02Z</time></trkpt><trkpt lat="40.809837014598926" lon="8.460694428697083"><ele>76.0</ele><time>2026-05-02T10:14:03Z</time></trkpt><trkpt lat="40.80983659001129" lon="8.460421355607938"><ele>77.33333333333333</ele><time>2026-05-02T10:14:04Z</time></trkpt><trkpt lat="40.809819904041056" lon="8.46015155351781"><ele>78.66666666666667</ele><time>2026-05-02T10:14:05Z</time></trkpt><trkpt lat="40.8098357363675" lon="8.459872336483464"><ele>80.0</ele><time>2026-05-02T10:14:06Z</time></trkpt><trkpt lat="40.80983529457647" lon="8.45958820104725"><ele>80.5</ele><time>2026-05-02T10:14:07Z</time></trkpt><trkpt lat="40.80983459070531" lon="8.459276528087043"><ele>81.0</ele><time>2026-05-02T10:14:08Z</time></trkpt><trkpt lat="40.80981964722664" lon="8.458948952603347"><ele>81.0</ele><time>2026-05-02T10:14:09Z</time></trkpt><trkpt lat="40.80982053079334" lon="8.458585141690495"><ele>81.0</ele><time>2026-05-02T10:14:10Z</time></trkpt><trkpt lat="40.80981911517691" lon="8.458219145582918"><ele>82.0</ele><time>2026-05-02T10:14:11Z</time></trkpt><trkpt lat="40.80981494458793" lon="8.457857331535338"><ele>83.0</ele><time>2026-05-02T10:14:12Z</time></trkpt><trkpt lat="40.80981463681564" lon="8.457505825019274"><ele>83.0</ele><time>2026-05-02T10:14:13Z</time></trkpt><trkpt lat="40.809815050554235" lon="8.457168016805523"><ele>83.0</ele><time>2026-05-02T10:14:14Z</time></trkpt><trkpt lat="40.809817132603015" lon="8.456839192373812"><ele>83.0</ele><time>2026-05-02T10:14:15Z</time></trkpt><trkpt lat="40.8098167838521" lon="8.456514135625376"><ele>83.0</ele><time>2026-05-02T10:14:16Z</time></trkpt><trkpt lat="40.80981435022208" lon="8.456195309278035"><ele>82.0</ele><time>2026-05-02T10:14:17Z</time></trkpt><trkpt lat="40.80981249445951" lon="8.455894629562033"><ele>81.0</ele><time>2026-05-02T10:14:18Z</time></trkpt><trkpt lat="40.809813978927316" lon="8.455601167532638"><ele>81.0</ele><time>2026-05-02T10:14:19Z</time></trkpt><trkpt lat="40.80985421403226" lon="8.455316670799448"><ele>81.0</ele><time>2026-05-02T10:14:20Z</time></trkpt><trkpt lat="40.80994164630712" lon="8.455033187264366"><ele>81.0</ele><time>2026-05-02T10:14:21Z</time></trkpt><trkpt lat="40.81005521592199" lon="8.454733027501073"><ele>81.0</ele><time>2026-05-02T10:14:22Z</time></trkpt><trkpt lat="40.810176235766676" lon="8.454413646300052"><ele>79.0</ele><time>2026-05-02T10:14:23Z</time></trkpt><trkpt lat="40.810290926537654" lon="8.45410205532863"><ele>77.0</ele><time>2026-05-02T10:14:24Z</time></trkpt><trkpt lat="40.81039415953319" lon="8.453800588484455"><ele>77.0</ele><time>2026-05-02T10:14:25Z</time></trkpt><trkpt lat="40.81049221974002" lon="8.453503391373978"><ele>77.0</ele><time>2026-05-02T10:14:26Z</time></trkpt><trkpt lat="40.81059504580166" lon="8.453207835357807"><ele>78.0</ele><time>2026-05-02T10:14:27Z</time></trkpt><trkpt lat="40.810694342905144" lon="8.452910066095727"><ele>79.0</ele><time>2026-05-02T10:14:28Z</time></trkpt><trkpt lat="40.81079070723726" lon="8.452622777416785"><ele>79.0</ele><time>2026-05-02T10:14:29Z</time></trkpt><trkpt lat="40.81088725859162" lon="8.45234038792512"><ele>79.0</ele><time>2026-05-02T10:14:30Z</time></trkpt><trkpt lat="40.810981417203315" lon="8.452065251604221"><ele>76.5</ele><time>2026-05-02T10:14:31Z</time></trkpt><trkpt lat="40.811075969003156" lon="8.451788281552968"><ele>74.0</ele><time>2026-05-02T10:14:32Z</time></trkpt><trkpt lat="40.811174548850744" lon="8.451497517887157"><ele>75.0</ele><time>2026-05-02T10:14:33Z</time></trkpt><trkpt lat="40.81127338149356" lon="8.451203149834969"><ele>76.0</ele><time>2026-05-02T10:14:34Z</time></trkpt><trkpt lat="40.81138670884199" lon="8.4509197301211"><ele>76.0</ele><time>2026-05-02T10:14:35Z</time></trkpt><trkpt lat="40.81148782661615" lon="8.450622829140324"><ele>76.0</ele><time>2026-05-02T10:14:36Z</time></trkpt><trkpt lat="40.81158624579455" lon="8.450333851691589"><ele>75.0</ele><time>2026-05-02T10:14:37Z</time></trkpt><trkpt lat="40.8116851332629" lon="8.450043450277791"><ele>74.0</ele><time>2026-05-02T10:14:38Z</time></trkpt><trkpt lat="40.81177797103633" lon="8.449770786976583"><ele>74.33333333333334</ele><time>2026-05-02T10:14:39Z</time></trkpt><trkpt lat="40.811864751665524" lon="8.449515913387854"><ele>74.66666666666667</ele><time>2026-05-02T10:14:40Z</time></trkpt><trkpt lat="40.811948834604536" lon="8.44926896283153"><ele>75.0</ele><time>2026-05-02T10:14:41Z</time></trkpt><trkpt lat="40.81203282016731" lon="8.449022298346176"><ele>75.66666666666667</ele><time>2026-05-02T10:14:42Z</time></trkpt><trkpt lat="40.81211209370359" lon="8.4487883865369"><ele>76.33333333333334</ele><time>2026-05-02T10:14:43Z</time></trkpt><trkpt lat="40.812188319528566" lon="8.448563397460415"><ele>77.0</ele><time>2026-05-02T10:14:44Z</time></trkpt><trkpt lat="40.81226529786605" lon="8.448335584623097"><ele>77.0</ele><time>2026-05-02T10:14:45Z</time></trkpt><trkpt lat="40.81233661641833" lon="8.448125631273262"><ele>77.0</ele><time>2026-05-02T10:14:46Z</time></trkpt><trkpt lat="40.8124078777326" lon="8.447915064296454"><ele>77.0</ele><time>2026-05-02T10:14:47Z</time></trkpt><trkpt lat="40.81246362961324" lon="8.447697424297752"><ele>77.0</ele><time>2026-05-02T10:14:48Z</time></trkpt><trkpt lat="40.81254094634704" lon="8.447479368317133"><ele>77.0</ele><time>2026-05-02T10:14:49Z</time></trkpt><trkpt lat="40.81261821387209" lon="8.447248868560603"><ele>77.0</ele><time>2026-05-02T10:14:50Z</time></trkpt><trkpt lat="40.81270110826797" lon="8.446997718770884"><ele>75.0</ele><time>2026-05-02T10:14:51Z</time></trkpt><trkpt lat="40.81280642204923" lon="8.446737423421752"><ele>73.0</ele><time>2026-05-02T10:14:52Z</time></trkpt><trkpt lat="40.812899232213624" lon="8.446463050433618"><ele>72.5</ele><time>2026-05-02T10:14:53Z</time></trkpt><trkpt lat="40.81298387134174" lon="8.446166235153958"><ele>72.0</ele><time>2026-05-02T10:14:54Z</time></trkpt><trkpt lat="40.8130902762432" lon="8.445864880857455"><ele>72.0</ele><time>2026-05-02T10:14:55Z</time></trkpt><trkpt lat="40.813192031842725" lon="8.445565997246705"><ele>72.0</ele><time>2026-05-02T10:14:56Z</time></trkpt><trkpt lat="40.81328969975628" lon="8.445267015304653"><ele>70.0</ele><time>2026-05-02T10:14:57Z</time></trkpt><trkpt lat="40.8133912091785" lon="8.444962192398108"><ele>68.0</ele><time>2026-05-02T10:14:58Z</time></trkpt><trkpt lat="40.813494348690426" lon="8.44465673549285"><ele>67.0</ele><time>2026-05-02T10:14:59Z</time></trkpt><trkpt lat="40.81359866131967" lon="8.444349063760262"><ele>66.0</ele><time>2026-05-02T10:15:00Z</time></trkpt><trkpt lat="40.813704696603736" lon="8.444042257766348"><ele>66.5</ele><time>2026-05-02T10:15:01Z</time></trkpt><trkpt lat="40.81380999723836" lon="8.443736650290752"><ele>67.0</ele><time>2026-05-02T10:15:02Z</time></trkpt><trkpt lat="40.81391521465213" lon="8.443431089406898"><ele>67.0</ele><time>2026-05-02T10:15:03Z</time></trkpt><trkpt lat="40.814017383022126" lon="8.443123392021159"><ele>67.0</ele><time>2026-05-02T10:15:04Z</time></trkpt><trkpt lat="40.81413418734642" lon="8.442828688820171"><ele>67.5</ele><time>2026-05-02T10:15:05Z</time></trkpt><trkpt lat="40.814237397220886" lon="8.442522380224833"><ele>68.0</ele><time>2026-05-02T10:15:06Z</time></trkpt><trkpt lat="40.81433905967041" lon="8.442220963864624"><ele>68.5</ele><time>2026-05-02T10:15:07Z</time></trkpt><trkpt lat="40.81444071433927" lon="8.44191998691055"><ele>69.0</ele><time>2026-05-02T10:15:08.001Z</time></trkpt><trkpt lat="40.81452865629725" lon="8.44160575638229"><ele>69.0</ele><time>2026-05-02T10:15:09.001Z</time></trkpt><trkpt lat="40.814632477882085" lon="8.441303788636304"><ele>69.0</ele><time>2026-05-02T10:15:10.001Z</time></trkpt><trkpt lat="40.81474791450946" lon="8.441010692618702"><ele>70.0</ele><time>2026-05-02T10:15:11.001Z</time></trkpt><trkpt lat="40.814851714720824" lon="8.440707363456756"><ele>71.0</ele><time>2026-05-02T10:15:12.001Z</time></trkpt><trkpt lat="40.81495465242531" lon="8.440408446368085"><ele>71.0</ele><time>2026-05-02T10:15:13.001Z</time></trkpt><trkpt lat="40.815041007616315" lon="8.44010468806738"><ele>71.0</ele><time>2026-05-02T10:15:14.001Z</time></trkpt><trkpt lat="40.81515752488957" lon="8.43981933541188"><ele>71.0</ele><time>2026-05-02T10:15:15.001Z</time></trkpt><trkpt lat="40.81523044704926" lon="8.43950687715274"><ele>71.0</ele><time>2026-05-02T10:15:16.001Z</time></trkpt><trkpt lat="40.81530670913529" lon="8.439189996471448"><ele>71.0</ele><time>2026-05-02T10:15:17.001Z</time></trkpt><trkpt lat="40.81537254391713" lon="8.438857796824513"><ele>71.0</ele><time>2026-05-02T10:15:18.001Z</time></trkpt><trkpt lat="40.815434708678076" lon="8.438519026438238"><ele>70.0</ele><time>2026-05-02T10:15:19.001Z</time></trkpt><trkpt lat="40.81549823622839" lon="8.438174445495438"><ele>69.0</ele><time>2026-05-02T10:15:20.001Z</time></trkpt><trkpt lat="40.81556124497005" lon="8.437826361432608"><ele>68.5</ele><time>2026-05-02T10:15:21.001Z</time></trkpt><trkpt lat="40.815628429569486" lon="8.43748460447979"><ele>68.0</ele><time>2026-05-02T10:15:22.001Z</time></trkpt><trkpt lat="40.815692164748036" lon="8.437143805504174"><ele>68.0</ele><time>2026-05-02T10:15:23.001Z</time></trkpt><trkpt lat="40.81575610520518" lon="8.436803094400613"><ele>68.0</ele><time>2026-05-02T10:15:24.001Z</time></trkpt><trkpt lat="40.81582057038562" lon="8.43646010305239"><ele>68.0</ele><time>2026-05-02T10:15:25.001Z</time></trkpt><trkpt lat="40.81588739944821" lon="8.436116398560019"><ele>68.0</ele><time>2026-05-02T10:15:26.001Z</time></trkpt><trkpt lat="40.81595601280941" lon="8.435776013947187"><ele>66.0</ele><time>2026-05-02T10:15:27.001Z</time></trkpt><trkpt lat="40.81602268825249" lon="8.435429237039727"><ele>64.0</ele><time>2026-05-02T10:15:28.001Z</time></trkpt><trkpt lat="40.81608429620453" lon="8.43508457509068"><ele>64.0</ele><time>2026-05-02T10:15:29.001Z</time></trkpt><trkpt lat="40.81614678674601" lon="8.43473334134374"><ele>64.0</ele><time>2026-05-02T10:15:30.001Z</time></trkpt><trkpt lat="40.81621167348611" lon="8.434385126962967"><ele>63.5</ele><time>2026-05-02T10:15:31.001Z</time></trkpt><trkpt lat="40.81627636817883" lon="8.434026442560402"><ele>63.0</ele><time>2026-05-02T10:15:32.001Z</time></trkpt><trkpt lat="40.816343286015574" lon="8.433668901763298"><ele>62.0</ele><time>2026-05-02T10:15:33.001Z</time></trkpt><trkpt lat="40.81641187111025" lon="8.43331607498296"><ele>61.0</ele><time>2026-05-02T10:15:34.001Z</time></trkpt><trkpt lat="40.81647913273547" lon="8.432961826299156"><ele>61.0</ele><time>2026-05-02T10:15:35.001Z</time></trkpt><trkpt lat="40.81654629366267" lon="8.432609067702298"><ele>61.0</ele><time>2026-05-02T10:15:36.001Z</time></trkpt><trkpt lat="40.81661283196533" lon="8.432257945074332"><ele>61.0</ele><time>2026-05-02T10:15:37.001Z</time></trkpt><trkpt lat="40.816680238418776" lon="8.431897261561023"><ele>61.0</ele><time>2026-05-02T10:15:38.001Z</time></trkpt><trkpt lat="40.81674831541951" lon="8.431545545647941"><ele>60.5</ele><time>2026-05-02T10:15:39.001Z</time></trkpt><trkpt lat="40.81681621943181" lon="8.43119975709336"><ele>60.0</ele><time>2026-05-02T10:15:40.001Z</time></trkpt><trkpt lat="40.81687885026893" lon="8.430880260131962"><ele>59.0</ele><time>2026-05-02T10:15:41.001Z</time></trkpt><trkpt lat="40.81693309667079" lon="8.430561523284402"><ele>58.0</ele><time>2026-05-02T10:15:42.001Z</time></trkpt><trkpt lat="40.81698513994522" lon="8.430260328575804"><ele>57.666666666666664</ele><time>2026-05-02T10:15:43.001Z</time></trkpt><trkpt lat="40.81703610746616" lon="8.429977005934662"><ele>57.33333333333333</ele><time>2026-05-02T10:15:44.001Z</time></trkpt><trkpt lat="40.81708641005469" lon="8.429696838699117"><ele>57.0</ele><time>2026-05-02T10:15:45Z</time></trkpt><trkpt lat="40.81713706340923" lon="8.429438376023047"><ele>57.66666666666667</ele><time>2026-05-02T10:15:46Z</time></trkpt><trkpt lat="40.817189492657526" lon="8.429191757679586"><ele>58.333333333333336</ele><time>2026-05-02T10:15:47Z</time></trkpt><trkpt lat="40.81723291132824" lon="8.428957254177227"><ele>59.0</ele><time>2026-05-02T10:15:48Z</time></trkpt><trkpt lat="40.817278056588805" lon="8.428728421216046"><ele>59.0</ele><time>2026-05-02T10:15:49Z</time></trkpt><trkpt lat="40.81732659884373" lon="8.428500805886472"><ele>59.0</ele><time>2026-05-02T10:15:50Z</time></trkpt><trkpt lat="40.81737380001311" lon="8.428269771591975"><ele>59.0</ele><time>2026-05-02T10:15:51Z</time></trkpt><trkpt lat="40.8174137064291" lon="8.428051765502065"><ele>58.333333333333336</ele><time>2026-05-02T10:15:52Z</time></trkpt><trkpt lat="40.81745253238497" lon="8.42781859235153"><ele>57.66666666666667</ele><time>2026-05-02T10:15:53Z</time></trkpt><trkpt lat="40.81749614508213" lon="8.427596920338576"><ele>57.0</ele><time>2026-05-02T10:15:54Z</time></trkpt><trkpt lat="40.817539423044565" lon="8.427380661582635"><ele>57.0</ele><time>2026-05-02T10:15:55Z</time></trkpt><trkpt lat="40.81757836034455" lon="8.427163440186742"><ele>57.0</ele><time>2026-05-02T10:15:56Z</time></trkpt><trkpt lat="40.81761866408194" lon="8.426950464781072"><ele>57.0</ele><time>2026-05-02T10:15:57Z</time></trkpt><trkpt lat="40.817655666681894" lon="8.426754293049822"><ele>56.75</ele><time>2026-05-02T10:15:58Z</time></trkpt><trkpt lat="40.81769489937164" lon="8.426576174974821"><ele>56.5</ele><time>2026-05-02T10:15:59Z</time></trkpt><trkpt lat="40.8177375628264" lon="8.426411596087682"><ele>56.25</ele><time>2026-05-02T10:16:00Z</time></trkpt><trkpt lat="40.817784372783436" lon="8.426247717841651"><ele>56.0</ele><time>2026-05-02T10:16:01Z</time></trkpt><trkpt lat="40.81783488384636" lon="8.426084659004603"><ele>56.0</ele><time>2026-05-02T10:16:02Z</time></trkpt><trkpt lat="40.8178914650598" lon="8.42592194323713"><ele>56.0</ele><time>2026-05-02T10:16:03Z</time></trkpt><trkpt lat="40.817952463020966" lon="8.42577399524713"><ele>56.0</ele><time>2026-05-02T10:16:04Z</time></trkpt><trkpt lat="40.81802007381782" lon="8.42560038050351"><ele>56.0</ele><time>2026-05-02T10:16:05Z</time></trkpt><trkpt lat="40.818102444920925" lon="8.425426664697653"><ele>55.66666666666667</ele><time>2026-05-02T10:16:06Z</time></trkpt><trkpt lat="40.81819858939634" lon="8.425237614399045"><ele>55.33333333333333</ele><time>2026-05-02T10:16:07Z</time></trkpt><trkpt lat="40.81830780983892" lon="8.425050264081165"><ele>55.0</ele><time>2026-05-02T10:16:08Z</time></trkpt><trkpt lat="40.81843050799622" lon="8.424847481194165"><ele>53.666666666666664</ele><time>2026-05-02T10:16:09Z</time></trkpt><trkpt lat="40.81856317880927" lon="8.424637280772718"><ele>52.33333333333333</ele><time>2026-05-02T10:16:10Z</time></trkpt><trkpt lat="40.818690894009755" lon="8.42442481702378"><ele>51.0</ele><time>2026-05-02T10:16:11Z</time></trkpt><trkpt lat="40.818816924832106" lon="8.424204114877163"><ele>51.0</ele><time>2026-05-02T10:16:12Z</time></trkpt><trkpt lat="40.81894684971723" lon="8.42397210965007"><ele>51.0</ele><time>2026-05-02T10:16:13Z</time></trkpt><trkpt lat="40.8190757041532" lon="8.42372379271671"><ele>51.0</ele><time>2026-05-02T10:16:14Z</time></trkpt><trkpt lat="40.81920060724915" lon="8.423448231763533"><ele>49.0</ele><time>2026-05-02T10:16:15Z</time></trkpt><trkpt lat="40.8193303177619" lon="8.42315310610708"><ele>47.0</ele><time>2026-05-02T10:16:16Z</time></trkpt><trkpt lat="40.819455008148815" lon="8.422854529001048"><ele>47.0</ele><time>2026-05-02T10:16:17Z</time></trkpt><trkpt lat="40.819572143197746" lon="8.422529377206052"><ele>47.0</ele><time>2026-05-02T10:16:18Z</time></trkpt><trkpt lat="40.819678697165116" lon="8.422176692310934"><ele>46.5</ele><time>2026-05-02T10:16:19Z</time></trkpt><trkpt lat="40.819781678952324" lon="8.421812185103802"><ele>46.0</ele><time>2026-05-02T10:16:20Z</time></trkpt><trkpt lat="40.81988270657025" lon="8.421436774613506"><ele>45.5</ele><time>2026-05-02T10:16:21Z</time></trkpt><trkpt lat="40.8199801577094" lon="8.421064760729793"><ele>45.0</ele><time>2026-05-02T10:16:22Z</time></trkpt><trkpt lat="40.82007671106208" lon="8.420701217983828"><ele>43.0</ele><time>2026-05-02T10:16:23Z</time></trkpt><trkpt lat="40.820171532100396" lon="8.420357343120045"><ele>41.0</ele><time>2026-05-02T10:16:24Z</time></trkpt><trkpt lat="40.82026730764305" lon="8.420038697603646"><ele>41.0</ele><time>2026-05-02T10:16:25Z</time></trkpt><trkpt lat="40.82037020563871" lon="8.419732517740119"><ele>41.0</ele><time>2026-05-02T10:16:26Z</time></trkpt><trkpt lat="40.820484794954126" lon="8.419455268190092"><ele>40.666666666666664</ele><time>2026-05-02T10:16:27Z</time></trkpt><trkpt lat="40.820601697711126" lon="8.41919261295114"><ele>40.333333333333336</ele><time>2026-05-02T10:16:28Z</time></trkpt><trkpt lat="40.82071214859578" lon="8.41896490239985"><ele>40.0</ele><time>2026-05-02T10:16:29Z</time></trkpt><trkpt lat="40.82081796552581" lon="8.418765667377372"><ele>40.0</ele><time>2026-05-02T10:16:30Z</time></trkpt><trkpt lat="40.82092296247271" lon="8.41858620232308"><ele>40.0</ele><time>2026-05-02T10:16:31Z</time></trkpt><trkpt lat="40.82102136522225" lon="8.418427311738549"><ele>40.0</ele><time>2026-05-02T10:16:32Z</time></trkpt><trkpt lat="40.821098780307445" lon="8.418306671750793"><ele>40.0</ele><time>2026-05-02T10:16:33Z</time></trkpt><trkpt lat="40.82117094006708" lon="8.418211194649068"><ele>39.5</ele><time>2026-05-02T10:16:34Z</time></trkpt><trkpt lat="40.82123964337003" lon="8.418133739840304"><ele>39.0</ele><time>2026-05-02T10:16:35Z</time></trkpt><trkpt lat="40.821298875494854" lon="8.41808928980037"><ele>38.5</ele><time>2026-05-02T10:16:36Z</time></trkpt><trkpt lat="40.82136282669669" lon="8.418054811692459"><ele>38.0</ele><time>2026-05-02T10:16:37Z</time></trkpt><trkpt lat="40.821458337538544" lon="8.41801906487458"><ele>37.5</ele><time>2026-05-02T10:16:38Z</time></trkpt><trkpt lat="40.821539620199566" lon="8.417968218213622"><ele>37.0</ele><time>2026-05-02T10:16:39Z</time></trkpt><trkpt lat="40.82159027224517" lon="8.417881293312186"><ele>37.0</ele><time>2026-05-02T10:16:40Z</time></trkpt><trkpt lat="40.821615537794145" lon="8.41778217222946"><ele>37.0</ele><time>2026-05-02T10:16:41Z</time></trkpt><trkpt lat="40.821617020573996" lon="8.417679314291094"><ele>37.0</ele><time>2026-05-02T10:16:42Z</time></trkpt><trkpt lat="40.82163797958902" lon="8.417558354373696"><ele>37.0</ele><time>2026-05-02T10:16:43Z</time></trkpt><trkpt lat="40.82169221750151" lon="8.417418422934128"><ele>37.0</ele><time>2026-05-02T10:16:44Z</time></trkpt><trkpt lat="40.82176992823611" lon="8.41729158332375"><ele>36.0</ele><time>2026-05-02T10:16:45Z</time></trkpt><trkpt lat="40.82185236851033" lon="8.417169371765333"><ele>35.0</ele><time>2026-05-02T10:16:46Z</time></trkpt><trkpt lat="40.82193777836454" lon="8.41703851002569"><ele>34.0</ele><time>2026-05-02T10:16:47Z</time></trkpt><trkpt lat="40.82203023096066" lon="8.41689737848081"><ele>33.0</ele><time>2026-05-02T10:16:48Z</time></trkpt><trkpt lat="40.82212814037669" lon="8.416750847966101"><ele>33.0</ele><time>2026-05-02T10:16:49Z</time></trkpt><trkpt lat="40.822236116488455" lon="8.416591681834385"><ele>33.0</ele><time>2026-05-02T10:16:50Z</time></trkpt><trkpt lat="40.82234238119033" lon="8.416424298692768"><ele>33.0</ele><time>2026-05-02T10:16:51Z</time></trkpt><trkpt lat="40.82245613174772" lon="8.416247226481273"><ele>32.666666666666664</ele><time>2026-05-02T10:16:52Z</time></trkpt><trkpt lat="40.82257778848637" lon="8.416057345111765"><ele>32.33333333333333</ele><time>2026-05-02T10:16:53Z</time></trkpt><trkpt lat="40.82270580835915" lon="8.415872983125622"><ele>32.0</ele><time>2026-05-02T10:16:54Z</time></trkpt><trkpt lat="40.8228350103339" lon="8.415690714700466"><ele>31.0</ele><time>2026-05-02T10:16:55Z</time></trkpt><trkpt lat="40.822955541795935" lon="8.415507016746766"><ele>30.0</ele><time>2026-05-02T10:16:56Z</time></trkpt><trkpt lat="40.82306969703065" lon="8.41532975524255"><ele>29.0</ele><time>2026-05-02T10:16:57Z</time></trkpt><trkpt lat="40.823175075431095" lon="8.415166086921536"><ele>28.75</ele><time>2026-05-02T10:16:58Z</time></trkpt><trkpt lat="40.82328043657589" lon="8.415013799764594"><ele>28.5</ele><time>2026-05-02T10:16:59Z</time></trkpt><trkpt lat="40.823376470690334" lon="8.41486272436673"><ele>28.25</ele><time>2026-05-02T10:17:00Z</time></trkpt><trkpt lat="40.82345437051994" lon="8.414726791609185"><ele>28.0</ele><time>2026-05-02T10:17:01Z</time></trkpt><trkpt lat="40.82352650448897" lon="8.41460627808197"><ele>28.000000000000004</ele><time>2026-05-02T10:17:02Z</time></trkpt><trkpt lat="40.823599984355845" lon="8.414514178777935"><ele>28.0</ele><time>2026-05-02T10:17:03Z</time></trkpt><trkpt lat="40.82366308491512" lon="8.414431913024755"><ele>28.0</ele><time>2026-05-02T10:17:04Z</time></trkpt><trkpt lat="40.823694586722986" lon="8.414329432046955"><ele>28.0</ele><time>2026-05-02T10:17:05Z</time></trkpt><trkpt lat="40.82369199761158" lon="8.414227258772302"><ele>28.000000000000004</ele><time>2026-05-02T10:17:06Z</time></trkpt><trkpt lat="40.82365830669964" lon="8.41414054902054"><ele>28.0</ele><time>2026-05-02T10:17:07Z</time></trkpt><trkpt lat="40.82360474025144" lon="8.414083589296407"><ele>28.0</ele><time>2026-05-02T10:17:08Z</time></trkpt><trkpt lat="40.82353485919652" lon="8.414019765821594"><ele>28.0</ele><time>2026-05-02T10:17:09Z</time></trkpt><trkpt lat="40.82346278553801" lon="8.413908038944834"><ele>28.0</ele><time>2026-05-02T10:17:10Z</time></trkpt><trkpt lat="40.82341659642258" lon="8.41375881556608"><ele>28.0</ele><time>2026-05-02T10:17:11Z</time></trkpt><trkpt lat="40.82337712978299" lon="8.413578376925397"><ele>28.0</ele><time>2026-05-02T10:17:12Z</time></trkpt><trkpt lat="40.823320644640205" lon="8.413360885219149"><ele>28.0</ele><time>2026-05-02T10:17:13Z</time></trkpt><trkpt lat="40.82326561315999" lon="8.413149276166754"><ele>28.0</ele><time>2026-05-02T10:17:14Z</time></trkpt><trkpt lat="40.82322244638586" lon="8.412903549537557"><ele>27.666666666666668</ele><time>2026-05-02T10:17:15Z</time></trkpt><trkpt lat="40.82320701430155" lon="8.412643221766126"><ele>27.333333333333336</ele><time>2026-05-02T10:17:16Z</time></trkpt><trkpt lat="40.82321559337353" lon="8.412376628389204"><ele>27.0</ele><time>2026-05-02T10:17:17Z</time></trkpt><trkpt lat="40.82324649099667" lon="8.412114459582206"><ele>26.0</ele><time>2026-05-02T10:17:18Z</time></trkpt><trkpt lat="40.82330755188098" lon="8.411862189961795"><ele>25.0</ele><time>2026-05-02T10:17:19Z</time></trkpt><trkpt lat="40.82338253607274" lon="8.411632799067648"><ele>24.0</ele><time>2026-05-02T10:17:20Z</time></trkpt><trkpt lat="40.82346914589039" lon="8.411411621561859"><ele>23.666666666666668</ele><time>2026-05-02T10:17:21Z</time></trkpt><trkpt lat="40.823592652601285" lon="8.411204325353491"><ele>23.333333333333336</ele><time>2026-05-02T10:17:22.001Z</time></trkpt><trkpt lat="40.823727332751815" lon="8.410988641480273"><ele>23.0</ele><time>2026-05-02T10:17:23.001Z</time></trkpt><trkpt lat="40.82385652170842" lon="8.410760932174842"><ele>23.0</ele><time>2026-05-02T10:17:24.001Z</time></trkpt><trkpt lat="40.82400281298215" lon="8.410543768868083"><ele>23.0</ele><time>2026-05-02T10:17:25.001Z</time></trkpt><trkpt lat="40.824143523223604" lon="8.410312800242767"><ele>23.0</ele><time>2026-05-02T10:17:26.001Z</time></trkpt><trkpt lat="40.82428150844011" lon="8.410088322311001"><ele>23.0</ele><time>2026-05-02T10:17:27.001Z</time></trkpt><trkpt lat="40.82441699319638" lon="8.40985926548501"><ele>23.0</ele><time>2026-05-02T10:17:28.001Z</time></trkpt><trkpt lat="40.82455299461277" lon="8.409645869416517"><ele>23.0</ele><time>2026-05-02T10:17:29.001Z</time></trkpt><trkpt lat="40.824686957814244" lon="8.40942502237019"><ele>22.0</ele><time>2026-05-02T10:17:30.001Z</time></trkpt><trkpt lat="40.824823576039044" lon="8.409200669138466"><ele>21.0</ele><time>2026-05-02T10:17:31.001Z</time></trkpt><trkpt lat="40.824962413042506" lon="8.408983647869624"><ele>20.0</ele><time>2026-05-02T10:17:32.001Z</time></trkpt><trkpt lat="40.825098070080614" lon="8.408755862951525"><ele>21.0</ele><time>2026-05-02T10:17:33.001Z</time></trkpt><trkpt lat="40.8252399792177" lon="8.408531592802378"><ele>22.0</ele><time>2026-05-02T10:17:34.001Z</time></trkpt><trkpt lat="40.82538255864891" lon="8.40830800368178"><ele>23.0</ele><time>2026-05-02T10:17:35.001Z</time></trkpt><trkpt lat="40.825522810269064" lon="8.408080834316557"><ele>23.0</ele><time>2026-05-02T10:17:36.001Z</time></trkpt><trkpt lat="40.82566399534931" lon="8.407853445223942"><ele>23.0</ele><time>2026-05-02T10:17:37.001Z</time></trkpt><trkpt lat="40.82580673305273" lon="8.407625251793858"><ele>23.0</ele><time>2026-05-02T10:17:38.001Z</time></trkpt><trkpt lat="40.8259469372353" lon="8.407397410615127"><ele>24.0</ele><time>2026-05-02T10:17:39.001Z</time></trkpt><trkpt lat="40.82609046885481" lon="8.407162106763911"><ele>25.0</ele><time>2026-05-02T10:17:40.001Z</time></trkpt><trkpt lat="40.826235968407246" lon="8.406939729378994"><ele>25.0</ele><time>2026-05-02T10:17:41.001Z</time></trkpt><trkpt lat="40.82637933877701" lon="8.406716536443106"><ele>25.0</ele><time>2026-05-02T10:17:42.001Z</time></trkpt><trkpt lat="40.82651711228847" lon="8.40649778042019"><ele>25.0</ele><time>2026-05-02T10:17:43.001Z</time></trkpt><trkpt lat="40.826652835974336" lon="8.406272269604962"><ele>25.333333333333336</ele><time>2026-05-02T10:17:44.001Z</time></trkpt><trkpt lat="40.82678911391291" lon="8.406053869797358"><ele>25.666666666666664</ele><time>2026-05-02T10:17:45.001Z</time></trkpt><trkpt lat="40.82692089122884" lon="8.405832355983092"><ele>26.0</ele><time>2026-05-02T10:17:46.001Z</time></trkpt><trkpt lat="40.827046687218846" lon="8.405610531831977"><ele>25.666666666666664</ele><time>2026-05-02T10:17:47.001Z</time></trkpt><trkpt lat="40.82715963608453" lon="8.40538797695572"><ele>25.333333333333336</ele><time>2026-05-02T10:17:48.001Z</time></trkpt><trkpt lat="40.82727341575952" lon="8.405151604728696"><ele>25.0</ele><time>2026-05-02T10:17:49.001Z</time></trkpt><trkpt lat="40.82738088500175" lon="8.404912568837814"><ele>25.0</ele><time>2026-05-02T10:17:50.001Z</time></trkpt><trkpt lat="40.82748785496897" lon="8.404674859166825"><ele>25.0</ele><time>2026-05-02T10:17:51Z</time></trkpt><trkpt lat="40.8275849278367" lon="8.40444559355558"><ele>25.0</ele><time>2026-05-02T10:17:52Z</time></trkpt><trkpt lat="40.82767664588849" lon="8.404211515200377"><ele>23.333333333333336</ele><time>2026-05-02T10:17:53Z</time></trkpt><trkpt lat="40.82778492274379" lon="8.403980579760972"><ele>21.666666666666668</ele><time>2026-05-02T10:17:54Z</time></trkpt><trkpt lat="40.827881552088215" lon="8.403745872086432"><ele>20.0</ele><time>2026-05-02T10:17:55Z</time></trkpt><trkpt lat="40.827923122699" lon="8.403464895964392"><ele>19.333333333333336</ele><time>2026-05-02T10:17:56Z</time></trkpt><trkpt lat="40.82800150110998" lon="8.403206326292333"><ele>18.666666666666668</ele><time>2026-05-02T10:17:57Z</time></trkpt><trkpt lat="40.82807556269176" lon="8.402944212119513"><ele>18.0</ele><time>2026-05-02T10:17:58Z</time></trkpt><trkpt lat="40.82813400215151" lon="8.402678708929173"><ele>17.666666666666668</ele><time>2026-05-02T10:17:59Z</time></trkpt><trkpt lat="40.82820603722359" lon="8.402403150996053"><ele>17.333333333333336</ele><time>2026-05-02T10:18:00Z</time></trkpt><trkpt lat="40.828268945373715" lon="8.402125184537518"><ele>17.0</ele><time>2026-05-02T10:18:01Z</time></trkpt><trkpt lat="40.828323603081145" lon="8.401843138359888"><ele>15.666666666666668</ele><time>2026-05-02T10:18:02Z</time></trkpt><trkpt lat="40.82837587766116" lon="8.40155595715352"><ele>14.333333333333332</ele><time>2026-05-02T10:18:03Z</time></trkpt><trkpt lat="40.828431611950684" lon="8.401270120665176"><ele>13.0</ele><time>2026-05-02T10:18:04Z</time></trkpt><trkpt lat="40.828488006924374" lon="8.401004177289481"><ele>12.666666666666666</ele><time>2026-05-02T10:18:05Z</time></trkpt><trkpt lat="40.82853762741176" lon="8.400752946321282"><ele>12.333333333333332</ele><time>2026-05-02T10:18:06Z</time></trkpt><trkpt lat="40.828578259582684" lon="8.400506786743176"><ele>12.0</ele><time>2026-05-02T10:18:07Z</time></trkpt><trkpt lat="40.82862505930732" lon="8.400265367926268"><ele>11.333333333333334</ele><time>2026-05-02T10:18:08Z</time></trkpt><trkpt lat="40.8286818083495" lon="8.400007300299494"><ele>10.666666666666668</ele><time>2026-05-02T10:18:09Z</time></trkpt><trkpt lat="40.8287393745805" lon="8.399731653064189"><ele>10.0</ele><time>2026-05-02T10:18:10Z</time></trkpt><trkpt lat="40.82879598688772" lon="8.399453362098718"><ele>10.0</ele><time>2026-05-02T10:18:11Z</time></trkpt><trkpt lat="40.82884686567237" lon="8.399171153038582"><ele>10.0</ele><time>2026-05-02T10:18:12Z</time></trkpt><trkpt lat="40.82889621771076" lon="8.39889595017846"><ele>10.0</ele><time>2026-05-02T10:18:13Z</time></trkpt><trkpt lat="40.828946199035016" lon="8.39862355155789"><ele>10.0</ele><time>2026-05-02T10:18:14Z</time></trkpt><trkpt lat="40.82899923635189" lon="8.39835409352875"><ele>10.0</ele><time>2026-05-02T10:18:15Z</time></trkpt><trkpt lat="40.82905409008961" lon="8.398094711084585"><ele>10.0</ele><time>2026-05-02T10:18:16Z</time></trkpt><trkpt lat="40.82911369213975" lon="8.397838379832834"><ele>10.0</ele><time>2026-05-02T10:18:17Z</time></trkpt><trkpt lat="40.829180149743756" lon="8.397582118063548"><ele>10.0</ele><time>2026-05-02T10:18:18Z</time></trkpt><trkpt lat="40.82925968740901" lon="8.397328162670451"><ele>10.0</ele><time>2026-05-02T10:18:19Z</time></trkpt><trkpt lat="40.82934809996407" lon="8.397076609168838"><ele>11.666666666666668</ele><time>2026-05-02T10:18:20Z</time></trkpt><trkpt lat="40.829448878800896" lon="8.396823745584529"><ele>13.333333333333334</ele><time>2026-05-02T10:18:21Z</time></trkpt><trkpt lat="40.82956518900421" lon="8.396579513609296"><ele>15.0</ele><time>2026-05-02T10:18:22Z</time></trkpt><trkpt lat="40.82969252513498" lon="8.396341260478133"><ele>13.0</ele><time>2026-05-02T10:18:23Z</time></trkpt><trkpt lat="40.829820584528456" lon="8.396105692463795"><ele>11.0</ele><time>2026-05-02T10:18:24Z</time></trkpt><trkpt lat="40.82995119813597" lon="8.395864369892198"><ele>9.0</ele><time>2026-05-02T10:18:25Z</time></trkpt><trkpt lat="40.830087413885245" lon="8.395620590866129"><ele>6.5</ele><time>2026-05-02T10:18:26Z</time></trkpt><trkpt lat="40.83022458064402" lon="8.39536534480494"><ele>4.0</ele><time>2026-05-02T10:18:27Z</time></trkpt><trkpt lat="40.83035877155524" lon="8.395118586472371"><ele>4.0</ele><time>2026-05-02T10:18:28Z</time></trkpt><trkpt lat="40.83049548567257" lon="8.39486468909384"><ele>4.0</ele><time>2026-05-02T10:18:29Z</time></trkpt><trkpt lat="40.83063430209605" lon="8.394611395522126"><ele>5.0</ele><time>2026-05-02T10:18:30Z</time></trkpt><trkpt lat="40.830763157117545" lon="8.394371591147852"><ele>6.0</ele><time>2026-05-02T10:18:31Z</time></trkpt><trkpt lat="40.83087988567778" lon="8.394135790719847"><ele>7.0</ele><time>2026-05-02T10:18:32Z</time></trkpt><trkpt lat="40.830981714831715" lon="8.39392764243123"><ele>10.0</ele><time>2026-05-02T10:18:33Z</time></trkpt><trkpt lat="40.83107833263084" lon="8.393742742611751"><ele>13.0</ele><time>2026-05-02T10:18:34Z</time></trkpt><trkpt lat="40.83117478925965" lon="8.393558064544575"><ele>16.0</ele><time>2026-05-02T10:18:35Z</time></trkpt><trkpt lat="40.831266711246464" lon="8.393382651856522"><ele>16.0</ele><time>2026-05-02T10:18:36Z</time></trkpt><trkpt lat="40.831359993800966" lon="8.393205189810049"><ele>16.0</ele><time>2026-05-02T10:18:37Z</time></trkpt><trkpt lat="40.831459541560065" lon="8.393016276598008"><ele>16.0</ele><time>2026-05-02T10:18:38Z</time></trkpt><trkpt lat="40.83156777906302" lon="8.3928102113772"><ele>16.333333333333332</ele><time>2026-05-02T10:18:39Z</time></trkpt><trkpt lat="40.8316855224853" lon="8.392591957258142"><ele>16.666666666666668</ele><time>2026-05-02T10:18:40Z</time></trkpt><trkpt lat="40.83180843777621" lon="8.392347327549432"><ele>17.0</ele><time>2026-05-02T10:18:41Z</time></trkpt><trkpt lat="40.831934385635925" lon="8.392101669469387"><ele>18.0</ele><time>2026-05-02T10:18:42Z</time></trkpt><trkpt lat="40.8320631569887" lon="8.391869551935839"><ele>19.0</ele><time>2026-05-02T10:18:43Z</time></trkpt><trkpt lat="40.83220292225381" lon="8.391646189069164"><ele>20.0</ele><time>2026-05-02T10:18:44Z</time></trkpt><trkpt lat="40.83233521940602" lon="8.391411387102663"><ele>20.333333333333336</ele><time>2026-05-02T10:18:45Z</time></trkpt><trkpt lat="40.83245930166282" lon="8.391167945927627"><ele>20.666666666666668</ele><time>2026-05-02T10:18:46Z</time></trkpt><trkpt lat="40.832589606884234" lon="8.39093239757816"><ele>21.0</ele><time>2026-05-02T10:18:47Z</time></trkpt><trkpt lat="40.83272273776738" lon="8.39070642240561"><ele>21.333333333333332</ele><time>2026-05-02T10:18:48Z</time></trkpt><trkpt lat="40.83286080533454" lon="8.390466507685987"><ele>21.666666666666664</ele><time>2026-05-02T10:18:49Z</time></trkpt><trkpt lat="40.83298547316036" lon="8.3902765023299"><ele>22.0</ele><time>2026-05-02T10:18:50Z</time></trkpt><trkpt lat="40.83309991222182" lon="8.390129419147101"><ele>22.0</ele><time>2026-05-02T10:18:51Z</time></trkpt><trkpt lat="40.83320893029946" lon="8.390012744229203"><ele>22.0</ele><time>2026-05-02T10:18:52Z</time></trkpt><trkpt lat="40.833321403455166" lon="8.389901870781884"><ele>22.0</ele><time>2026-05-02T10:18:53.001Z</time></trkpt><trkpt lat="40.83343549318639" lon="8.389816409981949"><ele>22.0</ele><time>2026-05-02T10:18:54.001Z</time></trkpt><trkpt lat="40.833551289248476" lon="8.389753530291982"><ele>21.75</ele><time>2026-05-02T10:18:55.001Z</time></trkpt><trkpt lat="40.83366255280737" lon="8.389722985981928"><ele>21.5</ele><time>2026-05-02T10:18:56.001Z</time></trkpt><trkpt lat="40.83377820799262" lon="8.389734295337544"><ele>21.25</ele><time>2026-05-02T10:18:57.001Z</time></trkpt><trkpt lat="40.83388657293384" lon="8.389806198150435"><ele>21.0</ele><time>2026-05-02T10:18:58.001Z</time></trkpt><trkpt lat="40.83399013150485" lon="8.389901966126963"><ele>21.0</ele><time>2026-05-02T10:18:59.001Z</time></trkpt><trkpt lat="40.83407676640711" lon="8.390030038403806"><ele>21.0</ele><time>2026-05-02T10:19:00.001Z</time></trkpt><trkpt lat="40.83413877560222" lon="8.390181632461164"><ele>21.0</ele><time>2026-05-02T10:19:01.001Z</time></trkpt><trkpt lat="40.83416685790472" lon="8.390367856346957"><ele>21.0</ele><time>2026-05-02T10:19:02.001Z</time></trkpt><trkpt lat="40.83415398793055" lon="8.390566299233173"><ele>20.75</ele><time>2026-05-02T10:19:03.001Z</time></trkpt><trkpt lat="40.83411936160059" lon="8.39074627678671"><ele>20.5</ele><time>2026-05-02T10:19:04.001Z</time></trkpt><trkpt lat="40.83404881185228" lon="8.39089794668184"><ele>20.25</ele><time>2026-05-02T10:19:05.001Z</time></trkpt><trkpt lat="40.83394573450624" lon="8.391002440961591"><ele>20.0</ele><time>2026-05-02T10:19:06.001Z</time></trkpt><trkpt lat="40.83382347910114" lon="8.391072130742558"><ele>20.0</ele><time>2026-05-02T10:19:07.001Z</time></trkpt><trkpt lat="40.83367724431393" lon="8.391100829310021"><ele>20.0</ele><time>2026-05-02T10:19:08.001Z</time></trkpt><trkpt lat="40.83351825062973" lon="8.391103474408943"><ele>20.0</ele><time>2026-05-02T10:19:09.001Z</time></trkpt><trkpt lat="40.83335907210986" lon="8.391091999231122"><ele>20.333333333333336</ele><time>2026-05-02T10:19:10.001Z</time></trkpt><trkpt lat="40.83317620086912" lon="8.391079508552249"><ele>20.666666666666668</ele><time>2026-05-02T10:19:11.001Z</time></trkpt><trkpt lat="40.8329798032762" lon="8.391058070236355"><ele>21.0</ele><time>2026-05-02T10:19:12.001Z</time></trkpt><trkpt lat="40.83277875300222" lon="8.391025737084801"><ele>21.333333333333332</ele><time>2026-05-02T10:19:13.001Z</time></trkpt><trkpt lat="40.83258080539584" lon="8.390992725143258"><ele>21.666666666666664</ele><time>2026-05-02T10:19:14.001Z</time></trkpt><trkpt lat="40.832362582839764" lon="8.390962069661219"><ele>22.0</ele><time>2026-05-02T10:19:15.001Z</time></trkpt><trkpt lat="40.83213885373191" lon="8.390929702936884"><ele>22.0</ele><time>2026-05-02T10:19:16.001Z</time></trkpt><trkpt lat="40.831908433330035" lon="8.3908942470151"><ele>22.0</ele><time>2026-05-02T10:19:17.001Z</time></trkpt><trkpt lat="40.83166573523505" lon="8.390854971006998"><ele>22.5</ele><time>2026-05-02T10:19:18.001Z</time></trkpt><trkpt lat="40.8314267191548" lon="8.390816080202116"><ele>23.0</ele><time>2026-05-02T10:19:19.001Z</time></trkpt><trkpt lat="40.83118938355825" lon="8.390776553036408"><ele>22.5</ele><time>2026-05-02T10:19:20.001Z</time></trkpt><trkpt lat="40.830944464626015" lon="8.39073574341073"><ele>22.0</ele><time>2026-05-02T10:19:21.001Z</time></trkpt><trkpt lat="40.830697356415776" lon="8.390696520353396"><ele>22.0</ele><time>2026-05-02T10:19:22.001Z</time></trkpt><trkpt lat="40.83044706663152" lon="8.390653233104421"><ele>22.0</ele><time>2026-05-02T10:19:23.001Z</time></trkpt><trkpt lat="40.83019473579407" lon="8.390605015780784"><ele>21.5</ele><time>2026-05-02T10:19:24.001Z</time></trkpt><trkpt lat="40.82994379962337" lon="8.390554195452145"><ele>21.0</ele><time>2026-05-02T10:19:25.001Z</time></trkpt><trkpt lat="40.82968980924384" lon="8.390492460377889"><ele>22.5</ele><time>2026-05-02T10:19:26.001Z</time></trkpt><trkpt lat="40.82943662023509" lon="8.390414021021222"><ele>24.0</ele><time>2026-05-02T10:19:27.001Z</time></trkpt><trkpt lat="40.82918801613793" lon="8.390323790282556"><ele>24.5</ele><time>2026-05-02T10:19:28.001Z</time></trkpt><trkpt lat="40.82893830637767" lon="8.390226165406087"><ele>25.0</ele><time>2026-05-02T10:19:29.001Z</time></trkpt><trkpt lat="40.828684471587266" lon="8.390122919771171"><ele>25.5</ele><time>2026-05-02T10:19:30.001Z</time></trkpt><trkpt lat="40.82843159350785" lon="8.390011504667791"><ele>26.0</ele><time>2026-05-02T10:19:31.001Z</time></trkpt><trkpt lat="40.828180365884656" lon="8.389895687488355"><ele>26.0</ele><time>2026-05-02T10:19:32.001Z</time></trkpt><trkpt lat="40.82792654775788" lon="8.389772372181751"><ele>26.0</ele><time>2026-05-02T10:19:33.001Z</time></trkpt><trkpt lat="40.82766156715878" lon="8.389646466597558"><ele>25.5</ele><time>2026-05-02T10:19:34.001Z</time></trkpt><trkpt lat="40.82739515397255" lon="8.389514324357682"><ele>25.0</ele><time>2026-05-02T10:19:35.001Z</time></trkpt><trkpt lat="40.8271239665796" lon="8.389374430334732"><ele>25.0</ele><time>2026-05-02T10:19:36.001Z</time></trkpt><trkpt lat="40.826852681798556" lon="8.389238045209218"><ele>25.0</ele><time>2026-05-02T10:19:37.001Z</time></trkpt><trkpt lat="40.826576912389584" lon="8.38910089682406"><ele>23.5</ele><time>2026-05-02T10:19:38.001Z</time></trkpt><trkpt lat="40.82629901313489" lon="8.388962281491558"><ele>22.0</ele><time>2026-05-02T10:19:39.001Z</time></trkpt><trkpt lat="40.82602199433261" lon="8.3888226336057"><ele>20.5</ele><time>2026-05-02T10:19:40.001Z</time></trkpt><trkpt lat="40.825738754569635" lon="8.38867855918847"><ele>19.0</ele><time>2026-05-02T10:19:41.001Z</time></trkpt><trkpt lat="40.82545415629521" lon="8.388532618523234"><ele>19.0</ele><time>2026-05-02T10:19:42.001Z</time></trkpt><trkpt lat="40.82518088052747" lon="8.388394333125856"><ele>19.0</ele><time>2026-05-02T10:19:43.001Z</time></trkpt><trkpt lat="40.824917589779716" lon="8.388262239904648"><ele>18.5</ele><time>2026-05-02T10:19:44.001Z</time></trkpt><trkpt lat="40.82465283214479" lon="8.38812761947866"><ele>18.0</ele><time>2026-05-02T10:19:45.001Z</time></trkpt><trkpt lat="40.82438351764854" lon="8.387991857140458"><ele>17.5</ele><time>2026-05-02T10:19:46.001Z</time></trkpt><trkpt lat="40.82411184816393" lon="8.387857319317915"><ele>17.0</ele><time>2026-05-02T10:19:47.001Z</time></trkpt><trkpt lat="40.823837978273374" lon="8.387724501755095"><ele>17.0</ele><time>2026-05-02T10:19:48.001Z</time></trkpt><trkpt lat="40.823564014073774" lon="8.387589994747756"><ele>17.0</ele><time>2026-05-02T10:19:49.001Z</time></trkpt><trkpt lat="40.82328837802421" lon="8.387457274592913"><ele>16.0</ele><time>2026-05-02T10:19:50.001Z</time></trkpt><trkpt lat="40.82301282972799" lon="8.387322809397238"><ele>15.0</ele><time>2026-05-02T10:19:51.001Z</time></trkpt><trkpt lat="40.822736961643436" lon="8.387188648668838"><ele>18.0</ele><time>2026-05-02T10:19:52.001Z</time></trkpt><trkpt lat="40.82245321999935" lon="8.387051644719268"><ele>21.0</ele><time>2026-05-02T10:19:53.001Z</time></trkpt><trkpt lat="40.822177074007804" lon="8.386914926459792"><ele>21.0</ele><time>2026-05-02T10:19:54.001Z</time></trkpt><trkpt lat="40.821902411972616" lon="8.386779548296117"><ele>21.0</ele><time>2026-05-02T10:19:55.001Z</time></trkpt><trkpt lat="40.82162715728793" lon="8.386634623059061"><ele>19.5</ele><time>2026-05-02T10:19:56.001Z</time></trkpt><trkpt lat="40.82135525186203" lon="8.386490634977655"><ele>18.0</ele><time>2026-05-02T10:19:57.001Z</time></trkpt><trkpt lat="40.82108464350369" lon="8.386350906194798"><ele>18.0</ele><time>2026-05-02T10:19:58.001Z</time></trkpt><trkpt lat="40.82081864091466" lon="8.38621425987077"><ele>18.0</ele><time>2026-05-02T10:19:59.001Z</time></trkpt><trkpt lat="40.82054963656456" lon="8.38607881634764"><ele>18.0</ele><time>2026-05-02T10:20:00.001Z</time></trkpt><trkpt lat="40.820281088491924" lon="8.385943379516286"><ele>18.0</ele><time>2026-05-02T10:20:01.001Z</time></trkpt><trkpt lat="40.82000984731677" lon="8.385807164080274"><ele>16.5</ele><time>2026-05-02T10:20:02.001Z</time></trkpt><trkpt lat="40.81973271816633" lon="8.385671111629543"><ele>15.0</ele><time>2026-05-02T10:20:03.001Z</time></trkpt><trkpt lat="40.81944711718682" lon="8.385522537468741"><ele>17.5</ele><time>2026-05-02T10:20:04.001Z</time></trkpt><trkpt lat="40.81914580755312" lon="8.385370426523085"><ele>20.0</ele><time>2026-05-02T10:20:05.001Z</time></trkpt><trkpt lat="40.81884308262881" lon="8.385218732696044"><ele>20.0</ele><time>2026-05-02T10:20:06.001Z</time></trkpt><trkpt lat="40.81854192177222" lon="8.385068207534708"><ele>20.0</ele><time>2026-05-02T10:20:07.001Z</time></trkpt><trkpt lat="40.81824256810665" lon="8.384916080501755"><ele>19.5</ele><time>2026-05-02T10:20:08.001Z</time></trkpt><trkpt lat="40.81796774456101" lon="8.384767412856927"><ele>19.0</ele><time>2026-05-02T10:20:09.001Z</time></trkpt><trkpt lat="40.817713913829024" lon="8.384621707598798"><ele>18.5</ele><time>2026-05-02T10:20:10.001Z</time></trkpt><trkpt lat="40.817473306973675" lon="8.384468809033763"><ele>18.0</ele><time>2026-05-02T10:20:11.001Z</time></trkpt><trkpt lat="40.81724920754821" lon="8.38431831517662"><ele>18.0</ele><time>2026-05-02T10:20:12.001Z</time></trkpt><trkpt lat="40.817031182457775" lon="8.384151876342623"><ele>18.0</ele><time>2026-05-02T10:20:13.001Z</time></trkpt><trkpt lat="40.816809076996" lon="8.383958438470726"><ele>16.0</ele><time>2026-05-02T10:20:14.001Z</time></trkpt><trkpt lat="40.81658265907941" lon="8.383732910905193"><ele>14.0</ele><time>2026-05-02T10:20:15Z</time></trkpt><trkpt lat="40.816377689984975" lon="8.38349292064104"><ele>14.0</ele><time>2026-05-02T10:20:16Z</time></trkpt><trkpt lat="40.816195417255194" lon="8.383262152372875"><ele>14.0</ele><time>2026-05-02T10:20:17Z</time></trkpt><trkpt lat="40.81602748332159" lon="8.383036544828004"><ele>12.333333333333334</ele><time>2026-05-02T10:20:18Z</time></trkpt><trkpt lat="40.81587148249141" lon="8.382821794957408"><ele>10.666666666666668</ele><time>2026-05-02T10:20:19Z</time></trkpt><trkpt lat="40.81572663749442" lon="8.382599530841015"><ele>9.0</ele><time>2026-05-02T10:20:20Z</time></trkpt><trkpt lat="40.81559593896456" lon="8.382373066722279"><ele>9.333333333333334</ele><time>2026-05-02T10:20:21Z</time></trkpt><trkpt lat="40.815457349864566" lon="8.382147759586049"><ele>9.666666666666668</ele><time>2026-05-02T10:20:22Z</time></trkpt><trkpt lat="40.8152930358419" lon="8.381936514627041"><ele>10.0</ele><time>2026-05-02T10:20:23Z</time></trkpt><trkpt lat="40.81510719708839" lon="8.381782102999459"><ele>11.0</ele><time>2026-05-02T10:20:24Z</time></trkpt><trkpt lat="40.8149308129434" lon="8.381625171642368"><ele>12.0</ele><time>2026-05-02T10:20:25Z</time></trkpt><trkpt lat="40.81479174848991" lon="8.381402948655923"><ele>13.0</ele><time>2026-05-02T10:20:26Z</time></trkpt><trkpt lat="40.81469602730361" lon="8.381129610602573"><ele>14.5</ele><time>2026-05-02T10:20:27Z</time></trkpt><trkpt lat="40.81466328950561" lon="8.380819958932198"><ele>16.0</ele><time>2026-05-02T10:20:28Z</time></trkpt><trkpt lat="40.81465802899505" lon="8.380489437851592"><ele>17.0</ele><time>2026-05-02T10:20:29Z</time></trkpt><trkpt lat="40.81467591987801" lon="8.38015533881558"><ele>18.0</ele><time>2026-05-02T10:20:30Z</time></trkpt><trkpt lat="40.81469425768549" lon="8.37982430350545"><ele>18.5</ele><time>2026-05-02T10:20:31Z</time></trkpt><trkpt lat="40.81469800246336" lon="8.379496713107242"><ele>19.0</ele><time>2026-05-02T10:20:32Z</time></trkpt><trkpt lat="40.814702936257035" lon="8.379184011325462"><ele>19.0</ele><time>2026-05-02T10:20:33Z</time></trkpt><trkpt lat="40.814708685498005" lon="8.378877851655506"><ele>19.0</ele><time>2026-05-02T10:20:34Z</time></trkpt><trkpt lat="40.81471550633819" lon="8.378609882161367"><ele>19.0</ele><time>2026-05-02T10:20:35Z</time></trkpt><trkpt lat="40.81472861365924" lon="8.378359200675092"><ele>19.333333333333332</ele><time>2026-05-02T10:20:36Z</time></trkpt><trkpt lat="40.8147469276829" lon="8.378107018280527"><ele>19.666666666666668</ele><time>2026-05-02T10:20:37Z</time></trkpt><trkpt lat="40.81476113407384" lon="8.377841500148147"><ele>20.0</ele><time>2026-05-02T10:20:38Z</time></trkpt><trkpt lat="40.81477053546204" lon="8.377577039022917"><ele>20.666666666666668</ele><time>2026-05-02T10:20:39Z</time></trkpt><trkpt lat="40.81477897036785" lon="8.377327654800778"><ele>21.333333333333332</ele><time>2026-05-02T10:20:40Z</time></trkpt><trkpt lat="40.81478873879533" lon="8.377076933056"><ele>22.0</ele><time>2026-05-02T10:20:41Z</time></trkpt><trkpt lat="40.81479546967168" lon="8.376837260311222"><ele>22.25</ele><time>2026-05-02T10:20:42Z</time></trkpt><trkpt lat="40.81479730473485" lon="8.376634988862538"><ele>22.5</ele><time>2026-05-02T10:20:43Z</time></trkpt><trkpt lat="40.814801428671444" lon="8.376474531071757"><ele>22.75</ele><time>2026-05-02T10:20:44Z</time></trkpt><trkpt lat="40.81482872882306" lon="8.37635285693944"><ele>23.0</ele><time>2026-05-02T10:20:45Z</time></trkpt><trkpt lat="40.81487833991352" lon="8.376268088773788"><ele>23.0</ele><time>2026-05-02T10:20:46Z</time></trkpt><trkpt lat="40.81493400485109" lon="8.376195325400115"><ele>23.0</ele><time>2026-05-02T10:20:47Z</time></trkpt><trkpt lat="40.81497879360394" lon="8.37611618115113"><ele>23.0</ele><time>2026-05-02T10:20:48Z</time></trkpt><trkpt lat="40.814984257376054" lon="8.37600448357774"><ele>23.0</ele><time>2026-05-02T10:20:49Z</time></trkpt><trkpt lat="40.81494543005029" lon="8.37587776425353"><ele>23.0</ele><time>2026-05-02T10:20:50Z</time></trkpt><trkpt lat="40.81488590361677" lon="8.375729684587466"><ele>23.0</ele><time>2026-05-02T10:20:51Z</time></trkpt><trkpt lat="40.814843418750904" lon="8.375573064502605"><ele>23.0</ele><time>2026-05-02T10:20:52.001Z</time></trkpt><trkpt lat="40.81481848003293" lon="8.375375434847397"><ele>23.0</ele><time>2026-05-02T10:20:53.001Z</time></trkpt><trkpt lat="40.814804645161146" lon="8.375147495278583"><ele>23.333333333333336</ele><time>2026-05-02T10:20:54.001Z</time></trkpt><trkpt lat="40.81479853396202" lon="8.3748903106033"><ele>23.666666666666668</ele><time>2026-05-02T10:20:55.001Z</time></trkpt><trkpt lat="40.81480081621343" lon="8.37462713480019"><ele>24.0</ele><time>2026-05-02T10:20:56.001Z</time></trkpt><trkpt lat="40.81479636651293" lon="8.374332740652147"><ele>24.0</ele><time>2026-05-02T10:20:57.001Z</time></trkpt><trkpt lat="40.81478642846989" lon="8.374031975337436"><ele>24.0</ele><time>2026-05-02T10:20:58.001Z</time></trkpt><trkpt lat="40.814772275560884" lon="8.373727115229089"><ele>23.5</ele><time>2026-05-02T10:20:59.001Z</time></trkpt><trkpt lat="40.81477066822686" lon="8.373416201975905"><ele>23.0</ele><time>2026-05-02T10:21:00.001Z</time></trkpt><trkpt lat="40.8147783443565" lon="8.3730915545659"><ele>24.5</ele><time>2026-05-02T10:21:01.001Z</time></trkpt><trkpt lat="40.814782892920405" lon="8.37276259814735"><ele>26.0</ele><time>2026-05-02T10:21:02.001Z</time></trkpt><trkpt lat="40.81479401874112" lon="8.372413309178391"><ele>25.5</ele><time>2026-05-02T10:21:03.001Z</time></trkpt><trkpt lat="40.81479970344024" lon="8.372077770278967"><ele>25.0</ele><time>2026-05-02T10:21:04.001Z</time></trkpt><trkpt lat="40.814806686142774" lon="8.371734479873936"><ele>25.0</ele><time>2026-05-02T10:21:05.001Z</time></trkpt><trkpt lat="40.814812154494234" lon="8.371373878210841"><ele>25.0</ele><time>2026-05-02T10:21:06.001Z</time></trkpt><trkpt lat="40.81481642266264" lon="8.371015129622291"><ele>24.5</ele><time>2026-05-02T10:21:07.001Z</time></trkpt><trkpt lat="40.814818399356255" lon="8.37065513479954"><ele>24.0</ele><time>2026-05-02T10:21:08.001Z</time></trkpt><trkpt lat="40.8148208031591" lon="8.370288586584072"><ele>22.5</ele><time>2026-05-02T10:21:09.001Z</time></trkpt><trkpt lat="40.81482508865687" lon="8.369921038708096"><ele>21.0</ele><time>2026-05-02T10:21:10.001Z</time></trkpt><trkpt lat="40.81482841931077" lon="8.369551323979707"><ele>20.0</ele><time>2026-05-02T10:21:11.001Z</time></trkpt><trkpt lat="40.81483235234202" lon="8.369177549706714"><ele>19.0</ele><time>2026-05-02T10:21:12.001Z</time></trkpt><trkpt lat="40.81483605926164" lon="8.368801255035724"><ele>17.0</ele><time>2026-05-02T10:21:13.001Z</time></trkpt><trkpt lat="40.81483939239522" lon="8.368421232096011"><ele>15.0</ele><time>2026-05-02T10:21:14.001Z</time></trkpt><trkpt lat="40.81484083911296" lon="8.368041084368043"><ele>14.5</ele><time>2026-05-02T10:21:15.001Z</time></trkpt><trkpt lat="40.814844860718495" lon="8.367660385463195"><ele>14.0</ele><time>2026-05-02T10:21:16.001Z</time></trkpt><trkpt lat="40.81485143643661" lon="8.367283240376981"><ele>15.0</ele><time>2026-05-02T10:21:17.001Z</time></trkpt><trkpt lat="40.81487145014846" lon="8.366913243322449"><ele>16.0</ele><time>2026-05-02T10:21:18.001Z</time></trkpt><trkpt lat="40.81487661769331" lon="8.366539816908277"><ele>16.0</ele><time>2026-05-02T10:21:19.001Z</time></trkpt><trkpt lat="40.81486734357576" lon="8.366189381911587"><ele>16.0</ele><time>2026-05-02T10:21:20.001Z</time></trkpt><trkpt lat="40.81487450299834" lon="8.365848311065603"><ele>17.0</ele><time>2026-05-02T10:21:21.001Z</time></trkpt><trkpt lat="40.814881550021326" lon="8.365518937612341"><ele>18.0</ele><time>2026-05-02T10:21:22.001Z</time></trkpt><trkpt lat="40.81488697058635" lon="8.365193599623444"><ele>18.0</ele><time>2026-05-02T10:21:23.001Z</time></trkpt><trkpt lat="40.814893583576165" lon="8.36487672665699"><ele>18.0</ele><time>2026-05-02T10:21:24.001Z</time></trkpt><trkpt lat="40.81489788370482" lon="8.364572176676646"><ele>19.5</ele><time>2026-05-02T10:21:25.001Z</time></trkpt><trkpt lat="40.814905708205934" lon="8.364262972675535"><ele>21.0</ele><time>2026-05-02T10:21:26.001Z</time></trkpt><trkpt lat="40.81491104041656" lon="8.363952581705597"><ele>21.0</ele><time>2026-05-02T10:21:27.001Z</time></trkpt><trkpt lat="40.81491486965794" lon="8.363641108761806"><ele>21.0</ele><time>2026-05-02T10:21:28.001Z</time></trkpt><trkpt lat="40.81491838556445" lon="8.363329090680693"><ele>22.0</ele><time>2026-05-02T10:21:29.001Z</time></trkpt><trkpt lat="40.814923577227404" lon="8.363027557530742"><ele>23.0</ele><time>2026-05-02T10:21:30.001Z</time></trkpt><trkpt lat="40.81492822764289" lon="8.3627277449296"><ele>23.0</ele><time>2026-05-02T10:21:31.001Z</time></trkpt><trkpt lat="40.81492876599118" lon="8.362439967927905"><ele>23.0</ele><time>2026-05-02T10:21:32.001Z</time></trkpt><trkpt lat="40.81491487929312" lon="8.362167065875543"><ele>23.0</ele><time>2026-05-02T10:21:33.001Z</time></trkpt><trkpt lat="40.81487220276493" lon="8.3619012480577"><ele>23.333333333333336</ele><time>2026-05-02T10:21:34.001Z</time></trkpt><trkpt lat="40.81481435824336" lon="8.36164342758014"><ele>23.666666666666668</ele><time>2026-05-02T10:21:35.001Z</time></trkpt><trkpt lat="40.81474575274576" lon="8.361395913277233"><ele>24.0</ele><time>2026-05-02T10:21:36.001Z</time></trkpt><trkpt lat="40.81467683593342" lon="8.361171420249818"><ele>24.0</ele><time>2026-05-02T10:21:37.001Z</time></trkpt><trkpt lat="40.814618988032365" lon="8.360962604959893"><ele>24.0</ele><time>2026-05-02T10:21:38.001Z</time></trkpt><trkpt lat="40.81457259106725" lon="8.360772297395599"><ele>24.0</ele><time>2026-05-02T10:21:39.001Z</time></trkpt><trkpt lat="40.81455795430775" lon="8.360614486356855"><ele>24.0</ele><time>2026-05-02T10:21:40.001Z</time></trkpt><trkpt lat="40.8145812478365" lon="8.360482027197568"><ele>23.6</ele><time>2026-05-02T10:21:41.001Z</time></trkpt><trkpt lat="40.814638015202334" lon="8.360390136407313"><ele>23.2</ele><time>2026-05-02T10:21:42.001Z</time></trkpt><trkpt lat="40.81468388129083" lon="8.360314294888635"><ele>22.8</ele><time>2026-05-02T10:21:43.001Z</time></trkpt><trkpt lat="40.81472424170863" lon="8.360225145667068"><ele>22.400000000000002</ele><time>2026-05-02T10:21:44.001Z</time></trkpt><trkpt lat="40.81484318144688" lon="8.360171362564818"><ele>22.0</ele><time>2026-05-02T10:21:45.001Z</time></trkpt><trkpt lat="40.81489600570543" lon="8.36006303534769"><ele>22.0</ele><time>2026-05-02T10:21:46.001Z</time></trkpt><trkpt lat="40.81493192493113" lon="8.359944739685517"><ele>22.0</ele><time>2026-05-02T10:21:47.001Z</time></trkpt><trkpt lat="40.81495161678897" lon="8.359794716211725"><ele>22.0</ele><time>2026-05-02T10:21:48.001Z</time></trkpt><trkpt lat="40.8149490182565" lon="8.359602503962753"><ele>22.0</ele><time>2026-05-02T10:21:49.001Z</time></trkpt><trkpt lat="40.814948229710154" lon="8.359393849227056"><ele>22.0</ele><time>2026-05-02T10:21:50.001Z</time></trkpt><trkpt lat="40.81495494121846" lon="8.359153692989954"><ele>22.0</ele><time>2026-05-02T10:21:51.001Z</time></trkpt><trkpt lat="40.81497352610982" lon="8.358870474414823"><ele>22.0</ele><time>2026-05-02T10:21:52.001Z</time></trkpt><trkpt lat="40.814987482776615" lon="8.358538786374874"><ele>23.5</ele><time>2026-05-02T10:21:53.001Z</time></trkpt><trkpt lat="40.81498752167615" lon="8.358236156837803"><ele>25.0</ele><time>2026-05-02T10:21:54.001Z</time></trkpt><trkpt lat="40.814994412849245" lon="8.357938533966475"><ele>26.0</ele><time>2026-05-02T10:21:55.001Z</time></trkpt><trkpt lat="40.81499835027974" lon="8.35763740091599"><ele>27.0</ele><time>2026-05-02T10:21:56.001Z</time></trkpt><trkpt lat="40.81499499051074" lon="8.35735172591907"><ele>28.0</ele><time>2026-05-02T10:21:57.001Z</time></trkpt><trkpt lat="40.8149864669303" lon="8.35705494300515"><ele>28.0</ele><time>2026-05-02T10:21:58.001Z</time></trkpt><trkpt lat="40.81500379921932" lon="8.356726452650165"><ele>28.0</ele><time>2026-05-02T10:21:59.001Z</time></trkpt><trkpt lat="40.81500680559541" lon="8.356354047012928"><ele>28.0</ele><time>2026-05-02T10:22:00.001Z</time></trkpt><trkpt lat="40.81502664366796" lon="8.355966040077718"><ele>28.0</ele><time>2026-05-02T10:22:01.001Z</time></trkpt><trkpt lat="40.81502407711547" lon="8.355601289381267"><ele>29.5</ele><time>2026-05-02T10:22:02.001Z</time></trkpt><trkpt lat="40.81502208371566" lon="8.355240440320626"><ele>31.0</ele><time>2026-05-02T10:22:03.001Z</time></trkpt><trkpt lat="40.81502721836004" lon="8.354884514833136"><ele>32.5</ele><time>2026-05-02T10:22:04.001Z</time></trkpt><trkpt lat="40.81503526859924" lon="8.354537075441815"><ele>34.0</ele><time>2026-05-02T10:22:05.001Z</time></trkpt><trkpt lat="40.8150385561751" lon="8.354182393054357"><ele>35.0</ele><time>2026-05-02T10:22:06.001Z</time></trkpt><trkpt lat="40.815043422606564" lon="8.353824414401453"><ele>36.0</ele><time>2026-05-02T10:22:07.001Z</time></trkpt><trkpt lat="40.81504432824303" lon="8.353472644582059"><ele>36.0</ele><time>2026-05-02T10:22:08.001Z</time></trkpt><trkpt lat="40.81504531153161" lon="8.353139850844455"><ele>36.0</ele><time>2026-05-02T10:22:09.001Z</time></trkpt><trkpt lat="40.81505151937868" lon="8.352811873490458"><ele>35.0</ele><time>2026-05-02T10:22:10.001Z</time></trkpt><trkpt lat="40.81505454074213" lon="8.352483485113133"><ele>34.0</ele><time>2026-05-02T10:22:11.001Z</time></trkpt><trkpt lat="40.815054291906385" lon="8.352152630937711"><ele>34.0</ele><time>2026-05-02T10:22:12.001Z</time></trkpt><trkpt lat="40.8150618672583" lon="8.351829789248045"><ele>34.0</ele><time>2026-05-02T10:22:13.001Z</time></trkpt><trkpt lat="40.81506672285222" lon="8.351508353838101"><ele>33.5</ele><time>2026-05-02T10:22:14.001Z</time></trkpt><trkpt lat="40.815067906897035" lon="8.351185271711289"><ele>33.0</ele><time>2026-05-02T10:22:15.001Z</time></trkpt><trkpt lat="40.81506956108883" lon="8.350868839909985"><ele>33.0</ele><time>2026-05-02T10:22:16.001Z</time></trkpt><trkpt lat="40.81507035113288" lon="8.35054234638083"><ele>33.0</ele><time>2026-05-02T10:22:17.001Z</time></trkpt><trkpt lat="40.81507455239386" lon="8.350212016409726"><ele>33.0</ele><time>2026-05-02T10:22:18.001Z</time></trkpt><trkpt lat="40.81507714965196" lon="8.349876134927195"><ele>33.0</ele><time>2026-05-02T10:22:19.001Z</time></trkpt><trkpt lat="40.815083461640384" lon="8.349541430991502"><ele>35.0</ele><time>2026-05-02T10:22:20.001Z</time></trkpt><trkpt lat="40.81508564835565" lon="8.349202724601525"><ele>37.0</ele><time>2026-05-02T10:22:21.001Z</time></trkpt><trkpt lat="40.815091356743686" lon="8.34886004168048"><ele>38.5</ele><time>2026-05-02T10:22:22.001Z</time></trkpt><trkpt lat="40.815097947422224" lon="8.348523074541355"><ele>40.0</ele><time>2026-05-02T10:22:23.001Z</time></trkpt><trkpt lat="40.815102937483765" lon="8.348179703659849"><ele>41.5</ele><time>2026-05-02T10:22:24.001Z</time></trkpt><trkpt lat="40.81510970437367" lon="8.347838540867356"><ele>43.0</ele><time>2026-05-02T10:22:25.001Z</time></trkpt><trkpt lat="40.81511678622679" lon="8.347486011576844"><ele>43.0</ele><time>2026-05-02T10:22:26.001Z</time></trkpt><trkpt lat="40.81512130315535" lon="8.347131713402398"><ele>43.0</ele><time>2026-05-02T10:22:27.001Z</time></trkpt><trkpt lat="40.81512939662602" lon="8.346785440293015"><ele>43.0</ele><time>2026-05-02T10:22:28Z</time></trkpt><trkpt lat="40.815134988995034" lon="8.346440082704753"><ele>43.0</ele><time>2026-05-02T10:22:29Z</time></trkpt><trkpt lat="40.81513755235096" lon="8.346088905426"><ele>41.0</ele><time>2026-05-02T10:22:30Z</time></trkpt><trkpt lat="40.8151390594848" lon="8.345740925453812"><ele>39.0</ele><time>2026-05-02T10:22:31Z</time></trkpt><trkpt lat="40.815142454416915" lon="8.345392037869377"><ele>37.0</ele><time>2026-05-02T10:22:32Z</time></trkpt><trkpt lat="40.815145501952884" lon="8.345041996395645"><ele>35.0</ele><time>2026-05-02T10:22:33Z</time></trkpt><trkpt lat="40.815150034074435" lon="8.344698672329752"><ele>34.0</ele><time>2026-05-02T10:22:34Z</time></trkpt><trkpt lat="40.81515406097749" lon="8.344349617144765"><ele>33.0</ele><time>2026-05-02T10:22:35Z</time></trkpt><trkpt lat="40.8151715512555" lon="8.343997131923297"><ele>34.0</ele><time>2026-05-02T10:22:36Z</time></trkpt><trkpt lat="40.81517616972613" lon="8.34364981466277"><ele>35.0</ele><time>2026-05-02T10:22:37Z</time></trkpt><trkpt lat="40.81516627771689" lon="8.343303667764017"><ele>34.5</ele><time>2026-05-02T10:22:38Z</time></trkpt><trkpt lat="40.81517197756308" lon="8.34295594552653"><ele>34.0</ele><time>2026-05-02T10:22:39Z</time></trkpt><trkpt lat="40.81518078482366" lon="8.342609852488925"><ele>34.0</ele><time>2026-05-02T10:22:40Z</time></trkpt><trkpt lat="40.81519214616955" lon="8.342260141063782"><ele>34.0</ele><time>2026-05-02T10:22:41Z</time></trkpt><trkpt lat="40.815212725572714" lon="8.34191720998961"><ele>34.5</ele><time>2026-05-02T10:22:42Z</time></trkpt><trkpt lat="40.81524197813979" lon="8.341577792244479"><ele>35.0</ele><time>2026-05-02T10:22:43Z</time></trkpt><trkpt lat="40.81528108308067" lon="8.34123892227167"><ele>34.0</ele><time>2026-05-02T10:22:44Z</time></trkpt><trkpt lat="40.815333242833844" lon="8.340903591397392"><ele>33.0</ele><time>2026-05-02T10:22:45Z</time></trkpt><trkpt lat="40.815394395662985" lon="8.340570228950833"><ele>32.5</ele><time>2026-05-02T10:22:46Z</time></trkpt><trkpt lat="40.81546108684915" lon="8.340225366116124"><ele>32.0</ele><time>2026-05-02T10:22:47Z</time></trkpt><trkpt lat="40.8155356384767" lon="8.339871764997566"><ele>33.5</ele><time>2026-05-02T10:22:48Z</time></trkpt><trkpt lat="40.81561518245731" lon="8.339509282334372"><ele>35.0</ele><time>2026-05-02T10:22:49Z</time></trkpt><trkpt lat="40.81571039837855" lon="8.339161663335656"><ele>36.5</ele><time>2026-05-02T10:22:50Z</time></trkpt><trkpt lat="40.81581968448989" lon="8.338813618941913"><ele>38.0</ele><time>2026-05-02T10:22:51Z</time></trkpt><trkpt lat="40.81593906864353" lon="8.338472260491555"><ele>38.5</ele><time>2026-05-02T10:22:52Z</time></trkpt><trkpt lat="40.81606671520542" lon="8.338135659602655"><ele>39.0</ele><time>2026-05-02T10:22:53Z</time></trkpt><trkpt lat="40.81620329749341" lon="8.337799697681492"><ele>39.0</ele><time>2026-05-02T10:22:54Z</time></trkpt><trkpt lat="40.81634413642086" lon="8.33746391993716"><ele>39.0</ele><time>2026-05-02T10:22:55Z</time></trkpt><trkpt lat="40.81648949663897" lon="8.337114920863232"><ele>40.5</ele><time>2026-05-02T10:22:56Z</time></trkpt><trkpt lat="40.81663628800778" lon="8.336768886784647"><ele>42.0</ele><time>2026-05-02T10:22:57Z</time></trkpt><trkpt lat="40.81678601117807" lon="8.336419671935023"><ele>38.0</ele><time>2026-05-02T10:22:58Z</time></trkpt><trkpt lat="40.81693491513405" lon="8.336065495543485"><ele>34.0</ele><time>2026-05-02T10:22:59.001Z</time></trkpt><trkpt lat="40.81708837106927" lon="8.335704541967598"><ele>35.0</ele><time>2026-05-02T10:23:00.001Z</time></trkpt><trkpt lat="40.817244801087014" lon="8.335332334596941"><ele>36.0</ele><time>2026-05-02T10:23:01.001Z</time></trkpt><trkpt lat="40.817403229484114" lon="8.334951638405672"><ele>36.5</ele><time>2026-05-02T10:23:02.001Z</time></trkpt><trkpt lat="40.81756183278512" lon="8.334564433863143"><ele>37.0</ele><time>2026-05-02T10:23:03.001Z</time></trkpt><trkpt lat="40.8177241043399" lon="8.334179573591907"><ele>37.5</ele><time>2026-05-02T10:23:04.001Z</time></trkpt><trkpt lat="40.81788971481698" lon="8.333795803445732"><ele>38.0</ele><time>2026-05-02T10:23:05.001Z</time></trkpt><trkpt lat="40.818053101045486" lon="8.333410365348522"><ele>38.0</ele><time>2026-05-02T10:23:06.001Z</time></trkpt><trkpt lat="40.81821265652473" lon="8.33303693183059"><ele>38.0</ele><time>2026-05-02T10:23:07.001Z</time></trkpt><trkpt lat="40.818373325080564" lon="8.33265064010665"><ele>37.5</ele><time>2026-05-02T10:23:08.001Z</time></trkpt><trkpt lat="40.81853473594751" lon="8.332273833349479"><ele>37.0</ele><time>2026-05-02T10:23:09.001Z</time></trkpt><trkpt lat="40.81869692771628" lon="8.331896931656408"><ele>36.5</ele><time>2026-05-02T10:23:10.001Z</time></trkpt><trkpt lat="40.818858786011646" lon="8.331517844438338"><ele>36.0</ele><time>2026-05-02T10:23:11.001Z</time></trkpt><trkpt lat="40.819018290062445" lon="8.331131305629551"><ele>36.0</ele><time>2026-05-02T10:23:12.001Z</time></trkpt><trkpt lat="40.819176352616985" lon="8.330752873170555"><ele>36.0</ele><time>2026-05-02T10:23:13.001Z</time></trkpt><trkpt lat="40.81933624123646" lon="8.330370535345624"><ele>36.5</ele><time>2026-05-02T10:23:14.001Z</time></trkpt><trkpt lat="40.81949455080809" lon="8.329984928583027"><ele>37.0</ele><time>2026-05-02T10:23:15.001Z</time></trkpt><trkpt lat="40.81965412485273" lon="8.329603693998004"><ele>36.0</ele><time>2026-05-02T10:23:16.001Z</time></trkpt><trkpt lat="40.819815345973126" lon="8.329224706071606"><ele>35.0</ele><time>2026-05-02T10:23:17.001Z</time></trkpt><trkpt lat="40.8199760533487" lon="8.328842374540415"><ele>35.0</ele><time>2026-05-02T10:23:18.001Z</time></trkpt><trkpt lat="40.82013431563905" lon="8.32845495530788"><ele>35.0</ele><time>2026-05-02T10:23:19.001Z</time></trkpt><trkpt lat="40.8202925403516" lon="8.328070945778245"><ele>35.0</ele><time>2026-05-02T10:23:20.001Z</time></trkpt><trkpt lat="40.82045898158583" lon="8.327690994110714"><ele>35.0</ele><time>2026-05-02T10:23:21.001Z</time></trkpt><trkpt lat="40.8206288600789" lon="8.32731460980339"><ele>36.5</ele><time>2026-05-02T10:23:22.001Z</time></trkpt><trkpt lat="40.820798341335994" lon="8.326955681726226"><ele>38.0</ele><time>2026-05-02T10:23:23.001Z</time></trkpt><trkpt lat="40.82096151604354" lon="8.326636428580827"><ele>38.5</ele><time>2026-05-02T10:23:24.001Z</time></trkpt><trkpt lat="40.82112463501643" lon="8.326350657271147"><ele>39.0</ele><time>2026-05-02T10:23:25.001Z</time></trkpt><trkpt lat="40.821301750663416" lon="8.326071056738293"><ele>39.0</ele><time>2026-05-02T10:23:26.001Z</time></trkpt><trkpt lat="40.82148665738542" lon="8.325797309798132"><ele>39.0</ele><time>2026-05-02T10:23:27.001Z</time></trkpt><trkpt lat="40.82169176458301" lon="8.325527996957174"><ele>38.5</ele><time>2026-05-02T10:23:28.001Z</time></trkpt><trkpt lat="40.82190374686854" lon="8.325266383356912"><ele>38.0</ele><time>2026-05-02T10:23:29.001Z</time></trkpt><trkpt lat="40.822129589758234" lon="8.325007355475432"><ele>38.0</ele><time>2026-05-02T10:23:30.001Z</time></trkpt><trkpt lat="40.822371339538115" lon="8.324773425249028"><ele>38.0</ele><time>2026-05-02T10:23:31.001Z</time></trkpt><trkpt lat="40.82261987032495" lon="8.324562240103646"><ele>37.5</ele><time>2026-05-02T10:23:32.001Z</time></trkpt><trkpt lat="40.82288157741394" lon="8.324377060717968"><ele>37.0</ele><time>2026-05-02T10:23:33.001Z</time></trkpt><trkpt lat="40.82315394650341" lon="8.324214722708753"><ele>37.0</ele><time>2026-05-02T10:23:34.001Z</time></trkpt><trkpt lat="40.823429373354294" lon="8.324059453643368"><ele>37.0</ele><time>2026-05-02T10:23:35.001Z</time></trkpt><trkpt lat="40.82371134199451" lon="8.323911256951408"><ele>34.5</ele><time>2026-05-02T10:23:36.001Z</time></trkpt><trkpt lat="40.82400294139975" lon="8.323784407372784"><ele>32.0</ele><time>2026-05-02T10:23:37.001Z</time></trkpt><trkpt lat="40.82429743751993" lon="8.323683351757772"><ele>32.5</ele><time>2026-05-02T10:23:38.001Z</time></trkpt><trkpt lat="40.824601426371316" lon="8.32359363243234"><ele>33.0</ele><time>2026-05-02T10:23:39.001Z</time></trkpt><trkpt lat="40.824923180810174" lon="8.323513581044097"><ele>34.5</ele><time>2026-05-02T10:23:40.001Z</time></trkpt><trkpt lat="40.82526345441307" lon="8.323437431117615"><ele>36.0</ele><time>2026-05-02T10:23:41.001Z</time></trkpt><trkpt lat="40.825612217325855" lon="8.323349696795276"><ele>36.0</ele><time>2026-05-02T10:23:42.001Z</time></trkpt><trkpt lat="40.82595542171791" lon="8.323237577953236"><ele>36.0</ele><time>2026-05-02T10:23:43.001Z</time></trkpt><trkpt lat="40.82628418777409" lon="8.323114800322063"><ele>36.5</ele><time>2026-05-02T10:23:44.001Z</time></trkpt><trkpt lat="40.82660111389929" lon="8.322966736513125"><ele>37.0</ele><time>2026-05-02T10:23:45.001Z</time></trkpt><trkpt lat="40.82689801750352" lon="8.32279505717019"><ele>37.0</ele><time>2026-05-02T10:23:46.001Z</time></trkpt><trkpt lat="40.82718505138947" lon="8.322587995954843"><ele>37.0</ele><time>2026-05-02T10:23:47.001Z</time></trkpt><trkpt lat="40.82746723246655" lon="8.322361564271175"><ele>35.5</ele><time>2026-05-02T10:23:48.001Z</time></trkpt><trkpt lat="40.827747323867875" lon="8.322111290364647"><ele>34.0</ele><time>2026-05-02T10:23:49.001Z</time></trkpt><trkpt lat="40.82801739753921" lon="8.321836562797907"><ele>34.0</ele><time>2026-05-02T10:23:50.001Z</time></trkpt><trkpt lat="40.828274801145966" lon="8.321546523331413"><ele>34.0</ele><time>2026-05-02T10:23:51.001Z</time></trkpt><trkpt lat="40.82851474087438" lon="8.321242991067045"><ele>34.5</ele><time>2026-05-02T10:23:52.001Z</time></trkpt><trkpt lat="40.82872673825521" lon="8.320930349468538"><ele>35.0</ele><time>2026-05-02T10:23:53.001Z</time></trkpt><trkpt lat="40.82891299569814" lon="8.320607318348078"><ele>35.5</ele><time>2026-05-02T10:23:54.001Z</time></trkpt><trkpt lat="40.82908274921941" lon="8.320274304625624"><ele>36.0</ele><time>2026-05-02T10:23:55.001Z</time></trkpt><trkpt lat="40.82923294235219" lon="8.319934744958614"><ele>37.0</ele><time>2026-05-02T10:23:56.001Z</time></trkpt><trkpt lat="40.82936168425181" lon="8.31959170190727"><ele>38.0</ele><time>2026-05-02T10:23:57.001Z</time></trkpt><trkpt lat="40.829475758006964" lon="8.319249248601228"><ele>38.0</ele><time>2026-05-02T10:23:58.001Z</time></trkpt><trkpt lat="40.82957078142622" lon="8.318924519412684"><ele>38.0</ele><time>2026-05-02T10:23:59.001Z</time></trkpt><trkpt lat="40.82965830819195" lon="8.318604127017704"><ele>37.0</ele><time>2026-05-02T10:24:00.001Z</time></trkpt><trkpt lat="40.82973758724157" lon="8.318278021911002"><ele>36.0</ele><time>2026-05-02T10:24:01.001Z</time></trkpt><trkpt lat="40.82980722428683" lon="8.317936818653072"><ele>35.5</ele><time>2026-05-02T10:24:02.001Z</time></trkpt><trkpt lat="40.82986054636319" lon="8.317589127889427"><ele>35.0</ele><time>2026-05-02T10:24:03.001Z</time></trkpt><trkpt lat="40.82990136667834" lon="8.317212889897307"><ele>34.5</ele><time>2026-05-02T10:24:04.001Z</time></trkpt><trkpt lat="40.829970915437265" lon="8.316806296541992"><ele>34.0</ele><time>2026-05-02T10:24:05.001Z</time></trkpt><trkpt lat="40.83002963180215" lon="8.316388870792167"><ele>33.0</ele><time>2026-05-02T10:24:06.001Z</time></trkpt><trkpt lat="40.830087161380234" lon="8.315977703523078"><ele>32.0</ele><time>2026-05-02T10:24:07.001Z</time></trkpt><trkpt lat="40.83012775236223" lon="8.315573497186621"><ele>30.5</ele><time>2026-05-02T10:24:08.001Z</time></trkpt><trkpt lat="40.83019369434234" lon="8.315178854146698"><ele>29.0</ele><time>2026-05-02T10:24:09.001Z</time></trkpt><trkpt lat="40.83025082962972" lon="8.314781288349502"><ele>29.5</ele><time>2026-05-02T10:24:10.001Z</time></trkpt><trkpt lat="40.83030728633377" lon="8.31438978254635"><ele>30.0</ele><time>2026-05-02T10:24:11.001Z</time></trkpt><trkpt lat="40.83035892438322" lon="8.314006792635524"><ele>31.5</ele><time>2026-05-02T10:24:12.001Z</time></trkpt><trkpt lat="40.830409765207975" lon="8.313646478675837"><ele>33.0</ele><time>2026-05-02T10:24:13.001Z</time></trkpt><trkpt lat="40.83046030583952" lon="8.313288390671342"><ele>34.5</ele><time>2026-05-02T10:24:14.001Z</time></trkpt><trkpt lat="40.83050805897735" lon="8.312935547923882"><ele>36.0</ele><time>2026-05-02T10:24:15.001Z</time></trkpt><trkpt lat="40.83055722118397" lon="8.312578046831819"><ele>36.5</ele><time>2026-05-02T10:24:16.001Z</time></trkpt><trkpt lat="40.83061077484239" lon="8.312214745181777"><ele>37.0</ele><time>2026-05-02T10:24:17.001Z</time></trkpt><trkpt lat="40.830663073110124" lon="8.311845197172493"><ele>37.0</ele><time>2026-05-02T10:24:18.001Z</time></trkpt><trkpt lat="40.83071706599512" lon="8.31146787218462"><ele>37.0</ele><time>2026-05-02T10:24:19.001Z</time></trkpt><trkpt lat="40.83076806119439" lon="8.311090643090006"><ele>37.5</ele><time>2026-05-02T10:24:20.001Z</time></trkpt><trkpt lat="40.83082357732144" lon="8.310705246119753"><ele>38.0</ele><time>2026-05-02T10:24:21.001Z</time></trkpt><trkpt lat="40.8308784357895" lon="8.310307728524565"><ele>38.0</ele><time>2026-05-02T10:24:22.001Z</time></trkpt><trkpt lat="40.830936054821045" lon="8.309909365472501"><ele>38.0</ele><time>2026-05-02T10:24:23.001Z</time></trkpt><trkpt lat="40.83099775364427" lon="8.30950449639908"><ele>37.5</ele><time>2026-05-02T10:24:24.001Z</time></trkpt><trkpt lat="40.831062399130516" lon="8.30909974985321"><ele>37.0</ele><time>2026-05-02T10:24:25.001Z</time></trkpt><trkpt lat="40.8311380584808" lon="8.30869504230912"><ele>37.0</ele><time>2026-05-02T10:24:26Z</time></trkpt><trkpt lat="40.83122984954707" lon="8.308297277212128"><ele>37.0</ele><time>2026-05-02T10:24:27Z</time></trkpt><trkpt lat="40.831336630484635" lon="8.307902903205424"><ele>36.5</ele><time>2026-05-02T10:24:28Z</time></trkpt><trkpt lat="40.83145813275086" lon="8.307519260302382"><ele>36.0</ele><time>2026-05-02T10:24:29Z</time></trkpt><trkpt lat="40.83158765438052" lon="8.307142005511228"><ele>36.0</ele><time>2026-05-02T10:24:30Z</time></trkpt><trkpt lat="40.83171944852827" lon="8.3067811812939"><ele>36.0</ele><time>2026-05-02T10:24:31Z</time></trkpt><trkpt lat="40.83184327862337" lon="8.306420827310367"><ele>31.5</ele><time>2026-05-02T10:24:32Z</time></trkpt><trkpt lat="40.83196265854587" lon="8.306062410462221"><ele>27.0</ele><time>2026-05-02T10:24:33Z</time></trkpt><trkpt lat="40.83207342373731" lon="8.305719346650294"><ele>21.5</ele><time>2026-05-02T10:24:34Z</time></trkpt><trkpt lat="40.83218864217036" lon="8.305367709657979"><ele>16.0</ele><time>2026-05-02T10:24:35Z</time></trkpt><trkpt lat="40.83230182493366" lon="8.305028373725627"><ele>13.5</ele><time>2026-05-02T10:24:36Z</time></trkpt><trkpt lat="40.83241365803524" lon="8.304686326037666"><ele>11.0</ele><time>2026-05-02T10:24:37Z</time></trkpt><trkpt lat="40.83252615520946" lon="8.304348611750859"><ele>11.0</ele><time>2026-05-02T10:24:38Z</time></trkpt><trkpt lat="40.83263357008049" lon="8.30402715050983"><ele>11.0</ele><time>2026-05-02T10:24:39Z</time></trkpt><trkpt lat="40.83273465522994" lon="8.30372409214567"><ele>17.0</ele><time>2026-05-02T10:24:40Z</time></trkpt><trkpt lat="40.83283229715331" lon="8.30343407452237"><ele>23.0</ele><time>2026-05-02T10:24:41Z</time></trkpt><trkpt lat="40.83293048380795" lon="8.303149470789359"><ele>23.0</ele><time>2026-05-02T10:24:42Z</time></trkpt><trkpt lat="40.83303306458367" lon="8.302870249556108"><ele>23.0</ele><time>2026-05-02T10:24:43Z</time></trkpt><trkpt lat="40.833135739863884" lon="8.302573299958919"><ele>23.0</ele><time>2026-05-02T10:24:44Z</time></trkpt><trkpt lat="40.833234693525064" lon="8.302266857392135"><ele>23.0</ele><time>2026-05-02T10:24:45Z</time></trkpt><trkpt lat="40.83333956606232" lon="8.301948421276602"><ele>23.5</ele><time>2026-05-02T10:24:46Z</time></trkpt><trkpt lat="40.83344960378934" lon="8.30163990354"><ele>24.0</ele><time>2026-05-02T10:24:47Z</time></trkpt><trkpt lat="40.833554726112666" lon="8.30133770131118"><ele>22.5</ele><time>2026-05-02T10:24:48Z</time></trkpt><trkpt lat="40.8336547198274" lon="8.301034412187297"><ele>21.0</ele><time>2026-05-02T10:24:49Z</time></trkpt><trkpt lat="40.83375550895727" lon="8.300736106998198"><ele>22.0</ele><time>2026-05-02T10:24:50Z</time></trkpt><trkpt lat="40.83385650879853" lon="8.300444300909668"><ele>23.0</ele><time>2026-05-02T10:24:51Z</time></trkpt><trkpt lat="40.83395393911218" lon="8.300158839757671"><ele>23.0</ele><time>2026-05-02T10:24:52Z</time></trkpt><trkpt lat="40.834053571801846" lon="8.299863470983562"><ele>23.0</ele><time>2026-05-02T10:24:53Z</time></trkpt><trkpt lat="40.834152311781196" lon="8.299548131058264"><ele>23.5</ele><time>2026-05-02T10:24:54Z</time></trkpt><trkpt lat="40.8342508564199" lon="8.29921855178335"><ele>24.0</ele><time>2026-05-02T10:24:55Z</time></trkpt><trkpt lat="40.834341258328564" lon="8.298865382544074"><ele>24.0</ele><time>2026-05-02T10:24:56Z</time></trkpt><trkpt lat="40.83442459379133" lon="8.298515815583702"><ele>24.0</ele><time>2026-05-02T10:24:57Z</time></trkpt><trkpt lat="40.83450562484599" lon="8.298164867038576"><ele>25.5</ele><time>2026-05-02T10:24:58Z</time></trkpt><trkpt lat="40.83458649894564" lon="8.29781039022487"><ele>27.0</ele><time>2026-05-02T10:24:59Z</time></trkpt><trkpt lat="40.834668976567144" lon="8.297459158486106"><ele>28.5</ele><time>2026-05-02T10:25:00Z</time></trkpt><trkpt lat="40.83475294052316" lon="8.297107101732276"><ele>30.0</ele><time>2026-05-02T10:25:01Z</time></trkpt><trkpt lat="40.834835682312516" lon="8.296755829776368"><ele>31.5</ele><time>2026-05-02T10:25:02Z</time></trkpt><trkpt lat="40.83491563725892" lon="8.296400801467321"><ele>33.0</ele><time>2026-05-02T10:25:03Z</time></trkpt><trkpt lat="40.83499554170642" lon="8.296046959109624"><ele>33.0</ele><time>2026-05-02T10:25:04Z</time></trkpt><trkpt lat="40.83507320208397" lon="8.295690536111529"><ele>33.0</ele><time>2026-05-02T10:25:05Z</time></trkpt><trkpt lat="40.83515511673512" lon="8.295331970280955"><ele>32.5</ele><time>2026-05-02T10:25:06Z</time></trkpt><trkpt lat="40.83524305040689" lon="8.294955128607961"><ele>32.0</ele><time>2026-05-02T10:25:07Z</time></trkpt><trkpt lat="40.83532878611564" lon="8.294553182986936"><ele>33.0</ele><time>2026-05-02T10:25:08Z</time></trkpt><trkpt lat="40.83543836598829" lon="8.294148267059276"><ele>34.0</ele><time>2026-05-02T10:25:09Z</time></trkpt><trkpt lat="40.83552367840442" lon="8.293731734369834"><ele>35.0</ele><time>2026-05-02T10:25:10Z</time></trkpt><trkpt lat="40.83562724412565" lon="8.293324472656117"><ele>36.0</ele><time>2026-05-02T10:25:11Z</time></trkpt><trkpt lat="40.83572640304175" lon="8.292921210954217"><ele>36.5</ele><time>2026-05-02T10:25:12Z</time></trkpt><trkpt lat="40.83581985053099" lon="8.292524962363558"><ele>37.0</ele><time>2026-05-02T10:25:13Z</time></trkpt><trkpt lat="40.83591046902277" lon="8.29213253014848"><ele>37.5</ele><time>2026-05-02T10:25:14Z</time></trkpt><trkpt lat="40.836002338883546" lon="8.291739043096541"><ele>38.0</ele><time>2026-05-02T10:25:15Z</time></trkpt><trkpt lat="40.836090414716175" lon="8.29135903917163"><ele>38.0</ele><time>2026-05-02T10:25:16Z</time></trkpt><trkpt lat="40.83617093294469" lon="8.290999821319005"><ele>38.0</ele><time>2026-05-02T10:25:17Z</time></trkpt><trkpt lat="40.83624069296285" lon="8.290670434467115"><ele>39.0</ele><time>2026-05-02T10:25:18Z</time></trkpt><trkpt lat="40.83629616621386" lon="8.290362577114271"><ele>40.0</ele><time>2026-05-02T10:25:19Z</time></trkpt><trkpt lat="40.83633611141905" lon="8.290085063522355"><ele>40.0</ele><time>2026-05-02T10:25:20Z</time></trkpt><trkpt lat="40.836354482160054" lon="8.289830972631213"><ele>40.0</ele><time>2026-05-02T10:25:21Z</time></trkpt><trkpt lat="40.83635911513116" lon="8.289584637385865"><ele>40.0</ele><time>2026-05-02T10:25:22Z</time></trkpt><trkpt lat="40.836364322392775" lon="8.289335016297535"><ele>40.333333333333336</ele><time>2026-05-02T10:25:23Z</time></trkpt><trkpt lat="40.83637742057991" lon="8.289077216315667"><ele>40.666666666666664</ele><time>2026-05-02T10:25:24Z</time></trkpt><trkpt lat="40.836391804625116" lon="8.288808934608024"><ele>41.0</ele><time>2026-05-02T10:25:25Z</time></trkpt><trkpt lat="40.8364097525567" lon="8.288563000305022"><ele>41.0</ele><time>2026-05-02T10:25:26Z</time></trkpt><trkpt lat="40.836423712672484" lon="8.28833741191359"><ele>41.0</ele><time>2026-05-02T10:25:27Z</time></trkpt><trkpt lat="40.836437343229484" lon="8.288088891816132"><ele>41.0</ele><time>2026-05-02T10:25:28Z</time></trkpt><trkpt lat="40.836446346132284" lon="8.287822086447175"><ele>41.0</ele><time>2026-05-02T10:25:29Z</time></trkpt><trkpt lat="40.83645738510316" lon="8.28754909515609"><ele>41.0</ele><time>2026-05-02T10:25:30Z</time></trkpt><trkpt lat="40.83647186223853" lon="8.287285073427338"><ele>41.0</ele><time>2026-05-02T10:25:31Z</time></trkpt><trkpt lat="40.836482737686765" lon="8.287010121535813"><ele>41.0</ele><time>2026-05-02T10:25:32Z</time></trkpt><trkpt lat="40.836495902557054" lon="8.286748509878947"><ele>41.0</ele><time>2026-05-02T10:25:33Z</time></trkpt><trkpt lat="40.83651259083161" lon="8.28649843300401"><ele>41.0</ele><time>2026-05-02T10:25:34Z</time></trkpt><trkpt lat="40.836536298923114" lon="8.286258359797406"><ele>40.666666666666664</ele><time>2026-05-02T10:25:35Z</time></trkpt><trkpt lat="40.83657866998598" lon="8.286034964175117"><ele>40.333333333333336</ele><time>2026-05-02T10:25:36Z</time></trkpt><trkpt lat="40.83666154703816" lon="8.285829268115457"><ele>40.0</ele><time>2026-05-02T10:25:37Z</time></trkpt><trkpt lat="40.83678277656365" lon="8.285638290665378"><ele>38.66666666666667</ele><time>2026-05-02T10:25:38Z</time></trkpt><trkpt lat="40.836910607975696" lon="8.285479090609316"><ele>37.333333333333336</ele><time>2026-05-02T10:25:39Z</time></trkpt><trkpt lat="40.83704255245091" lon="8.285340912209927"><ele>36.0</ele><time>2026-05-02T10:25:40Z</time></trkpt><trkpt lat="40.837187858149576" lon="8.285202808317102"><ele>36.0</ele><time>2026-05-02T10:25:41Z</time></trkpt><trkpt lat="40.8373307214762" lon="8.285049826000856"><ele>36.0</ele><time>2026-05-02T10:25:42Z</time></trkpt><trkpt lat="40.8374772996466" lon="8.284896907705791"><ele>36.0</ele><time>2026-05-02T10:25:43Z</time></trkpt><trkpt lat="40.83762056531695" lon="8.284741456973029"><ele>33.0</ele><time>2026-05-02T10:25:44Z</time></trkpt><trkpt lat="40.837775281286" lon="8.284572455003461"><ele>30.0</ele><time>2026-05-02T10:25:45Z</time></trkpt><trkpt lat="40.83792808738409" lon="8.284406392267917"><ele>27.0</ele><time>2026-05-02T10:25:46Z</time></trkpt><trkpt lat="40.838073252633535" lon="8.284236525961681"><ele>27.0</ele><time>2026-05-02T10:25:47Z</time></trkpt><trkpt lat="40.838219552710896" lon="8.284081395849297"><ele>27.0</ele><time>2026-05-02T10:25:48Z</time></trkpt><trkpt lat="40.83835328103708" lon="8.283932100024257"><ele>27.0</ele><time>2026-05-02T10:25:49Z</time></trkpt><trkpt lat="40.83849636234571" lon="8.283772396289303"><ele>26.333333333333336</ele><time>2026-05-02T10:25:50Z</time></trkpt><trkpt lat="40.83864851493596" lon="8.283608846151237"><ele>25.666666666666668</ele><time>2026-05-02T10:25:51Z</time></trkpt><trkpt lat="40.83880855111296" lon="8.283438346503196"><ele>25.0</ele><time>2026-05-02T10:25:52Z</time></trkpt><trkpt lat="40.83897022843492" lon="8.283269816896519"><ele>25.0</ele><time>2026-05-02T10:25:53Z</time></trkpt><trkpt lat="40.83913866329172" lon="8.283117023596226"><ele>25.0</ele><time>2026-05-02T10:25:54Z</time></trkpt><trkpt lat="40.83932010526688" lon="8.282977304164955"><ele>25.0</ele><time>2026-05-02T10:25:55Z</time></trkpt><trkpt lat="40.83950901538685" lon="8.282858559575809"><ele>21.0</ele><time>2026-05-02T10:25:56Z</time></trkpt><trkpt lat="40.83970763094786" lon="8.282759363085756"><ele>17.0</ele><time>2026-05-02T10:25:57Z</time></trkpt><trkpt lat="40.839906436072795" lon="8.282657852196037"><ele>13.0</ele><time>2026-05-02T10:25:58Z</time></trkpt><trkpt lat="40.840104059297566" lon="8.282559531091612"><ele>12.0</ele><time>2026-05-02T10:25:59Z</time></trkpt><trkpt lat="40.84030271213683" lon="8.282456251084316"><ele>11.0</ele><time>2026-05-02T10:26:00Z</time></trkpt><trkpt lat="40.84050548335038" lon="8.282352599337214"><ele>10.0</ele><time>2026-05-02T10:26:01Z</time></trkpt><trkpt lat="40.84071585193747" lon="8.282245413030132"><ele>9.0</ele><time>2026-05-02T10:26:02Z</time></trkpt><trkpt lat="40.84093245757274" lon="8.282142170244216"><ele>8.0</ele><time>2026-05-02T10:26:03Z</time></trkpt><trkpt lat="40.84115454970024" lon="8.28203310187362"><ele>6.5</ele><time>2026-05-02T10:26:04Z</time></trkpt><trkpt lat="40.8413749559393" lon="8.281926443923833"><ele>5.0</ele><time>2026-05-02T10:26:05.001Z</time></trkpt><trkpt lat="40.84158340427059" lon="8.281809038319729"><ele>5.0</ele><time>2026-05-02T10:26:06.001Z</time></trkpt><trkpt lat="40.84176846890887" lon="8.281661528671231"><ele>5.0</ele><time>2026-05-02T10:26:07.001Z</time></trkpt><trkpt lat="40.84192826530832" lon="8.281479167569104"><ele>5.0</ele><time>2026-05-02T10:26:08.001Z</time></trkpt><trkpt lat="40.84206393835057" lon="8.281267539570788"><ele>4.666666666666667</ele><time>2026-05-02T10:26:09.001Z</time></trkpt><trkpt lat="40.84217745694942" lon="8.281041785379081"><ele>4.333333333333333</ele><time>2026-05-02T10:26:10.001Z</time></trkpt><trkpt lat="40.84228340091261" lon="8.280810511632792"><ele>4.0</ele><time>2026-05-02T10:26:11.001Z</time></trkpt><trkpt lat="40.842392641356405" lon="8.28058123361615"><ele>4.0</ele><time>2026-05-02T10:26:12.001Z</time></trkpt><trkpt lat="40.842502287690685" lon="8.280363565603627"><ele>4.0</ele><time>2026-05-02T10:26:13.001Z</time></trkpt><trkpt lat="40.842613266775956" lon="8.280143377261135"><ele>4.0</ele><time>2026-05-02T10:26:14.001Z</time></trkpt><trkpt lat="40.842720006717286" lon="8.279926815023623"><ele>7.333333333333334</ele><time>2026-05-02T10:26:15Z</time></trkpt><trkpt lat="40.84282001268862" lon="8.27970879225732"><ele>10.666666666666668</ele><time>2026-05-02T10:26:16Z</time></trkpt><trkpt lat="40.84289818171836" lon="8.279480962772583"><ele>14.0</ele><time>2026-05-02T10:26:17Z</time></trkpt><trkpt lat="40.84294333189026" lon="8.279260520943518"><ele>14.0</ele><time>2026-05-02T10:26:18Z</time></trkpt><trkpt lat="40.842963433739385" lon="8.279049749051929"><ele>14.0</ele><time>2026-05-02T10:26:19Z</time></trkpt><trkpt lat="40.842979084394464" lon="8.278835158840751"><ele>14.0</ele><time>2026-05-02T10:26:20Z</time></trkpt><trkpt lat="40.842992939407964" lon="8.278601759315086"><ele>15.333333333333334</ele><time>2026-05-02T10:26:21Z</time></trkpt><trkpt lat="40.84301009147216" lon="8.278366246004053"><ele>16.666666666666668</ele><time>2026-05-02T10:26:22Z</time></trkpt><trkpt lat="40.84303487716563" lon="8.278137405599988"><ele>18.0</ele><time>2026-05-02T10:26:23Z</time></trkpt><trkpt lat="40.8430573046564" lon="8.277897149548876"><ele>18.333333333333332</ele><time>2026-05-02T10:26:24Z</time></trkpt><trkpt lat="40.843084339710295" lon="8.277673504469165"><ele>18.666666666666664</ele><time>2026-05-02T10:26:25Z</time></trkpt><trkpt lat="40.84310315419681" lon="8.277439593365795"><ele>19.0</ele><time>2026-05-02T10:26:26Z</time></trkpt><trkpt lat="40.843125908827325" lon="8.277195047701687"><ele>19.333333333333332</ele><time>2026-05-02T10:26:27Z</time></trkpt><trkpt lat="40.843150498818375" lon="8.27695808249611"><ele>19.666666666666668</ele><time>2026-05-02T10:26:28Z</time></trkpt><trkpt lat="40.84317164059194" lon="8.276713116951472"><ele>20.0</ele><time>2026-05-02T10:26:29Z</time></trkpt><trkpt lat="40.84319769316698" lon="8.276470721971398"><ele>20.333333333333336</ele><time>2026-05-02T10:26:30Z</time></trkpt><trkpt lat="40.84321750560581" lon="8.276233010121071"><ele>20.666666666666668</ele><time>2026-05-02T10:26:31Z</time></trkpt><trkpt lat="40.84323706941095" lon="8.276009878073799"><ele>21.0</ele><time>2026-05-02T10:26:32Z</time></trkpt><trkpt lat="40.84325184292063" lon="8.275783562011014"><ele>21.0</ele><time>2026-05-02T10:26:33Z</time></trkpt><trkpt lat="40.843262102966705" lon="8.275554157258009"><ele>21.0</ele><time>2026-05-02T10:26:34Z</time></trkpt><trkpt lat="40.843257641096656" lon="8.275323326096888"><ele>21.0</ele><time>2026-05-02T10:26:35Z</time></trkpt><trkpt lat="40.843243007600904" lon="8.27508129353864"><ele>21.0</ele><time>2026-05-02T10:26:36Z</time></trkpt><trkpt lat="40.84321471001177" lon="8.27483648052089"><ele>21.0</ele><time>2026-05-02T10:26:37Z</time></trkpt><trkpt lat="40.84316685245139" lon="8.274591504966923"><ele>21.0</ele><time>2026-05-02T10:26:38Z</time></trkpt><trkpt lat="40.8431003224903" lon="8.274340263642031"><ele>22.0</ele><time>2026-05-02T10:26:39Z</time></trkpt><trkpt lat="40.84303047562862" lon="8.274091180752986"><ele>23.0</ele><time>2026-05-02T10:26:40Z</time></trkpt><trkpt lat="40.84295259725557" lon="8.273845290772885"><ele>24.0</ele><time>2026-05-02T10:26:41Z</time></trkpt><trkpt lat="40.84287868684452" lon="8.273605132630838"><ele>24.666666666666664</ele><time>2026-05-02T10:26:42Z</time></trkpt><trkpt lat="40.84280984443851" lon="8.273365258081133"><ele>25.333333333333332</ele><time>2026-05-02T10:26:43Z</time></trkpt><trkpt lat="40.84274805937885" lon="8.273114762145797"><ele>26.0</ele><time>2026-05-02T10:26:44Z</time></trkpt><trkpt lat="40.84267634900109" lon="8.272877275394471"><ele>26.0</ele><time>2026-05-02T10:26:45Z</time></trkpt><trkpt lat="40.84259995026867" lon="8.272637390979023"><ele>26.0</ele><time>2026-05-02T10:26:46Z</time></trkpt><trkpt lat="40.842520058041806" lon="8.272372869037264"><ele>26.0</ele><time>2026-05-02T10:26:47Z</time></trkpt><trkpt lat="40.84244129342849" lon="8.272091658029646"><ele>26.0</ele><time>2026-05-02T10:26:48Z</time></trkpt><trkpt lat="40.84235113262391" lon="8.271792664283597"><ele>26.0</ele><time>2026-05-02T10:26:49Z</time></trkpt><trkpt lat="40.84224859016099" lon="8.271459813423938"><ele>26.5</ele><time>2026-05-02T10:26:50Z</time></trkpt><trkpt lat="40.84216110424432" lon="8.27110543444581"><ele>27.0</ele><time>2026-05-02T10:26:51Z</time></trkpt><trkpt lat="40.84206277320444" lon="8.270770200680918"><ele>27.0</ele><time>2026-05-02T10:26:52Z</time></trkpt><trkpt lat="40.84196741514794" lon="8.270444719534371"><ele>27.0</ele><time>2026-05-02T10:26:53Z</time></trkpt><trkpt lat="40.841878998421286" lon="8.270142123564467"><ele>26.5</ele><time>2026-05-02T10:26:54Z</time></trkpt><trkpt lat="40.84178498469711" lon="8.269866382188749"><ele>26.0</ele><time>2026-05-02T10:26:55Z</time></trkpt><trkpt lat="40.841706469122585" lon="8.269578919843095"><ele>27.0</ele><time>2026-05-02T10:26:56Z</time></trkpt><trkpt lat="40.841658993499934" lon="8.26930356203972"><ele>28.0</ele><time>2026-05-02T10:26:57Z</time></trkpt><trkpt lat="40.8415631250866" lon="8.269004025992581"><ele>28.0</ele><time>2026-05-02T10:26:58Z</time></trkpt><trkpt lat="40.841518563086964" lon="8.268623285547331"><ele>28.0</ele><time>2026-05-02T10:26:59Z</time></trkpt><trkpt lat="40.84149883860546" lon="8.268200405555115"><ele>28.0</ele><time>2026-05-02T10:27:00Z</time></trkpt><trkpt lat="40.8414822324831" lon="8.267756537534451"><ele>28.0</ele><time>2026-05-02T10:27:01Z</time></trkpt><trkpt lat="40.84146183216732" lon="8.267301314192736"><ele>28.5</ele><time>2026-05-02T10:27:02Z</time></trkpt><trkpt lat="40.84142895133435" lon="8.266840349046609"><ele>29.0</ele><time>2026-05-02T10:27:03Z</time></trkpt><trkpt lat="40.841417437984994" lon="8.266381855533755"><ele>30.0</ele><time>2026-05-02T10:27:04Z</time></trkpt><trkpt lat="40.8413895732594" lon="8.265928720816508"><ele>31.0</ele><time>2026-05-02T10:27:05Z</time></trkpt><trkpt lat="40.84136142874695" lon="8.265471231851697"><ele>31.0</ele><time>2026-05-02T10:27:06Z</time></trkpt><trkpt lat="40.84133310763592" lon="8.265012537243363"><ele>31.0</ele><time>2026-05-02T10:27:07Z</time></trkpt><trkpt lat="40.84128973944668" lon="8.264555152575523"><ele>31.0</ele><time>2026-05-02T10:27:08Z</time></trkpt><trkpt lat="40.84126982645771" lon="8.264105529074858"><ele>31.0</ele><time>2026-05-02T10:27:09Z</time></trkpt><trkpt lat="40.84124062069325" lon="8.263659544186316"><ele>31.0</ele><time>2026-05-02T10:27:10Z</time></trkpt><trkpt lat="40.84121151837097" lon="8.263211805295713"><ele>31.0</ele><time>2026-05-02T10:27:11Z</time></trkpt><trkpt lat="40.84118478011798" lon="8.262758771692036"><ele>31.0</ele><time>2026-05-02T10:27:12Z</time></trkpt><trkpt lat="40.84115914139683" lon="8.262317308036566"><ele>31.0</ele><time>2026-05-02T10:27:13Z</time></trkpt><trkpt lat="40.841131559987105" lon="8.261882640506064"><ele>31.0</ele><time>2026-05-02T10:27:14Z</time></trkpt><trkpt lat="40.84110457707903" lon="8.26145276397978"><ele>31.0</ele><time>2026-05-02T10:27:15Z</time></trkpt><trkpt lat="40.841078423297574" lon="8.261026921319857"><ele>32.5</ele><time>2026-05-02T10:27:16Z</time></trkpt><trkpt lat="40.841051283383855" lon="8.260600353100697"><ele>34.0</ele><time>2026-05-02T10:27:17Z</time></trkpt><trkpt lat="40.84102393127746" lon="8.260185409094005"><ele>34.0</ele><time>2026-05-02T10:27:18Z</time></trkpt><trkpt lat="40.84099653879847" lon="8.2597782320464"><ele>34.0</ele><time>2026-05-02T10:27:19Z</time></trkpt><trkpt lat="40.84097095111214" lon="8.259371555758978"><ele>34.5</ele><time>2026-05-02T10:27:20Z</time></trkpt><trkpt lat="40.840947115443036" lon="8.258969567667462"><ele>35.0</ele><time>2026-05-02T10:27:21Z</time></trkpt><trkpt lat="40.84092107464997" lon="8.25858303363045"><ele>35.0</ele><time>2026-05-02T10:27:22Z</time></trkpt><trkpt lat="40.84089335355661" lon="8.258210720929956"><ele>35.0</ele><time>2026-05-02T10:27:23Z</time></trkpt><trkpt lat="40.84087102724922" lon="8.257861462162841"><ele>34.5</ele><time>2026-05-02T10:27:24Z</time></trkpt><trkpt lat="40.8408198600044" lon="8.25750990280444"><ele>34.0</ele><time>2026-05-02T10:27:25Z</time></trkpt><trkpt lat="40.84072909282639" lon="8.257157375911168"><ele>33.5</ele><time>2026-05-02T10:27:26Z</time></trkpt><trkpt lat="40.84061701512631" lon="8.256806712580822"><ele>33.0</ele><time>2026-05-02T10:27:27Z</time></trkpt><trkpt lat="40.840487140149946" lon="8.256460630166663"><ele>33.0</ele><time>2026-05-02T10:27:28Z</time></trkpt><trkpt lat="40.84036118030248" lon="8.256123745616662"><ele>33.0</ele><time>2026-05-02T10:27:29Z</time></trkpt><trkpt lat="40.840251059410306" lon="8.255807333399927"><ele>33.5</ele><time>2026-05-02T10:27:30Z</time></trkpt><trkpt lat="40.840146698391145" lon="8.255496837753181"><ele>34.0</ele><time>2026-05-02T10:27:31Z</time></trkpt><trkpt lat="40.840046271922574" lon="8.255211251172831"><ele>33.333333333333336</ele><time>2026-05-02T10:27:32Z</time></trkpt><trkpt lat="40.83995567006068" lon="8.254942726715436"><ele>32.666666666666664</ele><time>2026-05-02T10:27:33Z</time></trkpt><trkpt lat="40.83986974365985" lon="8.254684011549307"><ele>32.0</ele><time>2026-05-02T10:27:34Z</time></trkpt><trkpt lat="40.83978147195792" lon="8.25442683838014"><ele>32.0</ele><time>2026-05-02T10:27:35Z</time></trkpt><trkpt lat="40.839686329874354" lon="8.254156310593025"><ele>32.0</ele><time>2026-05-02T10:27:36Z</time></trkpt><trkpt lat="40.83958340091975" lon="8.253861861286225"><ele>32.0</ele><time>2026-05-02T10:27:37Z</time></trkpt><trkpt lat="40.83947594840049" lon="8.253570211486721"><ele>32.0</ele><time>2026-05-02T10:27:38Z</time></trkpt><trkpt lat="40.839362427108114" lon="8.253270022452094"><ele>32.0</ele><time>2026-05-02T10:27:39Z</time></trkpt><trkpt lat="40.839243968150555" lon="8.252950865912949"><ele>32.0</ele><time>2026-05-02T10:27:40Z</time></trkpt><trkpt lat="40.83912909006471" lon="8.252610177337077"><ele>32.0</ele><time>2026-05-02T10:27:41Z</time></trkpt><trkpt lat="40.83902535212578" lon="8.252264170206885"><ele>32.0</ele><time>2026-05-02T10:27:42Z</time></trkpt><trkpt lat="40.83891889048444" lon="8.251919729708927"><ele>32.0</ele><time>2026-05-02T10:27:43Z</time></trkpt><trkpt lat="40.83880493312807" lon="8.25158643589015"><ele>32.0</ele><time>2026-05-02T10:27:44Z</time></trkpt><trkpt lat="40.83868395042012" lon="8.251254672267748"><ele>32.5</ele><time>2026-05-02T10:27:45Z</time></trkpt><trkpt lat="40.838568847637426" lon="8.250919451573857"><ele>33.0</ele><time>2026-05-02T10:27:46Z</time></trkpt><trkpt lat="40.838450395643946" lon="8.250577433138355"><ele>33.0</ele><time>2026-05-02T10:27:47Z</time></trkpt><trkpt lat="40.83833133850492" lon="8.250234097917295"><ele>33.0</ele><time>2026-05-02T10:27:48Z</time></trkpt><trkpt lat="40.83821194568011" lon="8.249883252128337"><ele>33.0</ele><time>2026-05-02T10:27:49Z</time></trkpt><trkpt lat="40.83808810923422" lon="8.24951921634298"><ele>33.0</ele><time>2026-05-02T10:27:50Z</time></trkpt><trkpt lat="40.837965407585635" lon="8.24915029196344"><ele>33.5</ele><time>2026-05-02T10:27:51Z</time></trkpt><trkpt lat="40.83784482973853" lon="8.248788134382988"><ele>34.0</ele><time>2026-05-02T10:27:52Z</time></trkpt><trkpt lat="40.837720705528874" lon="8.24843089634907"><ele>35.5</ele><time>2026-05-02T10:27:53Z</time></trkpt><trkpt lat="40.8376064762777" lon="8.248098851865024"><ele>37.0</ele><time>2026-05-02T10:27:54Z</time></trkpt><trkpt lat="40.837498798578984" lon="8.24778347433745"><ele>37.0</ele><time>2026-05-02T10:27:55Z</time></trkpt><trkpt lat="40.83740086529774" lon="8.247494973608804"><ele>37.0</ele><time>2026-05-02T10:27:56Z</time></trkpt><trkpt lat="40.83731304230539" lon="8.247207493343296"><ele>37.333333333333336</ele><time>2026-05-02T10:27:57Z</time></trkpt><trkpt lat="40.83722674169745" lon="8.24694160257218"><ele>37.666666666666664</ele><time>2026-05-02T10:27:58Z</time></trkpt><trkpt lat="40.83713900124018" lon="8.246694364836754"><ele>38.0</ele><time>2026-05-02T10:27:59Z</time></trkpt><trkpt lat="40.8370664150638" lon="8.246476965961334"><ele>38.33333333333333</ele><time>2026-05-02T10:28:00Z</time></trkpt><trkpt lat="40.83699860821438" lon="8.246279211552803"><ele>38.666666666666664</ele><time>2026-05-02T10:28:01Z</time></trkpt><trkpt lat="40.836933473879085" lon="8.246094368613948"><ele>39.0</ele><time>2026-05-02T10:28:02Z</time></trkpt><trkpt lat="40.83686491126706" lon="8.245898440643408"><ele>39.0</ele><time>2026-05-02T10:28:03Z</time></trkpt><trkpt lat="40.836809742743235" lon="8.245737814820872"><ele>39.0</ele><time>2026-05-02T10:28:04Z</time></trkpt><trkpt lat="40.83676659850733" lon="8.245599638723434"><ele>39.0</ele><time>2026-05-02T10:28:05Z</time></trkpt><trkpt lat="40.83673303030461" lon="8.245483513489953"><ele>39.0</ele><time>2026-05-02T10:28:06Z</time></trkpt><trkpt lat="40.836722944951795" lon="8.24539183589862"><ele>39.0</ele><time>2026-05-02T10:28:07Z</time></trkpt><trkpt lat="40.83675125220496" lon="8.245302783163234"><ele>39.2</ele><time>2026-05-02T10:28:08Z</time></trkpt><trkpt lat="40.83679214600356" lon="8.245196914057656"><ele>39.4</ele><time>2026-05-02T10:28:09Z</time></trkpt><trkpt lat="40.83684392693445" lon="8.24510792681706"><ele>39.6</ele><time>2026-05-02T10:28:10Z</time></trkpt><trkpt lat="40.836906435927816" lon="8.245037167773129"><ele>39.8</ele><time>2026-05-02T10:28:11Z</time></trkpt><trkpt lat="40.83699410361648" lon="8.245004226670282"><ele>40.0</ele><time>2026-05-02T10:28:12Z</time></trkpt><trkpt lat="40.837105509198274" lon="8.244972461466965"><ele>40.25</ele><time>2026-05-02T10:28:13Z</time></trkpt><trkpt lat="40.83722852470514" lon="8.244950228973593"><ele>40.5</ele><time>2026-05-02T10:28:14Z</time></trkpt><trkpt lat="40.837350360752026" lon="8.24493267563629"><ele>40.75</ele><time>2026-05-02T10:28:15Z</time></trkpt><trkpt lat="40.83746856725385" lon="8.244904260618132"><ele>41.0</ele><time>2026-05-02T10:28:16Z</time></trkpt><trkpt lat="40.83759230431266" lon="8.244869873633808"><ele>40.75</ele><time>2026-05-02T10:28:17Z</time></trkpt><trkpt lat="40.83772099874754" lon="8.24484532731317"><ele>40.5</ele><time>2026-05-02T10:28:18Z</time></trkpt><trkpt lat="40.837858812206115" lon="8.244815678954668"><ele>40.25</ele><time>2026-05-02T10:28:19Z</time></trkpt><trkpt lat="40.83800651188088" lon="8.244790730563787"><ele>40.0</ele><time>2026-05-02T10:28:20Z</time></trkpt><trkpt lat="40.838163272990315" lon="8.244751488514762"><ele>40.0</ele><time>2026-05-02T10:28:21Z</time></trkpt><trkpt lat="40.83833300766856" lon="8.244694775798298"><ele>40.0</ele><time>2026-05-02T10:28:22Z</time></trkpt><trkpt lat="40.83851328050368" lon="8.244632678614748"><ele>40.0</ele><time>2026-05-02T10:28:23Z</time></trkpt><trkpt lat="40.83870547641428" lon="8.244560389439709"><ele>39.333333333333336</ele><time>2026-05-02T10:28:24Z</time></trkpt><trkpt lat="40.83891051116153" lon="8.24448851696862"><ele>38.666666666666664</ele><time>2026-05-02T10:28:25Z</time></trkpt><trkpt lat="40.839118584390455" lon="8.244415555186274"><ele>38.0</ele><time>2026-05-02T10:28:26Z</time></trkpt><trkpt lat="40.83933484390934" lon="8.244338979698682"><ele>38.0</ele><time>2026-05-02T10:28:27Z</time></trkpt><trkpt lat="40.839562281735965" lon="8.24425737177676"><ele>38.0</ele><time>2026-05-02T10:28:28Z</time></trkpt><trkpt lat="40.83979427608282" lon="8.244175532200654"><ele>38.0</ele><time>2026-05-02T10:28:29Z</time></trkpt><trkpt lat="40.84002105553583" lon="8.244098257261598"><ele>38.0</ele><time>2026-05-02T10:28:30Z</time></trkpt><trkpt lat="40.840238958306365" lon="8.24403283392344"><ele>38.33333333333333</ele><time>2026-05-02T10:28:31Z</time></trkpt><trkpt lat="40.84044823341358" lon="8.24398393200937"><ele>38.666666666666664</ele><time>2026-05-02T10:28:32Z</time></trkpt><trkpt lat="40.840651411576765" lon="8.24396253974552"><ele>39.0</ele><time>2026-05-02T10:28:33Z</time></trkpt><trkpt lat="40.840841425892975" lon="8.243951733029302"><ele>39.333333333333336</ele><time>2026-05-02T10:28:34Z</time></trkpt><trkpt lat="40.84102156109408" lon="8.24394801902375"><ele>39.66666666666667</ele><time>2026-05-02T10:28:35Z</time></trkpt><trkpt lat="40.84119573073158" lon="8.243947627486872"><ele>40.0</ele><time>2026-05-02T10:28:36Z</time></trkpt><trkpt lat="40.84137317830734" lon="8.243956676137685"><ele>40.0</ele><time>2026-05-02T10:28:37Z</time></trkpt><trkpt lat="40.84154864433985" lon="8.24397698592944"><ele>40.0</ele><time>2026-05-02T10:28:38Z</time></trkpt><trkpt lat="40.84172913438845" lon="8.243993836363913"><ele>40.0</ele><time>2026-05-02T10:28:39Z</time></trkpt><trkpt lat="40.84190645151046" lon="8.244014961593184"><ele>39.333333333333336</ele><time>2026-05-02T10:28:40Z</time></trkpt><trkpt lat="40.84208959845882" lon="8.244019785152718"><ele>38.666666666666664</ele><time>2026-05-02T10:28:41Z</time></trkpt><trkpt lat="40.84226946300193" lon="8.244018864052375"><ele>38.0</ele><time>2026-05-02T10:28:42Z</time></trkpt><trkpt lat="40.84245220559674" lon="8.244009774809278"><ele>36.33333333333333</ele><time>2026-05-02T10:28:43Z</time></trkpt><trkpt lat="40.842637374089385" lon="8.243967036364394"><ele>34.666666666666664</ele><time>2026-05-02T10:28:44Z</time></trkpt><trkpt lat="40.842832862332656" lon="8.243907362546581"><ele>33.0</ele><time>2026-05-02T10:28:45Z</time></trkpt><trkpt lat="40.84306136258295" lon="8.243808922816259"><ele>33.0</ele><time>2026-05-02T10:28:46Z</time></trkpt><trkpt lat="40.84331418422712" lon="8.243709277644278"><ele>33.0</ele><time>2026-05-02T10:28:47Z</time></trkpt><trkpt lat="40.84358937292177" lon="8.243599942532784"><ele>31.5</ele><time>2026-05-02T10:28:48Z</time></trkpt><trkpt lat="40.8438805697708" lon="8.243470067345896"><ele>30.0</ele><time>2026-05-02T10:28:49Z</time></trkpt><trkpt lat="40.84418595953395" lon="8.243340197238888"><ele>32.0</ele><time>2026-05-02T10:28:50Z</time></trkpt><trkpt lat="40.84449533745031" lon="8.243203879767899"><ele>34.0</ele><time>2026-05-02T10:28:51Z</time></trkpt><trkpt lat="40.84480462164252" lon="8.243062358058628"><ele>34.0</ele><time>2026-05-02T10:28:52Z</time></trkpt><trkpt lat="40.84511253585419" lon="8.242930082839214"><ele>34.0</ele><time>2026-05-02T10:28:53Z</time></trkpt><trkpt lat="40.8454234894844" lon="8.242793511156702"><ele>36.0</ele><time>2026-05-02T10:28:54Z</time></trkpt><trkpt lat="40.845728886880345" lon="8.24265578447685"><ele>38.0</ele><time>2026-05-02T10:28:55Z</time></trkpt><trkpt lat="40.846029240858314" lon="8.242523102561254"><ele>38.0</ele><time>2026-05-02T10:28:56Z</time></trkpt><trkpt lat="40.84632758063831" lon="8.242390134909195"><ele>38.0</ele><time>2026-05-02T10:28:57Z</time></trkpt><trkpt lat="40.84662090512153" lon="8.242265132257083"><ele>38.5</ele><time>2026-05-02T10:28:58Z</time></trkpt><trkpt lat="40.84690286918136" lon="8.242164867348773"><ele>39.0</ele><time>2026-05-02T10:28:59Z</time></trkpt><trkpt lat="40.847196896444764" lon="8.24210682546286"><ele>39.0</ele><time>2026-05-02T10:29:00Z</time></trkpt><trkpt lat="40.84749669245146" lon="8.242100944705884"><ele>39.0</ele><time>2026-05-02T10:29:01Z</time></trkpt><trkpt lat="40.84779601775652" lon="8.24213439770086"><ele>39.5</ele><time>2026-05-02T10:29:02Z</time></trkpt><trkpt lat="40.848102851314145" lon="8.242204365890178"><ele>40.0</ele><time>2026-05-02T10:29:03Z</time></trkpt><trkpt lat="40.84841426784751" lon="8.242296832702337"><ele>39.5</ele><time>2026-05-02T10:29:04Z</time></trkpt><trkpt lat="40.84872482029199" lon="8.24239402904346"><ele>39.0</ele><time>2026-05-02T10:29:05Z</time></trkpt><trkpt lat="40.84903645321677" lon="8.242497011202397"><ele>39.0</ele><time>2026-05-02T10:29:06Z</time></trkpt><trkpt lat="40.849333456287795" lon="8.242593119494606"><ele>39.0</ele><time>2026-05-02T10:29:07Z</time></trkpt><trkpt lat="40.84962078359259" lon="8.242668203451139"><ele>39.0</ele><time>2026-05-02T10:29:08Z</time></trkpt><trkpt lat="40.84990799903445" lon="8.242717064809852"><ele>39.0</ele><time>2026-05-02T10:29:09Z</time></trkpt><trkpt lat="40.850189931693464" lon="8.242722305825502"><ele>37.5</ele><time>2026-05-02T10:29:10Z</time></trkpt><trkpt lat="40.85044608526515" lon="8.242697015716747"><ele>36.0</ele><time>2026-05-02T10:29:11Z</time></trkpt><trkpt lat="40.85069278742073" lon="8.242658228329772"><ele>36.0</ele><time>2026-05-02T10:29:12Z</time></trkpt><trkpt lat="40.85093585770709" lon="8.242623915263092"><ele>36.0</ele><time>2026-05-02T10:29:13Z</time></trkpt><trkpt lat="40.85118395226347" lon="8.242585627368989"><ele>33.5</ele><time>2026-05-02T10:29:14Z</time></trkpt><trkpt lat="40.85144878609436" lon="8.242546787544496"><ele>31.0</ele><time>2026-05-02T10:29:15Z</time></trkpt><trkpt lat="40.85172990027261" lon="8.242509199613858"><ele>29.0</ele><time>2026-05-02T10:29:16Z</time></trkpt><trkpt lat="40.85201071872635" lon="8.242469671017107"><ele>27.0</ele><time>2026-05-02T10:29:17Z</time></trkpt><trkpt lat="40.85229409832706" lon="8.242429929126743"><ele>27.0</ele><time>2026-05-02T10:29:18Z</time></trkpt><trkpt lat="40.85257162543515" lon="8.242381377961616"><ele>27.0</ele><time>2026-05-02T10:29:19Z</time></trkpt><trkpt lat="40.852854957075124" lon="8.242345449176247"><ele>26.5</ele><time>2026-05-02T10:29:20Z</time></trkpt><trkpt lat="40.853121311115544" lon="8.24231124824469"><ele>26.0</ele><time>2026-05-02T10:29:21Z</time></trkpt><trkpt lat="40.85337403236322" lon="8.24227725629277"><ele>26.5</ele><time>2026-05-02T10:29:22Z</time></trkpt><trkpt lat="40.85361277252292" lon="8.242248598700693"><ele>27.0</ele><time>2026-05-02T10:29:23Z</time></trkpt><trkpt lat="40.85384615687583" lon="8.242217065697872"><ele>27.0</ele><time>2026-05-02T10:29:24Z</time></trkpt><trkpt lat="40.85406179940611" lon="8.24218409740856"><ele>27.0</ele><time>2026-05-02T10:29:25Z</time></trkpt><trkpt lat="40.85424996317016" lon="8.242162217050343"><ele>27.0</ele><time>2026-05-02T10:29:26Z</time></trkpt><trkpt lat="40.85441643536245" lon="8.242142599925897"><ele>27.0</ele><time>2026-05-02T10:29:27Z</time></trkpt><trkpt lat="40.85458482625801" lon="8.242127053153942"><ele>27.0</ele><time>2026-05-02T10:29:28Z</time></trkpt><trkpt lat="40.854759553388845" lon="8.242105631373056"><ele>27.0</ele><time>2026-05-02T10:29:29Z</time></trkpt><trkpt lat="40.85492980020726" lon="8.242084973126078"><ele>27.0</ele><time>2026-05-02T10:29:30Z</time></trkpt><trkpt lat="40.855108281047514" lon="8.242064122050785"><ele>27.0</ele><time>2026-05-02T10:29:31Z</time></trkpt><trkpt lat="40.855299501071" lon="8.242038520046641"><ele>27.0</ele><time>2026-05-02T10:29:32Z</time></trkpt><trkpt lat="40.855493092465466" lon="8.242014829627268"><ele>27.0</ele><time>2026-05-02T10:29:33Z</time></trkpt><trkpt lat="40.85569123277264" lon="8.241983161436776"><ele>27.0</ele><time>2026-05-02T10:29:34Z</time></trkpt><trkpt lat="40.85586789584764" lon="8.241962257258864"><ele>27.0</ele><time>2026-05-02T10:29:35Z</time></trkpt><trkpt lat="40.856004425914904" lon="8.241942060497728"><ele>27.0</ele><time>2026-05-02T10:29:36Z</time></trkpt><trkpt lat="40.85611591892221" lon="8.241925105251646"><ele>27.0</ele><time>2026-05-02T10:29:37Z</time></trkpt><trkpt lat="40.856244783672814" lon="8.241907598442276"><ele>27.0</ele><time>2026-05-02T10:29:38Z</time></trkpt><trkpt lat="40.856382923729385" lon="8.241888582054367"><ele>27.0</ele><time>2026-05-02T10:29:39Z</time></trkpt><trkpt lat="40.85652569920326" lon="8.241861027760905"><ele>27.0</ele><time>2026-05-02T10:29:40Z</time></trkpt><trkpt lat="40.856682887758154" lon="8.241829482466976"><ele>27.0</ele><time>2026-05-02T10:29:41Z</time></trkpt><trkpt lat="40.85683984005242" lon="8.241769461407198"><ele>27.0</ele><time>2026-05-02T10:29:42Z</time></trkpt><trkpt lat="40.85699597682389" lon="8.241695304075538"><ele>27.333333333333336</ele><time>2026-05-02T10:29:43Z</time></trkpt><trkpt lat="40.85715700617814" lon="8.24160452751038"><ele>27.666666666666668</ele><time>2026-05-02T10:29:44Z</time></trkpt><trkpt lat="40.85733846189192" lon="8.241485569784817"><ele>28.0</ele><time>2026-05-02T10:29:45Z</time></trkpt><trkpt lat="40.85754424395791" lon="8.241322079472667"><ele>29.5</ele><time>2026-05-02T10:29:46Z</time></trkpt><trkpt lat="40.857765124763766" lon="8.241118209577996"><ele>31.0</ele><time>2026-05-02T10:29:47Z</time></trkpt><trkpt lat="40.85799144229934" lon="8.240914316895527"><ele>31.0</ele><time>2026-05-02T10:29:48Z</time></trkpt><trkpt lat="40.85822103326536" lon="8.240703288413949"><ele>31.0</ele><time>2026-05-02T10:29:49Z</time></trkpt><trkpt lat="40.85843707980692" lon="8.24051266885578"><ele>30.5</ele><time>2026-05-02T10:29:50Z</time></trkpt><trkpt lat="40.85863717465338" lon="8.240339432598871"><ele>30.0</ele><time>2026-05-02T10:29:51Z</time></trkpt><trkpt lat="40.85882814783388" lon="8.240171780726374"><ele>30.0</ele><time>2026-05-02T10:29:52Z</time></trkpt><trkpt lat="40.85900674422336" lon="8.240011035839325"><ele>30.0</ele><time>2026-05-02T10:29:53Z</time></trkpt><trkpt lat="40.85918005474286" lon="8.239857313876557"><ele>30.0</ele><time>2026-05-02T10:29:54Z</time></trkpt><trkpt lat="40.85936335401459" lon="8.239710136443726"><ele>29.666666666666664</ele><time>2026-05-02T10:29:55Z</time></trkpt><trkpt lat="40.8595629504083" lon="8.239585428799689"><ele>29.333333333333332</ele><time>2026-05-02T10:29:56Z</time></trkpt><trkpt lat="40.85977401724038" lon="8.239489889598275"><ele>29.0</ele><time>2026-05-02T10:29:57Z</time></trkpt><trkpt lat="40.85996946022277" lon="8.239425278836347"><ele>28.333333333333332</ele><time>2026-05-02T10:29:58Z</time></trkpt><trkpt lat="40.86015487882643" lon="8.239375282104783"><ele>27.666666666666664</ele><time>2026-05-02T10:29:59Z</time></trkpt><trkpt lat="40.860342324728045" lon="8.239340318325267"><ele>27.0</ele><time>2026-05-02T10:30:00Z</time></trkpt><trkpt lat="40.86055212141736" lon="8.239315432073788"><ele>27.0</ele><time>2026-05-02T10:30:01Z</time></trkpt><trkpt lat="40.86077725433962" lon="8.239284645985682"><ele>27.0</ele><time>2026-05-02T10:30:02Z</time></trkpt><trkpt lat="40.861008553107894" lon="8.239244091864357"><ele>28.0</ele><time>2026-05-02T10:30:03Z</time></trkpt><trkpt lat="40.86123717275731" lon="8.239206492629897"><ele>29.0</ele><time>2026-05-02T10:30:04Z</time></trkpt><trkpt lat="40.86145620756467" lon="8.239161494048583"><ele>29.0</ele><time>2026-05-02T10:30:05Z</time></trkpt><trkpt lat="40.86166226155434" lon="8.23912120681977"><ele>29.0</ele><time>2026-05-02T10:30:06Z</time></trkpt><trkpt lat="40.86185343929382" lon="8.239080632823846"><ele>29.0</ele><time>2026-05-02T10:30:07Z</time></trkpt><trkpt lat="40.86203500868689" lon="8.239050212827411"><ele>29.0</ele><time>2026-05-02T10:30:08Z</time></trkpt><trkpt lat="40.862198096790124" lon="8.239013111740826"><ele>29.0</ele><time>2026-05-02T10:30:09Z</time></trkpt><trkpt lat="40.862372797954784" lon="8.238991947769117"><ele>29.0</ele><time>2026-05-02T10:30:10Z</time></trkpt><trkpt lat="40.86254895346831" lon="8.238966129459996"><ele>28.666666666666664</ele><time>2026-05-02T10:30:11Z</time></trkpt><trkpt lat="40.86273915143428" lon="8.238922719399756"><ele>28.333333333333336</ele><time>2026-05-02T10:30:12Z</time></trkpt><trkpt lat="40.86294359877757" lon="8.238881762656648"><ele>28.0</ele><time>2026-05-02T10:30:13Z</time></trkpt><trkpt lat="40.863165325684115" lon="8.238823349719247"><ele>28.0</ele><time>2026-05-02T10:30:14Z</time></trkpt><trkpt lat="40.863386435385905" lon="8.23873635822275"><ele>28.0</ele><time>2026-05-02T10:30:15Z</time></trkpt><trkpt lat="40.8636121023817" lon="8.23862502783526"><ele>25.5</ele><time>2026-05-02T10:30:16Z</time></trkpt><trkpt lat="40.863854957996374" lon="8.238501206720802"><ele>23.0</ele><time>2026-05-02T10:30:17Z</time></trkpt><trkpt lat="40.86409187099902" lon="8.238391181165879"><ele>21.5</ele><time>2026-05-02T10:30:18Z</time></trkpt><trkpt lat="40.864342613959" lon="8.238287668203249"><ele>20.0</ele><time>2026-05-02T10:30:19Z</time></trkpt><trkpt lat="40.86459011193448" lon="8.238169783875444"><ele>21.0</ele><time>2026-05-02T10:30:20Z</time></trkpt><trkpt lat="40.86483557534877" lon="8.238064802457114"><ele>22.0</ele><time>2026-05-02T10:30:21Z</time></trkpt><trkpt lat="40.86505815769929" lon="8.237956200190544"><ele>21.333333333333332</ele><time>2026-05-02T10:30:22Z</time></trkpt><trkpt lat="40.86527030013728" lon="8.23785575647625"><ele>20.666666666666668</ele><time>2026-05-02T10:30:23Z</time></trkpt><trkpt lat="40.865471328386704" lon="8.237764740547473"><ele>20.0</ele><time>2026-05-02T10:30:24Z</time></trkpt><trkpt lat="40.86565626446776" lon="8.237678593178419"><ele>20.0</ele><time>2026-05-02T10:30:25Z</time></trkpt><trkpt lat="40.86582248856618" lon="8.237601242821567"><ele>20.0</ele><time>2026-05-02T10:30:26Z</time></trkpt><trkpt lat="40.86595442870566" lon="8.237561415090342"><ele>20.0</ele><time>2026-05-02T10:30:26.999Z</time></trkpt><trkpt lat="40.866076688350745" lon="8.237547957266182"><ele>20.0</ele><time>2026-05-02T10:30:27.999Z</time></trkpt><trkpt lat="40.86618905875862" lon="8.237565024889069"><ele>19.8</ele><time>2026-05-02T10:30:28.999Z</time></trkpt><trkpt lat="40.8663088030757" lon="8.237596870082696"><ele>19.6</ele><time>2026-05-02T10:30:29.999Z</time></trkpt><trkpt lat="40.86641463535677" lon="8.23758327343952"><ele>19.4</ele><time>2026-05-02T10:30:30.999Z</time></trkpt><trkpt lat="40.86648876749088" lon="8.2374960695557"><ele>19.2</ele><time>2026-05-02T10:30:32Z</time></trkpt><trkpt lat="40.86653589028577" lon="8.237359789455311"><ele>19.0</ele><time>2026-05-02T10:30:33Z</time></trkpt><trkpt lat="40.866608402229694" lon="8.237209245470101"><ele>19.0</ele><time>2026-05-02T10:30:34Z</time></trkpt><trkpt lat="40.866725431670915" lon="8.23711871864848"><ele>19.0</ele><time>2026-05-02T10:30:35Z</time></trkpt><trkpt lat="40.86690249863517" lon="8.23705138201312"><ele>19.0</ele><time>2026-05-02T10:30:36Z</time></trkpt><trkpt lat="40.867129422092354" lon="8.236951838656351"><ele>19.0</ele><time>2026-05-02T10:30:37Z</time></trkpt><trkpt lat="40.86737787879107" lon="8.236815586430334"><ele>19.0</ele><time>2026-05-02T10:30:38Z</time></trkpt><trkpt lat="40.867627287636374" lon="8.236669631065661"><ele>19.5</ele><time>2026-05-02T10:30:39Z</time></trkpt><trkpt lat="40.86788249595618" lon="8.236529196080852"><ele>20.0</ele><time>2026-05-02T10:30:40Z</time></trkpt><trkpt lat="40.86808738069273" lon="8.236411208402927"><ele>20.333333333333336</ele><time>2026-05-02T10:30:41Z</time></trkpt><trkpt lat="40.86828129577767" lon="8.23630303360961"><ele>20.666666666666668</ele><time>2026-05-02T10:30:42Z</time></trkpt><trkpt lat="40.8685005771667" lon="8.236181835637668"><ele>21.0</ele><time>2026-05-02T10:30:43Z</time></trkpt><trkpt lat="40.868730835494205" lon="8.236052897494298"><ele>21.0</ele><time>2026-05-02T10:30:44Z</time></trkpt><trkpt lat="40.868963004634644" lon="8.235924635262311"><ele>21.0</ele><time>2026-05-02T10:30:45Z</time></trkpt><trkpt lat="40.86919901768949" lon="8.235794464484089"><ele>20.5</ele><time>2026-05-02T10:30:46Z</time></trkpt><trkpt lat="40.869438917521286" lon="8.235665992580552"><ele>20.0</ele><time>2026-05-02T10:30:47Z</time></trkpt><trkpt lat="40.869679998420786" lon="8.235535471643347"><ele>20.0</ele><time>2026-05-02T10:30:48Z</time></trkpt><trkpt lat="40.8699206704707" lon="8.23540128356491"><ele>20.0</ele><time>2026-05-02T10:30:49Z</time></trkpt><trkpt lat="40.87016537920465" lon="8.235262729911623"><ele>18.5</ele><time>2026-05-02T10:30:50Z</time></trkpt><trkpt lat="40.87041589889755" lon="8.235126796958324"><ele>17.0</ele><time>2026-05-02T10:30:51Z</time></trkpt><trkpt lat="40.87066999450341" lon="8.235015956970443"><ele>17.0</ele><time>2026-05-02T10:30:52Z</time></trkpt><trkpt lat="40.87093406008461" lon="8.234947468832372"><ele>17.0</ele><time>2026-05-02T10:30:53Z</time></trkpt><trkpt lat="40.87120780086783" lon="8.23491396888581"><ele>16.5</ele><time>2026-05-02T10:30:54Z</time></trkpt><trkpt lat="40.87151330693964" lon="8.234929061402186"><ele>16.0</ele><time>2026-05-02T10:30:55Z</time></trkpt><trkpt lat="40.87181626950699" lon="8.234957465991805"><ele>15.0</ele><time>2026-05-02T10:30:56Z</time></trkpt><trkpt lat="40.87212000696226" lon="8.234968179205051"><ele>14.0</ele><time>2026-05-02T10:30:57Z</time></trkpt><trkpt lat="40.87239752764535" lon="8.234966275174742"><ele>14.0</ele><time>2026-05-02T10:30:58Z</time></trkpt><trkpt lat="40.87265583478045" lon="8.234968468523805"><ele>14.0</ele><time>2026-05-02T10:30:59Z</time></trkpt><trkpt lat="40.87291649651996" lon="8.234971314995267"><ele>14.0</ele><time>2026-05-02T10:31:00Z</time></trkpt><trkpt lat="40.87317397340159" lon="8.234982270802833"><ele>14.0</ele><time>2026-05-02T10:31:01Z</time></trkpt><trkpt lat="40.87343502383836" lon="8.235001764665371"><ele>15.0</ele><time>2026-05-02T10:31:02Z</time></trkpt><trkpt lat="40.873689368295665" lon="8.23503606816674"><ele>16.0</ele><time>2026-05-02T10:31:03Z</time></trkpt><trkpt lat="40.87393156262806" lon="8.235084344289975"><ele>16.0</ele><time>2026-05-02T10:31:04Z</time></trkpt><trkpt lat="40.87415599519179" lon="8.235125316277095"><ele>16.0</ele><time>2026-05-02T10:31:05Z</time></trkpt><trkpt lat="40.87437283435205" lon="8.235156546207328"><ele>16.0</ele><time>2026-05-02T10:31:06Z</time></trkpt><trkpt lat="40.87458603895496" lon="8.23519145024126"><ele>16.0</ele><time>2026-05-02T10:31:07Z</time></trkpt><trkpt lat="40.87480024262531" lon="8.235236104495531"><ele>16.0</ele><time>2026-05-02T10:31:08Z</time></trkpt><trkpt lat="40.875015324606416" lon="8.235280289084978"><ele>16.0</ele><time>2026-05-02T10:31:09Z</time></trkpt><trkpt lat="40.87523406057841" lon="8.23532519216239"><ele>15.0</ele><time>2026-05-02T10:31:10Z</time></trkpt><trkpt lat="40.87546270761299" lon="8.235368237455253"><ele>14.0</ele><time>2026-05-02T10:31:11Z</time></trkpt><trkpt lat="40.875693242293345" lon="8.235410711504084"><ele>14.0</ele><time>2026-05-02T10:31:12Z</time></trkpt><trkpt lat="40.87592503382732" lon="8.235454249038233"><ele>14.0</ele><time>2026-05-02T10:31:13Z</time></trkpt><trkpt lat="40.87616180848347" lon="8.235498705282744"><ele>13.5</ele><time>2026-05-02T10:31:14Z</time></trkpt><trkpt lat="40.876405620840536" lon="8.235546679833822"><ele>13.0</ele><time>2026-05-02T10:31:15Z</time></trkpt><trkpt lat="40.87665206853196" lon="8.235594792434862"><ele>12.5</ele><time>2026-05-02T10:31:16Z</time></trkpt><trkpt lat="40.8769005445152" lon="8.235644080712506"><ele>12.0</ele><time>2026-05-02T10:31:17Z</time></trkpt><trkpt lat="40.87715404436038" lon="8.235694368951423"><ele>12.0</ele><time>2026-05-02T10:31:18Z</time></trkpt><trkpt lat="40.87742061435796" lon="8.235742095923912"><ele>12.0</ele><time>2026-05-02T10:31:19Z</time></trkpt><trkpt lat="40.87768091357249" lon="8.23578561197816"><ele>12.0</ele><time>2026-05-02T10:31:20Z</time></trkpt><trkpt lat="40.87793612629469" lon="8.235821682567343"><ele>12.0</ele><time>2026-05-02T10:31:21Z</time></trkpt><trkpt lat="40.87818305198197" lon="8.235859948042577"><ele>12.0</ele><time>2026-05-02T10:31:22Z</time></trkpt><trkpt lat="40.878415694058475" lon="8.235892129605698"><ele>12.0</ele><time>2026-05-02T10:31:23Z</time></trkpt><trkpt lat="40.878647949918225" lon="8.235921436183085"><ele>11.0</ele><time>2026-05-02T10:31:24Z</time></trkpt><trkpt lat="40.87888194544898" lon="8.235957664473396"><ele>10.0</ele><time>2026-05-02T10:31:25Z</time></trkpt><trkpt lat="40.87912094602647" lon="8.235990008752097"><ele>9.0</ele><time>2026-05-02T10:31:26Z</time></trkpt><trkpt lat="40.87936154775752" lon="8.236018706723463"><ele>8.0</ele><time>2026-05-02T10:31:27Z</time></trkpt><trkpt lat="40.87959765085685" lon="8.236041132096185"><ele>8.0</ele><time>2026-05-02T10:31:28Z</time></trkpt><trkpt lat="40.87985065282702" lon="8.236071991686785"><ele>8.0</ele><time>2026-05-02T10:31:29Z</time></trkpt><trkpt lat="40.8800972889704" lon="8.236100744968894"><ele>8.0</ele><time>2026-05-02T10:31:30Z</time></trkpt><trkpt lat="40.88035801290156" lon="8.236125576357091"><ele>8.0</ele><time>2026-05-02T10:31:31Z</time></trkpt><trkpt lat="40.88063698489376" lon="8.236149971263602"><ele>8.0</ele><time>2026-05-02T10:31:32Z</time></trkpt><trkpt lat="40.880932423945204" lon="8.236187828817764"><ele>8.0</ele><time>2026-05-02T10:31:33Z</time></trkpt><trkpt lat="40.88124850584423" lon="8.236216996163396"><ele>8.5</ele><time>2026-05-02T10:31:34Z</time></trkpt><trkpt lat="40.88156319469649" lon="8.236241043096072"><ele>9.0</ele><time>2026-05-02T10:31:35Z</time></trkpt><trkpt lat="40.8818657195101" lon="8.23628999820221"><ele>8.0</ele><time>2026-05-02T10:31:36Z</time></trkpt><trkpt lat="40.882149816632584" lon="8.236331422871055"><ele>7.0</ele><time>2026-05-02T10:31:37Z</time></trkpt><trkpt lat="40.88241761414866" lon="8.236345301806487"><ele>7.0</ele><time>2026-05-02T10:31:38Z</time></trkpt><trkpt lat="40.88267068155523" lon="8.236343683862614"><ele>7.0</ele><time>2026-05-02T10:31:39Z</time></trkpt><trkpt lat="40.88291732992699" lon="8.236338863679634"><ele>7.0</ele><time>2026-05-02T10:31:40Z</time></trkpt><trkpt lat="40.88315136652532" lon="8.236332436758591"><ele>7.0</ele><time>2026-05-02T10:31:41Z</time></trkpt><trkpt lat="40.88338693295311" lon="8.236322736284164"><ele>6.0</ele><time>2026-05-02T10:31:42Z</time></trkpt><trkpt lat="40.88362878489965" lon="8.236310793349617"><ele>5.0</ele><time>2026-05-02T10:31:43Z</time></trkpt><trkpt lat="40.88386997838369" lon="8.236291467060433"><ele>5.0</ele><time>2026-05-02T10:31:44Z</time></trkpt><trkpt lat="40.884130435761385" lon="8.236272832236564"><ele>5.0</ele><time>2026-05-02T10:31:45Z</time></trkpt><trkpt lat="40.88441364089736" lon="8.236247719234312"><ele>4.5</ele><time>2026-05-02T10:31:46Z</time></trkpt><trkpt lat="40.88469641487796" lon="8.236240131498072"><ele>4.0</ele><time>2026-05-02T10:31:47Z</time></trkpt><trkpt lat="40.884965039477244" lon="8.23623986942528"><ele>3.5</ele><time>2026-05-02T10:31:48Z</time></trkpt><trkpt lat="40.885206773960626" lon="8.236233052199257"><ele>3.0</ele><time>2026-05-02T10:31:49Z</time></trkpt><trkpt lat="40.88542293738596" lon="8.236217424940325"><ele>3.0</ele><time>2026-05-02T10:31:50Z</time></trkpt><trkpt lat="40.885606157991916" lon="8.236197712421843"><ele>3.0</ele><time>2026-05-02T10:31:51Z</time></trkpt><trkpt lat="40.88577635378164" lon="8.236188837933476"><ele>3.0</ele><time>2026-05-02T10:31:52Z</time></trkpt><trkpt lat="40.88596914005466" lon="8.2361816288098"><ele>3.0</ele><time>2026-05-02T10:31:53Z</time></trkpt><trkpt lat="40.886184784966844" lon="8.236165564206846"><ele>3.0</ele><time>2026-05-02T10:31:54Z</time></trkpt><trkpt lat="40.88640926487956" lon="8.236154411985178"><ele>3.0</ele><time>2026-05-02T10:31:55Z</time></trkpt><trkpt lat="40.88663553623687" lon="8.23613990049209"><ele>2.5</ele><time>2026-05-02T10:31:56Z</time></trkpt><trkpt lat="40.886874354001414" lon="8.236129140725861"><ele>2.0</ele><time>2026-05-02T10:31:57Z</time></trkpt><trkpt lat="40.8871302142251" lon="8.236098797976195"><ele>2.0</ele><time>2026-05-02T10:31:58Z</time></trkpt><trkpt lat="40.88737799777307" lon="8.23610268850403"><ele>2.0</ele><time>2026-05-02T10:31:59Z</time></trkpt><trkpt lat="40.88763297455979" lon="8.23608436529767"><ele>2.0</ele><time>2026-05-02T10:32:00Z</time></trkpt><trkpt lat="40.88787261757912" lon="8.236052074684636"><ele>2.0</ele><time>2026-05-02T10:32:01Z</time></trkpt><trkpt lat="40.88812073636608" lon="8.236005107381022"><ele>2.0</ele><time>2026-05-02T10:32:02Z</time></trkpt><trkpt lat="40.8883848211953" lon="8.235958083783965"><ele>2.0</ele><time>2026-05-02T10:32:03Z</time></trkpt><trkpt lat="40.888631126214975" lon="8.235922018021013"><ele>2.0</ele><time>2026-05-02T10:32:04Z</time></trkpt><trkpt lat="40.888858255910705" lon="8.235878838854145"><ele>2.0</ele><time>2026-05-02T10:32:05Z</time></trkpt><trkpt lat="40.8890797171276" lon="8.235816057163207"><ele>2.0</ele><time>2026-05-02T10:32:06Z</time></trkpt><trkpt lat="40.889293091493094" lon="8.235749062623015"><ele>2.0</ele><time>2026-05-02T10:32:07Z</time></trkpt><trkpt lat="40.88948031597578" lon="8.235680279169841"><ele>2.0</ele><time>2026-05-02T10:32:08Z</time></trkpt><trkpt lat="40.88965778873907" lon="8.235612243449983"><ele>2.0</ele><time>2026-05-02T10:32:09Z</time></trkpt><trkpt lat="40.88984440954366" lon="8.235545370511433"><ele>2.0</ele><time>2026-05-02T10:32:10Z</time></trkpt><trkpt lat="40.8900262808303" lon="8.235464386768681"><ele>2.0</ele><time>2026-05-02T10:32:11Z</time></trkpt><trkpt lat="40.890217492111745" lon="8.235382668600476"><ele>1.6666666666666665</ele><time>2026-05-02T10:32:12Z</time></trkpt><trkpt lat="40.890416438938935" lon="8.235289003484938"><ele>1.3333333333333333</ele><time>2026-05-02T10:32:13Z</time></trkpt><trkpt lat="40.890617755231354" lon="8.235180461650693"><ele>1.0</ele><time>2026-05-02T10:32:14Z</time></trkpt><trkpt lat="40.890822141894716" lon="8.235062125797247"><ele>1.0</ele><time>2026-05-02T10:32:15Z</time></trkpt><trkpt lat="40.89103532952129" lon="8.234939872434209"><ele>1.0</ele><time>2026-05-02T10:32:16Z</time></trkpt><trkpt lat="40.89124171101954" lon="8.234814774225795"><ele>2.0</ele><time>2026-05-02T10:32:17Z</time></trkpt><trkpt lat="40.89144842319857" lon="8.234691448842153"><ele>3.0</ele><time>2026-05-02T10:32:18Z</time></trkpt><trkpt lat="40.891655091416716" lon="8.234570145552059"><ele>2.6666666666666665</ele><time>2026-05-02T10:32:19Z</time></trkpt><trkpt lat="40.89185503658895" lon="8.234449568469516"><ele>2.333333333333333</ele><time>2026-05-02T10:32:20Z</time></trkpt><trkpt lat="40.892041159772425" lon="8.234336406116542"><ele>2.0</ele><time>2026-05-02T10:32:21Z</time></trkpt><trkpt lat="40.89222053484363" lon="8.234232867038406"><ele>2.0</ele><time>2026-05-02T10:32:22Z</time></trkpt><trkpt lat="40.892409010408855" lon="8.234121204442637"><ele>2.0</ele><time>2026-05-02T10:32:23Z</time></trkpt><trkpt lat="40.89261581239422" lon="8.233993882990264"><ele>2.0</ele><time>2026-05-02T10:32:24Z</time></trkpt><trkpt lat="40.89282749086468" lon="8.233873850331731"><ele>2.0</ele><time>2026-05-02T10:32:25Z</time></trkpt><trkpt lat="40.89303252199714" lon="8.233761026597447"><ele>2.0</ele><time>2026-05-02T10:32:26Z</time></trkpt><trkpt lat="40.89324359386734" lon="8.233646462127354"><ele>2.5</ele><time>2026-05-02T10:32:27Z</time></trkpt><trkpt lat="40.89347559881637" lon="8.233519524213902"><ele>3.0</ele><time>2026-05-02T10:32:28Z</time></trkpt><trkpt lat="40.893711076203275" lon="8.233398337452384"><ele>3.0</ele><time>2026-05-02T10:32:29Z</time></trkpt><trkpt lat="40.893957834544736" lon="8.233284617382141"><ele>3.0</ele><time>2026-05-02T10:32:30Z</time></trkpt><trkpt lat="40.89421783445011" lon="8.233189206134323"><ele>3.0</ele><time>2026-05-02T10:32:31Z</time></trkpt><trkpt lat="40.89449391263907" lon="8.233101757171971"><ele>3.0</ele><time>2026-05-02T10:32:32Z</time></trkpt><trkpt lat="40.8947682848513" lon="8.233063053237283"><ele>3.0</ele><time>2026-05-02T10:32:33Z</time></trkpt><trkpt lat="40.895036932168914" lon="8.233026540409487"><ele>3.0</ele><time>2026-05-02T10:32:34Z</time></trkpt><trkpt lat="40.89529896154951" lon="8.232991328630161"><ele>2.5</ele><time>2026-05-02T10:32:35Z</time></trkpt><trkpt lat="40.89555031211414" lon="8.233003615343128"><ele>2.0</ele><time>2026-05-02T10:32:36Z</time></trkpt><trkpt lat="40.89577833241178" lon="8.233024497309628"><ele>2.333333333333333</ele><time>2026-05-02T10:32:37Z</time></trkpt><trkpt lat="40.89599216262372" lon="8.233050883754316"><ele>2.6666666666666665</ele><time>2026-05-02T10:32:38Z</time></trkpt><trkpt lat="40.89618917300908" lon="8.233080551840803"><ele>3.0</ele><time>2026-05-02T10:32:39Z</time></trkpt><trkpt lat="40.89638313856441" lon="8.2331342388448"><ele>2.6666666666666665</ele><time>2026-05-02T10:32:40Z</time></trkpt><trkpt lat="40.89657916248345" lon="8.233192792201129"><ele>2.333333333333333</ele><time>2026-05-02T10:32:41Z</time></trkpt><trkpt lat="40.89677871491002" lon="8.233239437443016"><ele>2.0</ele><time>2026-05-02T10:32:42Z</time></trkpt><trkpt lat="40.89698234373693" lon="8.233294911589228"><ele>2.0</ele><time>2026-05-02T10:32:43Z</time></trkpt><trkpt lat="40.89719319068551" lon="8.233349897362926"><ele>2.0</ele><time>2026-05-02T10:32:44Z</time></trkpt><trkpt lat="40.89742051500262" lon="8.233397335287243"><ele>2.0</ele><time>2026-05-02T10:32:45Z</time></trkpt><trkpt lat="40.89766292434668" lon="8.233448629293113"><ele>3.0</ele><time>2026-05-02T10:32:46Z</time></trkpt><trkpt lat="40.89790275202534" lon="8.233496862815755"><ele>4.0</ele><time>2026-05-02T10:32:47Z</time></trkpt><trkpt lat="40.89813768726382" lon="8.23354956379438"><ele>4.0</ele><time>2026-05-02T10:32:48Z</time></trkpt><trkpt lat="40.89836415603864" lon="8.233607133840179"><ele>4.0</ele><time>2026-05-02T10:32:49Z</time></trkpt><trkpt lat="40.898589665591714" lon="8.23366561354097"><ele>5.0</ele><time>2026-05-02T10:32:50Z</time></trkpt><trkpt lat="40.89881646685834" lon="8.233720749354731"><ele>6.0</ele><time>2026-05-02T10:32:51Z</time></trkpt><trkpt lat="40.899043180449844" lon="8.233767119410679"><ele>6.0</ele><time>2026-05-02T10:32:52Z</time></trkpt><trkpt lat="40.899270715864915" lon="8.233797910754381"><ele>6.0</ele><time>2026-05-02T10:32:53Z</time></trkpt><trkpt lat="40.8995040183898" lon="8.233809939311147"><ele>6.0</ele><time>2026-05-02T10:32:54Z</time></trkpt><trkpt lat="40.89973657026692" lon="8.233798634054482"><ele>6.0</ele><time>2026-05-02T10:32:55Z</time></trkpt><trkpt lat="40.89996524836932" lon="8.23376417704362"><ele>5.666666666666667</ele><time>2026-05-02T10:32:56Z</time></trkpt><trkpt lat="40.90017883192817" lon="8.233701908417384"><ele>5.333333333333334</ele><time>2026-05-02T10:32:57Z</time></trkpt><trkpt lat="40.900391448223864" lon="8.233620455571359"><ele>5.0</ele><time>2026-05-02T10:32:58Z</time></trkpt><trkpt lat="40.90060807551031" lon="8.23351764314946"><ele>5.0</ele><time>2026-05-02T10:32:59Z</time></trkpt><trkpt lat="40.90083359972251" lon="8.23340036295599"><ele>5.0</ele><time>2026-05-02T10:33:00Z</time></trkpt><trkpt lat="40.901069131405585" lon="8.23326158797835"><ele>4.5</ele><time>2026-05-02T10:33:01Z</time></trkpt><trkpt lat="40.90132924225847" lon="8.233108534071967"><ele>4.0</ele><time>2026-05-02T10:33:02Z</time></trkpt><trkpt lat="40.90162659289937" lon="8.232955433747847"><ele>4.0</ele><time>2026-05-02T10:33:03Z</time></trkpt><trkpt lat="40.90193970366373" lon="8.232810783173388"><ele>4.0</ele><time>2026-05-02T10:33:04Z</time></trkpt><trkpt lat="40.90224705583151" lon="8.2326533468291"><ele>4.0</ele><time>2026-05-02T10:33:05Z</time></trkpt><trkpt lat="40.90254342129004" lon="8.232490420775397"><ele>4.0</ele><time>2026-05-02T10:33:06Z</time></trkpt><trkpt lat="40.902820219384616" lon="8.232343005387813"><ele>3.0</ele><time>2026-05-02T10:33:07Z</time></trkpt><trkpt lat="40.90308210495256" lon="8.232204864744649"><ele>2.0</ele><time>2026-05-02T10:33:08Z</time></trkpt><trkpt lat="40.90333534645545" lon="8.232070168660758"><ele>2.5</ele><time>2026-05-02T10:33:09Z</time></trkpt><trkpt lat="40.90358127878692" lon="8.231941212221566"><ele>3.0</ele><time>2026-05-02T10:33:10Z</time></trkpt><trkpt lat="40.90378268970598" lon="8.231842790410763"><ele>3.0</ele><time>2026-05-02T10:33:11Z</time></trkpt><trkpt lat="40.90392879466987" lon="8.231763600124046"><ele>3.0</ele><time>2026-05-02T10:33:12Z</time></trkpt><trkpt lat="40.90403827353959" lon="8.231704671291022"><ele>3.0</ele><time>2026-05-02T10:33:13Z</time></trkpt><trkpt lat="40.904132429656535" lon="8.231655347049442"><ele>3.0</ele><time>2026-05-02T10:33:14Z</time></trkpt><trkpt lat="40.90421030126796" lon="8.231609885943586"><ele>3.0</ele><time>2026-05-02T10:33:15Z</time></trkpt><trkpt lat="40.904282127212184" lon="8.231570456341075"><ele>3.0</ele><time>2026-05-02T10:33:16Z</time></trkpt><trkpt lat="40.90436416538571" lon="8.231534884991644"><ele>3.0</ele><time>2026-05-02T10:33:17Z</time></trkpt><trkpt lat="40.9044492142011" lon="8.231507216467774"><ele>3.0</ele><time>2026-05-02T10:33:18Z</time></trkpt><trkpt lat="40.9045346065148" lon="8.231478312250784"><ele>3.0</ele><time>2026-05-02T10:33:19Z</time></trkpt><trkpt lat="40.90460989682317" lon="8.231465863418478"><ele>3.0</ele><time>2026-05-02T10:33:20Z</time></trkpt><trkpt lat="40.904721802879635" lon="8.231500216143463"><ele>3.0</ele><time>2026-05-02T10:33:22Z</time></trkpt><trkpt lat="40.904779227074584" lon="8.231546096269474"><ele>3.0</ele><time>2026-05-02T10:33:23Z</time></trkpt><trkpt lat="40.90484654979749" lon="8.231606173683948"><ele>3.0</ele><time>2026-05-02T10:33:24Z</time></trkpt><trkpt lat="40.90493226603787" lon="8.231650629406717"><ele>3.0</ele><time>2026-05-02T10:33:25Z</time></trkpt><trkpt lat="40.9050328855558" lon="8.231668758359783"><ele>3.0</ele><time>2026-05-02T10:33:26Z</time></trkpt><trkpt lat="40.90515155131299" lon="8.231633778605124"><ele>3.0</ele><time>2026-05-02T10:33:27Z</time></trkpt><trkpt lat="40.90522586674003" lon="8.231614472982882"><ele>3.0</ele><time>2026-05-02T10:33:28Z</time></trkpt><trkpt lat="40.90533178588295" lon="8.231490308459902"><ele>3.0</ele><time>2026-05-02T10:33:29Z</time></trkpt><trkpt lat="40.905394685283106" lon="8.231311834891121"><ele>3.0</ele><time>2026-05-02T10:33:30Z</time></trkpt><trkpt lat="40.90543132894316" lon="8.231126933062816"><ele>3.0</ele><time>2026-05-02T10:33:31Z</time></trkpt><trkpt lat="40.905693428607066" lon="8.231117954395984"><ele>3.0</ele><time>2026-05-02T10:33:32Z</time></trkpt><trkpt lat="40.905865671596146" lon="8.231075803592958"><ele>3.0</ele><time>2026-05-02T10:33:33Z</time></trkpt><trkpt lat="40.906045121290425" lon="8.231034218339271"><ele>3.333333333333333</ele><time>2026-05-02T10:33:34Z</time></trkpt><trkpt lat="40.90625506100823" lon="8.230995772584421"><ele>3.6666666666666665</ele><time>2026-05-02T10:33:35Z</time></trkpt><trkpt lat="40.90647650742408" lon="8.230940550905741"><ele>4.0</ele><time>2026-05-02T10:33:36Z</time></trkpt><trkpt lat="40.90669270810398" lon="8.230888758231043"><ele>4.0</ele><time>2026-05-02T10:33:37Z</time></trkpt><trkpt lat="40.90690637781681" lon="8.23083409070548"><ele>4.0</ele><time>2026-05-02T10:33:38Z</time></trkpt><trkpt lat="40.90710743951233" lon="8.230785358535053"><ele>4.0</ele><time>2026-05-02T10:33:39Z</time></trkpt><trkpt lat="40.90729573052136" lon="8.230736095307376"><ele>4.0</ele><time>2026-05-02T10:33:40Z</time></trkpt><trkpt lat="40.90746998991633" lon="8.230692588350921"><ele>4.0</ele><time>2026-05-02T10:33:41Z</time></trkpt><trkpt lat="40.907645625947836" lon="8.230647721469817"><ele>4.0</ele><time>2026-05-02T10:33:42Z</time></trkpt><trkpt lat="40.90782579972647" lon="8.230600770612082"><ele>4.0</ele><time>2026-05-02T10:33:43Z</time></trkpt><trkpt lat="40.90800981498575" lon="8.23055348550962"><ele>4.0</ele><time>2026-05-02T10:33:44Z</time></trkpt><trkpt lat="40.90820026380457" lon="8.230514652484851"><ele>4.0</ele><time>2026-05-02T10:33:45Z</time></trkpt><trkpt lat="40.90839856916733" lon="8.230469149836335"><ele>3.333333333333333</ele><time>2026-05-02T10:33:46Z</time></trkpt><trkpt lat="40.9086104615096" lon="8.230420437530519"><ele>2.6666666666666665</ele><time>2026-05-02T10:33:47Z</time></trkpt><trkpt lat="40.90882040963546" lon="8.230368150300881"><ele>2.0</ele><time>2026-05-02T10:33:48Z</time></trkpt><trkpt lat="40.90902511237162" lon="8.230321462855603"><ele>2.0</ele><time>2026-05-02T10:33:49Z</time></trkpt><trkpt lat="40.90922362081687" lon="8.230278356542167"><ele>2.0</ele><time>2026-05-02T10:33:50Z</time></trkpt><trkpt lat="40.90941290114046" lon="8.230236140929708"><ele>2.0</ele><time>2026-05-02T10:33:51Z</time></trkpt><trkpt lat="40.90961307172427" lon="8.230183419985178"><ele>2.0</ele><time>2026-05-02T10:33:52Z</time></trkpt><trkpt lat="40.909830389638536" lon="8.230134216703798"><ele>2.0</ele><time>2026-05-02T10:33:53Z</time></trkpt><trkpt lat="40.91006086067593" lon="8.230087883204318"><ele>2.5</ele><time>2026-05-02T10:33:54Z</time></trkpt><trkpt lat="40.910293606030514" lon="8.230060591277839"><ele>3.0</ele><time>2026-05-02T10:33:55Z</time></trkpt><trkpt lat="40.91052246241031" lon="8.230041561383011"><ele>3.0</ele><time>2026-05-02T10:33:56Z</time></trkpt><trkpt lat="40.910741422026256" lon="8.230026447586749"><ele>3.0</ele><time>2026-05-02T10:33:57Z</time></trkpt><trkpt lat="40.91096136922904" lon="8.230013159909952"><ele>3.0</ele><time>2026-05-02T10:33:58Z</time></trkpt><trkpt lat="40.91117753990382" lon="8.229996233526439"><ele>2.5</ele><time>2026-05-02T10:33:59Z</time></trkpt><trkpt lat="40.911409356853085" lon="8.229993140114908"><ele>2.0</ele><time>2026-05-02T10:34:00Z</time></trkpt><trkpt lat="40.91164965946254" lon="8.229996228869663"><ele>1.5</ele><time>2026-05-02T10:34:01Z</time></trkpt><trkpt lat="40.911890523783" lon="8.230006837457092"><ele>1.0</ele><time>2026-05-02T10:34:02Z</time></trkpt><trkpt lat="40.91213226911697" lon="8.230019018992959"><ele>1.0</ele><time>2026-05-02T10:34:03Z</time></trkpt><trkpt lat="40.9123912250132" lon="8.230027939994603"><ele>1.0</ele><time>2026-05-02T10:34:04Z</time></trkpt><trkpt lat="40.91265604713234" lon="8.23003593739184"><ele>1.5</ele><time>2026-05-02T10:34:05Z</time></trkpt><trkpt lat="40.91292317338815" lon="8.230043247363925"><ele>2.0</ele><time>2026-05-02T10:34:06Z</time></trkpt><trkpt lat="40.91319928447483" lon="8.230056201653882"><ele>1.0</ele><time>2026-05-02T10:34:07Z</time></trkpt><trkpt lat="40.91347641649202" lon="8.230071625618775"><ele>0.0</ele><time>2026-05-02T10:34:08Z</time></trkpt><trkpt lat="40.913751730836815" lon="8.230087716584935"><ele>0.0</ele><time>2026-05-02T10:34:09Z</time></trkpt><trkpt lat="40.91405379352574" lon="8.23010571446426"><ele>0.0</ele><time>2026-05-02T10:34:10Z</time></trkpt><trkpt lat="40.91434070779966" lon="8.230121350511311"><ele>0.5</ele><time>2026-05-02T10:34:11Z</time></trkpt><trkpt lat="40.914608318239814" lon="8.230138865464115"><ele>1.0</ele><time>2026-05-02T10:34:12Z</time></trkpt><trkpt lat="40.91487892553635" lon="8.230156591087777"><ele>3.0</ele><time>2026-05-02T10:34:13Z</time></trkpt><trkpt lat="40.915135092992955" lon="8.230169760149066"><ele>5.0</ele><time>2026-05-02T10:34:14Z</time></trkpt><trkpt lat="40.915386113006065" lon="8.230188357567746"><ele>5.0</ele><time>2026-05-02T10:34:15Z</time></trkpt><trkpt lat="40.915631545246306" lon="8.230205868042045"><ele>5.0</ele><time>2026-05-02T10:34:16Z</time></trkpt><trkpt lat="40.91587253689517" lon="8.230221202533253"><ele>7.5</ele><time>2026-05-02T10:34:17Z</time></trkpt><trkpt lat="40.91611370711329" lon="8.230231026911573"><ele>10.0</ele><time>2026-05-02T10:34:18Z</time></trkpt><trkpt lat="40.916356675829824" lon="8.230238936962952"><ele>10.0</ele><time>2026-05-02T10:34:19Z</time></trkpt><trkpt lat="40.91659896328566" lon="8.230238123148146"><ele>10.0</ele><time>2026-05-02T10:34:20Z</time></trkpt><trkpt lat="40.91683788694756" lon="8.230228716188028"><ele>12.0</ele><time>2026-05-02T10:34:21Z</time></trkpt><trkpt lat="40.91707031465954" lon="8.230213290016678"><ele>14.0</ele><time>2026-05-02T10:34:22Z</time></trkpt><trkpt lat="40.91729947339349" lon="8.230178054334866"><ele>14.0</ele><time>2026-05-02T10:34:23Z</time></trkpt><trkpt lat="40.917542528605786" lon="8.230130295254213"><ele>14.0</ele><time>2026-05-02T10:34:24Z</time></trkpt><trkpt lat="40.9178124257451" lon="8.230068174307279"><ele>14.5</ele><time>2026-05-02T10:34:25Z</time></trkpt><trkpt lat="40.91809818603179" lon="8.230022607278682"><ele>15.0</ele><time>2026-05-02T10:34:26Z</time></trkpt><trkpt lat="40.91838627466714" lon="8.229974001736526"><ele>14.5</ele><time>2026-05-02T10:34:27Z</time></trkpt><trkpt lat="40.918661352259214" lon="8.229910224908583"><ele>14.0</ele><time>2026-05-02T10:34:28Z</time></trkpt><trkpt lat="40.918914641351634" lon="8.229848849270269"><ele>14.0</ele><time>2026-05-02T10:34:29Z</time></trkpt><trkpt lat="40.91915932971516" lon="8.229777805603083"><ele>14.0</ele><time>2026-05-02T10:34:30Z</time></trkpt><trkpt lat="40.919405302683806" lon="8.229686539054807"><ele>14.0</ele><time>2026-05-02T10:34:31Z</time></trkpt><trkpt lat="40.91964443022264" lon="8.22957059412945"><ele>14.0</ele><time>2026-05-02T10:34:32Z</time></trkpt><trkpt lat="40.91988246413801" lon="8.229429378481184"><ele>15.0</ele><time>2026-05-02T10:34:33Z</time></trkpt><trkpt lat="40.920118863668414" lon="8.229274906736048"><ele>16.0</ele><time>2026-05-02T10:34:34Z</time></trkpt><trkpt lat="40.92035237281349" lon="8.229113616455061"><ele>16.0</ele><time>2026-05-02T10:34:35Z</time></trkpt><trkpt lat="40.920582837981954" lon="8.228955088854905"><ele>16.0</ele><time>2026-05-02T10:34:36Z</time></trkpt><trkpt lat="40.92081592303269" lon="8.228797784854587"><ele>16.5</ele><time>2026-05-02T10:34:37Z</time></trkpt><trkpt lat="40.92103717104841" lon="8.22865650915196"><ele>17.0</ele><time>2026-05-02T10:34:38Z</time></trkpt><trkpt lat="40.921245901793284" lon="8.22852394188901"><ele>17.0</ele><time>2026-05-02T10:34:39Z</time></trkpt><trkpt lat="40.921449912631054" lon="8.228388755550538"><ele>17.0</ele><time>2026-05-02T10:34:40Z</time></trkpt><trkpt lat="40.92165784116087" lon="8.228246807339115"><ele>16.333333333333336</ele><time>2026-05-02T10:34:41Z</time></trkpt><trkpt lat="40.921865381073" lon="8.22811123803037"><ele>15.666666666666668</ele><time>2026-05-02T10:34:42Z</time></trkpt><trkpt lat="40.922053420816866" lon="8.227997532943622"><ele>15.0</ele><time>2026-05-02T10:34:43Z</time></trkpt><trkpt lat="40.92223066589952" lon="8.22789159807078"><ele>15.0</ele><time>2026-05-02T10:34:44Z</time></trkpt><trkpt lat="40.92241008126546" lon="8.227771659536968"><ele>15.0</ele><time>2026-05-02T10:34:45Z</time></trkpt><trkpt lat="40.92259457357091" lon="8.227643758999228"><ele>15.0</ele><time>2026-05-02T10:34:46Z</time></trkpt><trkpt lat="40.9227903330257" lon="8.22751862010289"><ele>15.0</ele><time>2026-05-02T10:34:47Z</time></trkpt><trkpt lat="40.9229815320065" lon="8.227387453357174"><ele>15.0</ele><time>2026-05-02T10:34:48Z</time></trkpt><trkpt lat="40.923174620635656" lon="8.227258349407858"><ele>15.0</ele><time>2026-05-02T10:34:49Z</time></trkpt><trkpt lat="40.923375436354675" lon="8.22712898567045"><ele>15.0</ele><time>2026-05-02T10:34:50Z</time></trkpt><trkpt lat="40.92357119019438" lon="8.226998155568737"><ele>15.0</ele><time>2026-05-02T10:34:51Z</time></trkpt><trkpt lat="40.923780984080736" lon="8.22685306793686"><ele>15.0</ele><time>2026-05-02T10:34:52Z</time></trkpt><trkpt lat="40.924007785509055" lon="8.226702954325646"><ele>15.0</ele><time>2026-05-02T10:34:53Z</time></trkpt><trkpt lat="40.92426043595708" lon="8.226549577352642"><ele>16.5</ele><time>2026-05-02T10:34:54Z</time></trkpt><trkpt lat="40.92453110990342" lon="8.226397285434082"><ele>18.0</ele><time>2026-05-02T10:34:55Z</time></trkpt><trkpt lat="40.92480356841413" lon="8.226262625588719"><ele>15.0</ele><time>2026-05-02T10:34:56Z</time></trkpt><trkpt lat="40.9250830014892" lon="8.226139424475885"><ele>12.0</ele><time>2026-05-02T10:34:57Z</time></trkpt><trkpt lat="40.92537788440932" lon="8.22602836869074"><ele>12.0</ele><time>2026-05-02T10:34:58Z</time></trkpt><trkpt lat="40.92568688923649" lon="8.225933400335144"><ele>12.0</ele><time>2026-05-02T10:34:59Z</time></trkpt><trkpt lat="40.9259808074824" lon="8.225844301950598"><ele>9.5</ele><time>2026-05-02T10:35:00Z</time></trkpt><trkpt lat="40.92625519308458" lon="8.225751735805298"><ele>7.0</ele><time>2026-05-02T10:35:01Z</time></trkpt><trkpt lat="40.926528567821414" lon="8.225659126318384"><ele>8.0</ele><time>2026-05-02T10:35:02Z</time></trkpt><trkpt lat="40.92680133233904" lon="8.22556550863821"><ele>9.0</ele><time>2026-05-02T10:35:03Z</time></trkpt><trkpt lat="40.92707204790464" lon="8.22547611238578"><ele>9.0</ele><time>2026-05-02T10:35:04Z</time></trkpt><trkpt lat="40.92734395929846" lon="8.225386742538795"><ele>9.0</ele><time>2026-05-02T10:35:05Z</time></trkpt><trkpt lat="40.927600291605955" lon="8.225301959100559"><ele>10.5</ele><time>2026-05-02T10:35:06Z</time></trkpt><trkpt lat="40.92783527628211" lon="8.225227433753377"><ele>12.0</ele><time>2026-05-02T10:35:07Z</time></trkpt><trkpt lat="40.92804214444323" lon="8.225157330529795"><ele>12.0</ele><time>2026-05-02T10:35:08Z</time></trkpt><trkpt lat="40.92822308618486" lon="8.225089038491983"><ele>12.0</ele><time>2026-05-02T10:35:09Z</time></trkpt><trkpt lat="40.92838633858542" lon="8.225023713633908"><ele>12.0</ele><time>2026-05-02T10:35:10Z</time></trkpt><trkpt lat="40.9285459471468" lon="8.224965683533688"><ele>11.666666666666666</ele><time>2026-05-02T10:35:11Z</time></trkpt><trkpt lat="40.928717970505815" lon="8.224891331249754"><ele>11.333333333333332</ele><time>2026-05-02T10:35:12Z</time></trkpt><trkpt lat="40.928929032517814" lon="8.224816775490842"><ele>11.0</ele><time>2026-05-02T10:35:13Z</time></trkpt><trkpt lat="40.92917194755908" lon="8.224774127364663"><ele>10.5</ele><time>2026-05-02T10:35:14Z</time></trkpt><trkpt lat="40.92941849998572" lon="8.224716116898849"><ele>10.0</ele><time>2026-05-02T10:35:15Z</time></trkpt><trkpt lat="40.929666742042485" lon="8.22463113279474"><ele>10.0</ele><time>2026-05-02T10:35:16Z</time></trkpt><trkpt lat="40.92991691411892" lon="8.224544456192373"><ele>10.0</ele><time>2026-05-02T10:35:17Z</time></trkpt><trkpt lat="40.93016835472812" lon="8.224460292583046"><ele>10.0</ele><time>2026-05-02T10:35:18Z</time></trkpt><trkpt lat="40.9304118964049" lon="8.224375171501249"><ele>10.0</ele><time>2026-05-02T10:35:19Z</time></trkpt><trkpt lat="40.930651118604175" lon="8.224288552418313"><ele>10.0</ele><time>2026-05-02T10:35:20Z</time></trkpt><trkpt lat="40.930885023829774" lon="8.224203918495395"><ele>10.0</ele><time>2026-05-02T10:35:21Z</time></trkpt><trkpt lat="40.9311208266436" lon="8.224119931027895"><ele>11.5</ele><time>2026-05-02T10:35:22Z</time></trkpt><trkpt lat="40.93135238253381" lon="8.224038076009771"><ele>13.0</ele><time>2026-05-02T10:35:23Z</time></trkpt><trkpt lat="40.93158662899347" lon="8.223958461563358"><ele>17.0</ele><time>2026-05-02T10:35:24Z</time></trkpt><trkpt lat="40.9318118076612" lon="8.223884945618956"><ele>21.0</ele><time>2026-05-02T10:35:25Z</time></trkpt><trkpt lat="40.93203267960351" lon="8.223814155014562"><ele>21.0</ele><time>2026-05-02T10:35:26Z</time></trkpt><trkpt lat="40.93225754797559" lon="8.223740669130683"><ele>21.0</ele><time>2026-05-02T10:35:27Z</time></trkpt><trkpt lat="40.93247490358201" lon="8.22367019074416"><ele>22.666666666666664</ele><time>2026-05-02T10:35:28Z</time></trkpt><trkpt lat="40.93266549022407" lon="8.223607392369292"><ele>24.333333333333332</ele><time>2026-05-02T10:35:29Z</time></trkpt><trkpt lat="40.932822661503984" lon="8.223554255302687"><ele>26.0</ele><time>2026-05-02T10:35:30Z</time></trkpt><trkpt lat="40.932946275410046" lon="8.22351263011623"><ele>26.0</ele><time>2026-05-02T10:35:31Z</time></trkpt><trkpt lat="40.93306081196552" lon="8.223471408042414"><ele>26.0</ele><time>2026-05-02T10:35:32Z</time></trkpt><trkpt lat="40.93317224225761" lon="8.223430860568353"><ele>26.0</ele><time>2026-05-02T10:35:33Z</time></trkpt><trkpt lat="40.93327754857567" lon="8.223397603051339"><ele>26.0</ele><time>2026-05-02T10:35:34Z</time></trkpt><trkpt lat="40.933373706637205" lon="8.22336277427763"><ele>26.0</ele><time>2026-05-02T10:35:35Z</time></trkpt><trkpt lat="40.93345383572783" lon="8.223334195886498"><ele>25.71428571428571</ele><time>2026-05-02T10:35:36Z</time></trkpt><trkpt lat="40.93351877634482" lon="8.223323587699298"><ele>25.42857142857143</ele><time>2026-05-02T10:35:37Z</time></trkpt><trkpt lat="40.93358769732077" lon="8.223328765238854"><ele>25.142857142857142</ele><time>2026-05-02T10:35:38Z</time></trkpt><trkpt lat="40.9336567437017" lon="8.22334804332552"><ele>24.857142857142854</ele><time>2026-05-02T10:35:39Z</time></trkpt><trkpt lat="40.93372355239606" lon="8.223348561290193"><ele>24.57142857142857</ele><time>2026-05-02T10:35:40Z</time></trkpt><trkpt lat="40.933792410272794" lon="8.223321327044076"><ele>24.285714285714285</ele><time>2026-05-02T10:35:41Z</time></trkpt><trkpt lat="40.93384796616899" lon="8.22324312007861"><ele>24.0</ele><time>2026-05-02T10:35:42Z</time></trkpt><trkpt lat="40.933901783271004" lon="8.22313273632602"><ele>24.0</ele><time>2026-05-02T10:35:43Z</time></trkpt><trkpt lat="40.93398288397197" lon="8.22301597170764"><ele>24.0</ele><time>2026-05-02T10:35:44Z</time></trkpt><trkpt lat="40.93409704530574" lon="8.222930538658936"><ele>24.0</ele><time>2026-05-02T10:35:45Z</time></trkpt><trkpt lat="40.93425995351243" lon="8.22285293323755"><ele>24.0</ele><time>2026-05-02T10:35:46Z</time></trkpt><trkpt lat="40.93442419477652" lon="8.222767837728368"><ele>23.666666666666668</ele><time>2026-05-02T10:35:47Z</time></trkpt><trkpt lat="40.93457797864891" lon="8.222674536688926"><ele>23.333333333333336</ele><time>2026-05-02T10:35:48Z</time></trkpt><trkpt lat="40.934716785995235" lon="8.222580646053352"><ele>23.0</ele><time>2026-05-02T10:35:49Z</time></trkpt><trkpt lat="40.93485153916368" lon="8.222488125134136"><ele>23.0</ele><time>2026-05-02T10:35:50Z</time></trkpt><trkpt lat="40.935005861503726" lon="8.222387665412956"><ele>23.0</ele><time>2026-05-02T10:35:51Z</time></trkpt><trkpt lat="40.9351847385011" lon="8.222289922141526"><ele>23.0</ele><time>2026-05-02T10:35:52Z</time></trkpt><trkpt lat="40.935370570063235" lon="8.222199666972866"><ele>23.333333333333336</ele><time>2026-05-02T10:35:53Z</time></trkpt><trkpt lat="40.935561600599684" lon="8.222096186434438"><ele>23.666666666666668</ele><time>2026-05-02T10:35:54Z</time></trkpt><trkpt lat="40.93573488699012" lon="8.221996210495272"><ele>24.0</ele><time>2026-05-02T10:35:55Z</time></trkpt><trkpt lat="40.93591365774407" lon="8.22189772423759"><ele>22.333333333333332</ele><time>2026-05-02T10:35:56Z</time></trkpt><trkpt lat="40.93608926727161" lon="8.22179881669523"><ele>20.666666666666664</ele><time>2026-05-02T10:35:57Z</time></trkpt><trkpt lat="40.936278915004365" lon="8.221709598630381"><ele>19.0</ele><time>2026-05-02T10:35:58Z</time></trkpt><trkpt lat="40.93646120162676" lon="8.221652321759304"><ele>19.0</ele><time>2026-05-02T10:35:59Z</time></trkpt><trkpt lat="40.93664528182804" lon="8.221612009378939"><ele>19.0</ele><time>2026-05-02T10:36:00Z</time></trkpt><trkpt lat="40.93684674500196" lon="8.221586914754758"><ele>19.0</ele><time>2026-05-02T10:36:01Z</time></trkpt><trkpt lat="40.937050539923014" lon="8.221574523877534"><ele>19.333333333333332</ele><time>2026-05-02T10:36:02Z</time></trkpt><trkpt lat="40.93725855339557" lon="8.221577768358435"><ele>19.666666666666668</ele><time>2026-05-02T10:36:03Z</time></trkpt><trkpt lat="40.937465555635484" lon="8.221592626557007"><ele>20.0</ele><time>2026-05-02T10:36:04Z</time></trkpt><trkpt lat="40.93767404157123" lon="8.221625796566983"><ele>20.0</ele><time>2026-05-02T10:36:05Z</time></trkpt><trkpt lat="40.93787877994263" lon="8.221669908319535"><ele>20.0</ele><time>2026-05-02T10:36:06Z</time></trkpt><trkpt lat="40.93808156096645" lon="8.221735446090094"><ele>20.0</ele><time>2026-05-02T10:36:07Z</time></trkpt><trkpt lat="40.93829529416066" lon="8.221817010563997"><ele>21.0</ele><time>2026-05-02T10:36:08Z</time></trkpt><trkpt lat="40.938509191602336" lon="8.221905481580627"><ele>22.0</ele><time>2026-05-02T10:36:09Z</time></trkpt><trkpt lat="40.938731626242735" lon="8.221987612496088"><ele>22.0</ele><time>2026-05-02T10:36:10Z</time></trkpt><trkpt lat="40.93895241217289" lon="8.22206272140762"><ele>22.0</ele><time>2026-05-02T10:36:11Z</time></trkpt><trkpt lat="40.93915658793404" lon="8.222149724225686"><ele>22.0</ele><time>2026-05-02T10:36:12Z</time></trkpt><trkpt lat="40.93936124359364" lon="8.22223786175441"><ele>20.666666666666664</ele><time>2026-05-02T10:36:13Z</time></trkpt><trkpt lat="40.93957191318131" lon="8.222313790761238"><ele>19.333333333333332</ele><time>2026-05-02T10:36:14Z</time></trkpt><trkpt lat="40.9397815070479" lon="8.222390489747262"><ele>18.0</ele><time>2026-05-02T10:36:15Z</time></trkpt><trkpt lat="40.939980152727394" lon="8.222470103192933"><ele>19.0</ele><time>2026-05-02T10:36:16Z</time></trkpt><trkpt lat="40.940179105757906" lon="8.222555692386766"><ele>20.0</ele><time>2026-05-02T10:36:17Z</time></trkpt><trkpt lat="40.94037677689744" lon="8.22264194773638"><ele>21.0</ele><time>2026-05-02T10:36:18Z</time></trkpt><trkpt lat="40.94056946455394" lon="8.222738946522718"><ele>21.0</ele><time>2026-05-02T10:36:19Z</time></trkpt><trkpt lat="40.94075479270971" lon="8.222849809911898"><ele>21.0</ele><time>2026-05-02T10:36:20Z</time></trkpt><trkpt lat="40.940924033793245" lon="8.222980923521968"><ele>21.0</ele><time>2026-05-02T10:36:21Z</time></trkpt><trkpt lat="40.941085450911636" lon="8.223112882435359"><ele>21.0</ele><time>2026-05-02T10:36:22Z</time></trkpt><trkpt lat="40.94123761042726" lon="8.223245564880544"><ele>21.0</ele><time>2026-05-02T10:36:23Z</time></trkpt><trkpt lat="40.94139333236124" lon="8.223393089870173"><ele>21.0</ele><time>2026-05-02T10:36:24Z</time></trkpt><trkpt lat="40.94151375066708" lon="8.223540738447994"><ele>21.0</ele><time>2026-05-02T10:36:25Z</time></trkpt><trkpt lat="40.94161778633374" lon="8.223650133667048"><ele>21.0</ele><time>2026-05-02T10:36:26Z</time></trkpt><trkpt lat="40.94169593169253" lon="8.223725990678142"><ele>21.0</ele><time>2026-05-02T10:36:27Z</time></trkpt><trkpt lat="40.94176682900343" lon="8.223817691469153"><ele>21.0</ele><time>2026-05-02T10:36:28Z</time></trkpt><trkpt lat="40.94178527398525" lon="8.223929010612773"><ele>21.0</ele><time>2026-05-02T10:36:29Z</time></trkpt><trkpt lat="40.94178943232623" lon="8.224027275266806"><ele>21.5</ele><time>2026-05-02T10:36:30Z</time></trkpt><trkpt lat="40.94173503497471" lon="8.2241332041441"><ele>22.0</ele><time>2026-05-02T10:36:31Z</time></trkpt><trkpt lat="40.94174215396051" lon="8.2242263534683"><ele>22.5</ele><time>2026-05-02T10:36:32Z</time></trkpt><trkpt lat="40.94176237790313" lon="8.224307399855538"><ele>23.0</ele><time>2026-05-02T10:36:33Z</time></trkpt><trkpt lat="40.94180460846174" lon="8.22437513641649"><ele>23.5</ele><time>2026-05-02T10:36:34Z</time></trkpt><trkpt lat="40.94186780806589" lon="8.224421233448043"><ele>24.0</ele><time>2026-05-02T10:36:35Z</time></trkpt><trkpt lat="40.94195687075669" lon="8.224432183118678"><ele>24.0</ele><time>2026-05-02T10:36:36Z</time></trkpt><trkpt lat="40.94205211574649" lon="8.224409184718333"><ele>24.0</ele><time>2026-05-02T10:36:37Z</time></trkpt><trkpt lat="40.94219214478638" lon="8.224364859421446"><ele>24.0</ele><time>2026-05-02T10:36:38Z</time></trkpt><trkpt lat="40.942324117808326" lon="8.224367266707901"><ele>24.0</ele><time>2026-05-02T10:36:39Z</time></trkpt><trkpt lat="40.942431776024655" lon="8.224438940786458"><ele>24.0</ele><time>2026-05-02T10:36:40Z</time></trkpt><trkpt lat="40.94252942223765" lon="8.224543343378057"><ele>24.0</ele><time>2026-05-02T10:36:41Z</time></trkpt><trkpt lat="40.94262383834446" lon="8.224643908745009"><ele>24.0</ele><time>2026-05-02T10:36:42Z</time></trkpt><trkpt lat="40.94271691040314" lon="8.224742793967945"><ele>24.0</ele><time>2026-05-02T10:36:43Z</time></trkpt><trkpt lat="40.94281254788211" lon="8.22484647959997"><ele>25.5</ele><time>2026-05-02T10:36:44Z</time></trkpt><trkpt lat="40.942914832122796" lon="8.224946686688835"><ele>27.0</ele><time>2026-05-02T10:36:45Z</time></trkpt><trkpt lat="40.94302142645708" lon="8.225048774465881"><ele>28.5</ele><time>2026-05-02T10:36:46Z</time></trkpt><trkpt lat="40.94313076026458" lon="8.225160335081977"><ele>30.0</ele><time>2026-05-02T10:36:47Z</time></trkpt><trkpt lat="40.94324184002635" lon="8.225278589193868"><ele>30.0</ele><time>2026-05-02T10:36:47.999Z</time></trkpt><trkpt lat="40.94335397568344" lon="8.225387027824278"><ele>30.0</ele><time>2026-05-02T10:36:48.999Z</time></trkpt><trkpt lat="40.94344932433277" lon="8.225481301217838"><ele>30.0</ele><time>2026-05-02T10:36:49.999Z</time></trkpt><trkpt lat="40.943554112880825" lon="8.22558004077777"><ele>30.0</ele><time>2026-05-02T10:36:50.999Z</time></trkpt><trkpt lat="40.94365445898223" lon="8.225673137369444"><ele>31.0</ele><time>2026-05-02T10:36:51.999Z</time></trkpt><trkpt lat="40.94373335372833" lon="8.225787888005229"><ele>32.0</ele><time>2026-05-02T10:36:52.999Z</time></trkpt><trkpt lat="40.94379647460585" lon="8.225896002482946"><ele>33.0</ele><time>2026-05-02T10:36:53.999Z</time></trkpt><trkpt lat="40.9438691576529" lon="8.225944787910999"><ele>34.0</ele><time>2026-05-02T10:36:54.999Z</time></trkpt><trkpt lat="40.94397008437604" lon="8.225929237038073"><ele>35.0</ele><time>2026-05-02T10:36:55.999Z</time></trkpt><trkpt lat="40.944093858551774" lon="8.225876853184488"><ele>36.0</ele><time>2026-05-02T10:36:56.999Z</time></trkpt><trkpt lat="40.944269646644415" lon="8.225813729468625"><ele>37.0</ele><time>2026-05-02T10:36:57.999Z</time></trkpt><trkpt lat="40.94443314126313" lon="8.225783781983951"><ele>38.0</ele><time>2026-05-02T10:36:58.999Z</time></trkpt><trkpt lat="40.944596904318054" lon="8.225749167363084"><ele>38.0</ele><time>2026-05-02T10:36:59.999Z</time></trkpt><trkpt lat="40.944760463472605" lon="8.225710837446874"><ele>38.0</ele><time>2026-05-02T10:37:00.999Z</time></trkpt><trkpt lat="40.94492259001642" lon="8.22566589808673"><ele>38.0</ele><time>2026-05-02T10:37:01.999Z</time></trkpt><trkpt lat="40.94506881508753" lon="8.22562308939636"><ele>40.33333333333333</ele><time>2026-05-02T10:37:02.999Z</time></trkpt><trkpt lat="40.94521509319578" lon="8.225591536776376"><ele>42.666666666666664</ele><time>2026-05-02T10:37:03.999Z</time></trkpt><trkpt lat="40.94536797861245" lon="8.22556853236747"><ele>45.0</ele><time>2026-05-02T10:37:04.999Z</time></trkpt><trkpt lat="40.945514300445396" lon="8.225535903850453"><ele>45.0</ele><time>2026-05-02T10:37:05.999Z</time></trkpt><trkpt lat="40.94566278868221" lon="8.22549757638168"><ele>45.0</ele><time>2026-05-02T10:37:07Z</time></trkpt><trkpt lat="40.94581302849291" lon="8.225454842278968"><ele>45.0</ele><time>2026-05-02T10:37:08Z</time></trkpt><trkpt lat="40.94596282244371" lon="8.225408221622029"><ele>45.0</ele><time>2026-05-02T10:37:09Z</time></trkpt><trkpt lat="40.94611400658408" lon="8.22535568542299"><ele>45.0</ele><time>2026-05-02T10:37:10Z</time></trkpt><trkpt lat="40.946266969194525" lon="8.225292835681726"><ele>45.0</ele><time>2026-05-02T10:37:11Z</time></trkpt><trkpt lat="40.94642221078404" lon="8.225222107003018"><ele>45.0</ele><time>2026-05-02T10:37:12Z</time></trkpt><trkpt lat="40.94658107656468" lon="8.225155809899507"><ele>45.0</ele><time>2026-05-02T10:37:13Z</time></trkpt><trkpt lat="40.94673815712703" lon="8.225087146393179"><ele>45.0</ele><time>2026-05-02T10:37:14Z</time></trkpt><trkpt lat="40.94689503984974" lon="8.225015495462472"><ele>44.0</ele><time>2026-05-02T10:37:15Z</time></trkpt><trkpt lat="40.947060253587786" lon="8.224944719605958"><ele>43.0</ele><time>2026-05-02T10:37:16Z</time></trkpt><trkpt lat="40.94723368617278" lon="8.22486988519506"><ele>42.0</ele><time>2026-05-02T10:37:17Z</time></trkpt><trkpt lat="40.947409686486054" lon="8.224794539681675"><ele>39.333333333333336</ele><time>2026-05-02T10:37:18Z</time></trkpt><trkpt lat="40.94758329248762" lon="8.224715637984273"><ele>36.66666666666667</ele><time>2026-05-02T10:37:19Z</time></trkpt><trkpt lat="40.947761280892905" lon="8.224641759101766"><ele>34.0</ele><time>2026-05-02T10:37:20Z</time></trkpt><trkpt lat="40.94793952450544" lon="8.224566925073354"><ele>34.0</ele><time>2026-05-02T10:37:21Z</time></trkpt><trkpt lat="40.94810020039183" lon="8.22449512654931"><ele>34.0</ele><time>2026-05-02T10:37:22Z</time></trkpt><trkpt lat="40.94825243795107" lon="8.224427783796845"><ele>34.0</ele><time>2026-05-02T10:37:23Z</time></trkpt><trkpt lat="40.948378276450335" lon="8.224372470434703"><ele>33.333333333333336</ele><time>2026-05-02T10:37:24Z</time></trkpt><trkpt lat="40.948486695692374" lon="8.224332927821447"><ele>32.66666666666667</ele><time>2026-05-02T10:37:25Z</time></trkpt><trkpt lat="40.948561584447894" lon="8.2243042423716"><ele>32.0</ele><time>2026-05-02T10:37:26Z</time></trkpt><trkpt lat="40.94862698255523" lon="8.224273569671837"><ele>31.333333333333336</ele><time>2026-05-02T10:37:27Z</time></trkpt><trkpt lat="40.94869312989324" lon="8.224239989911107"><ele>30.666666666666668</ele><time>2026-05-02T10:37:28Z</time></trkpt><trkpt lat="40.9487510835337" lon="8.224205450662419"><ele>30.0</ele><time>2026-05-02T10:37:29Z</time></trkpt><trkpt lat="40.948814830620464" lon="8.22417566302813"><ele>30.0</ele><time>2026-05-02T10:37:30Z</time></trkpt><trkpt lat="40.948899806707786" lon="8.224138878175683"><ele>30.0</ele><time>2026-05-02T10:37:32Z</time></trkpt><trkpt lat="40.94901041235652" lon="8.224106679632527"><ele>30.0</ele><time>2026-05-02T10:37:34Z</time></trkpt><trkpt lat="40.94908307100631" lon="8.224084154143648"><ele>30.0</ele><time>2026-05-02T10:37:35Z</time></trkpt><trkpt lat="40.94917667211727" lon="8.224030224680861"><ele>30.0</ele><time>2026-05-02T10:37:36Z</time></trkpt><trkpt lat="40.94929925869018" lon="8.223981147210557"><ele>28.5</ele><time>2026-05-02T10:37:37Z</time></trkpt><trkpt lat="40.949423610608655" lon="8.223931761841644"><ele>27.0</ele><time>2026-05-02T10:37:38Z</time></trkpt><trkpt lat="40.949560574308826" lon="8.22387724186573"><ele>25.5</ele><time>2026-05-02T10:37:39Z</time></trkpt><trkpt lat="40.9497051711665" lon="8.22383490172933"><ele>24.0</ele><time>2026-05-02T10:37:40Z</time></trkpt><trkpt lat="40.94985556291272" lon="8.22381947613662"><ele>24.0</ele><time>2026-05-02T10:37:41Z</time></trkpt><trkpt lat="40.950006990709646" lon="8.223830673581977"><ele>24.0</ele><time>2026-05-02T10:37:42Z</time></trkpt><trkpt lat="40.950161153167365" lon="8.223849672840961"><ele>24.0</ele><time>2026-05-02T10:37:43Z</time></trkpt><trkpt lat="40.95031003545596" lon="8.22386499069943"><ele>24.5</ele><time>2026-05-02T10:37:44Z</time></trkpt><trkpt lat="40.95045331010075" lon="8.223880323521621"><ele>25.0</ele><time>2026-05-02T10:37:45Z</time></trkpt><trkpt lat="40.95056965344516" lon="8.22389169810137"><ele>25.5</ele><time>2026-05-02T10:37:46Z</time></trkpt><trkpt lat="40.95067113134812" lon="8.223901144180362"><ele>26.0</ele><time>2026-05-02T10:37:47Z</time></trkpt><trkpt lat="40.95078126706142" lon="8.223900655342101"><ele>25.5</ele><time>2026-05-02T10:37:48Z</time></trkpt><trkpt lat="40.9509011549183" lon="8.223900940062268"><ele>25.0</ele><time>2026-05-02T10:37:49Z</time></trkpt><trkpt lat="40.95102727202719" lon="8.223904273627857"><ele>24.5</ele><time>2026-05-02T10:37:50Z</time></trkpt><trkpt lat="40.9511603176116" lon="8.223895084670145"><ele>24.0</ele><time>2026-05-02T10:37:51Z</time></trkpt><trkpt lat="40.95128828942255" lon="8.223855332682522"><ele>24.0</ele><time>2026-05-02T10:37:52Z</time></trkpt><trkpt lat="40.951414753092564" lon="8.223780369805075"><ele>24.0</ele><time>2026-05-02T10:37:53Z</time></trkpt><trkpt lat="40.95151970356136" lon="8.223675743042673"><ele>24.0</ele><time>2026-05-02T10:37:54Z</time></trkpt><trkpt lat="40.95160579953431" lon="8.223539372424144"><ele>24.0</ele><time>2026-05-02T10:37:55Z</time></trkpt><trkpt lat="40.95168651641605" lon="8.223400465435077"><ele>22.5</ele><time>2026-05-02T10:37:56Z</time></trkpt><trkpt lat="40.95177027823957" lon="8.223266129646046"><ele>21.0</ele><time>2026-05-02T10:37:57Z</time></trkpt><trkpt lat="40.951863320917745" lon="8.223136435280507"><ele>19.5</ele><time>2026-05-02T10:37:58Z</time></trkpt><trkpt lat="40.95195001662777" lon="8.223005360383572"><ele>18.0</ele><time>2026-05-02T10:37:59Z</time></trkpt><trkpt lat="40.95203292031512" lon="8.2228837188923"><ele>18.0</ele><time>2026-05-02T10:38:00Z</time></trkpt><trkpt lat="40.95211262431769" lon="8.222761518803452"><ele>18.0</ele><time>2026-05-02T10:38:01Z</time></trkpt><trkpt lat="40.95218841218768" lon="8.222626705939575"><ele>18.0</ele><time>2026-05-02T10:38:02Z</time></trkpt><trkpt lat="40.95227028783118" lon="8.222523910022911"><ele>18.0</ele><time>2026-05-02T10:38:03Z</time></trkpt><trkpt lat="40.952368911467744" lon="8.222466651901412"><ele>18.0</ele><time>2026-05-02T10:38:04Z</time></trkpt><trkpt lat="40.952468482689454" lon="8.222437381519454"><ele>18.0</ele><time>2026-05-02T10:38:05Z</time></trkpt><trkpt lat="40.952572778705225" lon="8.222442534583587"><ele>18.0</ele><time>2026-05-02T10:38:06Z</time></trkpt><trkpt lat="40.952687251329785" lon="8.222458358377898"><ele>18.0</ele><time>2026-05-02T10:38:07Z</time></trkpt><trkpt lat="40.95279744726196" lon="8.222462864387873"><ele>18.0</ele><time>2026-05-02T10:38:08Z</time></trkpt><trkpt lat="40.952895497934335" lon="8.22249175808892"><ele>17.2</ele><time>2026-05-02T10:38:09Z</time></trkpt><trkpt lat="40.9529851480784" lon="8.222507669570927"><ele>16.4</ele><time>2026-05-02T10:38:10Z</time></trkpt><trkpt lat="40.953066215324" lon="8.222518877891249"><ele>15.599999999999998</ele><time>2026-05-02T10:38:11Z</time></trkpt><trkpt lat="40.95315205745322" lon="8.222528370160543"><ele>14.799999999999999</ele><time>2026-05-02T10:38:12Z</time></trkpt><trkpt lat="40.95324700531128" lon="8.222520804539622"><ele>14.0</ele><time>2026-05-02T10:38:13Z</time></trkpt><trkpt lat="40.953346703152995" lon="8.222491068224418"><ele>13.399999999999999</ele><time>2026-05-02T10:38:14Z</time></trkpt><trkpt lat="40.95344501762574" lon="8.222436292900504"><ele>12.799999999999999</ele><time>2026-05-02T10:38:15Z</time></trkpt><trkpt lat="40.95354370437155" lon="8.222360993728913"><ele>12.2</ele><time>2026-05-02T10:38:16Z</time></trkpt><trkpt lat="40.95362533227831" lon="8.222275366340398"><ele>11.600000000000001</ele><time>2026-05-02T10:38:17Z</time></trkpt><trkpt lat="40.95369933498524" lon="8.222191582399478"><ele>11.0</ele><time>2026-05-02T10:38:18Z</time></trkpt><trkpt lat="40.95377587599992" lon="8.222119666519434"><ele>11.0</ele><time>2026-05-02T10:38:19Z</time></trkpt><trkpt lat="40.95386181241081" lon="8.222050985527149"><ele>11.0</ele><time>2026-05-02T10:38:20Z</time></trkpt><trkpt lat="40.95396744072078" lon="8.221991422833781"><ele>11.0</ele><time>2026-05-02T10:38:21Z</time></trkpt><trkpt lat="40.95408061628622" lon="8.221952800704319"><ele>11.0</ele><time>2026-05-02T10:38:22Z</time></trkpt><trkpt lat="40.95419241490901" lon="8.221916686114126"><ele>11.0</ele><time>2026-05-02T10:38:23Z</time></trkpt><trkpt lat="40.95430326563255" lon="8.221872369213278"><ele>10.75</ele><time>2026-05-02T10:38:24Z</time></trkpt><trkpt lat="40.954425655084776" lon="8.221821450773485"><ele>10.5</ele><time>2026-05-02T10:38:25Z</time></trkpt><trkpt lat="40.95453506987031" lon="8.221779065205915"><ele>10.25</ele><time>2026-05-02T10:38:26Z</time></trkpt><trkpt lat="40.954638559641275" lon="8.221735033511278"><ele>10.0</ele><time>2026-05-02T10:38:27Z</time></trkpt><trkpt lat="40.95474092712197" lon="8.221695508149208"><ele>10.0</ele><time>2026-05-02T10:38:28Z</time></trkpt><trkpt lat="40.954847043610854" lon="8.221647686276254"><ele>10.0</ele><time>2026-05-02T10:38:29Z</time></trkpt><trkpt lat="40.95495411719667" lon="8.221599676560613"><ele>10.0</ele><time>2026-05-02T10:38:30Z</time></trkpt><trkpt lat="40.95506473453099" lon="8.221556911748744"><ele>10.0</ele><time>2026-05-02T10:38:31Z</time></trkpt><trkpt lat="40.95517761056123" lon="8.221513217459663"><ele>11.0</ele><time>2026-05-02T10:38:32Z</time></trkpt><trkpt lat="40.955290966336875" lon="8.22146507772399"><ele>12.0</ele><time>2026-05-02T10:38:33Z</time></trkpt><trkpt lat="40.95540314861923" lon="8.221416129037861"><ele>13.0</ele><time>2026-05-02T10:38:34Z</time></trkpt><trkpt lat="40.95551549914497" lon="8.221361174804885"><ele>14.0</ele><time>2026-05-02T10:38:35Z</time></trkpt><trkpt lat="40.95562617354531" lon="8.221283334252359"><ele>14.0</ele><time>2026-05-02T10:38:36Z</time></trkpt><trkpt lat="40.95571993025617" lon="8.221172288822673"><ele>14.0</ele><time>2026-05-02T10:38:37Z</time></trkpt><trkpt lat="40.95579896174019" lon="8.22103516508154"><ele>14.0</ele><time>2026-05-02T10:38:38Z</time></trkpt><trkpt lat="40.95588172679173" lon="8.220885728291499"><ele>14.0</ele><time>2026-05-02T10:38:39Z</time></trkpt><trkpt lat="40.95597310789777" lon="8.220754689221112"><ele>12.75</ele><time>2026-05-02T10:38:40Z</time></trkpt><trkpt lat="40.95606781360111" lon="8.220620037546205"><ele>11.5</ele><time>2026-05-02T10:38:41Z</time></trkpt><trkpt lat="40.956163981833484" lon="8.220477184551715"><ele>10.25</ele><time>2026-05-02T10:38:42Z</time></trkpt><trkpt lat="40.956260182875766" lon="8.220337917432827"><ele>9.0</ele><time>2026-05-02T10:38:43Z</time></trkpt><trkpt lat="40.95635786169167" lon="8.220200734685877"><ele>9.0</ele><time>2026-05-02T10:38:44Z</time></trkpt><trkpt lat="40.956445235680405" lon="8.2200720148357"><ele>9.0</ele><time>2026-05-02T10:38:45Z</time></trkpt><trkpt lat="40.95652689793964" lon="8.219952071980261"><ele>9.0</ele><time>2026-05-02T10:38:46Z</time></trkpt><trkpt lat="40.95659709248816" lon="8.219849647483258"><ele>9.0</ele><time>2026-05-02T10:38:47Z</time></trkpt><trkpt lat="40.956656748375266" lon="8.219759918314116"><ele>9.0</ele><time>2026-05-02T10:38:48Z</time></trkpt><trkpt lat="40.95670957720513" lon="8.21968426980761"><ele>8.4</ele><time>2026-05-02T10:38:49Z</time></trkpt><trkpt lat="40.95675870060748" lon="8.219607726103131"><ele>7.800000000000001</ele><time>2026-05-02T10:38:50Z</time></trkpt><trkpt lat="40.95680803350837" lon="8.219527998279721"><ele>7.199999999999999</ele><time>2026-05-02T10:38:50.999Z</time></trkpt><trkpt lat="40.956857060162065" lon="8.219441493541307"><ele>6.6</ele><time>2026-05-02T10:38:51.999Z</time></trkpt><trkpt lat="40.95691873539762" lon="8.219337816841936"><ele>6.0</ele><time>2026-05-02T10:38:52.999Z</time></trkpt><trkpt lat="40.95700154364369" lon="8.219230637851055"><ele>6.0</ele><time>2026-05-02T10:38:53.999Z</time></trkpt><trkpt lat="40.95707298845426" lon="8.219134042434764"><ele>6.0</ele><time>2026-05-02T10:38:54.999Z</time></trkpt><trkpt lat="40.9571396403342" lon="8.219051578588562"><ele>6.0</ele><time>2026-05-02T10:38:55.999Z</time></trkpt><trkpt lat="40.95719774362871" lon="8.218958479138317"><ele>6.0</ele><time>2026-05-02T10:38:56.999Z</time></trkpt><trkpt lat="40.9572685148055" lon="8.218852461721877"><ele>6.0</ele><time>2026-05-02T10:38:57.999Z</time></trkpt><trkpt lat="40.957343093303884" lon="8.218730828313031"><ele>6.75</ele><time>2026-05-02T10:38:58.999Z</time></trkpt><trkpt lat="40.95741637556721" lon="8.218588560890973"><ele>7.5</ele><time>2026-05-02T10:38:59.999Z</time></trkpt><trkpt lat="40.957481576431604" lon="8.218431697784668"><ele>8.25</ele><time>2026-05-02T10:39:00.999Z</time></trkpt><trkpt lat="40.95753677039541" lon="8.218263229822478"><ele>9.0</ele><time>2026-05-02T10:39:02Z</time></trkpt><trkpt lat="40.95758320050969" lon="8.218087199739982"><ele>6.666666666666667</ele><time>2026-05-02T10:39:03Z</time></trkpt><trkpt lat="40.95763584979703" lon="8.217904683584772"><ele>4.333333333333333</ele><time>2026-05-02T10:39:04Z</time></trkpt><trkpt lat="40.95771162482148" lon="8.217708797743734"><ele>2.0</ele><time>2026-05-02T10:39:05Z</time></trkpt><trkpt lat="40.9577845369281" lon="8.217476682486982"><ele>2.6666666666666665</ele><time>2026-05-02T10:39:06Z</time></trkpt><trkpt lat="40.95785671245379" lon="8.21722372232491"><ele>3.333333333333333</ele><time>2026-05-02T10:39:07Z</time></trkpt><trkpt lat="40.95794831280976" lon="8.216974936862888"><ele>4.0</ele><time>2026-05-02T10:39:08Z</time></trkpt><trkpt lat="40.95802854833305" lon="8.21671370532227"><ele>5.0</ele><time>2026-05-02T10:39:09Z</time></trkpt><trkpt lat="40.95810779120164" lon="8.216446013360802"><ele>6.0</ele><time>2026-05-02T10:39:10Z</time></trkpt><trkpt lat="40.95818535885806" lon="8.216183782873555"><ele>7.0</ele><time>2026-05-02T10:39:11Z</time></trkpt><trkpt lat="40.9582618697598" lon="8.21593740559938"><ele>7.0</ele><time>2026-05-02T10:39:12Z</time></trkpt><trkpt lat="40.9583368220854" lon="8.215697200129926"><ele>7.0</ele><time>2026-05-02T10:39:13Z</time></trkpt><trkpt lat="40.958407964898015" lon="8.215465616499726"><ele>7.0</ele><time>2026-05-02T10:39:14Z</time></trkpt><trkpt lat="40.95847691315572" lon="8.215236015767525"><ele>7.333333333333334</ele><time>2026-05-02T10:39:15Z</time></trkpt><trkpt lat="40.95854844584091" lon="8.215007287154224"><ele>7.666666666666666</ele><time>2026-05-02T10:39:16Z</time></trkpt><trkpt lat="40.958619279942525" lon="8.214784706952477"><ele>8.0</ele><time>2026-05-02T10:39:17Z</time></trkpt><trkpt lat="40.9586913189706" lon="8.214560031073749"><ele>8.0</ele><time>2026-05-02T10:39:18Z</time></trkpt><trkpt lat="40.95875705023201" lon="8.214345638781893"><ele>8.0</ele><time>2026-05-02T10:39:19Z</time></trkpt><trkpt lat="40.9588184240163" lon="8.214143712369598"><ele>8.0</ele><time>2026-05-02T10:39:20Z</time></trkpt><trkpt lat="40.9588913292644" lon="8.213967136356674"><ele>8.0</ele><time>2026-05-02T10:39:21Z</time></trkpt><trkpt lat="40.958938105517994" lon="8.213775964017858"><ele>8.0</ele><time>2026-05-02T10:39:22Z</time></trkpt><trkpt lat="40.959009599989834" lon="8.213604089821025"><ele>8.0</ele><time>2026-05-02T10:39:23Z</time></trkpt><trkpt lat="40.95908912275772" lon="8.21344274701566"><ele>8.0</ele><time>2026-05-02T10:39:24Z</time></trkpt><trkpt lat="40.959172665778105" lon="8.213310651540684"><ele>8.0</ele><time>2026-05-02T10:39:25Z</time></trkpt><trkpt lat="40.95924557087093" lon="8.213204220660977"><ele>8.0</ele><time>2026-05-02T10:39:26Z</time></trkpt><trkpt lat="40.95929264904687" lon="8.213135202587702"><ele>8.0</ele><time>2026-05-02T10:39:27Z</time></trkpt><trkpt lat="40.95935487448899" lon="8.213044919728873"><ele>8.0</ele><time>2026-05-02T10:39:29Z</time></trkpt><trkpt lat="40.95942934144448" lon="8.212911052759035"><ele>8.0</ele><time>2026-05-02T10:39:31Z</time></trkpt><trkpt lat="40.95950597067928" lon="8.212796444638974"><ele>7.999999999999999</ele><time>2026-05-02T10:39:33Z</time></trkpt><trkpt lat="40.95957232670114" lon="8.212692125614588"><ele>8.0</ele><time>2026-05-02T10:39:35Z</time></trkpt><trkpt lat="40.95961870580932" lon="8.212621454565596"><ele>8.0</ele><time>2026-05-02T10:39:36Z</time></trkpt><trkpt lat="40.959686172338884" lon="8.21252595256946"><ele>8.0</ele><time>2026-05-02T10:39:38Z</time></trkpt><trkpt lat="40.959733814551676" lon="8.212448985585148"><ele>7.999999999999999</ele><time>2026-05-02T10:39:41Z</time></trkpt><trkpt lat="40.95977848066331" lon="8.212377271139719"><ele>8.0</ele><time>2026-05-02T10:39:44Z</time></trkpt><trkpt lat="40.9598551578543" lon="8.212280779073023"><ele>8.200000000000001</ele><time>2026-05-02T10:39:46Z</time></trkpt><trkpt lat="40.959925533647635" lon="8.212205348100792"><ele>8.4</ele><time>2026-05-02T10:39:48Z</time></trkpt><trkpt lat="40.96001946638648" lon="8.21213689189538"><ele>8.600000000000001</ele><time>2026-05-02T10:39:50Z</time></trkpt><trkpt lat="40.96012672212265" lon="8.21209823999564"><ele>8.8</ele><time>2026-05-02T10:39:52Z</time></trkpt><trkpt lat="40.960207306008314" lon="8.212081719933025"><ele>9.0</ele><time>2026-05-02T10:39:54Z</time></trkpt><trkpt lat="40.960279455313156" lon="8.212072008733013"><ele>8.4</ele><time>2026-05-02T10:39:56Z</time></trkpt><trkpt lat="40.960372497845896" lon="8.212064802823821"><ele>7.800000000000001</ele><time>2026-05-02T10:39:58Z</time></trkpt><trkpt lat="40.960492045262946" lon="8.21205489847727"><ele>7.199999999999999</ele><time>2026-05-02T10:40:00Z</time></trkpt><trkpt lat="40.96060432936611" lon="8.212044723402093"><ele>6.6</ele><time>2026-05-02T10:40:02Z</time></trkpt><trkpt lat="40.96071916922322" lon="8.212038386944696"><ele>6.0</ele><time>2026-05-02T10:40:04Z</time></trkpt><trkpt lat="40.96078414315285" lon="8.212026771118001"><ele>6.0</ele><time>2026-05-02T10:40:05Z</time></trkpt><trkpt lat="40.960851480842514" lon="8.212021756467067"><ele>6.0</ele><time>2026-05-02T10:40:06Z</time></trkpt><trkpt lat="40.96095320196297" lon="8.212018747298055"><ele>6.0</ele><time>2026-05-02T10:40:08Z</time></trkpt><trkpt lat="40.961041083351844" lon="8.212008156263307"><ele>6.0</ele><time>2026-05-02T10:40:10Z</time></trkpt><trkpt lat="40.961122063653654" lon="8.21201097705397"><ele>6.0</ele><time>2026-05-02T10:40:12Z</time></trkpt><trkpt lat="40.96120995792441" lon="8.212002059486204"><ele>6.0</ele><time>2026-05-02T10:40:14Z</time></trkpt><trkpt lat="40.96131284547418" lon="8.211990721661731"><ele>6.0</ele><time>2026-05-02T10:40:16Z</time></trkpt><trkpt lat="40.96141894099186" lon="8.211989828937767"><ele>6.0</ele><time>2026-05-02T10:40:18Z</time></trkpt><trkpt lat="40.961527354841536" lon="8.211984088432185"><ele>6.0</ele><time>2026-05-02T10:40:20Z</time></trkpt><trkpt lat="40.96159286096038" lon="8.21197494919464"><ele>6.0</ele><time>2026-05-02T10:40:21Z</time></trkpt><trkpt lat="40.961663967679556" lon="8.211960318941664"><ele>6.0</ele><time>2026-05-02T10:40:22Z</time></trkpt><trkpt lat="40.961788199762054" lon="8.21195355166415"><ele>5.999999999999999</ele><time>2026-05-02T10:40:24Z</time></trkpt><trkpt lat="40.9618514595037" lon="8.211949688680932"><ele>6.0</ele><time>2026-05-02T10:40:25Z</time></trkpt><trkpt lat="40.961915149389526" lon="8.211942300873966"><ele>6.0</ele><time>2026-05-02T10:40:26Z</time></trkpt><trkpt lat="40.96198012370197" lon="8.211933611874201"><ele>6.0</ele><time>2026-05-02T10:40:27Z</time></trkpt><trkpt lat="40.96204462714353" lon="8.211930864414509"><ele>6.0</ele><time>2026-05-02T10:40:28Z</time></trkpt><trkpt lat="40.96213916588691" lon="8.211911523233365"><ele>5.999999999999999</ele><time>2026-05-02T10:40:30Z</time></trkpt><trkpt lat="40.96221429987049" lon="8.211890883058263"><ele>6.0</ele><time>2026-05-02T10:40:32Z</time></trkpt><trkpt lat="40.9623145692144" lon="8.211850251431002"><ele>6.0</ele><time>2026-05-02T10:40:34Z</time></trkpt><trkpt lat="40.96238272813719" lon="8.211819316168297"><ele>6.0</ele><time>2026-05-02T10:40:35Z</time></trkpt><trkpt lat="40.96245606915636" lon="8.211770185946222"><ele>6.0</ele><time>2026-05-02T10:40:36Z</time></trkpt><trkpt lat="40.96252978728801" lon="8.21172005242094"><ele>6.0</ele><time>2026-05-02T10:40:37Z</time></trkpt><trkpt lat="40.962587835387495" lon="8.211678010888741"><ele>6.0</ele><time>2026-05-02T10:40:38Z</time></trkpt><trkpt lat="40.96268730465138" lon="8.21160547883083"><ele>6.0</ele><time>2026-05-02T10:40:40Z</time></trkpt><trkpt lat="40.96276040465508" lon="8.211558247284534"><ele>6.4</ele><time>2026-05-02T10:40:42Z</time></trkpt><trkpt lat="40.96282564203673" lon="8.211519998462162"><ele>6.8</ele><time>2026-05-02T10:40:44Z</time></trkpt><trkpt lat="40.96290240249891" lon="8.21146281853331"><ele>7.200000000000001</ele><time>2026-05-02T10:40:46Z</time></trkpt><trkpt lat="40.96299916418534" lon="8.21139293444908"><ele>7.6000000000000005</ele><time>2026-05-02T10:40:48Z</time></trkpt><trkpt lat="40.96310170696686" lon="8.211303723139384"><ele>8.0</ele><time>2026-05-02T10:40:50Z</time></trkpt><trkpt lat="40.963154718189394" lon="8.211248875043173"><ele>7.999999999999999</ele><time>2026-05-02T10:40:51Z</time></trkpt><trkpt lat="40.9632128944603" lon="8.21118776470139"><ele>8.0</ele><time>2026-05-02T10:40:52Z</time></trkpt><trkpt lat="40.9632671165725" lon="8.21113139701431"><ele>8.0</ele><time>2026-05-02T10:40:53Z</time></trkpt><trkpt lat="40.96331778180745" lon="8.21107929965109"><ele>8.0</ele><time>2026-05-02T10:40:54Z</time></trkpt><trkpt lat="40.96340854308305" lon="8.21098827113227"><ele>7.999999999999999</ele><time>2026-05-02T10:40:56Z</time></trkpt><trkpt lat="40.96349010590163" lon="8.210904898537908"><ele>8.0</ele><time>2026-05-02T10:40:58Z</time></trkpt><trkpt lat="40.963572022433404" lon="8.210821381146681"><ele>8.200000000000001</ele><time>2026-05-02T10:41:00Z</time></trkpt><trkpt lat="40.96365230839759" lon="8.210739788412832"><ele>8.4</ele><time>2026-05-02T10:41:02Z</time></trkpt><trkpt lat="40.9637148116034" lon="8.21066857509191"><ele>8.600000000000001</ele><time>2026-05-02T10:41:04Z</time></trkpt><trkpt lat="40.96378542685401" lon="8.210593866440991"><ele>8.8</ele><time>2026-05-02T10:41:06Z</time></trkpt><trkpt lat="40.96386237000729" lon="8.210501616923846"><ele>9.0</ele><time>2026-05-02T10:41:08Z</time></trkpt><trkpt lat="40.9639238502343" lon="8.210418798530451"><ele>9.0</ele><time>2026-05-02T10:41:10Z</time></trkpt><trkpt lat="40.96398896869762" lon="8.210325712553345"><ele>9.0</ele><time>2026-05-02T10:41:12Z</time></trkpt><trkpt lat="40.96405983939222" lon="8.210222733376243"><ele>9.0</ele><time>2026-05-02T10:41:14Z</time></trkpt><trkpt lat="40.964102901885475" lon="8.210158037610256"><ele>9.0</ele><time>2026-05-02T10:41:16Z</time></trkpt><trkpt lat="40.964144658362294" lon="8.210091952799623"><ele>9.0</ele><time>2026-05-02T10:41:18Z</time></trkpt><trkpt lat="40.96420698703693" lon="8.210003487673587"><ele>9.0</ele><time>2026-05-02T10:41:21Z</time></trkpt><trkpt lat="40.96423916369086" lon="8.20993116338349"><ele>9.000000000000002</ele><time>2026-05-02T10:41:23Z</time></trkpt><trkpt lat="40.96427134406989" lon="8.209853731976468"><ele>9.0</ele><time>2026-05-02T10:41:39Z</time></trkpt><trkpt lat="40.96430820648905" lon="8.209776653698999"><ele>9.0</ele><time>2026-05-02T10:52:52Z</time></trkpt><trkpt lat="40.96436971410832" lon="8.209716133020184"><ele>9.0</ele><time>2026-05-02T10:52:55Z</time></trkpt><trkpt lat="40.964416857046196" lon="8.209658836256057"><ele>9.0</ele><time>2026-05-02T10:52:57Z</time></trkpt><trkpt lat="40.964464710857754" lon="8.209599371655507"><ele>9.000000000000002</ele><time>2026-05-02T10:52:59Z</time></trkpt><trkpt lat="40.96453334622976" lon="8.209498593120477"><ele>9.0</ele><time>2026-05-02T10:53:02Z</time></trkpt><trkpt lat="40.96458780839715" lon="8.20942739388126"><ele>9.0</ele><time>2026-05-02T10:53:04Z</time></trkpt><trkpt lat="40.96466323776866" lon="8.209351052682775"><ele>9.0</ele><time>2026-05-02T10:53:07Z</time></trkpt><trkpt lat="40.96472969628667" lon="8.209310415575864"><ele>9.0</ele><time>2026-05-02T10:53:09Z</time></trkpt><trkpt lat="40.96479409040753" lon="8.209281201166744"><ele>9.0</ele><time>2026-05-02T10:53:11Z</time></trkpt><trkpt lat="40.964853241968186" lon="8.20924687568227"><ele>9.0</ele><time>2026-05-02T10:53:14Z</time></trkpt><trkpt lat="40.96492708749484" lon="8.209203116566897"><ele>9.0</ele><time>2026-05-02T10:53:20Z</time></trkpt><trkpt lat="40.965001535284856" lon="8.209154305056767"><ele>9.166666666666666</ele><time>2026-05-02T10:53:22Z</time></trkpt><trkpt lat="40.96508313923614" lon="8.209101228819188"><ele>9.333333333333334</ele><time>2026-05-02T10:53:24Z</time></trkpt><trkpt lat="40.9651564381754" lon="8.209058460326293"><ele>9.5</ele><time>2026-05-02T10:53:26Z</time></trkpt><trkpt lat="40.96524150236766" lon="8.209004605730547"><ele>9.666666666666668</ele><time>2026-05-02T10:53:28Z</time></trkpt><trkpt lat="40.96530482404523" lon="8.208958520068176"><ele>9.833333333333334</ele><time>2026-05-02T10:53:29Z</time></trkpt><trkpt lat="40.965374942916206" lon="8.20889981321814"><ele>10.0</ele><time>2026-05-02T10:53:30Z</time></trkpt><trkpt lat="40.96545397289696" lon="8.208801050651488"><ele>10.0</ele><time>2026-05-02T10:53:31Z</time></trkpt><trkpt lat="40.965547329634276" lon="8.208693551687663"><ele>10.0</ele><time>2026-05-02T10:53:32Z</time></trkpt><trkpt lat="40.96564066833426" lon="8.208598168579433"><ele>10.0</ele><time>2026-05-02T10:53:32.999Z</time></trkpt><trkpt lat="40.96572776300973" lon="8.208521610551504"><ele>10.0</ele><time>2026-05-02T10:53:33.999Z</time></trkpt><trkpt lat="40.96580381531163" lon="8.208442187746266"><ele>10.0</ele><time>2026-05-02T10:53:34.999Z</time></trkpt><trkpt lat="40.96587139161869" lon="8.208363248112923"><ele>10.285714285714285</ele><time>2026-05-02T10:53:35.999Z</time></trkpt><trkpt lat="40.96593783429689" lon="8.208292929883319"><ele>10.571428571428571</ele><time>2026-05-02T10:53:36.999Z</time></trkpt><trkpt lat="40.96599409940384" lon="8.208241284333935"><ele>10.857142857142858</ele><time>2026-05-02T10:53:37.999Z</time></trkpt><trkpt lat="40.966065949939605" lon="8.208171309426055"><ele>11.142857142857142</ele><time>2026-05-02T10:53:39.999Z</time></trkpt><trkpt lat="40.966116678379" lon="8.208116942011435"><ele>11.428571428571429</ele><time>2026-05-02T10:53:41.999Z</time></trkpt><trkpt lat="40.96616574035717" lon="8.208059667098297"><ele>11.714285714285714</ele><time>2026-05-02T10:53:43.999Z</time></trkpt><trkpt lat="40.966216220470564" lon="8.208005139490094"><ele>12.0</ele><time>2026-05-02T10:53:45.999Z</time></trkpt><trkpt lat="40.96627747452539" lon="8.207945852567471"><ele>11.999999999999998</ele><time>2026-05-02T10:53:47.999Z</time></trkpt><trkpt lat="40.96633746481365" lon="8.207883822775672"><ele>12.0</ele><time>2026-05-02T10:53:49.999Z</time></trkpt><trkpt lat="40.9663849597444" lon="8.207826881101834"><ele>12.0</ele><time>2026-05-02T10:54:02.999Z</time></trkpt><trkpt lat="40.966442908769345" lon="8.20775770572818"><ele>12.0</ele><time>2026-05-02T10:54:05.999Z</time></trkpt><trkpt lat="40.96649745558728" lon="8.207701599149015"><ele>12.0</ele><time>2026-05-02T10:54:07.999Z</time></trkpt><trkpt lat="40.96656350925404" lon="8.207636586918861"><ele>11.999999999999998</ele><time>2026-05-02T10:54:11Z</time></trkpt><trkpt lat="40.96661439429856" lon="8.20757587895948"><ele>12.0</ele><time>2026-05-02T10:54:14Z</time></trkpt><trkpt lat="40.96667518392299" lon="8.207507882553964"><ele>11.833333333333334</ele><time>2026-05-02T10:54:17Z</time></trkpt><trkpt lat="40.96672697314644" lon="8.20745583703135"><ele>11.666666666666666</ele><time>2026-05-02T10:54:19Z</time></trkpt><trkpt lat="40.966810178515864" lon="8.207382952569947"><ele>11.5</ele><time>2026-05-02T10:54:21Z</time></trkpt><trkpt lat="40.966865554593035" lon="8.207337753786499"><ele>11.333333333333332</ele><time>2026-05-02T10:54:22Z</time></trkpt><trkpt lat="40.96691888072388" lon="8.207292332853134"><ele>11.166666666666666</ele><time>2026-05-02T10:54:23Z</time></trkpt><trkpt lat="40.96701026310274" lon="8.207192544452704"><ele>11.0</ele><time>2026-05-02T10:54:25Z</time></trkpt><trkpt lat="40.96706216648849" lon="8.207133610720414"><ele>11.0</ele><time>2026-05-02T10:54:26Z</time></trkpt><trkpt lat="40.967121771587045" lon="8.207082695530037"><ele>11.0</ele><time>2026-05-02T10:54:27Z</time></trkpt><trkpt lat="40.96718032260637" lon="8.207037099382164"><ele>11.0</ele><time>2026-05-02T10:54:28Z</time></trkpt><trkpt lat="40.9672355052635" lon="8.206993485466445"><ele>11.0</ele><time>2026-05-02T10:54:29Z</time></trkpt><trkpt lat="40.96733057432474" lon="8.206925567041132"><ele>11.0</ele><time>2026-05-02T10:54:31Z</time></trkpt><trkpt lat="40.967404547789556" lon="8.206869170391546"><ele>11.0</ele><time>2026-05-02T10:54:33Z</time></trkpt><trkpt lat="40.96747150355086" lon="8.206823000342863"><ele>11.5</ele><time>2026-05-02T10:54:35Z</time></trkpt><trkpt lat="40.96753858157202" lon="8.206778401872084"><ele>12.0</ele><time>2026-05-02T10:54:37Z</time></trkpt><trkpt lat="40.96760126386686" lon="8.206731725514642"><ele>12.5</ele><time>2026-05-02T10:54:39Z</time></trkpt><trkpt lat="40.96768317179179" lon="8.206665314520942"><ele>13.0</ele><time>2026-05-02T10:54:42Z</time></trkpt><trkpt lat="40.96775635384627" lon="8.206602315656555"><ele>13.500000000000002</ele><time>2026-05-02T10:54:45Z</time></trkpt><trkpt lat="40.96781504117031" lon="8.206552647063267"><ele>14.0</ele><time>2026-05-02T10:54:47Z</time></trkpt><trkpt lat="40.967884696780104" lon="8.206478556386143"><ele>14.000000000000002</ele><time>2026-05-02T10:54:49Z</time></trkpt><trkpt lat="40.96795334102609" lon="8.206411974798739"><ele>14.0</ele><time>2026-05-02T10:54:51Z</time></trkpt><trkpt lat="40.96801373626311" lon="8.206382987989576"><ele>14.0</ele><time>2026-05-02T10:54:53Z</time></trkpt><trkpt lat="40.96807589717736" lon="8.206344927757373"><ele>14.0</ele><time>2026-05-02T10:54:55Z</time></trkpt><trkpt lat="40.96815801032636" lon="8.206290728234906"><ele>14.000000000000002</ele><time>2026-05-02T10:54:58Z</time></trkpt><trkpt lat="40.968218558309104" lon="8.206265475561079"><ele>14.0</ele><time>2026-05-02T10:55:01Z</time></trkpt><trkpt lat="40.9682937925108" lon="8.206218568804744"><ele>14.000000000000002</ele><time>2026-05-02T10:55:04Z</time></trkpt><trkpt lat="40.96835433070987" lon="8.206188067912803"><ele>14.0</ele><time>2026-05-02T10:55:08Z</time></trkpt><trkpt lat="40.96842728487548" lon="8.20617472848944"><ele>14.0</ele><time>2026-05-02T10:55:10Z</time></trkpt><trkpt lat="40.96851604934439" lon="8.206099606974023"><ele>14.0</ele><time>2026-05-02T10:55:12Z</time></trkpt><trkpt lat="40.96858354479648" lon="8.206058580751366"><ele>14.000000000000002</ele><time>2026-05-02T10:55:14Z</time></trkpt><trkpt lat="40.9686373671983" lon="8.20600549844469"><ele>14.0</ele><time>2026-05-02T10:55:16Z</time></trkpt><trkpt lat="40.968712820056545" lon="8.205882301297587"><ele>14.285714285714285</ele><time>2026-05-02T10:55:18Z</time></trkpt><trkpt lat="40.968755321555754" lon="8.205818178178545"><ele>14.571428571428571</ele><time>2026-05-02T10:55:19Z</time></trkpt><trkpt lat="40.96878988731819" lon="8.205742035962892"><ele>14.857142857142858</ele><time>2026-05-02T10:55:20Z</time></trkpt><trkpt lat="40.96881743628776" lon="8.205664396692532"><ele>15.142857142857142</ele><time>2026-05-02T10:55:21Z</time></trkpt><trkpt lat="40.968836587356144" lon="8.205583133460042"><ele>15.428571428571427</ele><time>2026-05-02T10:55:22Z</time></trkpt><trkpt lat="40.96886832423595" lon="8.205437161216976"><ele>15.714285714285714</ele><time>2026-05-02T10:55:24Z</time></trkpt><trkpt lat="40.968882835852995" lon="8.205353342571696"><ele>16.0</ele><time>2026-05-02T10:55:26Z</time></trkpt><trkpt lat="40.96889853520487" lon="8.205257435650857"><ele>15.999999999999998</ele><time>2026-05-02T10:55:28Z</time></trkpt><trkpt lat="40.96891813865493" lon="8.205145256971457"><ele>16.0</ele><time>2026-05-02T10:55:30Z</time></trkpt><trkpt lat="40.96892901852718" lon="8.205053363487439"><ele>16.0</ele><time>2026-05-02T10:55:31Z</time></trkpt><trkpt lat="40.968937093966595" lon="8.204948819272916"><ele>16.0</ele><time>2026-05-02T10:55:33Z</time></trkpt><trkpt lat="40.96893148746486" lon="8.204828867007944"><ele>15.999999999999998</ele><time>2026-05-02T10:55:35Z</time></trkpt><trkpt lat="40.968891752083174" lon="8.204717878616197"><ele>16.0</ele><time>2026-05-02T10:55:37Z</time></trkpt><trkpt lat="40.96881871173826" lon="8.204651558982667"><ele>18.333333333333332</ele><time>2026-05-02T10:55:38.998Z</time></trkpt><trkpt lat="40.968728209304466" lon="8.204608075217816"><ele>20.666666666666664</ele><time>2026-05-02T10:55:40.998Z</time></trkpt><trkpt lat="40.96865089673817" lon="8.204575165807714"><ele>23.0</ele><time>2026-05-02T10:55:42.998Z</time></trkpt><trkpt lat="40.96857580356248" lon="8.204576514654347"><ele>25.333333333333332</ele><time>2026-05-02T10:55:44.999Z</time></trkpt><trkpt lat="40.96849581729779" lon="8.20455715553552"><ele>27.666666666666668</ele><time>2026-05-02T10:55:46.999Z</time></trkpt><trkpt lat="40.96841908669694" lon="8.204540598077205"><ele>30.0</ele><time>2026-05-02T10:55:48.999Z</time></trkpt><trkpt lat="40.968356641660684" lon="8.204498514722738"><ele>30.0</ele><time>2026-05-02T10:55:50.999Z</time></trkpt><trkpt lat="40.96832465536292" lon="8.204406898662167"><ele>30.0</ele><time>2026-05-02T10:55:52.999Z</time></trkpt><trkpt lat="40.96830547950191" lon="8.20431334087821"><ele>30.0</ele><time>2026-05-02T10:55:54.999Z</time></trkpt><trkpt lat="40.96834402118279" lon="8.204227971961535"><ele>30.0</ele><time>2026-05-02T10:55:56.999Z</time></trkpt><trkpt lat="40.96838299159886" lon="8.204147060356231"><ele>30.0</ele><time>2026-05-02T10:55:58.999Z</time></trkpt><trkpt lat="40.968366425872" lon="8.20404256550702"><ele>30.0</ele><time>2026-05-02T10:56:00.999Z</time></trkpt><trkpt lat="40.96828978134204" lon="8.203981303425207"><ele>34.8</ele><time>2026-05-02T10:56:02.999Z</time></trkpt><trkpt lat="40.96820741622929" lon="8.203961939698251"><ele>39.6</ele><time>2026-05-02T10:56:04.999Z</time></trkpt><trkpt lat="40.9680953884346" lon="8.203907657073348"><ele>44.400000000000006</ele><time>2026-05-02T10:56:06.999Z</time></trkpt><trkpt lat="40.96800915847881" lon="8.203844976953565"><ele>49.2</ele><time>2026-05-02T10:56:08.999Z</time></trkpt><trkpt lat="40.96794155821933" lon="8.203770683119252"><ele>54.0</ele><time>2026-05-02T10:56:10.999Z</time></trkpt><trkpt lat="40.9678516979101" lon="8.203701511312506"><ele>54.0</ele><time>2026-05-02T10:56:12.999Z</time></trkpt><trkpt lat="40.96775497375854" lon="8.20364528232966"><ele>54.00000000000001</ele><time>2026-05-02T10:56:14.999Z</time></trkpt><trkpt lat="40.96763193656734" lon="8.203612357799896"><ele>54.00000000000001</ele><time>2026-05-02T10:56:16.999Z</time></trkpt><trkpt lat="40.96752258875119" lon="8.203647956505508"><ele>54.0</ele><time>2026-05-02T10:56:18.999Z</time></trkpt><trkpt lat="40.96743863206854" lon="8.203684435955411"><ele>54.0</ele><time>2026-05-02T10:56:21Z</time></trkpt><trkpt lat="40.96735754448701" lon="8.203707921740643"><ele>52.5</ele><time>2026-05-02T10:56:23Z</time></trkpt><trkpt lat="40.96729722433398" lon="8.20377583424193"><ele>51.0</ele><time>2026-05-02T10:56:25Z</time></trkpt><trkpt lat="40.967226887267245" lon="8.203883613326052"><ele>49.5</ele><time>2026-05-02T10:56:27Z</time></trkpt><trkpt lat="40.967148518285775" lon="8.203995951338648"><ele>48.0</ele><time>2026-05-02T10:56:29Z</time></trkpt><trkpt lat="40.96710374020086" lon="8.204056898218337"><ele>46.5</ele><time>2026-05-02T10:56:30Z</time></trkpt><trkpt lat="40.96705669017057" lon="8.204118671214642"><ele>45.0</ele><time>2026-05-02T10:56:31Z</time></trkpt><trkpt lat="40.967007030390036" lon="8.204189414874023"><ele>44.0</ele><time>2026-05-02T10:56:32Z</time></trkpt><trkpt lat="40.96696253138067" lon="8.204254043975803"><ele>43.0</ele><time>2026-05-02T10:56:33Z</time></trkpt><trkpt lat="40.96692098738405" lon="8.204317099338029"><ele>42.0</ele><time>2026-05-02T10:56:34Z</time></trkpt><trkpt lat="40.966837538405734" lon="8.204434358336286"><ele>41.0</ele><time>2026-05-02T10:56:36Z</time></trkpt><trkpt lat="40.966775332266394" lon="8.204534749461843"><ele>40.0</ele><time>2026-05-02T10:56:38Z</time></trkpt><trkpt lat="40.966755020844026" lon="8.204661217081533"><ele>39.0</ele><time>2026-05-02T10:56:40Z</time></trkpt><trkpt lat="40.96674545188431" lon="8.204793828106277"><ele>38.0</ele><time>2026-05-02T10:56:42Z</time></trkpt><trkpt lat="40.96671547829044" lon="8.204934598026854"><ele>37.0</ele><time>2026-05-02T10:56:44Z</time></trkpt><trkpt lat="40.966647094802035" lon="8.205032198157873"><ele>36.0</ele><time>2026-05-02T10:56:46Z</time></trkpt><trkpt lat="40.96652620271024" lon="8.205062919492146"><ele>35.0</ele><time>2026-05-02T10:56:48Z</time></trkpt><trkpt lat="40.96646230343304" lon="8.205055022428223"><ele>34.0</ele><time>2026-05-02T10:56:49Z</time></trkpt><trkpt lat="40.96633575605713" lon="8.20503038435953"><ele>34.0</ele><time>2026-05-02T10:56:51Z</time></trkpt><trkpt lat="40.96626684966844" lon="8.20501418790319"><ele>34.0</ele><time>2026-05-02T10:56:52Z</time></trkpt><trkpt lat="40.96619138055762" lon="8.204996337285303"><ele>34.0</ele><time>2026-05-02T10:56:53Z</time></trkpt><trkpt lat="40.96610237204594" lon="8.204995825838648"><ele>34.0</ele><time>2026-05-02T10:56:54Z</time></trkpt><trkpt lat="40.966011849269925" lon="8.204968636308966"><ele>34.0</ele><time>2026-05-02T10:56:55Z</time></trkpt><trkpt lat="40.96591444867776" lon="8.204946606385988"><ele>34.0</ele><time>2026-05-02T10:56:56Z</time></trkpt><trkpt lat="40.96580777576881" lon="8.204919568473857"><ele>33.0</ele><time>2026-05-02T10:56:57Z</time></trkpt><trkpt lat="40.96569737999988" lon="8.204903632680477"><ele>32.0</ele><time>2026-05-02T10:56:58Z</time></trkpt><trkpt lat="40.96558173521108" lon="8.204898477878158"><ele>31.0</ele><time>2026-05-02T10:56:59Z</time></trkpt><trkpt lat="40.96546299210214" lon="8.204871166437703"><ele>30.0</ele><time>2026-05-02T10:57:00Z</time></trkpt><trkpt lat="40.96534203340567" lon="8.204887599859296"><ele>30.0</ele><time>2026-05-02T10:57:01Z</time></trkpt><trkpt lat="40.96522257916915" lon="8.204892897537533"><ele>30.0</ele><time>2026-05-02T10:57:02Z</time></trkpt><trkpt lat="40.96509860148084" lon="8.20492115970325"><ele>30.0</ele><time>2026-05-02T10:57:03Z</time></trkpt><trkpt lat="40.96497598211251" lon="8.204963526603976"><ele>30.0</ele><time>2026-05-02T10:57:04Z</time></trkpt><trkpt lat="40.96485322621852" lon="8.20501484815668"><ele>29.25</ele><time>2026-05-02T10:57:05Z</time></trkpt><trkpt lat="40.96472436983094" lon="8.205062250952064"><ele>28.5</ele><time>2026-05-02T10:57:06Z</time></trkpt><trkpt lat="40.96459977689951" lon="8.205114269498239"><ele>27.75</ele><time>2026-05-02T10:57:07Z</time></trkpt><trkpt lat="40.96447451091972" lon="8.205168524930789"><ele>27.0</ele><time>2026-05-02T10:57:08Z</time></trkpt><trkpt lat="40.9643510862561" lon="8.205229171247566"><ele>27.0</ele><time>2026-05-02T10:57:09Z</time></trkpt><trkpt lat="40.964234141074954" lon="8.2053108624043"><ele>27.0</ele><time>2026-05-02T10:57:10Z</time></trkpt><trkpt lat="40.964125250682756" lon="8.205395686180408"><ele>27.0</ele><time>2026-05-02T10:57:11Z</time></trkpt><trkpt lat="40.96401919003188" lon="8.205485272835123"><ele>27.0</ele><time>2026-05-02T10:57:12Z</time></trkpt><trkpt lat="40.96391525351847" lon="8.205570587944885"><ele>26.200000000000003</ele><time>2026-05-02T10:57:13Z</time></trkpt><trkpt lat="40.96381562240416" lon="8.2056509469281"><ele>25.400000000000002</ele><time>2026-05-02T10:57:14Z</time></trkpt><trkpt lat="40.96371628232588" lon="8.20572239783053"><ele>24.6</ele><time>2026-05-02T10:57:15Z</time></trkpt><trkpt lat="40.96362095125022" lon="8.205788931566303"><ele>23.799999999999997</ele><time>2026-05-02T10:57:16Z</time></trkpt><trkpt lat="40.96352382754215" lon="8.205852104611829"><ele>23.0</ele><time>2026-05-02T10:57:17Z</time></trkpt><trkpt lat="40.96342804808381" lon="8.205911495530053"><ele>22.25</ele><time>2026-05-02T10:57:18Z</time></trkpt><trkpt lat="40.96332745471555" lon="8.205964405540985"><ele>21.5</ele><time>2026-05-02T10:57:19Z</time></trkpt><trkpt lat="40.96322217312242" lon="8.206041855251256"><ele>20.75</ele><time>2026-05-02T10:57:20Z</time></trkpt><trkpt lat="40.96311471129491" lon="8.206125424696548"><ele>20.0</ele><time>2026-05-02T10:57:21Z</time></trkpt><trkpt lat="40.96300370495459" lon="8.20623577655311"><ele>20.0</ele><time>2026-05-02T10:57:22Z</time></trkpt><trkpt lat="40.9628872816852" lon="8.206363248474927"><ele>20.0</ele><time>2026-05-02T10:57:23Z</time></trkpt><trkpt lat="40.96277347053894" lon="8.206504990797"><ele>20.0</ele><time>2026-05-02T10:57:24Z</time></trkpt><trkpt lat="40.96263349532348" lon="8.206639365571318"><ele>18.333333333333336</ele><time>2026-05-02T10:57:25Z</time></trkpt><trkpt lat="40.962501587271205" lon="8.20678891830737"><ele>16.666666666666668</ele><time>2026-05-02T10:57:26Z</time></trkpt><trkpt lat="40.962370241398304" lon="8.206962369752864"><ele>15.0</ele><time>2026-05-02T10:57:27Z</time></trkpt><trkpt lat="40.96222989185839" lon="8.20711882689694"><ele>15.0</ele><time>2026-05-02T10:57:28Z</time></trkpt><trkpt lat="40.962094388543555" lon="8.207264287412086"><ele>15.0</ele><time>2026-05-02T10:57:29Z</time></trkpt><trkpt lat="40.961954506291136" lon="8.207415703612497"><ele>15.0</ele><time>2026-05-02T10:57:30Z</time></trkpt><trkpt lat="40.96181545559354" lon="8.207565336395618"><ele>13.666666666666666</ele><time>2026-05-02T10:57:31Z</time></trkpt><trkpt lat="40.961684561500455" lon="8.207707217414043"><ele>12.333333333333332</ele><time>2026-05-02T10:57:32Z</time></trkpt><trkpt lat="40.96156606024339" lon="8.20784166117639"><ele>11.0</ele><time>2026-05-02T10:57:33Z</time></trkpt><trkpt lat="40.961458336531635" lon="8.207966192977123"><ele>11.0</ele><time>2026-05-02T10:57:34Z</time></trkpt><trkpt lat="40.96135166798304" lon="8.208086224459239"><ele>11.0</ele><time>2026-05-02T10:57:35Z</time></trkpt><trkpt lat="40.96124666376715" lon="8.208205962970924"><ele>11.0</ele><time>2026-05-02T10:57:36Z</time></trkpt><trkpt lat="40.96114531881705" lon="8.208319413943702"><ele>11.0</ele><time>2026-05-02T10:57:37Z</time></trkpt><trkpt lat="40.961046695734524" lon="8.20843710338893"><ele>11.25</ele><time>2026-05-02T10:57:38Z</time></trkpt><trkpt lat="40.960948596779104" lon="8.208538627572402"><ele>11.5</ele><time>2026-05-02T10:57:39Z</time></trkpt><trkpt lat="40.96085040083391" lon="8.208643502323456"><ele>11.75</ele><time>2026-05-02T10:57:40Z</time></trkpt><trkpt lat="40.96074498422821" lon="8.208751843324734"><ele>12.0</ele><time>2026-05-02T10:57:41Z</time></trkpt><trkpt lat="40.9606332960046" lon="8.208855550547794"><ele>11.25</ele><time>2026-05-02T10:57:42Z</time></trkpt><trkpt lat="40.96051176805529" lon="8.208937966454611"><ele>10.5</ele><time>2026-05-02T10:57:43Z</time></trkpt><trkpt lat="40.960417847431565" lon="8.209031082146913"><ele>9.75</ele><time>2026-05-02T10:57:44Z</time></trkpt><trkpt lat="40.96030868239172" lon="8.20914020287692"><ele>9.0</ele><time>2026-05-02T10:57:44.999Z</time></trkpt><trkpt lat="40.960189089449095" lon="8.209213642685832"><ele>9.0</ele><time>2026-05-02T10:57:45.999Z</time></trkpt><trkpt lat="40.9600885145686" lon="8.209294186755814"><ele>9.0</ele><time>2026-05-02T10:57:46.999Z</time></trkpt><trkpt lat="40.9599919899938" lon="8.209371487198391"><ele>9.0</ele><time>2026-05-02T10:57:47.999Z</time></trkpt><trkpt lat="40.959892521836466" lon="8.209453504120942"><ele>9.0</ele><time>2026-05-02T10:57:48.999Z</time></trkpt><trkpt lat="40.959818106947196" lon="8.209553506061901"><ele>9.0</ele><time>2026-05-02T10:57:49.999Z</time></trkpt><trkpt lat="40.95975625984887" lon="8.209638702555926"><ele>9.0</ele><time>2026-05-02T10:57:50.999Z</time></trkpt><trkpt lat="40.95968480354229" lon="8.209763695531114"><ele>9.0</ele><time>2026-05-02T10:57:52.999Z</time></trkpt><trkpt lat="40.959636583096504" lon="8.209839308852171"><ele>9.0</ele><time>2026-05-02T10:57:53.999Z</time></trkpt><trkpt lat="40.95960932340599" lon="8.20994850420842"><ele>9.0</ele><time>2026-05-02T10:57:54.999Z</time></trkpt><trkpt lat="40.95958881214418" lon="8.210089706183389"><ele>8.8</ele><time>2026-05-02T10:57:55.999Z</time></trkpt><trkpt lat="40.959579474970525" lon="8.21021765868365"><ele>8.600000000000001</ele><time>2026-05-02T10:57:56.999Z</time></trkpt><trkpt lat="40.95956984026918" lon="8.210351092908947"><ele>8.4</ele><time>2026-05-02T10:57:57.999Z</time></trkpt><trkpt lat="40.959558866203814" lon="8.210502624062268"><ele>8.200000000000001</ele><time>2026-05-02T10:57:58.999Z</time></trkpt><trkpt lat="40.95954556530697" lon="8.21068063214661"><ele>8.0</ele><time>2026-05-02T10:57:59.999Z</time></trkpt><trkpt lat="40.95953286777623" lon="8.210844669670513"><ele>8.0</ele><time>2026-05-02T10:58:00.999Z</time></trkpt><trkpt lat="40.95951072493231" lon="8.210997618539121"><ele>8.0</ele><time>2026-05-02T10:58:01.999Z</time></trkpt><trkpt lat="40.959502910570954" lon="8.211164323649971"><ele>8.0</ele><time>2026-05-02T10:58:02.999Z</time></trkpt><trkpt lat="40.959492198878834" lon="8.211331307717332"><ele>8.0</ele><time>2026-05-02T10:58:03.999Z</time></trkpt><trkpt lat="40.95948467541397" lon="8.21149179653645"><ele>8.200000000000001</ele><time>2026-05-02T10:58:05Z</time></trkpt><trkpt lat="40.959476934599216" lon="8.211646791762623"><ele>8.4</ele><time>2026-05-02T10:58:06Z</time></trkpt><trkpt lat="40.95946757979588" lon="8.211797668809929"><ele>8.600000000000001</ele><time>2026-05-02T10:58:07Z</time></trkpt><trkpt lat="40.95945744175285" lon="8.211944477486426"><ele>8.8</ele><time>2026-05-02T10:58:08Z</time></trkpt><trkpt lat="40.95944019914334" lon="8.21208355535596"><ele>9.0</ele><time>2026-05-02T10:58:09Z</time></trkpt><trkpt lat="40.95942542274503" lon="8.21221353239968"><ele>8.833333333333334</ele><time>2026-05-02T10:58:10Z</time></trkpt><trkpt lat="40.95941836755609" lon="8.212338653668075"><ele>8.666666666666666</ele><time>2026-05-02T10:58:11Z</time></trkpt><trkpt lat="40.959411079539436" lon="8.212454490852526"><ele>8.5</ele><time>2026-05-02T10:58:12Z</time></trkpt><trkpt lat="40.959404944243246" lon="8.21255935067287"><ele>8.333333333333332</ele><time>2026-05-02T10:58:13Z</time></trkpt><trkpt lat="40.95939560434865" lon="8.212653814620063"><ele>8.166666666666666</ele><time>2026-05-02T10:58:14Z</time></trkpt><trkpt lat="40.95937871005233" lon="8.212746242352868"><ele>8.0</ele><time>2026-05-02T10:58:15Z</time></trkpt><trkpt lat="40.95935823368931" lon="8.21285070728625"><ele>8.0</ele><time>2026-05-02T10:58:16Z</time></trkpt><trkpt lat="40.959325536246894" lon="8.212953154947362"><ele>8.0</ele><time>2026-05-02T10:58:17Z</time></trkpt><trkpt lat="40.95927363584481" lon="8.213051558926894"><ele>8.0</ele><time>2026-05-02T10:58:18Z</time></trkpt><trkpt lat="40.95922435880138" lon="8.213152144286711"><ele>8.0</ele><time>2026-05-02T10:58:19Z</time></trkpt><trkpt lat="40.95916939076527" lon="8.21326299525083"><ele>8.0</ele><time>2026-05-02T10:58:20Z</time></trkpt><trkpt lat="40.95910515896965" lon="8.213386791877692"><ele>8.0</ele><time>2026-05-02T10:58:21Z</time></trkpt><trkpt lat="40.95903555177624" lon="8.21351460764112"><ele>8.0</ele><time>2026-05-02T10:58:22Z</time></trkpt><trkpt lat="40.95897085879073" lon="8.21363417742972"><ele>8.0</ele><time>2026-05-02T10:58:23Z</time></trkpt><trkpt lat="40.95892069416253" lon="8.213765379069402"><ele>8.0</ele><time>2026-05-02T10:58:24Z</time></trkpt><trkpt lat="40.958873324794176" lon="8.213902780128896"><ele>8.0</ele><time>2026-05-02T10:58:25Z</time></trkpt><trkpt lat="40.958826406568015" lon="8.214050722048238"><ele>8.0</ele><time>2026-05-02T10:58:26Z</time></trkpt><trkpt lat="40.95877687810571" lon="8.214206887366275"><ele>8.0</ele><time>2026-05-02T10:58:27Z</time></trkpt><trkpt lat="40.95872409771162" lon="8.21437414904987"><ele>8.0</ele><time>2026-05-02T10:58:28Z</time></trkpt><trkpt lat="40.958666077026656" lon="8.21455286668863"><ele>8.0</ele><time>2026-05-02T10:58:29Z</time></trkpt><trkpt lat="40.95860379781555" lon="8.21474651717075"><ele>8.0</ele><time>2026-05-02T10:58:30Z</time></trkpt><trkpt lat="40.95854226356026" lon="8.214945362235275"><ele>8.0</ele><time>2026-05-02T10:58:31Z</time></trkpt><trkpt lat="40.9584837230622" lon="8.215135790512123"><ele>8.0</ele><time>2026-05-02T10:58:32Z</time></trkpt><trkpt lat="40.95842360553963" lon="8.215333804865816"><ele>8.0</ele><time>2026-05-02T10:58:33Z</time></trkpt><trkpt lat="40.9583572941757" lon="8.215533897537812"><ele>8.0</ele><time>2026-05-02T10:58:34Z</time></trkpt><trkpt lat="40.95829337759226" lon="8.215738243628929"><ele>7.666666666666666</ele><time>2026-05-02T10:58:35Z</time></trkpt><trkpt lat="40.95822694950199" lon="8.215940615716411"><ele>7.333333333333334</ele><time>2026-05-02T10:58:36Z</time></trkpt><trkpt lat="40.9581662955856" lon="8.216144274559095"><ele>7.0</ele><time>2026-05-02T10:58:37Z</time></trkpt><trkpt lat="40.95810407859817" lon="8.216350861106637"><ele>6.0</ele><time>2026-05-02T10:58:38Z</time></trkpt><trkpt lat="40.95803682711416" lon="8.216558547537392"><ele>5.0</ele><time>2026-05-02T10:58:39Z</time></trkpt><trkpt lat="40.957967511020364" lon="8.21676953685311"><ele>4.0</ele><time>2026-05-02T10:58:40Z</time></trkpt><trkpt lat="40.95789900096655" lon="8.216982085040707"><ele>4.0</ele><time>2026-05-02T10:58:41Z</time></trkpt><trkpt lat="40.957833966064314" lon="8.217195239777213"><ele>4.0</ele><time>2026-05-02T10:58:42Z</time></trkpt><trkpt lat="40.957769294037185" lon="8.21741299605968"><ele>4.0</ele><time>2026-05-02T10:58:43Z</time></trkpt><trkpt lat="40.95770483746661" lon="8.217617281008483"><ele>3.333333333333333</ele><time>2026-05-02T10:58:44Z</time></trkpt><trkpt lat="40.95763961261381" lon="8.217811922679896"><ele>2.6666666666666665</ele><time>2026-05-02T10:58:45Z</time></trkpt><trkpt lat="40.95757518697858" lon="8.217999459968128"><ele>2.0</ele><time>2026-05-02T10:58:46Z</time></trkpt><trkpt lat="40.9575155434455" lon="8.218174214265757"><ele>3.75</ele><time>2026-05-02T10:58:47Z</time></trkpt><trkpt lat="40.957466963353475" lon="8.218337577933465"><ele>5.5</ele><time>2026-05-02T10:58:48Z</time></trkpt><trkpt lat="40.95741141977526" lon="8.218500274039535"><ele>7.25</ele><time>2026-05-02T10:58:49Z</time></trkpt><trkpt lat="40.95734694314562" lon="8.218650847976534"><ele>9.0</ele><time>2026-05-02T10:58:50Z</time></trkpt><trkpt lat="40.95727732210619" lon="8.218781758505408"><ele>9.0</ele><time>2026-05-02T10:58:51Z</time></trkpt><trkpt lat="40.957206313739476" lon="8.218899378540492"><ele>9.0</ele><time>2026-05-02T10:58:52Z</time></trkpt><trkpt lat="40.9571314567856" lon="8.219004306838924"><ele>9.0</ele><time>2026-05-02T10:58:53Z</time></trkpt><trkpt lat="40.95705873857034" lon="8.21909997224285"><ele>9.0</ele><time>2026-05-02T10:58:54Z</time></trkpt><trkpt lat="40.95698940949709" lon="8.219195208934435"><ele>9.0</ele><time>2026-05-02T10:58:55Z</time></trkpt><trkpt lat="40.95692202413794" lon="8.219299435000572"><ele>9.0</ele><time>2026-05-02T10:58:56Z</time></trkpt><trkpt lat="40.956855433369924" lon="8.219398934356796"><ele>9.0</ele><time>2026-05-02T10:58:57Z</time></trkpt><trkpt lat="40.956785073717995" lon="8.219502751103231"><ele>9.0</ele><time>2026-05-02T10:58:58Z</time></trkpt><trkpt lat="40.95670730229954" lon="8.219617075447061"><ele>9.0</ele><time>2026-05-02T10:58:59Z</time></trkpt><trkpt lat="40.95663291342732" lon="8.219728316759127"><ele>9.0</ele><time>2026-05-02T10:59:00Z</time></trkpt><trkpt lat="40.95655833721355" lon="8.219842518939478"><ele>9.0</ele><time>2026-05-02T10:59:01Z</time></trkpt><trkpt lat="40.956481748139616" lon="8.219949977612606"><ele>9.0</ele><time>2026-05-02T10:59:02Z</time></trkpt><trkpt lat="40.95640429578637" lon="8.22005653747326"><ele>9.0</ele><time>2026-05-02T10:59:03Z</time></trkpt><trkpt lat="40.956322853629416" lon="8.220169416203086"><ele>9.0</ele><time>2026-05-02T10:59:04Z</time></trkpt><trkpt lat="40.956239857731475" lon="8.220288592604208"><ele>9.0</ele><time>2026-05-02T10:59:05Z</time></trkpt><trkpt lat="40.956160927319075" lon="8.220405476128501"><ele>9.0</ele><time>2026-05-02T10:59:06Z</time></trkpt><trkpt lat="40.95608297409616" lon="8.220528398924568"><ele>9.0</ele><time>2026-05-02T10:59:07Z</time></trkpt><trkpt lat="40.95600493878147" lon="8.22065548133936"><ele>9.0</ele><time>2026-05-02T10:59:08Z</time></trkpt><trkpt lat="40.95591641082692" lon="8.220771816436327"><ele>10.25</ele><time>2026-05-02T10:59:09Z</time></trkpt><trkpt lat="40.95583201494652" lon="8.220895153072371"><ele>11.5</ele><time>2026-05-02T10:59:10Z</time></trkpt><trkpt lat="40.955749260881674" lon="8.221023665090744"><ele>12.75</ele><time>2026-05-02T10:59:11Z</time></trkpt><trkpt lat="40.955666780618095" lon="8.221143421673066"><ele>14.0</ele><time>2026-05-02T10:59:12Z</time></trkpt><trkpt lat="40.955565847595324" lon="8.22125591773851"><ele>14.0</ele><time>2026-05-02T10:59:13Z</time></trkpt><trkpt lat="40.95546502090283" lon="8.2213292062255"><ele>13.999999999999998</ele><time>2026-05-02T10:59:14Z</time></trkpt><trkpt lat="40.955348986844974" lon="8.2213887377852"><ele>13.999999999999998</ele><time>2026-05-02T10:59:15Z</time></trkpt><trkpt lat="40.95524949543263" lon="8.22142916099012"><ele>14.0</ele><time>2026-05-02T10:59:16Z</time></trkpt><trkpt lat="40.95515055547645" lon="8.221470870955086"><ele>14.0</ele><time>2026-05-02T10:59:17Z</time></trkpt><trkpt lat="40.955064206956266" lon="8.221507137941522"><ele>13.2</ele><time>2026-05-02T10:59:18Z</time></trkpt><trkpt lat="40.95497488880342" lon="8.221543897907601"><ele>12.399999999999999</ele><time>2026-05-02T10:59:19Z</time></trkpt><trkpt lat="40.95489309602478" lon="8.221582297313788"><ele>11.6</ele><time>2026-05-02T10:59:20Z</time></trkpt><trkpt lat="40.95480957499385" lon="8.221617321716087"><ele>10.8</ele><time>2026-05-02T10:59:21Z</time></trkpt><trkpt lat="40.95471592045151" lon="8.221656007654733"><ele>10.0</ele><time>2026-05-02T10:59:22Z</time></trkpt><trkpt lat="40.95461900000973" lon="8.221690240954613"><ele>10.0</ele><time>2026-05-02T10:59:23Z</time></trkpt><trkpt lat="40.954518676179724" lon="8.221727744672233"><ele>10.0</ele><time>2026-05-02T10:59:24Z</time></trkpt><trkpt lat="40.95441964792348" lon="8.221776620932996"><ele>10.0</ele><time>2026-05-02T10:59:25Z</time></trkpt><trkpt lat="40.95433288520646" lon="8.221817892265431"><ele>10.0</ele><time>2026-05-02T10:59:26Z</time></trkpt><trkpt lat="40.954252859225086" lon="8.221850313123113"><ele>10.0</ele><time>2026-05-02T10:59:27Z</time></trkpt><trkpt lat="40.954178170426815" lon="8.221877438465357"><ele>10.166666666666668</ele><time>2026-05-02T10:59:28.001Z</time></trkpt><trkpt lat="40.95411072584056" lon="8.221904831844032"><ele>10.333333333333334</ele><time>2026-05-02T10:59:29.001Z</time></trkpt><trkpt lat="40.954047977909944" lon="8.221934814411302"><ele>10.5</ele><time>2026-05-02T10:59:30.001Z</time></trkpt><trkpt lat="40.95398330194382" lon="8.221963795206982"><ele>10.666666666666666</ele><time>2026-05-02T10:59:31.001Z</time></trkpt><trkpt lat="40.953874392529556" lon="8.222012102256238"><ele>10.833333333333332</ele><time>2026-05-02T10:59:33.001Z</time></trkpt><trkpt lat="40.953778730873616" lon="8.222062599495242"><ele>11.0</ele><time>2026-05-02T10:59:35.001Z</time></trkpt><trkpt lat="40.95365600128925" lon="8.22213589026738"><ele>11.0</ele><time>2026-05-02T10:59:37.001Z</time></trkpt><trkpt lat="40.95359136987137" lon="8.222204032724116"><ele>11.0</ele><time>2026-05-02T10:59:38.001Z</time></trkpt><trkpt lat="40.95352717815919" lon="8.22227684974986"><ele>11.0</ele><time>2026-05-02T10:59:39.001Z</time></trkpt><trkpt lat="40.9534581974096" lon="8.222343155776917"><ele>11.0</ele><time>2026-05-02T10:59:40.001Z</time></trkpt><trkpt lat="40.95338121493843" lon="8.222396593060733"><ele>11.0</ele><time>2026-05-02T10:59:41.001Z</time></trkpt><trkpt lat="40.953303474942274" lon="8.222437864931678"><ele>11.0</ele><time>2026-05-02T10:59:42.001Z</time></trkpt><trkpt lat="40.95322534729418" lon="8.2224637466643"><ele>11.5</ele><time>2026-05-02T10:59:43.001Z</time></trkpt><trkpt lat="40.95314643779046" lon="8.22248198203882"><ele>12.0</ele><time>2026-05-02T10:59:44.001Z</time></trkpt><trkpt lat="40.95305991074356" lon="8.222492718624048"><ele>12.5</ele><time>2026-05-02T10:59:45.001Z</time></trkpt><trkpt lat="40.952969769346815" lon="8.222478220073889"><ele>13.0</ele><time>2026-05-02T10:59:46.001Z</time></trkpt><trkpt lat="40.95287696278076" lon="8.222453443560967"><ele>13.500000000000002</ele><time>2026-05-02T10:59:47.001Z</time></trkpt><trkpt lat="40.952781591449366" lon="8.222433370217141"><ele>14.0</ele><time>2026-05-02T10:59:48.001Z</time></trkpt><trkpt lat="40.9526789844968" lon="8.222418984826291"><ele>14.0</ele><time>2026-05-02T10:59:49.001Z</time></trkpt><trkpt lat="40.952579519091294" lon="8.222402303532014"><ele>13.999999999999998</ele><time>2026-05-02T10:59:50.001Z</time></trkpt><trkpt lat="40.952467763441184" lon="8.222406177063515"><ele>13.999999999999998</ele><time>2026-05-02T10:59:51Z</time></trkpt><trkpt lat="40.95235746541105" lon="8.222419217255762"><ele>14.0</ele><time>2026-05-02T10:59:52Z</time></trkpt><trkpt lat="40.95224807014347" lon="8.22248046090839"><ele>14.0</ele><time>2026-05-02T10:59:53Z</time></trkpt><trkpt lat="40.9521442928294" lon="8.222585123578208"><ele>15.333333333333334</ele><time>2026-05-02T10:59:54Z</time></trkpt><trkpt lat="40.9520385080554" lon="8.22272615673743"><ele>16.666666666666668</ele><time>2026-05-02T10:59:55Z</time></trkpt><trkpt lat="40.951938690679654" lon="8.222903732255716"><ele>18.0</ele><time>2026-05-02T10:59:56Z</time></trkpt><trkpt lat="40.95182923367343" lon="8.223093649667739"><ele>18.0</ele><time>2026-05-02T10:59:57Z</time></trkpt><trkpt lat="40.95172506662449" lon="8.223259457552453"><ele>18.0</ele><time>2026-05-02T10:59:58Z</time></trkpt><trkpt lat="40.951623647868864" lon="8.223411579224136"><ele>18.0</ele><time>2026-05-02T10:59:59Z</time></trkpt><trkpt lat="40.95152748494079" lon="8.223559598755397"><ele>19.5</ele><time>2026-05-02T11:00:00Z</time></trkpt><trkpt lat="40.95142459842699" lon="8.22369929797209"><ele>21.0</ele><time>2026-05-02T11:00:01Z</time></trkpt><trkpt lat="40.951293625833294" lon="8.223788459667237"><ele>22.5</ele><time>2026-05-02T11:00:02Z</time></trkpt><trkpt lat="40.951156196178744" lon="8.223836026125477"><ele>24.0</ele><time>2026-05-02T11:00:03Z</time></trkpt><trkpt lat="40.95102260887365" lon="8.223860717435388"><ele>24.0</ele><time>2026-05-02T11:00:04Z</time></trkpt><trkpt lat="40.95089244869371" lon="8.223856096408593"><ele>24.0</ele><time>2026-05-02T11:00:05Z</time></trkpt><trkpt lat="40.95075661799006" lon="8.223846065704445"><ele>24.0</ele><time>2026-05-02T11:00:06Z</time></trkpt><trkpt lat="40.950610179848745" lon="8.223834915719438"><ele>24.0</ele><time>2026-05-02T11:00:07Z</time></trkpt><trkpt lat="40.95045571201601" lon="8.223836319294959"><ele>24.0</ele><time>2026-05-02T11:00:08Z</time></trkpt><trkpt lat="40.95029828949819" lon="8.223817564191624"><ele>24.0</ele><time>2026-05-02T11:00:09Z</time></trkpt><trkpt lat="40.950134978732315" lon="8.223802423686504"><ele>24.0</ele><time>2026-05-02T11:00:10Z</time></trkpt><trkpt lat="40.949976461935265" lon="8.223790622536429"><ele>24.0</ele><time>2026-05-02T11:00:11Z</time></trkpt><trkpt lat="40.94981895428549" lon="8.22377997716661"><ele>24.0</ele><time>2026-05-02T11:00:12Z</time></trkpt><trkpt lat="40.94966487681062" lon="8.223784968414996"><ele>24.0</ele><time>2026-05-02T11:00:13Z</time></trkpt><trkpt lat="40.94952216191978" lon="8.223823079373735"><ele>24.0</ele><time>2026-05-02T11:00:14Z</time></trkpt><trkpt lat="40.94939557920945" lon="8.22388872776221"><ele>24.0</ele><time>2026-05-02T11:00:15Z</time></trkpt><trkpt lat="40.94927955118595" lon="8.223953768226895"><ele>24.0</ele><time>2026-05-02T11:00:16Z</time></trkpt><trkpt lat="40.94915114543613" lon="8.22400061169272"><ele>24.0</ele><time>2026-05-02T11:00:17Z</time></trkpt><trkpt lat="40.9490298555146" lon="8.224054884884328"><ele>25.5</ele><time>2026-05-02T11:00:18Z</time></trkpt><trkpt lat="40.948916625862495" lon="8.224103423062072"><ele>27.0</ele><time>2026-05-02T11:00:19Z</time></trkpt><trkpt lat="40.948807249024355" lon="8.224145686270425"><ele>28.5</ele><time>2026-05-02T11:00:20Z</time></trkpt><trkpt lat="40.948698068132146" lon="8.224191957461658"><ele>30.0</ele><time>2026-05-02T11:00:21Z</time></trkpt><trkpt lat="40.94858078962012" lon="8.22424134665135"><ele>30.0</ele><time>2026-05-02T11:00:22Z</time></trkpt><trkpt lat="40.94846016590843" lon="8.224292727978563"><ele>30.0</ele><time>2026-05-02T11:00:23Z</time></trkpt><trkpt lat="40.948338185388465" lon="8.224346168752584"><ele>30.0</ele><time>2026-05-02T11:00:24Z</time></trkpt><trkpt lat="40.94821449436469" lon="8.22440052823289"><ele>30.0</ele><time>2026-05-02T11:00:25Z</time></trkpt><trkpt lat="40.94808906963238" lon="8.224454320776594"><ele>31.0</ele><time>2026-05-02T11:00:26Z</time></trkpt><trkpt lat="40.94796452807922" lon="8.224515818918173"><ele>32.0</ele><time>2026-05-02T11:00:27Z</time></trkpt><trkpt lat="40.94783486835054" lon="8.224569733213839"><ele>33.0</ele><time>2026-05-02T11:00:28Z</time></trkpt><trkpt lat="40.947705084649236" lon="8.22462035444542"><ele>34.0</ele><time>2026-05-02T11:00:29Z</time></trkpt><trkpt lat="40.94757274863594" lon="8.224680334737492"><ele>34.5</ele><time>2026-05-02T11:00:30Z</time></trkpt><trkpt lat="40.94743534769112" lon="8.224739805171145"><ele>35.0</ele><time>2026-05-02T11:00:31Z</time></trkpt><trkpt lat="40.94729383761702" lon="8.224798704375548"><ele>35.5</ele><time>2026-05-02T11:00:32Z</time></trkpt><trkpt lat="40.94715408322298" lon="8.22485462449066"><ele>36.0</ele><time>2026-05-02T11:00:33Z</time></trkpt><trkpt lat="40.947016504711996" lon="8.224907342700885"><ele>36.0</ele><time>2026-05-02T11:00:34Z</time></trkpt><trkpt lat="40.94688086482371" lon="8.22496346170689"><ele>36.0</ele><time>2026-05-02T11:00:35Z</time></trkpt><trkpt lat="40.946747934148235" lon="8.225023203829783"><ele>36.0</ele><time>2026-05-02T11:00:36Z</time></trkpt><trkpt lat="40.94661020965947" lon="8.225080594091121"><ele>36.0</ele><time>2026-05-02T11:00:37Z</time></trkpt><trkpt lat="40.946473011485" lon="8.225139648692602"><ele>37.8</ele><time>2026-05-02T11:00:38Z</time></trkpt><trkpt lat="40.94635484369846" lon="8.225189366725887"><ele>39.6</ele><time>2026-05-02T11:00:39Z</time></trkpt><trkpt lat="40.946255253274465" lon="8.225239558497972"><ele>41.4</ele><time>2026-05-02T11:00:40Z</time></trkpt><trkpt lat="40.94616206458451" lon="8.225284120183204"><ele>43.2</ele><time>2026-05-02T11:00:41Z</time></trkpt><trkpt lat="40.94607262353626" lon="8.225322150310726"><ele>45.0</ele><time>2026-05-02T11:00:42Z</time></trkpt><trkpt lat="40.945986411757715" lon="8.225345754794192"><ele>45.0</ele><time>2026-05-02T11:00:43Z</time></trkpt><trkpt lat="40.94589386207253" lon="8.225377071038714"><ele>45.0</ele><time>2026-05-02T11:00:44Z</time></trkpt><trkpt lat="40.94579741074932" lon="8.22540225782957"><ele>45.0</ele><time>2026-05-02T11:00:45Z</time></trkpt><trkpt lat="40.945691940051724" lon="8.225429527124097"><ele>45.0</ele><time>2026-05-02T11:00:46Z</time></trkpt><trkpt lat="40.94558264153479" lon="8.225455779429028"><ele>45.0</ele><time>2026-05-02T11:00:47Z</time></trkpt><trkpt lat="40.94546591913623" lon="8.225482509082555"><ele>45.0</ele><time>2026-05-02T11:00:48Z</time></trkpt><trkpt lat="40.945343740138966" lon="8.225512912416098"><ele>45.0</ele><time>2026-05-02T11:00:49Z</time></trkpt><trkpt lat="40.945212499192756" lon="8.225545973968849"><ele>45.0</ele><time>2026-05-02T11:00:50Z</time></trkpt><trkpt lat="40.94507780276378" lon="8.225587347951024"><ele>45.0</ele><time>2026-05-02T11:00:51Z</time></trkpt><trkpt lat="40.9449314263313" lon="8.225631317225222"><ele>43.25</ele><time>2026-05-02T11:00:52Z</time></trkpt><trkpt lat="40.944781114747066" lon="8.225671976627657"><ele>41.5</ele><time>2026-05-02T11:00:53Z</time></trkpt><trkpt lat="40.9446339714988" lon="8.225696428384497"><ele>39.75</ele><time>2026-05-02T11:00:54Z</time></trkpt><trkpt lat="40.944493540566924" lon="8.22572056130582"><ele>38.0</ele><time>2026-05-02T11:00:55Z</time></trkpt><trkpt lat="40.9443618864212" lon="8.225753482094149"><ele>38.0</ele><time>2026-05-02T11:00:56.001Z</time></trkpt><trkpt lat="40.94424076077242" lon="8.22578049286814"><ele>38.0</ele><time>2026-05-02T11:00:57.001Z</time></trkpt><trkpt lat="40.944140807197556" lon="8.225772761367654"><ele>38.0</ele><time>2026-05-02T11:00:58.001Z</time></trkpt><trkpt lat="40.9440515494502" lon="8.225723987178352"><ele>38.0</ele><time>2026-05-02T11:00:59.001Z</time></trkpt><trkpt lat="40.9439914994422" lon="8.225646226838547"><ele>38.0</ele><time>2026-05-02T11:01:00.001Z</time></trkpt><trkpt lat="40.94392544376696" lon="8.225556023745671"><ele>37.4</ele><time>2026-05-02T11:01:02.001Z</time></trkpt><trkpt lat="40.94382167050979" lon="8.225569409208207"><ele>36.8</ele><time>2026-05-02T11:01:04.001Z</time></trkpt><trkpt lat="40.943752554221824" lon="8.225653366473047"><ele>36.2</ele><time>2026-05-02T11:01:06.001Z</time></trkpt><trkpt lat="40.943690471630674" lon="8.22570815572785"><ele>35.6</ele><time>2026-05-02T11:01:07.001Z</time></trkpt><trkpt lat="40.94370327141612" lon="8.225834296075536"><ele>35.0</ele><time>2026-05-02T11:01:08.001Z</time></trkpt><trkpt lat="40.943746796466655" lon="8.225928489386359"><ele>35.0</ele><time>2026-05-02T11:01:09.001Z</time></trkpt><trkpt lat="40.94375020964798" lon="8.22605407536783"><ele>35.0</ele><time>2026-05-02T11:01:10.001Z</time></trkpt><trkpt lat="40.94376004024934" lon="8.226173006777817"><ele>35.0</ele><time>2026-05-02T11:01:11.001Z</time></trkpt><trkpt lat="40.943668022456215" lon="8.226298734980812"><ele>35.0</ele><time>2026-05-02T11:01:12.001Z</time></trkpt><trkpt lat="40.94361570738758" lon="8.226404588517001"><ele>35.0</ele><time>2026-05-02T11:01:13.001Z</time></trkpt><trkpt lat="40.94356783835168" lon="8.22651135449451"><ele>35.2</ele><time>2026-05-02T11:01:14.001Z</time></trkpt><trkpt lat="40.94351900002418" lon="8.22662109120106"><ele>35.4</ele><time>2026-05-02T11:01:15.001Z</time></trkpt><trkpt lat="40.94347876260887" lon="8.22672927458159"><ele>35.6</ele><time>2026-05-02T11:01:16.001Z</time></trkpt><trkpt lat="40.94344970782511" lon="8.226843848545844"><ele>35.8</ele><time>2026-05-02T11:01:17.001Z</time></trkpt><trkpt lat="40.943456809772606" lon="8.226968906070987"><ele>36.0</ele><time>2026-05-02T11:01:18.001Z</time></trkpt><trkpt lat="40.9434626897341" lon="8.227094011769395"><ele>36.0</ele><time>2026-05-02T11:01:19.001Z</time></trkpt><trkpt lat="40.94345787311431" lon="8.227224444376327"><ele>36.0</ele><time>2026-05-02T11:01:20.001Z</time></trkpt><trkpt lat="40.94348132319022" lon="8.227332567812233"><ele>36.0</ele><time>2026-05-02T11:01:21.001Z</time></trkpt><trkpt lat="40.94352408501739" lon="8.227431097912216"><ele>36.0</ele><time>2026-05-02T11:01:22.001Z</time></trkpt><trkpt lat="40.94356572024491" lon="8.22752188790417"><ele>36.0</ele><time>2026-05-02T11:01:23.001Z</time></trkpt><trkpt lat="40.943612289990625" lon="8.227604717406997"><ele>36.0</ele><time>2026-05-02T11:01:24.001Z</time></trkpt><trkpt lat="40.94363377065722" lon="8.227697070593612"><ele>35.4</ele><time>2026-05-02T11:01:25.001Z</time></trkpt><trkpt lat="40.943715993249896" lon="8.22776674399436"><ele>34.8</ele><time>2026-05-02T11:01:26.001Z</time></trkpt><trkpt lat="40.94377315664127" lon="8.227859099842195"><ele>34.199999999999996</ele><time>2026-05-02T11:01:27.001Z</time></trkpt><trkpt lat="40.94382251467941" lon="8.22795839347214"><ele>33.6</ele><time>2026-05-02T11:01:28.001Z</time></trkpt><trkpt lat="40.943848391657724" lon="8.22806744202812"><ele>33.0</ele><time>2026-05-02T11:01:29.001Z</time></trkpt><trkpt lat="40.943809159784" lon="8.228311533541328"><ele>32.0</ele><time>2026-05-02T11:01:31.001Z</time></trkpt><trkpt lat="40.943762535679284" lon="8.228427330087381"><ele>30.999999999999996</ele><time>2026-05-02T11:01:32.001Z</time></trkpt><trkpt lat="40.94372321748469" lon="8.22854186738288"><ele>29.999999999999996</ele><time>2026-05-02T11:01:33.001Z</time></trkpt><trkpt lat="40.94369156806523" lon="8.22866475490408"><ele>29.0</ele><time>2026-05-02T11:01:34.001Z</time></trkpt><trkpt lat="40.943668583154285" lon="8.228792687865866"><ele>28.0</ele><time>2026-05-02T11:01:35.001Z</time></trkpt><trkpt lat="40.94364007024061" lon="8.228919624597733"><ele>27.2</ele><time>2026-05-02T11:01:36.001Z</time></trkpt><trkpt lat="40.94360531167329" lon="8.229044838369932"><ele>26.4</ele><time>2026-05-02T11:01:37.001Z</time></trkpt><trkpt lat="40.94357268632302" lon="8.229172423647956"><ele>25.599999999999998</ele><time>2026-05-02T11:01:38.001Z</time></trkpt><trkpt lat="40.9435413919093" lon="8.229304098720833"><ele>24.799999999999997</ele><time>2026-05-02T11:01:39.001Z</time></trkpt><trkpt lat="40.943507993576695" lon="8.229441856124586"><ele>24.0</ele><time>2026-05-02T11:01:40.001Z</time></trkpt><trkpt lat="40.943475752423964" lon="8.229577813131039"><ele>24.0</ele><time>2026-05-02T11:01:41.001Z</time></trkpt><trkpt lat="40.94343993300512" lon="8.229713903840352"><ele>24.0</ele><time>2026-05-02T11:01:42.001Z</time></trkpt><trkpt lat="40.9434062182188" lon="8.229848062374161"><ele>24.0</ele><time>2026-05-02T11:01:43.001Z</time></trkpt><trkpt lat="40.94337439058428" lon="8.229978049920598"><ele>24.0</ele><time>2026-05-02T11:01:44.001Z</time></trkpt><trkpt lat="40.94334399297693" lon="8.23011322120871"><ele>24.0</ele><time>2026-05-02T11:01:45.001Z</time></trkpt><trkpt lat="40.94331350858358" lon="8.230251210642603"><ele>24.0</ele><time>2026-05-02T11:01:46.001Z</time></trkpt><trkpt lat="40.94327956611696" lon="8.230382800904975"><ele>24.0</ele><time>2026-05-02T11:01:47.001Z</time></trkpt><trkpt lat="40.943249987112765" lon="8.230504560868525"><ele>24.0</ele><time>2026-05-02T11:01:48.001Z</time></trkpt><trkpt lat="40.94322607310184" lon="8.23062451434133"><ele>24.0</ele><time>2026-05-02T11:01:49.001Z</time></trkpt><trkpt lat="40.94319388396384" lon="8.230735929516545"><ele>24.0</ele><time>2026-05-02T11:01:50.001Z</time></trkpt><trkpt lat="40.943162869112385" lon="8.230844142431268"><ele>22.666666666666668</ele><time>2026-05-02T11:01:51.001Z</time></trkpt><trkpt lat="40.943138467865616" lon="8.230954565523442"><ele>21.333333333333332</ele><time>2026-05-02T11:01:52.001Z</time></trkpt><trkpt lat="40.943120509234745" lon="8.231062365509443"><ele>20.0</ele><time>2026-05-02T11:01:53.001Z</time></trkpt><trkpt lat="40.94309231927278" lon="8.231158138126855"><ele>18.666666666666664</ele><time>2026-05-02T11:01:54.001Z</time></trkpt><trkpt lat="40.9430633769416" lon="8.231251138718918"><ele>17.333333333333332</ele><time>2026-05-02T11:01:55.001Z</time></trkpt><trkpt lat="40.94302521505929" lon="8.231343483747859"><ele>16.0</ele><time>2026-05-02T11:01:56.001Z</time></trkpt><trkpt lat="40.94297164020246" lon="8.231418627218266"><ele>16.0</ele><time>2026-05-02T11:01:57.001Z</time></trkpt><trkpt lat="40.9428960679754" lon="8.231463540175826"><ele>16.0</ele><time>2026-05-02T11:01:58.001Z</time></trkpt><trkpt lat="40.94279290445744" lon="8.231473081214105"><ele>16.0</ele><time>2026-05-02T11:01:59.001Z</time></trkpt><trkpt lat="40.942680609665594" lon="8.231459507727294"><ele>16.0</ele><time>2026-05-02T11:02:00.001Z</time></trkpt><trkpt lat="40.94258326410224" lon="8.231385002212043"><ele>16.0</ele><time>2026-05-02T11:02:01.001Z</time></trkpt><trkpt lat="40.942495527004326" lon="8.231305658601352"><ele>15.5</ele><time>2026-05-02T11:02:02.001Z</time></trkpt><trkpt lat="40.94241267489486" lon="8.231194655634392"><ele>15.0</ele><time>2026-05-02T11:02:03.001Z</time></trkpt><trkpt lat="40.94232546770538" lon="8.231071979729379"><ele>14.5</ele><time>2026-05-02T11:02:04.001Z</time></trkpt><trkpt lat="40.942247756803845" lon="8.23095094571825"><ele>14.0</ele><time>2026-05-02T11:02:05.001Z</time></trkpt><trkpt lat="40.942180562460535" lon="8.23081841627326"><ele>14.0</ele><time>2026-05-02T11:02:06.001Z</time></trkpt><trkpt lat="40.94211403122986" lon="8.230696959281905"><ele>14.0</ele><time>2026-05-02T11:02:07.001Z</time></trkpt><trkpt lat="40.942043961890676" lon="8.230585067492452"><ele>14.0</ele><time>2026-05-02T11:02:08.001Z</time></trkpt><trkpt lat="40.94193514065933" lon="8.230521655856538"><ele>14.0</ele><time>2026-05-02T11:02:09.001Z</time></trkpt><trkpt lat="40.94182592712602" lon="8.230468270298772"><ele>15.2</ele><time>2026-05-02T11:02:10.001Z</time></trkpt><trkpt lat="40.94171201729944" lon="8.23042413703254"><ele>16.4</ele><time>2026-05-02T11:02:11.001Z</time></trkpt><trkpt lat="40.94160622750636" lon="8.230381114693689"><ele>17.6</ele><time>2026-05-02T11:02:12.001Z</time></trkpt><trkpt lat="40.94151912382685" lon="8.230367036340285"><ele>18.8</ele><time>2026-05-02T11:02:13.001Z</time></trkpt><trkpt lat="40.941449598292905" lon="8.230348053673492"><ele>20.0</ele><time>2026-05-02T11:02:14.001Z</time></trkpt><trkpt lat="40.9414150261801" lon="8.23018127519021"><ele>20.0</ele><time>2026-05-02T11:02:19Z</time></trkpt><trkpt lat="40.94140920581114" lon="8.230073235085491"><ele>20.0</ele><time>2026-05-02T11:02:20Z</time></trkpt><trkpt lat="40.94143155887617" lon="8.229955140665053"><ele>20.0</ele><time>2026-05-02T11:02:21Z</time></trkpt><trkpt lat="40.94144398916212" lon="8.22982426167852"><ele>20.0</ele><time>2026-05-02T11:02:22Z</time></trkpt><trkpt lat="40.94145736672272" lon="8.229692882208369"><ele>20.0</ele><time>2026-05-02T11:02:23Z</time></trkpt><trkpt lat="40.941497040010866" lon="8.22955064180482"><ele>20.4</ele><time>2026-05-02T11:02:24Z</time></trkpt><trkpt lat="40.94151954919155" lon="8.229407254645984"><ele>20.8</ele><time>2026-05-02T11:02:25Z</time></trkpt><trkpt lat="40.941539704350824" lon="8.229272487681287"><ele>21.200000000000003</ele><time>2026-05-02T11:02:26Z</time></trkpt><trkpt lat="40.94154430130791" lon="8.229133199626125"><ele>21.6</ele><time>2026-05-02T11:02:27Z</time></trkpt><trkpt lat="40.94157499115895" lon="8.229018147938694"><ele>22.0</ele><time>2026-05-02T11:02:28Z</time></trkpt><trkpt lat="40.94158971480588" lon="8.228888470995024"><ele>22.42857142857143</ele><time>2026-05-02T11:02:29.001Z</time></trkpt><trkpt lat="40.941605001069625" lon="8.228780440054745"><ele>22.857142857142858</ele><time>2026-05-02T11:02:30.001Z</time></trkpt><trkpt lat="40.94162159568285" lon="8.22868895380205"><ele>23.285714285714285</ele><time>2026-05-02T11:02:31.001Z</time></trkpt><trkpt lat="40.94163761180292" lon="8.228594883916154"><ele>23.714285714285715</ele><time>2026-05-02T11:02:34.001Z</time></trkpt><trkpt lat="40.94166985805147" lon="8.228499804323757"><ele>24.142857142857142</ele><time>2026-05-02T11:02:40.001Z</time></trkpt><trkpt lat="40.94169104951791" lon="8.228412359560762"><ele>24.571428571428573</ele><time>2026-05-02T11:02:42.001Z</time></trkpt><trkpt lat="40.94162776434717" lon="8.228372320837062"><ele>25.0</ele><time>2026-05-02T11:02:46.001Z</time></trkpt><trkpt lat="40.94159969830096" lon="8.228500446932372"><ele>25.0</ele><time>2026-05-02T11:02:52.001Z</time></trkpt><trkpt lat="40.94160082996398" lon="8.22867431430635"><ele>25.0</ele><time>2026-05-02T11:02:53.001Z</time></trkpt><trkpt lat="40.94158510484881" lon="8.228835805580548"><ele>25.0</ele><time>2026-05-02T11:02:54.001Z</time></trkpt><trkpt lat="40.941551603772766" lon="8.228999479571945"><ele>25.0</ele><time>2026-05-02T11:02:55.001Z</time></trkpt><trkpt lat="40.941521212638385" lon="8.22917407141589"><ele>24.25</ele><time>2026-05-02T11:02:56.001Z</time></trkpt><trkpt lat="40.94149301323373" lon="8.229330391611153"><ele>23.5</ele><time>2026-05-02T11:02:57.001Z</time></trkpt><trkpt lat="40.94147240065322" lon="8.229482300574306"><ele>22.75</ele><time>2026-05-02T11:02:58.001Z</time></trkpt><trkpt lat="40.941449476720045" lon="8.229627825032138"><ele>22.0</ele><time>2026-05-02T11:02:59.001Z</time></trkpt><trkpt lat="40.94143448027243" lon="8.229763679721145"><ele>21.6</ele><time>2026-05-02T11:03:00.001Z</time></trkpt><trkpt lat="40.94141956948057" lon="8.229896208643448"><ele>21.200000000000003</ele><time>2026-05-02T11:03:01.001Z</time></trkpt><trkpt lat="40.94140154649778" lon="8.230025584101988"><ele>20.8</ele><time>2026-05-02T11:03:02.001Z</time></trkpt><trkpt lat="40.94138797718255" lon="8.230148466741868"><ele>20.4</ele><time>2026-05-02T11:03:03.001Z</time></trkpt><trkpt lat="40.94137774045386" lon="8.230277909415989"><ele>20.0</ele><time>2026-05-02T11:03:04.001Z</time></trkpt><trkpt lat="40.94136317420573" lon="8.230398059620788"><ele>20.0</ele><time>2026-05-02T11:03:05.001Z</time></trkpt><trkpt lat="40.94133661136351" lon="8.230510583263577"><ele>20.0</ele><time>2026-05-02T11:03:06.001Z</time></trkpt><trkpt lat="40.941284941329776" lon="8.230595572032163"><ele>20.0</ele><time>2026-05-02T11:03:07.001Z</time></trkpt><trkpt lat="40.9412026792902" lon="8.230654758120744"><ele>20.0</ele><time>2026-05-02T11:03:08.001Z</time></trkpt><trkpt lat="40.941117154337924" lon="8.230715676425158"><ele>20.0</ele><time>2026-05-02T11:03:09.001Z</time></trkpt><trkpt lat="40.94104477807819" lon="8.230799892473028"><ele>19.2</ele><time>2026-05-02T11:03:10.001Z</time></trkpt><trkpt lat="40.94099348577934" lon="8.230915768971652"><ele>18.4</ele><time>2026-05-02T11:03:11.001Z</time></trkpt><trkpt lat="40.94096868642991" lon="8.231047615053278"><ele>17.6</ele><time>2026-05-02T11:03:12.001Z</time></trkpt><trkpt lat="40.940950170580095" lon="8.231181403266445"><ele>16.8</ele><time>2026-05-02T11:03:13.001Z</time></trkpt><trkpt lat="40.94093904815917" lon="8.231294041128445"><ele>16.0</ele><time>2026-05-02T11:03:14.001Z</time></trkpt><trkpt lat="40.94091847557809" lon="8.231432479426552"><ele>15.0</ele><time>2026-05-02T11:03:15.001Z</time></trkpt><trkpt lat="40.940903926386326" lon="8.231567058079348"><ele>14.000000000000002</ele><time>2026-05-02T11:03:16.001Z</time></trkpt><trkpt lat="40.940895363272105" lon="8.23170774903529"><ele>13.0</ele><time>2026-05-02T11:03:17.001Z</time></trkpt><trkpt lat="40.94088306430283" lon="8.231843636091508"><ele>12.0</ele><time>2026-05-02T11:03:18.001Z</time></trkpt><trkpt lat="40.9408664758088" lon="8.231980291134883"><ele>11.0</ele><time>2026-05-02T11:03:19.001Z</time></trkpt><trkpt lat="40.94085179308498" lon="8.232105461922291"><ele>10.5</ele><time>2026-05-02T11:03:20.001Z</time></trkpt><trkpt lat="40.94084045420201" lon="8.232220151617938"><ele>10.0</ele><time>2026-05-02T11:03:21.001Z</time></trkpt><trkpt lat="40.94083598237081" lon="8.232317112335146"><ele>9.5</ele><time>2026-05-02T11:03:22.001Z</time></trkpt><trkpt lat="40.94083461415065" lon="8.232427909784603"><ele>9.0</ele><time>2026-05-02T11:03:24.001Z</time></trkpt><trkpt lat="40.94080778841726" lon="8.232540934418479"><ele>8.5</ele><time>2026-05-02T11:03:27.001Z</time></trkpt><trkpt lat="40.9407613153675" lon="8.23261692039115"><ele>8.0</ele><time>2026-05-02T11:03:29.001Z</time></trkpt><trkpt lat="40.940704920076044" lon="8.23267753634387"><ele>7.285714285714286</ele><time>2026-05-02T11:03:32.001Z</time></trkpt><trkpt lat="40.94064315733258" lon="8.232719531435334"><ele>6.57142857142857</ele><time>2026-05-02T11:03:35.001Z</time></trkpt><trkpt lat="40.94058754965317" lon="8.232762796439443"><ele>5.857142857142857</ele><time>2026-05-02T11:03:38.001Z</time></trkpt><trkpt lat="40.94052540155171" lon="8.232790896503786"><ele>5.142857142857142</ele><time>2026-05-02T11:03:41.001Z</time></trkpt><trkpt lat="40.94046542143407" lon="8.23283375929042"><ele>4.428571428571429</ele><time>2026-05-02T11:03:44.001Z</time></trkpt><trkpt lat="40.940398308121594" lon="8.232871046305743"><ele>3.714285714285714</ele><time>2026-05-02T11:03:47.001Z</time></trkpt><trkpt lat="40.94032049188306" lon="8.23289811219253"><ele>3.0</ele><time>2026-05-02T11:03:50.001Z</time></trkpt><trkpt lat="40.940236263965815" lon="8.232924199376443"><ele>3.0</ele><time>2026-05-02T11:03:53.001Z</time></trkpt><trkpt lat="40.94031164404588" lon="8.232905665463402"><ele>3.0</ele><time>2026-05-02T11:04:00.001Z</time></trkpt><trkpt lat="40.94005009034171" lon="8.233054155381645"><ele>3.0</ele><time>2026-05-02T11:04:01.001Z</time></trkpt><trkpt lat="40.94042655471604" lon="8.232875648592174"><ele>3.0</ele><time>2026-05-02T11:04:03.001Z</time></trkpt><trkpt lat="40.940529354736945" lon="8.232822383750836"><ele>3.0</ele><time>2026-05-02T11:04:05.001Z</time></trkpt><trkpt lat="40.94059484375697" lon="8.232776140667168"><ele>3.0</ele><time>2026-05-02T11:04:07.001Z</time></trkpt><trkpt lat="40.940672547077725" lon="8.232712687571036"><ele>3.0</ele><time>2026-05-02T11:04:09.001Z</time></trkpt><trkpt lat="40.94076987096364" lon="8.232618883532677"><ele>3.0</ele><time>2026-05-02T11:04:11.001Z</time></trkpt><trkpt lat="40.940816921211656" lon="8.232555721147877"><ele>3.0</ele><time>2026-05-02T11:04:12.001Z</time></trkpt><trkpt lat="40.94084771096065" lon="8.232477584647564"><ele>3.0</ele><time>2026-05-02T11:04:13.001Z</time></trkpt><trkpt lat="40.94085375585884" lon="8.232384697260876"><ele>3.0</ele><time>2026-05-02T11:04:14.001Z</time></trkpt><trkpt lat="40.94084400389922" lon="8.232300536227106"><ele>3.0</ele><time>2026-05-02T11:04:15.001Z</time></trkpt><trkpt lat="40.940845962423445" lon="8.232191893548013"><ele>3.0</ele><time>2026-05-02T11:04:17.001Z</time></trkpt><trkpt lat="40.940858726910676" lon="8.232007873589717"><ele>3.0</ele><time>2026-05-02T11:04:19.001Z</time></trkpt><trkpt lat="40.94086243130163" lon="8.23184690189544"><ele>4.25</ele><time>2026-05-02T11:04:20.001Z</time></trkpt><trkpt lat="40.94087784964318" lon="8.231683050728966"><ele>5.5</ele><time>2026-05-02T11:04:21.001Z</time></trkpt><trkpt lat="40.94090489512105" lon="8.231534454441773"><ele>6.75</ele><time>2026-05-02T11:04:22.001Z</time></trkpt><trkpt lat="40.94092778414672" lon="8.231376341102642"><ele>8.0</ele><time>2026-05-02T11:04:23Z</time></trkpt><trkpt lat="40.94095252439665" lon="8.231207214777504"><ele>10.0</ele><time>2026-05-02T11:04:24Z</time></trkpt><trkpt lat="40.94098087603003" lon="8.231017741415359"><ele>12.0</ele><time>2026-05-02T11:04:25Z</time></trkpt><trkpt lat="40.94102982372307" lon="8.230845508788416"><ele>14.0</ele><time>2026-05-02T11:04:26Z</time></trkpt><trkpt lat="40.94111661067179" lon="8.230738354247299"><ele>16.0</ele><time>2026-05-02T11:04:27Z</time></trkpt><trkpt lat="40.94118638199081" lon="8.230665483736821"><ele>16.8</ele><time>2026-05-02T11:04:28Z</time></trkpt><trkpt lat="40.941244099441896" lon="8.230600596609472"><ele>17.6</ele><time>2026-05-02T11:04:29Z</time></trkpt><trkpt lat="40.94130589607339" lon="8.230558841636126"><ele>18.4</ele><time>2026-05-02T11:04:30Z</time></trkpt><trkpt lat="40.94138015021061" lon="8.230442358698449"><ele>19.2</ele><time>2026-05-02T11:04:32Z</time></trkpt><trkpt lat="40.94143004273627" lon="8.230387258913646"><ele>20.0</ele><time>2026-05-02T11:04:33Z</time></trkpt><trkpt lat="40.94140549530983" lon="8.230204136271723"><ele>20.0</ele><time>2026-05-02T11:04:34Z</time></trkpt><trkpt lat="40.94141262283386" lon="8.23004726333736"><ele>20.0</ele><time>2026-05-02T11:04:35Z</time></trkpt><trkpt lat="40.94144736243333" lon="8.22986474376281"><ele>20.0</ele><time>2026-05-02T11:04:36Z</time></trkpt><trkpt lat="40.94147704989911" lon="8.229674407218708"><ele>20.0</ele><time>2026-05-02T11:04:37Z</time></trkpt><trkpt lat="40.9415039261464" lon="8.229508007283004"><ele>20.5</ele><time>2026-05-02T11:04:38Z</time></trkpt><trkpt lat="40.941530135843706" lon="8.229336467025153"><ele>21.0</ele><time>2026-05-02T11:04:39Z</time></trkpt><trkpt lat="40.9415560441505" lon="8.229163231879342"><ele>21.5</ele><time>2026-05-02T11:04:40Z</time></trkpt><trkpt lat="40.941563845102735" lon="8.229006884684669"><ele>22.0</ele><time>2026-05-02T11:04:41Z</time></trkpt><trkpt lat="40.941590878874855" lon="8.228864191817625"><ele>22.6</ele><time>2026-05-02T11:04:42Z</time></trkpt><trkpt lat="40.941610221306775" lon="8.228722685502975"><ele>23.200000000000003</ele><time>2026-05-02T11:04:43Z</time></trkpt><trkpt lat="40.94163038426419" lon="8.228611417104657"><ele>23.8</ele><time>2026-05-02T11:04:44Z</time></trkpt><trkpt lat="40.941642798685876" lon="8.2285288630006"><ele>24.4</ele><time>2026-05-02T11:04:46Z</time></trkpt><trkpt lat="40.94168028723467" lon="8.228429700634027"><ele>25.0</ele><time>2026-05-02T11:04:49Z</time></trkpt><trkpt lat="40.941568760845776" lon="8.228329210984707"><ele>25.0</ele><time>2026-05-02T11:04:50Z</time></trkpt><trkpt lat="40.94148214371018" lon="8.228241397178387"><ele>25.0</ele><time>2026-05-02T11:04:51Z</time></trkpt><trkpt lat="40.94135277131741" lon="8.228153975389429"><ele>25.0</ele><time>2026-05-02T11:04:52Z</time></trkpt><trkpt lat="40.941242974508576" lon="8.228072711238607"><ele>25.0</ele><time>2026-05-02T11:04:53Z</time></trkpt><trkpt lat="40.941152733845435" lon="8.227995725180087"><ele>25.833333333333336</ele><time>2026-05-02T11:04:54Z</time></trkpt><trkpt lat="40.94107604268502" lon="8.227922233378289"><ele>26.666666666666668</ele><time>2026-05-02T11:04:55Z</time></trkpt><trkpt lat="40.94099918815473" lon="8.227863186589081"><ele>27.5</ele><time>2026-05-02T11:04:56Z</time></trkpt><trkpt lat="40.94095761419155" lon="8.227773952092559"><ele>28.333333333333336</ele><time>2026-05-02T11:04:57Z</time></trkpt><trkpt lat="40.94093651040502" lon="8.227683550105564"><ele>29.166666666666668</ele><time>2026-05-02T11:04:58Z</time></trkpt><trkpt lat="40.9409368283077" lon="8.22757625859924"><ele>30.0</ele><time>2026-05-02T11:04:59Z</time></trkpt><trkpt lat="40.94093525867218" lon="8.22744601707744"><ele>30.0</ele><time>2026-05-02T11:05:00Z</time></trkpt><trkpt lat="40.940936820872125" lon="8.227318356273123"><ele>30.0</ele><time>2026-05-02T11:05:01Z</time></trkpt><trkpt lat="40.940929438985066" lon="8.227210131740502"><ele>30.0</ele><time>2026-05-02T11:05:02.001Z</time></trkpt><trkpt lat="40.94094270168728" lon="8.227106406011556"><ele>30.0</ele><time>2026-05-02T11:05:03.001Z</time></trkpt><trkpt lat="40.94096830063583" lon="8.227000012720417"><ele>30.0</ele><time>2026-05-02T11:05:04.001Z</time></trkpt><trkpt lat="40.94099642592972" lon="8.226903843013416"><ele>30.0</ele><time>2026-05-02T11:05:05.001Z</time></trkpt><trkpt lat="40.94102058081838" lon="8.22681401366566"><ele>30.0</ele><time>2026-05-02T11:05:06.001Z</time></trkpt><trkpt lat="40.941051000970056" lon="8.22667320505958"><ele>30.0</ele><time>2026-05-02T11:05:08.001Z</time></trkpt><trkpt lat="40.94107889305639" lon="8.226516359860398"><ele>30.0</ele><time>2026-05-02T11:05:10.001Z</time></trkpt><trkpt lat="40.941079104512646" lon="8.226427519183979"><ele>30.0</ele><time>2026-05-02T11:05:11.001Z</time></trkpt><trkpt lat="40.94105211799353" lon="8.226338646834538"><ele>30.0</ele><time>2026-05-02T11:05:12.001Z</time></trkpt><trkpt lat="40.94099278524859" lon="8.226263309088962"><ele>30.0</ele><time>2026-05-02T11:05:13.001Z</time></trkpt><trkpt lat="40.94090513528469" lon="8.226203859373813"><ele>30.0</ele><time>2026-05-02T11:05:14.001Z</time></trkpt><trkpt lat="40.940810289121636" lon="8.226169158804483"><ele>30.0</ele><time>2026-05-02T11:05:15.001Z</time></trkpt><trkpt lat="40.940719408796646" lon="8.226140528830873"><ele>30.0</ele><time>2026-05-02T11:05:16.001Z</time></trkpt><trkpt lat="40.94063008149819" lon="8.226112218082415"><ele>30.0</ele><time>2026-05-02T11:05:17.001Z</time></trkpt><trkpt lat="40.94054292568858" lon="8.226077864174178"><ele>29.333333333333332</ele><time>2026-05-02T11:05:18.001Z</time></trkpt><trkpt lat="40.940455316216806" lon="8.226044404936141"><ele>28.666666666666664</ele><time>2026-05-02T11:05:19.001Z</time></trkpt><trkpt lat="40.94037105221958" lon="8.22601021400603"><ele>28.0</ele><time>2026-05-02T11:05:20.001Z</time></trkpt><trkpt lat="40.940304563482535" lon="8.225962456175463"><ele>27.333333333333332</ele><time>2026-05-02T11:05:21.001Z</time></trkpt><trkpt lat="40.940271328506306" lon="8.225866353512654"><ele>26.666666666666664</ele><time>2026-05-02T11:05:22.001Z</time></trkpt><trkpt lat="40.94025383280032" lon="8.225780703893367"><ele>26.0</ele><time>2026-05-02T11:05:23.001Z</time></trkpt><trkpt lat="40.94022898913626" lon="8.225692810616822"><ele>25.833333333333332</ele><time>2026-05-02T11:05:24.001Z</time></trkpt><trkpt lat="40.94025535868023" lon="8.225590128805065"><ele>25.666666666666664</ele><time>2026-05-02T11:05:25.001Z</time></trkpt><trkpt lat="40.94024241239058" lon="8.22548255425293"><ele>25.5</ele><time>2026-05-02T11:05:26.001Z</time></trkpt><trkpt lat="40.94023890294564" lon="8.22537277156132"><ele>25.333333333333336</ele><time>2026-05-02T11:05:27.001Z</time></trkpt><trkpt lat="40.940242568062125" lon="8.22525995120244"><ele>25.166666666666668</ele><time>2026-05-02T11:05:28.001Z</time></trkpt><trkpt lat="40.940212110847284" lon="8.225132736049853"><ele>25.0</ele><time>2026-05-02T11:05:29.001Z</time></trkpt><trkpt lat="40.94014887751822" lon="8.225028271699015"><ele>25.0</ele><time>2026-05-02T11:05:30.001Z</time></trkpt><trkpt lat="40.94007789247373" lon="8.224943686705567"><ele>25.0</ele><time>2026-05-02T11:05:31.001Z</time></trkpt><trkpt lat="40.93999396464502" lon="8.224873511715938"><ele>25.0</ele><time>2026-05-02T11:05:32.001Z</time></trkpt><trkpt lat="40.939927455554" lon="8.224799354083174"><ele>25.0</ele><time>2026-05-02T11:05:33.001Z</time></trkpt><trkpt lat="40.939858048286794" lon="8.224734264683287"><ele>25.0</ele><time>2026-05-02T11:05:34.001Z</time></trkpt><trkpt lat="40.9397755333806" lon="8.224690646040731"><ele>24.166666666666668</ele><time>2026-05-02T11:05:35.001Z</time></trkpt><trkpt lat="40.939685961117014" lon="8.22466530116788"><ele>23.333333333333336</ele><time>2026-05-02T11:05:36.001Z</time></trkpt><trkpt lat="40.93959719337129" lon="8.224662060993927"><ele>22.5</ele><time>2026-05-02T11:05:37.001Z</time></trkpt><trkpt lat="40.93950610892081" lon="8.224686408244196"><ele>21.666666666666668</ele><time>2026-05-02T11:05:38.001Z</time></trkpt><trkpt lat="40.93941936312924" lon="8.224687079368765"><ele>20.833333333333336</ele><time>2026-05-02T11:05:39.001Z</time></trkpt><trkpt lat="40.939330138403164" lon="8.22469076819365"><ele>20.0</ele><time>2026-05-02T11:05:40.001Z</time></trkpt><trkpt lat="40.939247332111954" lon="8.224668636642365"><ele>19.166666666666668</ele><time>2026-05-02T11:05:41.001Z</time></trkpt><trkpt lat="40.93915985180959" lon="8.224673469270588"><ele>18.333333333333336</ele><time>2026-05-02T11:05:42.001Z</time></trkpt><trkpt lat="40.93908790546384" lon="8.224675176064327"><ele>17.5</ele><time>2026-05-02T11:05:43.001Z</time></trkpt><trkpt lat="40.93900988595205" lon="8.224673971544068"><ele>16.666666666666668</ele><time>2026-05-02T11:05:46.001Z</time></trkpt><trkpt lat="40.938946891209326" lon="8.224601844378798"><ele>15.833333333333334</ele><time>2026-05-02T11:05:49.001Z</time></trkpt><trkpt lat="40.93892283561718" lon="8.224479945465212"><ele>15.0</ele><time>2026-05-02T11:05:51.001Z</time></trkpt><trkpt lat="40.93896842545912" lon="8.224402171052942"><ele>15.0</ele><time>2026-05-02T11:05:52.001Z</time></trkpt><trkpt lat="40.938988926399425" lon="8.224319871098237"><ele>15.0</ele><time>2026-05-02T11:05:53.001Z</time></trkpt><trkpt lat="40.93903020032817" lon="8.224225603580436"><ele>15.0</ele><time>2026-05-02T11:05:54.001Z</time></trkpt><trkpt lat="40.93906400923564" lon="8.224142060872035"><ele>15.0</ele><time>2026-05-02T11:05:55.001Z</time></trkpt><trkpt lat="40.93909764799081" lon="8.2240593443724"><ele>15.0</ele><time>2026-05-02T11:05:56.001Z</time></trkpt><trkpt lat="40.9391312590357" lon="8.223982096524654"><ele>15.0</ele><time>2026-05-02T11:05:57.001Z</time></trkpt><trkpt lat="40.939159890009854" lon="8.223901250621013"><ele>15.0</ele><time>2026-05-02T11:05:58.001Z</time></trkpt><trkpt lat="40.93919093716416" lon="8.223759240403549"><ele>14.666666666666666</ele><time>2026-05-02T11:06:00.001Z</time></trkpt><trkpt lat="40.939203079509724" lon="8.223654285590454"><ele>14.333333333333332</ele><time>2026-05-02T11:06:02.001Z</time></trkpt><trkpt lat="40.93921453986962" lon="8.223561933572297"><ele>14.0</ele><time>2026-05-02T11:06:04.001Z</time></trkpt><trkpt lat="40.93922904107051" lon="8.223468402943599"><ele>13.666666666666666</ele><time>2026-05-02T11:06:14.001Z</time></trkpt><trkpt lat="40.9392401383219" lon="8.223373914747299"><ele>13.333333333333332</ele><time>2026-05-02T11:06:19Z</time></trkpt><trkpt lat="40.939130624171675" lon="8.223349253850785"><ele>13.0</ele><time>2026-05-02T11:06:20Z</time></trkpt><trkpt lat="40.939063930845364" lon="8.2233517960946"><ele>12.200000000000001</ele><time>2026-05-02T11:06:21Z</time></trkpt><trkpt lat="40.9389822915811" lon="8.223339473639607"><ele>11.4</ele><time>2026-05-02T11:06:22Z</time></trkpt><trkpt lat="40.938884813165785" lon="8.223313308023531"><ele>10.600000000000001</ele><time>2026-05-02T11:06:23Z</time></trkpt><trkpt lat="40.9387809403233" lon="8.223284293606474"><ele>9.8</ele><time>2026-05-02T11:06:24Z</time></trkpt><trkpt lat="40.93867335163561" lon="8.223252528204961"><ele>9.0</ele><time>2026-05-02T11:06:25Z</time></trkpt><trkpt lat="40.938571466405094" lon="8.22322265932161"><ele>9.0</ele><time>2026-05-02T11:06:26Z</time></trkpt><trkpt lat="40.93844685550775" lon="8.22319720410576"><ele>9.0</ele><time>2026-05-02T11:06:27Z</time></trkpt><trkpt lat="40.938318258681456" lon="8.223211205998382"><ele>9.0</ele><time>2026-05-02T11:06:28Z</time></trkpt><trkpt lat="40.93820652664354" lon="8.223262839038172"><ele>9.0</ele><time>2026-05-02T11:06:29Z</time></trkpt><trkpt lat="40.9381194985227" lon="8.22337418593282"><ele>9.25</ele><time>2026-05-02T11:06:30Z</time></trkpt><trkpt lat="40.93803091521033" lon="8.223471676395045"><ele>9.5</ele><time>2026-05-02T11:06:31Z</time></trkpt><trkpt lat="40.93795443005674" lon="8.223593062374308"><ele>9.75</ele><time>2026-05-02T11:06:32Z</time></trkpt><trkpt lat="40.937881469738564" lon="8.22371354593456"><ele>10.0</ele><time>2026-05-02T11:06:33Z</time></trkpt><trkpt lat="40.93781786321283" lon="8.223850207261703"><ele>9.0</ele><time>2026-05-02T11:06:34Z</time></trkpt><trkpt lat="40.93777709260016" lon="8.223991599560629"><ele>8.0</ele><time>2026-05-02T11:06:35Z</time></trkpt><trkpt lat="40.93776369650407" lon="8.22414811453334"><ele>7.0</ele><time>2026-05-02T11:06:36Z</time></trkpt><trkpt lat="40.93780765439921" lon="8.224318708636787"><ele>6.0</ele><time>2026-05-02T11:06:37Z</time></trkpt><trkpt lat="40.937779526497074" lon="8.224465647236658"><ele>6.0</ele><time>2026-05-02T11:06:38Z</time></trkpt><trkpt lat="40.93775732605076" lon="8.224602346580696"><ele>6.0</ele><time>2026-05-02T11:06:39Z</time></trkpt><trkpt lat="40.937742200727186" lon="8.22474829396719"><ele>6.0</ele><time>2026-05-02T11:06:40Z</time></trkpt><trkpt lat="40.93772403210305" lon="8.224889340624202"><ele>6.0</ele><time>2026-05-02T11:06:41Z</time></trkpt><trkpt lat="40.93770330883913" lon="8.225025016537234"><ele>6.0</ele><time>2026-05-02T11:06:42Z</time></trkpt><trkpt lat="40.93768630304679" lon="8.225154862792255"><ele>6.199999999999999</ele><time>2026-05-02T11:06:43Z</time></trkpt><trkpt lat="40.937669881585855" lon="8.225270112741562"><ele>6.3999999999999995</ele><time>2026-05-02T11:06:44Z</time></trkpt><trkpt lat="40.93765420624614" lon="8.225355936652758"><ele>6.6</ele><time>2026-05-02T11:06:45Z</time></trkpt><trkpt lat="40.937479625971754" lon="8.225309145563322"><ele>6.8</ele><time>2026-05-02T11:06:49Z</time></trkpt><trkpt lat="40.937403546466335" lon="8.225284215803475"><ele>7.0</ele><time>2026-05-02T11:06:50Z</time></trkpt><trkpt lat="40.93728890798145" lon="8.22524480219558"><ele>7.0</ele><time>2026-05-02T11:06:52Z</time></trkpt><trkpt lat="40.937212265885066" lon="8.225218207697116"><ele>6.999999999999999</ele><time>2026-05-02T11:06:53Z</time></trkpt><trkpt lat="40.93713182489609" lon="8.225190295052906"><ele>6.999999999999999</ele><time>2026-05-02T11:06:55Z</time></trkpt><trkpt lat="40.93708841757431" lon="8.225387166708705"><ele>7.0</ele><time>2026-05-02T11:06:57Z</time></trkpt><trkpt lat="40.93708074401782" lon="8.225505168568224"><ele>7.0</ele><time>2026-05-02T11:06:58Z</time></trkpt><trkpt lat="40.937068782031716" lon="8.225607111594172"><ele>7.199999999999999</ele><time>2026-05-02T11:06:59Z</time></trkpt><trkpt lat="40.937048751933304" lon="8.225765996896616"><ele>7.3999999999999995</ele><time>2026-05-02T11:07:01Z</time></trkpt><trkpt lat="40.937032664861775" lon="8.225906426027972"><ele>7.6000000000000005</ele><time>2026-05-02T11:07:03Z</time></trkpt><trkpt lat="40.9370148698319" lon="8.226034469570749"><ele>7.800000000000001</ele><time>2026-05-02T11:07:05Z</time></trkpt><trkpt lat="40.93700527084781" lon="8.226151790490384"><ele>8.0</ele><time>2026-05-02T11:07:08Z</time></trkpt><trkpt lat="40.936993167302234" lon="8.226233817983578"><ele>7.999999999999999</ele><time>2026-05-02T11:07:11Z</time></trkpt><trkpt lat="40.93697618172769" lon="8.226314586018912"><ele>8.0</ele><time>2026-05-02T11:07:15Z</time></trkpt><trkpt lat="40.93696901440144" lon="8.226407329058613"><ele>8.0</ele><time>2026-05-02T11:07:17Z</time></trkpt><trkpt lat="40.936950915506834" lon="8.226535647939343"><ele>8.0</ele><time>2026-05-02T11:07:19Z</time></trkpt><trkpt lat="40.93693401956903" lon="8.226674438819945"><ele>7.999999999999999</ele><time>2026-05-02T11:07:21Z</time></trkpt><trkpt lat="40.93691184281547" lon="8.226809841773152"><ele>8.0</ele><time>2026-05-02T11:07:23Z</time></trkpt><trkpt lat="40.936887197256226" lon="8.226925658162513"><ele>8.600000000000001</ele><time>2026-05-02T11:07:25Z</time></trkpt><trkpt lat="40.93687139913886" lon="8.22705095423249"><ele>9.200000000000001</ele><time>2026-05-02T11:07:27Z</time></trkpt><trkpt lat="40.93688718696016" lon="8.227161290495108"><ele>9.8</ele><time>2026-05-02T11:07:29Z</time></trkpt><trkpt lat="40.93690668865516" lon="8.227275864660445"><ele>10.4</ele><time>2026-05-02T11:07:31Z</time></trkpt><trkpt lat="40.936906563964136" lon="8.227398425627536"><ele>11.0</ele><time>2026-05-02T11:07:33Z</time></trkpt><trkpt lat="40.936890919769084" lon="8.227514351818993"><ele>11.0</ele><time>2026-05-02T11:07:35Z</time></trkpt><trkpt lat="40.93686700768141" lon="8.227637036663126"><ele>11.0</ele><time>2026-05-02T11:07:37Z</time></trkpt><trkpt lat="40.936850539198836" lon="8.227746334919292"><ele>11.0</ele><time>2026-05-02T11:07:39Z</time></trkpt><trkpt lat="40.93680236240248" lon="8.227827288425278"><ele>11.0</ele><time>2026-05-02T11:07:42Z</time></trkpt><trkpt lat="40.93675872064562" lon="8.22790247973533"><ele>11.0</ele><time>2026-05-02T11:07:46Z</time></trkpt><trkpt lat="40.936722091695344" lon="8.22800360488887"><ele>11.0</ele><time>2026-05-02T11:07:48Z</time></trkpt><trkpt lat="40.93670842547573" lon="8.22813138598579"><ele>10.0</ele><time>2026-05-02T11:07:50Z</time></trkpt><trkpt lat="40.93668228213477" lon="8.228290836344533"><ele>9.0</ele><time>2026-05-02T11:07:52Z</time></trkpt><trkpt lat="40.93666325654884" lon="8.2283756362779"><ele>8.0</ele><time>2026-05-02T11:07:53Z</time></trkpt><trkpt lat="40.93665399034866" lon="8.228469740591567"><ele>7.0</ele><time>2026-05-02T11:07:54Z</time></trkpt><trkpt lat="40.93663540899172" lon="8.228551889576446"><ele>6.0</ele><time>2026-05-02T11:07:55Z</time></trkpt><trkpt lat="40.936611144001915" lon="8.228675630037845"><ele>5.0</ele><time>2026-05-02T11:07:57Z</time></trkpt><trkpt lat="40.93659413411512" lon="8.22878912643031"><ele>5.0</ele><time>2026-05-02T11:07:59Z</time></trkpt><trkpt lat="40.93654670909403" lon="8.228878753160672"><ele>5.0</ele><time>2026-05-02T11:08:01.001Z</time></trkpt><trkpt lat="40.93645115876096" lon="8.228903550951259"><ele>5.0</ele><time>2026-05-02T11:08:03.001Z</time></trkpt><trkpt lat="40.936351224339006" lon="8.228876404855226"><ele>5.0</ele><time>2026-05-02T11:08:05.001Z</time></trkpt><trkpt lat="40.93627651735887" lon="8.228849093095167"><ele>5.0</ele><time>2026-05-02T11:08:07.001Z</time></trkpt><trkpt lat="40.93620076951083" lon="8.22882735440145"><ele>5.0</ele><time>2026-05-02T11:08:09.001Z</time></trkpt><trkpt lat="40.936136604609935" lon="8.228848295581631"><ele>5.0</ele><time>2026-05-02T11:08:11.001Z</time></trkpt><trkpt lat="40.93609987833682" lon="8.228919452613885"><ele>5.0</ele><time>2026-05-02T11:08:13.001Z</time></trkpt><trkpt lat="40.936076928925225" lon="8.2290099381647"><ele>5.0</ele><time>2026-05-02T11:08:15Z</time></trkpt><trkpt lat="40.93602626666648" lon="8.229067845702211"><ele>5.0</ele><time>2026-05-02T11:08:18Z</time></trkpt><trkpt lat="40.93596042459627" lon="8.229133964989844"><ele>5.0</ele><time>2026-05-02T11:08:22Z</time></trkpt><trkpt lat="40.93591970524397" lon="8.22924309712764"><ele>5.0</ele><time>2026-05-02T11:08:26Z</time></trkpt><trkpt lat="40.93590522812298" lon="8.229344449059994"><ele>5.0</ele><time>2026-05-02T11:08:29Z</time></trkpt><trkpt lat="40.935893882396165" lon="8.2294443838859"><ele>5.0</ele><time>2026-05-02T11:08:33Z</time></trkpt><trkpt lat="40.93586840979359" lon="8.229522213907943"><ele>5.0</ele><time>2026-05-02T11:08:35Z</time></trkpt><trkpt lat="40.935855687764004" lon="8.229614677793604"><ele>5.0</ele><time>2026-05-02T11:08:38Z</time></trkpt><trkpt lat="40.93588606907962" lon="8.229747208422054"><ele>5.0</ele><time>2026-05-02T11:09:01Z</time></trkpt><trkpt lat="40.93592392056492" lon="8.229814967928247"><ele>5.0</ele><time>2026-05-02T11:09:03Z</time></trkpt><trkpt lat="40.93598210878099" lon="8.229879645355162"><ele>5.0</ele><time>2026-05-02T11:09:07Z</time></trkpt><trkpt lat="40.93594224911164" lon="8.229804057243578"><ele>8.0</ele><time>2026-05-02T11:09:26Z</time></trkpt><trkpt lat="40.935912676875105" lon="8.229728661620436"><ele>8.0</ele><time>2026-05-02T11:10:48Z</time></trkpt><trkpt lat="40.935871989236546" lon="8.229657137282006"><ele>2.0</ele><time>2026-05-02T11:10:55Z</time></trkpt><trkpt lat="40.93589403030044" lon="8.22957785261163"><ele>8.0</ele><time>2026-05-02T11:11:00Z</time></trkpt><trkpt lat="40.93589435975281" lon="8.229492076201767"><ele>8.0</ele><time>2026-05-02T11:11:06Z</time></trkpt><trkpt lat="40.935896116615126" lon="8.229404486105357"><ele>8.0</ele><time>2026-05-02T11:11:15Z</time></trkpt></trkseg><trkseg><trkpt lat="40.9360437612878" lon="8.229902300231172"><ele>5.0</ele><time>2026-05-02T13:11:37Z</time></trkpt><trkpt lat="40.936135843365044" lon="8.229939442173897"><ele>5.0</ele><time>2026-05-02T13:11:40Z</time></trkpt><trkpt lat="40.93622373448523" lon="8.22996090944013"><ele>5.0</ele><time>2026-05-02T13:11:42Z</time></trkpt><trkpt lat="40.936325756922244" lon="8.229990526603567"><ele>5.0</ele><time>2026-05-02T13:11:44Z</time></trkpt><trkpt lat="40.936434774790364" lon="8.230029816625816"><ele>5.0</ele><time>2026-05-02T13:11:46Z</time></trkpt><trkpt lat="40.93653673252017" lon="8.230071364307404"><ele>5.0</ele><time>2026-05-02T13:11:48Z</time></trkpt><trkpt lat="40.93660878771206" lon="8.230104143542796"><ele>5.0</ele><time>2026-05-02T13:11:50Z</time></trkpt><trkpt lat="40.936682921594326" lon="8.23010717689092"><ele>5.0</ele><time>2026-05-02T13:11:54Z</time></trkpt><trkpt lat="40.936683450478526" lon="8.229943822386277"><ele>5.0</ele><time>2026-05-02T13:11:55Z</time></trkpt><trkpt lat="40.93670829240167" lon="8.229794860797428"><ele>5.0</ele><time>2026-05-02T13:11:56Z</time></trkpt><trkpt lat="40.93672303530081" lon="8.22966242657709"><ele>5.5</ele><time>2026-05-02T13:11:57Z</time></trkpt><trkpt lat="40.93673848798594" lon="8.229558537886948"><ele>6.0</ele><time>2026-05-02T13:11:58Z</time></trkpt><trkpt lat="40.936751594111335" lon="8.229458571977078"><ele>6.5</ele><time>2026-05-02T13:11:59Z</time></trkpt><trkpt lat="40.936766433562774" lon="8.229363581040538"><ele>7.0</ele><time>2026-05-02T13:12:00Z</time></trkpt><trkpt lat="40.93678723197469" lon="8.229266468979116"><ele>7.499999999999999</ele><time>2026-05-02T13:12:01Z</time></trkpt><trkpt lat="40.936800255827286" lon="8.22916977150328"><ele>8.0</ele><time>2026-05-02T13:12:02Z</time></trkpt><trkpt lat="40.93682431408775" lon="8.229019746459663"><ele>8.5</ele><time>2026-05-02T13:12:04Z</time></trkpt><trkpt lat="40.93684464640722" lon="8.22886473931172"><ele>9.0</ele><time>2026-05-02T13:12:06Z</time></trkpt><trkpt lat="40.93685891626508" lon="8.228773051980108"><ele>9.5</ele><time>2026-05-02T13:12:07Z</time></trkpt><trkpt lat="40.93687142812154" lon="8.228677006894747"><ele>10.0</ele><time>2026-05-02T13:12:08Z</time></trkpt><trkpt lat="40.936881143375246" lon="8.228582158497137"><ele>10.5</ele><time>2026-05-02T13:12:09Z</time></trkpt><trkpt lat="40.93689662601742" lon="8.228480047980275"><ele>11.0</ele><time>2026-05-02T13:12:10Z</time></trkpt><trkpt lat="40.93691028443719" lon="8.228370357517047"><ele>11.0</ele><time>2026-05-02T13:12:11Z</time></trkpt><trkpt lat="40.936933153227564" lon="8.22829237107904"><ele>11.0</ele><time>2026-05-02T13:12:12Z</time></trkpt><trkpt lat="40.93695271933027" lon="8.228133371808191"><ele>11.0</ele><time>2026-05-02T13:12:14Z</time></trkpt><trkpt lat="40.93697771015101" lon="8.228007938469391"><ele>11.0</ele><time>2026-05-02T13:12:16Z</time></trkpt><trkpt lat="40.936986808752415" lon="8.227881294109638"><ele>11.0</ele><time>2026-05-02T13:12:18Z</time></trkpt><trkpt lat="40.937008753382756" lon="8.227725651349836"><ele>11.0</ele><time>2026-05-02T13:12:20Z</time></trkpt><trkpt lat="40.93702590476315" lon="8.227641316287107"><ele>11.0</ele><time>2026-05-02T13:12:21Z</time></trkpt><trkpt lat="40.937039252639174" lon="8.227553549918335"><ele>11.0</ele><time>2026-05-02T13:12:22Z</time></trkpt><trkpt lat="40.937066239394156" lon="8.227389749879206"><ele>11.0</ele><time>2026-05-02T13:12:24Z</time></trkpt><trkpt lat="40.93708921328758" lon="8.22730758381043"><ele>11.0</ele><time>2026-05-02T13:12:25Z</time></trkpt><trkpt lat="40.93710676686426" lon="8.227225959482224"><ele>11.0</ele><time>2026-05-02T13:12:26Z</time></trkpt><trkpt lat="40.937118409677474" lon="8.227141726689197"><ele>11.0</ele><time>2026-05-02T13:12:27Z</time></trkpt><trkpt lat="40.937133702909385" lon="8.22705651906905"><ele>11.0</ele><time>2026-05-02T13:12:28Z</time></trkpt><trkpt lat="40.93714816278849" lon="8.226958587839578"><ele>11.0</ele><time>2026-05-02T13:12:29Z</time></trkpt><trkpt lat="40.93716376733275" lon="8.226852358881533"><ele>11.0</ele><time>2026-05-02T13:12:30Z</time></trkpt><trkpt lat="40.93718824889602" lon="8.226755334113175"><ele>11.0</ele><time>2026-05-02T13:12:31Z</time></trkpt><trkpt lat="40.93720412750761" lon="8.226657406989464"><ele>11.0</ele><time>2026-05-02T13:12:32Z</time></trkpt><trkpt lat="40.93721541295462" lon="8.226553367197484"><ele>10.4</ele><time>2026-05-02T13:12:33Z</time></trkpt><trkpt lat="40.93722506196233" lon="8.22646821185676"><ele>9.8</ele><time>2026-05-02T13:12:34Z</time></trkpt><trkpt lat="40.93723718240018" lon="8.226380878882113"><ele>9.200000000000001</ele><time>2026-05-02T13:12:37Z</time></trkpt><trkpt lat="40.93705006577964" lon="8.22629644411088"><ele>8.600000000000001</ele><time>2026-05-02T13:12:42Z</time></trkpt><trkpt lat="40.936951831908274" lon="8.226241615344726"><ele>8.0</ele><time>2026-05-02T13:12:44Z</time></trkpt><trkpt lat="40.93684747488678" lon="8.22619442541495"><ele>7.999999999999999</ele><time>2026-05-02T13:12:46Z</time></trkpt><trkpt lat="40.93677053012258" lon="8.226167386964589"><ele>8.0</ele><time>2026-05-02T13:12:47Z</time></trkpt><trkpt lat="40.93668277199142" lon="8.226134159508332"><ele>8.0</ele><time>2026-05-02T13:12:48Z</time></trkpt><trkpt lat="40.936594975246074" lon="8.22609974647501"><ele>8.0</ele><time>2026-05-02T13:12:49Z</time></trkpt><trkpt lat="40.93650500116187" lon="8.226081230448807"><ele>7.999999999999999</ele><time>2026-05-02T13:12:50Z</time></trkpt><trkpt lat="40.93641455777549" lon="8.226076194672054"><ele>8.0</ele><time>2026-05-02T13:12:51Z</time></trkpt><trkpt lat="40.93632098945092" lon="8.226094435790493"><ele>7.6000000000000005</ele><time>2026-05-02T13:12:52Z</time></trkpt><trkpt lat="40.9362329738659" lon="8.2261408164051"><ele>7.200000000000001</ele><time>2026-05-02T13:12:53Z</time></trkpt><trkpt lat="40.93616107159123" lon="8.226222146083927"><ele>6.8</ele><time>2026-05-02T13:12:54Z</time></trkpt><trkpt lat="40.93610176534229" lon="8.226322792688366"><ele>6.4</ele><time>2026-05-02T13:12:55Z</time></trkpt><trkpt lat="40.936058357334396" lon="8.226428422112159"><ele>6.0</ele><time>2026-05-02T13:12:56Z</time></trkpt><trkpt lat="40.93604678009213" lon="8.226550579939458"><ele>5.666666666666667</ele><time>2026-05-02T13:12:57Z</time></trkpt><trkpt lat="40.93605007131082" lon="8.226662144839313"><ele>5.333333333333333</ele><time>2026-05-02T13:12:58Z</time></trkpt><trkpt lat="40.93604109183082" lon="8.226771518799188"><ele>5.0</ele><time>2026-05-02T13:12:59Z</time></trkpt><trkpt lat="40.93604417583559" lon="8.226879088926749"><ele>4.666666666666666</ele><time>2026-05-02T13:13:00Z</time></trkpt><trkpt lat="40.936052510162405" lon="8.226983177726405"><ele>4.333333333333333</ele><time>2026-05-02T13:13:01Z</time></trkpt><trkpt lat="40.936043484346314" lon="8.227100175831785"><ele>4.0</ele><time>2026-05-02T13:13:02Z</time></trkpt><trkpt lat="40.936022171333036" lon="8.22721880071284"><ele>4.2</ele><time>2026-05-02T13:13:03Z</time></trkpt><trkpt lat="40.93598322199969" lon="8.227341682638128"><ele>4.4</ele><time>2026-05-02T13:13:04Z</time></trkpt><trkpt lat="40.93592787111447" lon="8.227476647302849"><ele>4.6</ele><time>2026-05-02T13:13:05Z</time></trkpt><trkpt lat="40.935844764153195" lon="8.227582241136885"><ele>4.8</ele><time>2026-05-02T13:13:06Z</time></trkpt><trkpt lat="40.93574663776144" lon="8.22763607718402"><ele>5.0</ele><time>2026-05-02T13:13:07Z</time></trkpt><trkpt lat="40.93561020900612" lon="8.227668113875524"><ele>5.0</ele><time>2026-05-02T13:13:08Z</time></trkpt><trkpt lat="40.93546878021781" lon="8.22772270618861"><ele>5.0</ele><time>2026-05-02T13:13:09Z</time></trkpt><trkpt lat="40.93533438690544" lon="8.227777682894013"><ele>5.0</ele><time>2026-05-02T13:13:09.997Z</time></trkpt><trkpt lat="40.93521480080378" lon="8.22784438522437"><ele>5.0</ele><time>2026-05-02T13:13:10.997Z</time></trkpt><trkpt lat="40.93512286513945" lon="8.227957819426965"><ele>4.75</ele><time>2026-05-02T13:13:12.997Z</time></trkpt><trkpt lat="40.935035841610265" lon="8.228051751248282"><ele>4.5</ele><time>2026-05-02T13:13:13.997Z</time></trkpt><trkpt lat="40.93495919410456" lon="8.228173841283041"><ele>4.25</ele><time>2026-05-02T13:13:14.997Z</time></trkpt><trkpt lat="40.93487866704463" lon="8.228284014963391"><ele>4.0</ele><time>2026-05-02T13:13:15.997Z</time></trkpt><trkpt lat="40.93480078904681" lon="8.228396532138568"><ele>4.0</ele><time>2026-05-02T13:13:16.997Z</time></trkpt><trkpt lat="40.93471967221619" lon="8.228501508557052"><ele>4.0</ele><time>2026-05-02T13:13:17.997Z</time></trkpt><trkpt lat="40.93463626457983" lon="8.228604785072216"><ele>4.0</ele><time>2026-05-02T13:13:18.998Z</time></trkpt><trkpt lat="40.93455257082726" lon="8.228700652397148"><ele>4.0</ele><time>2026-05-02T13:13:19.998Z</time></trkpt><trkpt lat="40.93445416373223" lon="8.22875837393954"><ele>4.0</ele><time>2026-05-02T13:13:20.998Z</time></trkpt><trkpt lat="40.9343642055239" lon="8.228816148976744"><ele>3.9999999999999996</ele><time>2026-05-02T13:13:21.998Z</time></trkpt><trkpt lat="40.93428777621716" lon="8.228792362666908"><ele>4.0</ele><time>2026-05-02T13:13:22.998Z</time></trkpt><trkpt lat="40.93422609397272" lon="8.228740993346676"><ele>4.0</ele><time>2026-05-02T13:13:23.998Z</time></trkpt><trkpt lat="40.93416061517947" lon="8.228668843232741"><ele>4.0</ele><time>2026-05-02T13:13:24.998Z</time></trkpt><trkpt lat="40.93410682341093" lon="8.22855517597269"><ele>3.9999999999999996</ele><time>2026-05-02T13:13:25.998Z</time></trkpt><trkpt lat="40.93408724301668" lon="8.228421796508124"><ele>4.0</ele><time>2026-05-02T13:13:26.998Z</time></trkpt><trkpt lat="40.93405461762428" lon="8.228253589943005"><ele>5.4</ele><time>2026-05-02T13:13:27.998Z</time></trkpt><trkpt lat="40.933970574667796" lon="8.228108685807483"><ele>6.800000000000001</ele><time>2026-05-02T13:13:28.998Z</time></trkpt><trkpt lat="40.933882723370516" lon="8.228004749185642"><ele>8.200000000000001</ele><time>2026-05-02T13:13:29.998Z</time></trkpt><trkpt lat="40.93378783561014" lon="8.227959846329927"><ele>9.600000000000001</ele><time>2026-05-02T13:13:30.998Z</time></trkpt><trkpt lat="40.93373017118508" lon="8.227897974092217"><ele>11.0</ele><time>2026-05-02T13:13:31.998Z</time></trkpt><trkpt lat="40.93378201220054" lon="8.227755619606642"><ele>11.0</ele><time>2026-05-02T13:13:34.998Z</time></trkpt><trkpt lat="40.9338718209856" lon="8.227685160778583"><ele>11.0</ele><time>2026-05-02T13:13:35.999Z</time></trkpt><trkpt lat="40.93397200071223" lon="8.227622809078033"><ele>11.0</ele><time>2026-05-02T13:13:36.999Z</time></trkpt><trkpt lat="40.934064347439865" lon="8.227537207468293"><ele>11.0</ele><time>2026-05-02T13:13:37.999Z</time></trkpt><trkpt lat="40.93412690796461" lon="8.2274075826941"><ele>11.0</ele><time>2026-05-02T13:13:38.999Z</time></trkpt><trkpt lat="40.93412647746672" lon="8.227253539750034"><ele>12.25</ele><time>2026-05-02T13:13:39.999Z</time></trkpt><trkpt lat="40.934121167967" lon="8.227099673828954"><ele>13.5</ele><time>2026-05-02T13:13:40.999Z</time></trkpt><trkpt lat="40.93414255828765" lon="8.226937044220405"><ele>14.75</ele><time>2026-05-02T13:13:41.999Z</time></trkpt><trkpt lat="40.93416687527093" lon="8.226784107323601"><ele>16.0</ele><time>2026-05-02T13:13:42.999Z</time></trkpt><trkpt lat="40.93421373150799" lon="8.226647989900057"><ele>16.2</ele><time>2026-05-02T13:13:43.999Z</time></trkpt><trkpt lat="40.934249955147244" lon="8.226512427985426"><ele>16.400000000000002</ele><time>2026-05-02T13:13:44.999Z</time></trkpt><trkpt lat="40.9342418879895" lon="8.226376979574543"><ele>16.6</ele><time>2026-05-02T13:13:45.999Z</time></trkpt><trkpt lat="40.93421375946443" lon="8.226224762703215"><ele>16.8</ele><time>2026-05-02T13:13:46.999Z</time></trkpt><trkpt lat="40.93418392085722" lon="8.226079637267794"><ele>17.0</ele><time>2026-05-02T13:13:47.999Z</time></trkpt><trkpt lat="40.934164633073486" lon="8.225950433694571"><ele>17.0</ele><time>2026-05-02T13:13:48.999Z</time></trkpt><trkpt lat="40.934141646700105" lon="8.225818832894376"><ele>17.0</ele><time>2026-05-02T13:13:49.999Z</time></trkpt><trkpt lat="40.934113777259135" lon="8.225685505852407"><ele>17.0</ele><time>2026-05-02T13:13:50.999Z</time></trkpt><trkpt lat="40.934078207868595" lon="8.225536175457583"><ele>17.0</ele><time>2026-05-02T13:13:51.999Z</time></trkpt><trkpt lat="40.93402602612908" lon="8.225389246364465"><ele>17.0</ele><time>2026-05-02T13:13:52.999Z</time></trkpt><trkpt lat="40.93398514361064" lon="8.225242328645624"><ele>17.6</ele><time>2026-05-02T13:13:53.999Z</time></trkpt><trkpt lat="40.933964205233146" lon="8.22512315438982"><ele>18.2</ele><time>2026-05-02T13:13:54.999Z</time></trkpt><trkpt lat="40.93397368093689" lon="8.224992443872587"><ele>18.8</ele><time>2026-05-02T13:13:55.999Z</time></trkpt><trkpt lat="40.93402254658763" lon="8.224884334028028"><ele>19.4</ele><time>2026-05-02T13:13:56.999Z</time></trkpt><trkpt lat="40.934088486352685" lon="8.224798628518624"><ele>20.0</ele><time>2026-05-02T13:13:58.999Z</time></trkpt><trkpt lat="40.934076019313615" lon="8.22462611725666"><ele>20.666666666666668</ele><time>2026-05-02T13:14:01.999Z</time></trkpt><trkpt lat="40.93401236527997" lon="8.224578153642295"><ele>21.333333333333336</ele><time>2026-05-02T13:14:02.999Z</time></trkpt><trkpt lat="40.93394410404307" lon="8.224509528733039"><ele>22.0</ele><time>2026-05-02T13:14:03.999Z</time></trkpt><trkpt lat="40.93386589777221" lon="8.224453275314552"><ele>22.666666666666668</ele><time>2026-05-02T13:14:04.999Z</time></trkpt><trkpt lat="40.9337776188397" lon="8.224389139811514"><ele>23.333333333333332</ele><time>2026-05-02T13:14:05.999Z</time></trkpt><trkpt lat="40.93369733110313" lon="8.224325559109515"><ele>24.0</ele><time>2026-05-02T13:14:06.999Z</time></trkpt><trkpt lat="40.93364019053578" lon="8.224270340790978"><ele>24.0</ele><time>2026-05-02T13:14:07.999Z</time></trkpt><trkpt lat="40.933621303971705" lon="8.224139164451552"><ele>24.0</ele><time>2026-05-02T13:14:09.999Z</time></trkpt><trkpt lat="40.933704138909434" lon="8.223981738641891"><ele>24.0</ele><time>2026-05-02T13:14:11.999Z</time></trkpt><trkpt lat="40.933742218998226" lon="8.223882728670795"><ele>24.0</ele><time>2026-05-02T13:14:12.999Z</time></trkpt><trkpt lat="40.93377796552043" lon="8.223748686713904"><ele>24.0</ele><time>2026-05-02T13:14:13.999Z</time></trkpt><trkpt lat="40.93376864489028" lon="8.22361126051314"><ele>24.0</ele><time>2026-05-02T13:14:14.999Z</time></trkpt><trkpt lat="40.93378806725576" lon="8.223503488977242"><ele>24.0</ele><time>2026-05-02T13:14:15.999Z</time></trkpt><trkpt lat="40.93379848808789" lon="8.223403605945277"><ele>24.0</ele><time>2026-05-02T13:14:16.999Z</time></trkpt><trkpt lat="40.933825985353764" lon="8.223313744412758"><ele>24.0</ele><time>2026-05-02T13:14:17.999Z</time></trkpt><trkpt lat="40.93385978616713" lon="8.223150365394105"><ele>24.0</ele><time>2026-05-02T13:14:19.999Z</time></trkpt><trkpt lat="40.933838132158705" lon="8.2230568478292"><ele>24.0</ele><time>2026-05-02T13:14:20.999Z</time></trkpt><trkpt lat="40.933791137654495" lon="8.222985581180756"><ele>24.0</ele><time>2026-05-02T13:14:21.999Z</time></trkpt><trkpt lat="40.933733804337" lon="8.222917841737985"><ele>24.0</ele><time>2026-05-02T13:14:22.999Z</time></trkpt><trkpt lat="40.93364387260184" lon="8.222908524938228"><ele>24.0</ele><time>2026-05-02T13:14:23.999Z</time></trkpt><trkpt lat="40.93356912544802" lon="8.222982090411211"><ele>24.0</ele><time>2026-05-02T13:14:24.999Z</time></trkpt><trkpt lat="40.9335036757048" lon="8.2230745824772"><ele>24.0</ele><time>2026-05-02T13:14:25.999Z</time></trkpt><trkpt lat="40.93343431136353" lon="8.223187468306357"><ele>24.5</ele><time>2026-05-02T13:14:26.999Z</time></trkpt><trkpt lat="40.93336361930183" lon="8.223305077841973"><ele>25.0</ele><time>2026-05-02T13:14:27.999Z</time></trkpt><trkpt lat="40.93325285331941" lon="8.223394099041359"><ele>25.5</ele><time>2026-05-02T13:14:28.999Z</time></trkpt><trkpt lat="40.93310660706803" lon="8.22341405848236"><ele>26.0</ele><time>2026-05-02T13:14:29.999Z</time></trkpt><trkpt lat="40.93295236175809" lon="8.223470530518739"><ele>26.0</ele><time>2026-05-02T13:14:30.999Z</time></trkpt><trkpt lat="40.93279929128498" lon="8.223524782060412"><ele>26.0</ele><time>2026-05-02T13:14:31.999Z</time></trkpt><trkpt lat="40.93264087049709" lon="8.22357806215543"><ele>26.0</ele><time>2026-05-02T13:14:32.999Z</time></trkpt><trkpt lat="40.932475189572" lon="8.223632731904065"><ele>24.333333333333332</ele><time>2026-05-02T13:14:33.999Z</time></trkpt><trkpt lat="40.93229252458402" lon="8.223693005871624"><ele>22.666666666666664</ele><time>2026-05-02T13:14:34.999Z</time></trkpt><trkpt lat="40.93212059494999" lon="8.223749737492396"><ele>21.0</ele><time>2026-05-02T13:14:35.999Z</time></trkpt><trkpt lat="40.93194060845556" lon="8.223809309427887"><ele>21.0</ele><time>2026-05-02T13:14:36.999Z</time></trkpt><trkpt lat="40.93175625910453" lon="8.223893041988871"><ele>21.0</ele><time>2026-05-02T13:14:37.999Z</time></trkpt><trkpt lat="40.93156016232938" lon="8.223935590233589"><ele>21.0</ele><time>2026-05-02T13:14:38.999Z</time></trkpt><trkpt lat="40.93136651685736" lon="8.22399986662517"><ele>18.333333333333332</ele><time>2026-05-02T13:14:39.999Z</time></trkpt><trkpt lat="40.931163406607695" lon="8.224067284661636"><ele>15.666666666666666</ele><time>2026-05-02T13:14:40.999Z</time></trkpt><trkpt lat="40.93094479323608" lon="8.224138810277546"><ele>13.0</ele><time>2026-05-02T13:14:42Z</time></trkpt><trkpt lat="40.930715946857674" lon="8.224213317336941"><ele>11.5</ele><time>2026-05-02T13:14:43Z</time></trkpt><trkpt lat="40.93047288351551" lon="8.22429307224089"><ele>10.0</ele><time>2026-05-02T13:14:44Z</time></trkpt><trkpt lat="40.930223943123345" lon="8.224375247388185"><ele>10.0</ele><time>2026-05-02T13:14:45Z</time></trkpt><trkpt lat="40.929964580423146" lon="8.224459829680006"><ele>10.0</ele><time>2026-05-02T13:14:46Z</time></trkpt><trkpt lat="40.92969872509767" lon="8.224547505814192"><ele>10.0</ele><time>2026-05-02T13:14:47Z</time></trkpt><trkpt lat="40.92943007476284" lon="8.224636103627972"><ele>10.0</ele><time>2026-05-02T13:14:48Z</time></trkpt><trkpt lat="40.92916003226817" lon="8.224725162067687"><ele>9.5</ele><time>2026-05-02T13:14:49Z</time></trkpt><trkpt lat="40.928885451235104" lon="8.224815715794072"><ele>9.0</ele><time>2026-05-02T13:14:50Z</time></trkpt><trkpt lat="40.928611354677074" lon="8.224906057742599"><ele>10.5</ele><time>2026-05-02T13:14:51Z</time></trkpt><trkpt lat="40.92833492009755" lon="8.224996609049317"><ele>12.0</ele><time>2026-05-02T13:14:52Z</time></trkpt><trkpt lat="40.92806238056798" lon="8.225085884454153"><ele>12.0</ele><time>2026-05-02T13:14:53Z</time></trkpt><trkpt lat="40.92779181017453" lon="8.225175647583063"><ele>12.0</ele><time>2026-05-02T13:14:54Z</time></trkpt><trkpt lat="40.927519821350465" lon="8.225265958604258"><ele>10.5</ele><time>2026-05-02T13:14:55Z</time></trkpt><trkpt lat="40.927260121446096" lon="8.225352156893777"><ele>9.0</ele><time>2026-05-02T13:14:56Z</time></trkpt><trkpt lat="40.92699846614765" lon="8.225438025013444"><ele>9.0</ele><time>2026-05-02T13:14:57Z</time></trkpt><trkpt lat="40.92674195269893" lon="8.225521531535778"><ele>9.0</ele><time>2026-05-02T13:14:58Z</time></trkpt><trkpt lat="40.92649133357841" lon="8.22560442422349"><ele>8.0</ele><time>2026-05-02T13:14:59Z</time></trkpt><trkpt lat="40.92623677359135" lon="8.225688804557025"><ele>7.0</ele><time>2026-05-02T13:15:00Z</time></trkpt><trkpt lat="40.925989933715634" lon="8.225770212919597"><ele>9.5</ele><time>2026-05-02T13:15:01Z</time></trkpt><trkpt lat="40.92574931826822" lon="8.225849428642247"><ele>12.0</ele><time>2026-05-02T13:15:02Z</time></trkpt><trkpt lat="40.92551365070365" lon="8.225927015442824"><ele>12.0</ele><time>2026-05-02T13:15:03Z</time></trkpt><trkpt lat="40.92529775256311" lon="8.225999739835766"><ele>12.0</ele><time>2026-05-02T13:15:04Z</time></trkpt><trkpt lat="40.92506812107156" lon="8.226083602125312"><ele>15.0</ele><time>2026-05-02T13:15:05Z</time></trkpt><trkpt lat="40.92481460073153" lon="8.226190115677518"><ele>18.0</ele><time>2026-05-02T13:15:06Z</time></trkpt><trkpt lat="40.92454696127995" lon="8.226325547471216"><ele>17.0</ele><time>2026-05-02T13:15:07Z</time></trkpt><trkpt lat="40.9242829155671" lon="8.226502906343272"><ele>16.0</ele><time>2026-05-02T13:15:08Z</time></trkpt><trkpt lat="40.924020145027555" lon="8.226652804008706"><ele>15.5</ele><time>2026-05-02T13:15:09Z</time></trkpt><trkpt lat="40.92376689538189" lon="8.226821367441017"><ele>15.0</ele><time>2026-05-02T13:15:10Z</time></trkpt><trkpt lat="40.92350844336581" lon="8.226969508842151"><ele>15.0</ele><time>2026-05-02T13:15:11Z</time></trkpt><trkpt lat="40.92326131252809" lon="8.227131379285096"><ele>15.0</ele><time>2026-05-02T13:15:12Z</time></trkpt><trkpt lat="40.92302146408245" lon="8.22728930397538"><ele>13.5</ele><time>2026-05-02T13:15:13Z</time></trkpt><trkpt lat="40.92279105886217" lon="8.227441010927778"><ele>12.0</ele><time>2026-05-02T13:15:14Z</time></trkpt><trkpt lat="40.92258359609348" lon="8.227600733966916"><ele>13.5</ele><time>2026-05-02T13:15:15Z</time></trkpt><trkpt lat="40.922372807326205" lon="8.227715987302583"><ele>15.0</ele><time>2026-05-02T13:15:15.999Z</time></trkpt><trkpt lat="40.922156191068716" lon="8.22785696421445"><ele>15.0</ele><time>2026-05-02T13:15:16.999Z</time></trkpt><trkpt lat="40.92192610603718" lon="8.228006706808056"><ele>15.0</ele><time>2026-05-02T13:15:17.999Z</time></trkpt><trkpt lat="40.92169480023636" lon="8.228157405652153"><ele>16.0</ele><time>2026-05-02T13:15:18.999Z</time></trkpt><trkpt lat="40.92145189517517" lon="8.228315841837723"><ele>17.0</ele><time>2026-05-02T13:15:19.999Z</time></trkpt><trkpt lat="40.92121534915567" lon="8.228471036874202"><ele>17.0</ele><time>2026-05-02T13:15:20.999Z</time></trkpt><trkpt lat="40.92099535018873" lon="8.228633744580357"><ele>17.0</ele><time>2026-05-02T13:15:21.999Z</time></trkpt><trkpt lat="40.92077831805681" lon="8.228780456986069"><ele>16.5</ele><time>2026-05-02T13:15:22.999Z</time></trkpt><trkpt lat="40.92055567711375" lon="8.22890115996398"><ele>16.0</ele><time>2026-05-02T13:15:23.999Z</time></trkpt><trkpt lat="40.92033938223208" lon="8.229040473694006"><ele>16.0</ele><time>2026-05-02T13:15:24.999Z</time></trkpt><trkpt lat="40.92013492707724" lon="8.229173799199184"><ele>16.0</ele><time>2026-05-02T13:15:25.999Z</time></trkpt><trkpt lat="40.919944928048636" lon="8.22929797232117"><ele>16.0</ele><time>2026-05-02T13:15:26.999Z</time></trkpt><trkpt lat="40.9197685832726" lon="8.22943580008735"><ele>15.333333333333332</ele><time>2026-05-02T13:15:27.999Z</time></trkpt><trkpt lat="40.91958789457302" lon="8.229543279141735"><ele>14.666666666666668</ele><time>2026-05-02T13:15:28.999Z</time></trkpt><trkpt lat="40.91940240949734" lon="8.229640349792994"><ele>14.0</ele><time>2026-05-02T13:15:29.999Z</time></trkpt><trkpt lat="40.919204853379874" lon="8.229702129233711"><ele>14.0</ele><time>2026-05-02T13:15:30.999Z</time></trkpt><trkpt lat="40.919006929951806" lon="8.229763517963613"><ele>14.0</ele><time>2026-05-02T13:15:31.999Z</time></trkpt><trkpt lat="40.918800033995794" lon="8.229813607482088"><ele>14.0</ele><time>2026-05-02T13:15:32.999Z</time></trkpt><trkpt lat="40.918591258046575" lon="8.229896887540312"><ele>14.5</ele><time>2026-05-02T13:15:33.999Z</time></trkpt><trkpt lat="40.918370776590244" lon="8.229932404724812"><ele>15.0</ele><time>2026-05-02T13:15:34.999Z</time></trkpt><trkpt lat="40.9181437215978" lon="8.229976733161994"><ele>15.0</ele><time>2026-05-02T13:15:35.999Z</time></trkpt><trkpt lat="40.9179110953327" lon="8.230026350692428"><ele>15.0</ele><time>2026-05-02T13:15:36.999Z</time></trkpt><trkpt lat="40.917673528117376" lon="8.230049460071571"><ele>14.5</ele><time>2026-05-02T13:15:37.999Z</time></trkpt><trkpt lat="40.91743209446628" lon="8.230095630529021"><ele>14.0</ele><time>2026-05-02T13:15:38.999Z</time></trkpt><trkpt lat="40.91718671827176" lon="8.230140209095373"><ele>14.0</ele><time>2026-05-02T13:15:39.999Z</time></trkpt><trkpt lat="40.91693330699186" lon="8.23016803320408"><ele>14.0</ele><time>2026-05-02T13:15:40.999Z</time></trkpt><trkpt lat="40.91667829373291" lon="8.230179022671935"><ele>12.0</ele><time>2026-05-02T13:15:41.999Z</time></trkpt><trkpt lat="40.916415982644544" lon="8.230184819727363"><ele>10.0</ele><time>2026-05-02T13:15:42.999Z</time></trkpt><trkpt lat="40.91614933871751" lon="8.230179901369114"><ele>7.5</ele><time>2026-05-02T13:15:43.999Z</time></trkpt><trkpt lat="40.91587790442588" lon="8.230166766766814"><ele>5.0</ele><time>2026-05-02T13:15:45Z</time></trkpt><trkpt lat="40.915603464055884" lon="8.230152299044837"><ele>5.0</ele><time>2026-05-02T13:15:46Z</time></trkpt><trkpt lat="40.91532400579681" lon="8.230137566794372"><ele>5.0</ele><time>2026-05-02T13:15:47Z</time></trkpt><trkpt lat="40.91504445461118" lon="8.23012336487992"><ele>3.0</ele><time>2026-05-02T13:15:48Z</time></trkpt><trkpt lat="40.91476305460911" lon="8.230108923748158"><ele>1.0</ele><time>2026-05-02T13:15:49Z</time></trkpt><trkpt lat="40.914481103378336" lon="8.230093661677465"><ele>0.5</ele><time>2026-05-02T13:15:50Z</time></trkpt><trkpt lat="40.91419532702078" lon="8.230078243666634"><ele>0.0</ele><time>2026-05-02T13:15:51Z</time></trkpt><trkpt lat="40.913909967889765" lon="8.230064868973354"><ele>0.0</ele><time>2026-05-02T13:15:52Z</time></trkpt><trkpt lat="40.91362610643527" lon="8.230050840291137"><ele>0.0</ele><time>2026-05-02T13:15:53Z</time></trkpt><trkpt lat="40.91334117819278" lon="8.230036367502317"><ele>1.0</ele><time>2026-05-02T13:15:54Z</time></trkpt><trkpt lat="40.913057135890256" lon="8.230021200358747"><ele>2.0</ele><time>2026-05-02T13:15:55Z</time></trkpt><trkpt lat="40.91277501539308" lon="8.230006137427447"><ele>1.5</ele><time>2026-05-02T13:15:56Z</time></trkpt><trkpt lat="40.91249262247732" lon="8.229991058356898"><ele>1.0</ele><time>2026-05-02T13:15:57Z</time></trkpt><trkpt lat="40.912215109770905" lon="8.229976239878825"><ele>1.0</ele><time>2026-05-02T13:15:58Z</time></trkpt><trkpt lat="40.911932540418846" lon="8.229961151389228"><ele>1.0</ele><time>2026-05-02T13:15:59Z</time></trkpt><trkpt lat="40.9116482960184" lon="8.229949295459994"><ele>1.5</ele><time>2026-05-02T13:16:00Z</time></trkpt><trkpt lat="40.91136338602707" lon="8.229941638572845"><ele>2.0</ele><time>2026-05-02T13:16:01Z</time></trkpt><trkpt lat="40.91107253381894" lon="8.229966568016824"><ele>2.5</ele><time>2026-05-02T13:16:02Z</time></trkpt><trkpt lat="40.9107783770012" lon="8.229980706927707"><ele>3.0</ele><time>2026-05-02T13:16:03Z</time></trkpt><trkpt lat="40.910480111018536" lon="8.230010227379989"><ele>3.0</ele><time>2026-05-02T13:16:04Z</time></trkpt><trkpt lat="40.91017906525204" lon="8.230054327966293"><ele>3.0</ele><time>2026-05-02T13:16:05Z</time></trkpt><trkpt lat="40.90987730081561" lon="8.230081532557048"><ele>2.5</ele><time>2026-05-02T13:16:06Z</time></trkpt><trkpt lat="40.90958099926641" lon="8.230164298869541"><ele>2.0</ele><time>2026-05-02T13:16:07Z</time></trkpt><trkpt lat="40.90927848769135" lon="8.230236534550599"><ele>2.0</ele><time>2026-05-02T13:16:08Z</time></trkpt><trkpt lat="40.90897082372157" lon="8.230291433188572"><ele>2.0</ele><time>2026-05-02T13:16:09Z</time></trkpt><trkpt lat="40.90866541451988" lon="8.230365760807457"><ele>3.0</ele><time>2026-05-02T13:16:10Z</time></trkpt><trkpt lat="40.90836268347088" lon="8.23046105181099"><ele>4.0</ele><time>2026-05-02T13:16:11Z</time></trkpt><trkpt lat="40.90805598816696" lon="8.230532904383814"><ele>4.0</ele><time>2026-05-02T13:16:12Z</time></trkpt><trkpt lat="40.907751615670755" lon="8.23058347737598"><ele>4.0</ele><time>2026-05-02T13:16:13Z</time></trkpt><trkpt lat="40.90746158810652" lon="8.230651649768575"><ele>4.0</ele><time>2026-05-02T13:16:14Z</time></trkpt><trkpt lat="40.9071816717584" lon="8.230718390647558"><ele>4.0</ele><time>2026-05-02T13:16:15Z</time></trkpt><trkpt lat="40.906923219044145" lon="8.23078042180717"><ele>4.0</ele><time>2026-05-02T13:16:16Z</time></trkpt><trkpt lat="40.9066836190536" lon="8.23085654871502"><ele>4.0</ele><time>2026-05-02T13:16:17Z</time></trkpt><trkpt lat="40.90645730350958" lon="8.230908185651428"><ele>4.0</ele><time>2026-05-02T13:16:18Z</time></trkpt><trkpt lat="40.90624426657245" lon="8.230958625890427"><ele>4.0</ele><time>2026-05-02T13:16:19Z</time></trkpt><trkpt lat="40.906038415817115" lon="8.231009804414985"><ele>4.0</ele><time>2026-05-02T13:16:20Z</time></trkpt><trkpt lat="40.9058461173136" lon="8.231035855230047"><ele>3.6666666666666665</ele><time>2026-05-02T13:16:21Z</time></trkpt><trkpt lat="40.90565963380062" lon="8.231081719266008"><ele>3.333333333333333</ele><time>2026-05-02T13:16:22Z</time></trkpt><trkpt lat="40.90549242368786" lon="8.231136703817889"><ele>3.0</ele><time>2026-05-02T13:16:23Z</time></trkpt><trkpt lat="40.90535710390492" lon="8.231130053615745"><ele>3.0</ele><time>2026-05-02T13:16:24Z</time></trkpt><trkpt lat="40.90526549411881" lon="8.231073980068258"><ele>3.0</ele><time>2026-05-02T13:16:25Z</time></trkpt><trkpt lat="40.90519828132263" lon="8.230976459737933"><ele>3.0</ele><time>2026-05-02T13:16:26Z</time></trkpt><trkpt lat="40.90512019067563" lon="8.230868841027435"><ele>3.0</ele><time>2026-05-02T13:16:27Z</time></trkpt><trkpt lat="40.9050250580803" lon="8.23083720973659"><ele>3.0</ele><time>2026-05-02T13:16:28Z</time></trkpt><trkpt lat="40.904913506819334" lon="8.230848747241767"><ele>3.25</ele><time>2026-05-02T13:16:29Z</time></trkpt><trkpt lat="40.90480452697153" lon="8.230960225515433"><ele>3.5</ele><time>2026-05-02T13:16:30Z</time></trkpt><trkpt lat="40.90470289632335" lon="8.231104666770229"><ele>3.75</ele><time>2026-05-02T13:16:31Z</time></trkpt><trkpt lat="40.904647042993076" lon="8.23130482433142"><ele>4.0</ele><time>2026-05-02T13:16:32Z</time></trkpt><trkpt lat="40.904473842594165" lon="8.231417736698287"><ele>3.6666666666666665</ele><time>2026-05-02T13:16:33Z</time></trkpt><trkpt lat="40.904295985469645" lon="8.231507828867148"><ele>3.333333333333333</ele><time>2026-05-02T13:16:34Z</time></trkpt><trkpt lat="40.904104230174575" lon="8.23160881915399"><ele>3.0</ele><time>2026-05-02T13:16:35Z</time></trkpt><trkpt lat="40.90390193963311" lon="8.23173052611949"><ele>3.0</ele><time>2026-05-02T13:16:36Z</time></trkpt><trkpt lat="40.9036902733045" lon="8.231843056921294"><ele>3.0</ele><time>2026-05-02T13:16:37Z</time></trkpt><trkpt lat="40.90348664939628" lon="8.23195383512032"><ele>3.0</ele><time>2026-05-02T13:16:38Z</time></trkpt><trkpt lat="40.90327157518141" lon="8.232072743440815"><ele>2.5</ele><time>2026-05-02T13:16:39Z</time></trkpt><trkpt lat="40.90305453444392" lon="8.232164581002518"><ele>2.0</ele><time>2026-05-02T13:16:40Z</time></trkpt><trkpt lat="40.902838762612696" lon="8.232277765737201"><ele>2.0</ele><time>2026-05-02T13:16:41Z</time></trkpt><trkpt lat="40.90261772542996" lon="8.23239586503529"><ele>2.0</ele><time>2026-05-02T13:16:42Z</time></trkpt><trkpt lat="40.902405319593875" lon="8.232530436457063"><ele>3.0</ele><time>2026-05-02T13:16:43Z</time></trkpt><trkpt lat="40.902181958957414" lon="8.232650394773602"><ele>4.0</ele><time>2026-05-02T13:16:44Z</time></trkpt><trkpt lat="40.90195010407448" lon="8.232752630197975"><ele>4.0</ele><time>2026-05-02T13:16:45Z</time></trkpt><trkpt lat="40.901720562152214" lon="8.23287542009123"><ele>4.0</ele><time>2026-05-02T13:16:46Z</time></trkpt><trkpt lat="40.90149575038963" lon="8.233018564424249"><ele>4.0</ele><time>2026-05-02T13:16:47Z</time></trkpt><trkpt lat="40.901263380685364" lon="8.233137902849489"><ele>4.0</ele><time>2026-05-02T13:16:48Z</time></trkpt><trkpt lat="40.90102913131788" lon="8.233257289969599"><ele>4.5</ele><time>2026-05-02T13:16:49Z</time></trkpt><trkpt lat="40.90079320921506" lon="8.23337749175282"><ele>5.0</ele><time>2026-05-02T13:16:50Z</time></trkpt><trkpt lat="40.900554276991606" lon="8.233502804292723"><ele>5.0</ele><time>2026-05-02T13:16:51Z</time></trkpt><trkpt lat="40.90030367051477" lon="8.233597528285863"><ele>5.0</ele><time>2026-05-02T13:16:52Z</time></trkpt><trkpt lat="40.90005622302774" lon="8.233672491805951"><ele>5.5</ele><time>2026-05-02T13:16:53.001Z</time></trkpt><trkpt lat="40.89978930064886" lon="8.233724402379547"><ele>6.0</ele><time>2026-05-02T13:16:54.001Z</time></trkpt><trkpt lat="40.89951914199683" lon="8.233750491283566"><ele>6.0</ele><time>2026-05-02T13:16:55.001Z</time></trkpt><trkpt lat="40.89924169626152" lon="8.233741352279367"><ele>6.0</ele><time>2026-05-02T13:16:56.001Z</time></trkpt><trkpt lat="40.89897151407403" lon="8.233704605091864"><ele>6.0</ele><time>2026-05-02T13:16:57.001Z</time></trkpt><trkpt lat="40.89869780084051" lon="8.23363904880766"><ele>6.0</ele><time>2026-05-02T13:16:58.001Z</time></trkpt><trkpt lat="40.898420719425715" lon="8.233575745893193"><ele>5.0</ele><time>2026-05-02T13:16:59.001Z</time></trkpt><trkpt lat="40.898142306885575" lon="8.233509932426045"><ele>4.0</ele><time>2026-05-02T13:17:00.001Z</time></trkpt><trkpt lat="40.89786137483227" lon="8.233444847330839"><ele>3.0</ele><time>2026-05-02T13:17:01.001Z</time></trkpt><trkpt lat="40.897582011047355" lon="8.233383192769821"><ele>2.0</ele><time>2026-05-02T13:17:02.001Z</time></trkpt><trkpt lat="40.89730102190248" lon="8.233318744008983"><ele>2.0</ele><time>2026-05-02T13:17:03.001Z</time></trkpt><trkpt lat="40.89702074074862" lon="8.233251543355554"><ele>2.0</ele><time>2026-05-02T13:17:04.001Z</time></trkpt><trkpt lat="40.89674090117754" lon="8.23318510532346"><ele>2.5</ele><time>2026-05-02T13:17:05.001Z</time></trkpt><trkpt lat="40.89646066011913" lon="8.23311901073349"><ele>3.0</ele><time>2026-05-02T13:17:06.001Z</time></trkpt><trkpt lat="40.896182977170305" lon="8.233053917249217"><ele>2.5</ele><time>2026-05-02T13:17:07.001Z</time></trkpt><trkpt lat="40.89590208372518" lon="8.233000702723729"><ele>2.0</ele><time>2026-05-02T13:17:08.001Z</time></trkpt><trkpt lat="40.89562379664736" lon="8.232974906140653"><ele>2.0</ele><time>2026-05-02T13:17:09.001Z</time></trkpt><trkpt lat="40.89536884203857" lon="8.232968240503384"><ele>2.0</ele><time>2026-05-02T13:17:10.001Z</time></trkpt><trkpt lat="40.89512847238769" lon="8.232973638590757"><ele>2.5</ele><time>2026-05-02T13:17:11.001Z</time></trkpt><trkpt lat="40.89490126467213" lon="8.232998486367535"><ele>3.0</ele><time>2026-05-02T13:17:12.001Z</time></trkpt><trkpt lat="40.894664517559164" lon="8.233038131466703"><ele>3.0</ele><time>2026-05-02T13:17:13.001Z</time></trkpt><trkpt lat="40.89440181717622" lon="8.233107322158547"><ele>3.0</ele><time>2026-05-02T13:17:14.001Z</time></trkpt><trkpt lat="40.894121540059395" lon="8.23319840509271"><ele>3.0</ele><time>2026-05-02T13:17:15.001Z</time></trkpt><trkpt lat="40.893840908420124" lon="8.233318133155644"><ele>3.0</ele><time>2026-05-02T13:17:16.001Z</time></trkpt><trkpt lat="40.893562411413356" lon="8.233449836964317"><ele>2.5</ele><time>2026-05-02T13:17:17.001Z</time></trkpt><trkpt lat="40.893287681484324" lon="8.233607259579673"><ele>2.0</ele><time>2026-05-02T13:17:18.001Z</time></trkpt><trkpt lat="40.89300583273382" lon="8.23374132702466"><ele>2.0</ele><time>2026-05-02T13:17:19.001Z</time></trkpt><trkpt lat="40.892733297847414" lon="8.233894639758022"><ele>2.0</ele><time>2026-05-02T13:17:20.001Z</time></trkpt><trkpt lat="40.89246578125825" lon="8.234075382750504"><ele>2.0</ele><time>2026-05-02T13:17:21.001Z</time></trkpt><trkpt lat="40.89219275246264" lon="8.23423118045251"><ele>2.0</ele><time>2026-05-02T13:17:22Z</time></trkpt><trkpt lat="40.89192810337888" lon="8.234387098657534"><ele>2.5</ele><time>2026-05-02T13:17:23Z</time></trkpt><trkpt lat="40.89166360358195" lon="8.234541587284022"><ele>3.0</ele><time>2026-05-02T13:17:24Z</time></trkpt><trkpt lat="40.891393550667644" lon="8.23470133559737"><ele>2.0</ele><time>2026-05-02T13:17:25Z</time></trkpt><trkpt lat="40.89112735363372" lon="8.234858923289787"><ele>1.0</ele><time>2026-05-02T13:17:26Z</time></trkpt><trkpt lat="40.89085851874191" lon="8.235015248907063"><ele>1.0</ele><time>2026-05-02T13:17:27Z</time></trkpt><trkpt lat="40.8905836436382" lon="8.235142500994652"><ele>1.0</ele><time>2026-05-02T13:17:28Z</time></trkpt><trkpt lat="40.890308012069056" lon="8.235288873131989"><ele>1.5</ele><time>2026-05-02T13:17:29Z</time></trkpt><trkpt lat="40.89002512692609" lon="8.235419680560627"><ele>2.0</ele><time>2026-05-02T13:17:30Z</time></trkpt><trkpt lat="40.889733351507004" lon="8.235539913024327"><ele>2.0</ele><time>2026-05-02T13:17:31Z</time></trkpt><trkpt lat="40.88943917928158" lon="8.235651072196184"><ele>2.0</ele><time>2026-05-02T13:17:32Z</time></trkpt><trkpt lat="40.88914129035524" lon="8.235753990422866"><ele>2.0</ele><time>2026-05-02T13:17:33Z</time></trkpt><trkpt lat="40.888838549279924" lon="8.23583315165959"><ele>2.0</ele><time>2026-05-02T13:17:34Z</time></trkpt><trkpt lat="40.888534371476396" lon="8.235903216511137"><ele>2.0</ele><time>2026-05-02T13:17:35Z</time></trkpt><trkpt lat="40.888228582044725" lon="8.235961836644519"><ele>2.0</ele><time>2026-05-02T13:17:36Z</time></trkpt><trkpt lat="40.88792239054122" lon="8.236003642264452"><ele>2.0</ele><time>2026-05-02T13:17:37Z</time></trkpt><trkpt lat="40.88761668717076" lon="8.236036024613929"><ele>2.0</ele><time>2026-05-02T13:17:38Z</time></trkpt><trkpt lat="40.88731634004473" lon="8.236058159193748"><ele>2.0</ele><time>2026-05-02T13:17:39Z</time></trkpt><trkpt lat="40.88701446904139" lon="8.236075496834015"><ele>2.0</ele><time>2026-05-02T13:17:40Z</time></trkpt><trkpt lat="40.886713286869195" lon="8.236092794908645"><ele>2.5</ele><time>2026-05-02T13:17:41Z</time></trkpt><trkpt lat="40.886410786826715" lon="8.236110604168525"><ele>3.0</ele><time>2026-05-02T13:17:42Z</time></trkpt><trkpt lat="40.88611359376845" lon="8.236127959117663"><ele>3.0</ele><time>2026-05-02T13:17:43Z</time></trkpt><trkpt lat="40.88581672922165" lon="8.236142356461619"><ele>3.0</ele><time>2026-05-02T13:17:44Z</time></trkpt><trkpt lat="40.88552205050544" lon="8.23615709002611"><ele>3.0</ele><time>2026-05-02T13:17:45Z</time></trkpt><trkpt lat="40.885223311926985" lon="8.23617372672106"><ele>3.0</ele><time>2026-05-02T13:17:46Z</time></trkpt><trkpt lat="40.884919175561386" lon="8.236190664027076"><ele>3.5</ele><time>2026-05-02T13:17:47Z</time></trkpt><trkpt lat="40.884617030903215" lon="8.2362074904098"><ele>4.0</ele><time>2026-05-02T13:17:48Z</time></trkpt><trkpt lat="40.88431207493033" lon="8.236224473351633"><ele>4.5</ele><time>2026-05-02T13:17:49Z</time></trkpt><trkpt lat="40.884007628758006" lon="8.23624142948854"><ele>5.0</ele><time>2026-05-02T13:17:50Z</time></trkpt><trkpt lat="40.88370298814432" lon="8.23625839486026"><ele>6.0</ele><time>2026-05-02T13:17:51Z</time></trkpt><trkpt lat="40.88340373890378" lon="8.236273325641106"><ele>7.0</ele><time>2026-05-02T13:17:52Z</time></trkpt><trkpt lat="40.88310375895994" lon="8.236286170318941"><ele>7.0</ele><time>2026-05-02T13:17:53Z</time></trkpt><trkpt lat="40.88279671197097" lon="8.236290471960547"><ele>7.0</ele><time>2026-05-02T13:17:54Z</time></trkpt><trkpt lat="40.88246928047077" lon="8.236285684114845"><ele>7.0</ele><time>2026-05-02T13:17:55Z</time></trkpt><trkpt lat="40.88212470378103" lon="8.236274777756023"><ele>7.0</ele><time>2026-05-02T13:17:56Z</time></trkpt><trkpt lat="40.881768306833834" lon="8.236247784943012"><ele>8.0</ele><time>2026-05-02T13:17:57Z</time></trkpt><trkpt lat="40.8813995824973" lon="8.236206468491172"><ele>9.0</ele><time>2026-05-02T13:17:58Z</time></trkpt><trkpt lat="40.88102455724888" lon="8.236164445999998"><ele>8.5</ele><time>2026-05-02T13:17:59Z</time></trkpt><trkpt lat="40.88065340291164" lon="8.236141596592809"><ele>8.0</ele><time>2026-05-02T13:18:00Z</time></trkpt><trkpt lat="40.88028840436855" lon="8.236097037949301"><ele>8.0</ele><time>2026-05-02T13:18:01Z</time></trkpt><trkpt lat="40.87993078092526" lon="8.236033080273558"><ele>8.0</ele><time>2026-05-02T13:18:02Z</time></trkpt><trkpt lat="40.87957745678697" lon="8.235991876291868"><ele>9.0</ele><time>2026-05-02T13:18:03Z</time></trkpt><trkpt lat="40.87922524795749" lon="8.235983555873561"><ele>10.0</ele><time>2026-05-02T13:18:04Z</time></trkpt><trkpt lat="40.87888214212052" lon="8.235944046103604"><ele>10.0</ele><time>2026-05-02T13:18:05Z</time></trkpt><trkpt lat="40.87853972621373" lon="8.23589775815916"><ele>10.0</ele><time>2026-05-02T13:18:06Z</time></trkpt><trkpt lat="40.87820104246913" lon="8.235848291512296"><ele>11.0</ele><time>2026-05-02T13:18:07Z</time></trkpt><trkpt lat="40.87785896023356" lon="8.235791994110194"><ele>12.0</ele><time>2026-05-02T13:18:08Z</time></trkpt><trkpt lat="40.8775248887422" lon="8.235733376730256"><ele>12.0</ele><time>2026-05-02T13:18:09Z</time></trkpt><trkpt lat="40.877210686638" lon="8.235673787921433"><ele>12.0</ele><time>2026-05-02T13:18:10Z</time></trkpt><trkpt lat="40.876917672891935" lon="8.23562031268376"><ele>12.5</ele><time>2026-05-02T13:18:11Z</time></trkpt><trkpt lat="40.87664337969715" lon="8.235568029601222"><ele>13.0</ele><time>2026-05-02T13:18:12Z</time></trkpt><trkpt lat="40.876374036457335" lon="8.235509459192262"><ele>13.0</ele><time>2026-05-02T13:18:13Z</time></trkpt><trkpt lat="40.87613770732432" lon="8.235466561054146"><ele>13.0</ele><time>2026-05-02T13:18:14Z</time></trkpt><trkpt lat="40.87590336334148" lon="8.235420369228665"><ele>13.5</ele><time>2026-05-02T13:18:15Z</time></trkpt><trkpt lat="40.87566662065029" lon="8.23537643621612"><ele>14.0</ele><time>2026-05-02T13:18:16Z</time></trkpt><trkpt lat="40.87543468667395" lon="8.235329883252955"><ele>14.0</ele><time>2026-05-02T13:18:17Z</time></trkpt><trkpt lat="40.87521213404037" lon="8.23528744015595"><ele>14.0</ele><time>2026-05-02T13:18:18.001Z</time></trkpt><trkpt lat="40.87500557852904" lon="8.235255617073687"><ele>14.0</ele><time>2026-05-02T13:18:19.001Z</time></trkpt><trkpt lat="40.87480595481043" lon="8.235220188059685"><ele>14.666666666666668</ele><time>2026-05-02T13:18:20.001Z</time></trkpt><trkpt lat="40.8746065254632" lon="8.235178480235064"><ele>15.333333333333332</ele><time>2026-05-02T13:18:21.001Z</time></trkpt><trkpt lat="40.874381508040784" lon="8.235144506193883"><ele>16.0</ele><time>2026-05-02T13:18:22.001Z</time></trkpt><trkpt lat="40.87412414733285" lon="8.235089668328081"><ele>16.0</ele><time>2026-05-02T13:18:23.001Z</time></trkpt><trkpt lat="40.87383220129771" lon="8.235030941005721"><ele>16.0</ele><time>2026-05-02T13:18:24.001Z</time></trkpt><trkpt lat="40.87353962026552" lon="8.234985401041747"><ele>15.0</ele><time>2026-05-02T13:18:25.001Z</time></trkpt><trkpt lat="40.87323710066132" lon="8.234955718109457"><ele>14.0</ele><time>2026-05-02T13:18:26.001Z</time></trkpt><trkpt lat="40.87290596666495" lon="8.234928996243445"><ele>14.0</ele><time>2026-05-02T13:18:27.001Z</time></trkpt><trkpt lat="40.872561446384694" lon="8.234915037668232"><ele>14.0</ele><time>2026-05-02T13:18:28.001Z</time></trkpt><trkpt lat="40.872216963173905" lon="8.234909417515036"><ele>14.0</ele><time>2026-05-02T13:18:29.001Z</time></trkpt><trkpt lat="40.8718808665169" lon="8.234915534303843"><ele>14.0</ele><time>2026-05-02T13:18:30.001Z</time></trkpt><trkpt lat="40.87157041766785" lon="8.234911972144431"><ele>15.0</ele><time>2026-05-02T13:18:31.001Z</time></trkpt><trkpt lat="40.87127276272143" lon="8.23490944152091"><ele>16.0</ele><time>2026-05-02T13:18:32.001Z</time></trkpt><trkpt lat="40.87098161707774" lon="8.234920528813317"><ele>16.5</ele><time>2026-05-02T13:18:33.001Z</time></trkpt><trkpt lat="40.87069655421186" lon="8.234964421627371"><ele>17.0</ele><time>2026-05-02T13:18:34.001Z</time></trkpt><trkpt lat="40.87041363191976" lon="8.235054238428907"><ele>17.0</ele><time>2026-05-02T13:18:35.001Z</time></trkpt><trkpt lat="40.87015308148858" lon="8.235188273696215"><ele>17.0</ele><time>2026-05-02T13:18:36.001Z</time></trkpt><trkpt lat="40.86989715947493" lon="8.235351115705722"><ele>18.5</ele><time>2026-05-02T13:18:37.001Z</time></trkpt><trkpt lat="40.86964516633414" lon="8.235508515777925"><ele>20.0</ele><time>2026-05-02T13:18:38.001Z</time></trkpt><trkpt lat="40.86938314445626" lon="8.235661367497745"><ele>20.5</ele><time>2026-05-02T13:18:39.001Z</time></trkpt><trkpt lat="40.86912808050612" lon="8.235801473683678"><ele>21.0</ele><time>2026-05-02T13:18:40.001Z</time></trkpt><trkpt lat="40.86887569488395" lon="8.235951193488571"><ele>21.0</ele><time>2026-05-02T13:18:41.001Z</time></trkpt><trkpt lat="40.8686238709857" lon="8.23609321865684"><ele>21.0</ele><time>2026-05-02T13:18:42.001Z</time></trkpt><trkpt lat="40.868367525260275" lon="8.236234215020751"><ele>21.0</ele><time>2026-05-02T13:18:43.001Z</time></trkpt><trkpt lat="40.86811271825905" lon="8.236374396476315"><ele>21.0</ele><time>2026-05-02T13:18:44.001Z</time></trkpt><trkpt lat="40.867865754167816" lon="8.236505611303823"><ele>20.5</ele><time>2026-05-02T13:18:45.001Z</time></trkpt><trkpt lat="40.86763076008419" lon="8.236632481289469"><ele>20.0</ele><time>2026-05-02T13:18:46.001Z</time></trkpt><trkpt lat="40.86741386297734" lon="8.236750149423472"><ele>19.666666666666668</ele><time>2026-05-02T13:18:47.001Z</time></trkpt><trkpt lat="40.86721191590746" lon="8.236858608341182"><ele>19.333333333333332</ele><time>2026-05-02T13:18:48.001Z</time></trkpt><trkpt lat="40.86702243610513" lon="8.236960755395254"><ele>19.0</ele><time>2026-05-02T13:18:49.001Z</time></trkpt><trkpt lat="40.86684889517093" lon="8.237039166472686"><ele>19.0</ele><time>2026-05-02T13:18:50.001Z</time></trkpt><trkpt lat="40.86669430627176" lon="8.237092796432389"><ele>19.0</ele><time>2026-05-02T13:18:51.001Z</time></trkpt><trkpt lat="40.86656611805637" lon="8.23712749992198"><ele>19.0</ele><time>2026-05-02T13:18:52.001Z</time></trkpt><trkpt lat="40.866458441179674" lon="8.237141194705833"><ele>19.0</ele><time>2026-05-02T13:18:53.001Z</time></trkpt><trkpt lat="40.86636534252661" lon="8.237117065764584"><ele>19.0</ele><time>2026-05-02T13:18:54.001Z</time></trkpt><trkpt lat="40.86627898852745" lon="8.237049188197764"><ele>19.0</ele><time>2026-05-02T13:18:55.001Z</time></trkpt><trkpt lat="40.8661771583946" lon="8.23708472510709"><ele>19.0</ele><time>2026-05-02T13:18:56.001Z</time></trkpt><trkpt lat="40.86609637301896" lon="8.237151851469607"><ele>19.0</ele><time>2026-05-02T13:18:57.001Z</time></trkpt><trkpt lat="40.86605579264162" lon="8.237279899650597"><ele>19.0</ele><time>2026-05-02T13:18:58.001Z</time></trkpt><trkpt lat="40.865980216137494" lon="8.237383630960647"><ele>19.25</ele><time>2026-05-02T13:18:59.001Z</time></trkpt><trkpt lat="40.865897529021765" lon="8.237498794750664"><ele>19.5</ele><time>2026-05-02T13:19:00.001Z</time></trkpt><trkpt lat="40.86577355158695" lon="8.237584881225388"><ele>19.75</ele><time>2026-05-02T13:19:01.001Z</time></trkpt><trkpt lat="40.86563325365246" lon="8.237633054973754"><ele>20.0</ele><time>2026-05-02T13:19:02.001Z</time></trkpt><trkpt lat="40.86549309450762" lon="8.237689573912693"><ele>20.0</ele><time>2026-05-02T13:19:03.001Z</time></trkpt><trkpt lat="40.86534511161069" lon="8.237761159745506"><ele>20.0</ele><time>2026-05-02T13:19:04.001Z</time></trkpt><trkpt lat="40.8651765364172" lon="8.237846292557245"><ele>20.0</ele><time>2026-05-02T13:19:05.001Z</time></trkpt><trkpt lat="40.86499463249486" lon="8.237941789840763"><ele>20.0</ele><time>2026-05-02T13:19:06.001Z</time></trkpt><trkpt lat="40.86480671416064" lon="8.23803855286244"><ele>20.0</ele><time>2026-05-02T13:19:07.001Z</time></trkpt><trkpt lat="40.86459917255273" lon="8.238132775695997"><ele>20.0</ele><time>2026-05-02T13:19:08.001Z</time></trkpt><trkpt lat="40.864402823594425" lon="8.23822133284505"><ele>21.0</ele><time>2026-05-02T13:19:09.001Z</time></trkpt><trkpt lat="40.86420203578752" lon="8.238318035890696"><ele>22.0</ele><time>2026-05-02T13:19:10.001Z</time></trkpt><trkpt lat="40.86400335130213" lon="8.238413058492696"><ele>23.0</ele><time>2026-05-02T13:19:11.001Z</time></trkpt><trkpt lat="40.86380802360386" lon="8.238504475672078"><ele>23.0</ele><time>2026-05-02T13:19:12.001Z</time></trkpt><trkpt lat="40.86360815546541" lon="8.238599861302525"><ele>23.0</ele><time>2026-05-02T13:19:13.001Z</time></trkpt><trkpt lat="40.86340696748768" lon="8.238695951750609"><ele>23.0</ele><time>2026-05-02T13:19:14.001Z</time></trkpt><trkpt lat="40.8632032964491" lon="8.238784168131959"><ele>24.666666666666668</ele><time>2026-05-02T13:19:15.001Z</time></trkpt><trkpt lat="40.86300200522137" lon="8.238855900433215"><ele>26.333333333333336</ele><time>2026-05-02T13:19:16.001Z</time></trkpt><trkpt lat="40.86279445901352" lon="8.238885220094891"><ele>28.0</ele><time>2026-05-02T13:19:17.001Z</time></trkpt><trkpt lat="40.86258904093651" lon="8.23892281045695"><ele>28.333333333333336</ele><time>2026-05-02T13:19:18.001Z</time></trkpt><trkpt lat="40.862382085681524" lon="8.238958830985037"><ele>28.666666666666664</ele><time>2026-05-02T13:19:19.001Z</time></trkpt><trkpt lat="40.862181609778425" lon="8.239013490859405"><ele>29.0</ele><time>2026-05-02T13:19:20.001Z</time></trkpt><trkpt lat="40.86197269171462" lon="8.239049311953558"><ele>29.0</ele><time>2026-05-02T13:19:21.001Z</time></trkpt><trkpt lat="40.861738550149255" lon="8.239085555128561"><ele>29.0</ele><time>2026-05-02T13:19:22.001Z</time></trkpt><trkpt lat="40.8614927907935" lon="8.239105083563759"><ele>29.0</ele><time>2026-05-02T13:19:23.001Z</time></trkpt><trkpt lat="40.86122978789033" lon="8.239148961558103"><ele>29.0</ele><time>2026-05-02T13:19:24.001Z</time></trkpt><trkpt lat="40.860950779596436" lon="8.239196613231426"><ele>28.0</ele><time>2026-05-02T13:19:25.001Z</time></trkpt><trkpt lat="40.860664050643784" lon="8.23924548774412"><ele>27.0</ele><time>2026-05-02T13:19:26.001Z</time></trkpt><trkpt lat="40.8603716226209" lon="8.239295516141457"><ele>28.0</ele><time>2026-05-02T13:19:27.001Z</time></trkpt><trkpt lat="40.86007616742709" lon="8.239376663328022"><ele>29.0</ele><time>2026-05-02T13:19:28.001Z</time></trkpt><trkpt lat="40.859758101903104" lon="8.239469916941765"><ele>29.0</ele><time>2026-05-02T13:19:29.001Z</time></trkpt><trkpt lat="40.85944371134143" lon="8.23961911949129"><ele>29.0</ele><time>2026-05-02T13:19:30.001Z</time></trkpt><trkpt lat="40.85914451295074" lon="8.23982622542271"><ele>29.5</ele><time>2026-05-02T13:19:31.001Z</time></trkpt><trkpt lat="40.858859263031775" lon="8.240076623573968"><ele>30.0</ele><time>2026-05-02T13:19:32.001Z</time></trkpt><trkpt lat="40.85858188356871" lon="8.240337007567241"><ele>30.5</ele><time>2026-05-02T13:19:33.001Z</time></trkpt><trkpt lat="40.85829158431889" lon="8.24057529121693"><ele>31.0</ele><time>2026-05-02T13:19:34.001Z</time></trkpt><trkpt lat="40.85802995476835" lon="8.240830653292537"><ele>31.0</ele><time>2026-05-02T13:19:35.001Z</time></trkpt><trkpt lat="40.85776947689107" lon="8.24106145138614"><ele>31.0</ele><time>2026-05-02T13:19:36.001Z</time></trkpt><trkpt lat="40.85752649229992" lon="8.241273800200048"><ele>30.0</ele><time>2026-05-02T13:19:37.001Z</time></trkpt><trkpt lat="40.857281146720965" lon="8.241446487358543"><ele>29.0</ele><time>2026-05-02T13:19:38.001Z</time></trkpt><trkpt lat="40.85703460846272" lon="8.24160454555106"><ele>28.0</ele><time>2026-05-02T13:19:39.001Z</time></trkpt><trkpt lat="40.85677913210025" lon="8.241724750651041"><ele>27.0</ele><time>2026-05-02T13:19:40.001Z</time></trkpt><trkpt lat="40.85650966868005" lon="8.241804410600647"><ele>27.0</ele><time>2026-05-02T13:19:41.001Z</time></trkpt><trkpt lat="40.85623512733458" lon="8.24184746724308"><ele>27.0</ele><time>2026-05-02T13:19:42.001Z</time></trkpt><trkpt lat="40.8559604252275" lon="8.241882673157324"><ele>27.0</ele><time>2026-05-02T13:19:43.001Z</time></trkpt><trkpt lat="40.8556971034578" lon="8.241916420560171"><ele>27.0</ele><time>2026-05-02T13:19:44.001Z</time></trkpt><trkpt lat="40.85542888061696" lon="8.241952008821489"><ele>27.0</ele><time>2026-05-02T13:19:45.001Z</time></trkpt><trkpt lat="40.85515940745872" lon="8.241987871196544"><ele>27.0</ele><time>2026-05-02T13:19:46.001Z</time></trkpt><trkpt lat="40.85488465802776" lon="8.242023718104848"><ele>27.0</ele><time>2026-05-02T13:19:47.001Z</time></trkpt><trkpt lat="40.85460683510366" lon="8.242059964353768"><ele>27.0</ele><time>2026-05-02T13:19:48.001Z</time></trkpt><trkpt lat="40.854326743799184" lon="8.242096506552254"><ele>27.0</ele><time>2026-05-02T13:19:49.001Z</time></trkpt><trkpt lat="40.85404319872004" lon="8.242134617667071"><ele>27.0</ele><time>2026-05-02T13:19:50.001Z</time></trkpt><trkpt lat="40.853761963827466" lon="8.24217257048653"><ele>27.0</ele><time>2026-05-02T13:19:51.001Z</time></trkpt><trkpt lat="40.853485816373485" lon="8.242209836747918"><ele>27.0</ele><time>2026-05-02T13:19:52.001Z</time></trkpt><trkpt lat="40.85320367561947" lon="8.24224791180536"><ele>26.5</ele><time>2026-05-02T13:19:53.001Z</time></trkpt><trkpt lat="40.852928427720464" lon="8.24228543079131"><ele>26.0</ele><time>2026-05-02T13:19:54.001Z</time></trkpt><trkpt lat="40.85265562677707" lon="8.242322435165255"><ele>26.5</ele><time>2026-05-02T13:19:55.001Z</time></trkpt><trkpt lat="40.85238360429872" lon="8.242359202955393"><ele>27.0</ele><time>2026-05-02T13:19:56.001Z</time></trkpt><trkpt lat="40.85211229983806" lon="8.242395873688332"><ele>27.0</ele><time>2026-05-02T13:19:57.001Z</time></trkpt><trkpt lat="40.85183949674432" lon="8.2424327469909"><ele>27.0</ele><time>2026-05-02T13:19:58.001Z</time></trkpt><trkpt lat="40.851568314426665" lon="8.242469401223477"><ele>29.0</ele><time>2026-05-02T13:19:59.001Z</time></trkpt><trkpt lat="40.85130703033616" lon="8.242505651113747"><ele>31.0</ele><time>2026-05-02T13:20:00.001Z</time></trkpt><trkpt lat="40.851060621042755" lon="8.242559866172716"><ele>33.5</ele><time>2026-05-02T13:20:01.001Z</time></trkpt><trkpt lat="40.850815446250884" lon="8.242593794929736"><ele>36.0</ele><time>2026-05-02T13:20:02.001Z</time></trkpt><trkpt lat="40.85058056747322" lon="8.242602828424843"><ele>36.0</ele><time>2026-05-02T13:20:03.001Z</time></trkpt><trkpt lat="40.850365913515716" lon="8.242632391857146"><ele>36.0</ele><time>2026-05-02T13:20:04.001Z</time></trkpt><trkpt lat="40.85016423046254" lon="8.242647131217195"><ele>36.0</ele><time>2026-05-02T13:20:05.001Z</time></trkpt><trkpt lat="40.84997095565003" lon="8.242648756776617"><ele>37.0</ele><time>2026-05-02T13:20:06.001Z</time></trkpt><trkpt lat="40.849790867777166" lon="8.2426366505654"><ele>38.0</ele><time>2026-05-02T13:20:07.001Z</time></trkpt><trkpt lat="40.849616615485175" lon="8.242607815750493"><ele>39.0</ele><time>2026-05-02T13:20:08.001Z</time></trkpt><trkpt lat="40.849450073931976" lon="8.242568886098297"><ele>39.0</ele><time>2026-05-02T13:20:09.001Z</time></trkpt><trkpt lat="40.84929881713359" lon="8.242523855589038"><ele>39.0</ele><time>2026-05-02T13:20:10.001Z</time></trkpt><trkpt lat="40.849153920227174" lon="8.242480609917894"><ele>39.0</ele><time>2026-05-02T13:20:11.001Z</time></trkpt><trkpt lat="40.849021661609505" lon="8.242439884400174"><ele>39.0</ele><time>2026-05-02T13:20:12.001Z</time></trkpt><trkpt lat="40.8488905991351" lon="8.242399382806425"><ele>39.0</ele><time>2026-05-02T13:20:13.001Z</time></trkpt><trkpt lat="40.84875829712421" lon="8.242358498212543"><ele>39.0</ele><time>2026-05-02T13:20:14.001Z</time></trkpt><trkpt lat="40.84862330492352" lon="8.242316782275015"><ele>39.0</ele><time>2026-05-02T13:20:15.001Z</time></trkpt><trkpt lat="40.848484976128674" lon="8.242275789270503"><ele>39.0</ele><time>2026-05-02T13:20:16.001Z</time></trkpt><trkpt lat="40.848339472008476" lon="8.242255251220516"><ele>39.25</ele><time>2026-05-02T13:20:17.001Z</time></trkpt><trkpt lat="40.848196680141456" lon="8.242215655010039"><ele>39.5</ele><time>2026-05-02T13:20:18.001Z</time></trkpt><trkpt lat="40.84805079817491" lon="8.242178999152637"><ele>39.75</ele><time>2026-05-02T13:20:19.001Z</time></trkpt><trkpt lat="40.847901562794476" lon="8.242125684537141"><ele>40.0</ele><time>2026-05-02T13:20:20.001Z</time></trkpt><trkpt lat="40.847740602411925" lon="8.242094224052206"><ele>39.66666666666667</ele><time>2026-05-02T13:20:21.001Z</time></trkpt><trkpt lat="40.8475713070201" lon="8.242069965100917"><ele>39.333333333333336</ele><time>2026-05-02T13:20:22.001Z</time></trkpt><trkpt lat="40.847395889005895" lon="8.242084337270695"><ele>39.0</ele><time>2026-05-02T13:20:23.001Z</time></trkpt><trkpt lat="40.847219244337495" lon="8.242087325693296"><ele>39.0</ele><time>2026-05-02T13:20:24.001Z</time></trkpt><trkpt lat="40.84704169953106" lon="8.242113171679868"><ele>39.0</ele><time>2026-05-02T13:20:25.001Z</time></trkpt><trkpt lat="40.84686431841544" lon="8.242130774780422"><ele>39.0</ele><time>2026-05-02T13:20:26.001Z</time></trkpt><trkpt lat="40.84668037939687" lon="8.242188373710578"><ele>39.0</ele><time>2026-05-02T13:20:27.001Z</time></trkpt><trkpt lat="40.84649504065699" lon="8.242267089350205"><ele>39.0</ele><time>2026-05-02T13:20:28.001Z</time></trkpt><trkpt lat="40.84631081703038" lon="8.242367935734984"><ele>39.0</ele><time>2026-05-02T13:20:29.001Z</time></trkpt><trkpt lat="40.84611805756769" lon="8.24245108324925"><ele>38.666666666666664</ele><time>2026-05-02T13:20:30.001Z</time></trkpt><trkpt lat="40.8459152550966" lon="8.24251904868913"><ele>38.33333333333333</ele><time>2026-05-02T13:20:31.001Z</time></trkpt><trkpt lat="40.845708207612596" lon="8.242610414549363"><ele>38.0</ele><time>2026-05-02T13:20:32.001Z</time></trkpt><trkpt lat="40.84549911776284" lon="8.242702681611176"><ele>38.0</ele><time>2026-05-02T13:20:33.001Z</time></trkpt><trkpt lat="40.8452798059417" lon="8.242797960014666"><ele>38.0</ele><time>2026-05-02T13:20:34.001Z</time></trkpt><trkpt lat="40.84505466760245" lon="8.242895722052086"><ele>36.0</ele><time>2026-05-02T13:20:35.001Z</time></trkpt><trkpt lat="40.84482758430882" lon="8.242994328695326"><ele>34.0</ele><time>2026-05-02T13:20:36.001Z</time></trkpt><trkpt lat="40.84459855649923" lon="8.243093780689993"><ele>35.0</ele><time>2026-05-02T13:20:37.001Z</time></trkpt><trkpt lat="40.84436923637387" lon="8.243194199111606"><ele>36.0</ele><time>2026-05-02T13:20:38.001Z</time></trkpt><trkpt lat="40.84413915690294" lon="8.243294761812006"><ele>33.0</ele><time>2026-05-02T13:20:39.001Z</time></trkpt><trkpt lat="40.84391931579955" lon="8.243390849716091"><ele>30.0</ele><time>2026-05-02T13:20:40.001Z</time></trkpt><trkpt lat="40.84370448277144" lon="8.243484622839771"><ele>30.0</ele><time>2026-05-02T13:20:41.001Z</time></trkpt><trkpt lat="40.84351658331935" lon="8.243566315579173"><ele>30.0</ele><time>2026-05-02T13:20:42.001Z</time></trkpt><trkpt lat="40.84334163539532" lon="8.243642377355483"><ele>30.0</ele><time>2026-05-02T13:20:43.001Z</time></trkpt><trkpt lat="40.843187763530366" lon="8.243709275971105"><ele>31.0</ele><time>2026-05-02T13:20:44.001Z</time></trkpt><trkpt lat="40.843028521018" lon="8.243777946816236"><ele>32.0</ele><time>2026-05-02T13:20:45.001Z</time></trkpt><trkpt lat="40.84286369327567" lon="8.243844671908608"><ele>33.0</ele><time>2026-05-02T13:20:46.001Z</time></trkpt><trkpt lat="40.8426904709874" lon="8.243902272023586"><ele>34.666666666666664</ele><time>2026-05-02T13:20:47.001Z</time></trkpt><trkpt lat="40.842514715929596" lon="8.243940337074196"><ele>36.33333333333333</ele><time>2026-05-02T13:20:48.001Z</time></trkpt><trkpt lat="40.842331939165746" lon="8.24396354540893"><ele>38.0</ele><time>2026-05-02T13:20:49.001Z</time></trkpt><trkpt lat="40.842147944760264" lon="8.243971322807875"><ele>38.0</ele><time>2026-05-02T13:20:50.001Z</time></trkpt><trkpt lat="40.84193790339872" lon="8.243965178951274"><ele>38.0</ele><time>2026-05-02T13:20:51.001Z</time></trkpt><trkpt lat="40.84170341099247" lon="8.243949715083946"><ele>38.0</ele><time>2026-05-02T13:20:52.001Z</time></trkpt><trkpt lat="40.84147268110353" lon="8.243932493928734"><ele>39.0</ele><time>2026-05-02T13:20:53.001Z</time></trkpt><trkpt lat="40.841227826477024" lon="8.243916849628228"><ele>40.0</ele><time>2026-05-02T13:20:54.001Z</time></trkpt><trkpt lat="40.840980566397924" lon="8.243908333667926"><ele>39.66666666666667</ele><time>2026-05-02T13:20:55.001Z</time></trkpt><trkpt lat="40.84075221303945" lon="8.243942219536097"><ele>39.333333333333336</ele><time>2026-05-02T13:20:56.001Z</time></trkpt><trkpt lat="40.840541902511966" lon="8.24394593239353"><ele>39.0</ele><time>2026-05-02T13:20:57.001Z</time></trkpt><trkpt lat="40.8403402192726" lon="8.243975147263049"><ele>38.5</ele><time>2026-05-02T13:20:58.001Z</time></trkpt><trkpt lat="40.840126765477414" lon="8.244027351012255"><ele>38.0</ele><time>2026-05-02T13:20:59.001Z</time></trkpt><trkpt lat="40.83989610065256" lon="8.244101402329433"><ele>38.0</ele><time>2026-05-02T13:21:00.001Z</time></trkpt><trkpt lat="40.83966345978044" lon="8.244177155131753"><ele>38.0</ele><time>2026-05-02T13:21:01.001Z</time></trkpt><trkpt lat="40.83943484806582" lon="8.244257427495764"><ele>38.0</ele><time>2026-05-02T13:21:02.001Z</time></trkpt><trkpt lat="40.839225174028776" lon="8.244330181408595"><ele>38.0</ele><time>2026-05-02T13:21:03.001Z</time></trkpt><trkpt lat="40.839004845819126" lon="8.244404631979238"><ele>38.0</ele><time>2026-05-02T13:21:04.001Z</time></trkpt><trkpt lat="40.838800898235505" lon="8.244473817629558"><ele>38.0</ele><time>2026-05-02T13:21:05.001Z</time></trkpt><trkpt lat="40.838606608618846" lon="8.244539675595044"><ele>38.0</ele><time>2026-05-02T13:21:06.001Z</time></trkpt><trkpt lat="40.83841758590171" lon="8.244604643869545"><ele>38.0</ele><time>2026-05-02T13:21:07.001Z</time></trkpt><trkpt lat="40.83824067464024" lon="8.244660556759628"><ele>38.666666666666664</ele><time>2026-05-02T13:21:08.001Z</time></trkpt><trkpt lat="40.83808231964778" lon="8.24474171205676"><ele>39.333333333333336</ele><time>2026-05-02T13:21:09.001Z</time></trkpt><trkpt lat="40.837921684341566" lon="8.244775810695698"><ele>40.0</ele><time>2026-05-02T13:21:10.001Z</time></trkpt><trkpt lat="40.83777831549752" lon="8.244801697460487"><ele>40.0</ele><time>2026-05-02T13:21:11.001Z</time></trkpt><trkpt lat="40.83764185302795" lon="8.244828100220863"><ele>40.0</ele><time>2026-05-02T13:21:12.001Z</time></trkpt><trkpt lat="40.83750617744706" lon="8.244835842614613"><ele>40.0</ele><time>2026-05-02T13:21:13.001Z</time></trkpt><trkpt lat="40.83738451117822" lon="8.244862635376691"><ele>40.0</ele><time>2026-05-02T13:21:14.001Z</time></trkpt><trkpt lat="40.83727797449857" lon="8.244885109105354"><ele>40.2</ele><time>2026-05-02T13:21:15.001Z</time></trkpt><trkpt lat="40.8371815428089" lon="8.244926478103125"><ele>40.4</ele><time>2026-05-02T13:21:16.001Z</time></trkpt><trkpt lat="40.83708672123074" lon="8.244947767472585"><ele>40.599999999999994</ele><time>2026-05-02T13:21:17.001Z</time></trkpt><trkpt lat="40.83699842669195" lon="8.24496860724651"><ele>40.8</ele><time>2026-05-02T13:21:18.001Z</time></trkpt><trkpt lat="40.8369089743928" lon="8.244972864924973"><ele>41.0</ele><time>2026-05-02T13:21:19.001Z</time></trkpt><trkpt lat="40.8368151658659" lon="8.244963365721015"><ele>40.8</ele><time>2026-05-02T13:21:20.001Z</time></trkpt><trkpt lat="40.836727275605035" lon="8.244927793904951"><ele>40.599999999999994</ele><time>2026-05-02T13:21:21.001Z</time></trkpt><trkpt lat="40.83664094028194" lon="8.24490683764528"><ele>40.4</ele><time>2026-05-02T13:21:22.001Z</time></trkpt><trkpt lat="40.836545858350235" lon="8.244937713475709"><ele>40.2</ele><time>2026-05-02T13:21:23.001Z</time></trkpt><trkpt lat="40.836454973200524" lon="8.245007152446691"><ele>40.0</ele><time>2026-05-02T13:21:24.001Z</time></trkpt><trkpt lat="40.836339388189344" lon="8.24509095232972"><ele>40.0</ele><time>2026-05-02T13:21:25.001Z</time></trkpt><trkpt lat="40.83620666599556" lon="8.245163039878564"><ele>40.0</ele><time>2026-05-02T13:21:26.001Z</time></trkpt><trkpt lat="40.836073449970215" lon="8.24524670432963"><ele>40.0</ele><time>2026-05-02T13:21:27.001Z</time></trkpt><trkpt lat="40.83596903151004" lon="8.24537382480416"><ele>40.0</ele><time>2026-05-02T13:21:28.001Z</time></trkpt><trkpt lat="40.835877424817134" lon="8.245564142014702"><ele>39.333333333333336</ele><time>2026-05-02T13:21:29.001Z</time></trkpt><trkpt lat="40.83578163749309" lon="8.245791226456484"><ele>38.666666666666664</ele><time>2026-05-02T13:21:30.001Z</time></trkpt><trkpt lat="40.835684533309085" lon="8.24604104043139"><ele>38.0</ele><time>2026-05-02T13:21:31.001Z</time></trkpt><trkpt lat="40.83555383879422" lon="8.246277874079006"><ele>37.666666666666664</ele><time>2026-05-02T13:21:32.001Z</time></trkpt><trkpt lat="40.83544960255379" lon="8.246530324770976"><ele>37.333333333333336</ele><time>2026-05-02T13:21:33.001Z</time></trkpt><trkpt lat="40.83532687128748" lon="8.246779742114551"><ele>37.0</ele><time>2026-05-02T13:21:34.001Z</time></trkpt><trkpt lat="40.83520783177946" lon="8.24703392084036"><ele>36.0</ele><time>2026-05-02T13:21:35.001Z</time></trkpt><trkpt lat="40.83508708554625" lon="8.247295161652483"><ele>35.0</ele><time>2026-05-02T13:21:36.001Z</time></trkpt><trkpt lat="40.83495310656241" lon="8.247532685296603"><ele>35.0</ele><time>2026-05-02T13:21:37.001Z</time></trkpt><trkpt lat="40.8348466435204" lon="8.247794698123094"><ele>35.0</ele><time>2026-05-02T13:21:38.001Z</time></trkpt><trkpt lat="40.83472592065309" lon="8.248042038492667"><ele>35.0</ele><time>2026-05-02T13:21:39.001Z</time></trkpt><trkpt lat="40.834594428755295" lon="8.248279795505681"><ele>35.5</ele><time>2026-05-02T13:21:40.001Z</time></trkpt><trkpt lat="40.83448815758983" lon="8.248542613709631"><ele>36.0</ele><time>2026-05-02T13:21:41.001Z</time></trkpt><trkpt lat="40.83436546763661" lon="8.248798991519841"><ele>36.0</ele><time>2026-05-02T13:21:42.001Z</time></trkpt><trkpt lat="40.834241616445745" lon="8.24905778677211"><ele>36.0</ele><time>2026-05-02T13:21:43.001Z</time></trkpt><trkpt lat="40.83409458120065" lon="8.249312685926805"><ele>36.0</ele><time>2026-05-02T13:21:44.001Z</time></trkpt><trkpt lat="40.83394065683221" lon="8.249563407891765"><ele>36.0</ele><time>2026-05-02T13:21:45.001Z</time></trkpt><trkpt lat="40.83375851680486" lon="8.24982444202325"><ele>35.5</ele><time>2026-05-02T13:21:46.001Z</time></trkpt><trkpt lat="40.83356653731311" lon="8.250093649187853"><ele>35.0</ele><time>2026-05-02T13:21:47.001Z</time></trkpt><trkpt lat="40.83338333893971" lon="8.250356038559572"><ele>35.5</ele><time>2026-05-02T13:21:48.001Z</time></trkpt><trkpt lat="40.8332121909126" lon="8.250623160007457"><ele>36.0</ele><time>2026-05-02T13:21:49.001Z</time></trkpt><trkpt lat="40.83303113225955" lon="8.250875009567695"><ele>36.0</ele><time>2026-05-02T13:21:50.001Z</time></trkpt><trkpt lat="40.8328585252654" lon="8.251116370069973"><ele>36.0</ele><time>2026-05-02T13:21:51.001Z</time></trkpt><trkpt lat="40.832672465057215" lon="8.251325160061635"><ele>36.0</ele><time>2026-05-02T13:21:52.001Z</time></trkpt><trkpt lat="40.83247770097166" lon="8.251540849536788"><ele>36.0</ele><time>2026-05-02T13:21:53.001Z</time></trkpt><trkpt lat="40.83228420144049" lon="8.251743786895664"><ele>36.0</ele><time>2026-05-02T13:21:54.001Z</time></trkpt><trkpt lat="40.832086909318036" lon="8.251948313670074"><ele>36.0</ele><time>2026-05-02T13:21:55.001Z</time></trkpt><trkpt lat="40.83188739029778" lon="8.25215422664001"><ele>35.0</ele><time>2026-05-02T13:21:56.001Z</time></trkpt><trkpt lat="40.83168650811747" lon="8.25236220604993"><ele>34.0</ele><time>2026-05-02T13:21:57.001Z</time></trkpt><trkpt lat="40.8314851073208" lon="8.252570378330667"><ele>34.0</ele><time>2026-05-02T13:21:58.001Z</time></trkpt><trkpt lat="40.83129071433467" lon="8.252773413035957"><ele>34.0</ele><time>2026-05-02T13:21:59.001Z</time></trkpt><trkpt lat="40.831110181936026" lon="8.252964182492315"><ele>34.0</ele><time>2026-05-02T13:22:00.001Z</time></trkpt><trkpt lat="40.83093765554741" lon="8.253151547212722"><ele>34.0</ele><time>2026-05-02T13:22:01.001Z</time></trkpt><trkpt lat="40.83077313840348" lon="8.253330216225192"><ele>34.0</ele><time>2026-05-02T13:22:02.001Z</time></trkpt><trkpt lat="40.830611930097355" lon="8.25350529177025"><ele>34.0</ele><time>2026-05-02T13:22:03.001Z</time></trkpt><trkpt lat="40.83060143161892" lon="8.253928194153788"><ele>34.0</ele><time>2026-05-02T13:22:04.001Z</time></trkpt><trkpt lat="40.83049398994355" lon="8.254194239268038"><ele>34.0</ele><time>2026-05-02T13:22:05.001Z</time></trkpt><trkpt lat="40.8303804929475" lon="8.254443038315427"><ele>34.0</ele><time>2026-05-02T13:22:06.001Z</time></trkpt><trkpt lat="40.83027790096372" lon="8.254672104668257"><ele>34.0</ele><time>2026-05-02T13:22:07.001Z</time></trkpt><trkpt lat="40.83016560974834" lon="8.254880665692376"><ele>32.66666666666667</ele><time>2026-05-02T13:22:08.001Z</time></trkpt><trkpt lat="40.83001726527412" lon="8.25506377182294"><ele>31.333333333333336</ele><time>2026-05-02T13:22:09.001Z</time></trkpt><trkpt lat="40.829829101643774" lon="8.255219592343257"><ele>30.0</ele><time>2026-05-02T13:22:10.001Z</time></trkpt><trkpt lat="40.829625479497686" lon="8.255364273045474"><ele>30.0</ele><time>2026-05-02T13:22:11.001Z</time></trkpt><trkpt lat="40.82942337965926" lon="8.255524079075235"><ele>30.0</ele><time>2026-05-02T13:22:12.001Z</time></trkpt><trkpt lat="40.829224122262815" lon="8.255698734831267"><ele>28.0</ele><time>2026-05-02T13:22:13.001Z</time></trkpt><trkpt lat="40.829016937370056" lon="8.255877910224985"><ele>26.0</ele><time>2026-05-02T13:22:14.001Z</time></trkpt><trkpt lat="40.8288037723648" lon="8.256061512571412"><ele>26.0</ele><time>2026-05-02T13:22:15.001Z</time></trkpt><trkpt lat="40.82858829453154" lon="8.256248502155623"><ele>26.0</ele><time>2026-05-02T13:22:16.001Z</time></trkpt><trkpt lat="40.82836624907506" lon="8.2564341913133"><ele>24.0</ele><time>2026-05-02T13:22:17.001Z</time></trkpt><trkpt lat="40.82815613173276" lon="8.256608213278328"><ele>22.0</ele><time>2026-05-02T13:22:18.001Z</time></trkpt><trkpt lat="40.82794627867819" lon="8.256784229135981"><ele>22.0</ele><time>2026-05-02T13:22:19.001Z</time></trkpt><trkpt lat="40.827734622371345" lon="8.256965446246426"><ele>22.0</ele><time>2026-05-02T13:22:20.001Z</time></trkpt><trkpt lat="40.82752503849377" lon="8.257143924831471"><ele>20.0</ele><time>2026-05-02T13:22:21.001Z</time></trkpt><trkpt lat="40.827324266731075" lon="8.25731870917831"><ele>18.0</ele><time>2026-05-02T13:22:22.001Z</time></trkpt><trkpt lat="40.82713409438711" lon="8.257516394208205"><ele>18.0</ele><time>2026-05-02T13:22:23.001Z</time></trkpt><trkpt lat="40.82697707013182" lon="8.257751354668835"><ele>18.0</ele><time>2026-05-02T13:22:24.001Z</time></trkpt><trkpt lat="40.82684083446158" lon="8.258002026620453"><ele>17.666666666666668</ele><time>2026-05-02T13:22:25.001Z</time></trkpt><trkpt lat="40.82670676821625" lon="8.258236949985386"><ele>17.333333333333336</ele><time>2026-05-02T13:22:26.001Z</time></trkpt><trkpt lat="40.82656611562637" lon="8.258458817067535"><ele>17.0</ele><time>2026-05-02T13:22:27.001Z</time></trkpt><trkpt lat="40.82643252212995" lon="8.258668952963845"><ele>17.0</ele><time>2026-05-02T13:22:28.001Z</time></trkpt><trkpt lat="40.826304300517926" lon="8.258879700401115"><ele>17.0</ele><time>2026-05-02T13:22:29.001Z</time></trkpt><trkpt lat="40.82618113378922" lon="8.259079670815298"><ele>17.0</ele><time>2026-05-02T13:22:30.001Z</time></trkpt><trkpt lat="40.826067639895584" lon="8.259248882752441"><ele>16.5</ele><time>2026-05-02T13:22:31.001Z</time></trkpt><trkpt lat="40.825946483109064" lon="8.25933727293134"><ele>16.0</ele><time>2026-05-02T13:22:32.001Z</time></trkpt><trkpt lat="40.82581390103584" lon="8.259327132867329"><ele>15.5</ele><time>2026-05-02T13:22:33.001Z</time></trkpt><trkpt lat="40.82565553546477" lon="8.259274111243212"><ele>15.0</ele><time>2026-05-02T13:22:34.001Z</time></trkpt><trkpt lat="40.825504106906244" lon="8.259229710911185"><ele>15.0</ele><time>2026-05-02T13:22:35.001Z</time></trkpt><trkpt lat="40.82535790180557" lon="8.259227690726872"><ele>15.0</ele><time>2026-05-02T13:22:36.001Z</time></trkpt><trkpt lat="40.82521568616854" lon="8.259279531743234"><ele>15.0</ele><time>2026-05-02T13:22:37.001Z</time></trkpt><trkpt lat="40.8250954433454" lon="8.259398615044487"><ele>15.0</ele><time>2026-05-02T13:22:38.001Z</time></trkpt><trkpt lat="40.824987395056766" lon="8.25956925263746"><ele>15.0</ele><time>2026-05-02T13:22:39.001Z</time></trkpt><trkpt lat="40.824897042949715" lon="8.259780558487128"><ele>15.0</ele><time>2026-05-02T13:22:40.001Z</time></trkpt><trkpt lat="40.824814173631104" lon="8.259974855732217"><ele>15.0</ele><time>2026-05-02T13:22:41.001Z</time></trkpt><trkpt lat="40.82473729583508" lon="8.260145488657022"><ele>15.0</ele><time>2026-05-02T13:22:42.001Z</time></trkpt><trkpt lat="40.82467823822261" lon="8.260317161902224"><ele>15.0</ele><time>2026-05-02T13:22:43.001Z</time></trkpt><trkpt lat="40.8246706610755" lon="8.260517616431168"><ele>15.0</ele><time>2026-05-02T13:22:44.001Z</time></trkpt><trkpt lat="40.82469343453419" lon="8.260736069193708"><ele>15.0</ele><time>2026-05-02T13:22:45.001Z</time></trkpt><trkpt lat="40.824716316125524" lon="8.260957305907025"><ele>15.0</ele><time>2026-05-02T13:22:46.001Z</time></trkpt><trkpt lat="40.824728938414836" lon="8.2611974468522"><ele>15.0</ele><time>2026-05-02T13:22:47.001Z</time></trkpt><trkpt lat="40.824689857890135" lon="8.261450771468446"><ele>15.0</ele><time>2026-05-02T13:22:48.001Z</time></trkpt><trkpt lat="40.824630365460536" lon="8.261740052687054"><ele>15.0</ele><time>2026-05-02T13:22:49.001Z</time></trkpt><trkpt lat="40.824558639057166" lon="8.262029861164342"><ele>15.5</ele><time>2026-05-02T13:22:50.001Z</time></trkpt><trkpt lat="40.82449619408157" lon="8.262318251423153"><ele>16.0</ele><time>2026-05-02T13:22:51.001Z</time></trkpt><trkpt lat="40.824442318964614" lon="8.262609841155163"><ele>16.0</ele><time>2026-05-02T13:22:52.001Z</time></trkpt><trkpt lat="40.82439019758401" lon="8.262895541990455"><ele>16.0</ele><time>2026-05-02T13:22:53.001Z</time></trkpt><trkpt lat="40.82434540476318" lon="8.26315429768803"><ele>16.0</ele><time>2026-05-02T13:22:54.001Z</time></trkpt><trkpt lat="40.82429965096903" lon="8.263400448467312"><ele>16.333333333333332</ele><time>2026-05-02T13:22:55.001Z</time></trkpt><trkpt lat="40.82430071110677" lon="8.263649338802674"><ele>16.666666666666668</ele><time>2026-05-02T13:22:56.001Z</time></trkpt><trkpt lat="40.82435085419717" lon="8.263913031577635"><ele>17.0</ele><time>2026-05-02T13:22:57.001Z</time></trkpt><trkpt lat="40.824411443662186" lon="8.264178976742597"><ele>17.0</ele><time>2026-05-02T13:22:58.001Z</time></trkpt><trkpt lat="40.82445339187678" lon="8.264424288800482"><ele>17.0</ele><time>2026-05-02T13:22:59.001Z</time></trkpt><trkpt lat="40.82448843651011" lon="8.264669347764679"><ele>17.0</ele><time>2026-05-02T13:23:00.001Z</time></trkpt><trkpt lat="40.82451795604094" lon="8.26491170235341"><ele>16.666666666666668</ele><time>2026-05-02T13:23:01.001Z</time></trkpt><trkpt lat="40.82453896959469" lon="8.26514018055317"><ele>16.333333333333332</ele><time>2026-05-02T13:23:02.001Z</time></trkpt><trkpt lat="40.82450776188373" lon="8.26536403984773"><ele>16.0</ele><time>2026-05-02T13:23:03.001Z</time></trkpt><trkpt lat="40.82442637498338" lon="8.265604999628929"><ele>17.0</ele><time>2026-05-02T13:23:04.001Z</time></trkpt><trkpt lat="40.82434125397667" lon="8.265843860568339"><ele>18.0</ele><time>2026-05-02T13:23:05.001Z</time></trkpt><trkpt lat="40.82426895398155" lon="8.266079588522471"><ele>19.0</ele><time>2026-05-02T13:23:06.001Z</time></trkpt><trkpt lat="40.82419788584147" lon="8.266324478864467"><ele>19.666666666666664</ele><time>2026-05-02T13:23:07.001Z</time></trkpt><trkpt lat="40.82412397651239" lon="8.26658257872423"><ele>20.333333333333332</ele><time>2026-05-02T13:23:08.001Z</time></trkpt><trkpt lat="40.82404607689159" lon="8.266855453058145"><ele>21.0</ele><time>2026-05-02T13:23:09.001Z</time></trkpt><trkpt lat="40.82396492972721" lon="8.267140637135578"><ele>22.0</ele><time>2026-05-02T13:23:10.001Z</time></trkpt><trkpt lat="40.823879453001666" lon="8.267419109068953"><ele>23.0</ele><time>2026-05-02T13:23:11.001Z</time></trkpt><trkpt lat="40.82380392405368" lon="8.267703923082097"><ele>23.0</ele><time>2026-05-02T13:23:12.001Z</time></trkpt><trkpt lat="40.823734244078295" lon="8.267995158055523"><ele>23.0</ele><time>2026-05-02T13:23:13.001Z</time></trkpt><trkpt lat="40.82366640481835" lon="8.268289652039003"><ele>22.0</ele><time>2026-05-02T13:23:14.001Z</time></trkpt><trkpt lat="40.82360263759599" lon="8.268582339956467"><ele>21.0</ele><time>2026-05-02T13:23:15.001Z</time></trkpt><trkpt lat="40.823538407901374" lon="8.268878821959463"><ele>21.0</ele><time>2026-05-02T13:23:16.001Z</time></trkpt><trkpt lat="40.82347738500508" lon="8.269192243175992"><ele>21.0</ele><time>2026-05-02T13:23:17.001Z</time></trkpt><trkpt lat="40.82339499276985" lon="8.269494529780404"><ele>21.0</ele><time>2026-05-02T13:23:18.001Z</time></trkpt><trkpt lat="40.82333009012534" lon="8.269790614573406"><ele>21.0</ele><time>2026-05-02T13:23:19.001Z</time></trkpt><trkpt lat="40.82326325487135" lon="8.270069059604308"><ele>21.0</ele><time>2026-05-02T13:23:20.001Z</time></trkpt><trkpt lat="40.82317944860301" lon="8.270321265555722"><ele>21.0</ele><time>2026-05-02T13:23:21.001Z</time></trkpt><trkpt lat="40.82305982477577" lon="8.270560135236638"><ele>21.0</ele><time>2026-05-02T13:23:22.001Z</time></trkpt><trkpt lat="40.82290608785369" lon="8.270814292210966"><ele>21.0</ele><time>2026-05-02T13:23:23.001Z</time></trkpt><trkpt lat="40.8227287396704" lon="8.271102804377282"><ele>21.0</ele><time>2026-05-02T13:23:24.001Z</time></trkpt><trkpt lat="40.82254058970258" lon="8.271408859782362"><ele>21.5</ele><time>2026-05-02T13:23:25.001Z</time></trkpt><trkpt lat="40.822361096305364" lon="8.27170183650712"><ele>22.0</ele><time>2026-05-02T13:23:26.001Z</time></trkpt><trkpt lat="40.82218771117424" lon="8.271986628227141"><ele>22.0</ele><time>2026-05-02T13:23:27.001Z</time></trkpt><trkpt lat="40.82201515079812" lon="8.272270065368488"><ele>22.0</ele><time>2026-05-02T13:23:28.001Z</time></trkpt><trkpt lat="40.821849486617445" lon="8.272542175336506"><ele>24.0</ele><time>2026-05-02T13:23:29.001Z</time></trkpt><trkpt lat="40.821694360002375" lon="8.272799043573597"><ele>26.0</ele><time>2026-05-02T13:23:30.001Z</time></trkpt><trkpt lat="40.821551057442946" lon="8.273037282328193"><ele>26.0</ele><time>2026-05-02T13:23:31.001Z</time></trkpt><trkpt lat="40.82142285281825" lon="8.273273124462836"><ele>26.0</ele><time>2026-05-02T13:23:32.001Z</time></trkpt><trkpt lat="40.82124664486688" lon="8.273457512315183"><ele>26.0</ele><time>2026-05-02T13:23:33.001Z</time></trkpt><trkpt lat="40.821039258486145" lon="8.273586847759166"><ele>26.0</ele><time>2026-05-02T13:23:34.001Z</time></trkpt><trkpt lat="40.8208078585373" lon="8.273699864930196"><ele>26.0</ele><time>2026-05-02T13:23:35.001Z</time></trkpt><trkpt lat="40.82057938086346" lon="8.273846032757321"><ele>27.0</ele><time>2026-05-02T13:23:36.001Z</time></trkpt><trkpt lat="40.820361335911684" lon="8.27399167572868"><ele>28.0</ele><time>2026-05-02T13:23:37.001Z</time></trkpt><trkpt lat="40.82015659496179" lon="8.27412446594031"><ele>28.0</ele><time>2026-05-02T13:23:38.001Z</time></trkpt><trkpt lat="40.8199697228962" lon="8.274245586252572"><ele>28.0</ele><time>2026-05-02T13:23:39.001Z</time></trkpt><trkpt lat="40.819812151712576" lon="8.274379075738786"><ele>28.0</ele><time>2026-05-02T13:23:40.001Z</time></trkpt><trkpt lat="40.81969278246512" lon="8.274555442274421"><ele>28.666666666666668</ele><time>2026-05-02T13:23:41.001Z</time></trkpt><trkpt lat="40.81960337641223" lon="8.274777274392365"><ele>29.333333333333336</ele><time>2026-05-02T13:23:42.001Z</time></trkpt><trkpt lat="40.81953399979268" lon="8.275046669691928"><ele>30.0</ele><time>2026-05-02T13:23:43.001Z</time></trkpt><trkpt lat="40.81946020759841" lon="8.27535050168141"><ele>32.0</ele><time>2026-05-02T13:23:44.001Z</time></trkpt><trkpt lat="40.81937501473322" lon="8.275667696377411"><ele>34.0</ele><time>2026-05-02T13:23:45.001Z</time></trkpt><trkpt lat="40.819278383813966" lon="8.275975927115226"><ele>34.5</ele><time>2026-05-02T13:23:46.001Z</time></trkpt><trkpt lat="40.819183197052816" lon="8.276274156961508"><ele>35.0</ele><time>2026-05-02T13:23:47.001Z</time></trkpt><trkpt lat="40.819093534521194" lon="8.276573840677662"><ele>36.0</ele><time>2026-05-02T13:23:48.001Z</time></trkpt><trkpt lat="40.81899862017926" lon="8.2768817740732"><ele>37.0</ele><time>2026-05-02T13:23:49.001Z</time></trkpt><trkpt lat="40.81890384066997" lon="8.277192773184272"><ele>40.0</ele><time>2026-05-02T13:23:50.001Z</time></trkpt><trkpt lat="40.81880833833734" lon="8.277505018546927"><ele>43.0</ele><time>2026-05-02T13:23:51.001Z</time></trkpt><trkpt lat="40.818711565100564" lon="8.277823837896227"><ele>45.5</ele><time>2026-05-02T13:23:52.001Z</time></trkpt><trkpt lat="40.818614323760364" lon="8.278147449217284"><ele>48.0</ele><time>2026-05-02T13:23:53.001Z</time></trkpt><trkpt lat="40.81851468563018" lon="8.27847000157375"><ele>47.5</ele><time>2026-05-02T13:23:54.001Z</time></trkpt><trkpt lat="40.81841765639893" lon="8.278792216415251"><ele>47.0</ele><time>2026-05-02T13:23:55.001Z</time></trkpt><trkpt lat="40.81832210201054" lon="8.279113767455296"><ele>47.0</ele><time>2026-05-02T13:23:56.001Z</time></trkpt><trkpt lat="40.81822948438209" lon="8.279425927946587"><ele>47.0</ele><time>2026-05-02T13:23:57.001Z</time></trkpt><trkpt lat="40.818129130944875" lon="8.279728484623758"><ele>48.5</ele><time>2026-05-02T13:23:58.001Z</time></trkpt><trkpt lat="40.8179979856126" lon="8.280015098472598"><ele>50.0</ele><time>2026-05-02T13:23:59.001Z</time></trkpt><trkpt lat="40.81785165081216" lon="8.280251410152475"><ele>50.0</ele><time>2026-05-02T13:24:00.001Z</time></trkpt><trkpt lat="40.81771203127462" lon="8.280470410947158"><ele>50.0</ele><time>2026-05-02T13:24:01.001Z</time></trkpt><trkpt lat="40.81758982465899" lon="8.280636537864888"><ele>50.0</ele><time>2026-05-02T13:24:02.001Z</time></trkpt><trkpt lat="40.81745329113332" lon="8.280728725967146"><ele>50.333333333333336</ele><time>2026-05-02T13:24:03.001Z</time></trkpt><trkpt lat="40.81728440743688" lon="8.28075130824705"><ele>50.66666666666667</ele><time>2026-05-02T13:24:04.001Z</time></trkpt><trkpt lat="40.817084447892086" lon="8.280746268921462"><ele>51.0</ele><time>2026-05-02T13:24:05Z</time></trkpt><trkpt lat="40.816859573440965" lon="8.280736274048808"><ele>51.33333333333333</ele><time>2026-05-02T13:24:06Z</time></trkpt><trkpt lat="40.81663178115899" lon="8.280750317659372"><ele>51.666666666666664</ele><time>2026-05-02T13:24:07Z</time></trkpt><trkpt lat="40.81641732067018" lon="8.280798003375555"><ele>52.0</ele><time>2026-05-02T13:24:08Z</time></trkpt><trkpt lat="40.816182744469714" lon="8.280844617197124"><ele>51.33333333333333</ele><time>2026-05-02T13:24:09Z</time></trkpt><trkpt lat="40.81596241605743" lon="8.280897042343529"><ele>50.66666666666667</ele><time>2026-05-02T13:24:10Z</time></trkpt><trkpt lat="40.81574159778555" lon="8.280947741079041"><ele>50.0</ele><time>2026-05-02T13:24:11Z</time></trkpt><trkpt lat="40.815521914340216" lon="8.281008565149914"><ele>50.0</ele><time>2026-05-02T13:24:12Z</time></trkpt><trkpt lat="40.815303997214386" lon="8.281075869828282"><ele>50.0</ele><time>2026-05-02T13:24:13Z</time></trkpt><trkpt lat="40.81508656809541" lon="8.281142413589473"><ele>50.0</ele><time>2026-05-02T13:24:14Z</time></trkpt><trkpt lat="40.814878609778965" lon="8.281204911425098"><ele>48.333333333333336</ele><time>2026-05-02T13:24:15Z</time></trkpt><trkpt lat="40.81468472867641" lon="8.28125641922012"><ele>46.66666666666667</ele><time>2026-05-02T13:24:16Z</time></trkpt><trkpt lat="40.81450685105774" lon="8.281308094454523"><ele>45.0</ele><time>2026-05-02T13:24:17Z</time></trkpt><trkpt lat="40.814341481849155" lon="8.281357548988035"><ele>44.75</ele><time>2026-05-02T13:24:18Z</time></trkpt><trkpt lat="40.814192182325364" lon="8.28139933529743"><ele>44.5</ele><time>2026-05-02T13:24:19Z</time></trkpt><trkpt lat="40.81406378999537" lon="8.281434550022842"><ele>44.25</ele><time>2026-05-02T13:24:20Z</time></trkpt><trkpt lat="40.81395218228813" lon="8.281466869848169"><ele>44.0</ele><time>2026-05-02T13:24:21Z</time></trkpt><trkpt lat="40.81385488503359" lon="8.281496086192792"><ele>44.0</ele><time>2026-05-02T13:24:22Z</time></trkpt><trkpt lat="40.813769543681026" lon="8.28153048575241"><ele>44.0</ele><time>2026-05-02T13:24:23Z</time></trkpt><trkpt lat="40.813689065490024" lon="8.281586663636157"><ele>44.0</ele><time>2026-05-02T13:24:24Z</time></trkpt><trkpt lat="40.81360573939227" lon="8.281676674626771"><ele>44.0</ele><time>2026-05-02T13:24:25.001Z</time></trkpt><trkpt lat="40.813522620862436" lon="8.28181606500514"><ele>44.0</ele><time>2026-05-02T13:24:26.001Z</time></trkpt><trkpt lat="40.813439318792135" lon="8.28195922282777"><ele>44.0</ele><time>2026-05-02T13:24:27.001Z</time></trkpt><trkpt lat="40.813346165993785" lon="8.28211914214144"><ele>44.0</ele><time>2026-05-02T13:24:28.001Z</time></trkpt><trkpt lat="40.81325176861896" lon="8.282278579538396"><ele>44.0</ele><time>2026-05-02T13:24:29.001Z</time></trkpt><trkpt lat="40.81315251954328" lon="8.282447838444394"><ele>44.666666666666664</ele><time>2026-05-02T13:24:30.001Z</time></trkpt><trkpt lat="40.813055264046625" lon="8.28261821858572"><ele>45.333333333333336</ele><time>2026-05-02T13:24:31.001Z</time></trkpt><trkpt lat="40.81295826705289" lon="8.282787865734873"><ele>46.0</ele><time>2026-05-02T13:24:32.001Z</time></trkpt><trkpt lat="40.81284509338982" lon="8.282952033849746"><ele>46.0</ele><time>2026-05-02T13:24:33.001Z</time></trkpt><trkpt lat="40.81271058798579" lon="8.283091070349302"><ele>46.0</ele><time>2026-05-02T13:24:34.001Z</time></trkpt><trkpt lat="40.812546060706644" lon="8.283209381953519"><ele>46.0</ele><time>2026-05-02T13:24:35.001Z</time></trkpt><trkpt lat="40.81236816501587" lon="8.283306722173293"><ele>46.66666666666667</ele><time>2026-05-02T13:24:36.001Z</time></trkpt><trkpt lat="40.812172464462506" lon="8.28341176352765"><ele>47.333333333333336</ele><time>2026-05-02T13:24:37.001Z</time></trkpt><trkpt lat="40.8119807361602" lon="8.283524865138473"><ele>48.0</ele><time>2026-05-02T13:24:38.001Z</time></trkpt><trkpt lat="40.81178657098045" lon="8.28363902659104"><ele>48.0</ele><time>2026-05-02T13:24:39.001Z</time></trkpt><trkpt lat="40.81158503020905" lon="8.283750523183322"><ele>48.0</ele><time>2026-05-02T13:24:40.001Z</time></trkpt><trkpt lat="40.811381291138325" lon="8.283869835501287"><ele>48.0</ele><time>2026-05-02T13:24:41.001Z</time></trkpt><trkpt lat="40.81118862837703" lon="8.283977277082165"><ele>47.666666666666664</ele><time>2026-05-02T13:24:42.001Z</time></trkpt><trkpt lat="40.81101093971802" lon="8.28407403170198"><ele>47.33333333333333</ele><time>2026-05-02T13:24:43.001Z</time></trkpt><trkpt lat="40.81084778584022" lon="8.284156923768576"><ele>47.0</ele><time>2026-05-02T13:24:44.001Z</time></trkpt><trkpt lat="40.81068768668723" lon="8.28420436775903"><ele>47.0</ele><time>2026-05-02T13:24:45.001Z</time></trkpt><trkpt lat="40.81054515276941" lon="8.284171362723267"><ele>47.0</ele><time>2026-05-02T13:24:46.001Z</time></trkpt><trkpt lat="40.81041431283707" lon="8.284069794937643"><ele>47.0</ele><time>2026-05-02T13:24:47.001Z</time></trkpt><trkpt lat="40.81029032135364" lon="8.283949458264534"><ele>47.0</ele><time>2026-05-02T13:24:48.001Z</time></trkpt><trkpt lat="40.8101656802059" lon="8.283876871591398"><ele>47.0</ele><time>2026-05-02T13:24:49.001Z</time></trkpt><trkpt lat="40.81003375293433" lon="8.283879985998961"><ele>47.0</ele><time>2026-05-02T13:24:50.001Z</time></trkpt><trkpt lat="40.80990640921319" lon="8.28396393525507"><ele>47.0</ele><time>2026-05-02T13:24:51.001Z</time></trkpt><trkpt lat="40.80979280957642" lon="8.28410444991242"><ele>46.33333333333333</ele><time>2026-05-02T13:24:52.001Z</time></trkpt><trkpt lat="40.80968743670941" lon="8.284296555049579"><ele>45.666666666666664</ele><time>2026-05-02T13:24:53.001Z</time></trkpt><trkpt lat="40.80959124028971" lon="8.284543591550326"><ele>45.0</ele><time>2026-05-02T13:24:54.001Z</time></trkpt><trkpt lat="40.809448345512536" lon="8.284837088794115"><ele>45.5</ele><time>2026-05-02T13:24:55.001Z</time></trkpt><trkpt lat="40.809299633721515" lon="8.285147506122815"><ele>46.0</ele><time>2026-05-02T13:24:56.001Z</time></trkpt><trkpt lat="40.80917661225003" lon="8.285444395172831"><ele>44.0</ele><time>2026-05-02T13:24:57.001Z</time></trkpt><trkpt lat="40.809042791819365" lon="8.285716775677756"><ele>42.0</ele><time>2026-05-02T13:24:58.001Z</time></trkpt><trkpt lat="40.80891433193639" lon="8.28598528110663"><ele>42.0</ele><time>2026-05-02T13:24:59.001Z</time></trkpt><trkpt lat="40.80877181077952" lon="8.286239414335968"><ele>42.0</ele><time>2026-05-02T13:25:00.001Z</time></trkpt><trkpt lat="40.80865085905888" lon="8.286488665616472"><ele>42.0</ele><time>2026-05-02T13:25:01.001Z</time></trkpt><trkpt lat="40.808555507821374" lon="8.286733871751885"><ele>42.0</ele><time>2026-05-02T13:25:02.001Z</time></trkpt><trkpt lat="40.80845015520051" lon="8.286969712552764"><ele>42.0</ele><time>2026-05-02T13:25:03.001Z</time></trkpt><trkpt lat="40.808411905131535" lon="8.28720310449236"><ele>37.0</ele><time>2026-05-02T13:25:04.001Z</time></trkpt><trkpt lat="40.80841703026995" lon="8.287488901384105"><ele>32.0</ele><time>2026-05-02T13:25:05.001Z</time></trkpt><trkpt lat="40.808438683169115" lon="8.287798359550939"><ele>31.5</ele><time>2026-05-02T13:25:06.001Z</time></trkpt><trkpt lat="40.80845485472001" lon="8.288122519171186"><ele>31.0</ele><time>2026-05-02T13:25:07.001Z</time></trkpt><trkpt lat="40.80845945009282" lon="8.288468095909884"><ele>31.0</ele><time>2026-05-02T13:25:08.001Z</time></trkpt><trkpt lat="40.80846232667329" lon="8.288827638209876"><ele>31.0</ele><time>2026-05-02T13:25:09.001Z</time></trkpt><trkpt lat="40.80846510417488" lon="8.289201876204265"><ele>30.0</ele><time>2026-05-02T13:25:10.001Z</time></trkpt><trkpt lat="40.80847074884096" lon="8.289595960469976"><ele>29.0</ele><time>2026-05-02T13:25:11.001Z</time></trkpt><trkpt lat="40.808475871337215" lon="8.28998933929128"><ele>28.0</ele><time>2026-05-02T13:25:12.001Z</time></trkpt><trkpt lat="40.80847649930104" lon="8.290368062512586"><ele>27.0</ele><time>2026-05-02T13:25:13.001Z</time></trkpt><trkpt lat="40.80847915667299" lon="8.290740544846377"><ele>26.0</ele><time>2026-05-02T13:25:14.001Z</time></trkpt><trkpt lat="40.808484144484055" lon="8.291111653770825"><ele>25.0</ele><time>2026-05-02T13:25:15.001Z</time></trkpt><trkpt lat="40.80849189623605" lon="8.291482260743093"><ele>26.0</ele><time>2026-05-02T13:25:16.001Z</time></trkpt><trkpt lat="40.80849920907062" lon="8.291854418278888"><ele>27.0</ele><time>2026-05-02T13:25:17.001Z</time></trkpt><trkpt lat="40.80850379445188" lon="8.292230118825469"><ele>26.5</ele><time>2026-05-02T13:25:18.001Z</time></trkpt><trkpt lat="40.80850723508837" lon="8.292598741090675"><ele>26.0</ele><time>2026-05-02T13:25:19.001Z</time></trkpt><trkpt lat="40.808513630664166" lon="8.292965549696277"><ele>25.5</ele><time>2026-05-02T13:25:20.001Z</time></trkpt><trkpt lat="40.80851919319491" lon="8.293326891997166"><ele>25.0</ele><time>2026-05-02T13:25:21.001Z</time></trkpt><trkpt lat="40.808521589564556" lon="8.293687953198486"><ele>25.0</ele><time>2026-05-02T13:25:22.001Z</time></trkpt><trkpt lat="40.80852901836603" lon="8.294025509533062"><ele>25.0</ele><time>2026-05-02T13:25:23.001Z</time></trkpt><trkpt lat="40.80856303112427" lon="8.294344949952515"><ele>25.0</ele><time>2026-05-02T13:25:24.001Z</time></trkpt><trkpt lat="40.80863665485174" lon="8.294658980674008"><ele>25.0</ele><time>2026-05-02T13:25:25.001Z</time></trkpt><trkpt lat="40.808741150625146" lon="8.294969540965356"><ele>24.0</ele><time>2026-05-02T13:25:26.001Z</time></trkpt><trkpt lat="40.80886068441517" lon="8.295280078139989"><ele>23.0</ele><time>2026-05-02T13:25:27.001Z</time></trkpt><trkpt lat="40.80897315114261" lon="8.29560735699259"><ele>22.5</ele><time>2026-05-02T13:25:28.001Z</time></trkpt><trkpt lat="40.8091856679726" lon="8.29589185450466"><ele>22.0</ele><time>2026-05-02T13:25:29.001Z</time></trkpt><trkpt lat="40.80933872389279" lon="8.296220786462763"><ele>24.5</ele><time>2026-05-02T13:25:30.001Z</time></trkpt><trkpt lat="40.80948848418011" lon="8.296551413303362"><ele>27.0</ele><time>2026-05-02T13:25:31.001Z</time></trkpt><trkpt lat="40.80963255296326" lon="8.296863528003426"><ele>27.0</ele><time>2026-05-02T13:25:32.001Z</time></trkpt><trkpt lat="40.80976275426525" lon="8.297142217160589"><ele>27.0</ele><time>2026-05-02T13:25:33.001Z</time></trkpt><trkpt lat="40.80989081838166" lon="8.29740474295372"><ele>26.0</ele><time>2026-05-02T13:25:34.001Z</time></trkpt><trkpt lat="40.80999651168538" lon="8.2976489021054"><ele>25.0</ele><time>2026-05-02T13:25:35.001Z</time></trkpt><trkpt lat="40.81004076525648" lon="8.297883613345794"><ele>24.0</ele><time>2026-05-02T13:25:36.001Z</time></trkpt><trkpt lat="40.81002363084237" lon="8.298086824527488"><ele>23.0</ele><time>2026-05-02T13:25:37.001Z</time></trkpt><trkpt lat="40.80996270356426" lon="8.29829426270081"><ele>22.0</ele><time>2026-05-02T13:25:38.001Z</time></trkpt><trkpt lat="40.80991129270672" lon="8.298548861244681"><ele>21.0</ele><time>2026-05-02T13:25:39.001Z</time></trkpt><trkpt lat="40.80987923639236" lon="8.298816816107385"><ele>21.666666666666668</ele><time>2026-05-02T13:25:40.001Z</time></trkpt><trkpt lat="40.809851049475" lon="8.299076765293096"><ele>22.333333333333336</ele><time>2026-05-02T13:25:41.001Z</time></trkpt><trkpt lat="40.80981978595658" lon="8.299334486883874"><ele>23.0</ele><time>2026-05-02T13:25:42.001Z</time></trkpt><trkpt lat="40.80979910054382" lon="8.299600952595064"><ele>23.333333333333336</ele><time>2026-05-02T13:25:43.001Z</time></trkpt><trkpt lat="40.80980316908102" lon="8.299870529529372"><ele>23.666666666666668</ele><time>2026-05-02T13:25:44.001Z</time></trkpt><trkpt lat="40.80984323855062" lon="8.300175513813688"><ele>24.0</ele><time>2026-05-02T13:25:45.001Z</time></trkpt><trkpt lat="40.809911718792954" lon="8.30048844041107"><ele>26.0</ele><time>2026-05-02T13:25:46Z</time></trkpt><trkpt lat="40.80997246462479" lon="8.300807597452025"><ele>28.0</ele><time>2026-05-02T13:25:47Z</time></trkpt><trkpt lat="40.81001798443514" lon="8.30111504395218"><ele>29.0</ele><time>2026-05-02T13:25:48Z</time></trkpt><trkpt lat="40.81006727857369" lon="8.30143102508604"><ele>30.0</ele><time>2026-05-02T13:25:49Z</time></trkpt><trkpt lat="40.81011719666872" lon="8.301741706039333"><ele>30.0</ele><time>2026-05-02T13:25:50Z</time></trkpt><trkpt lat="40.810146280787116" lon="8.302057940463591"><ele>30.0</ele><time>2026-05-02T13:25:51Z</time></trkpt><trkpt lat="40.810167924294106" lon="8.302376022089458"><ele>27.5</ele><time>2026-05-02T13:25:52Z</time></trkpt><trkpt lat="40.8101771350096" lon="8.302705286772111"><ele>25.0</ele><time>2026-05-02T13:25:53Z</time></trkpt><trkpt lat="40.81019539957464" lon="8.3029985856882"><ele>24.666666666666668</ele><time>2026-05-02T13:25:54Z</time></trkpt><trkpt lat="40.81021463322773" lon="8.30327419864955"><ele>24.333333333333336</ele><time>2026-05-02T13:25:55Z</time></trkpt><trkpt lat="40.810230403582906" lon="8.303536352569107"><ele>24.0</ele><time>2026-05-02T13:25:56Z</time></trkpt><trkpt lat="40.81023400908542" lon="8.303769204236453"><ele>24.0</ele><time>2026-05-02T13:25:57Z</time></trkpt><trkpt lat="40.81020600086442" lon="8.30398234492866"><ele>24.0</ele><time>2026-05-02T13:25:58Z</time></trkpt><trkpt lat="40.810112055177065" lon="8.304179433860872"><ele>24.0</ele><time>2026-05-02T13:25:59Z</time></trkpt><trkpt lat="40.80997874418483" lon="8.304362399572042"><ele>24.666666666666664</ele><time>2026-05-02T13:26:00Z</time></trkpt><trkpt lat="40.809803852678904" lon="8.304524672963494"><ele>25.333333333333332</ele><time>2026-05-02T13:26:01Z</time></trkpt><trkpt lat="40.80959439973912" lon="8.304666257763955"><ele>26.0</ele><time>2026-05-02T13:26:02Z</time></trkpt><trkpt lat="40.809395570273466" lon="8.304801607501387"><ele>29.0</ele><time>2026-05-02T13:26:03Z</time></trkpt><trkpt lat="40.809221411991494" lon="8.304982332461108"><ele>32.0</ele><time>2026-05-02T13:26:04Z</time></trkpt><trkpt lat="40.809060529367116" lon="8.30524114540206"><ele>32.0</ele><time>2026-05-02T13:26:05Z</time></trkpt><trkpt lat="40.80889643208332" lon="8.305549782891406"><ele>32.0</ele><time>2026-05-02T13:26:06Z</time></trkpt><trkpt lat="40.8087278316703" lon="8.305852336792155"><ele>30.5</ele><time>2026-05-02T13:26:07Z</time></trkpt><trkpt lat="40.80855749917634" lon="8.306145578688021"><ele>29.0</ele><time>2026-05-02T13:26:08Z</time></trkpt><trkpt lat="40.8083822866038" lon="8.306440636021687"><ele>29.0</ele><time>2026-05-02T13:26:09Z</time></trkpt><trkpt lat="40.80820994267329" lon="8.306718442608913"><ele>29.0</ele><time>2026-05-02T13:26:10Z</time></trkpt><trkpt lat="40.80804237493851" lon="8.306997236078972"><ele>29.0</ele><time>2026-05-02T13:26:11Z</time></trkpt><trkpt lat="40.807890975274105" lon="8.30724303750549"><ele>29.0</ele><time>2026-05-02T13:26:12Z</time></trkpt><trkpt lat="40.80775333658471" lon="8.307471441837565"><ele>29.666666666666664</ele><time>2026-05-02T13:26:13Z</time></trkpt><trkpt lat="40.807618421249536" lon="8.307689278197687"><ele>30.333333333333336</ele><time>2026-05-02T13:26:14Z</time></trkpt><trkpt lat="40.80748801854259" lon="8.307904859631465"><ele>31.0</ele><time>2026-05-02T13:26:15Z</time></trkpt><trkpt lat="40.80735912193125" lon="8.308118973167778"><ele>31.0</ele><time>2026-05-02T13:26:16Z</time></trkpt><trkpt lat="40.80722613835908" lon="8.308335562514879"><ele>31.0</ele><time>2026-05-02T13:26:17Z</time></trkpt><trkpt lat="40.80709108095546" lon="8.308551097999493"><ele>31.0</ele><time>2026-05-02T13:26:18Z</time></trkpt><trkpt lat="40.80695031497191" lon="8.308768921505173"><ele>30.666666666666668</ele><time>2026-05-02T13:26:19Z</time></trkpt><trkpt lat="40.80682797250703" lon="8.308984666348577"><ele>30.333333333333336</ele><time>2026-05-02T13:26:20Z</time></trkpt><trkpt lat="40.806737910089346" lon="8.309192220922604"><ele>30.0</ele><time>2026-05-02T13:26:21Z</time></trkpt><trkpt lat="40.80668266049716" lon="8.309487399447328"><ele>31.0</ele><time>2026-05-02T13:26:22Z</time></trkpt><trkpt lat="40.80666260352081" lon="8.309788426798695"><ele>32.0</ele><time>2026-05-02T13:26:23Z</time></trkpt><trkpt lat="40.8066691218676" lon="8.310111481049782"><ele>32.0</ele><time>2026-05-02T13:26:24Z</time></trkpt><trkpt lat="40.80666654433939" lon="8.310438323298847"><ele>32.0</ele><time>2026-05-02T13:26:25Z</time></trkpt><trkpt lat="40.8066511442348" lon="8.310781805653223"><ele>32.0</ele><time>2026-05-02T13:26:26Z</time></trkpt><trkpt lat="40.806631830264344" lon="8.311122783061496"><ele>32.0</ele><time>2026-05-02T13:26:27Z</time></trkpt><trkpt lat="40.80661326299611" lon="8.311473548501706"><ele>32.0</ele><time>2026-05-02T13:26:28Z</time></trkpt><trkpt lat="40.80659868778167" lon="8.311815216493446"><ele>32.0</ele><time>2026-05-02T13:26:29Z</time></trkpt><trkpt lat="40.8065797175336" lon="8.312166569042077"><ele>31.5</ele><time>2026-05-02T13:26:30Z</time></trkpt><trkpt lat="40.80656005717512" lon="8.31252149757997"><ele>31.0</ele><time>2026-05-02T13:26:31Z</time></trkpt><trkpt lat="40.80654234919831" lon="8.31288091252806"><ele>31.5</ele><time>2026-05-02T13:26:32Z</time></trkpt><trkpt lat="40.806526301297495" lon="8.313225987691656"><ele>32.0</ele><time>2026-05-02T13:26:33Z</time></trkpt><trkpt lat="40.80650856368795" lon="8.313576415390605"><ele>33.0</ele><time>2026-05-02T13:26:34Z</time></trkpt><trkpt lat="40.80649417789999" lon="8.31392329867252"><ele>34.0</ele><time>2026-05-02T13:26:35Z</time></trkpt><trkpt lat="40.806475982486006" lon="8.314278044060215"><ele>34.0</ele><time>2026-05-02T13:26:36Z</time></trkpt><trkpt lat="40.806458317468994" lon="8.314633421762466"><ele>34.0</ele><time>2026-05-02T13:26:37Z</time></trkpt><trkpt lat="40.806441536702394" lon="8.31498351232243"><ele>34.0</ele><time>2026-05-02T13:26:38Z</time></trkpt><trkpt lat="40.80642621841001" lon="8.315337532322134"><ele>34.0</ele><time>2026-05-02T13:26:39Z</time></trkpt><trkpt lat="40.806408893973085" lon="8.315687930477347"><ele>34.5</ele><time>2026-05-02T13:26:40Z</time></trkpt><trkpt lat="40.80639173320121" lon="8.31604022533392"><ele>35.0</ele><time>2026-05-02T13:26:41Z</time></trkpt><trkpt lat="40.806375261028634" lon="8.31639172213717"><ele>36.0</ele><time>2026-05-02T13:26:42Z</time></trkpt><trkpt lat="40.806357395541276" lon="8.316745287255769"><ele>37.0</ele><time>2026-05-02T13:26:43Z</time></trkpt><trkpt lat="40.80634088936045" lon="8.31709094158189"><ele>37.0</ele><time>2026-05-02T13:26:44Z</time></trkpt><trkpt lat="40.80632846785206" lon="8.317444368810817"><ele>37.0</ele><time>2026-05-02T13:26:45Z</time></trkpt><trkpt lat="40.806312756055405" lon="8.317795310332055"><ele>36.5</ele><time>2026-05-02T13:26:46Z</time></trkpt><trkpt lat="40.80630091447534" lon="8.318142609583514"><ele>36.0</ele><time>2026-05-02T13:26:47Z</time></trkpt><trkpt lat="40.80629121994761" lon="8.318483407297132"><ele>36.0</ele><time>2026-05-02T13:26:48Z</time></trkpt><trkpt lat="40.80628462707239" lon="8.318825212641576"><ele>36.0</ele><time>2026-05-02T13:26:49Z</time></trkpt><trkpt lat="40.80627816720082" lon="8.319167059376916"><ele>37.0</ele><time>2026-05-02T13:26:50Z</time></trkpt><trkpt lat="40.806278467754524" lon="8.319487411860461"><ele>38.0</ele><time>2026-05-02T13:26:51Z</time></trkpt><trkpt lat="40.80628575207226" lon="8.319783002455315"><ele>38.33333333333333</ele><time>2026-05-02T13:26:52Z</time></trkpt><trkpt lat="40.80628394436833" lon="8.320068082230838"><ele>38.666666666666664</ele><time>2026-05-02T13:26:53Z</time></trkpt><trkpt lat="40.80627010598257" lon="8.320345134670875"><ele>39.0</ele><time>2026-05-02T13:26:54Z</time></trkpt><trkpt lat="40.80623435829881" lon="8.320628436391628"><ele>40.0</ele><time>2026-05-02T13:26:55Z</time></trkpt><trkpt lat="40.80619621236008" lon="8.320919010652895"><ele>41.0</ele><time>2026-05-02T13:26:56Z</time></trkpt><trkpt lat="40.80616039413946" lon="8.32121794525522"><ele>40.5</ele><time>2026-05-02T13:26:57Z</time></trkpt><trkpt lat="40.806127078836106" lon="8.32152033665597"><ele>40.0</ele><time>2026-05-02T13:26:58Z</time></trkpt><trkpt lat="40.80609419032895" lon="8.321823882917354"><ele>40.0</ele><time>2026-05-02T13:26:59Z</time></trkpt><trkpt lat="40.8060612335155" lon="8.322121542040607"><ele>40.0</ele><time>2026-05-02T13:27:00Z</time></trkpt><trkpt lat="40.806026441849795" lon="8.322427346932104"><ele>42.0</ele><time>2026-05-02T13:27:01Z</time></trkpt><trkpt lat="40.80598210160629" lon="8.322738657786655"><ele>44.0</ele><time>2026-05-02T13:27:02Z</time></trkpt><trkpt lat="40.80593606692007" lon="8.323055456247467"><ele>44.5</ele><time>2026-05-02T13:27:03Z</time></trkpt><trkpt lat="40.8058884356816" lon="8.323375003406287"><ele>45.0</ele><time>2026-05-02T13:27:04Z</time></trkpt><trkpt lat="40.80584310485586" lon="8.323682410501045"><ele>46.0</ele><time>2026-05-02T13:27:05Z</time></trkpt><trkpt lat="40.80579640396069" lon="8.323997681678497"><ele>47.0</ele><time>2026-05-02T13:27:06Z</time></trkpt><trkpt lat="40.805749684344015" lon="8.324323787444508"><ele>47.0</ele><time>2026-05-02T13:27:07Z</time></trkpt><trkpt lat="40.80569945067435" lon="8.324649850610971"><ele>47.0</ele><time>2026-05-02T13:27:08Z</time></trkpt><trkpt lat="40.805653793053715" lon="8.324950317438825"><ele>47.33333333333333</ele><time>2026-05-02T13:27:09Z</time></trkpt><trkpt lat="40.805610799230905" lon="8.325235244432642"><ele>47.666666666666664</ele><time>2026-05-02T13:27:10Z</time></trkpt><trkpt lat="40.80556830175048" lon="8.325515477139284"><ele>48.0</ele><time>2026-05-02T13:27:11Z</time></trkpt><trkpt lat="40.80552835764012" lon="8.325768191585187"><ele>48.33333333333333</ele><time>2026-05-02T13:27:12Z</time></trkpt><trkpt lat="40.8055122479001" lon="8.326005599407848"><ele>48.666666666666664</ele><time>2026-05-02T13:27:13Z</time></trkpt><trkpt lat="40.80554099997163" lon="8.326221053508334"><ele>49.0</ele><time>2026-05-02T13:27:14Z</time></trkpt><trkpt lat="40.80560563001195" lon="8.32640743512774"><ele>49.666666666666664</ele><time>2026-05-02T13:27:15Z</time></trkpt><trkpt lat="40.80569929395013" lon="8.326591001746548"><ele>50.33333333333333</ele><time>2026-05-02T13:27:16Z</time></trkpt><trkpt lat="40.80581037641263" lon="8.326800653316923"><ele>51.0</ele><time>2026-05-02T13:27:17Z</time></trkpt><trkpt lat="40.80592054460698" lon="8.327035583897455"><ele>50.33333333333333</ele><time>2026-05-02T13:27:18Z</time></trkpt><trkpt lat="40.8060283717591" lon="8.327270781231286"><ele>49.666666666666664</ele><time>2026-05-02T13:27:19Z</time></trkpt><trkpt lat="40.80612357009802" lon="8.327511594872961"><ele>49.0</ele><time>2026-05-02T13:27:20Z</time></trkpt><trkpt lat="40.806196939696" lon="8.327767635246042"><ele>49.0</ele><time>2026-05-02T13:27:21Z</time></trkpt><trkpt lat="40.806259883270144" lon="8.328040113993652"><ele>49.0</ele><time>2026-05-02T13:27:22.001Z</time></trkpt><trkpt lat="40.80632385280584" lon="8.328316457774648"><ele>49.0</ele><time>2026-05-02T13:27:23.001Z</time></trkpt><trkpt lat="40.80638836806321" lon="8.328593881424394"><ele>48.666666666666664</ele><time>2026-05-02T13:27:24.001Z</time></trkpt><trkpt lat="40.80645565590802" lon="8.32887182264388"><ele>48.33333333333333</ele><time>2026-05-02T13:27:25.001Z</time></trkpt><trkpt lat="40.80652431408099" lon="8.329157525883724"><ele>48.0</ele><time>2026-05-02T13:27:26.001Z</time></trkpt><trkpt lat="40.80660317504621" lon="8.329461626042791"><ele>47.5</ele><time>2026-05-02T13:27:27.001Z</time></trkpt><trkpt lat="40.80667991929433" lon="8.329756404934724"><ele>47.0</ele><time>2026-05-02T13:27:28.001Z</time></trkpt><trkpt lat="40.806745952361595" lon="8.330029497675609"><ele>47.0</ele><time>2026-05-02T13:27:29.001Z</time></trkpt><trkpt lat="40.80680362821354" lon="8.330290223544077"><ele>47.0</ele><time>2026-05-02T13:27:30.001Z</time></trkpt><trkpt lat="40.80684179535361" lon="8.330534294251217"><ele>47.0</ele><time>2026-05-02T13:27:31.001Z</time></trkpt><trkpt lat="40.80686193801318" lon="8.33077120694409"><ele>46.33333333333333</ele><time>2026-05-02T13:27:32.001Z</time></trkpt><trkpt lat="40.80687081060019" lon="8.33099532886965"><ele>45.666666666666664</ele><time>2026-05-02T13:27:33.001Z</time></trkpt><trkpt lat="40.80688013495746" lon="8.331212694076775"><ele>45.0</ele><time>2026-05-02T13:27:34.001Z</time></trkpt><trkpt lat="40.806909621190805" lon="8.33142716776556"><ele>45.0</ele><time>2026-05-02T13:27:35.001Z</time></trkpt><trkpt lat="40.80696797476496" lon="8.33162943821969"><ele>45.0</ele><time>2026-05-02T13:27:36.001Z</time></trkpt><trkpt lat="40.807063000760685" lon="8.331812713281371"><ele>45.0</ele><time>2026-05-02T13:27:37.001Z</time></trkpt><trkpt lat="40.80719683149085" lon="8.331971731717841"><ele>45.0</ele><time>2026-05-02T13:27:38.001Z</time></trkpt><trkpt lat="40.80735216213314" lon="8.33210278998884"><ele>45.0</ele><time>2026-05-02T13:27:39.001Z</time></trkpt><trkpt lat="40.807532887113354" lon="8.332234824946676"><ele>45.0</ele><time>2026-05-02T13:27:40.001Z</time></trkpt><trkpt lat="40.80771833753479" lon="8.332371565158574"><ele>44.666666666666664</ele><time>2026-05-02T13:27:41.001Z</time></trkpt><trkpt lat="40.807902202639475" lon="8.3325071663432"><ele>44.33333333333333</ele><time>2026-05-02T13:27:42.001Z</time></trkpt><trkpt lat="40.80809022857792" lon="8.33264113784299"><ele>44.0</ele><time>2026-05-02T13:27:43.001Z</time></trkpt><trkpt lat="40.80825985695631" lon="8.332768330759695"><ele>44.0</ele><time>2026-05-02T13:27:44.001Z</time></trkpt><trkpt lat="40.8084169540412" lon="8.33290986953057"><ele>44.0</ele><time>2026-05-02T13:27:45.001Z</time></trkpt><trkpt lat="40.808555003305024" lon="8.333093633784781"><ele>44.0</ele><time>2026-05-02T13:27:46.001Z</time></trkpt><trkpt lat="40.80865739159157" lon="8.333325472789678"><ele>43.5</ele><time>2026-05-02T13:27:47.001Z</time></trkpt><trkpt lat="40.808729659669766" lon="8.333599671842968"><ele>43.0</ele><time>2026-05-02T13:27:48.001Z</time></trkpt><trkpt lat="40.80879760104423" lon="8.333891343944348"><ele>43.66666666666667</ele><time>2026-05-02T13:27:49.001Z</time></trkpt><trkpt lat="40.808867108246346" lon="8.33417210183146"><ele>44.333333333333336</ele><time>2026-05-02T13:27:50.001Z</time></trkpt><trkpt lat="40.808942000121675" lon="8.334443631402417"><ele>45.0</ele><time>2026-05-02T13:27:51.001Z</time></trkpt><trkpt lat="40.809015884310746" lon="8.334712043820375"><ele>46.66666666666667</ele><time>2026-05-02T13:27:51.998Z</time></trkpt><trkpt lat="40.809087278547366" lon="8.33498193187286"><ele>48.333333333333336</ele><time>2026-05-02T13:27:52.998Z</time></trkpt><trkpt lat="40.809160903726834" lon="8.335261106326895"><ele>50.0</ele><time>2026-05-02T13:27:53.998Z</time></trkpt><trkpt lat="40.80924411795803" lon="8.335538563240288"><ele>47.0</ele><time>2026-05-02T13:27:54.998Z</time></trkpt><trkpt lat="40.80933805056276" lon="8.335824015826494"><ele>44.0</ele><time>2026-05-02T13:27:55.998Z</time></trkpt><trkpt lat="40.809440268914955" lon="8.336109649443882"><ele>44.5</ele><time>2026-05-02T13:27:56.998Z</time></trkpt><trkpt lat="40.809543942916235" lon="8.336403592703048"><ele>45.0</ele><time>2026-05-02T13:27:57.998Z</time></trkpt><trkpt lat="40.80964280585463" lon="8.33670275784631"><ele>45.0</ele><time>2026-05-02T13:27:58.998Z</time></trkpt><trkpt lat="40.80974072609309" lon="8.337000979657873"><ele>45.0</ele><time>2026-05-02T13:27:59.999Z</time></trkpt><trkpt lat="40.80983397569553" lon="8.337300864523542"><ele>46.5</ele><time>2026-05-02T13:28:00.999Z</time></trkpt><trkpt lat="40.8099235605709" lon="8.337604456911489"><ele>48.0</ele><time>2026-05-02T13:28:01.999Z</time></trkpt><trkpt lat="40.81001594667579" lon="8.337919671194044"><ele>48.0</ele><time>2026-05-02T13:28:02.999Z</time></trkpt><trkpt lat="40.810109010996" lon="8.338237601346075"><ele>48.0</ele><time>2026-05-02T13:28:03.999Z</time></trkpt><trkpt lat="40.8102036427966" lon="8.338548988700854"><ele>47.5</ele><time>2026-05-02T13:28:04.999Z</time></trkpt><trkpt lat="40.810298574641834" lon="8.33886493217616"><ele>47.0</ele><time>2026-05-02T13:28:05.999Z</time></trkpt><trkpt lat="40.81039758855544" lon="8.339176061758376"><ele>47.0</ele><time>2026-05-02T13:28:06.999Z</time></trkpt><trkpt lat="40.81050734392782" lon="8.339482572755351"><ele>47.0</ele><time>2026-05-02T13:28:07.999Z</time></trkpt><trkpt lat="40.81062794971395" lon="8.339786370114254"><ele>47.5</ele><time>2026-05-02T13:28:08.999Z</time></trkpt><trkpt lat="40.81076138107157" lon="8.340107348389907"><ele>48.0</ele><time>2026-05-02T13:28:09.999Z</time></trkpt><trkpt lat="40.81089299640078" lon="8.340430990295841"><ele>45.0</ele><time>2026-05-02T13:28:10.999Z</time></trkpt><trkpt lat="40.81102879752747" lon="8.340761907801351"><ele>42.0</ele><time>2026-05-02T13:28:11.999Z</time></trkpt><trkpt lat="40.811168712799876" lon="8.341092790581342"><ele>42.5</ele><time>2026-05-02T13:28:12.999Z</time></trkpt><trkpt lat="40.81131167953518" lon="8.341431742777564"><ele>43.0</ele><time>2026-05-02T13:28:13.999Z</time></trkpt><trkpt lat="40.8114546713047" lon="8.341771527655355"><ele>43.0</ele><time>2026-05-02T13:28:14.999Z</time></trkpt><trkpt lat="40.81159775103452" lon="8.342111720747425"><ele>43.0</ele><time>2026-05-02T13:28:15.999Z</time></trkpt><trkpt lat="40.811744161535415" lon="8.342456686210367"><ele>42.5</ele><time>2026-05-02T13:28:16.999Z</time></trkpt><trkpt lat="40.81189097488105" lon="8.342801716789456"><ele>42.0</ele><time>2026-05-02T13:28:17.999Z</time></trkpt><trkpt lat="40.812034982425196" lon="8.343155650716099"><ele>40.5</ele><time>2026-05-02T13:28:18.999Z</time></trkpt><trkpt lat="40.81217380489453" lon="8.343507051321787"><ele>39.0</ele><time>2026-05-02T13:28:19.999Z</time></trkpt><trkpt lat="40.81231055566386" lon="8.343855711006007"><ele>39.0</ele><time>2026-05-02T13:28:20.999Z</time></trkpt><trkpt lat="40.81244242735558" lon="8.344187038975576"><ele>39.0</ele><time>2026-05-02T13:28:21.999Z</time></trkpt><trkpt lat="40.81257263722135" lon="8.34451526548989"><ele>39.0</ele><time>2026-05-02T13:28:22.999Z</time></trkpt><trkpt lat="40.812691346375686" lon="8.344831491686373"><ele>39.0</ele><time>2026-05-02T13:28:23.999Z</time></trkpt><trkpt lat="40.81277857934515" lon="8.345142560277027"><ele>39.0</ele><time>2026-05-02T13:28:24.999Z</time></trkpt><trkpt lat="40.81283154585546" lon="8.345476432979991"><ele>39.0</ele><time>2026-05-02T13:28:25.999Z</time></trkpt><trkpt lat="40.81285132782027" lon="8.345816686943154"><ele>39.0</ele><time>2026-05-02T13:28:26.999Z</time></trkpt><trkpt lat="40.812855288948924" lon="8.346165679109216"><ele>39.0</ele><time>2026-05-02T13:28:27.999Z</time></trkpt><trkpt lat="40.81285907756603" lon="8.346520613163559"><ele>39.0</ele><time>2026-05-02T13:28:28.999Z</time></trkpt><trkpt lat="40.81285133647825" lon="8.346884837770125"><ele>39.0</ele><time>2026-05-02T13:28:29.999Z</time></trkpt><trkpt lat="40.81280881505593" lon="8.34725071831284"><ele>39.5</ele><time>2026-05-02T13:28:30.999Z</time></trkpt><trkpt lat="40.812791274156815" lon="8.347622481688859"><ele>40.0</ele><time>2026-05-02T13:28:31.999Z</time></trkpt><trkpt lat="40.812755095204196" lon="8.347995432459408"><ele>39.0</ele><time>2026-05-02T13:28:32.999Z</time></trkpt><trkpt lat="40.81272189879173" lon="8.348369987997643"><ele>38.0</ele><time>2026-05-02T13:28:33.999Z</time></trkpt><trkpt lat="40.81269097313551" lon="8.348720901926757"><ele>37.5</ele><time>2026-05-02T13:28:34.999Z</time></trkpt><trkpt lat="40.812659681637896" lon="8.349041776954088"><ele>37.0</ele><time>2026-05-02T13:28:35.999Z</time></trkpt><trkpt lat="40.81262739343242" lon="8.349349549937322"><ele>36.66666666666667</ele><time>2026-05-02T13:28:37Z</time></trkpt><trkpt lat="40.81259979336701" lon="8.349632027208356"><ele>36.333333333333336</ele><time>2026-05-02T13:28:38Z</time></trkpt><trkpt lat="40.81259381532852" lon="8.349893132046594"><ele>36.0</ele><time>2026-05-02T13:28:39Z</time></trkpt><trkpt lat="40.81263275229157" lon="8.350146219056727"><ele>36.0</ele><time>2026-05-02T13:28:40Z</time></trkpt><trkpt lat="40.812715766844136" lon="8.350394059523696"><ele>36.0</ele><time>2026-05-02T13:28:41Z</time></trkpt><trkpt lat="40.812836799107146" lon="8.350644829393403"><ele>36.0</ele><time>2026-05-02T13:28:42Z</time></trkpt><trkpt lat="40.81296692838791" lon="8.350895438063993"><ele>35.666666666666664</ele><time>2026-05-02T13:28:43Z</time></trkpt><trkpt lat="40.8130706186669" lon="8.351129755443207"><ele>35.33333333333333</ele><time>2026-05-02T13:28:44Z</time></trkpt><trkpt lat="40.8131589051924" lon="8.351370396613088"><ele>35.0</ele><time>2026-05-02T13:28:45Z</time></trkpt><trkpt lat="40.81321764894744" lon="8.351638902096209"><ele>34.5</ele><time>2026-05-02T13:28:46Z</time></trkpt><trkpt lat="40.81323003128993" lon="8.351939128905567"><ele>34.0</ele><time>2026-05-02T13:28:47Z</time></trkpt><trkpt lat="40.81326284185533" lon="8.352266148370417"><ele>35.0</ele><time>2026-05-02T13:28:48Z</time></trkpt><trkpt lat="40.813274149803405" lon="8.352604941300529"><ele>36.0</ele><time>2026-05-02T13:28:49Z</time></trkpt><trkpt lat="40.81328752601438" lon="8.352933469702243"><ele>37.0</ele><time>2026-05-02T13:28:50Z</time></trkpt><trkpt lat="40.81330372104327" lon="8.353260810069239"><ele>38.0</ele><time>2026-05-02T13:28:51Z</time></trkpt><trkpt lat="40.81331908687557" lon="8.353572913878814"><ele>38.0</ele><time>2026-05-02T13:28:52Z</time></trkpt><trkpt lat="40.813336274361326" lon="8.353870958464547"><ele>38.0</ele><time>2026-05-02T13:28:53Z</time></trkpt><trkpt lat="40.813362325162664" lon="8.354151097106621"><ele>38.0</ele><time>2026-05-02T13:28:54Z</time></trkpt><trkpt lat="40.81339528393735" lon="8.354420406654839"><ele>37.666666666666664</ele><time>2026-05-02T13:28:55Z</time></trkpt><trkpt lat="40.81343341071222" lon="8.354667029502508"><ele>37.333333333333336</ele><time>2026-05-02T13:28:56Z</time></trkpt><trkpt lat="40.81346962134904" lon="8.35490678590943"><ele>37.0</ele><time>2026-05-02T13:28:57Z</time></trkpt><trkpt lat="40.81349939498461" lon="8.355145919209317"><ele>36.0</ele><time>2026-05-02T13:28:58Z</time></trkpt><trkpt lat="40.81353189033414" lon="8.355397721254178"><ele>35.0</ele><time>2026-05-02T13:28:59Z</time></trkpt><trkpt lat="40.81356342877318" lon="8.355653111120072"><ele>34.0</ele><time>2026-05-02T13:29:00Z</time></trkpt><trkpt lat="40.813596519139836" lon="8.355913396766502"><ele>33.333333333333336</ele><time>2026-05-02T13:29:01Z</time></trkpt><trkpt lat="40.81363036211851" lon="8.356178780023605"><ele>32.666666666666664</ele><time>2026-05-02T13:29:02Z</time></trkpt><trkpt lat="40.81366944240315" lon="8.356454360315503"><ele>32.0</ele><time>2026-05-02T13:29:03Z</time></trkpt><trkpt lat="40.81370642214403" lon="8.356735485822487"><ele>31.666666666666664</ele><time>2026-05-02T13:29:04Z</time></trkpt><trkpt lat="40.813744548126046" lon="8.357008164043393"><ele>31.333333333333336</ele><time>2026-05-02T13:29:05Z</time></trkpt><trkpt lat="40.813780961594205" lon="8.357281591955585"><ele>31.0</ele><time>2026-05-02T13:29:06Z</time></trkpt><trkpt lat="40.81381131133534" lon="8.357552396463076"><ele>30.0</ele><time>2026-05-02T13:29:07Z</time></trkpt><trkpt lat="40.8138404689488" lon="8.357820924456806"><ele>29.0</ele><time>2026-05-02T13:29:08Z</time></trkpt><trkpt lat="40.813871964985566" lon="8.358077935611426"><ele>28.0</ele><time>2026-05-02T13:29:09Z</time></trkpt><trkpt lat="40.81389953477875" lon="8.358321436922743"><ele>27.666666666666668</ele><time>2026-05-02T13:29:10Z</time></trkpt><trkpt lat="40.813936290681525" lon="8.358553219021015"><ele>27.333333333333336</ele><time>2026-05-02T13:29:11Z</time></trkpt><trkpt lat="40.813979773509395" lon="8.35876704209698"><ele>27.0</ele><time>2026-05-02T13:29:12Z</time></trkpt><trkpt lat="40.81402720018601" lon="8.358964127660933"><ele>27.0</ele><time>2026-05-02T13:29:13Z</time></trkpt><trkpt lat="40.814069875468164" lon="8.35913873850229"><ele>27.0</ele><time>2026-05-02T13:29:14Z</time></trkpt><trkpt lat="40.814110180995954" lon="8.35929011202645"><ele>27.0</ele><time>2026-05-02T13:29:15Z</time></trkpt><trkpt lat="40.81412740113562" lon="8.359422320564383"><ele>27.0</ele><time>2026-05-02T13:29:16Z</time></trkpt><trkpt lat="40.814114532403934" lon="8.359543516559214"><ele>27.0</ele><time>2026-05-02T13:29:17Z</time></trkpt><trkpt lat="40.81406967749132" lon="8.35963070004041"><ele>27.000000000000004</ele><time>2026-05-02T13:29:18Z</time></trkpt><trkpt lat="40.8139945409947" lon="8.359724066586697"><ele>27.000000000000004</ele><time>2026-05-02T13:29:19Z</time></trkpt><trkpt lat="40.81388768383118" lon="8.35979375740809"><ele>27.0</ele><time>2026-05-02T13:29:20Z</time></trkpt><trkpt lat="40.8137731960862" lon="8.359835147956002"><ele>27.0</ele><time>2026-05-02T13:29:21Z</time></trkpt><trkpt lat="40.8136520681907" lon="8.35979490289823"><ele>26.75</ele><time>2026-05-02T13:29:22Z</time></trkpt><trkpt lat="40.813534903664475" lon="8.359730066303937"><ele>26.5</ele><time>2026-05-02T13:29:23Z</time></trkpt><trkpt lat="40.81339772588656" lon="8.35966298742321"><ele>26.25</ele><time>2026-05-02T13:29:24Z</time></trkpt><trkpt lat="40.813273633961224" lon="8.35954802156394"><ele>26.0</ele><time>2026-05-02T13:29:25Z</time></trkpt><trkpt lat="40.8131383788235" lon="8.35946562943869"><ele>27.333333333333332</ele><time>2026-05-02T13:29:26Z</time></trkpt><trkpt lat="40.81298857402698" lon="8.359453910831306"><ele>28.666666666666664</ele><time>2026-05-02T13:29:27Z</time></trkpt><trkpt lat="40.81281472861534" lon="8.359464519388286"><ele>30.0</ele><time>2026-05-02T13:29:28Z</time></trkpt><trkpt lat="40.81262076248681" lon="8.35947761773276"><ele>31.0</ele><time>2026-05-02T13:29:29Z</time></trkpt><trkpt lat="40.81241211430642" lon="8.359490084854148"><ele>32.0</ele><time>2026-05-02T13:29:30Z</time></trkpt><trkpt lat="40.812207812529124" lon="8.359503064577938"><ele>33.0</ele><time>2026-05-02T13:29:31Z</time></trkpt><trkpt lat="40.812020091071915" lon="8.359488672546554"><ele>33.0</ele><time>2026-05-02T13:29:32Z</time></trkpt><trkpt lat="40.811836301518944" lon="8.359492704355196"><ele>33.0</ele><time>2026-05-02T13:29:33Z</time></trkpt><trkpt lat="40.81165743464883" lon="8.359496400664053"><ele>33.0</ele><time>2026-05-02T13:29:34Z</time></trkpt><trkpt lat="40.81147649602903" lon="8.359500141356326"><ele>33.333333333333336</ele><time>2026-05-02T13:29:35Z</time></trkpt><trkpt lat="40.81129735000877" lon="8.359502396930225"><ele>33.66666666666667</ele><time>2026-05-02T13:29:36Z</time></trkpt><trkpt lat="40.81111826574203" lon="8.359504718176185"><ele>34.0</ele><time>2026-05-02T13:29:37Z</time></trkpt><trkpt lat="40.81094472625147" lon="8.359516125768145"><ele>34.0</ele><time>2026-05-02T13:29:38Z</time></trkpt><trkpt lat="40.810772862606605" lon="8.359560219119667"><ele>34.0</ele><time>2026-05-02T13:29:39Z</time></trkpt><trkpt lat="40.81059819081752" lon="8.35961413869441"><ele>34.0</ele><time>2026-05-02T13:29:40Z</time></trkpt><trkpt lat="40.810428231134374" lon="8.35969304828013"><ele>33.66666666666667</ele><time>2026-05-02T13:29:41Z</time></trkpt><trkpt lat="40.81025105568225" lon="8.359800174405825"><ele>33.333333333333336</ele><time>2026-05-02T13:29:42Z</time></trkpt><trkpt lat="40.81006468085688" lon="8.3599299995221"><ele>33.0</ele><time>2026-05-02T13:29:43Z</time></trkpt><trkpt lat="40.80988169728609" lon="8.360066929197215"><ele>33.0</ele><time>2026-05-02T13:29:44Z</time></trkpt><trkpt lat="40.809695806897544" lon="8.360193550734694"><ele>33.0</ele><time>2026-05-02T13:29:45Z</time></trkpt><trkpt lat="40.80950529926572" lon="8.360324303003459"><ele>33.0</ele><time>2026-05-02T13:29:46Z</time></trkpt><trkpt lat="40.80931274886985" lon="8.360461788603947"><ele>31.666666666666664</ele><time>2026-05-02T13:29:47Z</time></trkpt><trkpt lat="40.80911842535422" lon="8.360597402586349"><ele>30.333333333333332</ele><time>2026-05-02T13:29:48Z</time></trkpt><trkpt lat="40.80891122574723" lon="8.360723252801604"><ele>29.0</ele><time>2026-05-02T13:29:49Z</time></trkpt><trkpt lat="40.80869840914805" lon="8.360896575258009"><ele>32.0</ele><time>2026-05-02T13:29:50Z</time></trkpt><trkpt lat="40.8084681648033" lon="8.361056517165675"><ele>35.0</ele><time>2026-05-02T13:29:51Z</time></trkpt><trkpt lat="40.808250065877715" lon="8.36121015381765"><ele>35.0</ele><time>2026-05-02T13:29:52Z</time></trkpt><trkpt lat="40.808035458330096" lon="8.361359918230344"><ele>35.0</ele><time>2026-05-02T13:29:53Z</time></trkpt><trkpt lat="40.80781932305119" lon="8.361512611514884"><ele>35.5</ele><time>2026-05-02T13:29:54Z</time></trkpt><trkpt lat="40.80759543595905" lon="8.361644593256026"><ele>36.0</ele><time>2026-05-02T13:29:55Z</time></trkpt><trkpt lat="40.807382025707184" lon="8.361793569834632"><ele>36.0</ele><time>2026-05-02T13:29:56Z</time></trkpt><trkpt lat="40.807175035806324" lon="8.36195725505973"><ele>36.0</ele><time>2026-05-02T13:29:57Z</time></trkpt><trkpt lat="40.8069630673045" lon="8.362109178411137"><ele>39.0</ele><time>2026-05-02T13:29:57.997Z</time></trkpt><trkpt lat="40.806540852008304" lon="8.362405554003125"><ele>39.0</ele><time>2026-05-02T13:29:59.997Z</time></trkpt><trkpt lat="40.80632857069736" lon="8.36255735891357"><ele>39.0</ele><time>2026-05-02T13:30:00.997Z</time></trkpt><trkpt lat="40.80611778658659" lon="8.362710195246786"><ele>40.0</ele><time>2026-05-02T13:30:01.997Z</time></trkpt><trkpt lat="40.80591253370061" lon="8.362854683387823"><ele>41.0</ele><time>2026-05-02T13:30:02.997Z</time></trkpt><trkpt lat="40.80571009127225" lon="8.362997428741602"><ele>40.666666666666664</ele><time>2026-05-02T13:30:03.997Z</time></trkpt><trkpt lat="40.805513367930104" lon="8.363132528858696"><ele>40.333333333333336</ele><time>2026-05-02T13:30:04.997Z</time></trkpt><trkpt lat="40.80532494323384" lon="8.363254859437262"><ele>40.0</ele><time>2026-05-02T13:30:05.997Z</time></trkpt><trkpt lat="40.805145438689635" lon="8.363357248740233"><ele>40.0</ele><time>2026-05-02T13:30:06.997Z</time></trkpt><trkpt lat="40.804959406194634" lon="8.363421150664879"><ele>40.0</ele><time>2026-05-02T13:30:07.997Z</time></trkpt><trkpt lat="40.80475785998782" lon="8.363435481644526"><ele>40.0</ele><time>2026-05-02T13:30:08.997Z</time></trkpt><trkpt lat="40.804551858367695" lon="8.363393161089052"><ele>40.0</ele><time>2026-05-02T13:30:09.997Z</time></trkpt><trkpt lat="40.80434570262354" lon="8.363292638295174"><ele>40.0</ele><time>2026-05-02T13:30:10.997Z</time></trkpt><trkpt lat="40.80414022040405" lon="8.363140853047971"><ele>40.5</ele><time>2026-05-02T13:30:11.997Z</time></trkpt><trkpt lat="40.80391962926929" lon="8.362954510077223"><ele>41.0</ele><time>2026-05-02T13:30:12.997Z</time></trkpt><trkpt lat="40.80369968946248" lon="8.362767117094146"><ele>42.5</ele><time>2026-05-02T13:30:13.997Z</time></trkpt><trkpt lat="40.803472297168675" lon="8.362602667932913"><ele>44.0</ele><time>2026-05-02T13:30:14.997Z</time></trkpt><trkpt lat="40.8032508365637" lon="8.362447492070421"><ele>44.0</ele><time>2026-05-02T13:30:15.998Z</time></trkpt><trkpt lat="40.80302825571023" lon="8.362281501974921"><ele>44.0</ele><time>2026-05-02T13:30:16.998Z</time></trkpt><trkpt lat="40.80282007896695" lon="8.362089268485288"><ele>47.0</ele><time>2026-05-02T13:30:17.998Z</time></trkpt><trkpt lat="40.80261453122615" lon="8.36187021252025"><ele>50.0</ele><time>2026-05-02T13:30:18.998Z</time></trkpt><trkpt lat="40.802413179411204" lon="8.36163640409893"><ele>50.0</ele><time>2026-05-02T13:30:19.998Z</time></trkpt><trkpt lat="40.80220692322936" lon="8.361422278641301"><ele>50.0</ele><time>2026-05-02T13:30:20.998Z</time></trkpt><trkpt lat="40.80200733042655" lon="8.361219764440174"><ele>49.5</ele><time>2026-05-02T13:30:21.998Z</time></trkpt><trkpt lat="40.801815191398546" lon="8.361026583695795"><ele>49.0</ele><time>2026-05-02T13:30:22.998Z</time></trkpt><trkpt lat="40.801635133467464" lon="8.36084945386907"><ele>49.0</ele><time>2026-05-02T13:30:23.998Z</time></trkpt><trkpt lat="40.80145690041339" lon="8.360689723473524"><ele>49.0</ele><time>2026-05-02T13:30:24.998Z</time></trkpt><trkpt lat="40.80126982669169" lon="8.360573324692462"><ele>49.0</ele><time>2026-05-02T13:30:25.998Z</time></trkpt><trkpt lat="40.8010734705968" lon="8.360509237591538"><ele>50.0</ele><time>2026-05-02T13:30:26.998Z</time></trkpt><trkpt lat="40.80085342833619" lon="8.360514863531423"><ele>51.0</ele><time>2026-05-02T13:30:27.998Z</time></trkpt><trkpt lat="40.80061693704069" lon="8.360543507778273"><ele>51.0</ele><time>2026-05-02T13:30:28.998Z</time></trkpt><trkpt lat="40.80036087742622" lon="8.360574766952547"><ele>51.0</ele><time>2026-05-02T13:30:29.998Z</time></trkpt><trkpt lat="40.800092324707215" lon="8.360592709596235"><ele>51.0</ele><time>2026-05-02T13:30:30.998Z</time></trkpt><trkpt lat="40.79982088074811" lon="8.3606060589964"><ele>51.0</ele><time>2026-05-02T13:30:31.999Z</time></trkpt><trkpt lat="40.79955263105898" lon="8.360620395141375"><ele>51.0</ele><time>2026-05-02T13:30:32.999Z</time></trkpt><trkpt lat="40.79930014418227" lon="8.36063697375399"><ele>51.0</ele><time>2026-05-02T13:30:33.999Z</time></trkpt><trkpt lat="40.79905385697131" lon="8.360649069791766"><ele>51.0</ele><time>2026-05-02T13:30:34.999Z</time></trkpt><trkpt lat="40.79881148320733" lon="8.360653066996232"><ele>51.0</ele><time>2026-05-02T13:30:35.999Z</time></trkpt><trkpt lat="40.79856519879635" lon="8.360632409306001"><ele>50.5</ele><time>2026-05-02T13:30:36.999Z</time></trkpt><trkpt lat="40.79829617895561" lon="8.360578727785821"><ele>50.0</ele><time>2026-05-02T13:30:37.999Z</time></trkpt><trkpt lat="40.79800998865806" lon="8.360499916835535"><ele>51.0</ele><time>2026-05-02T13:30:38.999Z</time></trkpt><trkpt lat="40.797717684583496" lon="8.360405880267303"><ele>52.0</ele><time>2026-05-02T13:30:39.999Z</time></trkpt><trkpt lat="40.797426114283404" lon="8.360308181811899"><ele>52.0</ele><time>2026-05-02T13:30:40.999Z</time></trkpt><trkpt lat="40.79713577755638" lon="8.360221803057296"><ele>52.0</ele><time>2026-05-02T13:30:41.999Z</time></trkpt><trkpt lat="40.79684727861273" lon="8.36014705644802"><ele>51.5</ele><time>2026-05-02T13:30:42.999Z</time></trkpt><trkpt lat="40.79656524722827" lon="8.360082274163002"><ele>51.0</ele><time>2026-05-02T13:30:43.999Z</time></trkpt><trkpt lat="40.7962961731633" lon="8.360022731488181"><ele>51.0</ele><time>2026-05-02T13:30:44.999Z</time></trkpt><trkpt lat="40.79601880604333" lon="8.359945212942746"><ele>51.0</ele><time>2026-05-02T13:30:45.999Z</time></trkpt><trkpt lat="40.79574355473173" lon="8.359839340074156"><ele>51.0</ele><time>2026-05-02T13:30:46.999Z</time></trkpt><trkpt lat="40.79547088428537" lon="8.359681765001628"><ele>51.0</ele><time>2026-05-02T13:30:47.999Z</time></trkpt><trkpt lat="40.795212012659995" lon="8.359491206816605"><ele>50.5</ele><time>2026-05-02T13:30:48.999Z</time></trkpt><trkpt lat="40.7949517216161" lon="8.359290304733678"><ele>50.0</ele><time>2026-05-02T13:30:49.999Z</time></trkpt><trkpt lat="40.794686887513436" lon="8.359093970526514"><ele>50.0</ele><time>2026-05-02T13:30:50.999Z</time></trkpt><trkpt lat="40.79442032376322" lon="8.358900430542027"><ele>50.0</ele><time>2026-05-02T13:30:51.999Z</time></trkpt><trkpt lat="40.79415450865164" lon="8.35871356632852"><ele>50.5</ele><time>2026-05-02T13:30:52.999Z</time></trkpt><trkpt lat="40.7938889123861" lon="8.358536733426966"><ele>51.0</ele><time>2026-05-02T13:30:53.999Z</time></trkpt><trkpt lat="40.79362348213529" lon="8.358357324031017"><ele>50.5</ele><time>2026-05-02T13:30:54.999Z</time></trkpt><trkpt lat="40.79337785173648" lon="8.358178633816442"><ele>50.0</ele><time>2026-05-02T13:30:55.999Z</time></trkpt><trkpt lat="40.79313741601685" lon="8.358006199498528"><ele>50.5</ele><time>2026-05-02T13:30:56.999Z</time></trkpt><trkpt lat="40.79289397672773" lon="8.357833576220289"><ele>51.0</ele><time>2026-05-02T13:30:57.999Z</time></trkpt><trkpt lat="40.79265189908345" lon="8.357663339235886"><ele>51.0</ele><time>2026-05-02T13:30:58.999Z</time></trkpt><trkpt lat="40.79241217526095" lon="8.357491897717432"><ele>51.0</ele><time>2026-05-02T13:30:59.999Z</time></trkpt><trkpt lat="40.79218455907085" lon="8.357326135348359"><ele>51.0</ele><time>2026-05-02T13:31:00.999Z</time></trkpt><trkpt lat="40.7919632770581" lon="8.357147362832066"><ele>51.0</ele><time>2026-05-02T13:31:01.999Z</time></trkpt><trkpt lat="40.79176195355535" lon="8.356920077726278"><ele>50.0</ele><time>2026-05-02T13:31:02.999Z</time></trkpt><trkpt lat="40.79157618195291" lon="8.356656951795241"><ele>49.0</ele><time>2026-05-02T13:31:03.999Z</time></trkpt><trkpt lat="40.79139374939812" lon="8.356388597954707"><ele>48.5</ele><time>2026-05-02T13:31:04.999Z</time></trkpt><trkpt lat="40.791200051856286" lon="8.356129652051187"><ele>48.0</ele><time>2026-05-02T13:31:05.999Z</time></trkpt><trkpt lat="40.79101014746504" lon="8.355875363789497"><ele>48.0</ele><time>2026-05-02T13:31:06.999Z</time></trkpt><trkpt lat="40.79081880676887" lon="8.355618131946283"><ele>48.0</ele><time>2026-05-02T13:31:07.999Z</time></trkpt><trkpt lat="40.79063342265304" lon="8.35535610033729"><ele>48.0</ele><time>2026-05-02T13:31:09Z</time></trkpt><trkpt lat="40.79044437483299" lon="8.35509059415384"><ele>48.0</ele><time>2026-05-02T13:31:10Z</time></trkpt><trkpt lat="40.79025048574237" lon="8.354834831547315"><ele>48.5</ele><time>2026-05-02T13:31:11Z</time></trkpt><trkpt lat="40.790047716463896" lon="8.354595787432267"><ele>49.0</ele><time>2026-05-02T13:31:12Z</time></trkpt><trkpt lat="40.789838795317436" lon="8.354374251263792"><ele>49.0</ele><time>2026-05-02T13:31:13Z</time></trkpt><trkpt lat="40.78963849790067" lon="8.354164947226277"><ele>49.0</ele><time>2026-05-02T13:31:14Z</time></trkpt><trkpt lat="40.7894454689041" lon="8.353966684157683"><ele>50.0</ele><time>2026-05-02T13:31:15Z</time></trkpt><trkpt lat="40.7892583676896" lon="8.353771221357393"><ele>51.0</ele><time>2026-05-02T13:31:16Z</time></trkpt><trkpt lat="40.78907454013524" lon="8.353586327896677"><ele>51.0</ele><time>2026-05-02T13:31:17Z</time></trkpt><trkpt lat="40.78887643151264" lon="8.353426285022945"><ele>51.0</ele><time>2026-05-02T13:31:18Z</time></trkpt><trkpt lat="40.78865759288362" lon="8.35329919434808"><ele>52.0</ele><time>2026-05-02T13:31:19Z</time></trkpt><trkpt lat="40.78843028361832" lon="8.353203379666239"><ele>53.0</ele><time>2026-05-02T13:31:20Z</time></trkpt><trkpt lat="40.78819795110162" lon="8.353130424050129"><ele>53.0</ele><time>2026-05-02T13:31:21Z</time></trkpt><trkpt lat="40.78796273612018" lon="8.353066162693969"><ele>53.0</ele><time>2026-05-02T13:31:22Z</time></trkpt><trkpt lat="40.78772427114328" lon="8.35300247828743"><ele>53.0</ele><time>2026-05-02T13:31:23Z</time></trkpt><trkpt lat="40.78748838020043" lon="8.35292520063129"><ele>53.0</ele><time>2026-05-02T13:31:24Z</time></trkpt><trkpt lat="40.78724587444921" lon="8.352837508482216"><ele>53.0</ele><time>2026-05-02T13:31:25Z</time></trkpt><trkpt lat="40.78700223888405" lon="8.352754817285904"><ele>53.0</ele><time>2026-05-02T13:31:26Z</time></trkpt><trkpt lat="40.786751600714354" lon="8.352677097755826"><ele>53.5</ele><time>2026-05-02T13:31:27Z</time></trkpt><trkpt lat="40.78649882365895" lon="8.352599022959366"><ele>54.0</ele><time>2026-05-02T13:31:28Z</time></trkpt><trkpt lat="40.786238822969054" lon="8.352517989987238"><ele>54.0</ele><time>2026-05-02T13:31:29Z</time></trkpt><trkpt lat="40.78597878288781" lon="8.352429629336815"><ele>54.0</ele><time>2026-05-02T13:31:30Z</time></trkpt><trkpt lat="40.785711829273644" lon="8.352345013692165"><ele>54.0</ele><time>2026-05-02T13:31:31Z</time></trkpt><trkpt lat="40.78545236347674" lon="8.352254856437865"><ele>54.0</ele><time>2026-05-02T13:31:32Z</time></trkpt><trkpt lat="40.78518673635664" lon="8.352166103964343"><ele>54.0</ele><time>2026-05-02T13:31:33Z</time></trkpt><trkpt lat="40.78492044189202" lon="8.352083914882288"><ele>54.0</ele><time>2026-05-02T13:31:34Z</time></trkpt><trkpt lat="40.7846511061902" lon="8.35200270446827"><ele>54.0</ele><time>2026-05-02T13:31:35Z</time></trkpt><trkpt lat="40.7843836683462" lon="8.35191739268075"><ele>54.0</ele><time>2026-05-02T13:31:36Z</time></trkpt><trkpt lat="40.78411621555955" lon="8.351832975542111"><ele>55.5</ele><time>2026-05-02T13:31:37Z</time></trkpt><trkpt lat="40.78385040940949" lon="8.35174454122317"><ele>57.0</ele><time>2026-05-02T13:31:38Z</time></trkpt><trkpt lat="40.78358772201333" lon="8.35165036520839"><ele>57.5</ele><time>2026-05-02T13:31:39Z</time></trkpt><trkpt lat="40.78332470619456" lon="8.351561022358394"><ele>58.0</ele><time>2026-05-02T13:31:40Z</time></trkpt><trkpt lat="40.78306715076261" lon="8.35148803138298"><ele>58.0</ele><time>2026-05-02T13:31:41Z</time></trkpt><trkpt lat="40.782808231870426" lon="8.351438899563192"><ele>58.0</ele><time>2026-05-02T13:31:42Z</time></trkpt><trkpt lat="40.782559207516826" lon="8.351413361419857"><ele>57.5</ele><time>2026-05-02T13:31:43Z</time></trkpt><trkpt lat="40.78231891779132" lon="8.351395779118853"><ele>57.0</ele><time>2026-05-02T13:31:44Z</time></trkpt><trkpt lat="40.782076709154246" lon="8.35136990552734"><ele>59.0</ele><time>2026-05-02T13:31:45Z</time></trkpt><trkpt lat="40.7818171460516" lon="8.351344453619522"><ele>61.0</ele><time>2026-05-02T13:31:46Z</time></trkpt><trkpt lat="40.78153471088733" lon="8.351327378117748"><ele>61.0</ele><time>2026-05-02T13:31:47Z</time></trkpt><trkpt lat="40.78125939497907" lon="8.35129224051463"><ele>61.0</ele><time>2026-05-02T13:31:48Z</time></trkpt><trkpt lat="40.78098835531617" lon="8.351254772603435"><ele>61.0</ele><time>2026-05-02T13:31:49Z</time></trkpt><trkpt lat="40.78074568061556" lon="8.351224602842755"><ele>61.0</ele><time>2026-05-02T13:31:50Z</time></trkpt><trkpt lat="40.780506133454764" lon="8.351204569417852"><ele>61.0</ele><time>2026-05-02T13:31:51Z</time></trkpt><trkpt lat="40.78025159310002" lon="8.351184831504463"><ele>61.0</ele><time>2026-05-02T13:31:52Z</time></trkpt><trkpt lat="40.779970390571485" lon="8.351158898295033"><ele>61.0</ele><time>2026-05-02T13:31:53Z</time></trkpt><trkpt lat="40.77967167379618" lon="8.351096622358547"><ele>61.0</ele><time>2026-05-02T13:31:54Z</time></trkpt><trkpt lat="40.77936205697549" lon="8.351056050255401"><ele>61.0</ele><time>2026-05-02T13:31:55Z</time></trkpt><trkpt lat="40.779048580584" lon="8.351037593998843"><ele>61.0</ele><time>2026-05-02T13:31:56Z</time></trkpt><trkpt lat="40.77873201772833" lon="8.351010263048417"><ele>62.0</ele><time>2026-05-02T13:31:57Z</time></trkpt><trkpt lat="40.77841896405866" lon="8.350974606249034"><ele>63.0</ele><time>2026-05-02T13:31:58Z</time></trkpt><trkpt lat="40.778104621101896" lon="8.350939070446861"><ele>63.0</ele><time>2026-05-02T13:31:59Z</time></trkpt><trkpt lat="40.777784700804446" lon="8.35090166639696"><ele>63.0</ele><time>2026-05-02T13:32:00Z</time></trkpt><trkpt lat="40.77746346705818" lon="8.350868534051157"><ele>63.0</ele><time>2026-05-02T13:32:01Z</time></trkpt><trkpt lat="40.77714565255655" lon="8.350828857164757"><ele>63.0</ele><time>2026-05-02T13:32:02.001Z</time></trkpt><trkpt lat="40.77682673292176" lon="8.350796565175989"><ele>63.0</ele><time>2026-05-02T13:32:03.001Z</time></trkpt><trkpt lat="40.77650540438443" lon="8.350767147801944"><ele>63.0</ele><time>2026-05-02T13:32:03.998Z</time></trkpt><trkpt lat="40.77618680570061" lon="8.35073555359262"><ele>62.5</ele><time>2026-05-02T13:32:04.998Z</time></trkpt><trkpt lat="40.7758666205851" lon="8.35069454203415"><ele>62.0</ele><time>2026-05-02T13:32:05.998Z</time></trkpt><trkpt lat="40.77554691396795" lon="8.350662719638333"><ele>62.0</ele><time>2026-05-02T13:32:06.998Z</time></trkpt><trkpt lat="40.77522567962425" lon="8.350627172355042"><ele>62.0</ele><time>2026-05-02T13:32:07.998Z</time></trkpt><trkpt lat="40.774910316663174" lon="8.350587965381898"><ele>61.5</ele><time>2026-05-02T13:32:08.998Z</time></trkpt><trkpt lat="40.77459335422648" lon="8.350554516803248"><ele>61.0</ele><time>2026-05-02T13:32:09.998Z</time></trkpt><trkpt lat="40.77427912856304" lon="8.350524061856667"><ele>61.0</ele><time>2026-05-02T13:32:10.998Z</time></trkpt><trkpt lat="40.77396554081983" lon="8.35049150764056"><ele>61.0</ele><time>2026-05-02T13:32:11.998Z</time></trkpt><trkpt lat="40.773656402651596" lon="8.35045683538315"><ele>62.0</ele><time>2026-05-02T13:32:12.998Z</time></trkpt><trkpt lat="40.773345842730926" lon="8.350423238947798"><ele>63.0</ele><time>2026-05-02T13:32:13.998Z</time></trkpt><trkpt lat="40.7730354310259" lon="8.350391987094538"><ele>63.0</ele><time>2026-05-02T13:32:14.998Z</time></trkpt><trkpt lat="40.77273256863197" lon="8.350361098044369"><ele>63.0</ele><time>2026-05-02T13:32:15.998Z</time></trkpt><trkpt lat="40.772431315812184" lon="8.350331725699947"><ele>64.0</ele><time>2026-05-02T13:32:16.998Z</time></trkpt><trkpt lat="40.772131120361905" lon="8.350304287717233"><ele>65.0</ele><time>2026-05-02T13:32:17.998Z</time></trkpt><trkpt lat="40.771829250932264" lon="8.350271007364057"><ele>65.0</ele><time>2026-05-02T13:32:18.999Z</time></trkpt><trkpt lat="40.771528907685585" lon="8.350238211073739"><ele>65.0</ele><time>2026-05-02T13:32:19.999Z</time></trkpt><trkpt lat="40.77122824866525" lon="8.350205281580216"><ele>65.0</ele><time>2026-05-02T13:32:20.999Z</time></trkpt><trkpt lat="40.77092306874799" lon="8.350176247711135"><ele>65.0</ele><time>2026-05-02T13:32:21.999Z</time></trkpt><trkpt lat="40.77061968282212" lon="8.350141904804948"><ele>65.0</ele><time>2026-05-02T13:32:22.999Z</time></trkpt><trkpt lat="40.770315953459836" lon="8.35010359104825"><ele>65.0</ele><time>2026-05-02T13:32:23.999Z</time></trkpt><trkpt lat="40.77001663392917" lon="8.350071405418172"><ele>65.0</ele><time>2026-05-02T13:32:24.999Z</time></trkpt><trkpt lat="40.76972608186535" lon="8.350045897282932"><ele>65.0</ele><time>2026-05-02T13:32:25.999Z</time></trkpt><trkpt lat="40.76944492343521" lon="8.350018455263225"><ele>66.0</ele><time>2026-05-02T13:32:26.999Z</time></trkpt><trkpt lat="40.7691699769047" lon="8.349993845093927"><ele>67.0</ele><time>2026-05-02T13:32:27.999Z</time></trkpt><trkpt lat="40.7689117411985" lon="8.349964799633245"><ele>67.0</ele><time>2026-05-02T13:32:28.999Z</time></trkpt><trkpt lat="40.768665762892944" lon="8.349935911466396"><ele>67.0</ele><time>2026-05-02T13:32:29.999Z</time></trkpt><trkpt lat="40.76842103827681" lon="8.349908132145966"><ele>67.0</ele><time>2026-05-02T13:32:30.999Z</time></trkpt><trkpt lat="40.76818342911485" lon="8.349884882108789"><ele>67.0</ele><time>2026-05-02T13:32:31.999Z</time></trkpt><trkpt lat="40.76795058245058" lon="8.34986009097926"><ele>67.0</ele><time>2026-05-02T13:32:32.999Z</time></trkpt><trkpt lat="40.76771544069432" lon="8.349831795845931"><ele>67.0</ele><time>2026-05-02T13:32:33.999Z</time></trkpt><trkpt lat="40.76746812149373" lon="8.349812266105769"><ele>67.0</ele><time>2026-05-02T13:32:34.999Z</time></trkpt><trkpt lat="40.7672220375393" lon="8.34978259632387"><ele>67.0</ele><time>2026-05-02T13:32:35.999Z</time></trkpt><trkpt lat="40.7669821507097" lon="8.349751782522567"><ele>67.5</ele><time>2026-05-02T13:32:37Z</time></trkpt><trkpt lat="40.76675025654134" lon="8.3497201628121"><ele>68.0</ele><time>2026-05-02T13:32:38Z</time></trkpt><trkpt lat="40.76653115544696" lon="8.349673936787621"><ele>68.0</ele><time>2026-05-02T13:32:39Z</time></trkpt><trkpt lat="40.766319548708196" lon="8.34957406377562"><ele>68.0</ele><time>2026-05-02T13:32:40Z</time></trkpt><trkpt lat="40.76612352334533" lon="8.34941894865141"><ele>68.5</ele><time>2026-05-02T13:32:41Z</time></trkpt><trkpt lat="40.76594272551634" lon="8.34921494061662"><ele>69.0</ele><time>2026-05-02T13:32:42Z</time></trkpt><trkpt lat="40.765759152463424" lon="8.348991305321691"><ele>69.0</ele><time>2026-05-02T13:32:43Z</time></trkpt><trkpt lat="40.76555276019853" lon="8.348776919930573"><ele>69.0</ele><time>2026-05-02T13:32:44Z</time></trkpt><trkpt lat="40.76534064885773" lon="8.348579326613823"><ele>68.5</ele><time>2026-05-02T13:32:45Z</time></trkpt><trkpt lat="40.76513608375289" lon="8.348376892253059"><ele>68.0</ele><time>2026-05-02T13:32:46Z</time></trkpt><trkpt lat="40.764934426071086" lon="8.348174693300006"><ele>68.5</ele><time>2026-05-02T13:32:47Z</time></trkpt><trkpt lat="40.76473964010718" lon="8.34797359301981"><ele>69.0</ele><time>2026-05-02T13:32:48Z</time></trkpt><trkpt lat="40.764550916570016" lon="8.347781872372842"><ele>69.0</ele><time>2026-05-02T13:32:49Z</time></trkpt><trkpt lat="40.764377140897004" lon="8.347608069059339"><ele>69.0</ele><time>2026-05-02T13:32:50Z</time></trkpt><trkpt lat="40.76420408740426" lon="8.347442797434638"><ele>69.0</ele><time>2026-05-02T13:32:51Z</time></trkpt><trkpt lat="40.76404220211262" lon="8.347294700760202"><ele>69.5</ele><time>2026-05-02T13:32:52Z</time></trkpt><trkpt lat="40.76391078682762" lon="8.3471516069396"><ele>70.0</ele><time>2026-05-02T13:32:53Z</time></trkpt><trkpt lat="40.76380107595525" lon="8.34703939715864"><ele>70.5</ele><time>2026-05-02T13:32:54Z</time></trkpt><trkpt lat="40.76370027798404" lon="8.34694355075626"><ele>71.0</ele><time>2026-05-02T13:32:55Z</time></trkpt><trkpt lat="40.76360071336004" lon="8.34684995882555"><ele>71.0</ele><time>2026-05-02T13:32:56Z</time></trkpt><trkpt lat="40.76352497954948" lon="8.346772575518866"><ele>71.0</ele><time>2026-05-02T13:32:57Z</time></trkpt><trkpt lat="40.76345891894057" lon="8.346713734132857"><ele>71.0</ele><time>2026-05-02T13:32:58Z</time></trkpt><trkpt lat="40.76338419368032" lon="8.34672553784127"><ele>71.0</ele><time>2026-05-02T13:33:00Z</time></trkpt><trkpt lat="40.763342860636264" lon="8.346789842319014"><ele>71.0</ele><time>2026-05-02T13:33:02Z</time></trkpt><trkpt lat="40.76327961154038" lon="8.346858960654156"><ele>71.0</ele><time>2026-05-02T13:33:05Z</time></trkpt><trkpt lat="40.76321746546671" lon="8.346884049749821"><ele>71.0</ele><time>2026-05-02T13:33:20.001Z</time></trkpt><trkpt lat="40.76316713150543" lon="8.346830763067674"><ele>71.0</ele><time>2026-05-02T13:33:27.001Z</time></trkpt><trkpt lat="40.763103533178196" lon="8.34676854164617"><ele>71.0</ele><time>2026-05-02T13:37:29.002Z</time></trkpt><trkpt lat="40.76306327284203" lon="8.346849158055827"><ele>71.0</ele><time>2026-05-02T13:37:32.002Z</time></trkpt><trkpt lat="40.76312120959287" lon="8.346930915074976"><ele>71.0</ele><time>2026-05-02T13:37:35.002Z</time></trkpt><trkpt lat="40.76319719227813" lon="8.346926903005187"><ele>71.0</ele><time>2026-05-02T13:37:38.002Z</time></trkpt><trkpt lat="40.76307309726305" lon="8.346792022789916"><ele>71.0</ele><time>2026-05-02T13:39:24.001Z</time></trkpt><trkpt lat="40.76303124374262" lon="8.34671662972814"><ele>71.0</ele><time>2026-05-02T13:39:25.001Z</time></trkpt><trkpt lat="40.76304109904675" lon="8.346575481103775"><ele>71.0</ele><time>2026-05-02T13:39:27.001Z</time></trkpt><trkpt lat="40.76308880475283" lon="8.346492529197821"><ele>71.0</ele><time>2026-05-02T13:39:29.001Z</time></trkpt><trkpt lat="40.763099777057555" lon="8.346403520212696"><ele>71.0</ele><time>2026-05-02T13:39:32.001Z</time></trkpt><trkpt lat="40.76300735283161" lon="8.346280458002374"><ele>70.75</ele><time>2026-05-02T13:39:34.001Z</time></trkpt><trkpt lat="40.76292916436938" lon="8.346202099872327"><ele>70.5</ele><time>2026-05-02T13:39:35.001Z</time></trkpt><trkpt lat="40.76283737169299" lon="8.346100570601372"><ele>70.25</ele><time>2026-05-02T13:39:36.001Z</time></trkpt><trkpt lat="40.762733087942166" lon="8.345990415236335"><ele>70.0</ele><time>2026-05-02T13:39:37.001Z</time></trkpt><trkpt lat="40.76262403671868" lon="8.345887744623758"><ele>70.0</ele><time>2026-05-02T13:39:38.001Z</time></trkpt><trkpt lat="40.762498920786356" lon="8.345763537881098"><ele>70.0</ele><time>2026-05-02T13:39:39.001Z</time></trkpt><trkpt lat="40.76235764665457" lon="8.34562428248758"><ele>70.0</ele><time>2026-05-02T13:39:40.001Z</time></trkpt><trkpt lat="40.762226919313015" lon="8.345490351204782"><ele>70.0</ele><time>2026-05-02T13:39:41.001Z</time></trkpt><trkpt lat="40.762089862194244" lon="8.345350053307826"><ele>70.0</ele><time>2026-05-02T13:39:42.001Z</time></trkpt><trkpt lat="40.761947124765356" lon="8.345207593942078"><ele>70.0</ele><time>2026-05-02T13:39:43.001Z</time></trkpt><trkpt lat="40.7617959085455" lon="8.345060830546386"><ele>70.33333333333333</ele><time>2026-05-02T13:39:44.001Z</time></trkpt><trkpt lat="40.761635528917346" lon="8.344899363071725"><ele>70.66666666666667</ele><time>2026-05-02T13:39:45.001Z</time></trkpt><trkpt lat="40.761477907143465" lon="8.34474296777179"><ele>71.0</ele><time>2026-05-02T13:39:46.001Z</time></trkpt><trkpt lat="40.7613236563944" lon="8.34458975748566"><ele>71.0</ele><time>2026-05-02T13:39:47.001Z</time></trkpt><trkpt lat="40.76117045640374" lon="8.34443267028132"><ele>71.0</ele><time>2026-05-02T13:39:48.001Z</time></trkpt><trkpt lat="40.76101136107214" lon="8.344276177898966"><ele>71.0</ele><time>2026-05-02T13:39:49.001Z</time></trkpt><trkpt lat="40.76085173865977" lon="8.34412217675047"><ele>71.0</ele><time>2026-05-02T13:39:50.001Z</time></trkpt><trkpt lat="40.760686143956384" lon="8.34396213987841"><ele>71.0</ele><time>2026-05-02T13:39:51.001Z</time></trkpt><trkpt lat="40.76052649193502" lon="8.343795370848003"><ele>71.0</ele><time>2026-05-02T13:39:52.001Z</time></trkpt><trkpt lat="40.76036459998469" lon="8.34362606060137"><ele>71.0</ele><time>2026-05-02T13:39:53.001Z</time></trkpt><trkpt lat="40.76019719640567" lon="8.343455172191405"><ele>71.0</ele><time>2026-05-02T13:39:54.001Z</time></trkpt><trkpt lat="40.76001411481593" lon="8.343281280417822"><ele>71.0</ele><time>2026-05-02T13:39:55.001Z</time></trkpt><trkpt lat="40.7598270486497" lon="8.343093077611098"><ele>70.5</ele><time>2026-05-02T13:39:56.001Z</time></trkpt><trkpt lat="40.75963291968745" lon="8.342893976162525"><ele>70.0</ele><time>2026-05-02T13:39:57.001Z</time></trkpt><trkpt lat="40.75943612426963" lon="8.342709223365654"><ele>70.0</ele><time>2026-05-02T13:39:58.001Z</time></trkpt><trkpt lat="40.759232493751846" lon="8.34251090791616"><ele>70.0</ele><time>2026-05-02T13:39:59.001Z</time></trkpt><trkpt lat="40.75903117358385" lon="8.342312560141504"><ele>70.5</ele><time>2026-05-02T13:40:00.001Z</time></trkpt><trkpt lat="40.75883112397052" lon="8.342115492182632"><ele>71.0</ele><time>2026-05-02T13:40:01.001Z</time></trkpt><trkpt lat="40.75863301183319" lon="8.341924569163114"><ele>71.0</ele><time>2026-05-02T13:40:02.001Z</time></trkpt><trkpt lat="40.75843930307797" lon="8.341721731294719"><ele>71.0</ele><time>2026-05-02T13:40:03.001Z</time></trkpt><trkpt lat="40.758235911985985" lon="8.341517477135337"><ele>71.0</ele><time>2026-05-02T13:40:04.001Z</time></trkpt><trkpt lat="40.75803334158748" lon="8.341321226568235"><ele>71.0</ele><time>2026-05-02T13:40:05.001Z</time></trkpt><trkpt lat="40.75782675614406" lon="8.341121606404984"><ele>70.0</ele><time>2026-05-02T13:40:06.001Z</time></trkpt><trkpt lat="40.75761920548948" lon="8.34091604219414"><ele>69.0</ele><time>2026-05-02T13:40:07.001Z</time></trkpt><trkpt lat="40.757407913601185" lon="8.340703001952988"><ele>69.5</ele><time>2026-05-02T13:40:08.001Z</time></trkpt><trkpt lat="40.757190978630845" lon="8.34048074657906"><ele>70.0</ele><time>2026-05-02T13:40:09.001Z</time></trkpt><trkpt lat="40.75697465677932" lon="8.340262867643213"><ele>69.5</ele><time>2026-05-02T13:40:10.002Z</time></trkpt><trkpt lat="40.75675095486047" lon="8.340041838783169"><ele>69.0</ele><time>2026-05-02T13:40:11.002Z</time></trkpt><trkpt lat="40.756527732913455" lon="8.339822391473268"><ele>69.5</ele><time>2026-05-02T13:40:12.002Z</time></trkpt><trkpt lat="40.75630523864901" lon="8.339599480507266"><ele>70.0</ele><time>2026-05-02T13:40:13.002Z</time></trkpt><trkpt lat="40.75607766801005" lon="8.339373557320929"><ele>70.5</ele><time>2026-05-02T13:40:14.002Z</time></trkpt><trkpt lat="40.75585115201724" lon="8.339146447397736"><ele>71.0</ele><time>2026-05-02T13:40:15.002Z</time></trkpt><trkpt lat="40.755623294443886" lon="8.338922578216154"><ele>71.5</ele><time>2026-05-02T13:40:16.002Z</time></trkpt><trkpt lat="40.75539347262369" lon="8.338695650119014"><ele>72.0</ele><time>2026-05-02T13:40:17.002Z</time></trkpt><trkpt lat="40.755166583748384" lon="8.338469158815242"><ele>71.0</ele><time>2026-05-02T13:40:18.002Z</time></trkpt><trkpt lat="40.75493685903681" lon="8.338241273431581"><ele>70.0</ele><time>2026-05-02T13:40:19.002Z</time></trkpt><trkpt lat="40.754711711349486" lon="8.338015760215375"><ele>70.0</ele><time>2026-05-02T13:40:20.002Z</time></trkpt><trkpt lat="40.75448402988744" lon="8.337790270381324"><ele>70.0</ele><time>2026-05-02T13:40:21.002Z</time></trkpt><trkpt lat="40.7542548187991" lon="8.337570719726036"><ele>70.0</ele><time>2026-05-02T13:40:22.002Z</time></trkpt><trkpt lat="40.75402926571557" lon="8.337336488636584"><ele>70.0</ele><time>2026-05-02T13:40:23.002Z</time></trkpt><trkpt lat="40.75379928979934" lon="8.337110586357174"><ele>70.0</ele><time>2026-05-02T13:40:24.002Z</time></trkpt><trkpt lat="40.75356913044267" lon="8.336887519962783"><ele>70.0</ele><time>2026-05-02T13:40:25.002Z</time></trkpt><trkpt lat="40.753338667740195" lon="8.336658158361725"><ele>69.5</ele><time>2026-05-02T13:40:26.002Z</time></trkpt><trkpt lat="40.753107054097725" lon="8.336427778604044"><ele>69.0</ele><time>2026-05-02T13:40:27.002Z</time></trkpt><trkpt lat="40.752871204622735" lon="8.336197952368037"><ele>69.5</ele><time>2026-05-02T13:40:28Z</time></trkpt><trkpt lat="40.752641769759066" lon="8.335965741109572"><ele>70.0</ele><time>2026-05-02T13:40:29Z</time></trkpt><trkpt lat="40.75241138225077" lon="8.335733255974139"><ele>70.5</ele><time>2026-05-02T13:40:30Z</time></trkpt><trkpt lat="40.75217805691371" lon="8.335503779120739"><ele>71.0</ele><time>2026-05-02T13:40:31Z</time></trkpt><trkpt lat="40.75194344353583" lon="8.335277644621401"><ele>71.5</ele><time>2026-05-02T13:40:32Z</time></trkpt><trkpt lat="40.75171049881419" lon="8.335047213979847"><ele>72.0</ele><time>2026-05-02T13:40:33Z</time></trkpt><trkpt lat="40.75147916445969" lon="8.334818393753721"><ele>71.5</ele><time>2026-05-02T13:40:34Z</time></trkpt><trkpt lat="40.751249171327736" lon="8.334586088938265"><ele>71.0</ele><time>2026-05-02T13:40:35Z</time></trkpt><trkpt lat="40.75101679709382" lon="8.334358081181115"><ele>71.0</ele><time>2026-05-02T13:40:36Z</time></trkpt><trkpt lat="40.75078065441501" lon="8.334137691366008"><ele>71.0</ele><time>2026-05-02T13:40:37Z</time></trkpt><trkpt lat="40.75053089920567" lon="8.333947314511454"><ele>71.0</ele><time>2026-05-02T13:40:38Z</time></trkpt><trkpt lat="40.7502699092047" lon="8.333775953155104"><ele>71.0</ele><time>2026-05-02T13:40:39Z</time></trkpt><trkpt lat="40.749997190022626" lon="8.333618502135836"><ele>71.0</ele><time>2026-05-02T13:40:40Z</time></trkpt><trkpt lat="40.74973033059194" lon="8.333460115211427"><ele>71.0</ele><time>2026-05-02T13:40:41Z</time></trkpt><trkpt lat="40.74945856324784" lon="8.333305625370226"><ele>71.0</ele><time>2026-05-02T13:40:42Z</time></trkpt><trkpt lat="40.749184868501835" lon="8.333147185941367"><ele>71.0</ele><time>2026-05-02T13:40:43Z</time></trkpt><trkpt lat="40.74891626939464" lon="8.332984292934945"><ele>71.0</ele><time>2026-05-02T13:40:44Z</time></trkpt><trkpt lat="40.74864690776667" lon="8.33282383603645"><ele>71.0</ele><time>2026-05-02T13:40:45Z</time></trkpt><trkpt lat="40.748379601028155" lon="8.332663309224408"><ele>71.5</ele><time>2026-05-02T13:40:46Z</time></trkpt><trkpt lat="40.74811244370382" lon="8.332494054202252"><ele>72.0</ele><time>2026-05-02T13:40:47Z</time></trkpt><trkpt lat="40.74784952455161" lon="8.33233557577753"><ele>73.0</ele><time>2026-05-02T13:40:48Z</time></trkpt><trkpt lat="40.74758092474975" lon="8.332176901311275"><ele>74.0</ele><time>2026-05-02T13:40:49Z</time></trkpt><trkpt lat="40.74731030225046" lon="8.332020650612796"><ele>74.0</ele><time>2026-05-02T13:40:50Z</time></trkpt><trkpt lat="40.74703419026976" lon="8.331856900585679"><ele>74.0</ele><time>2026-05-02T13:40:51Z</time></trkpt><trkpt lat="40.7467588796711" lon="8.331680603459166"><ele>74.0</ele><time>2026-05-02T13:40:52Z</time></trkpt><trkpt lat="40.74648156339993" lon="8.33151135199732"><ele>74.0</ele><time>2026-05-02T13:40:53Z</time></trkpt><trkpt lat="40.746201394929635" lon="8.331345888459904"><ele>74.5</ele><time>2026-05-02T13:40:54Z</time></trkpt><trkpt lat="40.74592237294461" lon="8.331179514806713"><ele>75.0</ele><time>2026-05-02T13:40:55Z</time></trkpt><trkpt lat="40.745642717179535" lon="8.331015580136024"><ele>75.0</ele><time>2026-05-02T13:40:56Z</time></trkpt><trkpt lat="40.74536482025649" lon="8.330838436942859"><ele>75.0</ele><time>2026-05-02T13:40:57Z</time></trkpt><trkpt lat="40.74508598641389" lon="8.330674475864493"><ele>75.0</ele><time>2026-05-02T13:40:58Z</time></trkpt><trkpt lat="40.74480718244463" lon="8.330506622331496"><ele>75.0</ele><time>2026-05-02T13:40:59Z</time></trkpt><trkpt lat="40.744527746877" lon="8.330334732612869"><ele>75.5</ele><time>2026-05-02T13:41:00Z</time></trkpt><trkpt lat="40.744253381593055" lon="8.33016021616776"><ele>76.0</ele><time>2026-05-02T13:41:01Z</time></trkpt><trkpt lat="40.743978294769136" lon="8.329994667112965"><ele>76.0</ele><time>2026-05-02T13:41:02Z</time></trkpt><trkpt lat="40.74370393791321" lon="8.329826334243847"><ele>76.0</ele><time>2026-05-02T13:41:03Z</time></trkpt><trkpt lat="40.74342977188612" lon="8.329662922468936"><ele>76.0</ele><time>2026-05-02T13:41:04Z</time></trkpt><trkpt lat="40.743160038918525" lon="8.329504530452931"><ele>76.0</ele><time>2026-05-02T13:41:05Z</time></trkpt><trkpt lat="40.74288957118423" lon="8.329348513682122"><ele>78.5</ele><time>2026-05-02T13:41:06Z</time></trkpt><trkpt lat="40.74262660395342" lon="8.329188976349737"><ele>81.0</ele><time>2026-05-02T13:41:07Z</time></trkpt><trkpt lat="40.742367822358545" lon="8.329030974492394"><ele>80.0</ele><time>2026-05-02T13:41:08Z</time></trkpt><trkpt lat="40.7421193487806" lon="8.328880035232633"><ele>79.0</ele><time>2026-05-02T13:41:09Z</time></trkpt><trkpt lat="40.74189020002392" lon="8.328736420160473"><ele>79.0</ele><time>2026-05-02T13:41:10Z</time></trkpt><trkpt lat="40.74165240969512" lon="8.328609472469015"><ele>79.0</ele><time>2026-05-02T13:41:11Z</time></trkpt><trkpt lat="40.74139786716149" lon="8.328506994095601"><ele>79.0</ele><time>2026-05-02T13:41:12Z</time></trkpt><trkpt lat="40.74113394070723" lon="8.32845202893746"><ele>79.0</ele><time>2026-05-02T13:41:13Z</time></trkpt><trkpt lat="40.74085540682119" lon="8.328422613154968"><ele>79.5</ele><time>2026-05-02T13:41:14Z</time></trkpt><trkpt lat="40.74057325651242" lon="8.328392408910258"><ele>80.0</ele><time>2026-05-02T13:41:15Z</time></trkpt><trkpt lat="40.74028054629142" lon="8.328358325304816"><ele>79.0</ele><time>2026-05-02T13:41:16Z</time></trkpt><trkpt lat="40.73998750175127" lon="8.328312927634013"><ele>78.0</ele><time>2026-05-02T13:41:17Z</time></trkpt><trkpt lat="40.739688979332826" lon="8.328270688772712"><ele>78.0</ele><time>2026-05-02T13:41:18Z</time></trkpt><trkpt lat="40.73938544814607" lon="8.328233317573547"><ele>78.0</ele><time>2026-05-02T13:41:19Z</time></trkpt><trkpt lat="40.73907902521006" lon="8.328191462637742"><ele>77.0</ele><time>2026-05-02T13:41:20Z</time></trkpt><trkpt lat="40.73876935583279" lon="8.328146949798864"><ele>76.0</ele><time>2026-05-02T13:41:21Z</time></trkpt><trkpt lat="40.73845863842521" lon="8.328097061901653"><ele>74.0</ele><time>2026-05-02T13:41:22Z</time></trkpt><trkpt lat="40.73815569937996" lon="8.32805481599287"><ele>72.0</ele><time>2026-05-02T13:41:23Z</time></trkpt><trkpt lat="40.737847962009205" lon="8.32801448756016"><ele>71.5</ele><time>2026-05-02T13:41:24Z</time></trkpt><trkpt lat="40.737542942494514" lon="8.327976112874738"><ele>71.0</ele><time>2026-05-02T13:41:25Z</time></trkpt><trkpt lat="40.7372386207773" lon="8.32792571247309"><ele>71.0</ele><time>2026-05-02T13:41:26Z</time></trkpt><trkpt lat="40.73693538442312" lon="8.327873260827365"><ele>71.0</ele><time>2026-05-02T13:41:27Z</time></trkpt><trkpt lat="40.736639915533836" lon="8.327830874574765"><ele>71.0</ele><time>2026-05-02T13:41:28Z</time></trkpt><trkpt lat="40.73634259032204" lon="8.327787451615169"><ele>71.0</ele><time>2026-05-02T13:41:29Z</time></trkpt><trkpt lat="40.73605260663748" lon="8.327745051689838"><ele>71.0</ele><time>2026-05-02T13:41:30.001Z</time></trkpt><trkpt lat="40.735761410065756" lon="8.327709586975075"><ele>71.0</ele><time>2026-05-02T13:41:31.001Z</time></trkpt><trkpt lat="40.73546289203823" lon="8.327668318183393"><ele>71.0</ele><time>2026-05-02T13:41:32.001Z</time></trkpt><trkpt lat="40.73517263058683" lon="8.32763319502432"><ele>71.0</ele><time>2026-05-02T13:41:33.001Z</time></trkpt><trkpt lat="40.73487977550249" lon="8.327594784241466"><ele>71.0</ele><time>2026-05-02T13:41:34.001Z</time></trkpt><trkpt lat="40.73458371107768" lon="8.327548306886287"><ele>71.0</ele><time>2026-05-02T13:41:35.001Z</time></trkpt><trkpt lat="40.73429318871674" lon="8.327506425904643"><ele>71.0</ele><time>2026-05-02T13:41:36.001Z</time></trkpt><trkpt lat="40.73400083337087" lon="8.32746929452196"><ele>71.0</ele><time>2026-05-02T13:41:37.001Z</time></trkpt><trkpt lat="40.733698702737634" lon="8.327430466213537"><ele>70.5</ele><time>2026-05-02T13:41:38.001Z</time></trkpt><trkpt lat="40.73340305514235" lon="8.32738775526057"><ele>70.0</ele><time>2026-05-02T13:41:39.001Z</time></trkpt><trkpt lat="40.73310522571398" lon="8.327341194233668"><ele>70.0</ele><time>2026-05-02T13:41:40.001Z</time></trkpt><trkpt lat="40.73279627465548" lon="8.327291602484967"><ele>70.0</ele><time>2026-05-02T13:41:41.001Z</time></trkpt><trkpt lat="40.732474831513144" lon="8.327245278787544"><ele>68.5</ele><time>2026-05-02T13:41:42.001Z</time></trkpt><trkpt lat="40.73213914824285" lon="8.327200711073221"><ele>67.0</ele><time>2026-05-02T13:41:43.001Z</time></trkpt><trkpt lat="40.73180385010584" lon="8.327151842921618"><ele>66.5</ele><time>2026-05-02T13:41:44.001Z</time></trkpt><trkpt lat="40.73150005834366" lon="8.327100646405958"><ele>66.0</ele><time>2026-05-02T13:41:45.001Z</time></trkpt><trkpt lat="40.7312088011777" lon="8.327049079728848"><ele>67.5</ele><time>2026-05-02T13:41:46.001Z</time></trkpt><trkpt lat="40.73093012099354" lon="8.32699602184424"><ele>69.0</ele><time>2026-05-02T13:41:47.001Z</time></trkpt><trkpt lat="40.73065911216023" lon="8.326953880622446"><ele>69.0</ele><time>2026-05-02T13:41:48.001Z</time></trkpt><trkpt lat="40.73039438171967" lon="8.32692160438258"><ele>69.0</ele><time>2026-05-02T13:41:49.001Z</time></trkpt><trkpt lat="40.730145919557614" lon="8.326888344269303"><ele>69.5</ele><time>2026-05-02T13:41:50.001Z</time></trkpt><trkpt lat="40.72989748179441" lon="8.326879715339938"><ele>70.0</ele><time>2026-05-02T13:41:51.001Z</time></trkpt><trkpt lat="40.72964925836451" lon="8.326885650969935"><ele>69.0</ele><time>2026-05-02T13:41:52.001Z</time></trkpt><trkpt lat="40.729388856750255" lon="8.326917775248777"><ele>68.0</ele><time>2026-05-02T13:41:53.001Z</time></trkpt><trkpt lat="40.729121635908356" lon="8.326977626978453"><ele>68.0</ele><time>2026-05-02T13:41:54.001Z</time></trkpt><trkpt lat="40.7288471545593" lon="8.32705014209501"><ele>68.0</ele><time>2026-05-02T13:41:55.001Z</time></trkpt><trkpt lat="40.72856815038763" lon="8.327115838018742"><ele>67.5</ele><time>2026-05-02T13:41:56.001Z</time></trkpt><trkpt lat="40.72828714301412" lon="8.32718306813716"><ele>67.0</ele><time>2026-05-02T13:41:57.001Z</time></trkpt><trkpt lat="40.72799691315908" lon="8.32725321722872"><ele>66.5</ele><time>2026-05-02T13:41:58.001Z</time></trkpt><trkpt lat="40.72770979636502" lon="8.327332496223379"><ele>66.0</ele><time>2026-05-02T13:41:59.001Z</time></trkpt><trkpt lat="40.727423527865994" lon="8.3274171645612"><ele>66.0</ele><time>2026-05-02T13:42:00.001Z</time></trkpt><trkpt lat="40.72713676717036" lon="8.327506998945058"><ele>66.0</ele><time>2026-05-02T13:42:01.001Z</time></trkpt><trkpt lat="40.72684565239433" lon="8.32760095261446"><ele>67.0</ele><time>2026-05-02T13:42:02.001Z</time></trkpt><trkpt lat="40.72655528783639" lon="8.32769164931652"><ele>68.0</ele><time>2026-05-02T13:42:03.001Z</time></trkpt><trkpt lat="40.72626206578241" lon="8.327785196689913"><ele>69.0</ele><time>2026-05-02T13:42:04.001Z</time></trkpt><trkpt lat="40.72597210487989" lon="8.327876655465326"><ele>70.0</ele><time>2026-05-02T13:42:05.001Z</time></trkpt><trkpt lat="40.725676609325625" lon="8.32797058491972"><ele>69.5</ele><time>2026-05-02T13:42:06.001Z</time></trkpt><trkpt lat="40.72537930710269" lon="8.328066549074206"><ele>69.0</ele><time>2026-05-02T13:42:07.001Z</time></trkpt><trkpt lat="40.72508152702319" lon="8.328160813898727"><ele>69.0</ele><time>2026-05-02T13:42:08.001Z</time></trkpt><trkpt lat="40.72478836839262" lon="8.328250496070043"><ele>69.0</ele><time>2026-05-02T13:42:09.001Z</time></trkpt><trkpt lat="40.724485382738486" lon="8.328339785678022"><ele>68.5</ele><time>2026-05-02T13:42:10.001Z</time></trkpt><trkpt lat="40.72419115164754" lon="8.328435650727513"><ele>68.0</ele><time>2026-05-02T13:42:11.001Z</time></trkpt><trkpt lat="40.72389898374585" lon="8.328528745940053"><ele>68.0</ele><time>2026-05-02T13:42:12.001Z</time></trkpt><trkpt lat="40.723606522012496" lon="8.32862316738823"><ele>68.0</ele><time>2026-05-02T13:42:13.001Z</time></trkpt><trkpt lat="40.72332027737103" lon="8.328714589087744"><ele>67.5</ele><time>2026-05-02T13:42:14.001Z</time></trkpt><trkpt lat="40.723036918001206" lon="8.328805021330487"><ele>67.0</ele><time>2026-05-02T13:42:15.001Z</time></trkpt><trkpt lat="40.722755895708595" lon="8.32889056870255"><ele>67.0</ele><time>2026-05-02T13:42:16.001Z</time></trkpt><trkpt lat="40.72247952915057" lon="8.328971453639259"><ele>67.0</ele><time>2026-05-02T13:42:17.001Z</time></trkpt><trkpt lat="40.722204298344785" lon="8.329056755052504"><ele>67.0</ele><time>2026-05-02T13:42:18.001Z</time></trkpt><trkpt lat="40.7219285056284" lon="8.329145128175282"><ele>67.0</ele><time>2026-05-02T13:42:19.001Z</time></trkpt><trkpt lat="40.72164668066244" lon="8.329240032749986"><ele>67.5</ele><time>2026-05-02T13:42:20.001Z</time></trkpt><trkpt lat="40.72136416026383" lon="8.329330639416384"><ele>68.0</ele><time>2026-05-02T13:42:21.001Z</time></trkpt><trkpt lat="40.72107764401408" lon="8.329414005202302"><ele>67.0</ele><time>2026-05-02T13:42:22.001Z</time></trkpt><trkpt lat="40.72079236976901" lon="8.329498052439009"><ele>66.0</ele><time>2026-05-02T13:42:23.001Z</time></trkpt><trkpt lat="40.72049819007033" lon="8.329583194293724"><ele>64.0</ele><time>2026-05-02T13:42:24.001Z</time></trkpt><trkpt lat="40.72021273798579" lon="8.329659599831857"><ele>62.0</ele><time>2026-05-02T13:42:25.001Z</time></trkpt><trkpt lat="40.71993521225883" lon="8.329705691096239"><ele>62.0</ele><time>2026-05-02T13:42:26.001Z</time></trkpt><trkpt lat="40.71965138016958" lon="8.329686828447093"><ele>62.0</ele><time>2026-05-02T13:42:27.001Z</time></trkpt><trkpt lat="40.71936051554808" lon="8.329643769058125"><ele>61.0</ele><time>2026-05-02T13:42:28.001Z</time></trkpt><trkpt lat="40.71907777671124" lon="8.3296180637653"><ele>60.0</ele><time>2026-05-02T13:42:29.001Z</time></trkpt><trkpt lat="40.71881611885485" lon="8.32960475897751"><ele>59.0</ele><time>2026-05-02T13:42:30.001Z</time></trkpt><trkpt lat="40.71856475061833" lon="8.3296216416712"><ele>58.0</ele><time>2026-05-02T13:42:31.001Z</time></trkpt><trkpt lat="40.718321525592934" lon="8.329683372972715"><ele>62.5</ele><time>2026-05-02T13:42:32.001Z</time></trkpt><trkpt lat="40.718074665080074" lon="8.32978876042903"><ele>67.0</ele><time>2026-05-02T13:42:33.001Z</time></trkpt><trkpt lat="40.71781934053286" lon="8.329926520470488"><ele>62.0</ele><time>2026-05-02T13:42:34Z</time></trkpt><trkpt lat="40.71756124283291" lon="8.330071153146905"><ele>57.0</ele><time>2026-05-02T13:42:35Z</time></trkpt><trkpt lat="40.717292746029685" lon="8.33021461044584"><ele>57.0</ele><time>2026-05-02T13:42:36Z</time></trkpt><trkpt lat="40.71702349447441" lon="8.330353568988047"><ele>57.0</ele><time>2026-05-02T13:42:37Z</time></trkpt><trkpt lat="40.71675491596817" lon="8.330496648706104"><ele>57.0</ele><time>2026-05-02T13:42:38Z</time></trkpt><trkpt lat="40.716480649275695" lon="8.330640473811224"><ele>57.0</ele><time>2026-05-02T13:42:39Z</time></trkpt><trkpt lat="40.71620828802593" lon="8.330781848068616"><ele>54.0</ele><time>2026-05-02T13:42:40Z</time></trkpt><trkpt lat="40.71593274846427" lon="8.330925140566476"><ele>51.0</ele><time>2026-05-02T13:42:41Z</time></trkpt><trkpt lat="40.71565780846081" lon="8.331073797324123"><ele>51.0</ele><time>2026-05-02T13:42:42Z</time></trkpt><trkpt lat="40.71538765163788" lon="8.331212853587777"><ele>51.0</ele><time>2026-05-02T13:42:43Z</time></trkpt><trkpt lat="40.71512458370606" lon="8.331347865361534"><ele>51.0</ele><time>2026-05-02T13:42:44Z</time></trkpt><trkpt lat="40.714869099228636" lon="8.331466129909563"><ele>51.0</ele><time>2026-05-02T13:42:45Z</time></trkpt><trkpt lat="40.714615663377565" lon="8.331584530840338"><ele>50.5</ele><time>2026-05-02T13:42:46Z</time></trkpt><trkpt lat="40.714365203872646" lon="8.331689429997123"><ele>50.0</ele><time>2026-05-02T13:42:47Z</time></trkpt><trkpt lat="40.7141185940334" lon="8.331785055151597"><ele>50.0</ele><time>2026-05-02T13:42:48Z</time></trkpt><trkpt lat="40.71388834518364" lon="8.331873176376892"><ele>50.0</ele><time>2026-05-02T13:42:49Z</time></trkpt><trkpt lat="40.71367419123069" lon="8.331950327464046"><ele>49.0</ele><time>2026-05-02T13:42:50Z</time></trkpt><trkpt lat="40.7134634990117" lon="8.332025102193196"><ele>48.0</ele><time>2026-05-02T13:42:51Z</time></trkpt><trkpt lat="40.71324873958085" lon="8.332088974503343"><ele>47.0</ele><time>2026-05-02T13:42:51.999Z</time></trkpt><trkpt lat="40.713028764024564" lon="8.332124937729242"><ele>47.0</ele><time>2026-05-02T13:42:52.999Z</time></trkpt><trkpt lat="40.71280767909868" lon="8.332131555820956"><ele>47.0</ele><time>2026-05-02T13:42:53.999Z</time></trkpt><trkpt lat="40.712586545264436" lon="8.332117027719127"><ele>47.0</ele><time>2026-05-02T13:42:54.999Z</time></trkpt><trkpt lat="40.71236066639707" lon="8.332092254680306"><ele>47.0</ele><time>2026-05-02T13:42:55.999Z</time></trkpt><trkpt lat="40.71212603381577" lon="8.332078748880694"><ele>47.0</ele><time>2026-05-02T13:42:56.999Z</time></trkpt><trkpt lat="40.711886742145936" lon="8.332071214419715"><ele>47.0</ele><time>2026-05-02T13:42:57.999Z</time></trkpt><trkpt lat="40.711635926293134" lon="8.332060233320592"><ele>47.0</ele><time>2026-05-02T13:42:58.999Z</time></trkpt><trkpt lat="40.71136925099947" lon="8.332041447293417"><ele>47.0</ele><time>2026-05-02T13:42:59.999Z</time></trkpt><trkpt lat="40.71109344940899" lon="8.332015187260051"><ele>47.0</ele><time>2026-05-02T13:43:00.999Z</time></trkpt><trkpt lat="40.71080695426065" lon="8.331982975215086"><ele>48.0</ele><time>2026-05-02T13:43:01.999Z</time></trkpt><trkpt lat="40.71052858304034" lon="8.33195585929912"><ele>49.0</ele><time>2026-05-02T13:43:02.999Z</time></trkpt><trkpt lat="40.71024603427526" lon="8.331939725163405"><ele>49.0</ele><time>2026-05-02T13:43:03.999Z</time></trkpt><trkpt lat="40.709956500650364" lon="8.331923392765134"><ele>49.0</ele><time>2026-05-02T13:43:04.999Z</time></trkpt><trkpt lat="40.70967131338341" lon="8.33189904172174"><ele>49.0</ele><time>2026-05-02T13:43:05.999Z</time></trkpt><trkpt lat="40.70938638302648" lon="8.33188579100988"><ele>49.0</ele><time>2026-05-02T13:43:06.999Z</time></trkpt><trkpt lat="40.709104430177305" lon="8.331863011357282"><ele>49.0</ele><time>2026-05-02T13:43:07.999Z</time></trkpt><trkpt lat="40.70882116970202" lon="8.331850253712794"><ele>49.0</ele><time>2026-05-02T13:43:08.998Z</time></trkpt><trkpt lat="40.70853425667655" lon="8.331845431725698"><ele>48.0</ele><time>2026-05-02T13:43:09.998Z</time></trkpt><trkpt lat="40.708238337268355" lon="8.331835472421972"><ele>47.0</ele><time>2026-05-02T13:43:10.998Z</time></trkpt><trkpt lat="40.70794900251143" lon="8.331801877490452"><ele>49.0</ele><time>2026-05-02T13:43:11.998Z</time></trkpt><trkpt lat="40.707674901097405" lon="8.331751071527114"><ele>51.0</ele><time>2026-05-02T13:43:12.998Z</time></trkpt><trkpt lat="40.70740972550495" lon="8.3316921130133"><ele>51.0</ele><time>2026-05-02T13:43:13.998Z</time></trkpt><trkpt lat="40.70715124012318" lon="8.33158809188484"><ele>51.0</ele><time>2026-05-02T13:43:14.998Z</time></trkpt><trkpt lat="40.70691452868599" lon="8.331424127402473"><ele>51.5</ele><time>2026-05-02T13:43:15.998Z</time></trkpt><trkpt lat="40.70669015358715" lon="8.33122122468022"><ele>52.0</ele><time>2026-05-02T13:43:16.998Z</time></trkpt><trkpt lat="40.70646852213253" lon="8.330998915074916"><ele>52.0</ele><time>2026-05-02T13:43:17.998Z</time></trkpt><trkpt lat="40.70625286469433" lon="8.330788517632845"><ele>52.0</ele><time>2026-05-02T13:43:18.998Z</time></trkpt><trkpt lat="40.70603494828039" lon="8.330589887038133"><ele>52.0</ele><time>2026-05-02T13:43:19.998Z</time></trkpt><trkpt lat="40.705808846652666" lon="8.330390624618135"><ele>52.0</ele><time>2026-05-02T13:43:20.998Z</time></trkpt><trkpt lat="40.705583712354944" lon="8.330194627044088"><ele>52.0</ele><time>2026-05-02T13:43:21.998Z</time></trkpt><trkpt lat="40.70536607085596" lon="8.330001553535293"><ele>52.0</ele><time>2026-05-02T13:43:22.998Z</time></trkpt><trkpt lat="40.70515785079405" lon="8.32980913328088"><ele>50.5</ele><time>2026-05-02T13:43:23.998Z</time></trkpt><trkpt lat="40.7049408722487" lon="8.329627932330867"><ele>49.0</ele><time>2026-05-02T13:43:24.998Z</time></trkpt><trkpt lat="40.70470643548197" lon="8.329461193683176"><ele>49.0</ele><time>2026-05-02T13:43:25.998Z</time></trkpt><trkpt lat="40.70446458627789" lon="8.32933056720514"><ele>49.0</ele><time>2026-05-02T13:43:26.998Z</time></trkpt><trkpt lat="40.70421592022198" lon="8.329217910418112"><ele>51.0</ele><time>2026-05-02T13:43:27.998Z</time></trkpt><trkpt lat="40.703962092833294" lon="8.329096480705987"><ele>53.0</ele><time>2026-05-02T13:43:28.998Z</time></trkpt><trkpt lat="40.70370850793333" lon="8.328981373844421"><ele>52.0</ele><time>2026-05-02T13:43:29.998Z</time></trkpt><trkpt lat="40.703458329568164" lon="8.328867572666153"><ele>51.0</ele><time>2026-05-02T13:43:30.998Z</time></trkpt><trkpt lat="40.70321951886836" lon="8.328754138309634"><ele>51.0</ele><time>2026-05-02T13:43:31.998Z</time></trkpt><trkpt lat="40.70298768592258" lon="8.328635186816808"><ele>51.0</ele><time>2026-05-02T13:43:32.998Z</time></trkpt><trkpt lat="40.70275298912071" lon="8.328521700635143"><ele>52.5</ele><time>2026-05-02T13:43:33.998Z</time></trkpt><trkpt lat="40.70250062511747" lon="8.328437496102909"><ele>54.0</ele><time>2026-05-02T13:43:34.998Z</time></trkpt><trkpt lat="40.702245470682236" lon="8.328359051666016"><ele>54.0</ele><time>2026-05-02T13:43:35.998Z</time></trkpt><trkpt lat="40.70198956349595" lon="8.328280181278348"><ele>54.0</ele><time>2026-05-02T13:43:36.998Z</time></trkpt><trkpt lat="40.70173386619589" lon="8.328198225055546"><ele>53.5</ele><time>2026-05-02T13:43:37.998Z</time></trkpt><trkpt lat="40.701475466762425" lon="8.328114556290561"><ele>53.0</ele><time>2026-05-02T13:43:38.998Z</time></trkpt><trkpt lat="40.70121675363699" lon="8.328021190339058"><ele>52.5</ele><time>2026-05-02T13:43:39.998Z</time></trkpt><trkpt lat="40.70095754463974" lon="8.32793933415806"><ele>52.0</ele><time>2026-05-02T13:43:40.998Z</time></trkpt><trkpt lat="40.700698875368495" lon="8.327853418793985"><ele>52.0</ele><time>2026-05-02T13:43:41.998Z</time></trkpt><trkpt lat="40.70043913712331" lon="8.327766830066015"><ele>52.0</ele><time>2026-05-02T13:43:42.998Z</time></trkpt><trkpt lat="40.700176903139415" lon="8.327679984064485"><ele>53.0</ele><time>2026-05-02T13:43:43.998Z</time></trkpt><trkpt lat="40.69991375910488" lon="8.32759386967065"><ele>54.0</ele><time>2026-05-02T13:43:44.998Z</time></trkpt><trkpt lat="40.69965006536478" lon="8.327507472275897"><ele>54.0</ele><time>2026-05-02T13:43:45.998Z</time></trkpt><trkpt lat="40.69938319346788" lon="8.327425913301893"><ele>54.0</ele><time>2026-05-02T13:43:46.998Z</time></trkpt><trkpt lat="40.69911502068507" lon="8.327341740997587"><ele>54.0</ele><time>2026-05-02T13:43:47.998Z</time></trkpt><trkpt lat="40.69884475560215" lon="8.327254597174154"><ele>54.0</ele><time>2026-05-02T13:43:48.998Z</time></trkpt><trkpt lat="40.698574753969005" lon="8.327164399293855"><ele>53.5</ele><time>2026-05-02T13:43:49.998Z</time></trkpt><trkpt lat="40.69829669760241" lon="8.327067488427458"><ele>53.0</ele><time>2026-05-02T13:43:50.998Z</time></trkpt><trkpt lat="40.698021326329034" lon="8.326979327684064"><ele>53.0</ele><time>2026-05-02T13:43:51.998Z</time></trkpt><trkpt lat="40.69774302776559" lon="8.326889561031233"><ele>53.0</ele><time>2026-05-02T13:43:52.998Z</time></trkpt><trkpt lat="40.697462817940156" lon="8.326797879330082"><ele>53.0</ele><time>2026-05-02T13:43:53.998Z</time></trkpt><trkpt lat="40.697181012238936" lon="8.326703790073116"><ele>53.0</ele><time>2026-05-02T13:43:54.998Z</time></trkpt><trkpt lat="40.696897039954074" lon="8.32661203281088"><ele>53.5</ele><time>2026-05-02T13:43:55.998Z</time></trkpt><trkpt lat="40.69660485646611" lon="8.32652276775082"><ele>54.0</ele><time>2026-05-02T13:43:56.998Z</time></trkpt><trkpt lat="40.69631000788389" lon="8.326425460276415"><ele>52.0</ele><time>2026-05-02T13:43:57.998Z</time></trkpt><trkpt lat="40.69601368358363" lon="8.326327633552298"><ele>50.0</ele><time>2026-05-02T13:43:58.998Z</time></trkpt><trkpt lat="40.69571748270076" lon="8.326226012200147"><ele>50.0</ele><time>2026-05-02T13:43:59.998Z</time></trkpt><trkpt lat="40.69541613821846" lon="8.326124395982148"><ele>50.0</ele><time>2026-05-02T13:44:00.998Z</time></trkpt><trkpt lat="40.695111358055236" lon="8.32602541613793"><ele>50.5</ele><time>2026-05-02T13:44:01.998Z</time></trkpt><trkpt lat="40.6948073875303" lon="8.325923727666556"><ele>51.0</ele><time>2026-05-02T13:44:02.998Z</time></trkpt><trkpt lat="40.69450279393769" lon="8.325834586012597"><ele>52.0</ele><time>2026-05-02T13:44:03.998Z</time></trkpt><trkpt lat="40.694195744591156" lon="8.325733869340834"><ele>53.0</ele><time>2026-05-02T13:44:04.998Z</time></trkpt><trkpt lat="40.69388891568568" lon="8.325630974775226"><ele>51.5</ele><time>2026-05-02T13:44:05.998Z</time></trkpt><trkpt lat="40.6935844581104" lon="8.325528471005764"><ele>50.0</ele><time>2026-05-02T13:44:06.998Z</time></trkpt><trkpt lat="40.69326221079879" lon="8.325423035019504"><ele>50.0</ele><time>2026-05-02T13:44:07.998Z</time></trkpt><trkpt lat="40.69292917238815" lon="8.325318457543299"><ele>50.0</ele><time>2026-05-02T13:44:08.998Z</time></trkpt><trkpt lat="40.6925916926743" lon="8.32521361988313"><ele>51.5</ele><time>2026-05-02T13:44:09.998Z</time></trkpt><trkpt lat="40.692261541328925" lon="8.325106822601112"><ele>53.0</ele><time>2026-05-02T13:44:10.998Z</time></trkpt><trkpt lat="40.69193466140754" lon="8.325001930459406"><ele>53.0</ele><time>2026-05-02T13:44:11.998Z</time></trkpt><trkpt lat="40.69161172919465" lon="8.324900240304608"><ele>53.0</ele><time>2026-05-02T13:44:12.999Z</time></trkpt><trkpt lat="40.69129361983143" lon="8.3247973200585"><ele>50.5</ele><time>2026-05-02T13:44:13.999Z</time></trkpt><trkpt lat="40.69097572077015" lon="8.324693026072143"><ele>48.0</ele><time>2026-05-02T13:44:14.999Z</time></trkpt><trkpt lat="40.69065994691075" lon="8.324586171688589"><ele>48.0</ele><time>2026-05-02T13:44:15.999Z</time></trkpt><trkpt lat="40.690353016398724" lon="8.324486385266534"><ele>48.0</ele><time>2026-05-02T13:44:16.999Z</time></trkpt><trkpt lat="40.69006087836411" lon="8.324387798633184"><ele>48.0</ele><time>2026-05-02T13:44:17.999Z</time></trkpt><trkpt lat="40.68977700889867" lon="8.324291518999898"><ele>48.0</ele><time>2026-05-02T13:44:18.999Z</time></trkpt><trkpt lat="40.689492138138554" lon="8.324196177566932"><ele>48.5</ele><time>2026-05-02T13:44:19.999Z</time></trkpt><trkpt lat="40.68921112842505" lon="8.324103819125325"><ele>49.0</ele><time>2026-05-02T13:44:20.999Z</time></trkpt><trkpt lat="40.68894745586559" lon="8.32402448075309"><ele>49.0</ele><time>2026-05-02T13:44:21.999Z</time></trkpt><trkpt lat="40.68868514918703" lon="8.32397653578654"><ele>49.0</ele><time>2026-05-02T13:44:22.999Z</time></trkpt><trkpt lat="40.688417057881736" lon="8.323974301126135"><ele>49.5</ele><time>2026-05-02T13:44:23.999Z</time></trkpt><trkpt lat="40.6881379327058" lon="8.324014840548278"><ele>50.0</ele><time>2026-05-02T13:44:24.999Z</time></trkpt><trkpt lat="40.687845719171996" lon="8.324092359186404"><ele>49.5</ele><time>2026-05-02T13:44:25.999Z</time></trkpt><trkpt lat="40.68754176648899" lon="8.324154383490626"><ele>49.0</ele><time>2026-05-02T13:44:26.999Z</time></trkpt><trkpt lat="40.687234873106505" lon="8.324206169736815"><ele>49.5</ele><time>2026-05-02T13:44:27.999Z</time></trkpt><trkpt lat="40.68692610797567" lon="8.324256410371818"><ele>50.0</ele><time>2026-05-02T13:44:28.999Z</time></trkpt><trkpt lat="40.686620166202175" lon="8.324298553015069"><ele>50.0</ele><time>2026-05-02T13:44:29.999Z</time></trkpt><trkpt lat="40.68631137002644" lon="8.324349779064516"><ele>50.0</ele><time>2026-05-02T13:44:30.999Z</time></trkpt><trkpt lat="40.686001184151294" lon="8.324393650534736"><ele>50.0</ele><time>2026-05-02T13:44:31.999Z</time></trkpt><trkpt lat="40.68569891718458" lon="8.324438291386457"><ele>50.0</ele><time>2026-05-02T13:44:32.999Z</time></trkpt><trkpt lat="40.685396354833166" lon="8.324493843602816"><ele>49.0</ele><time>2026-05-02T13:44:33.999Z</time></trkpt><trkpt lat="40.68508433866801" lon="8.324538126221526"><ele>48.0</ele><time>2026-05-02T13:44:34.999Z</time></trkpt><trkpt lat="40.68477620829636" lon="8.324592444253321"><ele>48.0</ele><time>2026-05-02T13:44:35.999Z</time></trkpt><trkpt lat="40.68446683853192" lon="8.324638133095583"><ele>48.0</ele><time>2026-05-02T13:44:36.999Z</time></trkpt><trkpt lat="40.68415432103277" lon="8.324694057157563"><ele>47.0</ele><time>2026-05-02T13:44:37.999Z</time></trkpt><trkpt lat="40.68383729965388" lon="8.324742383030364"><ele>46.0</ele><time>2026-05-02T13:44:38.999Z</time></trkpt><trkpt lat="40.6835253022796" lon="8.324787816163191"><ele>45.5</ele><time>2026-05-02T13:44:39.998Z</time></trkpt><trkpt lat="40.68321343194236" lon="8.324839477487911"><ele>45.0</ele><time>2026-05-02T13:44:40.998Z</time></trkpt><trkpt lat="40.682900639126565" lon="8.32489013877351"><ele>45.5</ele><time>2026-05-02T13:44:41.998Z</time></trkpt><trkpt lat="40.682589590478706" lon="8.324941826910445"><ele>46.0</ele><time>2026-05-02T13:44:42.998Z</time></trkpt><trkpt lat="40.68227625670305" lon="8.324991100186532"><ele>46.0</ele><time>2026-05-02T13:44:43.998Z</time></trkpt><trkpt lat="40.681963903495635" lon="8.325037609299773"><ele>46.0</ele><time>2026-05-02T13:44:44.998Z</time></trkpt><trkpt lat="40.6816504974081" lon="8.32508207608405"><ele>46.0</ele><time>2026-05-02T13:44:45.999Z</time></trkpt><trkpt lat="40.68133846529471" lon="8.325131590851445"><ele>46.0</ele><time>2026-05-02T13:44:46.999Z</time></trkpt><trkpt lat="40.681019743662176" lon="8.32517433986349"><ele>45.5</ele><time>2026-05-02T13:44:47.999Z</time></trkpt><trkpt lat="40.68070706188971" lon="8.325222196878082"><ele>45.0</ele><time>2026-05-02T13:44:48.999Z</time></trkpt><trkpt lat="40.680390290695485" lon="8.325278604338601"><ele>45.0</ele><time>2026-05-02T13:44:49.999Z</time></trkpt><trkpt lat="40.68008273494737" lon="8.325326593392848"><ele>45.0</ele><time>2026-05-02T13:44:50.999Z</time></trkpt><trkpt lat="40.67977401684479" lon="8.325375388828705"><ele>45.0</ele><time>2026-05-02T13:44:51.999Z</time></trkpt><trkpt lat="40.679462169267744" lon="8.325427282360913"><ele>45.0</ele><time>2026-05-02T13:44:52.999Z</time></trkpt><trkpt lat="40.67915000017151" lon="8.325480518016658"><ele>44.5</ele><time>2026-05-02T13:44:53.999Z</time></trkpt><trkpt lat="40.67883900997843" lon="8.325533016439467"><ele>44.0</ele><time>2026-05-02T13:44:54.999Z</time></trkpt><trkpt lat="40.67852746076544" lon="8.325581744020575"><ele>43.5</ele><time>2026-05-02T13:44:55.999Z</time></trkpt><trkpt lat="40.67821756443765" lon="8.325627112105238"><ele>43.0</ele><time>2026-05-02T13:44:56.999Z</time></trkpt><trkpt lat="40.677901802105794" lon="8.325669858465229"><ele>43.0</ele><time>2026-05-02T13:44:57.999Z</time></trkpt><trkpt lat="40.677585437229176" lon="8.325728529504909"><ele>43.0</ele><time>2026-05-02T13:44:59Z</time></trkpt><trkpt lat="40.67727178193679" lon="8.32577841042385"><ele>43.0</ele><time>2026-05-02T13:45:00Z</time></trkpt><trkpt lat="40.676957952932966" lon="8.325823864509898"><ele>43.0</ele><time>2026-05-02T13:45:01Z</time></trkpt><trkpt lat="40.676646400572935" lon="8.325868448837069"><ele>42.0</ele><time>2026-05-02T13:45:02Z</time></trkpt><trkpt lat="40.67633271674143" lon="8.32591183670604"><ele>41.0</ele><time>2026-05-02T13:45:03Z</time></trkpt><trkpt lat="40.67601829869422" lon="8.32596636763838"><ele>41.0</ele><time>2026-05-02T13:45:04Z</time></trkpt><trkpt lat="40.675708491489374" lon="8.326021917958059"><ele>41.0</ele><time>2026-05-02T13:45:05Z</time></trkpt><trkpt lat="40.67539602641433" lon="8.326073638679704"><ele>41.0</ele><time>2026-05-02T13:45:06Z</time></trkpt><trkpt lat="40.67508351724956" lon="8.326121062842267"><ele>41.0</ele><time>2026-05-02T13:45:07Z</time></trkpt><trkpt lat="40.674771966697186" lon="8.32617282994202"><ele>41.0</ele><time>2026-05-02T13:45:08Z</time></trkpt><trkpt lat="40.67445943338593" lon="8.32621995223709"><ele>41.0</ele><time>2026-05-02T13:45:09Z</time></trkpt><trkpt lat="40.67414763933186" lon="8.32627142046992"><ele>41.0</ele><time>2026-05-02T13:45:10Z</time></trkpt><trkpt lat="40.673831493860305" lon="8.326319634068714"><ele>41.0</ele><time>2026-05-02T13:45:11Z</time></trkpt><trkpt lat="40.673522592366794" lon="8.326365490552897"><ele>39.5</ele><time>2026-05-02T13:45:12Z</time></trkpt><trkpt lat="40.67320559550207" lon="8.326416717206413"><ele>38.0</ele><time>2026-05-02T13:45:13Z</time></trkpt><trkpt lat="40.67289117767851" lon="8.326462863377346"><ele>37.0</ele><time>2026-05-02T13:45:14Z</time></trkpt><trkpt lat="40.67257265371032" lon="8.326514366664776"><ele>36.0</ele><time>2026-05-02T13:45:15Z</time></trkpt><trkpt lat="40.672264219124926" lon="8.326571070881517"><ele>36.0</ele><time>2026-05-02T13:45:16Z</time></trkpt><trkpt lat="40.67194766333285" lon="8.326623651063901"><ele>36.0</ele><time>2026-05-02T13:45:17Z</time></trkpt><trkpt lat="40.67164145412221" lon="8.326675095759596"><ele>36.0</ele><time>2026-05-02T13:45:18Z</time></trkpt><trkpt lat="40.67133612227015" lon="8.326724017897972"><ele>36.0</ele><time>2026-05-02T13:45:19Z</time></trkpt><trkpt lat="40.67102761598257" lon="8.3267715038478"><ele>36.0</ele><time>2026-05-02T13:45:20Z</time></trkpt><trkpt lat="40.6707302514908" lon="8.326821863206893"><ele>36.0</ele><time>2026-05-02T13:45:21Z</time></trkpt><trkpt lat="40.67045003769996" lon="8.326867140681426"><ele>36.5</ele><time>2026-05-02T13:45:22Z</time></trkpt><trkpt lat="40.67019403287112" lon="8.32690235432222"><ele>37.0</ele><time>2026-05-02T13:45:23Z</time></trkpt><trkpt lat="40.66994663538178" lon="8.326939152922906"><ele>37.0</ele><time>2026-05-02T13:45:24Z</time></trkpt><trkpt lat="40.66970984054683" lon="8.326975009151877"><ele>37.0</ele><time>2026-05-02T13:45:25Z</time></trkpt><trkpt lat="40.66947971442824" lon="8.327012165963959"><ele>36.66666666666667</ele><time>2026-05-02T13:45:26Z</time></trkpt><trkpt lat="40.66927199100643" lon="8.32704582509233"><ele>36.333333333333336</ele><time>2026-05-02T13:45:27Z</time></trkpt><trkpt lat="40.66908856213085" lon="8.327060528457839"><ele>36.0</ele><time>2026-05-02T13:45:28Z</time></trkpt><trkpt lat="40.668931339045564" lon="8.32704343808518"><ele>36.0</ele><time>2026-05-02T13:45:29Z</time></trkpt><trkpt lat="40.668782480586366" lon="8.326995033633215"><ele>36.0</ele><time>2026-05-02T13:45:30Z</time></trkpt><trkpt lat="40.66864197313247" lon="8.326904791064962"><ele>36.0</ele><time>2026-05-02T13:45:31Z</time></trkpt><trkpt lat="40.668495931250725" lon="8.326779511547056"><ele>35.0</ele><time>2026-05-02T13:45:32Z</time></trkpt><trkpt lat="40.668350196939585" lon="8.326646481761813"><ele>34.0</ele><time>2026-05-02T13:45:33Z</time></trkpt><trkpt lat="40.6682191194454" lon="8.326531911249539"><ele>33.0</ele><time>2026-05-02T13:45:34Z</time></trkpt><trkpt lat="40.668089822870954" lon="8.326444471457403"><ele>33.0</ele><time>2026-05-02T13:45:35Z</time></trkpt><trkpt lat="40.667955403031904" lon="8.326393589123064"><ele>33.0</ele><time>2026-05-02T13:45:36Z</time></trkpt><trkpt lat="40.6678211954037" lon="8.326410170243111"><ele>33.0</ele><time>2026-05-02T13:45:37Z</time></trkpt><trkpt lat="40.66769315247013" lon="8.326485482692796"><ele>33.0</ele><time>2026-05-02T13:45:38Z</time></trkpt><trkpt lat="40.66756968577104" lon="8.326607064717903"><ele>33.0</ele><time>2026-05-02T13:45:39Z</time></trkpt><trkpt lat="40.6674584774712" lon="8.326780214200637"><ele>33.0</ele><time>2026-05-02T13:45:40Z</time></trkpt><trkpt lat="40.667352108738015" lon="8.326984478363773"><ele>33.0</ele><time>2026-05-02T13:45:41Z</time></trkpt><trkpt lat="40.667235945139474" lon="8.327179454151736"><ele>33.333333333333336</ele><time>2026-05-02T13:45:42.001Z</time></trkpt><trkpt lat="40.6670785024516" lon="8.327331560520502"><ele>33.66666666666667</ele><time>2026-05-02T13:45:43.001Z</time></trkpt><trkpt lat="40.66689106940964" lon="8.327436056504288"><ele>34.0</ele><time>2026-05-02T13:45:44.001Z</time></trkpt><trkpt lat="40.666672589319404" lon="8.327483402007676"><ele>34.5</ele><time>2026-05-02T13:45:45.001Z</time></trkpt><trkpt lat="40.666430920919524" lon="8.327502293217613"><ele>35.0</ele><time>2026-05-02T13:45:46.001Z</time></trkpt><trkpt lat="40.66618307418254" lon="8.327532047573593"><ele>35.5</ele><time>2026-05-02T13:45:47.001Z</time></trkpt><trkpt lat="40.66594071287386" lon="8.327565438295869"><ele>36.0</ele><time>2026-05-02T13:45:48.001Z</time></trkpt><trkpt lat="40.665698875083386" lon="8.327600596775898"><ele>36.0</ele><time>2026-05-02T13:45:49.001Z</time></trkpt><trkpt lat="40.66545127728242" lon="8.327637344393015"><ele>36.0</ele><time>2026-05-02T13:45:50.001Z</time></trkpt><trkpt lat="40.665201937683634" lon="8.32767787535172"><ele>35.5</ele><time>2026-05-02T13:45:51.001Z</time></trkpt><trkpt lat="40.66496738315881" lon="8.327715625311209"><ele>35.0</ele><time>2026-05-02T13:45:52.001Z</time></trkpt><trkpt lat="40.66473611554465" lon="8.327746028425164"><ele>35.0</ele><time>2026-05-02T13:45:53.001Z</time></trkpt><trkpt lat="40.66449730435754" lon="8.327779482899285"><ele>35.0</ele><time>2026-05-02T13:45:54.001Z</time></trkpt><trkpt lat="40.66425427600927" lon="8.327816192318002"><ele>35.5</ele><time>2026-05-02T13:45:55.001Z</time></trkpt><trkpt lat="40.6640063970996" lon="8.327851909955985"><ele>36.0</ele><time>2026-05-02T13:45:56.001Z</time></trkpt><trkpt lat="40.66376488035833" lon="8.327885272243732"><ele>35.5</ele><time>2026-05-02T13:45:57.001Z</time></trkpt><trkpt lat="40.66352220898202" lon="8.327920421228333"><ele>35.0</ele><time>2026-05-02T13:45:58.001Z</time></trkpt><trkpt lat="40.663283894316734" lon="8.327963264687792"><ele>35.0</ele><time>2026-05-02T13:45:59.001Z</time></trkpt><trkpt lat="40.66304423571705" lon="8.32800561578393"><ele>35.0</ele><time>2026-05-02T13:46:00.001Z</time></trkpt><trkpt lat="40.66281230426349" lon="8.328044699521074"><ele>35.0</ele><time>2026-05-02T13:46:01.001Z</time></trkpt><trkpt lat="40.6625815437073" lon="8.3280801896813"><ele>35.0</ele><time>2026-05-02T13:46:02.001Z</time></trkpt><trkpt lat="40.66236547564333" lon="8.32811529849747"><ele>35.0</ele><time>2026-05-02T13:46:03.001Z</time></trkpt><trkpt lat="40.6621542342508" lon="8.328150035037654"><ele>35.0</ele><time>2026-05-02T13:46:04.001Z</time></trkpt><trkpt lat="40.66194144649334" lon="8.328184702970239"><ele>35.0</ele><time>2026-05-02T13:46:05.001Z</time></trkpt><trkpt lat="40.66171971355702" lon="8.328214386440788"><ele>35.5</ele><time>2026-05-02T13:46:06.001Z</time></trkpt><trkpt lat="40.661492927276804" lon="8.32824328945058"><ele>36.0</ele><time>2026-05-02T13:46:07.001Z</time></trkpt><trkpt lat="40.661254764353075" lon="8.328285576927312"><ele>36.0</ele><time>2026-05-02T13:46:08.001Z</time></trkpt><trkpt lat="40.66100636217617" lon="8.328337400721516"><ele>36.0</ele><time>2026-05-02T13:46:09.001Z</time></trkpt><trkpt lat="40.66074029409045" lon="8.328385896026411"><ele>36.0</ele><time>2026-05-02T13:46:10.001Z</time></trkpt><trkpt lat="40.66047008235268" lon="8.328429587538961"><ele>36.0</ele><time>2026-05-02T13:46:11.001Z</time></trkpt><trkpt lat="40.66018798871774" lon="8.328480306060548"><ele>35.5</ele><time>2026-05-02T13:46:12.001Z</time></trkpt><trkpt lat="40.65987598341486" lon="8.328520516235134"><ele>35.0</ele><time>2026-05-02T13:46:13.001Z</time></trkpt><trkpt lat="40.65954596141965" lon="8.328559264765358"><ele>34.0</ele><time>2026-05-02T13:46:14.001Z</time></trkpt><trkpt lat="40.65921294168438" lon="8.328613920583452"><ele>33.0</ele><time>2026-05-02T13:46:15.001Z</time></trkpt><trkpt lat="40.65889136762821" lon="8.328682492479073"><ele>33.5</ele><time>2026-05-02T13:46:16.001Z</time></trkpt><trkpt lat="40.658565287033575" lon="8.328740091772676"><ele>34.0</ele><time>2026-05-02T13:46:17.001Z</time></trkpt><trkpt lat="40.65824100776551" lon="8.328778037034365"><ele>34.0</ele><time>2026-05-02T13:46:18.001Z</time></trkpt><trkpt lat="40.65792960620082" lon="8.328800789135757"><ele>34.0</ele><time>2026-05-02T13:46:19.001Z</time></trkpt><trkpt lat="40.65762704851003" lon="8.328840512432846"><ele>33.5</ele><time>2026-05-02T13:46:20.001Z</time></trkpt><trkpt lat="40.65732521297949" lon="8.328895694845508"><ele>33.0</ele><time>2026-05-02T13:46:21.001Z</time></trkpt><trkpt lat="40.657031931952275" lon="8.328943405837565"><ele>32.5</ele><time>2026-05-02T13:46:22.001Z</time></trkpt><trkpt lat="40.656742067669775" lon="8.328986861834371"><ele>32.0</ele><time>2026-05-02T13:46:23.001Z</time></trkpt><trkpt lat="40.6564469010809" lon="8.329026708366854"><ele>32.0</ele><time>2026-05-02T13:46:24.001Z</time></trkpt><trkpt lat="40.65616171817519" lon="8.329056058475782"><ele>32.0</ele><time>2026-05-02T13:46:25.001Z</time></trkpt><trkpt lat="40.65586715280773" lon="8.329062680666166"><ele>32.0</ele><time>2026-05-02T13:46:26.001Z</time></trkpt><trkpt lat="40.655577762571134" lon="8.32903606535838"><ele>32.0</ele><time>2026-05-02T13:46:27.001Z</time></trkpt><trkpt lat="40.65528643834956" lon="8.32897038966701"><ele>31.5</ele><time>2026-05-02T13:46:28.001Z</time></trkpt><trkpt lat="40.65500134005869" lon="8.328883025827443"><ele>31.0</ele><time>2026-05-02T13:46:29.001Z</time></trkpt><trkpt lat="40.654716532561686" lon="8.328780920383473"><ele>31.0</ele><time>2026-05-02T13:46:30.001Z</time></trkpt><trkpt lat="40.65443528286529" lon="8.328661628632785"><ele>31.0</ele><time>2026-05-02T13:46:31.001Z</time></trkpt><trkpt lat="40.65415094257335" lon="8.328526795313245"><ele>31.0</ele><time>2026-05-02T13:46:32.001Z</time></trkpt><trkpt lat="40.65386096198102" lon="8.3283951935969"><ele>31.0</ele><time>2026-05-02T13:46:33.001Z</time></trkpt><trkpt lat="40.65356608304038" lon="8.328275501951452"><ele>31.0</ele><time>2026-05-02T13:46:34.001Z</time></trkpt><trkpt lat="40.65326938702428" lon="8.328157602684863"><ele>31.0</ele><time>2026-05-02T13:46:35.001Z</time></trkpt><trkpt lat="40.65297217683792" lon="8.328034907115201"><ele>31.5</ele><time>2026-05-02T13:46:36.001Z</time></trkpt><trkpt lat="40.6526742132522" lon="8.327907492344382"><ele>32.0</ele><time>2026-05-02T13:46:37.001Z</time></trkpt><trkpt lat="40.652374752679" lon="8.327781083050455"><ele>32.0</ele><time>2026-05-02T13:46:38.001Z</time></trkpt><trkpt lat="40.65207274871604" lon="8.327657083309862"><ele>32.0</ele><time>2026-05-02T13:46:39.001Z</time></trkpt><trkpt lat="40.6517653302383" lon="8.327535416551042"><ele>31.0</ele><time>2026-05-02T13:46:40.001Z</time></trkpt><trkpt lat="40.65146046026464" lon="8.327404080081696"><ele>30.0</ele><time>2026-05-02T13:46:41.001Z</time></trkpt><trkpt lat="40.651158554447754" lon="8.327272609843435"><ele>29.5</ele><time>2026-05-02T13:46:42.001Z</time></trkpt><trkpt lat="40.65084915688945" lon="8.327138648704347"><ele>29.0</ele><time>2026-05-02T13:46:43.001Z</time></trkpt><trkpt lat="40.65053839598917" lon="8.327009905721551"><ele>28.5</ele><time>2026-05-02T13:46:44.001Z</time></trkpt><trkpt lat="40.650227453143216" lon="8.32687903100827"><ele>28.0</ele><time>2026-05-02T13:46:45.001Z</time></trkpt><trkpt lat="40.649912470018485" lon="8.326748679288881"><ele>28.0</ele><time>2026-05-02T13:46:46.001Z</time></trkpt><trkpt lat="40.64960502743015" lon="8.326610620233573"><ele>28.0</ele><time>2026-05-02T13:46:47.001Z</time></trkpt><trkpt lat="40.6492878545826" lon="8.32648398142714"><ele>27.5</ele><time>2026-05-02T13:46:48.001Z</time></trkpt><trkpt lat="40.648973217153454" lon="8.326354207580843"><ele>27.0</ele><time>2026-05-02T13:46:49.001Z</time></trkpt><trkpt lat="40.648658081072526" lon="8.32622535537305"><ele>26.5</ele><time>2026-05-02T13:46:50.001Z</time></trkpt><trkpt lat="40.64834328506055" lon="8.32609472671938"><ele>26.0</ele><time>2026-05-02T13:46:51.001Z</time></trkpt><trkpt lat="40.64802955972848" lon="8.325961797606029"><ele>26.0</ele><time>2026-05-02T13:46:52.001Z</time></trkpt><trkpt lat="40.64772205697067" lon="8.3258371314969"><ele>26.0</ele><time>2026-05-02T13:46:53.001Z</time></trkpt><trkpt lat="40.647414741373424" lon="8.325712034934707"><ele>26.0</ele><time>2026-05-02T13:46:54.001Z</time></trkpt><trkpt lat="40.64711649199711" lon="8.325583699964625"><ele>26.0</ele><time>2026-05-02T13:46:55Z</time></trkpt><trkpt lat="40.64682292131584" lon="8.32545987924015"><ele>26.0</ele><time>2026-05-02T13:46:56Z</time></trkpt><trkpt lat="40.64653076420431" lon="8.325334534393143"><ele>26.0</ele><time>2026-05-02T13:46:57Z</time></trkpt><trkpt lat="40.64624182156651" lon="8.325211173701017"><ele>26.0</ele><time>2026-05-02T13:46:58Z</time></trkpt><trkpt lat="40.64594566616331" lon="8.325090182726575"><ele>26.0</ele><time>2026-05-02T13:46:59Z</time></trkpt><trkpt lat="40.64565321565064" lon="8.324972370413834"><ele>26.0</ele><time>2026-05-02T13:47:00Z</time></trkpt><trkpt lat="40.64536572764401" lon="8.324850229920166"><ele>26.0</ele><time>2026-05-02T13:47:01Z</time></trkpt><trkpt lat="40.64507824451383" lon="8.32472926636617"><ele>26.0</ele><time>2026-05-02T13:47:02Z</time></trkpt><trkpt lat="40.644791796693546" lon="8.324609249842364"><ele>26.0</ele><time>2026-05-02T13:47:03Z</time></trkpt><trkpt lat="40.64451437187694" lon="8.324493627145007"><ele>27.0</ele><time>2026-05-02T13:47:04Z</time></trkpt><trkpt lat="40.644247144007984" lon="8.324381908431938"><ele>28.0</ele><time>2026-05-02T13:47:05Z</time></trkpt><trkpt lat="40.64399021495464" lon="8.324271704838363"><ele>28.0</ele><time>2026-05-02T13:47:06Z</time></trkpt><trkpt lat="40.64374214312882" lon="8.324164489903573"><ele>28.0</ele><time>2026-05-02T13:47:07Z</time></trkpt><trkpt lat="40.64348833359284" lon="8.324068756760607"><ele>28.0</ele><time>2026-05-02T13:47:08Z</time></trkpt><trkpt lat="40.64323181247199" lon="8.323987220305611"><ele>28.0</ele><time>2026-05-02T13:47:09Z</time></trkpt><trkpt lat="40.64296904896397" lon="8.323921629609716"><ele>26.5</ele><time>2026-05-02T13:47:10Z</time></trkpt><trkpt lat="40.642700174715465" lon="8.32388075705572"><ele>25.0</ele><time>2026-05-02T13:47:11Z</time></trkpt><trkpt lat="40.642432737901686" lon="8.323866501467327"><ele>25.0</ele><time>2026-05-02T13:47:12Z</time></trkpt><trkpt lat="40.642164131691985" lon="8.323871187955369"><ele>25.0</ele><time>2026-05-02T13:47:13Z</time></trkpt><trkpt lat="40.641909558247505" lon="8.323897642384862"><ele>25.5</ele><time>2026-05-02T13:47:14Z</time></trkpt><trkpt lat="40.64166167539952" lon="8.323939627960595"><ele>26.0</ele><time>2026-05-02T13:47:15Z</time></trkpt><trkpt lat="40.64141370769551" lon="8.323975228515739"><ele>26.0</ele><time>2026-05-02T13:47:16Z</time></trkpt><trkpt lat="40.641158968685836" lon="8.32399960140454"><ele>26.0</ele><time>2026-05-02T13:47:17Z</time></trkpt><trkpt lat="40.640911163628125" lon="8.324025010130109"><ele>25.5</ele><time>2026-05-02T13:47:18Z</time></trkpt><trkpt lat="40.640661178986235" lon="8.324051904616082"><ele>25.0</ele><time>2026-05-02T13:47:19Z</time></trkpt><trkpt lat="40.640411338680984" lon="8.324072913441118"><ele>25.0</ele><time>2026-05-02T13:47:20Z</time></trkpt><trkpt lat="40.64015441796339" lon="8.324100870425399"><ele>25.0</ele><time>2026-05-02T13:47:21Z</time></trkpt><trkpt lat="40.639898895674044" lon="8.324128200443521"><ele>25.0</ele><time>2026-05-02T13:47:22Z</time></trkpt><trkpt lat="40.63964006752317" lon="8.324154050156109"><ele>25.0</ele><time>2026-05-02T13:47:23Z</time></trkpt><trkpt lat="40.6393774821851" lon="8.32418093071615"><ele>24.0</ele><time>2026-05-02T13:47:24Z</time></trkpt><trkpt lat="40.639119454565375" lon="8.324209393105093"><ele>23.0</ele><time>2026-05-02T13:47:25Z</time></trkpt><trkpt lat="40.63885802658527" lon="8.324240790135677"><ele>23.0</ele><time>2026-05-02T13:47:26Z</time></trkpt><trkpt lat="40.63858875575602" lon="8.324276890090285"><ele>23.0</ele><time>2026-05-02T13:47:27Z</time></trkpt><trkpt lat="40.63831904513206" lon="8.324312528863853"><ele>23.0</ele><time>2026-05-02T13:47:28Z</time></trkpt><trkpt lat="40.63804589284907" lon="8.324350148741187"><ele>23.0</ele><time>2026-05-02T13:47:29Z</time></trkpt><trkpt lat="40.6377752678688" lon="8.32438361404206"><ele>24.5</ele><time>2026-05-02T13:47:30Z</time></trkpt><trkpt lat="40.637506311104104" lon="8.324411411472166"><ele>26.0</ele><time>2026-05-02T13:47:31Z</time></trkpt><trkpt lat="40.63724448449595" lon="8.324439232406451"><ele>26.0</ele><time>2026-05-02T13:47:32Z</time></trkpt><trkpt lat="40.63697934545877" lon="8.324466887744753"><ele>26.0</ele><time>2026-05-02T13:47:33Z</time></trkpt><trkpt lat="40.63673615371585" lon="8.324488532759126"><ele>28.0</ele><time>2026-05-02T13:47:34Z</time></trkpt><trkpt lat="40.636502087138034" lon="8.32451030624715"><ele>30.0</ele><time>2026-05-02T13:47:35Z</time></trkpt><trkpt lat="40.636265012742136" lon="8.324537986117083"><ele>27.5</ele><time>2026-05-02T13:47:36Z</time></trkpt><trkpt lat="40.63602473484448" lon="8.324588470057426"><ele>25.0</ele><time>2026-05-02T13:47:37Z</time></trkpt><trkpt lat="40.63578759098078" lon="8.324668928414116"><ele>24.5</ele><time>2026-05-02T13:47:38Z</time></trkpt><trkpt lat="40.63554830717406" lon="8.324780408934682"><ele>24.0</ele><time>2026-05-02T13:47:39Z</time></trkpt><trkpt lat="40.63531889119634" lon="8.324929550469852"><ele>22.5</ele><time>2026-05-02T13:47:40Z</time></trkpt><trkpt lat="40.63510311645609" lon="8.32509528106958"><ele>21.0</ele><time>2026-05-02T13:47:41Z</time></trkpt><trkpt lat="40.63489342535973" lon="8.325287456050809"><ele>21.0</ele><time>2026-05-02T13:47:42Z</time></trkpt><trkpt lat="40.634692917678755" lon="8.325504348660354"><ele>21.0</ele><time>2026-05-02T13:47:43Z</time></trkpt><trkpt lat="40.63447468756882" lon="8.32575201867151"><ele>21.0</ele><time>2026-05-02T13:47:44Z</time></trkpt><trkpt lat="40.63423523608441" lon="8.32598394379915"><ele>21.0</ele><time>2026-05-02T13:47:45Z</time></trkpt><trkpt lat="40.63399458745082" lon="8.32619995056801"><ele>21.0</ele><time>2026-05-02T13:47:46Z</time></trkpt><trkpt lat="40.63377527446997" lon="8.326417902636754"><ele>21.0</ele><time>2026-05-02T13:47:47Z</time></trkpt><trkpt lat="40.63355399604034" lon="8.32664495389847"><ele>21.5</ele><time>2026-05-02T13:47:48Z</time></trkpt><trkpt lat="40.633333984252715" lon="8.32687019666104"><ele>22.0</ele><time>2026-05-02T13:47:49Z</time></trkpt><trkpt lat="40.63311451237031" lon="8.327093320849624"><ele>21.5</ele><time>2026-05-02T13:47:50Z</time></trkpt><trkpt lat="40.63289192554971" lon="8.327310532014407"><ele>21.0</ele><time>2026-05-02T13:47:51Z</time></trkpt><trkpt lat="40.632664076866185" lon="8.327515711757814"><ele>21.0</ele><time>2026-05-02T13:47:52Z</time></trkpt><trkpt lat="40.63243483530424" lon="8.327708150319971"><ele>21.0</ele><time>2026-05-02T13:47:53Z</time></trkpt><trkpt lat="40.63221206595889" lon="8.327882570673557"><ele>21.0</ele><time>2026-05-02T13:47:54Z</time></trkpt><trkpt lat="40.631990336203806" lon="8.32804990217278"><ele>21.0</ele><time>2026-05-02T13:47:55Z</time></trkpt><trkpt lat="40.631739557446636" lon="8.328222713062187"><ele>19.0</ele><time>2026-05-02T13:47:56Z</time></trkpt><trkpt lat="40.631468559803224" lon="8.32838421093377"><ele>17.0</ele><time>2026-05-02T13:47:57Z</time></trkpt><trkpt lat="40.63119088192005" lon="8.328560927739282"><ele>17.0</ele><time>2026-05-02T13:47:58Z</time></trkpt><trkpt lat="40.63092393965546" lon="8.32875448690297"><ele>17.0</ele><time>2026-05-02T13:47:59Z</time></trkpt><trkpt lat="40.630661132449454" lon="8.328947881232875"><ele>18.0</ele><time>2026-05-02T13:48:00Z</time></trkpt><trkpt lat="40.63040287590013" lon="8.329132016675613"><ele>19.0</ele><time>2026-05-02T13:48:01Z</time></trkpt><trkpt lat="40.630145928812475" lon="8.329313529554815"><ele>19.5</ele><time>2026-05-02T13:48:02Z</time></trkpt><trkpt lat="40.629889473704615" lon="8.329497738662562"><ele>20.0</ele><time>2026-05-02T13:48:03Z</time></trkpt><trkpt lat="40.62962861971136" lon="8.329678945753045"><ele>20.0</ele><time>2026-05-02T13:48:04Z</time></trkpt><trkpt lat="40.62936440000371" lon="8.329867719375802"><ele>20.0</ele><time>2026-05-02T13:48:05Z</time></trkpt><trkpt lat="40.62911159002946" lon="8.330045210466027"><ele>20.0</ele><time>2026-05-02T13:48:06Z</time></trkpt><trkpt lat="40.62885326368783" lon="8.330228826673611"><ele>20.0</ele><time>2026-05-02T13:48:07Z</time></trkpt><trkpt lat="40.62859756867011" lon="8.330408355147327"><ele>19.5</ele><time>2026-05-02T13:48:08Z</time></trkpt><trkpt lat="40.62833783486029" lon="8.330591410569326"><ele>19.0</ele><time>2026-05-02T13:48:09Z</time></trkpt><trkpt lat="40.62807267317639" lon="8.330783098073052"><ele>19.0</ele><time>2026-05-02T13:48:10Z</time></trkpt><trkpt lat="40.62781474925018" lon="8.330962487501044"><ele>19.0</ele><time>2026-05-02T13:48:11Z</time></trkpt><trkpt lat="40.627545604955166" lon="8.33115602344362"><ele>19.0</ele><time>2026-05-02T13:48:12Z</time></trkpt><trkpt lat="40.62728216536645" lon="8.331347135438177"><ele>19.0</ele><time>2026-05-02T13:48:13Z</time></trkpt><trkpt lat="40.62702071572439" lon="8.331536544725841"><ele>19.0</ele><time>2026-05-02T13:48:14Z</time></trkpt><trkpt lat="40.626758957225434" lon="8.33172350034369"><ele>19.0</ele><time>2026-05-02T13:48:15Z</time></trkpt><trkpt lat="40.62649766408538" lon="8.331903719647526"><ele>19.0</ele><time>2026-05-02T13:48:16Z</time></trkpt><trkpt lat="40.62623283662044" lon="8.332054697345676"><ele>19.0</ele><time>2026-05-02T13:48:17Z</time></trkpt><trkpt lat="40.625957665988544" lon="8.332164566920811"><ele>20.0</ele><time>2026-05-02T13:48:18Z</time></trkpt><trkpt lat="40.62567653105336" lon="8.33221620754067"><ele>21.0</ele><time>2026-05-02T13:48:19Z</time></trkpt><trkpt lat="40.62539126049302" lon="8.332209229392364"><ele>21.0</ele><time>2026-05-02T13:48:20Z</time></trkpt><trkpt lat="40.62509250286158" lon="8.33215992828896"><ele>21.0</ele><time>2026-05-02T13:48:21Z</time></trkpt><trkpt lat="40.624779186722954" lon="8.332077921216525"><ele>21.0</ele><time>2026-05-02T13:48:22Z</time></trkpt><trkpt lat="40.6244538295488" lon="8.33196958035415"><ele>21.0</ele><time>2026-05-02T13:48:23Z</time></trkpt><trkpt lat="40.62412955697719" lon="8.331885188688116"><ele>21.0</ele><time>2026-05-02T13:48:24Z</time></trkpt><trkpt lat="40.623812087982465" lon="8.331813004597862"><ele>21.0</ele><time>2026-05-02T13:48:25Z</time></trkpt><trkpt lat="40.62350403127735" lon="8.331750856250412"><ele>21.0</ele><time>2026-05-02T13:48:26Z</time></trkpt><trkpt lat="40.62319563286509" lon="8.331683816636126"><ele>21.0</ele><time>2026-05-02T13:48:27Z</time></trkpt><trkpt lat="40.622887859191614" lon="8.331619724759221"><ele>22.0</ele><time>2026-05-02T13:48:28Z</time></trkpt><trkpt lat="40.622589559725164" lon="8.331547377139142"><ele>23.0</ele><time>2026-05-02T13:48:29Z</time></trkpt><trkpt lat="40.62228824498623" lon="8.331479499091145"><ele>23.0</ele><time>2026-05-02T13:48:30Z</time></trkpt><trkpt lat="40.62198964006882" lon="8.331405159303431"><ele>23.0</ele><time>2026-05-02T13:48:31Z</time></trkpt><trkpt lat="40.62168933986896" lon="8.331332289703791"><ele>22.5</ele><time>2026-05-02T13:48:32Z</time></trkpt><trkpt lat="40.62138799058415" lon="8.331252009071358"><ele>22.0</ele><time>2026-05-02T13:48:33Z</time></trkpt><trkpt lat="40.62109289795985" lon="8.331167782156287"><ele>21.5</ele><time>2026-05-02T13:48:34Z</time></trkpt><trkpt lat="40.62078945377193" lon="8.331080175369415"><ele>21.0</ele><time>2026-05-02T13:48:35Z</time></trkpt><trkpt lat="40.620484823309766" lon="8.33099162807611"><ele>20.5</ele><time>2026-05-02T13:48:36Z</time></trkpt><trkpt lat="40.62017653232304" lon="8.33090792658514"><ele>20.0</ele><time>2026-05-02T13:48:37Z</time></trkpt><trkpt lat="40.61986736483473" lon="8.33082342540878"><ele>20.0</ele><time>2026-05-02T13:48:38Z</time></trkpt><trkpt lat="40.61955496009513" lon="8.330731827439935"><ele>20.0</ele><time>2026-05-02T13:48:39Z</time></trkpt><trkpt lat="40.619244152697135" lon="8.330637197947985"><ele>19.0</ele><time>2026-05-02T13:48:40Z</time></trkpt><trkpt lat="40.61892599361007" lon="8.330552548583329"><ele>18.0</ele><time>2026-05-02T13:48:41Z</time></trkpt><trkpt lat="40.61861087676023" lon="8.330462170293792"><ele>17.0</ele><time>2026-05-02T13:48:42Z</time></trkpt><trkpt lat="40.61829509725343" lon="8.330370544245321"><ele>16.0</ele><time>2026-05-02T13:48:43Z</time></trkpt><trkpt lat="40.617975794659394" lon="8.330283250586769"><ele>13.0</ele><time>2026-05-02T13:48:44Z</time></trkpt><trkpt lat="40.61765932525457" lon="8.330190761179264"><ele>10.0</ele><time>2026-05-02T13:48:45Z</time></trkpt><trkpt lat="40.6173446433173" lon="8.330105262332799"><ele>10.0</ele><time>2026-05-02T13:48:46Z</time></trkpt><trkpt lat="40.61704176393339" lon="8.330027332053561"><ele>10.0</ele><time>2026-05-02T13:48:47Z</time></trkpt><trkpt lat="40.616754452791774" lon="8.329957667508612"><ele>8.0</ele><time>2026-05-02T13:48:48Z</time></trkpt><trkpt lat="40.61648894436256" lon="8.329886208001712"><ele>6.0</ele><time>2026-05-02T13:48:49Z</time></trkpt><trkpt lat="40.61624452886038" lon="8.329800221100259"><ele>8.0</ele><time>2026-05-02T13:48:50Z</time></trkpt><trkpt lat="40.61600724446949" lon="8.329724047032004"><ele>10.0</ele><time>2026-05-02T13:48:51Z</time></trkpt><trkpt lat="40.615772903485976" lon="8.329657929159133"><ele>10.0</ele><time>2026-05-02T13:48:52Z</time></trkpt><trkpt lat="40.61556522487526" lon="8.329601686897927"><ele>10.0</ele><time>2026-05-02T13:48:53Z</time></trkpt><trkpt lat="40.61538327479357" lon="8.329547204189446"><ele>10.0</ele><time>2026-05-02T13:48:54Z</time></trkpt><trkpt lat="40.615222149822934" lon="8.329500984929973"><ele>10.0</ele><time>2026-05-02T13:48:55Z</time></trkpt><trkpt lat="40.61506530584959" lon="8.329461701387432"><ele>10.0</ele><time>2026-05-02T13:48:56Z</time></trkpt><trkpt lat="40.61487924745565" lon="8.329412750720824"><ele>10.0</ele><time>2026-05-02T13:48:57Z</time></trkpt><trkpt lat="40.61467701351324" lon="8.329357803382429"><ele>9.666666666666668</ele><time>2026-05-02T13:48:58Z</time></trkpt><trkpt lat="40.61447730526233" lon="8.329300239726976"><ele>9.333333333333334</ele><time>2026-05-02T13:48:59Z</time></trkpt><trkpt lat="40.614272635616445" lon="8.329234452008475"><ele>9.0</ele><time>2026-05-02T13:49:00Z</time></trkpt><trkpt lat="40.61406246216726" lon="8.329177920648242"><ele>9.0</ele><time>2026-05-02T13:49:01Z</time></trkpt><trkpt lat="40.61384563320362" lon="8.32911443497928"><ele>9.0</ele><time>2026-05-02T13:49:02Z</time></trkpt><trkpt lat="40.613629964833784" lon="8.329058156487658"><ele>9.0</ele><time>2026-05-02T13:49:03Z</time></trkpt><trkpt lat="40.61343656491518" lon="8.329017200072277"><ele>10.333333333333332</ele><time>2026-05-02T13:49:04Z</time></trkpt><trkpt lat="40.6132512676443" lon="8.328969403087163"><ele>11.666666666666666</ele><time>2026-05-02T13:49:05Z</time></trkpt><trkpt lat="40.61307810183482" lon="8.32891098236751"><ele>13.0</ele><time>2026-05-02T13:49:06Z</time></trkpt><trkpt lat="40.61289890026395" lon="8.328858814063755"><ele>14.0</ele><time>2026-05-02T13:49:07Z</time></trkpt><trkpt lat="40.612700615497" lon="8.328809211892432"><ele>15.0</ele><time>2026-05-02T13:49:08Z</time></trkpt><trkpt lat="40.61247410314161" lon="8.328747191336564"><ele>16.0</ele><time>2026-05-02T13:49:09Z</time></trkpt><trkpt lat="40.61223849300398" lon="8.328682011528587"><ele>16.0</ele><time>2026-05-02T13:49:10Z</time></trkpt><trkpt lat="40.61200630711336" lon="8.328604398910025"><ele>16.0</ele><time>2026-05-02T13:49:11Z</time></trkpt><trkpt lat="40.61177986361325" lon="8.328534754352438"><ele>15.0</ele><time>2026-05-02T13:49:12Z</time></trkpt><trkpt lat="40.61154162971379" lon="8.328474613488472"><ele>14.0</ele><time>2026-05-02T13:49:13Z</time></trkpt><trkpt lat="40.611303715648816" lon="8.328408800168564"><ele>12.0</ele><time>2026-05-02T13:49:14Z</time></trkpt><trkpt lat="40.61106725310202" lon="8.328322547302976"><ele>10.0</ele><time>2026-05-02T13:49:15Z</time></trkpt><trkpt lat="40.61083768898042" lon="8.328239612454743"><ele>10.0</ele><time>2026-05-02T13:49:16Z</time></trkpt><trkpt lat="40.61058689429252" lon="8.32814812428069"><ele>10.0</ele><time>2026-05-02T13:49:17Z</time></trkpt><trkpt lat="40.61033890410244" lon="8.328053213020961"><ele>6.0</ele><time>2026-05-02T13:49:18Z</time></trkpt><trkpt lat="40.61009457457208" lon="8.327946441618165"><ele>2.0</ele><time>2026-05-02T13:49:19Z</time></trkpt><trkpt lat="40.60985231091383" lon="8.327839503003672"><ele>2.0</ele><time>2026-05-02T13:49:20Z</time></trkpt><trkpt lat="40.609602127141784" lon="8.32773718010641"><ele>2.0</ele><time>2026-05-02T13:49:21Z</time></trkpt><trkpt lat="40.609348153353835" lon="8.327636597110578"><ele>2.5</ele><time>2026-05-02T13:49:22Z</time></trkpt><trkpt lat="40.609087864829725" lon="8.327533471346662"><ele>3.0</ele><time>2026-05-02T13:49:23Z</time></trkpt><trkpt lat="40.60881150944034" lon="8.327431667175897"><ele>6.0</ele><time>2026-05-02T13:49:24Z</time></trkpt><trkpt lat="40.608516642955145" lon="8.327320261828751"><ele>9.0</ele><time>2026-05-02T13:49:25Z</time></trkpt><trkpt lat="40.608216904613045" lon="8.327208312613823"><ele>10.0</ele><time>2026-05-02T13:49:26Z</time></trkpt><trkpt lat="40.6079358296269" lon="8.327091277934692"><ele>11.0</ele><time>2026-05-02T13:49:27Z</time></trkpt><trkpt lat="40.607672646671304" lon="8.326982048566427"><ele>12.0</ele><time>2026-05-02T13:49:28Z</time></trkpt><trkpt lat="40.607429301119055" lon="8.326881924994812"><ele>13.0</ele><time>2026-05-02T13:49:29Z</time></trkpt><trkpt lat="40.60720052776346" lon="8.326780898867066"><ele>13.0</ele><time>2026-05-02T13:49:30Z</time></trkpt><trkpt lat="40.606931381237764" lon="8.326682464240482"><ele>13.0</ele><time>2026-05-02T13:49:31Z</time></trkpt><trkpt lat="40.60664335322879" lon="8.326569005011047"><ele>13.0</ele><time>2026-05-02T13:49:32Z</time></trkpt><trkpt lat="40.606348053353024" lon="8.326434570721272"><ele>13.0</ele><time>2026-05-02T13:49:33Z</time></trkpt><trkpt lat="40.60604443162191" lon="8.326308108121244"><ele>15.5</ele><time>2026-05-02T13:49:34Z</time></trkpt><trkpt lat="40.60574156565135" lon="8.32618594226005"><ele>18.0</ele><time>2026-05-02T13:49:35Z</time></trkpt><trkpt lat="40.60544674663074" lon="8.326073683377558"><ele>17.5</ele><time>2026-05-02T13:49:36Z</time></trkpt><trkpt lat="40.6051553187461" lon="8.325955621079281"><ele>17.0</ele><time>2026-05-02T13:49:37Z</time></trkpt><trkpt lat="40.60486552064311" lon="8.325840366802518"><ele>17.0</ele><time>2026-05-02T13:49:38Z</time></trkpt><trkpt lat="40.604582321673654" lon="8.325726234835821"><ele>17.0</ele><time>2026-05-02T13:49:39Z</time></trkpt><trkpt lat="40.60430129079738" lon="8.325611834539473"><ele>17.5</ele><time>2026-05-02T13:49:40Z</time></trkpt><trkpt lat="40.60402062176382" lon="8.32550330480775"><ele>18.0</ele><time>2026-05-02T13:49:41Z</time></trkpt><trkpt lat="40.60374224757304" lon="8.32539304388823"><ele>18.0</ele><time>2026-05-02T13:49:42Z</time></trkpt><trkpt lat="40.603460671207934" lon="8.325279221326424"><ele>18.0</ele><time>2026-05-02T13:49:43Z</time></trkpt><trkpt lat="40.60318605431847" lon="8.325168247965268"><ele>18.0</ele><time>2026-05-02T13:49:44Z</time></trkpt><trkpt lat="40.60290712591112" lon="8.32504864384805"><ele>18.0</ele><time>2026-05-02T13:49:45Z</time></trkpt><trkpt lat="40.60262432470387" lon="8.324940726167327"><ele>18.0</ele><time>2026-05-02T13:49:46Z</time></trkpt><trkpt lat="40.602336160455586" lon="8.324827484895149"><ele>18.0</ele><time>2026-05-02T13:49:47Z</time></trkpt><trkpt lat="40.602050104242004" lon="8.324708914345406"><ele>17.5</ele><time>2026-05-02T13:49:48Z</time></trkpt><trkpt lat="40.60175996108263" lon="8.324589556400367"><ele>17.0</ele><time>2026-05-02T13:49:49Z</time></trkpt><trkpt lat="40.60147724498767" lon="8.32446585956183"><ele>17.0</ele><time>2026-05-02T13:49:50Z</time></trkpt><trkpt lat="40.60118529489213" lon="8.32434396749174"><ele>17.0</ele><time>2026-05-02T13:49:51Z</time></trkpt><trkpt lat="40.600889523298164" lon="8.324235804536952"><ele>17.5</ele><time>2026-05-02T13:49:52Z</time></trkpt><trkpt lat="40.600598812397635" lon="8.324113870889773"><ele>18.0</ele><time>2026-05-02T13:49:53Z</time></trkpt><trkpt lat="40.60030364273851" lon="8.323994398613303"><ele>19.5</ele><time>2026-05-02T13:49:54Z</time></trkpt><trkpt lat="40.60000479138293" lon="8.323874056072395"><ele>21.0</ele><time>2026-05-02T13:49:55Z</time></trkpt><trkpt lat="40.599709474052084" lon="8.323751538709002"><ele>21.0</ele><time>2026-05-02T13:49:56Z</time></trkpt><trkpt lat="40.59941173790923" lon="8.323635431945362"><ele>21.0</ele><time>2026-05-02T13:49:57.001Z</time></trkpt><trkpt lat="40.599111099655325" lon="8.323523662249132"><ele>21.0</ele><time>2026-05-02T13:49:58.001Z</time></trkpt><trkpt lat="40.59881072263594" lon="8.323420402230708"><ele>21.0</ele><time>2026-05-02T13:49:59.001Z</time></trkpt><trkpt lat="40.59850273146054" lon="8.323330470628553"><ele>21.0</ele><time>2026-05-02T13:50:00.001Z</time></trkpt><trkpt lat="40.598195926269625" lon="8.323244043799267"><ele>21.0</ele><time>2026-05-02T13:50:01.001Z</time></trkpt><trkpt lat="40.59789334223161" lon="8.323152557566756"><ele>20.0</ele><time>2026-05-02T13:50:02.001Z</time></trkpt><trkpt lat="40.59759279748452" lon="8.32305805395425"><ele>19.0</ele><time>2026-05-02T13:50:03.001Z</time></trkpt><trkpt lat="40.59729496614026" lon="8.322965503781118"><ele>18.5</ele><time>2026-05-02T13:50:04.001Z</time></trkpt><trkpt lat="40.597000689495154" lon="8.32286512976868"><ele>18.0</ele><time>2026-05-02T13:50:05.001Z</time></trkpt><trkpt lat="40.59670213984091" lon="8.322777761538891"><ele>18.0</ele><time>2026-05-02T13:50:06.001Z</time></trkpt><trkpt lat="40.59640052511015" lon="8.322695943461087"><ele>18.0</ele><time>2026-05-02T13:50:07.001Z</time></trkpt><trkpt lat="40.596102805276125" lon="8.322600495361979"><ele>18.0</ele><time>2026-05-02T13:50:08.001Z</time></trkpt><trkpt lat="40.59580488153367" lon="8.322512527073927"><ele>18.0</ele><time>2026-05-02T13:50:09.001Z</time></trkpt><trkpt lat="40.59551604915339" lon="8.322423365147976"><ele>20.5</ele><time>2026-05-02T13:50:10.001Z</time></trkpt><trkpt lat="40.59523113057119" lon="8.322336163441562"><ele>23.0</ele><time>2026-05-02T13:50:11.001Z</time></trkpt><trkpt lat="40.594947014320454" lon="8.322247946650103"><ele>22.5</ele><time>2026-05-02T13:50:12.001Z</time></trkpt><trkpt lat="40.59465809096917" lon="8.322156423207725"><ele>22.0</ele><time>2026-05-02T13:50:13.001Z</time></trkpt><trkpt lat="40.59436964970456" lon="8.322068426352912"><ele>22.0</ele><time>2026-05-02T13:50:14.001Z</time></trkpt><trkpt lat="40.594083956475465" lon="8.321980938882811"><ele>22.0</ele><time>2026-05-02T13:50:15.001Z</time></trkpt><trkpt lat="40.59379387364335" lon="8.321889618857615"><ele>21.0</ele><time>2026-05-02T13:50:16.001Z</time></trkpt><trkpt lat="40.59350793277122" lon="8.321781657042191"><ele>20.0</ele><time>2026-05-02T13:50:17.001Z</time></trkpt><trkpt lat="40.59322637118181" lon="8.321651089781321"><ele>20.0</ele><time>2026-05-02T13:50:18.001Z</time></trkpt><trkpt lat="40.59294851540933" lon="8.321495187334282"><ele>20.0</ele><time>2026-05-02T13:50:19.001Z</time></trkpt><trkpt lat="40.592676425015775" lon="8.321337859350663"><ele>18.0</ele><time>2026-05-02T13:50:20.001Z</time></trkpt><trkpt lat="40.5924199243586" lon="8.32118448127368"><ele>16.0</ele><time>2026-05-02T13:50:21.001Z</time></trkpt><trkpt lat="40.59221905774985" lon="8.321018722706892"><ele>16.0</ele><time>2026-05-02T13:50:22.001Z</time></trkpt><trkpt lat="40.59205117703839" lon="8.320856786303567"><ele>16.0</ele><time>2026-05-02T13:50:23.001Z</time></trkpt><trkpt lat="40.59191563837776" lon="8.32074226526612"><ele>16.0</ele><time>2026-05-02T13:50:24.001Z</time></trkpt><trkpt lat="40.59182306902981" lon="8.320634746067238"><ele>15.4</ele><time>2026-05-02T13:50:25.001Z</time></trkpt><trkpt lat="40.591760829544114" lon="8.32051075440826"><ele>14.8</ele><time>2026-05-02T13:50:26.001Z</time></trkpt><trkpt lat="40.591723047422946" lon="8.320385685479268"><ele>14.200000000000001</ele><time>2026-05-02T13:50:27.001Z</time></trkpt><trkpt lat="40.5917041516719" lon="8.320257377462633"><ele>13.600000000000001</ele><time>2026-05-02T13:50:28.001Z</time></trkpt><trkpt lat="40.591689166292205" lon="8.32013388455093"><ele>13.0</ele><time>2026-05-02T13:50:29.001Z</time></trkpt><trkpt lat="40.591649882348285" lon="8.320032247571806"><ele>13.0</ele><time>2026-05-02T13:50:30.001Z</time></trkpt><trkpt lat="40.59157642971879" lon="8.319964850984807"><ele>13.0</ele><time>2026-05-02T13:50:31.001Z</time></trkpt><trkpt lat="40.59148151199818" lon="8.319928179095001"><ele>13.0</ele><time>2026-05-02T13:50:32.001Z</time></trkpt><trkpt lat="40.591371969549655" lon="8.31992195230899"><ele>13.0</ele><time>2026-05-02T13:50:33.001Z</time></trkpt><trkpt lat="40.59126132465198" lon="8.319940628522444"><ele>13.0</ele><time>2026-05-02T13:50:34.001Z</time></trkpt><trkpt lat="40.591142889093575" lon="8.319958441058848"><ele>12.0</ele><time>2026-05-02T13:50:35.001Z</time></trkpt><trkpt lat="40.59102314450138" lon="8.319944480177437"><ele>11.0</ele><time>2026-05-02T13:50:36.001Z</time></trkpt><trkpt lat="40.590908852781425" lon="8.319858971112659"><ele>10.0</ele><time>2026-05-02T13:50:37.001Z</time></trkpt><trkpt lat="40.59079842139725" lon="8.319730748511711"><ele>9.0</ele><time>2026-05-02T13:50:38.001Z</time></trkpt><trkpt lat="40.59066611242907" lon="8.319592448335122"><ele>9.0</ele><time>2026-05-02T13:50:39.001Z</time></trkpt><trkpt lat="40.59052282956747" lon="8.319460404559253"><ele>9.0</ele><time>2026-05-02T13:50:40.001Z</time></trkpt><trkpt lat="40.59036868254666" lon="8.319343373282592"><ele>9.0</ele><time>2026-05-02T13:50:41.001Z</time></trkpt><trkpt lat="40.590198037777405" lon="8.319225633089967"><ele>9.0</ele><time>2026-05-02T13:50:42.001Z</time></trkpt><trkpt lat="40.59001756803054" lon="8.319105450102283"><ele>9.0</ele><time>2026-05-02T13:50:43.001Z</time></trkpt><trkpt lat="40.589833745588706" lon="8.318970054024492"><ele>9.0</ele><time>2026-05-02T13:50:44.001Z</time></trkpt><trkpt lat="40.589633343317466" lon="8.31884826180167"><ele>8.0</ele><time>2026-05-02T13:50:45.001Z</time></trkpt><trkpt lat="40.589431099268886" lon="8.318731330878661"><ele>7.0</ele><time>2026-05-02T13:50:46.001Z</time></trkpt><trkpt lat="40.589214955885915" lon="8.318618373078204"><ele>7.0</ele><time>2026-05-02T13:50:47.001Z</time></trkpt><trkpt lat="40.58898938319162" lon="8.318511875162159"><ele>7.0</ele><time>2026-05-02T13:50:48.001Z</time></trkpt><trkpt lat="40.588752257472" lon="8.318407092359527"><ele>5.5</ele><time>2026-05-02T13:50:49.001Z</time></trkpt><trkpt lat="40.58850525082915" lon="8.318314110503858"><ele>4.0</ele><time>2026-05-02T13:50:50.001Z</time></trkpt><trkpt lat="40.588249473708736" lon="8.318226763941183"><ele>4.0</ele><time>2026-05-02T13:50:51.001Z</time></trkpt><trkpt lat="40.58799195756692" lon="8.318154517719943"><ele>4.0</ele><time>2026-05-02T13:50:52.001Z</time></trkpt><trkpt lat="40.58772539869774" lon="8.318086788513632"><ele>3.0</ele><time>2026-05-02T13:50:53.001Z</time></trkpt><trkpt lat="40.58746034397312" lon="8.3180250211059"><ele>2.0</ele><time>2026-05-02T13:50:54.001Z</time></trkpt><trkpt lat="40.58720961572962" lon="8.317960304292468"><ele>2.5</ele><time>2026-05-02T13:50:55.001Z</time></trkpt><trkpt lat="40.58696643720824" lon="8.317891276593414"><ele>3.0</ele><time>2026-05-02T13:50:56.001Z</time></trkpt><trkpt lat="40.58672588965975" lon="8.3178289851938"><ele>3.0</ele><time>2026-05-02T13:50:57.001Z</time></trkpt><trkpt lat="40.58649069716633" lon="8.317787435492612"><ele>3.0</ele><time>2026-05-02T13:50:58Z</time></trkpt><trkpt lat="40.58626293371867" lon="8.317727076266282"><ele>4.0</ele><time>2026-05-02T13:50:59Z</time></trkpt><trkpt lat="40.58605198838297" lon="8.31767037142939"><ele>5.0</ele><time>2026-05-02T13:51:00Z</time></trkpt><trkpt lat="40.58584261513949" lon="8.31762436988031"><ele>6.0</ele><time>2026-05-02T13:51:01Z</time></trkpt><trkpt lat="40.58565175981593" lon="8.317572350723148"><ele>6.0</ele><time>2026-05-02T13:51:02Z</time></trkpt><trkpt lat="40.585454178596684" lon="8.317522934123467"><ele>6.0</ele><time>2026-05-02T13:51:03Z</time></trkpt><trkpt lat="40.585268585510455" lon="8.317471771483014"><ele>6.0</ele><time>2026-05-02T13:51:04Z</time></trkpt><trkpt lat="40.58510089047655" lon="8.317426948854544"><ele>7.0</ele><time>2026-05-02T13:51:05Z</time></trkpt><trkpt lat="40.584935577045165" lon="8.317391549562927"><ele>8.0</ele><time>2026-05-02T13:51:06Z</time></trkpt><trkpt lat="40.584797098614956" lon="8.317366974674945"><ele>9.0</ele><time>2026-05-02T13:51:07Z</time></trkpt><trkpt lat="40.584673400794365" lon="8.317324159551585"><ele>10.0</ele><time>2026-05-02T13:51:08Z</time></trkpt><trkpt lat="40.58456209701117" lon="8.317294109929094"><ele>10.4</ele><time>2026-05-02T13:51:09Z</time></trkpt><trkpt lat="40.58445519461349" lon="8.317264653172918"><ele>10.8</ele><time>2026-05-02T13:51:10Z</time></trkpt><trkpt lat="40.58435716034218" lon="8.317225953711544"><ele>11.2</ele><time>2026-05-02T13:51:11Z</time></trkpt><trkpt lat="40.58425731679022" lon="8.317196679191532"><ele>11.6</ele><time>2026-05-02T13:51:12Z</time></trkpt><trkpt lat="40.58415976295851" lon="8.31715394125168"><ele>12.0</ele><time>2026-05-02T13:51:13Z</time></trkpt><trkpt lat="40.58408579299159" lon="8.317095787755072"><ele>12.333333333333334</ele><time>2026-05-02T13:51:14Z</time></trkpt><trkpt lat="40.58404761492061" lon="8.31701036158017"><ele>12.666666666666668</ele><time>2026-05-02T13:51:15Z</time></trkpt><trkpt lat="40.58401978397829" lon="8.316883465275794"><ele>13.0</ele><time>2026-05-02T13:51:16Z</time></trkpt><trkpt lat="40.58399474189108" lon="8.316764540758381"><ele>13.333333333333334</ele><time>2026-05-02T13:51:17Z</time></trkpt><trkpt lat="40.583940094158486" lon="8.316696805047332"><ele>13.666666666666668</ele><time>2026-05-02T13:51:18Z</time></trkpt><trkpt lat="40.583867920142914" lon="8.316673326367601"><ele>14.0</ele><time>2026-05-02T13:51:19Z</time></trkpt><trkpt lat="40.583794342818955" lon="8.31669798709401"><ele>14.000000000000002</ele><time>2026-05-02T13:51:20Z</time></trkpt><trkpt lat="40.58372963085002" lon="8.316747457716248"><ele>14.0</ele><time>2026-05-02T13:51:21Z</time></trkpt><trkpt lat="40.58367896468022" lon="8.316817559647449"><ele>14.0</ele><time>2026-05-02T13:51:22Z</time></trkpt><trkpt lat="40.58363824970327" lon="8.316902420102771"><ele>14.0</ele><time>2026-05-02T13:51:23Z</time></trkpt><trkpt lat="40.58360949724214" lon="8.31700377301464"><ele>14.000000000000002</ele><time>2026-05-02T13:51:24Z</time></trkpt><trkpt lat="40.583602333810624" lon="8.317119092583095"><ele>14.0</ele><time>2026-05-02T13:51:25Z</time></trkpt><trkpt lat="40.583579247083975" lon="8.317251203639703"><ele>13.799999999999999</ele><time>2026-05-02T13:51:26Z</time></trkpt><trkpt lat="40.58351410144879" lon="8.317358879185841"><ele>13.599999999999998</ele><time>2026-05-02T13:51:27Z</time></trkpt><trkpt lat="40.583428268411325" lon="8.317439146712893"><ele>13.4</ele><time>2026-05-02T13:51:28Z</time></trkpt><trkpt lat="40.583337278250205" lon="8.317514357336803"><ele>13.2</ele><time>2026-05-02T13:51:29Z</time></trkpt><trkpt lat="40.5832486127408" lon="8.317587028728552"><ele>13.0</ele><time>2026-05-02T13:51:30Z</time></trkpt><trkpt lat="40.583147752142295" lon="8.317650894788189"><ele>13.0</ele><time>2026-05-02T13:51:31Z</time></trkpt><trkpt lat="40.58303413215894" lon="8.31770320951542"><ele>13.0</ele><time>2026-05-02T13:51:32Z</time></trkpt><trkpt lat="40.58291857729157" lon="8.317756754049713"><ele>13.0</ele><time>2026-05-02T13:51:33Z</time></trkpt><trkpt lat="40.58279342367594" lon="8.31779907808293"><ele>13.0</ele><time>2026-05-02T13:51:34Z</time></trkpt><trkpt lat="40.58267193967592" lon="8.317843835151587"><ele>12.75</ele><time>2026-05-02T13:51:35Z</time></trkpt><trkpt lat="40.58254529294382" lon="8.317884005894372"><ele>12.5</ele><time>2026-05-02T13:51:36Z</time></trkpt><trkpt lat="40.582414288064165" lon="8.317934027578994"><ele>12.25</ele><time>2026-05-02T13:51:37Z</time></trkpt><trkpt lat="40.582280966619635" lon="8.317979548632282"><ele>12.0</ele><time>2026-05-02T13:51:38Z</time></trkpt><trkpt lat="40.58214309754472" lon="8.318024646966856"><ele>12.0</ele><time>2026-05-02T13:51:39Z</time></trkpt><trkpt lat="40.58200280384651" lon="8.318073504743031"><ele>12.0</ele><time>2026-05-02T13:51:40Z</time></trkpt><trkpt lat="40.58185954989047" lon="8.318116683908459"><ele>12.0</ele><time>2026-05-02T13:51:41Z</time></trkpt><trkpt lat="40.58171218882204" lon="8.318162444939677"><ele>12.0</ele><time>2026-05-02T13:51:42Z</time></trkpt><trkpt lat="40.58155448217457" lon="8.31820887575605"><ele>12.0</ele><time>2026-05-02T13:51:43Z</time></trkpt><trkpt lat="40.5813967647316" lon="8.318263594799031"><ele>12.0</ele><time>2026-05-02T13:51:44Z</time></trkpt><trkpt lat="40.58123924673312" lon="8.318318522820121"><ele>12.0</ele><time>2026-05-02T13:51:45Z</time></trkpt><trkpt lat="40.58107937480509" lon="8.318367537441624"><ele>12.0</ele><time>2026-05-02T13:51:46Z</time></trkpt><trkpt lat="40.580921169888555" lon="8.318407540897198"><ele>12.0</ele><time>2026-05-02T13:51:47Z</time></trkpt><trkpt lat="40.58076987883541" lon="8.318461183734723"><ele>12.0</ele><time>2026-05-02T13:51:48Z</time></trkpt><trkpt lat="40.5806132245281" lon="8.318513456530294"><ele>12.0</ele><time>2026-05-02T13:51:49Z</time></trkpt><trkpt lat="40.5804493480965" lon="8.318566331891144"><ele>12.0</ele><time>2026-05-02T13:51:50Z</time></trkpt><trkpt lat="40.58028276703425" lon="8.318615114307516"><ele>12.0</ele><time>2026-05-02T13:51:51Z</time></trkpt><trkpt lat="40.580109810441776" lon="8.318652084870399"><ele>11.0</ele><time>2026-05-02T13:51:52Z</time></trkpt><trkpt lat="40.57995282934221" lon="8.318701142145645"><ele>10.0</ele><time>2026-05-02T13:51:53Z</time></trkpt><trkpt lat="40.5797942727569" lon="8.318762148629114"><ele>9.0</ele><time>2026-05-02T13:51:54Z</time></trkpt><trkpt lat="40.57964819829358" lon="8.318811867878765"><ele>9.333333333333334</ele><time>2026-05-02T13:51:55Z</time></trkpt><trkpt lat="40.57948610609995" lon="8.318863652427336"><ele>9.666666666666668</ele><time>2026-05-02T13:51:56Z</time></trkpt><trkpt lat="40.57931907191306" lon="8.318911368134541"><ele>10.0</ele><time>2026-05-02T13:51:57Z</time></trkpt><trkpt lat="40.579168313614794" lon="8.318955648863188"><ele>10.666666666666668</ele><time>2026-05-02T13:51:58Z</time></trkpt><trkpt lat="40.57902790727709" lon="8.319003242114547"><ele>11.333333333333334</ele><time>2026-05-02T13:51:59Z</time></trkpt><trkpt lat="40.57887746165786" lon="8.319046881225091"><ele>12.0</ele><time>2026-05-02T13:52:00Z</time></trkpt><trkpt lat="40.57872524638647" lon="8.319092085567222"><ele>11.0</ele><time>2026-05-02T13:52:01Z</time></trkpt><trkpt lat="40.578570415695964" lon="8.31914694244566"><ele>10.0</ele><time>2026-05-02T13:52:02Z</time></trkpt><trkpt lat="40.578416925382214" lon="8.319186736339079"><ele>9.0</ele><time>2026-05-02T13:52:03Z</time></trkpt><trkpt lat="40.578263731164604" lon="8.319229109381679"><ele>9.0</ele><time>2026-05-02T13:52:04Z</time></trkpt><trkpt lat="40.57811216018529" lon="8.319280286710834"><ele>9.0</ele><time>2026-05-02T13:52:05Z</time></trkpt><trkpt lat="40.57796091490111" lon="8.319330634009058"><ele>9.0</ele><time>2026-05-02T13:52:06Z</time></trkpt><trkpt lat="40.57781247405733" lon="8.319379942600698"><ele>8.0</ele><time>2026-05-02T13:52:07Z</time></trkpt><trkpt lat="40.57766345769614" lon="8.319444306439374"><ele>7.0</ele><time>2026-05-02T13:52:08Z</time></trkpt><trkpt lat="40.57751619588594" lon="8.31951981548235"><ele>6.0</ele><time>2026-05-02T13:52:09Z</time></trkpt><trkpt lat="40.577370791534634" lon="8.319613910740689"><ele>6.0</ele><time>2026-05-02T13:52:10Z</time></trkpt><trkpt lat="40.57722638294658" lon="8.3197088103926"><ele>6.0</ele><time>2026-05-02T13:52:11Z</time></trkpt><trkpt lat="40.5770933858674" lon="8.31981285503547"><ele>6.0</ele><time>2026-05-02T13:52:12Z</time></trkpt><trkpt lat="40.5769569869598" lon="8.319923821315628"><ele>7.0</ele><time>2026-05-02T13:52:13Z</time></trkpt><trkpt lat="40.57682083406043" lon="8.320024105315074"><ele>8.0</ele><time>2026-05-02T13:52:14.001Z</time></trkpt><trkpt lat="40.57668809860154" lon="8.320121380147956"><ele>9.0</ele><time>2026-05-02T13:52:15.001Z</time></trkpt><trkpt lat="40.57655831816454" lon="8.320216434870733"><ele>9.0</ele><time>2026-05-02T13:52:16.001Z</time></trkpt><trkpt lat="40.576432176132094" lon="8.320302542334705"><ele>9.0</ele><time>2026-05-02T13:52:17.001Z</time></trkpt><trkpt lat="40.57631519504683" lon="8.320399590888512"><ele>9.0</ele><time>2026-05-02T13:52:18.001Z</time></trkpt><trkpt lat="40.57619580327052" lon="8.320484619754305"><ele>9.0</ele><time>2026-05-02T13:52:19.001Z</time></trkpt><trkpt lat="40.576076068737585" lon="8.320570869048094"><ele>9.0</ele><time>2026-05-02T13:52:20.001Z</time></trkpt><trkpt lat="40.575952746036386" lon="8.320654992969482"><ele>9.0</ele><time>2026-05-02T13:52:21.001Z</time></trkpt><trkpt lat="40.57583071392817" lon="8.320753103729064"><ele>9.0</ele><time>2026-05-02T13:52:22.001Z</time></trkpt><trkpt lat="40.57571370453667" lon="8.320838877359437"><ele>9.0</ele><time>2026-05-02T13:52:23.001Z</time></trkpt><trkpt lat="40.5756003142102" lon="8.32092567690187"><ele>9.0</ele><time>2026-05-02T13:52:24.001Z</time></trkpt><trkpt lat="40.57548864899943" lon="8.321003662164749"><ele>9.0</ele><time>2026-05-02T13:52:25.001Z</time></trkpt><trkpt lat="40.57537588129708" lon="8.321087299011436"><ele>9.0</ele><time>2026-05-02T13:52:26.001Z</time></trkpt><trkpt lat="40.575271363753586" lon="8.321158903480322"><ele>9.0</ele><time>2026-05-02T13:52:27.001Z</time></trkpt><trkpt lat="40.57518880411755" lon="8.321223371912016"><ele>9.0</ele><time>2026-05-02T13:52:28.001Z</time></trkpt><trkpt lat="40.57511720329702" lon="8.321261068822585"><ele>9.0</ele><time>2026-05-02T13:52:32.001Z</time></trkpt><trkpt lat="40.57501339208702" lon="8.321326453287078"><ele>9.0</ele><time>2026-05-02T13:52:34.001Z</time></trkpt><trkpt lat="40.57495103435311" lon="8.321387379004682"><ele>9.0</ele><time>2026-05-02T13:52:35.001Z</time></trkpt><trkpt lat="40.574855171331706" lon="8.321469865269124"><ele>9.0</ele><time>2026-05-02T13:52:36.001Z</time></trkpt><trkpt lat="40.5747478415333" lon="8.321555151919156"><ele>8.75</ele><time>2026-05-02T13:52:37.001Z</time></trkpt><trkpt lat="40.574636518565136" lon="8.321629787546236"><ele>8.5</ele><time>2026-05-02T13:52:38.001Z</time></trkpt><trkpt lat="40.574523557495546" lon="8.321728650779383"><ele>8.25</ele><time>2026-05-02T13:52:39.001Z</time></trkpt><trkpt lat="40.574401743782985" lon="8.32181178524144"><ele>8.0</ele><time>2026-05-02T13:52:40.001Z</time></trkpt><trkpt lat="40.5742772168958" lon="8.321900286136518"><ele>8.5</ele><time>2026-05-02T13:52:41.001Z</time></trkpt><trkpt lat="40.574153482676394" lon="8.321984979275065"><ele>9.0</ele><time>2026-05-02T13:52:42.001Z</time></trkpt><trkpt lat="40.57402475607292" lon="8.322054076330533"><ele>9.5</ele><time>2026-05-02T13:52:43.001Z</time></trkpt><trkpt lat="40.57389222502988" lon="8.322097918921196"><ele>10.0</ele><time>2026-05-02T13:52:44.001Z</time></trkpt><trkpt lat="40.573755752195545" lon="8.322121353512536"><ele>9.75</ele><time>2026-05-02T13:52:45.001Z</time></trkpt><trkpt lat="40.573614950378" lon="8.322132111892595"><ele>9.5</ele><time>2026-05-02T13:52:46.001Z</time></trkpt><trkpt lat="40.57347851091261" lon="8.322131939630136"><ele>9.25</ele><time>2026-05-02T13:52:47.001Z</time></trkpt><trkpt lat="40.57335100022477" lon="8.322128561707233"><ele>9.0</ele><time>2026-05-02T13:52:48.001Z</time></trkpt><trkpt lat="40.57323976722562" lon="8.322128430414685"><ele>9.0</ele><time>2026-05-02T13:52:49.001Z</time></trkpt><trkpt lat="40.573133108548284" lon="8.322145825078492"><ele>9.0</ele><time>2026-05-02T13:52:50.001Z</time></trkpt><trkpt lat="40.573025155675374" lon="8.322181608484755"><ele>9.0</ele><time>2026-05-02T13:52:51.001Z</time></trkpt><trkpt lat="40.57290476919316" lon="8.32222236537772"><ele>9.0</ele><time>2026-05-02T13:52:52.001Z</time></trkpt><trkpt lat="40.572774637614636" lon="8.3222464094319"><ele>9.25</ele><time>2026-05-02T13:52:53.001Z</time></trkpt><trkpt lat="40.57264750125714" lon="8.322243104263764"><ele>9.5</ele><time>2026-05-02T13:52:54.001Z</time></trkpt><trkpt lat="40.57252200340708" lon="8.322249179781796"><ele>9.75</ele><time>2026-05-02T13:52:55.001Z</time></trkpt><trkpt lat="40.57240865786181" lon="8.322242358511902"><ele>10.0</ele><time>2026-05-02T13:52:56.001Z</time></trkpt><trkpt lat="40.57228905418773" lon="8.322241023758698"><ele>10.0</ele><time>2026-05-02T13:52:57.001Z</time></trkpt><trkpt lat="40.57216833895113" lon="8.322246710928505"><ele>10.0</ele><time>2026-05-02T13:52:58.001Z</time></trkpt><trkpt lat="40.57205289150048" lon="8.322226414887355"><ele>10.0</ele><time>2026-05-02T13:52:59.001Z</time></trkpt><trkpt lat="40.571935494446336" lon="8.322233902888998"><ele>10.0</ele><time>2026-05-02T13:53:00.001Z</time></trkpt><trkpt lat="40.571812016677924" lon="8.322245110708476"><ele>9.25</ele><time>2026-05-02T13:53:01.001Z</time></trkpt><trkpt lat="40.57168514148719" lon="8.322255525808965"><ele>8.5</ele><time>2026-05-02T13:53:02.001Z</time></trkpt><trkpt lat="40.571564094612675" lon="8.322255764049544"><ele>7.75</ele><time>2026-05-02T13:53:03.001Z</time></trkpt><trkpt lat="40.57143790680719" lon="8.322257254251117"><ele>7.0</ele><time>2026-05-02T13:53:04Z</time></trkpt><trkpt lat="40.57131281738409" lon="8.322248426812864"><ele>6.5</ele><time>2026-05-02T13:53:05Z</time></trkpt><trkpt lat="40.571190300332006" lon="8.322219866204291"><ele>6.0</ele><time>2026-05-02T13:53:06Z</time></trkpt><trkpt lat="40.571067596650174" lon="8.322176274767871"><ele>5.5</ele><time>2026-05-02T13:53:07Z</time></trkpt><trkpt lat="40.57095308329705" lon="8.322112313079664"><ele>5.0</ele><time>2026-05-02T13:53:08Z</time></trkpt><trkpt lat="40.5708400314088" lon="8.32204478376775"><ele>5.0</ele><time>2026-05-02T13:53:09Z</time></trkpt><trkpt lat="40.570735540653416" lon="8.321965362082938"><ele>5.0</ele><time>2026-05-02T13:53:10Z</time></trkpt><trkpt lat="40.57064406423114" lon="8.32187457063267"><ele>5.0</ele><time>2026-05-02T13:53:11Z</time></trkpt><trkpt lat="40.5705647289107" lon="8.321780487971404"><ele>5.0</ele><time>2026-05-02T13:53:12Z</time></trkpt><trkpt lat="40.570496829425124" lon="8.321690948899812"><ele>5.0</ele><time>2026-05-02T13:53:13Z</time></trkpt><trkpt lat="40.57043086290516" lon="8.321610289278127"><ele>5.0</ele><time>2026-05-02T13:53:14Z</time></trkpt><trkpt lat="40.5703885603659" lon="8.321512472220265"><ele>5.0</ele><time>2026-05-02T13:53:15Z</time></trkpt><trkpt lat="40.57036310444898" lon="8.32140418220354"><ele>5.0</ele><time>2026-05-02T13:53:16Z</time></trkpt><trkpt lat="40.57032801690893" lon="8.32132552039173"><ele>5.0</ele><time>2026-05-02T13:53:17Z</time></trkpt><trkpt lat="40.57026396240154" lon="8.321280737660194"><ele>5.0</ele><time>2026-05-02T13:53:18Z</time></trkpt><trkpt lat="40.57018913369344" lon="8.321250904542"><ele>5.0</ele><time>2026-05-02T13:53:19Z</time></trkpt><trkpt lat="40.57012252065449" lon="8.321176962334404"><ele>5.5</ele><time>2026-05-02T13:53:20Z</time></trkpt><trkpt lat="40.570063560100124" lon="8.32107239319756"><ele>6.0</ele><time>2026-05-02T13:53:21Z</time></trkpt><trkpt lat="40.57001363049654" lon="8.320980632272244"><ele>6.5</ele><time>2026-05-02T13:53:22Z</time></trkpt><trkpt lat="40.569973696699485" lon="8.32087608123098"><ele>7.0</ele><time>2026-05-02T13:53:23Z</time></trkpt><trkpt lat="40.569922184700665" lon="8.320794056370845"><ele>7.499999999999999</ele><time>2026-05-02T13:53:24Z</time></trkpt><trkpt lat="40.56986955111497" lon="8.320701527858784"><ele>8.0</ele><time>2026-05-02T13:53:25Z</time></trkpt><trkpt lat="40.56981274908341" lon="8.320596195460972"><ele>7.6000000000000005</ele><time>2026-05-02T13:53:26Z</time></trkpt><trkpt lat="40.569761891400816" lon="8.320496378145798"><ele>7.200000000000001</ele><time>2026-05-02T13:53:27Z</time></trkpt><trkpt lat="40.569698262760326" lon="8.320392941587622"><ele>6.8</ele><time>2026-05-02T13:53:28Z</time></trkpt><trkpt lat="40.56963835334491" lon="8.320287624148847"><ele>6.4</ele><time>2026-05-02T13:53:29Z</time></trkpt><trkpt lat="40.569589980351964" lon="8.320192181385247"><ele>6.0</ele><time>2026-05-02T13:53:30Z</time></trkpt><trkpt lat="40.569559256147855" lon="8.320087590281977"><ele>6.4</ele><time>2026-05-02T13:53:31Z</time></trkpt><trkpt lat="40.569512660513254" lon="8.32000605862239"><ele>6.8</ele><time>2026-05-02T13:53:32Z</time></trkpt><trkpt lat="40.569451793636865" lon="8.319873611303601"><ele>7.200000000000001</ele><time>2026-05-02T13:53:34Z</time></trkpt><trkpt lat="40.56939882495662" lon="8.319741148239041"><ele>7.6000000000000005</ele><time>2026-05-02T13:53:36Z</time></trkpt><trkpt lat="40.569336275246826" lon="8.319633083271002"><ele>8.0</ele><time>2026-05-02T13:53:38Z</time></trkpt><trkpt lat="40.569265256546714" lon="8.319498327363474"><ele>7.333333333333333</ele><time>2026-05-02T13:53:40Z</time></trkpt><trkpt lat="40.56924757630534" lon="8.319416519924859"><ele>6.666666666666666</ele><time>2026-05-02T13:53:41Z</time></trkpt><trkpt lat="40.56924192474439" lon="8.319332689277092"><ele>6.0</ele><time>2026-05-02T13:53:42Z</time></trkpt><trkpt lat="40.56917762438752" lon="8.31920739045113"><ele>5.333333333333333</ele><time>2026-05-02T13:53:44Z</time></trkpt><trkpt lat="40.56911652060052" lon="8.319173880153544"><ele>4.666666666666666</ele><time>2026-05-02T13:53:45Z</time></trkpt><trkpt lat="40.568992248118825" lon="8.319187605093644"><ele>4.0</ele><time>2026-05-02T13:53:47Z</time></trkpt><trkpt lat="40.5689239007287" lon="8.319227702467053"><ele>3.9999999999999996</ele><time>2026-05-02T13:53:48Z</time></trkpt><trkpt lat="40.568848518457195" lon="8.319244404220463"><ele>4.0</ele><time>2026-05-02T13:53:49Z</time></trkpt><trkpt lat="40.56877261796074" lon="8.31924387832139"><ele>4.0</ele><time>2026-05-02T13:53:50Z</time></trkpt><trkpt lat="40.568689620564925" lon="8.319231832413232"><ele>4.0</ele><time>2026-05-02T13:53:51Z</time></trkpt><trkpt lat="40.56861252952431" lon="8.31921182184025"><ele>3.9999999999999996</ele><time>2026-05-02T13:53:52Z</time></trkpt><trkpt lat="40.568528463066066" lon="8.319197338714254"><ele>4.0</ele><time>2026-05-02T13:53:53Z</time></trkpt><trkpt lat="40.568441809436386" lon="8.31918053618233"><ele>3.833333333333333</ele><time>2026-05-02T13:53:54Z</time></trkpt><trkpt lat="40.568356673703484" lon="8.319168384806193"><ele>3.6666666666666665</ele><time>2026-05-02T13:53:55Z</time></trkpt><trkpt lat="40.56828123970786" lon="8.319170770661204"><ele>3.5</ele><time>2026-05-02T13:53:56Z</time></trkpt><trkpt lat="40.56817104179187" lon="8.319153393862452"><ele>3.333333333333333</ele><time>2026-05-02T13:53:58Z</time></trkpt><trkpt lat="40.56806227139776" lon="8.319138542499545"><ele>3.1666666666666665</ele><time>2026-05-02T13:54:00Z</time></trkpt><trkpt lat="40.56799943411699" lon="8.319130527361263"><ele>3.0</ele><time>2026-05-02T13:54:01Z</time></trkpt><trkpt lat="40.567868917604564" lon="8.319104789424838"><ele>3.0</ele><time>2026-05-02T13:54:03Z</time></trkpt><trkpt lat="40.567741428712715" lon="8.319082148647256"><ele>3.0</ele><time>2026-05-02T13:54:05Z</time></trkpt><trkpt lat="40.56766137775376" lon="8.319063393442432"><ele>3.0</ele><time>2026-05-02T13:54:06Z</time></trkpt><trkpt lat="40.56756927972727" lon="8.319047104230247"><ele>3.0</ele><time>2026-05-02T13:54:07Z</time></trkpt><trkpt lat="40.567473164824186" lon="8.319021579544264"><ele>3.0</ele><time>2026-05-02T13:54:08Z</time></trkpt><trkpt lat="40.56736957397203" lon="8.318988406495556"><ele>3.0</ele><time>2026-05-02T13:54:09Z</time></trkpt><trkpt lat="40.567276808800095" lon="8.318958311404037"><ele>3.0</ele><time>2026-05-02T13:54:10Z</time></trkpt><trkpt lat="40.567178739243836" lon="8.318934863296477"><ele>3.0</ele><time>2026-05-02T13:54:11Z</time></trkpt><trkpt lat="40.56706764234615" lon="8.318905584162804"><ele>3.0</ele><time>2026-05-02T13:54:12Z</time></trkpt><trkpt lat="40.56695361552465" lon="8.318875286150998"><ele>3.0</ele><time>2026-05-02T13:54:13Z</time></trkpt><trkpt lat="40.56683585926055" lon="8.318833538285357"><ele>2.25</ele><time>2026-05-02T13:54:14Z</time></trkpt><trkpt lat="40.56671837893611" lon="8.318780714445756"><ele>1.5</ele><time>2026-05-02T13:54:15Z</time></trkpt><trkpt lat="40.566596948355624" lon="8.318729933711941"><ele>0.75</ele><time>2026-05-02T13:54:16Z</time></trkpt><trkpt lat="40.56648485836819" lon="8.318660526007346"><ele>0.0</ele><time>2026-05-02T13:54:17Z</time></trkpt><trkpt lat="40.566376206520175" lon="8.318585822391912"><ele>0.0</ele><time>2026-05-02T13:54:18Z</time></trkpt><trkpt lat="40.56626262128265" lon="8.31852386404252"><ele>0.0</ele><time>2026-05-02T13:54:19Z</time></trkpt><trkpt lat="40.56614422543486" lon="8.318468880908979"><ele>0.0</ele><time>2026-05-02T13:54:20Z</time></trkpt><trkpt lat="40.56603109814987" lon="8.318407668627929"><ele>0.0</ele><time>2026-05-02T13:54:21Z</time></trkpt><trkpt lat="40.56591838479811" lon="8.318342277092068"><ele>0.5</ele><time>2026-05-02T13:54:22Z</time></trkpt><trkpt lat="40.56580404119628" lon="8.318280078820878"><ele>1.0</ele><time>2026-05-02T13:54:23Z</time></trkpt><trkpt lat="40.565687982118426" lon="8.318214417938423"><ele>1.5</ele><time>2026-05-02T13:54:24Z</time></trkpt><trkpt lat="40.565571316639044" lon="8.318151237022956"><ele>2.0</ele><time>2026-05-02T13:54:25Z</time></trkpt><trkpt lat="40.565458040982776" lon="8.318090036070533"><ele>1.8</ele><time>2026-05-02T13:54:26Z</time></trkpt><trkpt lat="40.565350978989606" lon="8.3180211670313"><ele>1.6</ele><time>2026-05-02T13:54:27Z</time></trkpt><trkpt lat="40.56525280301109" lon="8.317945334372457"><ele>1.4000000000000001</ele><time>2026-05-02T13:54:28Z</time></trkpt><trkpt lat="40.565167347399395" lon="8.317867990611882"><ele>1.2000000000000002</ele><time>2026-05-02T13:54:29Z</time></trkpt><trkpt lat="40.56508210545171" lon="8.317807667450264"><ele>1.0</ele><time>2026-05-02T13:54:30Z</time></trkpt><trkpt lat="40.564998100366104" lon="8.317753283361833"><ele>1.0</ele><time>2026-05-02T13:54:31Z</time></trkpt><trkpt lat="40.564901309051265" lon="8.31768405598201"><ele>1.0</ele><time>2026-05-02T13:54:32Z</time></trkpt><trkpt lat="40.56480169824763" lon="8.317605759153484"><ele>1.0</ele><time>2026-05-02T13:54:33Z</time></trkpt><trkpt lat="40.56469875985767" lon="8.317527569229227"><ele>1.0</ele><time>2026-05-02T13:54:34Z</time></trkpt><trkpt lat="40.564586860991994" lon="8.317459017779628"><ele>1.0</ele><time>2026-05-02T13:54:35Z</time></trkpt><trkpt lat="40.564475177685374" lon="8.317386898743406"><ele>1.0</ele><time>2026-05-02T13:54:36Z</time></trkpt><trkpt lat="40.56436380097188" lon="8.317301494898574"><ele>1.0</ele><time>2026-05-02T13:54:37Z</time></trkpt><trkpt lat="40.564246958085626" lon="8.3172342973837"><ele>1.0</ele><time>2026-05-02T13:54:38Z</time></trkpt><trkpt lat="40.564129596691544" lon="8.317166337706373"><ele>1.0</ele><time>2026-05-02T13:54:39Z</time></trkpt><trkpt lat="40.564017376632805" lon="8.317098454133394"><ele>1.0</ele><time>2026-05-02T13:54:40Z</time></trkpt><trkpt lat="40.56391104292989" lon="8.317032132317925"><ele>1.0</ele><time>2026-05-02T13:54:41Z</time></trkpt><trkpt lat="40.563805501177754" lon="8.316964703585098"><ele>1.0</ele><time>2026-05-02T13:54:42Z</time></trkpt><trkpt lat="40.56370063449489" lon="8.316901371444409"><ele>1.2000000000000002</ele><time>2026-05-02T13:54:43Z</time></trkpt><trkpt lat="40.56359288139642" lon="8.316841458486882"><ele>1.4000000000000001</ele><time>2026-05-02T13:54:44Z</time></trkpt><trkpt lat="40.563490807621655" lon="8.316774534817272"><ele>1.6</ele><time>2026-05-02T13:54:45Z</time></trkpt><trkpt lat="40.563395894460406" lon="8.316708772085558"><ele>1.8</ele><time>2026-05-02T13:54:46Z</time></trkpt><trkpt lat="40.56329857056479" lon="8.316646358363245"><ele>2.0</ele><time>2026-05-02T13:54:47Z</time></trkpt><trkpt lat="40.56319969733146" lon="8.316593504099291"><ele>2.0</ele><time>2026-05-02T13:54:48Z</time></trkpt><trkpt lat="40.56310177711616" lon="8.316540270616503"><ele>2.0</ele><time>2026-05-02T13:54:49Z</time></trkpt><trkpt lat="40.56300397316293" lon="8.316488820029948"><ele>2.0</ele><time>2026-05-02T13:54:50Z</time></trkpt><trkpt lat="40.56291044095133" lon="8.316441384749345"><ele>2.0</ele><time>2026-05-02T13:54:51Z</time></trkpt><trkpt lat="40.56281689527993" lon="8.316380634526979"><ele>2.0</ele><time>2026-05-02T13:54:52Z</time></trkpt><trkpt lat="40.56272343845531" lon="8.316327452885513"><ele>2.0</ele><time>2026-05-02T13:54:53Z</time></trkpt><trkpt lat="40.5626289128001" lon="8.316271259747401"><ele>2.0</ele><time>2026-05-02T13:54:54Z</time></trkpt><trkpt lat="40.56253745585878" lon="8.316218758446771"><ele>2.0</ele><time>2026-05-02T13:54:55Z</time></trkpt><trkpt lat="40.56244683368112" lon="8.316166688229037"><ele>2.0</ele><time>2026-05-02T13:54:56Z</time></trkpt><trkpt lat="40.56235373812659" lon="8.3161169473343"><ele>2.0</ele><time>2026-05-02T13:54:57Z</time></trkpt><trkpt lat="40.56225955171031" lon="8.316060183588155"><ele>2.0</ele><time>2026-05-02T13:54:58.001Z</time></trkpt><trkpt lat="40.562172610406826" lon="8.31601148085259"><ele>2.0</ele><time>2026-05-02T13:54:59.001Z</time></trkpt><trkpt lat="40.56207350089532" lon="8.315962745166821"><ele>2.0</ele><time>2026-05-02T13:55:00.001Z</time></trkpt><trkpt lat="40.561971246985046" lon="8.315906388183844"><ele>2.0</ele><time>2026-05-02T13:55:01.001Z</time></trkpt><trkpt lat="40.561873610611556" lon="8.315857523402624"><ele>2.0</ele><time>2026-05-02T13:55:02.001Z</time></trkpt><trkpt lat="40.561771110545216" lon="8.315799998960086"><ele>2.0</ele><time>2026-05-02T13:55:03.001Z</time></trkpt><trkpt lat="40.56164692324832" lon="8.315746607741254"><ele>2.0</ele><time>2026-05-02T13:55:04.001Z</time></trkpt><trkpt lat="40.561519448456934" lon="8.315722676711536"><ele>2.0</ele><time>2026-05-02T13:55:05.001Z</time></trkpt><trkpt lat="40.56139863242243" lon="8.315563273541539"><ele>2.0</ele><time>2026-05-02T13:55:06.001Z</time></trkpt><trkpt lat="40.56128766120601" lon="8.315506664744499"><ele>1.6</ele><time>2026-05-02T13:55:07.001Z</time></trkpt><trkpt lat="40.561172573651454" lon="8.315447518006787"><ele>1.2000000000000002</ele><time>2026-05-02T13:55:08.001Z</time></trkpt><trkpt lat="40.561078907742804" lon="8.315392435591539"><ele>0.8</ele><time>2026-05-02T13:55:09.001Z</time></trkpt><trkpt lat="40.5609875945965" lon="8.3153418008021"><ele>0.4</ele><time>2026-05-02T13:55:10Z</time></trkpt><trkpt lat="40.56089875098491" lon="8.315286946258174"><ele>0.0</ele><time>2026-05-02T13:55:11Z</time></trkpt><trkpt lat="40.56081385509003" lon="8.315238332845524"><ele>0.0</ele><time>2026-05-02T13:55:12Z</time></trkpt><trkpt lat="40.560729486067444" lon="8.31519159546679"><ele>0.0</ele><time>2026-05-02T13:55:13Z</time></trkpt><trkpt lat="40.560644633295844" lon="8.315144754866441"><ele>0.0</ele><time>2026-05-02T13:55:14Z</time></trkpt><trkpt lat="40.56056205168391" lon="8.315099073674416"><ele>0.0</ele><time>2026-05-02T13:55:15Z</time></trkpt><trkpt lat="40.56048687226343" lon="8.315066336701749"><ele>0.0</ele><time>2026-05-02T13:55:16Z</time></trkpt><trkpt lat="40.56042133735252" lon="8.315050238725979"><ele>0.0</ele><time>2026-05-02T13:55:17Z</time></trkpt><trkpt lat="40.560352189091724" lon="8.31504910215245"><ele>0.8333333333333334</ele><time>2026-05-02T13:55:18Z</time></trkpt><trkpt lat="40.56028570063291" lon="8.315056568683541"><ele>1.6666666666666667</ele><time>2026-05-02T13:55:19Z</time></trkpt><trkpt lat="40.560169617805876" lon="8.315089624535622"><ele>2.5</ele><time>2026-05-02T13:55:21Z</time></trkpt><trkpt lat="40.56010338810054" lon="8.315110538761942"><ele>3.3333333333333335</ele><time>2026-05-02T13:55:22Z</time></trkpt><trkpt lat="40.56002117674881" lon="8.315112427151695"><ele>4.166666666666667</ele><time>2026-05-02T13:55:23Z</time></trkpt><trkpt lat="40.55991919804043" lon="8.315088905167096"><ele>5.0</ele><time>2026-05-02T13:55:24Z</time></trkpt><trkpt lat="40.5598391695793" lon="8.315065643705264"><ele>5.0</ele><time>2026-05-02T13:55:25Z</time></trkpt><trkpt lat="40.55975285918181" lon="8.315057498450951"><ele>5.0</ele><time>2026-05-02T13:55:27Z</time></trkpt><trkpt lat="40.55964633698608" lon="8.315040807136782"><ele>5.0</ele><time>2026-05-02T13:55:30Z</time></trkpt><trkpt lat="40.55957161744621" lon="8.315004502472794"><ele>5.0</ele><time>2026-05-02T13:55:31Z</time></trkpt><trkpt lat="40.55949261438845" lon="8.314959883748893"><ele>5.0</ele><time>2026-05-02T13:55:32Z</time></trkpt><trkpt lat="40.559395562718684" lon="8.314956390671854"><ele>6.8</ele><time>2026-05-02T13:55:33Z</time></trkpt><trkpt lat="40.55929010810866" lon="8.315004371341859"><ele>8.6</ele><time>2026-05-02T13:55:34Z</time></trkpt><trkpt lat="40.55920133955252" lon="8.31506121822504"><ele>10.399999999999999</ele><time>2026-05-02T13:55:35Z</time></trkpt><trkpt lat="40.55913237247287" lon="8.315132309472348"><ele>12.2</ele><time>2026-05-02T13:55:36Z</time></trkpt><trkpt lat="40.559066452747956" lon="8.315195180229065"><ele>14.0</ele><time>2026-05-02T13:55:37Z</time></trkpt><trkpt lat="40.558995725603424" lon="8.315258631042175"><ele>14.000000000000002</ele><time>2026-05-02T13:55:38Z</time></trkpt><trkpt lat="40.55892507717441" lon="8.315318394129747"><ele>14.0</ele><time>2026-05-02T13:55:39Z</time></trkpt><trkpt lat="40.55886272418958" lon="8.315361992021028"><ele>14.0</ele><time>2026-05-02T13:55:40Z</time></trkpt><trkpt lat="40.55876030750332" lon="8.31542749963078"><ele>14.0</ele><time>2026-05-02T13:55:42Z</time></trkpt><trkpt lat="40.55870524555793" lon="8.315470478907171"><ele>14.000000000000002</ele><time>2026-05-02T13:55:43Z</time></trkpt><trkpt lat="40.55863614683411" lon="8.315526013368705"><ele>14.0</ele><time>2026-05-02T13:55:44Z</time></trkpt><trkpt lat="40.55856799730796" lon="8.31556812242397"><ele>14.333333333333334</ele><time>2026-05-02T13:55:45Z</time></trkpt><trkpt lat="40.558501973315714" lon="8.315625093561026"><ele>14.666666666666668</ele><time>2026-05-02T13:55:46Z</time></trkpt><trkpt lat="40.55843898302397" lon="8.315679416546855"><ele>15.0</ele><time>2026-05-02T13:55:47Z</time></trkpt><trkpt lat="40.558378686926275" lon="8.315725139876275"><ele>15.333333333333332</ele><time>2026-05-02T13:55:48Z</time></trkpt><trkpt lat="40.55832413840196" lon="8.315768084393415"><ele>15.666666666666666</ele><time>2026-05-02T13:55:49Z</time></trkpt><trkpt lat="40.55826951228888" lon="8.315812603400389"><ele>16.0</ele><time>2026-05-02T13:55:50Z</time></trkpt><trkpt lat="40.55818074591222" lon="8.315878169087885"><ele>15.999999999999998</ele><time>2026-05-02T13:55:52Z</time></trkpt><trkpt lat="40.55810956677035" lon="8.315927377172452"><ele>16.0</ele><time>2026-05-02T13:55:55Z</time></trkpt><trkpt lat="40.55803680710194" lon="8.315986930395713"><ele>16.0</ele><time>2026-05-02T13:55:58Z</time></trkpt><trkpt lat="40.55796655229074" lon="8.316035760458957"><ele>16.0</ele><time>2026-05-02T13:56:00Z</time></trkpt><trkpt lat="40.55789757757449" lon="8.31609929763896"><ele>15.999999999999998</ele><time>2026-05-02T13:56:02Z</time></trkpt><trkpt lat="40.55782044641662" lon="8.316154721529621"><ele>16.0</ele><time>2026-05-02T13:56:04Z</time></trkpt><trkpt lat="40.557765050947076" lon="8.316198180118715"><ele>15.999999999999998</ele><time>2026-05-02T13:56:06Z</time></trkpt><trkpt lat="40.557691936513926" lon="8.316272301137925"><ele>16.0</ele><time>2026-05-02T13:56:09Z</time></trkpt><trkpt lat="40.55763051153345" lon="8.316327673501672"><ele>16.0</ele><time>2026-05-02T13:56:11Z</time></trkpt><trkpt lat="40.55757058599806" lon="8.316386721544667"><ele>16.0</ele><time>2026-05-02T13:56:13Z</time></trkpt><trkpt lat="40.557510948857534" lon="8.316444660062512"><ele>15.999999999999998</ele><time>2026-05-02T13:56:15Z</time></trkpt><trkpt lat="40.55744728831026" lon="8.316473910593409"><ele>16.0</ele><time>2026-05-02T13:56:20Z</time></trkpt><trkpt lat="40.55735780718306" lon="8.316504709428289"><ele>16.0</ele><time>2026-05-02T13:56:35Z</time></trkpt><trkpt lat="40.557294613332274" lon="8.316595870263964"><ele>16.0</ele><time>2026-05-02T13:56:38Z</time></trkpt><trkpt lat="40.55721503483296" lon="8.316641800443234"><ele>16.0</ele><time>2026-05-02T13:56:41Z</time></trkpt><trkpt lat="40.55711927968323" lon="8.316567094154681"><ele>16.0</ele><time>2026-05-02T13:56:44Z</time></trkpt><trkpt lat="40.55709618700338" lon="8.316454920021311"><ele>16.0</ele><time>2026-05-02T13:56:45Z</time></trkpt><trkpt lat="40.557061746420025" lon="8.316338846888444"><ele>15.333333333333332</ele><time>2026-05-02T13:56:46Z</time></trkpt><trkpt lat="40.55701033662962" lon="8.31622665951723"><ele>14.666666666666666</ele><time>2026-05-02T13:56:47Z</time></trkpt><trkpt lat="40.556960593871956" lon="8.316136982748997"><ele>14.0</ele><time>2026-05-02T13:56:48Z</time></trkpt><trkpt lat="40.556918841474435" lon="8.316047264934031"><ele>13.333333333333332</ele><time>2026-05-02T13:56:49Z</time></trkpt><trkpt lat="40.556882828002806" lon="8.315963748299291"><ele>12.666666666666666</ele><time>2026-05-02T13:56:50Z</time></trkpt><trkpt lat="40.556845806837956" lon="8.315883749163255"><ele>12.0</ele><time>2026-05-02T13:56:51Z</time></trkpt><trkpt lat="40.55681255214017" lon="8.315811430229864"><ele>12.0</ele><time>2026-05-02T13:56:52Z</time></trkpt><trkpt lat="40.55673927901278" lon="8.315698733458245"><ele>12.0</ele><time>2026-05-02T13:56:54Z</time></trkpt><trkpt lat="40.55667097355581" lon="8.315617230751073"><ele>12.0</ele><time>2026-05-02T13:56:56Z</time></trkpt><trkpt lat="40.55658280559659" lon="8.315542656766972"><ele>12.0</ele><time>2026-05-02T13:56:58Z</time></trkpt><trkpt lat="40.5564801072347" lon="8.315482242053188"><ele>12.0</ele><time>2026-05-02T13:57:00Z</time></trkpt><trkpt lat="40.55637139994665" lon="8.31544668531536"><ele>11.8</ele><time>2026-05-02T13:57:02Z</time></trkpt><trkpt lat="40.55623837288688" lon="8.315475528945"><ele>11.6</ele><time>2026-05-02T13:57:04Z</time></trkpt><trkpt lat="40.55618147571291" lon="8.315559977744819"><ele>11.4</ele><time>2026-05-02T13:57:05Z</time></trkpt><trkpt lat="40.55611645669016" lon="8.315607691075245"><ele>11.200000000000001</ele><time>2026-05-02T13:57:06Z</time></trkpt><trkpt lat="40.55605120538592" lon="8.315655987867052"><ele>11.0</ele><time>2026-05-02T13:57:07Z</time></trkpt><trkpt lat="40.55597820930841" lon="8.315716416638047"><ele>10.833333333333332</ele><time>2026-05-02T13:57:08Z</time></trkpt><trkpt lat="40.555901589763344" lon="8.315769583952052"><ele>10.666666666666666</ele><time>2026-05-02T13:57:09Z</time></trkpt><trkpt lat="40.55583341085151" lon="8.31582036701736"><ele>10.5</ele><time>2026-05-02T13:57:10Z</time></trkpt><trkpt lat="40.55575167986401" lon="8.315879040810458"><ele>10.333333333333334</ele><time>2026-05-02T13:57:11Z</time></trkpt><trkpt lat="40.5556621031002" lon="8.315899901037321"><ele>10.166666666666668</ele><time>2026-05-02T13:57:12Z</time></trkpt><trkpt lat="40.55557539691563" lon="8.315897020254143"><ele>10.0</ele><time>2026-05-02T13:57:13Z</time></trkpt><trkpt lat="40.55549558478837" lon="8.315882889921744"><ele>10.0</ele><time>2026-05-02T13:57:14Z</time></trkpt><trkpt lat="40.55542568323965" lon="8.315867907284929"><ele>10.0</ele><time>2026-05-02T13:57:15Z</time></trkpt><trkpt lat="40.55535707908328" lon="8.31585777999174"><ele>10.0</ele><time>2026-05-02T13:57:15.999Z</time></trkpt><trkpt lat="40.555275691158876" lon="8.315849493345988"><ele>10.0</ele><time>2026-05-02T13:57:16.999Z</time></trkpt><trkpt lat="40.55520133821373" lon="8.315820650397034"><ele>10.0</ele><time>2026-05-02T13:57:17.999Z</time></trkpt><trkpt lat="40.55513296601362" lon="8.315782365883264"><ele>10.0</ele><time>2026-05-02T13:57:18.999Z</time></trkpt><trkpt lat="40.55507484600143" lon="8.315742092145557"><ele>10.0</ele><time>2026-05-02T13:57:19.999Z</time></trkpt><trkpt lat="40.555009046177226" lon="8.315704258070152"><ele>10.0</ele><time>2026-05-02T13:57:20.999Z</time></trkpt><trkpt lat="40.55493167878253" lon="8.315675507144174"><ele>10.0</ele><time>2026-05-02T13:57:21.999Z</time></trkpt><trkpt lat="40.55485139926349" lon="8.315660571683"><ele>10.0</ele><time>2026-05-02T13:57:22.999Z</time></trkpt><trkpt lat="40.55477864813239" lon="8.315659645692337"><ele>10.0</ele><time>2026-05-02T13:57:23.999Z</time></trkpt><trkpt lat="40.55470323493397" lon="8.31566426419709"><ele>10.0</ele><time>2026-05-02T13:57:24.999Z</time></trkpt><trkpt lat="40.554616557993725" lon="8.315680333942211"><ele>10.0</ele><time>2026-05-02T13:57:25.999Z</time></trkpt><trkpt lat="40.554519667506185" lon="8.315709977631618"><ele>9.666666666666668</ele><time>2026-05-02T13:57:26.999Z</time></trkpt><trkpt lat="40.55443471667859" lon="8.31575021042637"><ele>9.333333333333334</ele><time>2026-05-02T13:57:27.999Z</time></trkpt><trkpt lat="40.554359419929455" lon="8.315786959985207"><ele>9.0</ele><time>2026-05-02T13:57:28.999Z</time></trkpt><trkpt lat="40.5542907028622" lon="8.31581242362506"><ele>8.666666666666666</ele><time>2026-05-02T13:57:29.999Z</time></trkpt><trkpt lat="40.55422426123355" lon="8.315837367943276"><ele>8.333333333333332</ele><time>2026-05-02T13:57:30.999Z</time></trkpt><trkpt lat="40.55414750356593" lon="8.315871098574217"><ele>8.0</ele><time>2026-05-02T13:57:31.999Z</time></trkpt><trkpt lat="40.554058542705434" lon="8.315917641685395"><ele>8.0</ele><time>2026-05-02T13:57:32.999Z</time></trkpt><trkpt lat="40.5539660382773" lon="8.31596499990253"><ele>8.0</ele><time>2026-05-02T13:57:33.999Z</time></trkpt><trkpt lat="40.55387546659185" lon="8.316011671477467"><ele>8.0</ele><time>2026-05-02T13:57:34.999Z</time></trkpt><trkpt lat="40.553781246965656" lon="8.316054815241207"><ele>8.0</ele><time>2026-05-02T13:57:35.999Z</time></trkpt><trkpt lat="40.55368834419576" lon="8.31610043955909"><ele>8.0</ele><time>2026-05-02T13:57:36.999Z</time></trkpt><trkpt lat="40.553610215204024" lon="8.316132650333442"><ele>7.4</ele><time>2026-05-02T13:57:37.999Z</time></trkpt><trkpt lat="40.55354780357161" lon="8.316149946740158"><ele>6.800000000000001</ele><time>2026-05-02T13:57:38.999Z</time></trkpt><trkpt lat="40.55342849482157" lon="8.31617576631137"><ele>6.2</ele><time>2026-05-02T13:57:40.999Z</time></trkpt><trkpt lat="40.553309865553786" lon="8.316190835254016"><ele>5.6</ele><time>2026-05-02T13:57:42.999Z</time></trkpt><trkpt lat="40.55323686318377" lon="8.316204904614871"><ele>5.0</ele><time>2026-05-02T13:57:43.999Z</time></trkpt><trkpt lat="40.55315992756609" lon="8.31621988677905"><ele>5.0</ele><time>2026-05-02T13:57:45Z</time></trkpt><trkpt lat="40.55308905402336" lon="8.316235952360737"><ele>5.0</ele><time>2026-05-02T13:57:46Z</time></trkpt><trkpt lat="40.55301491690126" lon="8.316253972331857"><ele>5.0</ele><time>2026-05-02T13:57:47Z</time></trkpt><trkpt lat="40.552948227068974" lon="8.316268596140548"><ele>5.0</ele><time>2026-05-02T13:57:48Z</time></trkpt><trkpt lat="40.552878887879295" lon="8.31628200486309"><ele>5.0</ele><time>2026-05-02T13:57:49Z</time></trkpt><trkpt lat="40.552809024586644" lon="8.316306291934799"><ele>5.0</ele><time>2026-05-02T13:57:50Z</time></trkpt><trkpt lat="40.55274039369278" lon="8.31635639669341"><ele>5.0</ele><time>2026-05-02T13:57:51Z</time></trkpt><trkpt lat="40.55268795090691" lon="8.316425654099278"><ele>5.5</ele><time>2026-05-02T13:57:52Z</time></trkpt><trkpt lat="40.552639765259634" lon="8.316508713895757"><ele>6.0</ele><time>2026-05-02T13:57:53Z</time></trkpt><trkpt lat="40.55260487731316" lon="8.316606815160366"><ele>6.5</ele><time>2026-05-02T13:57:54Z</time></trkpt><trkpt lat="40.55257856795104" lon="8.316713698457916"><ele>7.0</ele><time>2026-05-02T13:57:55Z</time></trkpt><trkpt lat="40.55255713286365" lon="8.316816120666472"><ele>7.499999999999999</ele><time>2026-05-02T13:57:56Z</time></trkpt><trkpt lat="40.55253539256664" lon="8.31691675513948"><ele>8.0</ele><time>2026-05-02T13:57:57Z</time></trkpt><trkpt lat="40.5525126523968" lon="8.317015078720646"><ele>7.999999999999999</ele><time>2026-05-02T13:57:58Z</time></trkpt><trkpt lat="40.55248763734763" lon="8.317106327561481"><ele>8.0</ele><time>2026-05-02T13:57:59Z</time></trkpt><trkpt lat="40.552467023756236" lon="8.317202729360112"><ele>8.0</ele><time>2026-05-02T13:58:00Z</time></trkpt><trkpt lat="40.552445622427626" lon="8.317306627980512"><ele>8.0</ele><time>2026-05-02T13:58:01Z</time></trkpt><trkpt lat="40.55242423751675" lon="8.317423513238145"><ele>7.999999999999999</ele><time>2026-05-02T13:58:02Z</time></trkpt><trkpt lat="40.552403162919575" lon="8.317539537001444"><ele>8.0</ele><time>2026-05-02T13:58:03Z</time></trkpt><trkpt lat="40.55236112015996" lon="8.31764588580178"><ele>8.600000000000001</ele><time>2026-05-02T13:58:04Z</time></trkpt><trkpt lat="40.552335483730175" lon="8.317763886147132"><ele>9.200000000000001</ele><time>2026-05-02T13:58:05Z</time></trkpt><trkpt lat="40.552308892459315" lon="8.317890320069573"><ele>9.8</ele><time>2026-05-02T13:58:06Z</time></trkpt><trkpt lat="40.55227977142971" lon="8.318004687249365"><ele>10.4</ele><time>2026-05-02T13:58:07Z</time></trkpt><trkpt lat="40.55224892980122" lon="8.318123868445513"><ele>11.0</ele><time>2026-05-02T13:58:08Z</time></trkpt><trkpt lat="40.55218823582021" lon="8.318202068157055"><ele>11.8</ele><time>2026-05-02T13:58:09Z</time></trkpt><trkpt lat="40.552125403906224" lon="8.318336565038274"><ele>12.600000000000001</ele><time>2026-05-02T13:58:11Z</time></trkpt><trkpt lat="40.55208226087585" lon="8.318420053486623"><ele>13.4</ele><time>2026-05-02T13:58:12Z</time></trkpt><trkpt lat="40.55203277252559" lon="8.31850943895067"><ele>14.2</ele><time>2026-05-02T13:58:13Z</time></trkpt><trkpt lat="40.55197537267068" lon="8.31859325645464"><ele>15.0</ele><time>2026-05-02T13:58:14Z</time></trkpt><trkpt lat="40.55191165592278" lon="8.318667613309897"><ele>12.8</ele><time>2026-05-02T13:58:15Z</time></trkpt><trkpt lat="40.55184486783239" lon="8.318726788711157"><ele>10.6</ele><time>2026-05-02T13:58:16Z</time></trkpt><trkpt lat="40.55177128297447" lon="8.31877404830317"><ele>8.4</ele><time>2026-05-02T13:58:17Z</time></trkpt><trkpt lat="40.55168239835315" lon="8.318808830785848"><ele>6.2</ele><time>2026-05-02T13:58:18Z</time></trkpt><trkpt lat="40.551585007499654" lon="8.318823610708122"><ele>4.0</ele><time>2026-05-02T13:58:19Z</time></trkpt><trkpt lat="40.55148255399495" lon="8.318810758950331"><ele>4.0</ele><time>2026-05-02T13:58:20Z</time></trkpt><trkpt lat="40.55136814499212" lon="8.31883729169418"><ele>4.0</ele><time>2026-05-02T13:58:21Z</time></trkpt><trkpt lat="40.55126680571618" lon="8.31893606361415"><ele>4.0</ele><time>2026-05-02T13:58:22Z</time></trkpt><trkpt lat="40.5511911511278" lon="8.31904719016772"><ele>4.0</ele><time>2026-05-02T13:58:23Z</time></trkpt><trkpt lat="40.55111682373874" lon="8.31915391303852"><ele>4.75</ele><time>2026-05-02T13:58:24Z</time></trkpt><trkpt lat="40.55104615986027" lon="8.319271250745462"><ele>5.5</ele><time>2026-05-02T13:58:25Z</time></trkpt><trkpt lat="40.55098161085327" lon="8.319406112127393"><ele>6.25</ele><time>2026-05-02T13:58:26Z</time></trkpt><trkpt lat="40.55092507728727" lon="8.319542583939917"><ele>7.0</ele><time>2026-05-02T13:58:27Z</time></trkpt><trkpt lat="40.55087070417073" lon="8.319678628605883"><ele>8.75</ele><time>2026-05-02T13:58:28Z</time></trkpt><trkpt lat="40.55083033469546" lon="8.31982430899864"><ele>10.5</ele><time>2026-05-02T13:58:29Z</time></trkpt><trkpt lat="40.55076733964139" lon="8.31994908424257"><ele>12.25</ele><time>2026-05-02T13:58:30Z</time></trkpt><trkpt lat="40.55072159747156" lon="8.320084232003943"><ele>14.0</ele><time>2026-05-02T13:58:31Z</time></trkpt><trkpt lat="40.55066963473995" lon="8.320206418669649"><ele>14.0</ele><time>2026-05-02T13:58:32Z</time></trkpt><trkpt lat="40.55061815605354" lon="8.320330303989383"><ele>13.999999999999998</ele><time>2026-05-02T13:58:33Z</time></trkpt><trkpt lat="40.5505693390951" lon="8.320448703897735"><ele>13.999999999999998</ele><time>2026-05-02T13:58:34Z</time></trkpt><trkpt lat="40.55048731066523" lon="8.320527493391582"><ele>14.0</ele><time>2026-05-02T13:58:35Z</time></trkpt><trkpt lat="40.55041237161485" lon="8.320609040832512"><ele>14.0</ele><time>2026-05-02T13:58:36Z</time></trkpt><trkpt lat="40.55033215633488" lon="8.32067181588669"><ele>13.399999999999999</ele><time>2026-05-02T13:58:37Z</time></trkpt><trkpt lat="40.55024746338482" lon="8.32072360316395"><ele>12.799999999999999</ele><time>2026-05-02T13:58:38Z</time></trkpt><trkpt lat="40.55016839660535" lon="8.320758753186198"><ele>12.2</ele><time>2026-05-02T13:58:39Z</time></trkpt><trkpt lat="40.55008661561696" lon="8.320788087778629"><ele>11.600000000000001</ele><time>2026-05-02T13:58:40Z</time></trkpt><trkpt lat="40.549994288384376" lon="8.320821377086386"><ele>11.0</ele><time>2026-05-02T13:58:41Z</time></trkpt><trkpt lat="40.549898982961004" lon="8.32085574031196"><ele>11.0</ele><time>2026-05-02T13:58:42Z</time></trkpt><trkpt lat="40.54980127182265" lon="8.32089192806585"><ele>11.0</ele><time>2026-05-02T13:58:43Z</time></trkpt><trkpt lat="40.54970589003359" lon="8.320926351577466"><ele>11.0</ele><time>2026-05-02T13:58:44Z</time></trkpt><trkpt lat="40.54962111763576" lon="8.32095694612652"><ele>11.0</ele><time>2026-05-02T13:58:45Z</time></trkpt><trkpt lat="40.54955110691288" lon="8.320980205792171"><ele>11.0</ele><time>2026-05-02T13:58:46Z</time></trkpt><trkpt lat="40.549474853271256" lon="8.320997777973544"><ele>11.0</ele><time>2026-05-02T13:58:47Z</time></trkpt><trkpt lat="40.54939152317782" lon="8.321005322375415"><ele>10.4</ele><time>2026-05-02T13:58:48Z</time></trkpt><trkpt lat="40.54929966022746" lon="8.321024362870595"><ele>9.8</ele><time>2026-05-02T13:58:49Z</time></trkpt><trkpt lat="40.54920434756626" lon="8.32098762408417"><ele>9.200000000000001</ele><time>2026-05-02T13:58:50Z</time></trkpt><trkpt lat="40.54910601340261" lon="8.320969440624356"><ele>8.600000000000001</ele><time>2026-05-02T13:58:51Z</time></trkpt><trkpt lat="40.54900388471594" lon="8.320952234968152"><ele>8.0</ele><time>2026-05-02T13:58:52Z</time></trkpt><trkpt lat="40.548912577833065" lon="8.320935400271996"><ele>8.0</ele><time>2026-05-02T13:58:53Z</time></trkpt><trkpt lat="40.54882003305038" lon="8.320917390291196"><ele>8.0</ele><time>2026-05-02T13:58:54Z</time></trkpt><trkpt lat="40.54872126840399" lon="8.320904294017785"><ele>8.0</ele><time>2026-05-02T13:58:55Z</time></trkpt><trkpt lat="40.54861970315568" lon="8.32091108391656"><ele>8.0</ele><time>2026-05-02T13:58:56Z</time></trkpt><trkpt lat="40.54852165790593" lon="8.320956171161006"><ele>8.0</ele><time>2026-05-02T13:58:57Z</time></trkpt><trkpt lat="40.54843389372954" lon="8.321015548299291"><ele>9.25</ele><time>2026-05-02T13:58:58Z</time></trkpt><trkpt lat="40.54834870532664" lon="8.321069545948431"><ele>10.5</ele><time>2026-05-02T13:58:59Z</time></trkpt><trkpt lat="40.54826657483928" lon="8.32112160530277"><ele>11.75</ele><time>2026-05-02T13:59:00Z</time></trkpt><trkpt lat="40.54827261135555" lon="8.321374216294558"><ele>13.0</ele><time>2026-05-02T13:59:01Z</time></trkpt><trkpt lat="40.548240020262945" lon="8.321497157768864"><ele>14.600000000000001</ele><time>2026-05-02T13:59:02Z</time></trkpt><trkpt lat="40.54820462341795" lon="8.321622104984488"><ele>16.200000000000003</ele><time>2026-05-02T13:59:03Z</time></trkpt><trkpt lat="40.54817281549923" lon="8.321750186176246"><ele>17.8</ele><time>2026-05-02T13:59:04Z</time></trkpt><trkpt lat="40.54814583406207" lon="8.321873440793917"><ele>19.400000000000002</ele><time>2026-05-02T13:59:05Z</time></trkpt><trkpt lat="40.548120951773996" lon="8.322001649487932"><ele>21.0</ele><time>2026-05-02T13:59:06Z</time></trkpt><trkpt lat="40.54809015207925" lon="8.32212008673709"><ele>21.0</ele><time>2026-05-02T13:59:07Z</time></trkpt><trkpt lat="40.54804370578666" lon="8.32222549720722"><ele>21.0</ele><time>2026-05-02T13:59:08Z</time></trkpt><trkpt lat="40.54799932408361" lon="8.322327597480598"><ele>21.0</ele><time>2026-05-02T13:59:09Z</time></trkpt><trkpt lat="40.54792848398846" lon="8.322428492921947"><ele>21.0</ele><time>2026-05-02T13:59:10Z</time></trkpt><trkpt lat="40.54784921006137" lon="8.32252231449788"><ele>21.0</ele><time>2026-05-02T13:59:11Z</time></trkpt><trkpt lat="40.54776575073247" lon="8.322606747212806"><ele>20.8</ele><time>2026-05-02T13:59:12Z</time></trkpt><trkpt lat="40.54767430066594" lon="8.322686647467709"><ele>20.6</ele><time>2026-05-02T13:59:13Z</time></trkpt><trkpt lat="40.547573942809585" lon="8.322745551728014"><ele>20.4</ele><time>2026-05-02T13:59:14Z</time></trkpt><trkpt lat="40.54747445834543" lon="8.322781991938902"><ele>20.2</ele><time>2026-05-02T13:59:15Z</time></trkpt><trkpt lat="40.54736643094819" lon="8.322806496424313"><ele>20.0</ele><time>2026-05-02T13:59:16Z</time></trkpt><trkpt lat="40.54726008228193" lon="8.32281393395054"><ele>20.0</ele><time>2026-05-02T13:59:17Z</time></trkpt><trkpt lat="40.54715788877833" lon="8.322796630971483"><ele>20.0</ele><time>2026-05-02T13:59:18Z</time></trkpt><trkpt lat="40.547055101174045" lon="8.322775955916939"><ele>20.0</ele><time>2026-05-02T13:59:19Z</time></trkpt><trkpt lat="40.54695571627502" lon="8.322748296727763"><ele>20.0</ele><time>2026-05-02T13:59:20Z</time></trkpt><trkpt lat="40.54686557050383" lon="8.322690415576762"><ele>20.0</ele><time>2026-05-02T13:59:21.001Z</time></trkpt><trkpt lat="40.546779344503996" lon="8.322629574783713"><ele>19.75</ele><time>2026-05-02T13:59:21.999Z</time></trkpt><trkpt lat="40.54668042281273" lon="8.322561824845424"><ele>19.5</ele><time>2026-05-02T13:59:22.999Z</time></trkpt><trkpt lat="40.54657916148537" lon="8.322489444062244"><ele>19.25</ele><time>2026-05-02T13:59:23.999Z</time></trkpt><trkpt lat="40.54647463499931" lon="8.322416418555816"><ele>19.0</ele><time>2026-05-02T13:59:24.999Z</time></trkpt><trkpt lat="40.54636095669114" lon="8.322342788060766"><ele>19.0</ele><time>2026-05-02T13:59:25.999Z</time></trkpt><trkpt lat="40.54623629053138" lon="8.322270156308111"><ele>19.0</ele><time>2026-05-02T13:59:26.999Z</time></trkpt><trkpt lat="40.546090443788" lon="8.322212851381739"><ele>19.0</ele><time>2026-05-02T13:59:27.999Z</time></trkpt><trkpt lat="40.54593200885365" lon="8.32215323971285"><ele>16.0</ele><time>2026-05-02T13:59:28.999Z</time></trkpt><trkpt lat="40.54577393783874" lon="8.322093102142444"><ele>13.0</ele><time>2026-05-02T13:59:29.999Z</time></trkpt><trkpt lat="40.54561311715593" lon="8.322024017321628"><ele>10.0</ele><time>2026-05-02T13:59:30.999Z</time></trkpt><trkpt lat="40.54544453764325" lon="8.321953283796898"><ele>10.333333333333334</ele><time>2026-05-02T13:59:31.999Z</time></trkpt><trkpt lat="40.54527110949745" lon="8.321869266323453"><ele>10.666666666666666</ele><time>2026-05-02T13:59:32.999Z</time></trkpt><trkpt lat="40.54508905980333" lon="8.321760220297014"><ele>11.0</ele><time>2026-05-02T13:59:33.999Z</time></trkpt><trkpt lat="40.54491033906208" lon="8.321606019139768"><ele>11.0</ele><time>2026-05-02T13:59:34.999Z</time></trkpt><trkpt lat="40.544752348027465" lon="8.321461792293693"><ele>11.0</ele><time>2026-05-02T13:59:35.999Z</time></trkpt><trkpt lat="40.54459286621502" lon="8.321361688563798"><ele>11.0</ele><time>2026-05-02T13:59:36.999Z</time></trkpt><trkpt lat="40.544427026758605" lon="8.321317134699115"><ele>11.666666666666666</ele><time>2026-05-02T13:59:37.999Z</time></trkpt><trkpt lat="40.54426584162846" lon="8.321346562901418"><ele>12.333333333333332</ele><time>2026-05-02T13:59:38.999Z</time></trkpt><trkpt lat="40.54411578907114" lon="8.321433372816891"><ele>13.0</ele><time>2026-05-02T13:59:39.999Z</time></trkpt><trkpt lat="40.543985828926594" lon="8.321562654271645"><ele>13.0</ele><time>2026-05-02T13:59:40.999Z</time></trkpt><trkpt lat="40.543899064706366" lon="8.321744392016845"><ele>13.0</ele><time>2026-05-02T13:59:41.999Z</time></trkpt><trkpt lat="40.54385344214714" lon="8.321944137527753"><ele>13.0</ele><time>2026-05-02T13:59:42.999Z</time></trkpt><trkpt lat="40.54384665603629" lon="8.322184133508657"><ele>11.333333333333332</ele><time>2026-05-02T13:59:43.999Z</time></trkpt><trkpt lat="40.54382012468563" lon="8.322429309447312"><ele>9.666666666666666</ele><time>2026-05-02T13:59:45Z</time></trkpt><trkpt lat="40.543728560477774" lon="8.322644989234675"><ele>8.0</ele><time>2026-05-02T13:59:46Z</time></trkpt><trkpt lat="40.54359519581753" lon="8.322838046877717"><ele>8.0</ele><time>2026-05-02T13:59:47Z</time></trkpt><trkpt lat="40.543438997279715" lon="8.322979969842404"><ele>8.0</ele><time>2026-05-02T13:59:48Z</time></trkpt><trkpt lat="40.543278346279074" lon="8.323060941650493"><ele>8.0</ele><time>2026-05-02T13:59:49Z</time></trkpt><trkpt lat="40.54310603947769" lon="8.32309535914621"><ele>8.0</ele><time>2026-05-02T13:59:50Z</time></trkpt><trkpt lat="40.54292113171112" lon="8.323052188035087"><ele>8.0</ele><time>2026-05-02T13:59:51Z</time></trkpt><trkpt lat="40.542738317481195" lon="8.322982064277573"><ele>8.0</ele><time>2026-05-02T13:59:52Z</time></trkpt><trkpt lat="40.5425674904884" lon="8.3228707727256"><ele>8.666666666666666</ele><time>2026-05-02T13:59:53Z</time></trkpt><trkpt lat="40.542432835573905" lon="8.322689748684354"><ele>9.333333333333334</ele><time>2026-05-02T13:59:54Z</time></trkpt><trkpt lat="40.5423310450424" lon="8.322467745778427"><ele>10.0</ele><time>2026-05-02T13:59:55Z</time></trkpt><trkpt lat="40.54226563495906" lon="8.322227690245622"><ele>9.0</ele><time>2026-05-02T13:59:56Z</time></trkpt><trkpt lat="40.54219662311368" lon="8.32204922433011"><ele>8.0</ele><time>2026-05-02T13:59:57Z</time></trkpt><trkpt lat="40.54209178108846" lon="8.321934863725954"><ele>7.0</ele><time>2026-05-02T13:59:58Z</time></trkpt><trkpt lat="40.54195897581883" lon="8.321889501816356"><ele>6.0</ele><time>2026-05-02T13:59:59Z</time></trkpt><trkpt lat="40.54181072228779" lon="8.32189138136581"><ele>6.0</ele><time>2026-05-02T14:00:00Z</time></trkpt><trkpt lat="40.54167204257431" lon="8.3219684989199"><ele>6.0</ele><time>2026-05-02T14:00:01Z</time></trkpt><trkpt lat="40.54154083820497" lon="8.322103593487572"><ele>6.0</ele><time>2026-05-02T14:00:02Z</time></trkpt><trkpt lat="40.54142750496657" lon="8.32229823861306"><ele>5.666666666666667</ele><time>2026-05-02T14:00:03Z</time></trkpt><trkpt lat="40.541311371587284" lon="8.322522955959421"><ele>5.333333333333334</ele><time>2026-05-02T14:00:04Z</time></trkpt><trkpt lat="40.541185020979746" lon="8.322763346783915"><ele>5.0</ele><time>2026-05-02T14:00:05Z</time></trkpt><trkpt lat="40.54104413815923" lon="8.3229908404239"><ele>10.0</ele><time>2026-05-02T14:00:06Z</time></trkpt><trkpt lat="40.54089077043083" lon="8.323179171276328"><ele>15.0</ele><time>2026-05-02T14:00:07Z</time></trkpt><trkpt lat="40.54070784865215" lon="8.323337706336666"><ele>20.0</ele><time>2026-05-02T14:00:08Z</time></trkpt><trkpt lat="40.54051830671958" lon="8.323486980275304"><ele>12.5</ele><time>2026-05-02T14:00:09Z</time></trkpt><trkpt lat="40.540316536895055" lon="8.323627560328568"><ele>5.0</ele><time>2026-05-02T14:00:10Z</time></trkpt><trkpt lat="40.54011257847212" lon="8.323763631345287"><ele>13.0</ele><time>2026-05-02T14:00:11Z</time></trkpt><trkpt lat="40.53991380201291" lon="8.323905707131729"><ele>21.0</ele><time>2026-05-02T14:00:12Z</time></trkpt><trkpt lat="40.53971754170165" lon="8.32405019396297"><ele>17.666666666666668</ele><time>2026-05-02T14:00:13Z</time></trkpt><trkpt lat="40.53952202378206" lon="8.32419122156357"><ele>14.333333333333332</ele><time>2026-05-02T14:00:14Z</time></trkpt><trkpt lat="40.53932255659497" lon="8.324301278805939"><ele>11.0</ele><time>2026-05-02T14:00:15Z</time></trkpt><trkpt lat="40.539115029091754" lon="8.324346917358934"><ele>11.0</ele><time>2026-05-02T14:00:16Z</time></trkpt><trkpt lat="40.53888800465906" lon="8.324321846837648"><ele>11.0</ele><time>2026-05-02T14:00:17Z</time></trkpt><trkpt lat="40.53865387635471" lon="8.324251957640238"><ele>11.5</ele><time>2026-05-02T14:00:18Z</time></trkpt><trkpt lat="40.53842289470866" lon="8.32412838206865"><ele>12.0</ele><time>2026-05-02T14:00:19Z</time></trkpt><trkpt lat="40.538201338543715" lon="8.324054452549358"><ele>12.0</ele><time>2026-05-02T14:00:20Z</time></trkpt><trkpt lat="40.538004331284064" lon="8.323988695579049"><ele>12.0</ele><time>2026-05-02T14:00:21Z</time></trkpt><trkpt lat="40.53781763021519" lon="8.323947460002676"><ele>12.0</ele><time>2026-05-02T14:00:22Z</time></trkpt><trkpt lat="40.53764094697268" lon="8.323884598689846"><ele>9.666666666666666</ele><time>2026-05-02T14:00:23Z</time></trkpt><trkpt lat="40.537467185726136" lon="8.32382952378464"><ele>7.333333333333334</ele><time>2026-05-02T14:00:24Z</time></trkpt><trkpt lat="40.53728730958368" lon="8.323805240796373"><ele>5.0</ele><time>2026-05-02T14:00:25Z</time></trkpt><trkpt lat="40.53711620619724" lon="8.323842036620892"><ele>7.333333333333334</ele><time>2026-05-02T14:00:26Z</time></trkpt><trkpt lat="40.53696561677782" lon="8.323928903834712"><ele>9.666666666666666</ele><time>2026-05-02T14:00:27Z</time></trkpt><trkpt lat="40.53683143656637" lon="8.324069771043673"><ele>12.0</ele><time>2026-05-02T14:00:28Z</time></trkpt><trkpt lat="40.53671677473815" lon="8.324257202146693"><ele>12.0</ele><time>2026-05-02T14:00:29Z</time></trkpt><trkpt lat="40.53662268395091" lon="8.324483583467753"><ele>12.0</ele><time>2026-05-02T14:00:30Z</time></trkpt><trkpt lat="40.53655015578737" lon="8.324750004917401"><ele>12.0</ele><time>2026-05-02T14:00:31Z</time></trkpt><trkpt lat="40.536457444404014" lon="8.325006600655867"><ele>10.666666666666666</ele><time>2026-05-02T14:00:32Z</time></trkpt><trkpt lat="40.536377113709186" lon="8.325236758407108"><ele>9.333333333333332</ele><time>2026-05-02T14:00:33Z</time></trkpt><trkpt lat="40.53628084501361" lon="8.32541794430073"><ele>8.0</ele><time>2026-05-02T14:00:34Z</time></trkpt><trkpt lat="40.53613692876799" lon="8.32555350706035"><ele>14.333333333333332</ele><time>2026-05-02T14:00:35Z</time></trkpt><trkpt lat="40.53595198493156" lon="8.325622694161618"><ele>20.666666666666668</ele><time>2026-05-02T14:00:36Z</time></trkpt><trkpt lat="40.53574409123033" lon="8.32570147060075"><ele>27.0</ele><time>2026-05-02T14:00:37Z</time></trkpt><trkpt lat="40.53552459595838" lon="8.325785008065111"><ele>23.0</ele><time>2026-05-02T14:00:38Z</time></trkpt><trkpt lat="40.53530476244326" lon="8.325869097655996"><ele>19.0</ele><time>2026-05-02T14:00:39Z</time></trkpt><trkpt lat="40.53507407296762" lon="8.325957339812739"><ele>19.0</ele><time>2026-05-02T14:00:40Z</time></trkpt><trkpt lat="40.53485359953617" lon="8.326041674177834"><ele>19.0</ele><time>2026-05-02T14:00:41Z</time></trkpt><trkpt lat="40.53463019046255" lon="8.326126665426461"><ele>16.666666666666664</ele><time>2026-05-02T14:00:42Z</time></trkpt><trkpt lat="40.53442286879834" lon="8.326204988812924"><ele>14.333333333333332</ele><time>2026-05-02T14:00:43Z</time></trkpt><trkpt lat="40.53423165978671" lon="8.326277240009953"><ele>12.0</ele><time>2026-05-02T14:00:44Z</time></trkpt><trkpt lat="40.53403949745246" lon="8.326350532846655"><ele>17.666666666666664</ele><time>2026-05-02T14:00:45Z</time></trkpt><trkpt lat="40.53384270080861" lon="8.326425593241318"><ele>23.333333333333332</ele><time>2026-05-02T14:00:46Z</time></trkpt><trkpt lat="40.53362547833491" lon="8.326507963982671"><ele>29.0</ele><time>2026-05-02T14:00:47Z</time></trkpt><trkpt lat="40.53340087206285" lon="8.326592971071317"><ele>29.0</ele><time>2026-05-02T14:00:48Z</time></trkpt><trkpt lat="40.53317993594475" lon="8.326676589097646"><ele>29.0</ele><time>2026-05-02T14:00:49Z</time></trkpt><trkpt lat="40.532959905105464" lon="8.32675986447822"><ele>27.0</ele><time>2026-05-02T14:00:50Z</time></trkpt><trkpt lat="40.53274400392932" lon="8.326839900052464"><ele>25.0</ele><time>2026-05-02T14:00:51Z</time></trkpt><trkpt lat="40.53251997855215" lon="8.326877554855205"><ele>25.0</ele><time>2026-05-02T14:00:52Z</time></trkpt><trkpt lat="40.53231713140331" lon="8.326849376123775"><ele>25.0</ele><time>2026-05-02T14:00:53Z</time></trkpt><trkpt lat="40.53210824800044" lon="8.326804743528704"><ele>25.0</ele><time>2026-05-02T14:00:54.001Z</time></trkpt><trkpt lat="40.531905562920635" lon="8.326791794785489"><ele>25.0</ele><time>2026-05-02T14:00:55.001Z</time></trkpt><trkpt lat="40.53169621180767" lon="8.326793863022441"><ele>25.0</ele><time>2026-05-02T14:00:56.001Z</time></trkpt><trkpt lat="40.53146990349104" lon="8.326849109449885"><ele>25.0</ele><time>2026-05-02T14:00:57.001Z</time></trkpt><trkpt lat="40.53124456021485" lon="8.326950905530067"><ele>20.0</ele><time>2026-05-02T14:00:58.001Z</time></trkpt><trkpt lat="40.531022978166824" lon="8.327035638081423"><ele>15.0</ele><time>2026-05-02T14:00:59.001Z</time></trkpt><trkpt lat="40.53081234920949" lon="8.327133756320228"><ele>16.333333333333332</ele><time>2026-05-02T14:01:00.001Z</time></trkpt><trkpt lat="40.53064015114887" lon="8.327277519713105"><ele>17.666666666666664</ele><time>2026-05-02T14:01:01.001Z</time></trkpt><trkpt lat="40.530489183358604" lon="8.32744515878044"><ele>19.0</ele><time>2026-05-02T14:01:02.001Z</time></trkpt><trkpt lat="40.530339336342806" lon="8.327672034121912"><ele>19.0</ele><time>2026-05-02T14:01:03.001Z</time></trkpt><trkpt lat="40.53017004724533" lon="8.327874377221713"><ele>19.0</ele><time>2026-05-02T14:01:04.001Z</time></trkpt><trkpt lat="40.53000674823942" lon="8.328098326249812"><ele>24.333333333333332</ele><time>2026-05-02T14:01:05.001Z</time></trkpt><trkpt lat="40.529882972139085" lon="8.328364670878253"><ele>29.666666666666664</ele><time>2026-05-02T14:01:06.001Z</time></trkpt><trkpt lat="40.529746052685105" lon="8.328577059969929"><ele>35.0</ele><time>2026-05-02T14:01:07.001Z</time></trkpt><trkpt lat="40.52961421659547" lon="8.32877218707582"><ele>36.75</ele><time>2026-05-02T14:01:08.001Z</time></trkpt><trkpt lat="40.52946909944142" lon="8.328896405599671"><ele>38.5</ele><time>2026-05-02T14:01:09.001Z</time></trkpt><trkpt lat="40.52933012105737" lon="8.32890386154324"><ele>40.25</ele><time>2026-05-02T14:01:10.001Z</time></trkpt><trkpt lat="40.529219300495534" lon="8.328829974606998"><ele>42.0</ele><time>2026-05-02T14:01:11.001Z</time></trkpt><trkpt lat="40.529074401085246" lon="8.328729845141572"><ele>35.75</ele><time>2026-05-02T14:01:12.001Z</time></trkpt><trkpt lat="40.528899253995085" lon="8.328682185399858"><ele>29.5</ele><time>2026-05-02T14:01:13.001Z</time></trkpt><trkpt lat="40.52875781917772" lon="8.328682611779023"><ele>23.25</ele><time>2026-05-02T14:01:14.001Z</time></trkpt><trkpt lat="40.52865223519787" lon="8.328751889826105"><ele>17.0</ele><time>2026-05-02T14:01:15.001Z</time></trkpt><trkpt lat="40.52856780169097" lon="8.328892235195758"><ele>20.333333333333336</ele><time>2026-05-02T14:01:16.001Z</time></trkpt><trkpt lat="40.52849556931247" lon="8.329056178993905"><ele>23.666666666666668</ele><time>2026-05-02T14:01:17.001Z</time></trkpt><trkpt lat="40.52839189467147" lon="8.329278504117218"><ele>27.0</ele><time>2026-05-02T14:01:18.001Z</time></trkpt><trkpt lat="40.52824667018032" lon="8.329489024881576"><ele>27.0</ele><time>2026-05-02T14:01:19.001Z</time></trkpt><trkpt lat="40.528080307973916" lon="8.329661386319982"><ele>27.0</ele><time>2026-05-02T14:01:20.001Z</time></trkpt><trkpt lat="40.52791822979888" lon="8.329821065629476"><ele>27.0</ele><time>2026-05-02T14:01:21.001Z</time></trkpt><trkpt lat="40.527754270691275" lon="8.329979881337959"><ele>26.666666666666664</ele><time>2026-05-02T14:01:22.001Z</time></trkpt><trkpt lat="40.52758334777828" lon="8.330125306962657"><ele>26.333333333333332</ele><time>2026-05-02T14:01:23.001Z</time></trkpt><trkpt lat="40.527402984909386" lon="8.33025259593094"><ele>26.0</ele><time>2026-05-02T14:01:24.001Z</time></trkpt><trkpt lat="40.527216726435924" lon="8.330358026071263"><ele>28.666666666666664</ele><time>2026-05-02T14:01:25.001Z</time></trkpt><trkpt lat="40.52702830672557" lon="8.330445250334353"><ele>31.333333333333336</ele><time>2026-05-02T14:01:26.001Z</time></trkpt><trkpt lat="40.52685082307193" lon="8.3305231154866"><ele>34.0</ele><time>2026-05-02T14:01:27.001Z</time></trkpt><trkpt lat="40.526678514626994" lon="8.330595024167094"><ele>34.0</ele><time>2026-05-02T14:01:27.999Z</time></trkpt><trkpt lat="40.526511099306596" lon="8.330644650131212"><ele>34.0</ele><time>2026-05-02T14:01:28.999Z</time></trkpt><trkpt lat="40.52634540828756" lon="8.330680621322944"><ele>34.0</ele><time>2026-05-02T14:01:29.999Z</time></trkpt><trkpt lat="40.52618562557669" lon="8.330726907263974"><ele>27.0</ele><time>2026-05-02T14:01:30.999Z</time></trkpt><trkpt lat="40.526027043864715" lon="8.330811632344579"><ele>20.0</ele><time>2026-05-02T14:01:31.999Z</time></trkpt><trkpt lat="40.525878326363106" lon="8.330951094566096"><ele>13.0</ele><time>2026-05-02T14:01:32.999Z</time></trkpt><trkpt lat="40.52572650704728" lon="8.331131380104397"><ele>13.0</ele><time>2026-05-02T14:01:33.999Z</time></trkpt><trkpt lat="40.52557549480909" lon="8.331327455730074"><ele>13.0</ele><time>2026-05-02T14:01:34.999Z</time></trkpt><trkpt lat="40.52541359222099" lon="8.331513003153349"><ele>13.0</ele><time>2026-05-02T14:01:35.999Z</time></trkpt><trkpt lat="40.525244217226785" lon="8.331698447876605"><ele>13.333333333333332</ele><time>2026-05-02T14:01:36.999Z</time></trkpt><trkpt lat="40.52507149832928" lon="8.331871554094478"><ele>13.666666666666668</ele><time>2026-05-02T14:01:37.999Z</time></trkpt><trkpt lat="40.52488823551705" lon="8.332022372074949"><ele>14.0</ele><time>2026-05-02T14:01:38.999Z</time></trkpt><trkpt lat="40.5247028727353" lon="8.332153428688473"><ele>15.666666666666668</ele><time>2026-05-02T14:01:39.999Z</time></trkpt><trkpt lat="40.524516505298166" lon="8.332277730420325"><ele>17.333333333333332</ele><time>2026-05-02T14:01:40.999Z</time></trkpt><trkpt lat="40.52433457423045" lon="8.332394111745378"><ele>19.0</ele><time>2026-05-02T14:01:41.999Z</time></trkpt><trkpt lat="40.52414929561505" lon="8.33249685147467"><ele>19.0</ele><time>2026-05-02T14:01:43Z</time></trkpt><trkpt lat="40.52395783209495" lon="8.332586450931974"><ele>19.0</ele><time>2026-05-02T14:01:44Z</time></trkpt><trkpt lat="40.523756264635935" lon="8.332674958239325"><ele>19.0</ele><time>2026-05-02T14:01:45Z</time></trkpt><trkpt lat="40.52356310716777" lon="8.332782789264483"><ele>20.0</ele><time>2026-05-02T14:01:46Z</time></trkpt><trkpt lat="40.5234012486606" lon="8.332928779636275"><ele>21.0</ele><time>2026-05-02T14:01:47Z</time></trkpt><trkpt lat="40.523280241682194" lon="8.33313735050983"><ele>22.0</ele><time>2026-05-02T14:01:48Z</time></trkpt><trkpt lat="40.52317752233225" lon="8.333390593128996"><ele>22.0</ele><time>2026-05-02T14:01:49Z</time></trkpt><trkpt lat="40.523082060227225" lon="8.333627690810077"><ele>22.0</ele><time>2026-05-02T14:01:50Z</time></trkpt><trkpt lat="40.52300162843991" lon="8.333837248544604"><ele>22.0</ele><time>2026-05-02T14:01:51Z</time></trkpt><trkpt lat="40.52296832193505" lon="8.334019686579879"><ele>25.0</ele><time>2026-05-02T14:01:52Z</time></trkpt><trkpt lat="40.52299773694027" lon="8.334184761887556"><ele>28.0</ele><time>2026-05-02T14:01:53Z</time></trkpt><trkpt lat="40.523082532980055" lon="8.334349038954912"><ele>31.0</ele><time>2026-05-02T14:01:54Z</time></trkpt><trkpt lat="40.523216125589215" lon="8.334525843566805"><ele>31.0</ele><time>2026-05-02T14:01:55Z</time></trkpt><trkpt lat="40.5233681080701" lon="8.334717402094572"><ele>31.0</ele><time>2026-05-02T14:01:56Z</time></trkpt><trkpt lat="40.523502413624016" lon="8.33492150389581"><ele>31.0</ele><time>2026-05-02T14:01:57Z</time></trkpt><trkpt lat="40.523592908830864" lon="8.33516998357273"><ele>35.0</ele><time>2026-05-02T14:01:58Z</time></trkpt><trkpt lat="40.5236413346469" lon="8.335467936686253"><ele>39.0</ele><time>2026-05-02T14:01:59Z</time></trkpt><trkpt lat="40.5236456984977" lon="8.335786714562536"><ele>44.0</ele><time>2026-05-02T14:02:00Z</time></trkpt><trkpt lat="40.52363877430804" lon="8.336105226541584"><ele>49.0</ele><time>2026-05-02T14:02:01Z</time></trkpt><trkpt lat="40.52362798791077" lon="8.336422213291772"><ele>50.666666666666664</ele><time>2026-05-02T14:02:02Z</time></trkpt><trkpt lat="40.52361475819972" lon="8.3366954586758"><ele>52.33333333333333</ele><time>2026-05-02T14:02:03Z</time></trkpt><trkpt lat="40.52360451579984" lon="8.336951718618133"><ele>54.0</ele><time>2026-05-02T14:02:04Z</time></trkpt><trkpt lat="40.523587872207244" lon="8.337190853240582"><ele>55.0</ele><time>2026-05-02T14:02:05Z</time></trkpt><trkpt lat="40.52353101488123" lon="8.337410199463914"><ele>56.0</ele><time>2026-05-02T14:02:06Z</time></trkpt><trkpt lat="40.52340732568926" lon="8.337595262064887"><ele>57.0</ele><time>2026-05-02T14:02:07Z</time></trkpt><trkpt lat="40.52327305495472" lon="8.337803579010886"><ele>57.0</ele><time>2026-05-02T14:02:08Z</time></trkpt><trkpt lat="40.52314033522024" lon="8.338045779263735"><ele>57.0</ele><time>2026-05-02T14:02:09Z</time></trkpt><trkpt lat="40.52300912448942" lon="8.338277709703853"><ele>57.0</ele><time>2026-05-02T14:02:10Z</time></trkpt><trkpt lat="40.52288671713115" lon="8.338495623276517"><ele>60.33333333333333</ele><time>2026-05-02T14:02:11Z</time></trkpt><trkpt lat="40.52276929471456" lon="8.33870328588147"><ele>63.666666666666664</ele><time>2026-05-02T14:02:12Z</time></trkpt><trkpt lat="40.52265651024513" lon="8.33890886788745"><ele>67.0</ele><time>2026-05-02T14:02:13Z</time></trkpt><trkpt lat="40.52255128088068" lon="8.33910984107358"><ele>67.33333333333333</ele><time>2026-05-02T14:02:14Z</time></trkpt><trkpt lat="40.52244450825776" lon="8.339308771808273"><ele>67.66666666666667</ele><time>2026-05-02T14:02:15Z</time></trkpt><trkpt lat="40.52233733840167" lon="8.339503470372957"><ele>68.0</ele><time>2026-05-02T14:02:16Z</time></trkpt><trkpt lat="40.52224284354316" lon="8.339694706310116"><ele>69.33333333333334</ele><time>2026-05-02T14:02:17Z</time></trkpt><trkpt lat="40.52213881846413" lon="8.339885684599933"><ele>70.66666666666667</ele><time>2026-05-02T14:02:18Z</time></trkpt><trkpt lat="40.52203578005289" lon="8.340082864918106"><ele>72.0</ele><time>2026-05-02T14:02:19Z</time></trkpt><trkpt lat="40.52192589058963" lon="8.340261539869443"><ele>73.0</ele><time>2026-05-02T14:02:20Z</time></trkpt><trkpt lat="40.5218273160592" lon="8.340440626713104"><ele>74.0</ele><time>2026-05-02T14:02:21Z</time></trkpt><trkpt lat="40.52172212155542" lon="8.340620611465527"><ele>75.0</ele><time>2026-05-02T14:02:22Z</time></trkpt><trkpt lat="40.521614663539786" lon="8.340810716769273"><ele>75.33333333333333</ele><time>2026-05-02T14:02:23Z</time></trkpt><trkpt lat="40.52150096484891" lon="8.34102364262751"><ele>75.66666666666666</ele><time>2026-05-02T14:02:24Z</time></trkpt><trkpt lat="40.52138421896371" lon="8.341250260969558"><ele>76.0</ele><time>2026-05-02T14:02:25Z</time></trkpt><trkpt lat="40.521253714637325" lon="8.341484178056051"><ele>78.0</ele><time>2026-05-02T14:02:26Z</time></trkpt><trkpt lat="40.521096744243245" lon="8.341716010990094"><ele>80.0</ele><time>2026-05-02T14:02:27Z</time></trkpt><trkpt lat="40.52091017271241" lon="8.341904064140463"><ele>80.0</ele><time>2026-05-02T14:02:28Z</time></trkpt><trkpt lat="40.520695457797686" lon="8.342057286541525"><ele>80.0</ele><time>2026-05-02T14:02:29Z</time></trkpt><trkpt lat="40.52046583761602" lon="8.342192372883066"><ele>82.66666666666667</ele><time>2026-05-02T14:02:30Z</time></trkpt><trkpt lat="40.52025895268182" lon="8.342331914308836"><ele>85.33333333333333</ele><time>2026-05-02T14:02:31Z</time></trkpt><trkpt lat="40.52006081369315" lon="8.342446255163358"><ele>88.0</ele><time>2026-05-02T14:02:32Z</time></trkpt><trkpt lat="40.51985841175078" lon="8.342512883958602"><ele>88.0</ele><time>2026-05-02T14:02:33Z</time></trkpt><trkpt lat="40.51963885609442" lon="8.342513600616844"><ele>88.0</ele><time>2026-05-02T14:02:34Z</time></trkpt><trkpt lat="40.51940793584888" lon="8.342460527191507"><ele>90.0</ele><time>2026-05-02T14:02:35Z</time></trkpt><trkpt lat="40.519147912256365" lon="8.34239659480634"><ele>92.0</ele><time>2026-05-02T14:02:36Z</time></trkpt><trkpt lat="40.518874262096865" lon="8.342340432658297"><ele>92.5</ele><time>2026-05-02T14:02:37Z</time></trkpt><trkpt lat="40.51860623942192" lon="8.342298420006683"><ele>93.0</ele><time>2026-05-02T14:02:38Z</time></trkpt><trkpt lat="40.51833727156903" lon="8.342279117326708"><ele>93.0</ele><time>2026-05-02T14:02:39Z</time></trkpt><trkpt lat="40.518059167535164" lon="8.342278055213725"><ele>93.0</ele><time>2026-05-02T14:02:40Z</time></trkpt><trkpt lat="40.51778148758754" lon="8.342277356655304"><ele>93.0</ele><time>2026-05-02T14:02:41.001Z</time></trkpt><trkpt lat="40.51750118859677" lon="8.34227418720649"><ele>93.0</ele><time>2026-05-02T14:02:42.001Z</time></trkpt><trkpt lat="40.51721811111111" lon="8.342279495140685"><ele>93.0</ele><time>2026-05-02T14:02:43.001Z</time></trkpt><trkpt lat="40.516950015252405" lon="8.342280601382976"><ele>93.0</ele><time>2026-05-02T14:02:44.001Z</time></trkpt><trkpt lat="40.51670481583908" lon="8.34227555720139"><ele>93.0</ele><time>2026-05-02T14:02:45.001Z</time></trkpt><trkpt lat="40.51646837164716" lon="8.342276262998737"><ele>93.0</ele><time>2026-05-02T14:02:46.001Z</time></trkpt><trkpt lat="40.51622243088191" lon="8.342278157934928"><ele>94.0</ele><time>2026-05-02T14:02:47.001Z</time></trkpt><trkpt lat="40.515981621774266" lon="8.342273663215739"><ele>95.0</ele><time>2026-05-02T14:02:48.001Z</time></trkpt><trkpt lat="40.515751050291755" lon="8.34227014061267"><ele>95.0</ele><time>2026-05-02T14:02:49.001Z</time></trkpt><trkpt lat="40.51553477843755" lon="8.342278539565125"><ele>95.0</ele><time>2026-05-02T14:02:50.001Z</time></trkpt><trkpt lat="40.51531554771114" lon="8.342340883638954"><ele>95.0</ele><time>2026-05-02T14:02:51.001Z</time></trkpt><trkpt lat="40.51509762562921" lon="8.34246417939808"><ele>94.5</ele><time>2026-05-02T14:02:52.001Z</time></trkpt><trkpt lat="40.51487745330062" lon="8.342623823133566"><ele>94.0</ele><time>2026-05-02T14:02:53.001Z</time></trkpt><trkpt lat="40.51465686047019" lon="8.342769284132325"><ele>94.0</ele><time>2026-05-02T14:02:54.001Z</time></trkpt><trkpt lat="40.5144413766559" lon="8.342899691090464"><ele>94.0</ele><time>2026-05-02T14:02:55.001Z</time></trkpt><trkpt lat="40.51423933786775" lon="8.343035708977252"><ele>94.66666666666666</ele><time>2026-05-02T14:02:56.001Z</time></trkpt><trkpt lat="40.51406218382413" lon="8.343205553586715"><ele>95.33333333333333</ele><time>2026-05-02T14:02:57.001Z</time></trkpt><trkpt lat="40.51391163394967" lon="8.343427917465027"><ele>96.0</ele><time>2026-05-02T14:02:58.001Z</time></trkpt><trkpt lat="40.51376685312" lon="8.343694948278856"><ele>95.5</ele><time>2026-05-02T14:02:59.001Z</time></trkpt><trkpt lat="40.51362048310119" lon="8.343994895119591"><ele>95.0</ele><time>2026-05-02T14:03:00.001Z</time></trkpt><trkpt lat="40.51345761885403" lon="8.344296930046477"><ele>95.0</ele><time>2026-05-02T14:03:01.001Z</time></trkpt><trkpt lat="40.513291251285594" lon="8.344588263139528"><ele>95.0</ele><time>2026-05-02T14:03:02.001Z</time></trkpt><trkpt lat="40.51313520381206" lon="8.34487022286541"><ele>95.5</ele><time>2026-05-02T14:03:03.001Z</time></trkpt><trkpt lat="40.5129798536077" lon="8.345144341059143"><ele>96.0</ele><time>2026-05-02T14:03:04.001Z</time></trkpt><trkpt lat="40.51283809695632" lon="8.345405499063887"><ele>97.0</ele><time>2026-05-02T14:03:05.001Z</time></trkpt><trkpt lat="40.51270399307365" lon="8.345650279017203"><ele>98.0</ele><time>2026-05-02T14:03:06.001Z</time></trkpt><trkpt lat="40.51257918553832" lon="8.345872941760375"><ele>99.0</ele><time>2026-05-02T14:03:07.001Z</time></trkpt><trkpt lat="40.51247471248758" lon="8.346103116711602"><ele>99.0</ele><time>2026-05-02T14:03:08.001Z</time></trkpt><trkpt lat="40.512404089783104" lon="8.346335038771153"><ele>99.0</ele><time>2026-05-02T14:03:09.001Z</time></trkpt><trkpt lat="40.51235715076086" lon="8.346593642083512"><ele>99.0</ele><time>2026-05-02T14:03:10.001Z</time></trkpt><trkpt lat="40.51233566252298" lon="8.346886314232691"><ele>99.0</ele><time>2026-05-02T14:03:11.001Z</time></trkpt><trkpt lat="40.51230953380553" lon="8.347186341197723"><ele>99.0</ele><time>2026-05-02T14:03:12.001Z</time></trkpt><trkpt lat="40.51227174049017" lon="8.34749286015928"><ele>99.66666666666666</ele><time>2026-05-02T14:03:13.001Z</time></trkpt><trkpt lat="40.512232676682785" lon="8.347789886711958"><ele>100.33333333333333</ele><time>2026-05-02T14:03:14.001Z</time></trkpt><trkpt lat="40.5121957728019" lon="8.348063734213746"><ele>101.0</ele><time>2026-05-02T14:03:15.001Z</time></trkpt><trkpt lat="40.51216143373837" lon="8.348318772124037"><ele>101.33333333333333</ele><time>2026-05-02T14:03:16.001Z</time></trkpt><trkpt lat="40.512149763912" lon="8.348567095354749"><ele>101.66666666666666</ele><time>2026-05-02T14:03:17.001Z</time></trkpt><trkpt lat="40.51216950106209" lon="8.348826433239429"><ele>102.0</ele><time>2026-05-02T14:03:18.001Z</time></trkpt><trkpt lat="40.51221469362934" lon="8.349095739085092"><ele>103.0</ele><time>2026-05-02T14:03:19.001Z</time></trkpt><trkpt lat="40.5122659277341" lon="8.349371104170588"><ele>104.0</ele><time>2026-05-02T14:03:20.001Z</time></trkpt><trkpt lat="40.512309507128236" lon="8.349667274129457"><ele>105.0</ele><time>2026-05-02T14:03:21.001Z</time></trkpt><trkpt lat="40.51235008621029" lon="8.349975101409772"><ele>105.0</ele><time>2026-05-02T14:03:22.001Z</time></trkpt><trkpt lat="40.51239304974406" lon="8.350282940313656"><ele>105.0</ele><time>2026-05-02T14:03:23.001Z</time></trkpt><trkpt lat="40.512437756564594" lon="8.350584734952678"><ele>105.0</ele><time>2026-05-02T14:03:24.001Z</time></trkpt><trkpt lat="40.51247718521317" lon="8.350869741838547"><ele>105.0</ele><time>2026-05-02T14:03:25.001Z</time></trkpt><trkpt lat="40.51252732746517" lon="8.351144052290195"><ele>105.0</ele><time>2026-05-02T14:03:26.001Z</time></trkpt><trkpt lat="40.51256222445917" lon="8.351412822216412"><ele>106.66666666666666</ele><time>2026-05-02T14:03:27.001Z</time></trkpt><trkpt lat="40.51259060914785" lon="8.351679202318463"><ele>108.33333333333333</ele><time>2026-05-02T14:03:28.001Z</time></trkpt><trkpt lat="40.51262499189037" lon="8.351944456007534"><ele>110.0</ele><time>2026-05-02T14:03:29.001Z</time></trkpt><trkpt lat="40.51266327191398" lon="8.352188727119362"><ele>111.0</ele><time>2026-05-02T14:03:30.001Z</time></trkpt><trkpt lat="40.5127012698065" lon="8.352411804196285"><ele>112.0</ele><time>2026-05-02T14:03:31.001Z</time></trkpt><trkpt lat="40.51272592391257" lon="8.35263491154531"><ele>113.0</ele><time>2026-05-02T14:03:32.001Z</time></trkpt><trkpt lat="40.5127371264287" lon="8.352851759009472"><ele>112.0</ele><time>2026-05-02T14:03:33.001Z</time></trkpt><trkpt lat="40.51271748792143" lon="8.353064351253295"><ele>111.0</ele><time>2026-05-02T14:03:34Z</time></trkpt><trkpt lat="40.5126453883529" lon="8.353268537136906"><ele>110.0</ele><time>2026-05-02T14:03:35Z</time></trkpt><trkpt lat="40.51253500454024" lon="8.353475344726993"><ele>110.0</ele><time>2026-05-02T14:03:36Z</time></trkpt><trkpt lat="40.512414558778744" lon="8.3536783818683"><ele>110.0</ele><time>2026-05-02T14:03:37Z</time></trkpt><trkpt lat="40.512292045351415" lon="8.353887445623199"><ele>110.0</ele><time>2026-05-02T14:03:38Z</time></trkpt><trkpt lat="40.51217971177851" lon="8.354102978111735"><ele>107.0</ele><time>2026-05-02T14:03:39Z</time></trkpt><trkpt lat="40.51207173305569" lon="8.35432044835869"><ele>104.0</ele><time>2026-05-02T14:03:40Z</time></trkpt><trkpt lat="40.51195337069182" lon="8.354544894418819"><ele>101.0</ele><time>2026-05-02T14:03:41Z</time></trkpt><trkpt lat="40.511831779018344" lon="8.354774648373267"><ele>98.66666666666666</ele><time>2026-05-02T14:03:42Z</time></trkpt><trkpt lat="40.511705089190166" lon="8.355010979060127"><ele>96.33333333333333</ele><time>2026-05-02T14:03:43Z</time></trkpt><trkpt lat="40.51155447946924" lon="8.355220222999518"><ele>94.0</ele><time>2026-05-02T14:03:44Z</time></trkpt><trkpt lat="40.51137049302141" lon="8.355419685625867"><ele>89.5</ele><time>2026-05-02T14:03:45Z</time></trkpt><trkpt lat="40.51116696803748" lon="8.355596036962984"><ele>85.0</ele><time>2026-05-02T14:03:46Z</time></trkpt><trkpt lat="40.510975671246776" lon="8.35576498902176"><ele>85.0</ele><time>2026-05-02T14:03:47Z</time></trkpt><trkpt lat="40.51079656517502" lon="8.355929582531637"><ele>85.0</ele><time>2026-05-02T14:03:48Z</time></trkpt><trkpt lat="40.5106225014009" lon="8.356100723808538"><ele>85.0</ele><time>2026-05-02T14:03:49Z</time></trkpt><trkpt lat="40.5104554188034" lon="8.356274156460243"><ele>82.0</ele><time>2026-05-02T14:03:50Z</time></trkpt><trkpt lat="40.51029052777771" lon="8.356416213012272"><ele>79.0</ele><time>2026-05-02T14:03:51Z</time></trkpt><trkpt lat="40.51012828231458" lon="8.356543197307273"><ele>76.0</ele><time>2026-05-02T14:03:52Z</time></trkpt><trkpt lat="40.50996091207568" lon="8.356625056611739"><ele>76.0</ele><time>2026-05-02T14:03:53Z</time></trkpt><trkpt lat="40.509776033871326" lon="8.356679509317557"><ele>76.0</ele><time>2026-05-02T14:03:54Z</time></trkpt><trkpt lat="40.50955714255767" lon="8.35664223753122"><ele>76.0</ele><time>2026-05-02T14:03:55Z</time></trkpt><trkpt lat="40.50932784360819" lon="8.356610150447201"><ele>72.0</ele><time>2026-05-02T14:03:56Z</time></trkpt><trkpt lat="40.509082829033495" lon="8.35659227003176"><ele>68.0</ele><time>2026-05-02T14:03:57Z</time></trkpt><trkpt lat="40.50883248192809" lon="8.356587561676047"><ele>65.5</ele><time>2026-05-02T14:03:58Z</time></trkpt><trkpt lat="40.50857271464091" lon="8.356561843073642"><ele>63.0</ele><time>2026-05-02T14:03:59Z</time></trkpt><trkpt lat="40.50831037283826" lon="8.356543376816264"><ele>63.0</ele><time>2026-05-02T14:04:00Z</time></trkpt><trkpt lat="40.50804856267074" lon="8.356543707897691"><ele>63.0</ele><time>2026-05-02T14:04:01Z</time></trkpt><trkpt lat="40.50778331976047" lon="8.356532924268777"><ele>61.0</ele><time>2026-05-02T14:04:02Z</time></trkpt><trkpt lat="40.507525560802385" lon="8.356510511387182"><ele>59.0</ele><time>2026-05-02T14:04:03Z</time></trkpt><trkpt lat="40.507271360333405" lon="8.356489567040123"><ele>57.5</ele><time>2026-05-02T14:04:04Z</time></trkpt><trkpt lat="40.50702390083968" lon="8.356469660530458"><ele>56.0</ele><time>2026-05-02T14:04:05Z</time></trkpt><trkpt lat="40.50678263494047" lon="8.3564565568309"><ele>56.0</ele><time>2026-05-02T14:04:06Z</time></trkpt><trkpt lat="40.506548547405316" lon="8.356443699944423"><ele>56.0</ele><time>2026-05-02T14:04:07Z</time></trkpt><trkpt lat="40.50631644513037" lon="8.356439655758793"><ele>56.5</ele><time>2026-05-02T14:04:08Z</time></trkpt><trkpt lat="40.506090797496675" lon="8.35651721780629"><ele>57.0</ele><time>2026-05-02T14:04:09Z</time></trkpt><trkpt lat="40.5058634885969" lon="8.356653194031903"><ele>57.0</ele><time>2026-05-02T14:04:10Z</time></trkpt><trkpt lat="40.50564481409975" lon="8.356824322396655"><ele>57.0</ele><time>2026-05-02T14:04:11Z</time></trkpt><trkpt lat="40.505427763550536" lon="8.356992200134114"><ele>59.0</ele><time>2026-05-02T14:04:12Z</time></trkpt><trkpt lat="40.505216317444216" lon="8.357144531830487"><ele>61.0</ele><time>2026-05-02T14:04:13Z</time></trkpt><trkpt lat="40.50500064060112" lon="8.357296473965373"><ele>61.0</ele><time>2026-05-02T14:04:14Z</time></trkpt><trkpt lat="40.50478796051214" lon="8.357412099379802"><ele>61.0</ele><time>2026-05-02T14:04:15Z</time></trkpt><trkpt lat="40.50455447587089" lon="8.357547841234682"><ele>62.5</ele><time>2026-05-02T14:04:16Z</time></trkpt><trkpt lat="40.50430899827921" lon="8.357657998863122"><ele>64.0</ele><time>2026-05-02T14:04:17Z</time></trkpt><trkpt lat="40.5040604959281" lon="8.35776610852095"><ele>64.0</ele><time>2026-05-02T14:04:18Z</time></trkpt><trkpt lat="40.503827665430734" lon="8.357863428820659"><ele>64.0</ele><time>2026-05-02T14:04:19Z</time></trkpt><trkpt lat="40.503598011369846" lon="8.357960724796474"><ele>64.33333333333333</ele><time>2026-05-02T14:04:20Z</time></trkpt><trkpt lat="40.503382122246634" lon="8.358066347865247"><ele>64.66666666666667</ele><time>2026-05-02T14:04:21Z</time></trkpt><trkpt lat="40.50319910887226" lon="8.358155593712002"><ele>65.0</ele><time>2026-05-02T14:04:22Z</time></trkpt><trkpt lat="40.503046287551626" lon="8.358257061122094"><ele>65.0</ele><time>2026-05-02T14:04:23Z</time></trkpt><trkpt lat="40.50292756852104" lon="8.358437584233485"><ele>65.0</ele><time>2026-05-02T14:04:24Z</time></trkpt><trkpt lat="40.50283996124851" lon="8.358648851114442"><ele>65.0</ele><time>2026-05-02T14:04:25Z</time></trkpt><trkpt lat="40.502747924065105" lon="8.35892853659216"><ele>70.0</ele><time>2026-05-02T14:04:26Z</time></trkpt><trkpt lat="40.5026417068156" lon="8.35920845748679"><ele>75.0</ele><time>2026-05-02T14:04:27Z</time></trkpt><trkpt lat="40.50253800789565" lon="8.359491149537838"><ele>72.0</ele><time>2026-05-02T14:04:28Z</time></trkpt><trkpt lat="40.50245530979775" lon="8.359763840952906"><ele>69.0</ele><time>2026-05-02T14:04:29Z</time></trkpt><trkpt lat="40.50238647403643" lon="8.360065806885531"><ele>69.0</ele><time>2026-05-02T14:04:30Z</time></trkpt><trkpt lat="40.502350104224305" lon="8.36035520427427"><ele>69.0</ele><time>2026-05-02T14:04:31Z</time></trkpt><trkpt lat="40.50234231464993" lon="8.360651358759004"><ele>69.0</ele><time>2026-05-02T14:04:32Z</time></trkpt><trkpt lat="40.50230453498062" lon="8.360952206692534"><ele>66.5</ele><time>2026-05-02T14:04:33.001Z</time></trkpt><trkpt lat="40.50224037220473" lon="8.361257601744565"><ele>64.0</ele><time>2026-05-02T14:04:34.001Z</time></trkpt><trkpt lat="40.502174259296844" lon="8.361538956274645"><ele>61.5</ele><time>2026-05-02T14:04:35.001Z</time></trkpt><trkpt lat="40.502105116911" lon="8.361834523854574"><ele>59.0</ele><time>2026-05-02T14:04:36.001Z</time></trkpt><trkpt lat="40.502028059919006" lon="8.362131211050194"><ele>69.0</ele><time>2026-05-02T14:04:37.001Z</time></trkpt><trkpt lat="40.50196420211012" lon="8.36244249096111"><ele>79.0</ele><time>2026-05-02T14:04:38.001Z</time></trkpt><trkpt lat="40.501891756213475" lon="8.362752745452639"><ele>75.0</ele><time>2026-05-02T14:04:39.001Z</time></trkpt><trkpt lat="40.501821995469484" lon="8.363077795633256"><ele>71.0</ele><time>2026-05-02T14:04:40.001Z</time></trkpt><trkpt lat="40.50175116162614" lon="8.363392500672193"><ele>71.0</ele><time>2026-05-02T14:04:41.001Z</time></trkpt><trkpt lat="40.501688314527115" lon="8.363689588914113"><ele>71.0</ele><time>2026-05-02T14:04:42.001Z</time></trkpt><trkpt lat="40.5016203224817" lon="8.363967924260198"><ele>68.66666666666667</ele><time>2026-05-02T14:04:43.001Z</time></trkpt><trkpt lat="40.50154115669732" lon="8.364240999166032"><ele>66.33333333333333</ele><time>2026-05-02T14:04:44.001Z</time></trkpt><trkpt lat="40.501472963958676" lon="8.364496014060665"><ele>64.0</ele><time>2026-05-02T14:04:45.001Z</time></trkpt><trkpt lat="40.501405403088505" lon="8.36472719134725"><ele>66.33333333333333</ele><time>2026-05-02T14:04:46.001Z</time></trkpt><trkpt lat="40.50131888198331" lon="8.364950441459847"><ele>68.66666666666667</ele><time>2026-05-02T14:04:47.001Z</time></trkpt><trkpt lat="40.5011858628559" lon="8.365160044340696"><ele>71.0</ele><time>2026-05-02T14:04:48.001Z</time></trkpt><trkpt lat="40.501016115884845" lon="8.365349800314483"><ele>71.0</ele><time>2026-05-02T14:04:49.001Z</time></trkpt><trkpt lat="40.50081051303729" lon="8.365516962572343"><ele>71.0</ele><time>2026-05-02T14:04:50.001Z</time></trkpt><trkpt lat="40.500585321799576" lon="8.365664450878041"><ele>60.5</ele><time>2026-05-02T14:04:51.001Z</time></trkpt><trkpt lat="40.500356196740015" lon="8.365813821734084"><ele>50.0</ele><time>2026-05-02T14:04:52.001Z</time></trkpt><trkpt lat="40.500136999671" lon="8.36595152611444"><ele>50.0</ele><time>2026-05-02T14:04:53.001Z</time></trkpt><trkpt lat="40.49992681016902" lon="8.36611081421009"><ele>50.0</ele><time>2026-05-02T14:04:54.001Z</time></trkpt><trkpt lat="40.49973743746648" lon="8.366266188584333"><ele>48.66666666666667</ele><time>2026-05-02T14:04:55.001Z</time></trkpt><trkpt lat="40.49959344237061" lon="8.36642737224462"><ele>47.333333333333336</ele><time>2026-05-02T14:04:56.001Z</time></trkpt><trkpt lat="40.49948865065048" lon="8.366627332466265"><ele>46.0</ele><time>2026-05-02T14:04:57.001Z</time></trkpt><trkpt lat="40.499416107725544" lon="8.366846888318133"><ele>46.0</ele><time>2026-05-02T14:04:58.001Z</time></trkpt><trkpt lat="40.499414553423726" lon="8.36709454528409"><ele>46.0</ele><time>2026-05-02T14:04:59.001Z</time></trkpt><trkpt lat="40.49942272709952" lon="8.367347151785939"><ele>46.0</ele><time>2026-05-02T14:05:00.001Z</time></trkpt><trkpt lat="40.49940727094318" lon="8.367569908477657"><ele>42.0</ele><time>2026-05-02T14:05:01.001Z</time></trkpt><trkpt lat="40.49932899138187" lon="8.367756754959037"><ele>38.0</ele><time>2026-05-02T14:05:02.001Z</time></trkpt><trkpt lat="40.49922230820816" lon="8.367914530464459"><ele>34.0</ele><time>2026-05-02T14:05:03.001Z</time></trkpt><trkpt lat="40.49908757844342" lon="8.368028732700845"><ele>28.333333333333336</ele><time>2026-05-02T14:05:04.001Z</time></trkpt><trkpt lat="40.49893026010011" lon="8.368114650386499"><ele>22.666666666666668</ele><time>2026-05-02T14:05:05.001Z</time></trkpt><trkpt lat="40.49875738553023" lon="8.368119841985594"><ele>17.0</ele><time>2026-05-02T14:05:06.001Z</time></trkpt><trkpt lat="40.49856838016929" lon="8.368092983887559"><ele>22.0</ele><time>2026-05-02T14:05:07.001Z</time></trkpt><trkpt lat="40.49838136616617" lon="8.368021114334033"><ele>27.0</ele><time>2026-05-02T14:05:08.001Z</time></trkpt><trkpt lat="40.498207973529716" lon="8.367948643517172"><ele>32.0</ele><time>2026-05-02T14:05:09.001Z</time></trkpt><trkpt lat="40.4980578020487" lon="8.36789366791646"><ele>32.0</ele><time>2026-05-02T14:05:10.001Z</time></trkpt><trkpt lat="40.49792615140226" lon="8.367885452878099"><ele>32.0</ele><time>2026-05-02T14:05:11.001Z</time></trkpt><trkpt lat="40.497806972614356" lon="8.367955756871766"><ele>32.0</ele><time>2026-05-02T14:05:12.001Z</time></trkpt><trkpt lat="40.49772413718024" lon="8.368065467677377"><ele>32.0</ele><time>2026-05-02T14:05:13.001Z</time></trkpt><trkpt lat="40.49766407364362" lon="8.368215024130143"><ele>24.666666666666664</ele><time>2026-05-02T14:05:14.001Z</time></trkpt><trkpt lat="40.49762067149806" lon="8.368425509881243"><ele>17.333333333333332</ele><time>2026-05-02T14:05:15.001Z</time></trkpt><trkpt lat="40.4975943479915" lon="8.368687311725836"><ele>10.0</ele><time>2026-05-02T14:05:16.001Z</time></trkpt><trkpt lat="40.49757507916351" lon="8.368963812390042"><ele>9.666666666666668</ele><time>2026-05-02T14:05:17.001Z</time></trkpt><trkpt lat="40.49753918566471" lon="8.369263567760665"><ele>9.333333333333334</ele><time>2026-05-02T14:05:18.001Z</time></trkpt><trkpt lat="40.49749276402349" lon="8.36953374032245"><ele>9.0</ele><time>2026-05-02T14:05:19.001Z</time></trkpt><trkpt lat="40.49744788326397" lon="8.369800251969087"><ele>10.333333333333332</ele><time>2026-05-02T14:05:20.001Z</time></trkpt><trkpt lat="40.49739837399536" lon="8.370079894629939"><ele>11.666666666666666</ele><time>2026-05-02T14:05:21.001Z</time></trkpt><trkpt lat="40.49735335366039" lon="8.370361837444682"><ele>13.0</ele><time>2026-05-02T14:05:22.001Z</time></trkpt><trkpt lat="40.49730361409719" lon="8.370620850217641"><ele>14.0</ele><time>2026-05-02T14:05:23.001Z</time></trkpt><trkpt lat="40.49724474087302" lon="8.370839215024773"><ele>15.0</ele><time>2026-05-02T14:05:24.001Z</time></trkpt><trkpt lat="40.49714173116798" lon="8.371005377935452"><ele>16.0</ele><time>2026-05-02T14:05:25.001Z</time></trkpt><trkpt lat="40.49699164996746" lon="8.37110241441923"><ele>16.0</ele><time>2026-05-02T14:05:26.001Z</time></trkpt><trkpt lat="40.496809120967875" lon="8.371155740011877"><ele>16.0</ele><time>2026-05-02T14:05:27.001Z</time></trkpt><trkpt lat="40.49659748836824" lon="8.37119335769671"><ele>16.0</ele><time>2026-05-02T14:05:28.001Z</time></trkpt><trkpt lat="40.496389275362176" lon="8.371252499869875"><ele>15.333333333333332</ele><time>2026-05-02T14:05:29.001Z</time></trkpt><trkpt lat="40.496192092047515" lon="8.371331329264864"><ele>14.666666666666668</ele><time>2026-05-02T14:05:30.001Z</time></trkpt><trkpt lat="40.49601183570652" lon="8.371410280959509"><ele>14.0</ele><time>2026-05-02T14:05:31.001Z</time></trkpt><trkpt lat="40.49583413066714" lon="8.371482050278825"><ele>15.666666666666668</ele><time>2026-05-02T14:05:32.001Z</time></trkpt><trkpt lat="40.49564607595159" lon="8.371551989613172"><ele>17.333333333333332</ele><time>2026-05-02T14:05:33.001Z</time></trkpt><trkpt lat="40.495464909643395" lon="8.371622289511789"><ele>19.0</ele><time>2026-05-02T14:05:34.001Z</time></trkpt><trkpt lat="40.49528518122424" lon="8.371703739960175"><ele>19.333333333333332</ele><time>2026-05-02T14:05:35.001Z</time></trkpt><trkpt lat="40.495107071063806" lon="8.371791995296213"><ele>19.666666666666668</ele><time>2026-05-02T14:05:36.001Z</time></trkpt><trkpt lat="40.49493321042444" lon="8.371892550344015"><ele>20.0</ele><time>2026-05-02T14:05:37.001Z</time></trkpt><trkpt lat="40.49474862911853" lon="8.371982492667232"><ele>18.333333333333336</ele><time>2026-05-02T14:05:38.001Z</time></trkpt><trkpt lat="40.494557831873436" lon="8.372085639108533"><ele>16.666666666666668</ele><time>2026-05-02T14:05:39.001Z</time></trkpt><trkpt lat="40.49438058770468" lon="8.372182427466385"><ele>15.0</ele><time>2026-05-02T14:05:40Z</time></trkpt><trkpt lat="40.494225290060555" lon="8.372271401298708"><ele>18.666666666666664</ele><time>2026-05-02T14:05:41Z</time></trkpt><trkpt lat="40.49408410027521" lon="8.372391335730912"><ele>22.333333333333332</ele><time>2026-05-02T14:05:42Z</time></trkpt><trkpt lat="40.49394845076916" lon="8.372576021886896"><ele>26.0</ele><time>2026-05-02T14:05:43Z</time></trkpt><trkpt lat="40.49380235784637" lon="8.372812549640434"><ele>28.5</ele><time>2026-05-02T14:05:44Z</time></trkpt><trkpt lat="40.49363862718566" lon="8.373076360221768"><ele>31.0</ele><time>2026-05-02T14:05:45Z</time></trkpt><trkpt lat="40.493473638016255" lon="8.373313023578843"><ele>31.0</ele><time>2026-05-02T14:05:46Z</time></trkpt><trkpt lat="40.49332058453835" lon="8.373514085654804"><ele>31.0</ele><time>2026-05-02T14:05:47Z</time></trkpt><trkpt lat="40.49318173144579" lon="8.37370179558145"><ele>31.0</ele><time>2026-05-02T14:05:48Z</time></trkpt><trkpt lat="40.49304585274924" lon="8.373852369948079"><ele>33.66666666666667</ele><time>2026-05-02T14:05:49Z</time></trkpt><trkpt lat="40.49289109345712" lon="8.373940022215066"><ele>36.333333333333336</ele><time>2026-05-02T14:05:50Z</time></trkpt><trkpt lat="40.49269725831107" lon="8.373981579622644"><ele>39.0</ele><time>2026-05-02T14:05:51Z</time></trkpt><trkpt lat="40.492478331721394" lon="8.374012829831905"><ele>39.0</ele><time>2026-05-02T14:05:52Z</time></trkpt><trkpt lat="40.49229237513889" lon="8.374043767992568"><ele>39.0</ele><time>2026-05-02T14:05:53Z</time></trkpt><trkpt lat="40.492126113158754" lon="8.374087566648031"><ele>39.0</ele><time>2026-05-02T14:05:54Z</time></trkpt><trkpt lat="40.49196408984592" lon="8.374180682874124"><ele>36.666666666666664</ele><time>2026-05-02T14:05:55Z</time></trkpt><trkpt lat="40.49179530516794" lon="8.374320915282008"><ele>34.33333333333333</ele><time>2026-05-02T14:05:56Z</time></trkpt><trkpt lat="40.49161181788317" lon="8.374492804233812"><ele>32.0</ele><time>2026-05-02T14:05:57Z</time></trkpt><trkpt lat="40.49142832045701" lon="8.3746506908217"><ele>35.33333333333333</ele><time>2026-05-02T14:05:58Z</time></trkpt><trkpt lat="40.49124164281736" lon="8.374806543791985"><ele>38.666666666666664</ele><time>2026-05-02T14:05:59Z</time></trkpt><trkpt lat="40.49107236976676" lon="8.374933979719685"><ele>42.0</ele><time>2026-05-02T14:06:00Z</time></trkpt><trkpt lat="40.4908983016638" lon="8.375091562429855"><ele>42.0</ele><time>2026-05-02T14:06:01Z</time></trkpt><trkpt lat="40.49072990561943" lon="8.375228022590528"><ele>42.0</ele><time>2026-05-02T14:06:02Z</time></trkpt><trkpt lat="40.49058366507415" lon="8.375359535559584"><ele>42.0</ele><time>2026-05-02T14:06:03Z</time></trkpt><trkpt lat="40.49045127254724" lon="8.37551741146339"><ele>43.0</ele><time>2026-05-02T14:06:04Z</time></trkpt><trkpt lat="40.49035740543964" lon="8.375714985866523"><ele>44.0</ele><time>2026-05-02T14:06:05Z</time></trkpt><trkpt lat="40.49029093673062" lon="8.375941046203662"><ele>45.0</ele><time>2026-05-02T14:06:06Z</time></trkpt><trkpt lat="40.49028788654742" lon="8.376172300362065"><ele>45.0</ele><time>2026-05-02T14:06:07Z</time></trkpt><trkpt lat="40.49032335758736" lon="8.376412397300893"><ele>45.0</ele><time>2026-05-02T14:06:08Z</time></trkpt><trkpt lat="40.49039707463958" lon="8.376635922446903"><ele>45.0</ele><time>2026-05-02T14:06:09Z</time></trkpt><trkpt lat="40.490512320785754" lon="8.376879834298835"><ele>49.33333333333333</ele><time>2026-05-02T14:06:10Z</time></trkpt><trkpt lat="40.49064797616321" lon="8.377132329695051"><ele>53.666666666666664</ele><time>2026-05-02T14:06:11Z</time></trkpt><trkpt lat="40.49076460412906" lon="8.377348639717265"><ele>58.0</ele><time>2026-05-02T14:06:12Z</time></trkpt><trkpt lat="40.490843327453064" lon="8.377569323023659"><ele>58.0</ele><time>2026-05-02T14:06:13Z</time></trkpt><trkpt lat="40.4908667579565" lon="8.377799440366813"><ele>58.0</ele><time>2026-05-02T14:06:14Z</time></trkpt><trkpt lat="40.49083119458712" lon="8.378020830462873"><ele>58.0</ele><time>2026-05-02T14:06:15.001Z</time></trkpt><trkpt lat="40.49074501738258" lon="8.378216306009456"><ele>56.0</ele><time>2026-05-02T14:06:16.001Z</time></trkpt><trkpt lat="40.49060297282896" lon="8.378385024716215"><ele>54.0</ele><time>2026-05-02T14:06:17.001Z</time></trkpt><trkpt lat="40.49042100933245" lon="8.378500769506305"><ele>52.0</ele><time>2026-05-02T14:06:18.001Z</time></trkpt><trkpt lat="40.490232180716575" lon="8.378558758786749"><ele>52.0</ele><time>2026-05-02T14:06:19.001Z</time></trkpt><trkpt lat="40.490048635503065" lon="8.378527373643019"><ele>52.0</ele><time>2026-05-02T14:06:20.001Z</time></trkpt><trkpt lat="40.489872381810876" lon="8.378430305402155"><ele>52.0</ele><time>2026-05-02T14:06:21.001Z</time></trkpt><trkpt lat="40.48971492350596" lon="8.37826154971395"><ele>54.5</ele><time>2026-05-02T14:06:22.001Z</time></trkpt><trkpt lat="40.489566538023794" lon="8.378029377465813"><ele>57.0</ele><time>2026-05-02T14:06:23.001Z</time></trkpt><trkpt lat="40.489429370730164" lon="8.37779641764977"><ele>53.333333333333336</ele><time>2026-05-02T14:06:24.001Z</time></trkpt><trkpt lat="40.48932898624607" lon="8.377579123601517"><ele>49.66666666666667</ele><time>2026-05-02T14:06:25.001Z</time></trkpt><trkpt lat="40.489262923066136" lon="8.377344471712265"><ele>46.0</ele><time>2026-05-02T14:06:26.001Z</time></trkpt><trkpt lat="40.48923118497189" lon="8.377050408694767"><ele>43.0</ele><time>2026-05-02T14:06:27.001Z</time></trkpt><trkpt lat="40.489209454957475" lon="8.376737537197215"><ele>40.0</ele><time>2026-05-02T14:06:28.001Z</time></trkpt><trkpt lat="40.48917970004742" lon="8.376489872071074"><ele>37.0</ele><time>2026-05-02T14:06:29.001Z</time></trkpt><trkpt lat="40.48913045516648" lon="8.376277194476945"><ele>35.25</ele><time>2026-05-02T14:06:30.001Z</time></trkpt><trkpt lat="40.48904825285605" lon="8.376109405620053"><ele>33.5</ele><time>2026-05-02T14:06:31.001Z</time></trkpt><trkpt lat="40.48894114518079" lon="8.375980539089062"><ele>31.75</ele><time>2026-05-02T14:06:32.001Z</time></trkpt><trkpt lat="40.488809923096184" lon="8.375891745077041"><ele>30.0</ele><time>2026-05-02T14:06:33.001Z</time></trkpt><trkpt lat="40.48866904851475" lon="8.375843810788462"><ele>29.5</ele><time>2026-05-02T14:06:34.001Z</time></trkpt><trkpt lat="40.48853090178769" lon="8.37583389096778"><ele>29.0</ele><time>2026-05-02T14:06:35.001Z</time></trkpt><trkpt lat="40.4883787025986" lon="8.375854481441081"><ele>28.5</ele><time>2026-05-02T14:06:36.001Z</time></trkpt><trkpt lat="40.48823766524" lon="8.375920827382046"><ele>28.0</ele><time>2026-05-02T14:06:37.001Z</time></trkpt><trkpt lat="40.48810305615084" lon="8.376025170573921"><ele>28.0</ele><time>2026-05-02T14:06:38.001Z</time></trkpt><trkpt lat="40.48796756257212" lon="8.376134179588284"><ele>28.0</ele><time>2026-05-02T14:06:39.001Z</time></trkpt><trkpt lat="40.48783255036664" lon="8.376248300171966"><ele>28.0</ele><time>2026-05-02T14:06:40.001Z</time></trkpt><trkpt lat="40.4877025572677" lon="8.376359763161098"><ele>29.75</ele><time>2026-05-02T14:06:41.001Z</time></trkpt><trkpt lat="40.487566648774894" lon="8.376464052045018"><ele>31.5</ele><time>2026-05-02T14:06:42.001Z</time></trkpt><trkpt lat="40.48744848692406" lon="8.376563309573726"><ele>33.25</ele><time>2026-05-02T14:06:43.001Z</time></trkpt><trkpt lat="40.4873493872176" lon="8.376672728084602"><ele>35.0</ele><time>2026-05-02T14:06:44.001Z</time></trkpt><trkpt lat="40.48726609156267" lon="8.37678288237294"><ele>35.0</ele><time>2026-05-02T14:06:45.001Z</time></trkpt><trkpt lat="40.4871919993582" lon="8.376911904493806"><ele>35.0</ele><time>2026-05-02T14:06:46.001Z</time></trkpt><trkpt lat="40.48712523562819" lon="8.377103703067391"><ele>35.0</ele><time>2026-05-02T14:06:47.001Z</time></trkpt><trkpt lat="40.48705810557814" lon="8.37734878853441"><ele>33.33333333333333</ele><time>2026-05-02T14:06:48.001Z</time></trkpt><trkpt lat="40.487003725125675" lon="8.377582363672909"><ele>31.666666666666664</ele><time>2026-05-02T14:06:49.001Z</time></trkpt><trkpt lat="40.48694544132079" lon="8.377805364735195"><ele>30.0</ele><time>2026-05-02T14:06:50.001Z</time></trkpt><trkpt lat="40.4868671739145" lon="8.377996483297796"><ele>32.666666666666664</ele><time>2026-05-02T14:06:51.001Z</time></trkpt><trkpt lat="40.48674122083128" lon="8.378145907253666"><ele>35.33333333333333</ele><time>2026-05-02T14:06:52.001Z</time></trkpt><trkpt lat="40.48655811568554" lon="8.37826761110245"><ele>38.0</ele><time>2026-05-02T14:06:53.001Z</time></trkpt><trkpt lat="40.48634574166801" lon="8.37838951273794"><ele>38.666666666666664</ele><time>2026-05-02T14:06:54.001Z</time></trkpt><trkpt lat="40.48615315922886" lon="8.378461041793958"><ele>39.333333333333336</ele><time>2026-05-02T14:06:55.001Z</time></trkpt><trkpt lat="40.485954217741934" lon="8.378476992258577"><ele>40.0</ele><time>2026-05-02T14:06:56.001Z</time></trkpt><trkpt lat="40.48577531401389" lon="8.378440689337493"><ele>40.0</ele><time>2026-05-02T14:06:57.001Z</time></trkpt><trkpt lat="40.485622039108364" lon="8.378357924021048"><ele>40.0</ele><time>2026-05-02T14:06:58.001Z</time></trkpt><trkpt lat="40.48550533750174" lon="8.37822059072686"><ele>40.0</ele><time>2026-05-02T14:06:59.001Z</time></trkpt><trkpt lat="40.485410005924095" lon="8.37801905444386"><ele>39.0</ele><time>2026-05-02T14:07:00.001Z</time></trkpt><trkpt lat="40.48532443641599" lon="8.377769738646501"><ele>38.0</ele><time>2026-05-02T14:07:01.001Z</time></trkpt><trkpt lat="40.4852179249422" lon="8.377539199307545"><ele>37.0</ele><time>2026-05-02T14:07:02.001Z</time></trkpt><trkpt lat="40.485068601056916" lon="8.377358660234709"><ele>37.0</ele><time>2026-05-02T14:07:03.001Z</time></trkpt><trkpt lat="40.4848895187862" lon="8.377229459633604"><ele>37.0</ele><time>2026-05-02T14:07:04.001Z</time></trkpt><trkpt lat="40.48469145285515" lon="8.377144544018837"><ele>37.0</ele><time>2026-05-02T14:07:05.001Z</time></trkpt><trkpt lat="40.48448605645699" lon="8.377123211315457"><ele>36.66666666666667</ele><time>2026-05-02T14:07:06.001Z</time></trkpt><trkpt lat="40.48427278885894" lon="8.377153184903994"><ele>36.333333333333336</ele><time>2026-05-02T14:07:07.001Z</time></trkpt><trkpt lat="40.48406343531705" lon="8.37723671705391"><ele>36.0</ele><time>2026-05-02T14:07:08.001Z</time></trkpt><trkpt lat="40.48383309662458" lon="8.377384636646358"><ele>36.5</ele><time>2026-05-02T14:07:09.001Z</time></trkpt><trkpt lat="40.483589808741506" lon="8.37756759223969"><ele>37.0</ele><time>2026-05-02T14:07:10.001Z</time></trkpt><trkpt lat="40.48334163409649" lon="8.377741360991937"><ele>37.0</ele><time>2026-05-02T14:07:11.001Z</time></trkpt><trkpt lat="40.48307829808709" lon="8.37787399773107"><ele>37.0</ele><time>2026-05-02T14:07:12.001Z</time></trkpt><trkpt lat="40.48280041521839" lon="8.377939269740784"><ele>35.5</ele><time>2026-05-02T14:07:13.001Z</time></trkpt><trkpt lat="40.482537268419506" lon="8.377944103715723"><ele>34.0</ele><time>2026-05-02T14:07:14.001Z</time></trkpt><trkpt lat="40.48227067301422" lon="8.3779030436582"><ele>32.0</ele><time>2026-05-02T14:07:15.001Z</time></trkpt><trkpt lat="40.48199238703665" lon="8.377854574655641"><ele>30.0</ele><time>2026-05-02T14:07:16.001Z</time></trkpt><trkpt lat="40.48172079423501" lon="8.377789400208915"><ele>30.0</ele><time>2026-05-02T14:07:17.001Z</time></trkpt><trkpt lat="40.48145312023156" lon="8.377742243890445"><ele>30.0</ele><time>2026-05-02T14:07:18.001Z</time></trkpt><trkpt lat="40.48118898148665" lon="8.377712860957095"><ele>29.0</ele><time>2026-05-02T14:07:19.001Z</time></trkpt><trkpt lat="40.48093796681611" lon="8.377682188211054"><ele>28.0</ele><time>2026-05-02T14:07:20.001Z</time></trkpt><trkpt lat="40.48070260245116" lon="8.37765285939211"><ele>28.0</ele><time>2026-05-02T14:07:21.001Z</time></trkpt><trkpt lat="40.480462491619946" lon="8.377642809081566"><ele>28.0</ele><time>2026-05-02T14:07:22.001Z</time></trkpt><trkpt lat="40.480215350064384" lon="8.377674047185781"><ele>29.5</ele><time>2026-05-02T14:07:23.001Z</time></trkpt><trkpt lat="40.479960505477635" lon="8.377737033863507"><ele>31.0</ele><time>2026-05-02T14:07:24.001Z</time></trkpt><trkpt lat="40.479705773542655" lon="8.37781037858208"><ele>31.0</ele><time>2026-05-02T14:07:25.001Z</time></trkpt><trkpt lat="40.479453234153574" lon="8.37789272585034"><ele>31.0</ele><time>2026-05-02T14:07:26.001Z</time></trkpt><trkpt lat="40.47923152566881" lon="8.37798286025121"><ele>34.66666666666667</ele><time>2026-05-02T14:07:27.001Z</time></trkpt><trkpt lat="40.479016309907145" lon="8.37806329563165"><ele>38.333333333333336</ele><time>2026-05-02T14:07:28.001Z</time></trkpt><trkpt lat="40.47881657835881" lon="8.378150606090967"><ele>42.0</ele><time>2026-05-02T14:07:29.001Z</time></trkpt><trkpt lat="40.47861673127022" lon="8.37825231269265"><ele>42.0</ele><time>2026-05-02T14:07:30.001Z</time></trkpt><trkpt lat="40.478422026752334" lon="8.378409801666121"><ele>42.0</ele><time>2026-05-02T14:07:31.001Z</time></trkpt><trkpt lat="40.47823485552944" lon="8.378615346594378"><ele>42.0</ele><time>2026-05-02T14:07:32.001Z</time></trkpt><trkpt lat="40.47804343353141" lon="8.378850883036378"><ele>42.0</ele><time>2026-05-02T14:07:33.002Z</time></trkpt><trkpt lat="40.47783802510182" lon="8.37910187982433"><ele>45.0</ele><time>2026-05-02T14:07:34.002Z</time></trkpt><trkpt lat="40.47763608031389" lon="8.379339555943254"><ele>48.0</ele><time>2026-05-02T14:07:35.002Z</time></trkpt><trkpt lat="40.477443277483864" lon="8.379557057473866"><ele>49.0</ele><time>2026-05-02T14:07:36.002Z</time></trkpt><trkpt lat="40.477256832830406" lon="8.379750744045747"><ele>50.0</ele><time>2026-05-02T14:07:37.002Z</time></trkpt><trkpt lat="40.477064581453654" lon="8.379883735133584"><ele>50.0</ele><time>2026-05-02T14:07:38.002Z</time></trkpt><trkpt lat="40.47684444990987" lon="8.379960992944003"><ele>50.0</ele><time>2026-05-02T14:07:39.002Z</time></trkpt><trkpt lat="40.47660363261555" lon="8.379983918125006"><ele>50.0</ele><time>2026-05-02T14:07:40.002Z</time></trkpt><trkpt lat="40.47636779776796" lon="8.37998675039068"><ele>50.0</ele><time>2026-05-02T14:07:41.002Z</time></trkpt><trkpt lat="40.476155325555055" lon="8.380016255751784"><ele>50.0</ele><time>2026-05-02T14:07:42.002Z</time></trkpt><trkpt lat="40.47595006923858" lon="8.380090230688367"><ele>47.0</ele><time>2026-05-02T14:07:43.002Z</time></trkpt><trkpt lat="40.47575459572721" lon="8.380214308360058"><ele>44.0</ele><time>2026-05-02T14:07:44.002Z</time></trkpt><trkpt lat="40.475564534560164" lon="8.380403202852651"><ele>47.5</ele><time>2026-05-02T14:07:45.002Z</time></trkpt><trkpt lat="40.475382514621955" lon="8.38060348463341"><ele>51.0</ele><time>2026-05-02T14:07:46.001Z</time></trkpt><trkpt lat="40.475188794055875" lon="8.380764443884038"><ele>51.0</ele><time>2026-05-02T14:07:47.001Z</time></trkpt><trkpt lat="40.474972113838184" lon="8.38087404158089"><ele>51.0</ele><time>2026-05-02T14:07:48.001Z</time></trkpt><trkpt lat="40.474719557785605" lon="8.38095268779761"><ele>49.0</ele><time>2026-05-02T14:07:49.001Z</time></trkpt><trkpt lat="40.474460018843324" lon="8.381007623996169"><ele>47.0</ele><time>2026-05-02T14:07:50.001Z</time></trkpt><trkpt lat="40.47420472519326" lon="8.381070020658646"><ele>47.0</ele><time>2026-05-02T14:07:51.001Z</time></trkpt><trkpt lat="40.47396996660376" lon="8.381137042101"><ele>47.0</ele><time>2026-05-02T14:07:52.001Z</time></trkpt><trkpt lat="40.47375069435024" lon="8.381174593667469"><ele>45.33333333333333</ele><time>2026-05-02T14:07:53.001Z</time></trkpt><trkpt lat="40.47353365405646" lon="8.381145916638186"><ele>43.666666666666664</ele><time>2026-05-02T14:07:54.001Z</time></trkpt><trkpt lat="40.47333037439117" lon="8.381083441335702"><ele>42.0</ele><time>2026-05-02T14:07:55.001Z</time></trkpt><trkpt lat="40.47314352030676" lon="8.381015706818358"><ele>42.0</ele><time>2026-05-02T14:07:56.001Z</time></trkpt><trkpt lat="40.47294433182399" lon="8.380995344148413"><ele>42.0</ele><time>2026-05-02T14:07:57.001Z</time></trkpt><trkpt lat="40.472726374374616" lon="8.381027228187492"><ele>42.0</ele><time>2026-05-02T14:07:58.001Z</time></trkpt><trkpt lat="40.47247858579316" lon="8.38109798610161"><ele>40.5</ele><time>2026-05-02T14:07:59.001Z</time></trkpt><trkpt lat="40.472211650407836" lon="8.381162834378397"><ele>39.0</ele><time>2026-05-02T14:08:00.001Z</time></trkpt><trkpt lat="40.47195598522598" lon="8.381219291721749"><ele>35.5</ele><time>2026-05-02T14:08:01.001Z</time></trkpt><trkpt lat="40.47171396769454" lon="8.38125088099512"><ele>32.0</ele><time>2026-05-02T14:08:02.001Z</time></trkpt><trkpt lat="40.47148470568306" lon="8.381277656874987"><ele>31.333333333333332</ele><time>2026-05-02T14:08:03.001Z</time></trkpt><trkpt lat="40.471269558309444" lon="8.381311968454687"><ele>30.666666666666664</ele><time>2026-05-02T14:08:04.001Z</time></trkpt><trkpt lat="40.47107062860698" lon="8.381381519797323"><ele>30.0</ele><time>2026-05-02T14:08:05.001Z</time></trkpt><trkpt lat="40.4708977025557" lon="8.38149912401404"><ele>38.33333333333333</ele><time>2026-05-02T14:08:06.001Z</time></trkpt><trkpt lat="40.470748428037595" lon="8.381643662146322"><ele>46.666666666666664</ele><time>2026-05-02T14:08:07.001Z</time></trkpt><trkpt lat="40.470605631476445" lon="8.381767990157032"><ele>55.0</ele><time>2026-05-02T14:08:08.001Z</time></trkpt><trkpt lat="40.470447674651254" lon="8.381836227578141"><ele>54.75</ele><time>2026-05-02T14:08:09.001Z</time></trkpt><trkpt lat="40.47030989473122" lon="8.381852686494526"><ele>54.5</ele><time>2026-05-02T14:08:10.001Z</time></trkpt><trkpt lat="40.47019376105762" lon="8.38182157447772"><ele>54.25</ele><time>2026-05-02T14:08:11.001Z</time></trkpt><trkpt lat="40.47008191994284" lon="8.381726285317614"><ele>54.0</ele><time>2026-05-02T14:08:12.001Z</time></trkpt><trkpt lat="40.46998471397087" lon="8.381548828648574"><ele>47.0</ele><time>2026-05-02T14:08:13.001Z</time></trkpt><trkpt lat="40.46991016841103" lon="8.381308682180013"><ele>40.0</ele><time>2026-05-02T14:08:14.001Z</time></trkpt><trkpt lat="40.469850890817604" lon="8.38108242710897"><ele>33.0</ele><time>2026-05-02T14:08:15.001Z</time></trkpt><trkpt lat="40.46975775344062" lon="8.380916956956487"><ele>33.333333333333336</ele><time>2026-05-02T14:08:16.001Z</time></trkpt><trkpt lat="40.469603359104205" lon="8.3808111443957"><ele>33.66666666666667</ele><time>2026-05-02T14:08:17.001Z</time></trkpt><trkpt lat="40.46942290740384" lon="8.380755474391195"><ele>34.0</ele><time>2026-05-02T14:08:18.001Z</time></trkpt><trkpt lat="40.46920910249563" lon="8.380747936086298"><ele>34.0</ele><time>2026-05-02T14:08:19.001Z</time></trkpt><trkpt lat="40.468991284524186" lon="8.380791695553091"><ele>34.0</ele><time>2026-05-02T14:08:20.001Z</time></trkpt><trkpt lat="40.46878513969812" lon="8.380905719890832"><ele>34.0</ele><time>2026-05-02T14:08:21.001Z</time></trkpt><trkpt lat="40.468600186245354" lon="8.381064224887394"><ele>36.66666666666667</ele><time>2026-05-02T14:08:22.001Z</time></trkpt><trkpt lat="40.46845089235987" lon="8.38125090346363"><ele>39.333333333333336</ele><time>2026-05-02T14:08:23.001Z</time></trkpt><trkpt lat="40.46831955177971" lon="8.381473716247214"><ele>42.0</ele><time>2026-05-02T14:08:24.001Z</time></trkpt><trkpt lat="40.46822324964243" lon="8.381729858850631"><ele>42.0</ele><time>2026-05-02T14:08:25.001Z</time></trkpt><trkpt lat="40.46813419677602" lon="8.38199930635421"><ele>42.0</ele><time>2026-05-02T14:08:26.001Z</time></trkpt><trkpt lat="40.46803972259222" lon="8.382231405390558"><ele>42.0</ele><time>2026-05-02T14:08:27.001Z</time></trkpt><trkpt lat="40.46792842979852" lon="8.382439162900514"><ele>41.0</ele><time>2026-05-02T14:08:28.001Z</time></trkpt><trkpt lat="40.46778888443734" lon="8.382614384063784"><ele>40.0</ele><time>2026-05-02T14:08:29.001Z</time></trkpt><trkpt lat="40.4676284408552" lon="8.382773962676076"><ele>39.0</ele><time>2026-05-02T14:08:30.001Z</time></trkpt><trkpt lat="40.4674531503717" lon="8.382928879310246"><ele>38.5</ele><time>2026-05-02T14:08:31.001Z</time></trkpt><trkpt lat="40.46726561279412" lon="8.383096805725717"><ele>38.0</ele><time>2026-05-02T14:08:32.001Z</time></trkpt><trkpt lat="40.46707408399403" lon="8.383286499261159"><ele>38.0</ele><time>2026-05-02T14:08:33.001Z</time></trkpt><trkpt lat="40.46688552071633" lon="8.383512644495152"><ele>38.0</ele><time>2026-05-02T14:08:34.001Z</time></trkpt><trkpt lat="40.46671577695318" lon="8.383774311356067"><ele>43.666666666666664</ele><time>2026-05-02T14:08:35.001Z</time></trkpt><trkpt lat="40.46656907274182" lon="8.384010944966148"><ele>49.33333333333333</ele><time>2026-05-02T14:08:36.001Z</time></trkpt><trkpt lat="40.46644294572613" lon="8.384230770860974"><ele>55.0</ele><time>2026-05-02T14:08:37.001Z</time></trkpt><trkpt lat="40.46631009701649" lon="8.384440712098582"><ele>56.0</ele><time>2026-05-02T14:08:38.001Z</time></trkpt><trkpt lat="40.46617202600329" lon="8.384635905277582"><ele>57.0</ele><time>2026-05-02T14:08:39.001Z</time></trkpt><trkpt lat="40.466010472590376" lon="8.384791540855508"><ele>58.0</ele><time>2026-05-02T14:08:40.001Z</time></trkpt><trkpt lat="40.46582609077245" lon="8.384911383915414"><ele>58.0</ele><time>2026-05-02T14:08:41.001Z</time></trkpt><trkpt lat="40.4656325847651" lon="8.385010889636106"><ele>58.0</ele><time>2026-05-02T14:08:42.001Z</time></trkpt><trkpt lat="40.46545015639006" lon="8.385087039573387"><ele>58.0</ele><time>2026-05-02T14:08:43.001Z</time></trkpt><trkpt lat="40.46526473738549" lon="8.38516477384669"><ele>56.0</ele><time>2026-05-02T14:08:44.001Z</time></trkpt><trkpt lat="40.4650646937437" lon="8.385237603214662"><ele>54.0</ele><time>2026-05-02T14:08:45.001Z</time></trkpt><trkpt lat="40.46485691264745" lon="8.385315285954102"><ele>52.0</ele><time>2026-05-02T14:08:46.001Z</time></trkpt><trkpt lat="40.4646396589276" lon="8.38539474477521"><ele>48.5</ele><time>2026-05-02T14:08:47.001Z</time></trkpt><trkpt lat="40.46441131735738" lon="8.385457175114627"><ele>45.0</ele><time>2026-05-02T14:08:48.001Z</time></trkpt><trkpt lat="40.46417011052715" lon="8.385515909360159"><ele>56.0</ele><time>2026-05-02T14:08:49.001Z</time></trkpt><trkpt lat="40.46392505969164" lon="8.385574670356775"><ele>67.0</ele><time>2026-05-02T14:08:50.001Z</time></trkpt><trkpt lat="40.463682449291284" lon="8.385634246552335"><ele>67.0</ele><time>2026-05-02T14:08:51.001Z</time></trkpt><trkpt lat="40.46343311960595" lon="8.385691762848092"><ele>67.0</ele><time>2026-05-02T14:08:52.001Z</time></trkpt><trkpt lat="40.46318893333405" lon="8.385749646494117"><ele>67.0</ele><time>2026-05-02T14:08:53.001Z</time></trkpt><trkpt lat="40.46294257589499" lon="8.38579918798355"><ele>67.0</ele><time>2026-05-02T14:08:54.001Z</time></trkpt><trkpt lat="40.46268384925939" lon="8.3858177589329"><ele>67.0</ele><time>2026-05-02T14:08:55.001Z</time></trkpt><trkpt lat="40.46241802541269" lon="8.385795416371437"><ele>67.0</ele><time>2026-05-02T14:08:56.001Z</time></trkpt><trkpt lat="40.46213397724406" lon="8.385785223298281"><ele>65.0</ele><time>2026-05-02T14:08:57.001Z</time></trkpt><trkpt lat="40.46187312797713" lon="8.385769405139468"><ele>63.0</ele><time>2026-05-02T14:08:58.001Z</time></trkpt><trkpt lat="40.46163345585459" lon="8.385760237961913"><ele>63.0</ele><time>2026-05-02T14:08:59.001Z</time></trkpt><trkpt lat="40.46143378318164" lon="8.385756157973436"><ele>63.0</ele><time>2026-05-02T14:09:00.001Z</time></trkpt><trkpt lat="40.46127367552333" lon="8.385776376660331"><ele>63.0</ele><time>2026-05-02T14:09:01.001Z</time></trkpt><trkpt lat="40.4611176456604" lon="8.385854044978577"><ele>62.66666666666667</ele><time>2026-05-02T14:09:02.001Z</time></trkpt><trkpt lat="40.460983754557766" lon="8.385997581076172"><ele>62.333333333333336</ele><time>2026-05-02T14:09:03.001Z</time></trkpt><trkpt lat="40.46084741130514" lon="8.38616155197624"><ele>62.0</ele><time>2026-05-02T14:09:04.001Z</time></trkpt><trkpt lat="40.460688669780225" lon="8.386235857821017"><ele>62.0</ele><time>2026-05-02T14:09:05.001Z</time></trkpt><trkpt lat="40.460546909536845" lon="8.386219947295645"><ele>62.0</ele><time>2026-05-02T14:09:06.001Z</time></trkpt><trkpt lat="40.460392327152874" lon="8.386146736890428"><ele>62.0</ele><time>2026-05-02T14:09:07.001Z</time></trkpt><trkpt lat="40.460260824937954" lon="8.386009626307724"><ele>64.66666666666667</ele><time>2026-05-02T14:09:08.001Z</time></trkpt><trkpt lat="40.460110115102935" lon="8.385865032837069"><ele>67.33333333333333</ele><time>2026-05-02T14:09:09.001Z</time></trkpt><trkpt lat="40.459956306273995" lon="8.385755142822033"><ele>70.0</ele><time>2026-05-02T14:09:10.001Z</time></trkpt><trkpt lat="40.45976011813035" lon="8.385712352167866"><ele>71.0</ele><time>2026-05-02T14:09:11.001Z</time></trkpt><trkpt lat="40.459539240067755" lon="8.38570531030201"><ele>72.0</ele><time>2026-05-02T14:09:12.001Z</time></trkpt><trkpt lat="40.45934437366199" lon="8.385670969172907"><ele>73.0</ele><time>2026-05-02T14:09:13.001Z</time></trkpt><trkpt lat="40.45917595304696" lon="8.385638733517023"><ele>73.0</ele><time>2026-05-02T14:09:14.001Z</time></trkpt><trkpt lat="40.45901371022765" lon="8.385642620232584"><ele>73.0</ele><time>2026-05-02T14:09:15.001Z</time></trkpt><trkpt lat="40.4588550606334" lon="8.385709518563761"><ele>73.0</ele><time>2026-05-02T14:09:16.001Z</time></trkpt><trkpt lat="40.458705279340826" lon="8.385842848235038"><ele>67.66666666666666</ele><time>2026-05-02T14:09:17.001Z</time></trkpt><trkpt lat="40.458538531254945" lon="8.385964496750923"><ele>62.33333333333333</ele><time>2026-05-02T14:09:18.001Z</time></trkpt><trkpt lat="40.45837198216809" lon="8.386097451062664"><ele>57.0</ele><time>2026-05-02T14:09:19.001Z</time></trkpt><trkpt lat="40.458197228151036" lon="8.386229513592195"><ele>57.0</ele><time>2026-05-02T14:09:20.001Z</time></trkpt><trkpt lat="40.45797783639356" lon="8.386326534541622"><ele>57.0</ele><time>2026-05-02T14:09:21.001Z</time></trkpt><trkpt lat="40.4577120613564" lon="8.386373901399852"><ele>65.0</ele><time>2026-05-02T14:09:22.001Z</time></trkpt><trkpt lat="40.457438232594725" lon="8.386403548757968"><ele>73.0</ele><time>2026-05-02T14:09:23.001Z</time></trkpt><trkpt lat="40.457179504571734" lon="8.386432293530257"><ele>72.0</ele><time>2026-05-02T14:09:24.001Z</time></trkpt><trkpt lat="40.45693786113418" lon="8.386499018310152"><ele>71.0</ele><time>2026-05-02T14:09:25.001Z</time></trkpt><trkpt lat="40.4567006496553" lon="8.386584048705135"><ele>71.0</ele><time>2026-05-02T14:09:26.001Z</time></trkpt><trkpt lat="40.4564627322387" lon="8.38668763456552"><ele>71.0</ele><time>2026-05-02T14:09:27.001Z</time></trkpt><trkpt lat="40.45621868680859" lon="8.386785751083075"><ele>69.0</ele><time>2026-05-02T14:09:28.001Z</time></trkpt><trkpt lat="40.45596902472043" lon="8.386891494175572"><ele>67.0</ele><time>2026-05-02T14:09:29.001Z</time></trkpt><trkpt lat="40.455713774606586" lon="8.386994678306879"><ele>67.0</ele><time>2026-05-02T14:09:30.001Z</time></trkpt><trkpt lat="40.4554574833244" lon="8.387055753585683"><ele>67.0</ele><time>2026-05-02T14:09:31.001Z</time></trkpt><trkpt lat="40.45520967849412" lon="8.387132324313468"><ele>78.5</ele><time>2026-05-02T14:09:32.001Z</time></trkpt><trkpt lat="40.4549587660392" lon="8.38720985458044"><ele>90.0</ele><time>2026-05-02T14:09:33.001Z</time></trkpt><trkpt lat="40.45472346895847" lon="8.3872825598013"><ele>86.0</ele><time>2026-05-02T14:09:34.001Z</time></trkpt><trkpt lat="40.45450525858089" lon="8.38735286013408"><ele>82.0</ele><time>2026-05-02T14:09:35.001Z</time></trkpt><trkpt lat="40.454309632513166" lon="8.387487366002931"><ele>78.0</ele><time>2026-05-02T14:09:36.001Z</time></trkpt><trkpt lat="40.45412735876572" lon="8.387562298169295"><ele>78.0</ele><time>2026-05-02T14:09:37.001Z</time></trkpt><trkpt lat="40.4539647980904" lon="8.38766948366955"><ele>78.0</ele><time>2026-05-02T14:09:38.001Z</time></trkpt><trkpt lat="40.45385443301949" lon="8.387805400474006"><ele>78.0</ele><time>2026-05-02T14:09:39.001Z</time></trkpt><trkpt lat="40.45380315735576" lon="8.387898148523387"><ele>78.0</ele><time>2026-05-02T14:09:40.001Z</time></trkpt><trkpt lat="40.45371563732634" lon="8.387969996679473"><ele>79.42857142857143</ele><time>2026-05-02T14:09:42.001Z</time></trkpt><trkpt lat="40.45365373744004" lon="8.388015462694275"><ele>80.85714285714285</ele><time>2026-05-02T14:09:44.001Z</time></trkpt><trkpt lat="40.45359514559309" lon="8.388053449549922"><ele>82.28571428571428</ele><time>2026-05-02T14:09:47.002Z</time></trkpt><trkpt lat="40.45353769928511" lon="8.388105446870131"><ele>83.71428571428572</ele><time>2026-05-02T14:09:51.002Z</time></trkpt><trkpt lat="40.4535179146977" lon="8.388192910186667"><ele>85.14285714285714</ele><time>2026-05-02T14:17:47.001Z</time></trkpt><trkpt lat="40.45349927665522" lon="8.388280774585725"><ele>86.57142857142857</ele><time>2026-05-02T14:17:50.001Z</time></trkpt><trkpt lat="40.45346014604431" lon="8.388369683196244"><ele>88.0</ele><time>2026-05-02T14:17:52.001Z</time></trkpt><trkpt lat="40.45341113026006" lon="8.388441299608216"><ele>88.0</ele><time>2026-05-02T14:17:53.001Z</time></trkpt><trkpt lat="40.45332338212294" lon="8.388500089294974"><ele>88.0</ele><time>2026-05-02T14:17:54.001Z</time></trkpt><trkpt lat="40.45321065542083" lon="8.388578140517318"><ele>88.0</ele><time>2026-05-02T14:17:55.001Z</time></trkpt><trkpt lat="40.45307266457234" lon="8.388662403623117"><ele>88.0</ele><time>2026-05-02T14:17:56.001Z</time></trkpt><trkpt lat="40.452911899458016" lon="8.388750100395693"><ele>85.66666666666666</ele><time>2026-05-02T14:17:57.001Z</time></trkpt><trkpt lat="40.452746750073565" lon="8.388797648261372"><ele>83.33333333333333</ele><time>2026-05-02T14:17:58.001Z</time></trkpt><trkpt lat="40.452574813196115" lon="8.388805640859431"><ele>81.0</ele><time>2026-05-02T14:17:59.001Z</time></trkpt><trkpt lat="40.45239130426225" lon="8.388770310239167"><ele>81.0</ele><time>2026-05-02T14:18:00.001Z</time></trkpt><trkpt lat="40.45220111506449" lon="8.388727764784045"><ele>81.0</ele><time>2026-05-02T14:18:01.001Z</time></trkpt><trkpt lat="40.45203811346643" lon="8.388702920730719"><ele>81.0</ele><time>2026-05-02T14:18:02.001Z</time></trkpt><trkpt lat="40.45190891836213" lon="8.38875528348883"><ele>83.0</ele><time>2026-05-02T14:18:03.001Z</time></trkpt><trkpt lat="40.45179969052431" lon="8.388839967795443"><ele>85.0</ele><time>2026-05-02T14:18:04.001Z</time></trkpt><trkpt lat="40.45173415541878" lon="8.38898284905776"><ele>87.0</ele><time>2026-05-02T14:18:05.001Z</time></trkpt><trkpt lat="40.45170988286505" lon="8.389163965530539"><ele>89.0</ele><time>2026-05-02T14:18:06.001Z</time></trkpt><trkpt lat="40.45169748727573" lon="8.389404669844058"><ele>89.0</ele><time>2026-05-02T14:18:07.001Z</time></trkpt><trkpt lat="40.451659857199374" lon="8.389646460215474"><ele>89.0</ele><time>2026-05-02T14:18:08.001Z</time></trkpt><trkpt lat="40.451608359351546" lon="8.389847287294662"><ele>89.0</ele><time>2026-05-02T14:18:09.001Z</time></trkpt><trkpt lat="40.45151001843841" lon="8.389984477411302"><ele>90.66666666666667</ele><time>2026-05-02T14:18:10.001Z</time></trkpt><trkpt lat="40.451375347004934" lon="8.39008399757465"><ele>92.33333333333333</ele><time>2026-05-02T14:18:11.001Z</time></trkpt><trkpt lat="40.451215246121464" lon="8.39018392256635"><ele>94.0</ele><time>2026-05-02T14:18:12.001Z</time></trkpt><trkpt lat="40.451038911022685" lon="8.390263400742114"><ele>94.0</ele><time>2026-05-02T14:18:13.001Z</time></trkpt><trkpt lat="40.45081563199858" lon="8.390363133246504"><ele>94.0</ele><time>2026-05-02T14:18:14.001Z</time></trkpt><trkpt lat="40.450571180000814" lon="8.390498322980388"><ele>105.5</ele><time>2026-05-02T14:18:15.001Z</time></trkpt><trkpt lat="40.450340683997766" lon="8.390687930483457"><ele>117.0</ele><time>2026-05-02T14:18:15.998Z</time></trkpt><trkpt lat="40.450097100366996" lon="8.390827371351392"><ele>117.0</ele><time>2026-05-02T14:18:16.998Z</time></trkpt><trkpt lat="40.44987685897808" lon="8.39095828613935"><ele>117.0</ele><time>2026-05-02T14:18:17.998Z</time></trkpt><trkpt lat="40.44967504291713" lon="8.391138424708878"><ele>119.33333333333334</ele><time>2026-05-02T14:18:18.998Z</time></trkpt><trkpt lat="40.44953063663365" lon="8.39135710858091"><ele>121.66666666666667</ele><time>2026-05-02T14:18:19.998Z</time></trkpt><trkpt lat="40.449368923957145" lon="8.391477688376066"><ele>124.0</ele><time>2026-05-02T14:18:20.999Z</time></trkpt><trkpt lat="40.4492124636473" lon="8.391554267818965"><ele>124.0</ele><time>2026-05-02T14:18:21.999Z</time></trkpt><trkpt lat="40.449114062925965" lon="8.39166116459504"><ele>124.0</ele><time>2026-05-02T14:18:22.999Z</time></trkpt><trkpt lat="40.44904235968765" lon="8.391847594074386"><ele>124.0</ele><time>2026-05-02T14:18:23.999Z</time></trkpt><trkpt lat="40.44896597537289" lon="8.392081253159954"><ele>127.66666666666667</ele><time>2026-05-02T14:18:24.999Z</time></trkpt><trkpt lat="40.448866404341295" lon="8.392345518066639"><ele>131.33333333333334</ele><time>2026-05-02T14:18:25.999Z</time></trkpt><trkpt lat="40.44877117795965" lon="8.392557903133543"><ele>135.0</ele><time>2026-05-02T14:18:26.999Z</time></trkpt><trkpt lat="40.448660866434324" lon="8.392681312877666"><ele>135.0</ele><time>2026-05-02T14:18:27.999Z</time></trkpt><trkpt lat="40.44853513751016" lon="8.39275045786012"><ele>135.0</ele><time>2026-05-02T14:18:28.999Z</time></trkpt><trkpt lat="40.44840529423719" lon="8.392725119594129"><ele>135.0</ele><time>2026-05-02T14:18:29.999Z</time></trkpt><trkpt lat="40.44822611749214" lon="8.392677142727596"><ele>135.0</ele><time>2026-05-02T14:18:30.999Z</time></trkpt><trkpt lat="40.448001332741995" lon="8.39265643513325"><ele>135.0</ele><time>2026-05-02T14:18:31.999Z</time></trkpt><trkpt lat="40.44774680947126" lon="8.392731312815302"><ele>134.0</ele><time>2026-05-02T14:18:32.999Z</time></trkpt><trkpt lat="40.4475162470691" lon="8.392752273051935"><ele>133.0</ele><time>2026-05-02T14:18:33.999Z</time></trkpt><trkpt lat="40.44733587934264" lon="8.392692596559373"><ele>132.0</ele><time>2026-05-02T14:18:34.999Z</time></trkpt><trkpt lat="40.44711804072506" lon="8.392620638405901"><ele>138.0</ele><time>2026-05-02T14:18:35.999Z</time></trkpt><trkpt lat="40.446881572861464" lon="8.392585952297374"><ele>144.0</ele><time>2026-05-02T14:18:36.999Z</time></trkpt><trkpt lat="40.44666644016361" lon="8.392563729463685"><ele>144.0</ele><time>2026-05-02T14:18:37.999Z</time></trkpt><trkpt lat="40.44648409140954" lon="8.392532380041201"><ele>144.0</ele><time>2026-05-02T14:18:38.999Z</time></trkpt><trkpt lat="40.44632026955699" lon="8.392529507972949"><ele>144.0</ele><time>2026-05-02T14:18:39.999Z</time></trkpt><trkpt lat="40.44616531209643" lon="8.392572167397185"><ele>141.0</ele><time>2026-05-02T14:18:40.999Z</time></trkpt><trkpt lat="40.44601098518736" lon="8.39260018963669"><ele>138.0</ele><time>2026-05-02T14:18:41.999Z</time></trkpt><trkpt lat="40.445855960993136" lon="8.39265843363271"><ele>135.0</ele><time>2026-05-02T14:18:42.999Z</time></trkpt><trkpt lat="40.44570113701603" lon="8.392751448550243"><ele>135.0</ele><time>2026-05-02T14:18:43.999Z</time></trkpt><trkpt lat="40.44554805514648" lon="8.392899511859397"><ele>135.0</ele><time>2026-05-02T14:18:45Z</time></trkpt><trkpt lat="40.44540194648442" lon="8.393041454112263"><ele>135.0</ele><time>2026-05-02T14:18:46Z</time></trkpt><trkpt lat="40.4452411442518" lon="8.393125233601507"><ele>142.0</ele><time>2026-05-02T14:18:47Z</time></trkpt><trkpt lat="40.44506726307549" lon="8.39316639282761"><ele>149.0</ele><time>2026-05-02T14:18:48Z</time></trkpt><trkpt lat="40.44488141422435" lon="8.393201457414762"><ele>156.0</ele><time>2026-05-02T14:18:49Z</time></trkpt><trkpt lat="40.444708194758626" lon="8.393233156158905"><ele>150.0</ele><time>2026-05-02T14:18:50Z</time></trkpt><trkpt lat="40.444543514928725" lon="8.393262884464498"><ele>144.0</ele><time>2026-05-02T14:18:51Z</time></trkpt><trkpt lat="40.4443789693668" lon="8.393315852911604"><ele>138.0</ele><time>2026-05-02T14:18:52Z</time></trkpt><trkpt lat="40.44420849479473" lon="8.393365215455349"><ele>138.0</ele><time>2026-05-02T14:18:53Z</time></trkpt><trkpt lat="40.44403051827911" lon="8.3934556192462"><ele>138.0</ele><time>2026-05-02T14:18:54Z</time></trkpt><trkpt lat="40.44385932482142" lon="8.393593519300238"><ele>138.0</ele><time>2026-05-02T14:18:55Z</time></trkpt><trkpt lat="40.44368406243182" lon="8.393731579930058"><ele>138.66666666666666</ele><time>2026-05-02T14:18:56Z</time></trkpt><trkpt lat="40.44351897225165" lon="8.393894974077565"><ele>139.33333333333331</ele><time>2026-05-02T14:18:57Z</time></trkpt><trkpt lat="40.44336356691171" lon="8.39405534272904"><ele>140.0</ele><time>2026-05-02T14:18:58Z</time></trkpt><trkpt lat="40.44321938122885" lon="8.394239898032685"><ele>140.0</ele><time>2026-05-02T14:18:59Z</time></trkpt><trkpt lat="40.443120824124186" lon="8.394454714241107"><ele>140.0</ele><time>2026-05-02T14:19:00Z</time></trkpt><trkpt lat="40.44304579766144" lon="8.394671902656878"><ele>140.0</ele><time>2026-05-02T14:19:01Z</time></trkpt><trkpt lat="40.44298863582065" lon="8.394898045030263"><ele>132.66666666666666</ele><time>2026-05-02T14:19:02Z</time></trkpt><trkpt lat="40.44289819263656" lon="8.39508308085027"><ele>125.33333333333334</ele><time>2026-05-02T14:19:03Z</time></trkpt><trkpt lat="40.44279733715677" lon="8.395236406332014"><ele>118.0</ele><time>2026-05-02T14:19:04Z</time></trkpt><trkpt lat="40.44267501271705" lon="8.395373796330222"><ele>118.0</ele><time>2026-05-02T14:19:05Z</time></trkpt><trkpt lat="40.442535671009665" lon="8.395428318727818"><ele>118.0</ele><time>2026-05-02T14:19:06Z</time></trkpt><trkpt lat="40.442385387708164" lon="8.395442250095932"><ele>118.0</ele><time>2026-05-02T14:19:07Z</time></trkpt><trkpt lat="40.44221830362145" lon="8.395428028018841"><ele>109.33333333333334</ele><time>2026-05-02T14:19:08Z</time></trkpt><trkpt lat="40.44205943110494" lon="8.395410055210098"><ele>100.66666666666667</ele><time>2026-05-02T14:19:09Z</time></trkpt><trkpt lat="40.44190063549151" lon="8.395389402628172"><ele>92.0</ele><time>2026-05-02T14:19:10Z</time></trkpt><trkpt lat="40.44173810231803" lon="8.395414538781752"><ele>92.0</ele><time>2026-05-02T14:19:11Z</time></trkpt><trkpt lat="40.441570906478105" lon="8.395453307136854"><ele>92.0</ele><time>2026-05-02T14:19:12Z</time></trkpt><trkpt lat="40.441398085198536" lon="8.395531005402898"><ele>92.0</ele><time>2026-05-02T14:19:13Z</time></trkpt><trkpt lat="40.44124311549061" lon="8.395630698878417"><ele>92.33333333333334</ele><time>2026-05-02T14:19:14Z</time></trkpt><trkpt lat="40.44109426058248" lon="8.39574182086673"><ele>92.66666666666667</ele><time>2026-05-02T14:19:15Z</time></trkpt><trkpt lat="40.440962176766966" lon="8.395876018227938"><ele>93.0</ele><time>2026-05-02T14:19:16Z</time></trkpt><trkpt lat="40.440893008683865" lon="8.39608142021578"><ele>98.0</ele><time>2026-05-02T14:19:17Z</time></trkpt><trkpt lat="40.44088577595201" lon="8.396477853687223"><ele>103.0</ele><time>2026-05-02T14:19:18Z</time></trkpt><trkpt lat="40.44086314481885" lon="8.396747006054685"><ele>103.0</ele><time>2026-05-02T14:19:19Z</time></trkpt><trkpt lat="40.44086702966821" lon="8.396996106051867"><ele>103.0</ele><time>2026-05-02T14:19:20Z</time></trkpt><trkpt lat="40.440902962393665" lon="8.397229011873167"><ele>103.0</ele><time>2026-05-02T14:19:21Z</time></trkpt><trkpt lat="40.440967188894554" lon="8.397485822899625"><ele>101.0</ele><time>2026-05-02T14:19:22Z</time></trkpt><trkpt lat="40.441012891794756" lon="8.397758153460126"><ele>99.0</ele><time>2026-05-02T14:19:23.001Z</time></trkpt><trkpt lat="40.44107293495855" lon="8.398033581754062"><ele>97.0</ele><time>2026-05-02T14:19:24.001Z</time></trkpt><trkpt lat="40.441118790217786" lon="8.398293472243147"><ele>95.33333333333334</ele><time>2026-05-02T14:19:25.001Z</time></trkpt><trkpt lat="40.44115171618947" lon="8.398548434541583"><ele>93.66666666666667</ele><time>2026-05-02T14:19:26.001Z</time></trkpt><trkpt lat="40.44118890959491" lon="8.398790299145638"><ele>92.0</ele><time>2026-05-02T14:19:27.001Z</time></trkpt><trkpt lat="40.44117745575126" lon="8.399032650883669"><ele>92.0</ele><time>2026-05-02T14:19:28.001Z</time></trkpt><trkpt lat="40.44117698433831" lon="8.399232545542644"><ele>92.0</ele><time>2026-05-02T14:19:29.001Z</time></trkpt><trkpt lat="40.44105140039093" lon="8.39943638414811"><ele>92.0</ele><time>2026-05-02T14:19:30.001Z</time></trkpt><trkpt lat="40.44094086877852" lon="8.399587844920168"><ele>94.66666666666667</ele><time>2026-05-02T14:19:31.001Z</time></trkpt><trkpt lat="40.440798915259606" lon="8.399716376715523"><ele>97.33333333333334</ele><time>2026-05-02T14:19:32.001Z</time></trkpt><trkpt lat="40.440627245048546" lon="8.399801877828066"><ele>100.0</ele><time>2026-05-02T14:19:33.001Z</time></trkpt><trkpt lat="40.4404343415774" lon="8.399836939086097"><ele>101.33333333333334</ele><time>2026-05-02T14:19:34.001Z</time></trkpt><trkpt lat="40.44021902619926" lon="8.399821195706535"><ele>102.66666666666666</ele><time>2026-05-02T14:19:35.001Z</time></trkpt><trkpt lat="40.43999047929147" lon="8.399777705590843"><ele>104.0</ele><time>2026-05-02T14:19:36.001Z</time></trkpt><trkpt lat="40.43973983946995" lon="8.399721639508229"><ele>99.0</ele><time>2026-05-02T14:19:37.001Z</time></trkpt><trkpt lat="40.43946380664339" lon="8.3996638503103"><ele>94.0</ele><time>2026-05-02T14:19:38.001Z</time></trkpt><trkpt lat="40.439216613318635" lon="8.399601022995595"><ele>94.0</ele><time>2026-05-02T14:19:39.001Z</time></trkpt><trkpt lat="40.43898680578716" lon="8.39954930684973"><ele>94.0</ele><time>2026-05-02T14:19:40.001Z</time></trkpt><trkpt lat="40.43877251192997" lon="8.399505676875599"><ele>96.33333333333333</ele><time>2026-05-02T14:19:41.001Z</time></trkpt><trkpt lat="40.438563006597356" lon="8.399463068864145"><ele>98.66666666666666</ele><time>2026-05-02T14:19:42.001Z</time></trkpt><trkpt lat="40.438359511042094" lon="8.399424597004083"><ele>101.0</ele><time>2026-05-02T14:19:43.001Z</time></trkpt><trkpt lat="40.43815941870944" lon="8.399378834921839"><ele>102.66666666666666</ele><time>2026-05-02T14:19:44.001Z</time></trkpt><trkpt lat="40.43795464205492" lon="8.399331849680296"><ele>104.33333333333334</ele><time>2026-05-02T14:19:45.001Z</time></trkpt><trkpt lat="40.43775623890594" lon="8.39928718352099"><ele>106.0</ele><time>2026-05-02T14:19:46.001Z</time></trkpt><trkpt lat="40.43755582423391" lon="8.39924349766902"><ele>106.0</ele><time>2026-05-02T14:19:47.001Z</time></trkpt><trkpt lat="40.43736192903119" lon="8.399197619350824"><ele>106.0</ele><time>2026-05-02T14:19:48.001Z</time></trkpt><trkpt lat="40.43716816106064" lon="8.399165328116148"><ele>106.0</ele><time>2026-05-02T14:19:49.001Z</time></trkpt><trkpt lat="40.43698804485735" lon="8.399167789273106"><ele>110.66666666666667</ele><time>2026-05-02T14:19:50.001Z</time></trkpt><trkpt lat="40.4368196682642" lon="8.399239237669661"><ele>115.33333333333334</ele><time>2026-05-02T14:19:51.001Z</time></trkpt><trkpt lat="40.436659276759286" lon="8.399347748694254"><ele>120.0</ele><time>2026-05-02T14:19:52.001Z</time></trkpt><trkpt lat="40.436521962060866" lon="8.399498076707447"><ele>122.66666666666666</ele><time>2026-05-02T14:19:53.001Z</time></trkpt><trkpt lat="40.43640582565829" lon="8.399682283223408"><ele>125.33333333333333</ele><time>2026-05-02T14:19:54.001Z</time></trkpt><trkpt lat="40.43631751457514" lon="8.399918516117626"><ele>128.0</ele><time>2026-05-02T14:19:55.001Z</time></trkpt><trkpt lat="40.436248746952295" lon="8.400201743717805"><ele>119.5</ele><time>2026-05-02T14:19:56.001Z</time></trkpt><trkpt lat="40.4361963595491" lon="8.400516818300812"><ele>111.0</ele><time>2026-05-02T14:19:57.001Z</time></trkpt><trkpt lat="40.43613314359394" lon="8.400834963876111"><ele>111.0</ele><time>2026-05-02T14:19:58.001Z</time></trkpt><trkpt lat="40.43606029285922" lon="8.401145832862941"><ele>111.0</ele><time>2026-05-02T14:19:59.001Z</time></trkpt><trkpt lat="40.4359772136359" lon="8.401461886533761"><ele>118.5</ele><time>2026-05-02T14:20:00.001Z</time></trkpt><trkpt lat="40.43589496605491" lon="8.40177385965275"><ele>126.0</ele><time>2026-05-02T14:20:01.001Z</time></trkpt><trkpt lat="40.43583128154168" lon="8.402095291779968"><ele>129.5</ele><time>2026-05-02T14:20:02.001Z</time></trkpt><trkpt lat="40.43579812260448" lon="8.402434640553679"><ele>133.0</ele><time>2026-05-02T14:20:03.001Z</time></trkpt><trkpt lat="40.43578614513101" lon="8.402790816424739"><ele>137.0</ele><time>2026-05-02T14:20:04.001Z</time></trkpt><trkpt lat="40.435769160701426" lon="8.40314995226878"><ele>141.0</ele><time>2026-05-02T14:20:05.001Z</time></trkpt><trkpt lat="40.43574400937927" lon="8.403493791006055"><ele>144.5</ele><time>2026-05-02T14:20:06.001Z</time></trkpt><trkpt lat="40.43571969963582" lon="8.40383526042493"><ele>148.0</ele><time>2026-05-02T14:20:07.001Z</time></trkpt><trkpt lat="40.43569368874583" lon="8.404173462171805"><ele>148.0</ele><time>2026-05-02T14:20:08.001Z</time></trkpt><trkpt lat="40.43567395285562" lon="8.404504910460972"><ele>148.0</ele><time>2026-05-02T14:20:09.001Z</time></trkpt><trkpt lat="40.435656295081195" lon="8.404822127767615"><ele>148.66666666666669</ele><time>2026-05-02T14:20:10.001Z</time></trkpt><trkpt lat="40.43564902910244" lon="8.405113160096002"><ele>149.33333333333334</ele><time>2026-05-02T14:20:11.001Z</time></trkpt><trkpt lat="40.4356639793235" lon="8.405370657859356"><ele>150.0</ele><time>2026-05-02T14:20:12.002Z</time></trkpt><trkpt lat="40.43569340246785" lon="8.405598789028163"><ele>150.0</ele><time>2026-05-02T14:20:13.002Z</time></trkpt><trkpt lat="40.43569768627777" lon="8.405814993337685"><ele>150.0</ele><time>2026-05-02T14:20:14.002Z</time></trkpt><trkpt lat="40.43565686555746" lon="8.406028144991021"><ele>150.0</ele><time>2026-05-02T14:20:15.002Z</time></trkpt><trkpt lat="40.43556583860332" lon="8.40621015067579"><ele>146.33333333333334</ele><time>2026-05-02T14:20:16.002Z</time></trkpt><trkpt lat="40.43542164314947" lon="8.406364581544079"><ele>142.66666666666669</ele><time>2026-05-02T14:20:17.002Z</time></trkpt><trkpt lat="40.435259753760924" lon="8.406516550713524"><ele>139.0</ele><time>2026-05-02T14:20:18.002Z</time></trkpt><trkpt lat="40.43509489492492" lon="8.406574432393661"><ele>139.0</ele><time>2026-05-02T14:20:19.002Z</time></trkpt><trkpt lat="40.43491331097708" lon="8.40661791666431"><ele>139.0</ele><time>2026-05-02T14:20:20.002Z</time></trkpt><trkpt lat="40.43472675714041" lon="8.406626963170352"><ele>139.0</ele><time>2026-05-02T14:20:21.002Z</time></trkpt><trkpt lat="40.43453234972123" lon="8.406574593155225"><ele>143.0</ele><time>2026-05-02T14:20:21.999Z</time></trkpt><trkpt lat="40.434346474410894" lon="8.406479254885904"><ele>147.0</ele><time>2026-05-02T14:20:22.999Z</time></trkpt><trkpt lat="40.434157870449546" lon="8.406355376870904"><ele>151.0</ele><time>2026-05-02T14:20:24Z</time></trkpt><trkpt lat="40.43398312255592" lon="8.406214217124088"><ele>151.0</ele><time>2026-05-02T14:20:24.999Z</time></trkpt><trkpt lat="40.433843816190766" lon="8.406027806954617"><ele>151.0</ele><time>2026-05-02T14:20:25.999Z</time></trkpt><trkpt lat="40.43374805803189" lon="8.405774050320893"><ele>151.0</ele><time>2026-05-02T14:20:27Z</time></trkpt><trkpt lat="40.43368001522299" lon="8.40545583286917"><ele>161.0</ele><time>2026-05-02T14:20:28Z</time></trkpt><trkpt lat="40.43363961844555" lon="8.405135287422285"><ele>171.0</ele><time>2026-05-02T14:20:29Z</time></trkpt><trkpt lat="40.43360818632664" lon="8.404864848505854"><ele>165.33333333333334</ele><time>2026-05-02T14:20:30Z</time></trkpt><trkpt lat="40.433556335905266" lon="8.404621603973046"><ele>159.66666666666669</ele><time>2026-05-02T14:20:31Z</time></trkpt><trkpt lat="40.433454540357936" lon="8.404374414924773"><ele>154.0</ele><time>2026-05-02T14:20:32Z</time></trkpt><trkpt lat="40.43331403974878" lon="8.404135877642325"><ele>154.0</ele><time>2026-05-02T14:20:33Z</time></trkpt><trkpt lat="40.433161331702216" lon="8.403903268116224"><ele>154.0</ele><time>2026-05-02T14:20:34Z</time></trkpt><trkpt lat="40.433022050622945" lon="8.40366194655002"><ele>159.66666666666669</ele><time>2026-05-02T14:20:35Z</time></trkpt><trkpt lat="40.432885132089304" lon="8.403425023734917"><ele>165.33333333333334</ele><time>2026-05-02T14:20:36Z</time></trkpt><trkpt lat="40.43276572057474" lon="8.403208613368678"><ele>171.0</ele><time>2026-05-02T14:20:37Z</time></trkpt><trkpt lat="40.43264559150537" lon="8.403002989342333"><ele>172.0</ele><time>2026-05-02T14:20:38Z</time></trkpt><trkpt lat="40.43249387314582" lon="8.402816614873066"><ele>173.0</ele><time>2026-05-02T14:20:39Z</time></trkpt><trkpt lat="40.432312073358275" lon="8.402658646665008"><ele>174.0</ele><time>2026-05-02T14:20:40Z</time></trkpt><trkpt lat="40.4321166556245" lon="8.40251714390513"><ele>174.0</ele><time>2026-05-02T14:20:41Z</time></trkpt><trkpt lat="40.431918745724005" lon="8.402385402732234"><ele>174.0</ele><time>2026-05-02T14:20:42Z</time></trkpt><trkpt lat="40.43172467402963" lon="8.402259315412392"><ele>174.0</ele><time>2026-05-02T14:20:43Z</time></trkpt><trkpt lat="40.43152740905239" lon="8.402136656621543"><ele>172.0</ele><time>2026-05-02T14:20:44Z</time></trkpt><trkpt lat="40.431312082702156" lon="8.402017224765256"><ele>170.0</ele><time>2026-05-02T14:20:45Z</time></trkpt><trkpt lat="40.43106614172411" lon="8.401925663066562"><ele>170.0</ele><time>2026-05-02T14:20:46Z</time></trkpt><trkpt lat="40.430808103162434" lon="8.401856874304336"><ele>170.0</ele><time>2026-05-02T14:20:47Z</time></trkpt><trkpt lat="40.43053121741108" lon="8.401806269145126"><ele>175.5</ele><time>2026-05-02T14:20:48Z</time></trkpt><trkpt lat="40.43025047765044" lon="8.401771440595923"><ele>181.0</ele><time>2026-05-02T14:20:49Z</time></trkpt><trkpt lat="40.42998705949963" lon="8.401738791169482"><ele>181.0</ele><time>2026-05-02T14:20:50Z</time></trkpt><trkpt lat="40.429725834466005" lon="8.401703693524658"><ele>181.0</ele><time>2026-05-02T14:20:51Z</time></trkpt><trkpt lat="40.42947393188732" lon="8.401670872008697"><ele>184.0</ele><time>2026-05-02T14:20:52Z</time></trkpt><trkpt lat="40.42922783783634" lon="8.401625252106804"><ele>187.0</ele><time>2026-05-02T14:20:53Z</time></trkpt><trkpt lat="40.42899556775729" lon="8.401594659551971"><ele>192.0</ele><time>2026-05-02T14:20:54Z</time></trkpt><trkpt lat="40.42877112024015" lon="8.401567978973526"><ele>197.0</ele><time>2026-05-02T14:20:55Z</time></trkpt><trkpt lat="40.42852460230981" lon="8.40156415812523"><ele>197.0</ele><time>2026-05-02T14:20:56Z</time></trkpt><trkpt lat="40.42828308004934" lon="8.401604727181061"><ele>197.0</ele><time>2026-05-02T14:20:57Z</time></trkpt><trkpt lat="40.42803160885076" lon="8.40168514134435"><ele>194.5</ele><time>2026-05-02T14:20:58Z</time></trkpt><trkpt lat="40.4277771820811" lon="8.401803388691231"><ele>192.0</ele><time>2026-05-02T14:20:59Z</time></trkpt><trkpt lat="40.427526348284935" lon="8.401929797443412"><ele>192.0</ele><time>2026-05-02T14:21:00Z</time></trkpt><trkpt lat="40.42726792481717" lon="8.40205021706267"><ele>192.0</ele><time>2026-05-02T14:21:01Z</time></trkpt><trkpt lat="40.427013335024924" lon="8.402141793313382"><ele>205.0</ele><time>2026-05-02T14:21:02Z</time></trkpt><trkpt lat="40.42676502497978" lon="8.402204506317311"><ele>218.0</ele><time>2026-05-02T14:21:03Z</time></trkpt><trkpt lat="40.426527072594354" lon="8.4022068592725"><ele>220.5</ele><time>2026-05-02T14:21:04Z</time></trkpt><trkpt lat="40.42627204000181" lon="8.402175420379017"><ele>223.0</ele><time>2026-05-02T14:21:05Z</time></trkpt><trkpt lat="40.42600536560107" lon="8.402158825888172"><ele>209.5</ele><time>2026-05-02T14:21:06.001Z</time></trkpt><trkpt lat="40.42574507531873" lon="8.402150433936825"><ele>196.0</ele><time>2026-05-02T14:21:07.001Z</time></trkpt><trkpt lat="40.42550039598922" lon="8.402142810006566"><ele>190.5</ele><time>2026-05-02T14:21:08.001Z</time></trkpt><trkpt lat="40.42525964378273" lon="8.402141740349059"><ele>185.0</ele><time>2026-05-02T14:21:09.001Z</time></trkpt><trkpt lat="40.42502974676966" lon="8.402180133973195"><ele>196.0</ele><time>2026-05-02T14:21:10.001Z</time></trkpt><trkpt lat="40.424816227442655" lon="8.402281374988199"><ele>207.0</ele><time>2026-05-02T14:21:11.001Z</time></trkpt><trkpt lat="40.42461453147109" lon="8.40240560972668"><ele>207.0</ele><time>2026-05-02T14:21:12.001Z</time></trkpt><trkpt lat="40.42443147873315" lon="8.402567762698713"><ele>207.0</ele><time>2026-05-02T14:21:13.001Z</time></trkpt><trkpt lat="40.42425892338224" lon="8.402766636907389"><ele>207.0</ele><time>2026-05-02T14:21:14.001Z</time></trkpt><trkpt lat="40.424086457487945" lon="8.40299171590101"><ele>207.0</ele><time>2026-05-02T14:21:15.001Z</time></trkpt><trkpt lat="40.42390863737863" lon="8.403235384168815"><ele>206.0</ele><time>2026-05-02T14:21:16.001Z</time></trkpt><trkpt lat="40.42372063084299" lon="8.40348307705773"><ele>205.0</ele><time>2026-05-02T14:21:17.001Z</time></trkpt><trkpt lat="40.42352911979773" lon="8.403726754305216"><ele>217.5</ele><time>2026-05-02T14:21:18.001Z</time></trkpt><trkpt lat="40.42334508099915" lon="8.403961357175485"><ele>230.0</ele><time>2026-05-02T14:21:19.001Z</time></trkpt><trkpt lat="40.423179308168" lon="8.40417887835088"><ele>230.0</ele><time>2026-05-02T14:21:20.001Z</time></trkpt><trkpt lat="40.42303003173852" lon="8.404418112453"><ele>230.0</ele><time>2026-05-02T14:21:21.001Z</time></trkpt><trkpt lat="40.42292392515869" lon="8.4047116531944"><ele>229.5</ele><time>2026-05-02T14:21:22.001Z</time></trkpt><trkpt lat="40.42284463033566" lon="8.405046124405123"><ele>229.0</ele><time>2026-05-02T14:21:23.001Z</time></trkpt><trkpt lat="40.42276811245889" lon="8.405386729480474"><ele>230.0</ele><time>2026-05-02T14:21:24.001Z</time></trkpt><trkpt lat="40.42268434673176" lon="8.40571432249353"><ele>231.0</ele><time>2026-05-02T14:21:25.001Z</time></trkpt><trkpt lat="40.42260164905808" lon="8.406001950294481"><ele>231.0</ele><time>2026-05-02T14:21:26.001Z</time></trkpt><trkpt lat="40.4225361741505" lon="8.40626452858193"><ele>231.0</ele><time>2026-05-02T14:21:27.001Z</time></trkpt><trkpt lat="40.42246548314196" lon="8.406530599978613"><ele>231.0</ele><time>2026-05-02T14:21:28.001Z</time></trkpt><trkpt lat="40.42239574110497" lon="8.406752989810409"><ele>233.0</ele><time>2026-05-02T14:21:29.001Z</time></trkpt><trkpt lat="40.42229783379014" lon="8.406952913734502"><ele>235.0</ele><time>2026-05-02T14:21:30.001Z</time></trkpt><trkpt lat="40.42216995208559" lon="8.407097344206061"><ele>237.0</ele><time>2026-05-02T14:21:31.001Z</time></trkpt><trkpt lat="40.42202365833784" lon="8.407200252016763"><ele>238.33333333333331</ele><time>2026-05-02T14:21:32.001Z</time></trkpt><trkpt lat="40.421862856787975" lon="8.407248832218768"><ele>239.66666666666666</ele><time>2026-05-02T14:21:33.001Z</time></trkpt><trkpt lat="40.421674483944265" lon="8.407243955162356"><ele>241.0</ele><time>2026-05-02T14:21:34.001Z</time></trkpt><trkpt lat="40.42147847440439" lon="8.407182603833217"><ele>231.66666666666666</ele><time>2026-05-02T14:21:35.001Z</time></trkpt><trkpt lat="40.42127719007035" lon="8.407125853242913"><ele>222.33333333333331</ele><time>2026-05-02T14:21:36.001Z</time></trkpt><trkpt lat="40.42106739476654" lon="8.407067315582573"><ele>213.0</ele><time>2026-05-02T14:21:37.001Z</time></trkpt><trkpt lat="40.42084842074042" lon="8.407015572525292"><ele>213.0</ele><time>2026-05-02T14:21:38.001Z</time></trkpt><trkpt lat="40.420639871315835" lon="8.406912150797137"><ele>213.0</ele><time>2026-05-02T14:21:39.001Z</time></trkpt><trkpt lat="40.42043065858107" lon="8.406781138809269"><ele>215.0</ele><time>2026-05-02T14:21:40.001Z</time></trkpt><trkpt lat="40.42022557104552" lon="8.40668615959633"><ele>217.0</ele><time>2026-05-02T14:21:41.001Z</time></trkpt><trkpt lat="40.42002748933432" lon="8.406649261407965"><ele>219.0</ele><time>2026-05-02T14:21:42.001Z</time></trkpt><trkpt lat="40.41983205577604" lon="8.406670788846085"><ele>218.66666666666669</ele><time>2026-05-02T14:21:43.001Z</time></trkpt><trkpt lat="40.41964177859124" lon="8.406741021983505"><ele>218.33333333333334</ele><time>2026-05-02T14:21:44.001Z</time></trkpt><trkpt lat="40.419462818609205" lon="8.406862168163226"><ele>218.0</ele><time>2026-05-02T14:21:45.001Z</time></trkpt><trkpt lat="40.4192767712657" lon="8.406921257314295"><ele>218.0</ele><time>2026-05-02T14:21:46.001Z</time></trkpt><trkpt lat="40.41910339682122" lon="8.406964691269994"><ele>218.0</ele><time>2026-05-02T14:21:47.001Z</time></trkpt><trkpt lat="40.418930176187416" lon="8.406934431595596"><ele>218.0</ele><time>2026-05-02T14:21:48.001Z</time></trkpt><trkpt lat="40.41875436611885" lon="8.406814795139542"><ele>222.66666666666669</ele><time>2026-05-02T14:21:49.001Z</time></trkpt><trkpt lat="40.41853891591615" lon="8.406729405748205"><ele>227.33333333333331</ele><time>2026-05-02T14:21:50.001Z</time></trkpt><trkpt lat="40.41833726626724" lon="8.406679880044727"><ele>232.0</ele><time>2026-05-02T14:21:51.002Z</time></trkpt><trkpt lat="40.41813663864043" lon="8.406693275920825"><ele>228.0</ele><time>2026-05-02T14:21:52.002Z</time></trkpt><trkpt lat="40.41794122673117" lon="8.406718002627741"><ele>224.0</ele><time>2026-05-02T14:21:53.002Z</time></trkpt><trkpt lat="40.41774733332008" lon="8.406787087690242"><ele>220.0</ele><time>2026-05-02T14:21:54.002Z</time></trkpt><trkpt lat="40.41756314906917" lon="8.406907766440659"><ele>220.0</ele><time>2026-05-02T14:21:55.002Z</time></trkpt><trkpt lat="40.417387344481874" lon="8.407060985910492"><ele>220.0</ele><time>2026-05-02T14:21:56.002Z</time></trkpt><trkpt lat="40.41723451826592" lon="8.407261830996532"><ele>220.0</ele><time>2026-05-02T14:21:57.002Z</time></trkpt><trkpt lat="40.4171047368181" lon="8.40749170258012"><ele>220.33333333333331</ele><time>2026-05-02T14:21:58.002Z</time></trkpt><trkpt lat="40.41701361291824" lon="8.407734640287709"><ele>220.66666666666669</ele><time>2026-05-02T14:21:59.002Z</time></trkpt><trkpt lat="40.4169214851942" lon="8.40794311807044"><ele>221.0</ele><time>2026-05-02T14:22:00.002Z</time></trkpt><trkpt lat="40.41682922294721" lon="8.408117732839395"><ele>226.5</ele><time>2026-05-02T14:22:01.002Z</time></trkpt><trkpt lat="40.41672102710776" lon="8.408238184787287"><ele>232.0</ele><time>2026-05-02T14:22:02.002Z</time></trkpt><trkpt lat="40.41659218963173" lon="8.40831876728618"><ele>237.5</ele><time>2026-05-02T14:22:03.002Z</time></trkpt><trkpt lat="40.41643464393619" lon="8.4083556961302"><ele>243.0</ele><time>2026-05-02T14:22:04.002Z</time></trkpt><trkpt lat="40.41625800072566" lon="8.408355763744018"><ele>243.0</ele><time>2026-05-02T14:22:05.002Z</time></trkpt><trkpt lat="40.416069725739945" lon="8.408306288212303"><ele>243.0</ele><time>2026-05-02T14:22:06.002Z</time></trkpt><trkpt lat="40.41584515188905" lon="8.408262821052194"><ele>243.0</ele><time>2026-05-02T14:22:07.002Z</time></trkpt><trkpt lat="40.415619923113965" lon="8.4081926629906"><ele>247.0</ele><time>2026-05-02T14:22:08.002Z</time></trkpt><trkpt lat="40.41535892268777" lon="8.408125439094267"><ele>251.0</ele><time>2026-05-02T14:22:09.002Z</time></trkpt><trkpt lat="40.415093938393035" lon="8.408060610836062"><ele>242.5</ele><time>2026-05-02T14:22:10.002Z</time></trkpt><trkpt lat="40.4148258284142" lon="8.407970418607288"><ele>234.0</ele><time>2026-05-02T14:22:11.002Z</time></trkpt><trkpt lat="40.4145737582332" lon="8.407877497736466"><ele>234.0</ele><time>2026-05-02T14:22:12.002Z</time></trkpt><trkpt lat="40.41433562697864" lon="8.407775510007331"><ele>234.0</ele><time>2026-05-02T14:22:13.002Z</time></trkpt><trkpt lat="40.41412701442607" lon="8.40762305780744"><ele>234.0</ele><time>2026-05-02T14:22:14.002Z</time></trkpt><trkpt lat="40.413931806292084" lon="8.407488521947165"><ele>234.0</ele><time>2026-05-02T14:22:15.002Z</time></trkpt><trkpt lat="40.41372486856333" lon="8.407405175556011"><ele>234.0</ele><time>2026-05-02T14:22:16.002Z</time></trkpt><trkpt lat="40.41351464992496" lon="8.407389012372262"><ele>232.0</ele><time>2026-05-02T14:22:17.002Z</time></trkpt><trkpt lat="40.41326200607486" lon="8.407441957667977"><ele>230.0</ele><time>2026-05-02T14:22:18.002Z</time></trkpt><trkpt lat="40.41300342365812" lon="8.407515119797356"><ele>228.0</ele><time>2026-05-02T14:22:19.002Z</time></trkpt><trkpt lat="40.41275463217047" lon="8.407539088806617"><ele>226.0</ele><time>2026-05-02T14:22:20.002Z</time></trkpt><trkpt lat="40.41253329842753" lon="8.407573766434368"><ele>226.0</ele><time>2026-05-02T14:22:21.002Z</time></trkpt><trkpt lat="40.41233252933834" lon="8.407566775472256"><ele>226.0</ele><time>2026-05-02T14:22:22.002Z</time></trkpt><trkpt lat="40.412135463855684" lon="8.407498016939416"><ele>226.0</ele><time>2026-05-02T14:22:23.002Z</time></trkpt><trkpt lat="40.411917590020394" lon="8.407416742617324"><ele>225.0</ele><time>2026-05-02T14:22:24.002Z</time></trkpt><trkpt lat="40.41167759405419" lon="8.40734022572475"><ele>224.0</ele><time>2026-05-02T14:22:25.002Z</time></trkpt><trkpt lat="40.411445539916976" lon="8.4072603528253"><ele>223.0</ele><time>2026-05-02T14:22:26.002Z</time></trkpt><trkpt lat="40.41121414650697" lon="8.407177384341821"><ele>222.0</ele><time>2026-05-02T14:22:27.002Z</time></trkpt><trkpt lat="40.410986161650165" lon="8.407071790458604"><ele>211.5</ele><time>2026-05-02T14:22:28.001Z</time></trkpt><trkpt lat="40.41074174341413" lon="8.40701798865679"><ele>201.0</ele><time>2026-05-02T14:22:29.001Z</time></trkpt><trkpt lat="40.41048950999618" lon="8.40695777391199"><ele>196.5</ele><time>2026-05-02T14:22:30.001Z</time></trkpt><trkpt lat="40.41023448680218" lon="8.406907358667143"><ele>192.0</ele><time>2026-05-02T14:22:31.001Z</time></trkpt><trkpt lat="40.40999613278516" lon="8.406867775231461"><ele>192.0</ele><time>2026-05-02T14:22:32.001Z</time></trkpt><trkpt lat="40.40977458511832" lon="8.4068113861782"><ele>192.0</ele><time>2026-05-02T14:22:33.001Z</time></trkpt><trkpt lat="40.40955640406868" lon="8.406825471359987"><ele>192.0</ele><time>2026-05-02T14:22:34.001Z</time></trkpt><trkpt lat="40.40934620657833" lon="8.406882015000983"><ele>189.0</ele><time>2026-05-02T14:22:35.001Z</time></trkpt><trkpt lat="40.40913810591072" lon="8.406996488100829"><ele>186.0</ele><time>2026-05-02T14:22:36.001Z</time></trkpt><trkpt lat="40.408914466815055" lon="8.407128726071903"><ele>189.0</ele><time>2026-05-02T14:22:37.001Z</time></trkpt><trkpt lat="40.4086836804123" lon="8.407270831419051"><ele>192.0</ele><time>2026-05-02T14:22:38.001Z</time></trkpt><trkpt lat="40.4084553975294" lon="8.407409818904597"><ele>192.0</ele><time>2026-05-02T14:22:39.001Z</time></trkpt><trkpt lat="40.40823979142677" lon="8.407543442674442"><ele>192.0</ele><time>2026-05-02T14:22:40.001Z</time></trkpt><trkpt lat="40.40803944550587" lon="8.40767219934974"><ele>187.33333333333334</ele><time>2026-05-02T14:22:41.001Z</time></trkpt><trkpt lat="40.4078642800399" lon="8.407850887190559"><ele>182.66666666666669</ele><time>2026-05-02T14:22:42.001Z</time></trkpt><trkpt lat="40.40771303810979" lon="8.408018457346571"><ele>178.0</ele><time>2026-05-02T14:22:43.001Z</time></trkpt><trkpt lat="40.40761435830611" lon="8.408252078475375"><ele>178.0</ele><time>2026-05-02T14:22:44.001Z</time></trkpt><trkpt lat="40.40754006176757" lon="8.408494373777902"><ele>178.0</ele><time>2026-05-02T14:22:45.001Z</time></trkpt><trkpt lat="40.40750553314965" lon="8.408758596702366"><ele>178.0</ele><time>2026-05-02T14:22:46.001Z</time></trkpt><trkpt lat="40.407524688391106" lon="8.4090163562819"><ele>176.0</ele><time>2026-05-02T14:22:47.001Z</time></trkpt><trkpt lat="40.407573745474195" lon="8.409307943400286"><ele>174.0</ele><time>2026-05-02T14:22:48.001Z</time></trkpt><trkpt lat="40.4076676065854" lon="8.409591375503252"><ele>167.5</ele><time>2026-05-02T14:22:49.001Z</time></trkpt><trkpt lat="40.40778748592431" lon="8.409850212777627"><ele>161.0</ele><time>2026-05-02T14:22:50.001Z</time></trkpt><trkpt lat="40.40791377519484" lon="8.410089744568214"><ele>161.0</ele><time>2026-05-02T14:22:51.001Z</time></trkpt><trkpt lat="40.40796550207385" lon="8.410306256009935"><ele>161.0</ele><time>2026-05-02T14:22:52.001Z</time></trkpt><trkpt lat="40.407993249046456" lon="8.410537671502905"><ele>161.0</ele><time>2026-05-02T14:22:53.001Z</time></trkpt><trkpt lat="40.40797069646591" lon="8.410779939403726"><ele>161.66666666666666</ele><time>2026-05-02T14:22:54.001Z</time></trkpt><trkpt lat="40.40791514957096" lon="8.411021747771041"><ele>162.33333333333334</ele><time>2026-05-02T14:22:55.001Z</time></trkpt><trkpt lat="40.40781916298032" lon="8.411254816596779"><ele>163.0</ele><time>2026-05-02T14:22:56.001Z</time></trkpt><trkpt lat="40.407684327279455" lon="8.411506094896566"><ele>163.0</ele><time>2026-05-02T14:22:57.001Z</time></trkpt><trkpt lat="40.407542593390495" lon="8.411775021556483"><ele>163.0</ele><time>2026-05-02T14:22:58.001Z</time></trkpt><trkpt lat="40.407403239327145" lon="8.412067473549346"><ele>170.5</ele><time>2026-05-02T14:22:59.001Z</time></trkpt><trkpt lat="40.4072495477722" lon="8.41236568371937"><ele>178.0</ele><time>2026-05-02T14:23:00.001Z</time></trkpt><trkpt lat="40.40709782882693" lon="8.412626284758407"><ele>163.5</ele><time>2026-05-02T14:23:01.001Z</time></trkpt><trkpt lat="40.406967060608224" lon="8.412878830320675"><ele>149.0</ele><time>2026-05-02T14:23:02.001Z</time></trkpt><trkpt lat="40.406839566488564" lon="8.413125053185826"><ele>149.0</ele><time>2026-05-02T14:23:03.001Z</time></trkpt><trkpt lat="40.4067178661804" lon="8.413352932391378"><ele>149.0</ele><time>2026-05-02T14:23:04.001Z</time></trkpt><trkpt lat="40.40654515569467" lon="8.41351631300606"><ele>149.0</ele><time>2026-05-02T14:23:05.001Z</time></trkpt><trkpt lat="40.40634439659348" lon="8.413605280219315"><ele>146.5</ele><time>2026-05-02T14:23:06.001Z</time></trkpt><trkpt lat="40.40611430040752" lon="8.413620869039816"><ele>144.0</ele><time>2026-05-02T14:23:07.001Z</time></trkpt><trkpt lat="40.40589474855483" lon="8.413554159500091"><ele>144.0</ele><time>2026-05-02T14:23:08.001Z</time></trkpt><trkpt lat="40.40570165197291" lon="8.413409996077931"><ele>144.0</ele><time>2026-05-02T14:23:09.001Z</time></trkpt><trkpt lat="40.405545518005034" lon="8.413202593031123"><ele>144.0</ele><time>2026-05-02T14:23:10.001Z</time></trkpt><trkpt lat="40.40538928340541" lon="8.412958912021475"><ele>145.5</ele><time>2026-05-02T14:23:11.001Z</time></trkpt><trkpt lat="40.40521751457921" lon="8.412731471036775"><ele>147.0</ele><time>2026-05-02T14:23:12.001Z</time></trkpt><trkpt lat="40.40502280656615" lon="8.412550167338063"><ele>147.0</ele><time>2026-05-02T14:23:13.001Z</time></trkpt><trkpt lat="40.40483204927619" lon="8.412401502970487"><ele>147.0</ele><time>2026-05-02T14:23:14.001Z</time></trkpt><trkpt lat="40.40465334076116" lon="8.41226100776476"><ele>147.0</ele><time>2026-05-02T14:23:15.001Z</time></trkpt><trkpt lat="40.40448977987778" lon="8.41212923630281"><ele>147.0</ele><time>2026-05-02T14:23:16.001Z</time></trkpt><trkpt lat="40.40433393664031" lon="8.411987721784158"><ele>147.0</ele><time>2026-05-02T14:23:17.001Z</time></trkpt><trkpt lat="40.404182009311306" lon="8.41183817412135"><ele>147.0</ele><time>2026-05-02T14:23:18.001Z</time></trkpt><trkpt lat="40.404041609036796" lon="8.411669015287028"><ele>147.0</ele><time>2026-05-02T14:23:19.001Z</time></trkpt><trkpt lat="40.40391594235773" lon="8.411454455976402"><ele>147.0</ele><time>2026-05-02T14:23:20.001Z</time></trkpt><trkpt lat="40.40382445670722" lon="8.41118528310386"><ele>147.0</ele><time>2026-05-02T14:23:21.001Z</time></trkpt><trkpt lat="40.40373446696931" lon="8.410881912053208"><ele>154.0</ele><time>2026-05-02T14:23:22.001Z</time></trkpt><trkpt lat="40.4036224262055" lon="8.410573587703398"><ele>161.0</ele><time>2026-05-02T14:23:23.001Z</time></trkpt><trkpt lat="40.403487859145756" lon="8.410286825940286"><ele>161.0</ele><time>2026-05-02T14:23:24.001Z</time></trkpt><trkpt lat="40.40334752100707" lon="8.410015961145811"><ele>161.0</ele><time>2026-05-02T14:23:25.001Z</time></trkpt><trkpt lat="40.4032317014139" lon="8.409769801755395"><ele>164.0</ele><time>2026-05-02T14:23:26.001Z</time></trkpt><trkpt lat="40.40311354868223" lon="8.409543680430547"><ele>167.0</ele><time>2026-05-02T14:23:27.001Z</time></trkpt><trkpt lat="40.40296049395477" lon="8.409351875612579"><ele>170.0</ele><time>2026-05-02T14:23:28.001Z</time></trkpt><trkpt lat="40.402763489525455" lon="8.409211503620789"><ele>170.0</ele><time>2026-05-02T14:23:29.001Z</time></trkpt><trkpt lat="40.40255859164109" lon="8.409080213953466"><ele>170.0</ele><time>2026-05-02T14:23:30.001Z</time></trkpt><trkpt lat="40.40236547859827" lon="8.408997791268364"><ele>170.0</ele><time>2026-05-02T14:23:31.001Z</time></trkpt><trkpt lat="40.40217706737755" lon="8.408973889345582"><ele>167.0</ele><time>2026-05-02T14:23:32.001Z</time></trkpt><trkpt lat="40.40199792884886" lon="8.409043395769826"><ele>164.0</ele><time>2026-05-02T14:23:33.001Z</time></trkpt><trkpt lat="40.40182382278403" lon="8.409195885548444"><ele>161.0</ele><time>2026-05-02T14:23:34.001Z</time></trkpt><trkpt lat="40.40165556477946" lon="8.409432891357254"><ele>165.0</ele><time>2026-05-02T14:23:35.001Z</time></trkpt><trkpt lat="40.401458316078056" lon="8.409687201941868"><ele>169.0</ele><time>2026-05-02T14:23:36.001Z</time></trkpt><trkpt lat="40.401248078851054" lon="8.409943214663901"><ele>169.0</ele><time>2026-05-02T14:23:37.001Z</time></trkpt><trkpt lat="40.40105476177629" lon="8.410146625833919"><ele>169.0</ele><time>2026-05-02T14:23:38.001Z</time></trkpt><trkpt lat="40.40087241290657" lon="8.410333718524075"><ele>172.66666666666669</ele><time>2026-05-02T14:23:39.002Z</time></trkpt><trkpt lat="40.40071459409813" lon="8.410509150288862"><ele>176.33333333333334</ele><time>2026-05-02T14:23:40.002Z</time></trkpt><trkpt lat="40.400551269736276" lon="8.410681521558098"><ele>180.0</ele><time>2026-05-02T14:23:41.002Z</time></trkpt><trkpt lat="40.40038666430644" lon="8.410862699690565"><ele>180.0</ele><time>2026-05-02T14:23:42.002Z</time></trkpt><trkpt lat="40.40022018724194" lon="8.411024343359673"><ele>180.0</ele><time>2026-05-02T14:23:43.002Z</time></trkpt><trkpt lat="40.40005384599943" lon="8.411118776067715"><ele>180.0</ele><time>2026-05-02T14:23:44.002Z</time></trkpt><trkpt lat="40.399863243154094" lon="8.41114619281583"><ele>183.66666666666666</ele><time>2026-05-02T14:23:45.002Z</time></trkpt><trkpt lat="40.399661712507964" lon="8.411117595027617"><ele>187.33333333333331</ele><time>2026-05-02T14:23:46.002Z</time></trkpt><trkpt lat="40.39945219936739" lon="8.411057589004953"><ele>191.0</ele><time>2026-05-02T14:23:47.002Z</time></trkpt><trkpt lat="40.399244970889534" lon="8.411035508401785"><ele>191.0</ele><time>2026-05-02T14:23:48.002Z</time></trkpt><trkpt lat="40.39904133284711" lon="8.410981093874208"><ele>191.0</ele><time>2026-05-02T14:23:49.002Z</time></trkpt><trkpt lat="40.398864210450064" lon="8.410867279629993"><ele>191.0</ele><time>2026-05-02T14:23:50.002Z</time></trkpt><trkpt lat="40.39870552591678" lon="8.410689738023075"><ele>196.5</ele><time>2026-05-02T14:23:51.002Z</time></trkpt><trkpt lat="40.39855733392722" lon="8.410452923889055"><ele>202.0</ele><time>2026-05-02T14:23:52.002Z</time></trkpt><trkpt lat="40.39840292331728" lon="8.410204287475874"><ele>202.0</ele><time>2026-05-02T14:23:53.002Z</time></trkpt><trkpt lat="40.398264274805754" lon="8.409953116276297"><ele>202.0</ele><time>2026-05-02T14:23:54.002Z</time></trkpt><trkpt lat="40.39813712116459" lon="8.409723868757823"><ele>201.66666666666666</ele><time>2026-05-02T14:23:55.002Z</time></trkpt><trkpt lat="40.39801485311888" lon="8.409514997404333"><ele>201.33333333333331</ele><time>2026-05-02T14:23:56.002Z</time></trkpt><trkpt lat="40.39791966089458" lon="8.409294979588214"><ele>201.0</ele><time>2026-05-02T14:23:57.002Z</time></trkpt><trkpt lat="40.397873146631156" lon="8.409048857065212"><ele>204.66666666666669</ele><time>2026-05-02T14:23:58.002Z</time></trkpt><trkpt lat="40.397877098599814" lon="8.408787747766967"><ele>208.33333333333334</ele><time>2026-05-02T14:23:59.002Z</time></trkpt><trkpt lat="40.39793990554719" lon="8.40854207547262"><ele>212.0</ele><time>2026-05-02T14:24:00.002Z</time></trkpt><trkpt lat="40.39804805525352" lon="8.408328701332621"><ele>212.0</ele><time>2026-05-02T14:24:01.002Z</time></trkpt><trkpt lat="40.39818726192727" lon="8.408146833624903"><ele>212.0</ele><time>2026-05-02T14:24:02.002Z</time></trkpt><trkpt lat="40.398363679976" lon="8.408013783059118"><ele>212.0</ele><time>2026-05-02T14:24:03.002Z</time></trkpt><trkpt lat="40.39857305364688" lon="8.40792018773829"><ele>211.33333333333334</ele><time>2026-05-02T14:24:04.002Z</time></trkpt><trkpt lat="40.398772433687824" lon="8.407840851918408"><ele>210.66666666666669</ele><time>2026-05-02T14:24:05.002Z</time></trkpt><trkpt lat="40.39894060915242" lon="8.40774241100198"><ele>210.0</ele><time>2026-05-02T14:24:06.002Z</time></trkpt><trkpt lat="40.39907895259101" lon="8.407614895058243"><ele>210.0</ele><time>2026-05-02T14:24:07.002Z</time></trkpt><trkpt lat="40.399184898830974" lon="8.407440292500794"><ele>210.0</ele><time>2026-05-02T14:24:08.002Z</time></trkpt><trkpt lat="40.39924479261145" lon="8.407240814362206"><ele>210.0</ele><time>2026-05-02T14:24:09.002Z</time></trkpt><trkpt lat="40.399254059593396" lon="8.40700774927611"><ele>212.0</ele><time>2026-05-02T14:24:10.002Z</time></trkpt><trkpt lat="40.39922816992445" lon="8.406706036455114"><ele>214.0</ele><time>2026-05-02T14:24:11.002Z</time></trkpt><trkpt lat="40.39918420993941" lon="8.406384233028717"><ele>212.0</ele><time>2026-05-02T14:24:12.002Z</time></trkpt><trkpt lat="40.39912506929511" lon="8.406086386081055"><ele>210.0</ele><time>2026-05-02T14:24:13.002Z</time></trkpt><trkpt lat="40.399057445494044" lon="8.405799317901158"><ele>210.0</ele><time>2026-05-02T14:24:14.002Z</time></trkpt><trkpt lat="40.3989812396616" lon="8.405497041094511"><ele>210.0</ele><time>2026-05-02T14:24:15.002Z</time></trkpt><trkpt lat="40.398902150729285" lon="8.405170384044741"><ele>203.5</ele><time>2026-05-02T14:24:16.002Z</time></trkpt><trkpt lat="40.39884668225736" lon="8.404853397206542"><ele>197.0</ele><time>2026-05-02T14:24:17.002Z</time></trkpt><trkpt lat="40.39881127083731" lon="8.404558288608584"><ele>200.0</ele><time>2026-05-02T14:24:18.002Z</time></trkpt><trkpt lat="40.398786603492454" lon="8.404281033671927"><ele>203.0</ele><time>2026-05-02T14:24:19.002Z</time></trkpt><trkpt lat="40.39876169074134" lon="8.404026030699171"><ele>206.0</ele><time>2026-05-02T14:24:20.002Z</time></trkpt><trkpt lat="40.39868926484214" lon="8.403802602815809"><ele>206.0</ele><time>2026-05-02T14:24:21.002Z</time></trkpt><trkpt lat="40.39856540537429" lon="8.403607298472679"><ele>206.0</ele><time>2026-05-02T14:24:22.002Z</time></trkpt><trkpt lat="40.39839678162429" lon="8.403419337656114"><ele>206.0</ele><time>2026-05-02T14:24:23.002Z</time></trkpt><trkpt lat="40.39819219879271" lon="8.40329106096785"><ele>212.0</ele><time>2026-05-02T14:24:24.002Z</time></trkpt><trkpt lat="40.39795255776498" lon="8.403223928695247"><ele>218.0</ele><time>2026-05-02T14:24:25.002Z</time></trkpt><trkpt lat="40.397720466663294" lon="8.40320929734919"><ele>218.0</ele><time>2026-05-02T14:24:26.002Z</time></trkpt><trkpt lat="40.39750508622417" lon="8.403241070088747"><ele>218.0</ele><time>2026-05-02T14:24:27.002Z</time></trkpt><trkpt lat="40.397298923710366" lon="8.403290335226199"><ele>218.0</ele><time>2026-05-02T14:24:28.002Z</time></trkpt><trkpt lat="40.39709716881013" lon="8.403391025293846"><ele>213.5</ele><time>2026-05-02T14:24:29.002Z</time></trkpt><trkpt lat="40.39689599633711" lon="8.403572413342049"><ele>209.0</ele><time>2026-05-02T14:24:30.003Z</time></trkpt><trkpt lat="40.396707583426874" lon="8.403816033178655"><ele>211.0</ele><time>2026-05-02T14:24:31.003Z</time></trkpt><trkpt lat="40.39654093710102" lon="8.404101577256789"><ele>213.0</ele><time>2026-05-02T14:24:32.003Z</time></trkpt><trkpt lat="40.39640994536637" lon="8.404388898796416"><ele>209.66666666666669</ele><time>2026-05-02T14:24:33.003Z</time></trkpt><trkpt lat="40.396303089571354" lon="8.404656767420306"><ele>206.33333333333334</ele><time>2026-05-02T14:24:34.001Z</time></trkpt><trkpt lat="40.396172259859114" lon="8.404848454913182"><ele>203.0</ele><time>2026-05-02T14:24:35.001Z</time></trkpt><trkpt lat="40.396017349384735" lon="8.404940669716522"><ele>209.0</ele><time>2026-05-02T14:24:36.001Z</time></trkpt><trkpt lat="40.395832145252406" lon="8.404976699977153"><ele>215.0</ele><time>2026-05-02T14:24:37.001Z</time></trkpt><trkpt lat="40.39562173610325" lon="8.40495683564804"><ele>221.0</ele><time>2026-05-02T14:24:38.001Z</time></trkpt><trkpt lat="40.395403108919545" lon="8.404858636374076"><ele>221.0</ele><time>2026-05-02T14:24:39.001Z</time></trkpt><trkpt lat="40.39520267792606" lon="8.40479875287319"><ele>221.0</ele><time>2026-05-02T14:24:40.001Z</time></trkpt><trkpt lat="40.39499987219" lon="8.404795301049914"><ele>221.0</ele><time>2026-05-02T14:24:41.001Z</time></trkpt><trkpt lat="40.39478106289949" lon="8.404826735017728"><ele>221.5</ele><time>2026-05-02T14:24:42.001Z</time></trkpt><trkpt lat="40.39453838840352" lon="8.404849116406856"><ele>222.0</ele><time>2026-05-02T14:24:43.001Z</time></trkpt><trkpt lat="40.394295196841554" lon="8.404861745890267"><ele>222.0</ele><time>2026-05-02T14:24:44.001Z</time></trkpt><trkpt lat="40.394046469649325" lon="8.404865436430313"><ele>222.0</ele><time>2026-05-02T14:24:45.001Z</time></trkpt><trkpt lat="40.39380419790366" lon="8.404880707516742"><ele>222.33333333333331</ele><time>2026-05-02T14:24:46.001Z</time></trkpt><trkpt lat="40.39357760145406" lon="8.404886669446148"><ele>222.66666666666666</ele><time>2026-05-02T14:24:47.001Z</time></trkpt><trkpt lat="40.39335873866784" lon="8.404900481791458"><ele>223.0</ele><time>2026-05-02T14:24:48.001Z</time></trkpt><trkpt lat="40.3931342570728" lon="8.40491218036687"><ele>229.0</ele><time>2026-05-02T14:24:49.001Z</time></trkpt><trkpt lat="40.39290785799626" lon="8.404898489504232"><ele>235.0</ele><time>2026-05-02T14:24:50.001Z</time></trkpt><trkpt lat="40.392680403837964" lon="8.404843756564942"><ele>235.0</ele><time>2026-05-02T14:24:51.001Z</time></trkpt><trkpt lat="40.392450186037834" lon="8.404744410583351"><ele>235.0</ele><time>2026-05-02T14:24:52.001Z</time></trkpt><trkpt lat="40.392227953786715" lon="8.40463675269354"><ele>227.33333333333331</ele><time>2026-05-02T14:24:53.001Z</time></trkpt><trkpt lat="40.392012035000654" lon="8.40454232139503"><ele>219.66666666666669</ele><time>2026-05-02T14:24:54.001Z</time></trkpt><trkpt lat="40.39181394543488" lon="8.404458908320972"><ele>212.0</ele><time>2026-05-02T14:24:55.001Z</time></trkpt><trkpt lat="40.391605757694585" lon="8.404402306828464"><ele>212.0</ele><time>2026-05-02T14:24:56.001Z</time></trkpt><trkpt lat="40.391407505173156" lon="8.404422621231507"><ele>212.0</ele><time>2026-05-02T14:24:57.001Z</time></trkpt><trkpt lat="40.3912294257003" lon="8.40451424207771"><ele>212.0</ele><time>2026-05-02T14:24:58.001Z</time></trkpt><trkpt lat="40.39106956091163" lon="8.404655805467108"><ele>219.0</ele><time>2026-05-02T14:24:59.001Z</time></trkpt><trkpt lat="40.39095326912743" lon="8.404834431654026"><ele>226.0</ele><time>2026-05-02T14:25:00.001Z</time></trkpt><trkpt lat="40.39084098639706" lon="8.404989218264154"><ele>233.0</ele><time>2026-05-02T14:25:01.001Z</time></trkpt><trkpt lat="40.39067448794958" lon="8.405079580752512"><ele>234.0</ele><time>2026-05-02T14:25:02.001Z</time></trkpt><trkpt lat="40.39049519830645" lon="8.405078285674932"><ele>235.0</ele><time>2026-05-02T14:25:03.001Z</time></trkpt><trkpt lat="40.3903228577964" lon="8.405009462091492"><ele>236.0</ele><time>2026-05-02T14:25:04.001Z</time></trkpt><trkpt lat="40.39017049951366" lon="8.40488270203655"><ele>236.0</ele><time>2026-05-02T14:25:05.001Z</time></trkpt><trkpt lat="40.390048939434735" lon="8.404707343424546"><ele>236.0</ele><time>2026-05-02T14:25:06.001Z</time></trkpt><trkpt lat="40.38996065026081" lon="8.404479931548968"><ele>236.0</ele><time>2026-05-02T14:25:07.001Z</time></trkpt><trkpt lat="40.38992393499988" lon="8.404213399217104"><ele>232.5</ele><time>2026-05-02T14:25:08.001Z</time></trkpt><trkpt lat="40.38991834276145" lon="8.4039192934268"><ele>229.0</ele><time>2026-05-02T14:25:09.001Z</time></trkpt><trkpt lat="40.38995121775988" lon="8.403622108288213"><ele>228.0</ele><time>2026-05-02T14:25:10.001Z</time></trkpt><trkpt lat="40.38997702332511" lon="8.403359287097187"><ele>227.0</ele><time>2026-05-02T14:25:11.001Z</time></trkpt><trkpt lat="40.389931817416944" lon="8.40313951180284"><ele>226.0</ele><time>2026-05-02T14:25:12.001Z</time></trkpt><trkpt lat="40.389822673605494" lon="8.40296275413084"><ele>221.0</ele><time>2026-05-02T14:25:13.001Z</time></trkpt><trkpt lat="40.389673021201666" lon="8.4028562789085"><ele>216.0</ele><time>2026-05-02T14:25:14.001Z</time></trkpt><trkpt lat="40.38950379929273" lon="8.402789004658974"><ele>211.0</ele><time>2026-05-02T14:25:15.001Z</time></trkpt><trkpt lat="40.38928075329052" lon="8.402765551867349"><ele>211.0</ele><time>2026-05-02T14:25:16.001Z</time></trkpt><trkpt lat="40.389005615194186" lon="8.402764939537382"><ele>211.0</ele><time>2026-05-02T14:25:17.001Z</time></trkpt><trkpt lat="40.388688802773714" lon="8.402768377198528"><ele>211.0</ele><time>2026-05-02T14:25:18.001Z</time></trkpt><trkpt lat="40.38841370459857" lon="8.402766444638967"><ele>211.0</ele><time>2026-05-02T14:25:19.001Z</time></trkpt><trkpt lat="40.3881377766633" lon="8.40274707342618"><ele>213.5</ele><time>2026-05-02T14:25:20.001Z</time></trkpt><trkpt lat="40.38786795319024" lon="8.4027374129708"><ele>216.0</ele><time>2026-05-02T14:25:21.001Z</time></trkpt><trkpt lat="40.38761261934244" lon="8.402736043948558"><ele>216.0</ele><time>2026-05-02T14:25:22.001Z</time></trkpt><trkpt lat="40.387366656088226" lon="8.402742688835266"><ele>216.0</ele><time>2026-05-02T14:25:23.001Z</time></trkpt><trkpt lat="40.3871193791821" lon="8.402753687408804"><ele>215.0</ele><time>2026-05-02T14:25:24.001Z</time></trkpt><trkpt lat="40.38687208043361" lon="8.40276756393149"><ele>214.0</ele><time>2026-05-02T14:25:25.001Z</time></trkpt><trkpt lat="40.38660976286927" lon="8.40279769640493"><ele>214.0</ele><time>2026-05-02T14:25:26.001Z</time></trkpt><trkpt lat="40.38634491492093" lon="8.402836605886062"><ele>214.0</ele><time>2026-05-02T14:25:27.001Z</time></trkpt><trkpt lat="40.386099325689834" lon="8.40286676330787"><ele>217.66666666666666</ele><time>2026-05-02T14:25:28.001Z</time></trkpt><trkpt lat="40.38588284365891" lon="8.402889233903121"><ele>221.33333333333331</ele><time>2026-05-02T14:25:29.001Z</time></trkpt><trkpt lat="40.38567712656494" lon="8.402908129628491"><ele>225.0</ele><time>2026-05-02T14:25:30.001Z</time></trkpt><trkpt lat="40.38548532748245" lon="8.402927715546712"><ele>225.33333333333331</ele><time>2026-05-02T14:25:31.001Z</time></trkpt><trkpt lat="40.38531159865582" lon="8.402945578861024"><ele>225.66666666666666</ele><time>2026-05-02T14:25:32.001Z</time></trkpt><trkpt lat="40.385148496709675" lon="8.402986215903317"><ele>226.0</ele><time>2026-05-02T14:25:33.001Z</time></trkpt><trkpt lat="40.38501240792828" lon="8.403066228000734"><ele>232.66666666666666</ele><time>2026-05-02T14:25:34.001Z</time></trkpt><trkpt lat="40.38491670889741" lon="8.40319828306232"><ele>239.33333333333331</ele><time>2026-05-02T14:25:35.001Z</time></trkpt><trkpt lat="40.384834831829835" lon="8.403366319651441"><ele>246.0</ele><time>2026-05-02T14:25:36.001Z</time></trkpt><trkpt lat="40.384768117360316" lon="8.403570612808954"><ele>246.0</ele><time>2026-05-02T14:25:37.001Z</time></trkpt><trkpt lat="40.384696474955085" lon="8.403754479208171"><ele>246.0</ele><time>2026-05-02T14:25:38.001Z</time></trkpt><trkpt lat="40.384629245817095" lon="8.403926127791935"><ele>246.0</ele><time>2026-05-02T14:25:39.001Z</time></trkpt><trkpt lat="40.38457723338296" lon="8.404071744980108"><ele>246.0</ele><time>2026-05-02T14:25:40.001Z</time></trkpt><trkpt lat="40.38450525578968" lon="8.40420955098707"><ele>247.25</ele><time>2026-05-02T14:25:41.001Z</time></trkpt><trkpt lat="40.38441582756626" lon="8.404336920845035"><ele>248.5</ele><time>2026-05-02T14:25:42.001Z</time></trkpt><trkpt lat="40.38429530503252" lon="8.404435050909694"><ele>249.75</ele><time>2026-05-02T14:25:43.001Z</time></trkpt><trkpt lat="40.38416726034338" lon="8.404516437970512"><ele>251.0</ele><time>2026-05-02T14:25:44.001Z</time></trkpt><trkpt lat="40.384031693267005" lon="8.40456325206023"><ele>251.0</ele><time>2026-05-02T14:25:45.001Z</time></trkpt><trkpt lat="40.3838923562339" lon="8.404561736524911"><ele>251.0</ele><time>2026-05-02T14:25:46.001Z</time></trkpt><trkpt lat="40.38374347396976" lon="8.404529175262017"><ele>251.0</ele><time>2026-05-02T14:25:47.001Z</time></trkpt><trkpt lat="40.38359543373907" lon="8.40444112047947"><ele>255.33333333333334</ele><time>2026-05-02T14:25:48.001Z</time></trkpt><trkpt lat="40.38345831937918" lon="8.404319001168489"><ele>259.6666666666667</ele><time>2026-05-02T14:25:49.001Z</time></trkpt><trkpt lat="40.38334101023543" lon="8.40414260250038"><ele>264.0</ele><time>2026-05-02T14:25:50.001Z</time></trkpt><trkpt lat="40.38324976330052" lon="8.403906008955508"><ele>261.3333333333333</ele><time>2026-05-02T14:25:51.002Z</time></trkpt><trkpt lat="40.38314377958476" lon="8.403731993986145"><ele>258.66666666666663</ele><time>2026-05-02T14:25:52.002Z</time></trkpt><trkpt lat="40.382981500514475" lon="8.40363374653806"><ele>256.0</ele><time>2026-05-02T14:25:53.002Z</time></trkpt><trkpt lat="40.382809158537974" lon="8.403588052047462"><ele>256.0</ele><time>2026-05-02T14:25:54.002Z</time></trkpt><trkpt lat="40.38264229163366" lon="8.403598620501043"><ele>256.0</ele><time>2026-05-02T14:25:55.002Z</time></trkpt><trkpt lat="40.38247460337799" lon="8.403668959162156"><ele>256.0</ele><time>2026-05-02T14:25:56.002Z</time></trkpt><trkpt lat="40.38231140767291" lon="8.403787541434877"><ele>257.3333333333333</ele><time>2026-05-02T14:25:57.002Z</time></trkpt><trkpt lat="40.38217399803901" lon="8.403962290532725"><ele>258.6666666666667</ele><time>2026-05-02T14:25:58.002Z</time></trkpt><trkpt lat="40.38206104898797" lon="8.404215570516861"><ele>260.0</ele><time>2026-05-02T14:25:59.002Z</time></trkpt><trkpt lat="40.381939769702775" lon="8.404516144366724"><ele>270.5</ele><time>2026-05-02T14:26:00.002Z</time></trkpt><trkpt lat="40.381780949478724" lon="8.404861068775917"><ele>281.0</ele><time>2026-05-02T14:26:01.002Z</time></trkpt><trkpt lat="40.381593040351916" lon="8.405231961223041"><ele>276.0</ele><time>2026-05-02T14:26:02.002Z</time></trkpt><trkpt lat="40.38140266448447" lon="8.405625754135396"><ele>271.0</ele><time>2026-05-02T14:26:03.002Z</time></trkpt><trkpt lat="40.38122685742761" lon="8.406019733555075"><ele>280.0</ele><time>2026-05-02T14:26:04.002Z</time></trkpt><trkpt lat="40.381086212961975" lon="8.406401694935731"><ele>289.0</ele><time>2026-05-02T14:26:05.002Z</time></trkpt><trkpt lat="40.38096987392925" lon="8.406735787787829"><ele>289.0</ele><time>2026-05-02T14:26:06.002Z</time></trkpt><trkpt lat="40.380863486271565" lon="8.407022517727485"><ele>289.0</ele><time>2026-05-02T14:26:07.002Z</time></trkpt><trkpt lat="40.38076761231442" lon="8.407258104773204"><ele>289.0</ele><time>2026-05-02T14:26:08.002Z</time></trkpt><trkpt lat="40.38066245908216" lon="8.407423500460443"><ele>295.0</ele><time>2026-05-02T14:26:09.002Z</time></trkpt><trkpt lat="40.380527517133345" lon="8.407540442295971"><ele>301.0</ele><time>2026-05-02T14:26:10.002Z</time></trkpt><trkpt lat="40.38034991243241" lon="8.407606503944375"><ele>307.0</ele><time>2026-05-02T14:26:11.002Z</time></trkpt><trkpt lat="40.380151588635286" lon="8.407595465775236"><ele>307.0</ele><time>2026-05-02T14:26:12.002Z</time></trkpt><trkpt lat="40.379973929033056" lon="8.407532516180733"><ele>307.0</ele><time>2026-05-02T14:26:13.002Z</time></trkpt><trkpt lat="40.37982727557575" lon="8.407387114461981"><ele>307.0</ele><time>2026-05-02T14:26:14.002Z</time></trkpt><trkpt lat="40.37969358853378" lon="8.40720548412919"><ele>311.5</ele><time>2026-05-02T14:26:15.002Z</time></trkpt><trkpt lat="40.37954496303496" lon="8.406941646812477"><ele>316.0</ele><time>2026-05-02T14:26:16.002Z</time></trkpt><trkpt lat="40.37940667830206" lon="8.406700492233535"><ele>316.0</ele><time>2026-05-02T14:26:17.002Z</time></trkpt><trkpt lat="40.37927345201233" lon="8.406514564609276"><ele>316.0</ele><time>2026-05-02T14:26:18.002Z</time></trkpt><trkpt lat="40.37914076090004" lon="8.406380811713372"><ele>316.0</ele><time>2026-05-02T14:26:19.002Z</time></trkpt><trkpt lat="40.37899593075756" lon="8.406295123346629"><ele>317.3333333333333</ele><time>2026-05-02T14:26:20.002Z</time></trkpt><trkpt lat="40.37882303660961" lon="8.406244920489497"><ele>318.6666666666667</ele><time>2026-05-02T14:26:21.002Z</time></trkpt><trkpt lat="40.37863323628581" lon="8.406236093680448"><ele>320.0</ele><time>2026-05-02T14:26:22.002Z</time></trkpt><trkpt lat="40.37845295496364" lon="8.406206393442313"><ele>320.0</ele><time>2026-05-02T14:26:23.002Z</time></trkpt><trkpt lat="40.37829897013504" lon="8.406123812913643"><ele>320.0</ele><time>2026-05-02T14:26:24.002Z</time></trkpt><trkpt lat="40.37819498762621" lon="8.405965471577687"><ele>320.0</ele><time>2026-05-02T14:26:25.002Z</time></trkpt><trkpt lat="40.378102026039244" lon="8.405786917951376"><ele>320.0</ele><time>2026-05-02T14:26:26.002Z</time></trkpt><trkpt lat="40.37805477119721" lon="8.405618770856277"><ele>320.0</ele><time>2026-05-02T14:26:27.002Z</time></trkpt><trkpt lat="40.37801855928262" lon="8.405454771005365"><ele>320.0</ele><time>2026-05-02T14:26:28.002Z</time></trkpt><trkpt lat="40.37796697013779" lon="8.405295877214899"><ele>320.0</ele><time>2026-05-02T14:26:29.002Z</time></trkpt><trkpt lat="40.3779072800302" lon="8.405101535596293"><ele>328.0</ele><time>2026-05-02T14:26:30.002Z</time></trkpt><trkpt lat="40.37785295325109" lon="8.404873064896856"><ele>336.0</ele><time>2026-05-02T14:26:31.002Z</time></trkpt><trkpt lat="40.377804639144266" lon="8.404645931558797"><ele>344.0</ele><time>2026-05-02T14:26:32.002Z</time></trkpt><trkpt lat="40.37773086118635" lon="8.404448398821868"><ele>344.0</ele><time>2026-05-02T14:26:33.002Z</time></trkpt><trkpt lat="40.37759975926073" lon="8.404281834711027"><ele>344.0</ele><time>2026-05-02T14:26:34.002Z</time></trkpt><trkpt lat="40.37744440385196" lon="8.404164830060882"><ele>344.0</ele><time>2026-05-02T14:26:35.002Z</time></trkpt><trkpt lat="40.37725635766518" lon="8.404102410080888"><ele>345.5</ele><time>2026-05-02T14:26:36.002Z</time></trkpt><trkpt lat="40.37703167433623" lon="8.404085248903794"><ele>347.0</ele><time>2026-05-02T14:26:37.002Z</time></trkpt><trkpt lat="40.37674340505981" lon="8.404078767958941"><ele>347.0</ele><time>2026-05-02T14:26:38.002Z</time></trkpt><trkpt lat="40.376444504306434" lon="8.404084194945575"><ele>347.0</ele><time>2026-05-02T14:26:39.002Z</time></trkpt><trkpt lat="40.37616542490419" lon="8.404091014962452"><ele>347.6666666666667</ele><time>2026-05-02T14:26:40.001Z</time></trkpt><trkpt lat="40.3759202609998" lon="8.404083771269535"><ele>348.3333333333333</ele><time>2026-05-02T14:26:41.001Z</time></trkpt><trkpt lat="40.375732025059214" lon="8.404113752998427"><ele>349.0</ele><time>2026-05-02T14:26:42.001Z</time></trkpt><trkpt lat="40.37557379867956" lon="8.404206488584224"><ele>349.66666666666663</ele><time>2026-05-02T14:26:43.001Z</time></trkpt><trkpt lat="40.37543771970322" lon="8.40434773850576"><ele>350.3333333333333</ele><time>2026-05-02T14:26:44.001Z</time></trkpt><trkpt lat="40.3753358753292" lon="8.404565546347905"><ele>351.0</ele><time>2026-05-02T14:26:45.001Z</time></trkpt><trkpt lat="40.37525391092776" lon="8.404792827504126"><ele>351.0</ele><time>2026-05-02T14:26:46.001Z</time></trkpt><trkpt lat="40.37519097872445" lon="8.405021572244541"><ele>351.0</ele><time>2026-05-02T14:26:47.001Z</time></trkpt><trkpt lat="40.3751020143364" lon="8.405203038709594"><ele>351.0</ele><time>2026-05-02T14:26:48.001Z</time></trkpt><trkpt lat="40.374982612319336" lon="8.405300931828705"><ele>351.0</ele><time>2026-05-02T14:26:49.001Z</time></trkpt><trkpt lat="40.37483799027086" lon="8.4053479472204"><ele>351.0</ele><time>2026-05-02T14:26:50.001Z</time></trkpt><trkpt lat="40.37466463564754" lon="8.405373172769583"><ele>351.0</ele><time>2026-05-02T14:26:51.001Z</time></trkpt><trkpt lat="40.3744714140098" lon="8.405338343677165"><ele>352.3333333333333</ele><time>2026-05-02T14:26:52.001Z</time></trkpt><trkpt lat="40.37427065768525" lon="8.405260626603068"><ele>353.66666666666663</ele><time>2026-05-02T14:26:53.001Z</time></trkpt><trkpt lat="40.374057593722625" lon="8.405189648349461"><ele>355.0</ele><time>2026-05-02T14:26:54.001Z</time></trkpt><trkpt lat="40.37383056448193" lon="8.405158487172804"><ele>361.0</ele><time>2026-05-02T14:26:55.001Z</time></trkpt><trkpt lat="40.37357262791998" lon="8.405095958325866"><ele>367.0</ele><time>2026-05-02T14:26:56.001Z</time></trkpt><trkpt lat="40.37333186479721" lon="8.405041749709037"><ele>367.0</ele><time>2026-05-02T14:26:57.001Z</time></trkpt><trkpt lat="40.373169280639914" lon="8.40495809675633"><ele>367.0</ele><time>2026-05-02T14:26:58.001Z</time></trkpt><trkpt lat="40.37307647812329" lon="8.404821820348255"><ele>367.0</ele><time>2026-05-02T14:26:59.001Z</time></trkpt><trkpt lat="40.37299046640082" lon="8.404622922343146"><ele>372.3333333333333</ele><time>2026-05-02T14:27:00.001Z</time></trkpt><trkpt lat="40.37293727542941" lon="8.404368910765466"><ele>377.6666666666667</ele><time>2026-05-02T14:27:01.001Z</time></trkpt><trkpt lat="40.37293342344426" lon="8.404087120241542"><ele>383.0</ele><time>2026-05-02T14:27:02.001Z</time></trkpt><trkpt lat="40.37296759139721" lon="8.403801656432137"><ele>383.0</ele><time>2026-05-02T14:27:03.001Z</time></trkpt><trkpt lat="40.37301016501747" lon="8.403505967138965"><ele>383.0</ele><time>2026-05-02T14:27:04.001Z</time></trkpt><trkpt lat="40.373022668778084" lon="8.403200783920564"><ele>380.0</ele><time>2026-05-02T14:27:05.001Z</time></trkpt><trkpt lat="40.3729849354581" lon="8.402918740313417"><ele>377.0</ele><time>2026-05-02T14:27:06.001Z</time></trkpt><trkpt lat="40.372929435006455" lon="8.402664518989715"><ele>374.0</ele><time>2026-05-02T14:27:07.001Z</time></trkpt><trkpt lat="40.37286305019816" lon="8.402447263169556"><ele>374.0</ele><time>2026-05-02T14:27:08.001Z</time></trkpt><trkpt lat="40.37276808221074" lon="8.402263560969201"><ele>374.0</ele><time>2026-05-02T14:27:09.001Z</time></trkpt><trkpt lat="40.372649181651184" lon="8.40212508140757"><ele>374.0</ele><time>2026-05-02T14:27:10.001Z</time></trkpt><trkpt lat="40.372497766130834" lon="8.40202986243453"><ele>370.0</ele><time>2026-05-02T14:27:11.001Z</time></trkpt><trkpt lat="40.37231871285354" lon="8.401982507604165"><ele>366.0</ele><time>2026-05-02T14:27:12.001Z</time></trkpt><trkpt lat="40.37210224494244" lon="8.401980396163912"><ele>362.0</ele><time>2026-05-02T14:27:13.001Z</time></trkpt><trkpt lat="40.3718556671573" lon="8.401977610920941"><ele>360.5</ele><time>2026-05-02T14:27:14.001Z</time></trkpt><trkpt lat="40.37158030028292" lon="8.401945370430795"><ele>359.0</ele><time>2026-05-02T14:27:15.001Z</time></trkpt><trkpt lat="40.371256017642565" lon="8.401897407618863"><ele>359.0</ele><time>2026-05-02T14:27:16.001Z</time></trkpt><trkpt lat="40.370921982932565" lon="8.401858336171768"><ele>359.0</ele><time>2026-05-02T14:27:17.001Z</time></trkpt><trkpt lat="40.370629668100364" lon="8.401829613036663"><ele>359.0</ele><time>2026-05-02T14:27:18.001Z</time></trkpt><trkpt lat="40.37036919718157" lon="8.401794618254685"><ele>359.0</ele><time>2026-05-02T14:27:19.001Z</time></trkpt><trkpt lat="40.370138118726885" lon="8.401757941626983"><ele>359.0</ele><time>2026-05-02T14:27:20.001Z</time></trkpt><trkpt lat="40.36989410221123" lon="8.401732844093715"><ele>359.0</ele><time>2026-05-02T14:27:21.001Z</time></trkpt><trkpt lat="40.36964341129486" lon="8.401711011904185"><ele>362.0</ele><time>2026-05-02T14:27:22.001Z</time></trkpt><trkpt lat="40.369403194793335" lon="8.40168199982941"><ele>365.0</ele><time>2026-05-02T14:27:23.001Z</time></trkpt><trkpt lat="40.36917445146463" lon="8.401650287069614"><ele>365.0</ele><time>2026-05-02T14:27:24.001Z</time></trkpt><trkpt lat="40.36894590236923" lon="8.401632964862861"><ele>365.0</ele><time>2026-05-02T14:27:25.001Z</time></trkpt><trkpt lat="40.368704088378436" lon="8.4016374167872"><ele>365.0</ele><time>2026-05-02T14:27:26.001Z</time></trkpt><trkpt lat="40.368456104126246" lon="8.401656294949577"><ele>365.0</ele><time>2026-05-02T14:27:27.001Z</time></trkpt><trkpt lat="40.368204404402285" lon="8.401686989596891"><ele>366.0</ele><time>2026-05-02T14:27:28.001Z</time></trkpt><trkpt lat="40.36795317106344" lon="8.401694019758208"><ele>367.0</ele><time>2026-05-02T14:27:29.001Z</time></trkpt><trkpt lat="40.36770805123332" lon="8.401662863448925"><ele>367.0</ele><time>2026-05-02T14:27:30.001Z</time></trkpt><trkpt lat="40.367467800636454" lon="8.4015877118043"><ele>367.0</ele><time>2026-05-02T14:27:31.001Z</time></trkpt><trkpt lat="40.36724322550637" lon="8.401475512112786"><ele>369.3333333333333</ele><time>2026-05-02T14:27:32.001Z</time></trkpt><trkpt lat="40.367039729236154" lon="8.401359939981727"><ele>371.6666666666667</ele><time>2026-05-02T14:27:33.001Z</time></trkpt><trkpt lat="40.36685418476586" lon="8.401254989313562"><ele>374.0</ele><time>2026-05-02T14:27:34.001Z</time></trkpt><trkpt lat="40.36667632704455" lon="8.401219894926008"><ele>367.6666666666667</ele><time>2026-05-02T14:27:35.001Z</time></trkpt><trkpt lat="40.36651091548513" lon="8.401236306657465"><ele>361.3333333333333</ele><time>2026-05-02T14:27:36.001Z</time></trkpt><trkpt lat="40.36633801960357" lon="8.401341646242061"><ele>355.0</ele><time>2026-05-02T14:27:37.001Z</time></trkpt><trkpt lat="40.366187802595526" lon="8.401492010983286"><ele>355.0</ele><time>2026-05-02T14:27:38.001Z</time></trkpt><trkpt lat="40.36605679830608" lon="8.401690178511727"><ele>355.0</ele><time>2026-05-02T14:27:39.001Z</time></trkpt><trkpt lat="40.36592162970041" lon="8.40188440961571"><ele>355.0</ele><time>2026-05-02T14:27:40.001Z</time></trkpt><trkpt lat="40.36573894467364" lon="8.401995437861299"><ele>355.0</ele><time>2026-05-02T14:27:41.001Z</time></trkpt><trkpt lat="40.36552881383961" lon="8.40201848193457"><ele>355.0</ele><time>2026-05-02T14:27:42.001Z</time></trkpt><trkpt lat="40.36530342893371" lon="8.402002134150965"><ele>355.0</ele><time>2026-05-02T14:27:43.001Z</time></trkpt><trkpt lat="40.36509910652999" lon="8.402011120067803"><ele>351.66666666666663</ele><time>2026-05-02T14:27:44.001Z</time></trkpt><trkpt lat="40.36493636057238" lon="8.402077972276706"><ele>348.3333333333333</ele><time>2026-05-02T14:27:45.001Z</time></trkpt><trkpt lat="40.36481070459552" lon="8.402187416797998"><ele>345.0</ele><time>2026-05-02T14:27:46.001Z</time></trkpt><trkpt lat="40.36471131733532" lon="8.402358478949447"><ele>345.6666666666667</ele><time>2026-05-02T14:27:47.001Z</time></trkpt><trkpt lat="40.3646471314835" lon="8.402565716804755"><ele>346.33333333333337</ele><time>2026-05-02T14:27:48.001Z</time></trkpt><trkpt lat="40.364633740133996" lon="8.402804796501387"><ele>347.0</ele><time>2026-05-02T14:27:49.001Z</time></trkpt><trkpt lat="40.3646530606307" lon="8.403032368193912"><ele>354.0</ele><time>2026-05-02T14:27:50.001Z</time></trkpt><trkpt lat="40.36470281673848" lon="8.403227920912737"><ele>361.0</ele><time>2026-05-02T14:27:51.001Z</time></trkpt><trkpt lat="40.36479565954113" lon="8.403401442707338"><ele>368.0</ele><time>2026-05-02T14:27:52.001Z</time></trkpt><trkpt lat="40.36492443139825" lon="8.403509594184"><ele>368.0</ele><time>2026-05-02T14:27:53.001Z</time></trkpt><trkpt lat="40.36507753307415" lon="8.403592975834242"><ele>368.0</ele><time>2026-05-02T14:27:54.001Z</time></trkpt><trkpt lat="40.36527369316617" lon="8.403681165480092"><ele>368.0</ele><time>2026-05-02T14:27:55.001Z</time></trkpt><trkpt lat="40.36549312651215" lon="8.403759081075973"><ele>365.5</ele><time>2026-05-02T14:27:56.001Z</time></trkpt><trkpt lat="40.365711262901144" lon="8.403856931570463"><ele>363.0</ele><time>2026-05-02T14:27:57.001Z</time></trkpt><trkpt lat="40.365914966447875" lon="8.40400063035964"><ele>363.0</ele><time>2026-05-02T14:27:58.001Z</time></trkpt><trkpt lat="40.36611100687421" lon="8.404195013286575"><ele>363.0</ele><time>2026-05-02T14:27:59.001Z</time></trkpt><trkpt lat="40.36629290543494" lon="8.40442345103352"><ele>361.0</ele><time>2026-05-02T14:28:00.001Z</time></trkpt><trkpt lat="40.36645210230698" lon="8.40465065998765"><ele>359.0</ele><time>2026-05-02T14:28:01.001Z</time></trkpt><trkpt lat="40.36660017218089" lon="8.404854905939589"><ele>359.0</ele><time>2026-05-02T14:28:02.001Z</time></trkpt><trkpt lat="40.36673478505922" lon="8.405006645155552"><ele>359.0</ele><time>2026-05-02T14:28:03.001Z</time></trkpt><trkpt lat="40.36687932627915" lon="8.405114579857283"><ele>359.0</ele><time>2026-05-02T14:28:04.001Z</time></trkpt><trkpt lat="40.367049849258635" lon="8.405191495968367"><ele>359.0</ele><time>2026-05-02T14:28:05.001Z</time></trkpt><trkpt lat="40.36718609135876" lon="8.405278662708213"><ele>359.0</ele><time>2026-05-02T14:28:06.001Z</time></trkpt><trkpt lat="40.36729485044948" lon="8.40540157636435"><ele>359.0</ele><time>2026-05-02T14:28:07.001Z</time></trkpt><trkpt lat="40.36736510832256" lon="8.405553141586605"><ele>359.0</ele><time>2026-05-02T14:28:08.001Z</time></trkpt><trkpt lat="40.36740276457585" lon="8.405728011752762"><ele>359.0</ele><time>2026-05-02T14:28:09.001Z</time></trkpt><trkpt lat="40.36739965095054" lon="8.405923826186187"><ele>359.0</ele><time>2026-05-02T14:28:10.001Z</time></trkpt><trkpt lat="40.36735837930109" lon="8.406124919660504"><ele>359.0</ele><time>2026-05-02T14:28:11.001Z</time></trkpt><trkpt lat="40.3672548836983" lon="8.4063453711111"><ele>349.0</ele><time>2026-05-02T14:28:12.002Z</time></trkpt><trkpt lat="40.36710846782209" lon="8.406563514684022"><ele>339.0</ele><time>2026-05-02T14:28:13.002Z</time></trkpt><trkpt lat="40.36694109179418" lon="8.406798200061155"><ele>339.0</ele><time>2026-05-02T14:28:14.002Z</time></trkpt><trkpt lat="40.36676478456041" lon="8.407059852960352"><ele>339.0</ele><time>2026-05-02T14:28:15.002Z</time></trkpt><trkpt lat="40.366614300716776" lon="8.40730943220972"><ele>342.3333333333333</ele><time>2026-05-02T14:28:16.002Z</time></trkpt><trkpt lat="40.36647772433872" lon="8.407540170487753"><ele>345.66666666666663</ele><time>2026-05-02T14:28:17.002Z</time></trkpt><trkpt lat="40.366373755300835" lon="8.407762253417696"><ele>349.0</ele><time>2026-05-02T14:28:18.002Z</time></trkpt><trkpt lat="40.36631956322329" lon="8.4079942568008"><ele>345.3333333333333</ele><time>2026-05-02T14:28:19.002Z</time></trkpt><trkpt lat="40.36631677241748" lon="8.408257030141382"><ele>341.6666666666667</ele><time>2026-05-02T14:28:20.002Z</time></trkpt><trkpt lat="40.36634091282065" lon="8.408556731511514"><ele>338.0</ele><time>2026-05-02T14:28:21.002Z</time></trkpt><trkpt lat="40.36638680673324" lon="8.408878352893584"><ele>338.0</ele><time>2026-05-02T14:28:22.002Z</time></trkpt><trkpt lat="40.36640124371046" lon="8.40917327062892"><ele>338.0</ele><time>2026-05-02T14:28:23.002Z</time></trkpt><trkpt lat="40.36637239373569" lon="8.409428127445656"><ele>338.0</ele><time>2026-05-02T14:28:24.002Z</time></trkpt><trkpt lat="40.36629565524015" lon="8.409653239873686"><ele>336.33333333333337</ele><time>2026-05-02T14:28:25.002Z</time></trkpt><trkpt lat="40.366177116870276" lon="8.409849856076617"><ele>334.6666666666667</ele><time>2026-05-02T14:28:26.002Z</time></trkpt><trkpt lat="40.36601305408798" lon="8.41000544625401"><ele>333.0</ele><time>2026-05-02T14:28:27.002Z</time></trkpt><trkpt lat="40.365817507748616" lon="8.41012770179442"><ele>333.0</ele><time>2026-05-02T14:28:28.002Z</time></trkpt><trkpt lat="40.36560260244207" lon="8.41022035215646"><ele>333.0</ele><time>2026-05-02T14:28:29.002Z</time></trkpt><trkpt lat="40.36540069924935" lon="8.410329516020703"><ele>333.0</ele><time>2026-05-02T14:28:30.002Z</time></trkpt><trkpt lat="40.365217471135416" lon="8.410393759993035"><ele>333.6666666666667</ele><time>2026-05-02T14:28:31.002Z</time></trkpt><trkpt lat="40.365035618014275" lon="8.410526359589724"><ele>334.33333333333337</ele><time>2026-05-02T14:28:32.002Z</time></trkpt><trkpt lat="40.36485338959084" lon="8.410648831300238"><ele>335.0</ele><time>2026-05-02T14:28:33.002Z</time></trkpt><trkpt lat="40.364687483420596" lon="8.410818980174927"><ele>321.5</ele><time>2026-05-02T14:28:34.002Z</time></trkpt><trkpt lat="40.364534113606354" lon="8.411047755760135"><ele>308.0</ele><time>2026-05-02T14:28:35.002Z</time></trkpt><trkpt lat="40.36436137693588" lon="8.411319985173652"><ele>311.0</ele><time>2026-05-02T14:28:36.002Z</time></trkpt><trkpt lat="40.36416379377724" lon="8.411599893701124"><ele>314.0</ele><time>2026-05-02T14:28:37.002Z</time></trkpt><trkpt lat="40.36394432540798" lon="8.411899986496552"><ele>310.0</ele><time>2026-05-02T14:28:38.002Z</time></trkpt><trkpt lat="40.3637132274348" lon="8.412214162494196"><ele>306.0</ele><time>2026-05-02T14:28:39.002Z</time></trkpt><trkpt lat="40.363479942392765" lon="8.412543702490478"><ele>306.0</ele><time>2026-05-02T14:28:40.002Z</time></trkpt><trkpt lat="40.363239521113215" lon="8.412885204149282"><ele>306.0</ele><time>2026-05-02T14:28:41.002Z</time></trkpt><trkpt lat="40.36299787754846" lon="8.413231058133183"><ele>309.0</ele><time>2026-05-02T14:28:42.002Z</time></trkpt><trkpt lat="40.3627607517632" lon="8.413560940786974"><ele>312.0</ele><time>2026-05-02T14:28:43.002Z</time></trkpt><trkpt lat="40.36253228480438" lon="8.413875623459841"><ele>312.0</ele><time>2026-05-02T14:28:44.002Z</time></trkpt><trkpt lat="40.36231041895728" lon="8.414177316026331"><ele>312.0</ele><time>2026-05-02T14:28:45.002Z</time></trkpt><trkpt lat="40.36209042371562" lon="8.414482240071445"><ele>303.0</ele><time>2026-05-02T14:28:46.001Z</time></trkpt><trkpt lat="40.36186708052735" lon="8.41478834303264"><ele>294.0</ele><time>2026-05-02T14:28:47.001Z</time></trkpt><trkpt lat="40.36165037011492" lon="8.415090613952078"><ele>294.0</ele><time>2026-05-02T14:28:48.001Z</time></trkpt><trkpt lat="40.36142778458743" lon="8.415396995464942"><ele>294.0</ele><time>2026-05-02T14:28:49.001Z</time></trkpt><trkpt lat="40.361209189434064" lon="8.41569976147382"><ele>290.0</ele><time>2026-05-02T14:28:50.001Z</time></trkpt><trkpt lat="40.3609948277029" lon="8.415992812982683"><ele>286.0</ele><time>2026-05-02T14:28:51.001Z</time></trkpt><trkpt lat="40.360784672508714" lon="8.416284229018974"><ele>284.0</ele><time>2026-05-02T14:28:52.001Z</time></trkpt><trkpt lat="40.36058244224465" lon="8.416574286845513"><ele>282.0</ele><time>2026-05-02T14:28:53.001Z</time></trkpt><trkpt lat="40.36039148436494" lon="8.416873232872671"><ele>286.0</ele><time>2026-05-02T14:28:54.001Z</time></trkpt><trkpt lat="40.3602206441787" lon="8.417198272045699"><ele>290.0</ele><time>2026-05-02T14:28:55.001Z</time></trkpt><trkpt lat="40.36005515336211" lon="8.417549398210138"><ele>290.0</ele><time>2026-05-02T14:28:56.001Z</time></trkpt><trkpt lat="40.35989494037883" lon="8.4179135518177"><ele>290.0</ele><time>2026-05-02T14:28:57.001Z</time></trkpt><trkpt lat="40.359729644844165" lon="8.418257618655407"><ele>286.0</ele><time>2026-05-02T14:28:58.001Z</time></trkpt><trkpt lat="40.359571947490004" lon="8.41858643788165"><ele>282.0</ele><time>2026-05-02T14:28:59.001Z</time></trkpt><trkpt lat="40.359406467292104" lon="8.418910560393208"><ele>282.0</ele><time>2026-05-02T14:29:00.001Z</time></trkpt><trkpt lat="40.35923805082177" lon="8.419230912640682"><ele>282.0</ele><time>2026-05-02T14:29:01.001Z</time></trkpt><trkpt lat="40.35908515490737" lon="8.41954592402533"><ele>288.0</ele><time>2026-05-02T14:29:02.001Z</time></trkpt><trkpt lat="40.358940321854774" lon="8.419857533420888"><ele>294.0</ele><time>2026-05-02T14:29:03.001Z</time></trkpt><trkpt lat="40.35879482588639" lon="8.420170655734303"><ele>285.0</ele><time>2026-05-02T14:29:04.001Z</time></trkpt><trkpt lat="40.35864802471412" lon="8.420465941841853"><ele>276.0</ele><time>2026-05-02T14:29:05.001Z</time></trkpt><trkpt lat="40.35850943980455" lon="8.420738024618656"><ele>276.0</ele><time>2026-05-02T14:29:06.001Z</time></trkpt><trkpt lat="40.358363956432484" lon="8.420977352572505"><ele>276.0</ele><time>2026-05-02T14:29:07.001Z</time></trkpt><trkpt lat="40.358198492922675" lon="8.421129777599266"><ele>276.0</ele><time>2026-05-02T14:29:08.001Z</time></trkpt><trkpt lat="40.35800016304527" lon="8.421224159988036"><ele>273.0</ele><time>2026-05-02T14:29:09.001Z</time></trkpt><trkpt lat="40.357783498712394" lon="8.421267157137382"><ele>270.0</ele><time>2026-05-02T14:29:10.001Z</time></trkpt><trkpt lat="40.35755585354504" lon="8.421257184468026"><ele>267.0</ele><time>2026-05-02T14:29:11.001Z</time></trkpt><trkpt lat="40.35732654101892" lon="8.421227893295928"><ele>268.6666666666667</ele><time>2026-05-02T14:29:12.001Z</time></trkpt><trkpt lat="40.35710826145014" lon="8.421250139764968"><ele>270.33333333333337</ele><time>2026-05-02T14:29:13.001Z</time></trkpt><trkpt lat="40.35691876275682" lon="8.421367236448145"><ele>272.0</ele><time>2026-05-02T14:29:14.001Z</time></trkpt><trkpt lat="40.35673098191827" lon="8.421553245902823"><ele>282.5</ele><time>2026-05-02T14:29:15.001Z</time></trkpt><trkpt lat="40.35655177818992" lon="8.421772206347548"><ele>293.0</ele><time>2026-05-02T14:29:16.001Z</time></trkpt><trkpt lat="40.3563851590289" lon="8.422030585674536"><ele>294.0</ele><time>2026-05-02T14:29:17.001Z</time></trkpt><trkpt lat="40.35622705381431" lon="8.422313747902907"><ele>295.0</ele><time>2026-05-02T14:29:18.001Z</time></trkpt><trkpt lat="40.356072296684026" lon="8.422613733417327"><ele>295.0</ele><time>2026-05-02T14:29:19.001Z</time></trkpt><trkpt lat="40.35589369195978" lon="8.422960140113876"><ele>295.0</ele><time>2026-05-02T14:29:20.001Z</time></trkpt><trkpt lat="40.355708274570965" lon="8.423296056853706"><ele>292.5</ele><time>2026-05-02T14:29:21.001Z</time></trkpt><trkpt lat="40.3555403154964" lon="8.423602424059286"><ele>290.0</ele><time>2026-05-02T14:29:22.001Z</time></trkpt><trkpt lat="40.355383355585815" lon="8.423889523087809"><ele>290.0</ele><time>2026-05-02T14:29:23.001Z</time></trkpt><trkpt lat="40.355233048730675" lon="8.424165395346668"><ele>290.0</ele><time>2026-05-02T14:29:24.001Z</time></trkpt><trkpt lat="40.355083553839485" lon="8.42444393199006"><ele>293.5</ele><time>2026-05-02T14:29:25.001Z</time></trkpt><trkpt lat="40.35492841049345" lon="8.424731897527696"><ele>297.0</ele><time>2026-05-02T14:29:26.001Z</time></trkpt><trkpt lat="40.35475921326501" lon="8.425036367239922"><ele>285.5</ele><time>2026-05-02T14:29:27.001Z</time></trkpt><trkpt lat="40.35458328798943" lon="8.425350847620635"><ele>274.0</ele><time>2026-05-02T14:29:28.001Z</time></trkpt><trkpt lat="40.35440466903678" lon="8.42566726529377"><ele>274.0</ele><time>2026-05-02T14:29:29.001Z</time></trkpt><trkpt lat="40.35422899865801" lon="8.425993162996141"><ele>274.0</ele><time>2026-05-02T14:29:30.001Z</time></trkpt><trkpt lat="40.35404999051763" lon="8.426319207822141"><ele>279.5</ele><time>2026-05-02T14:29:31.001Z</time></trkpt><trkpt lat="40.35387872631538" lon="8.426630329858783"><ele>285.0</ele><time>2026-05-02T14:29:32.001Z</time></trkpt><trkpt lat="40.35370842745052" lon="8.426947879020235"><ele>274.5</ele><time>2026-05-02T14:29:33.001Z</time></trkpt><trkpt lat="40.35353419889325" lon="8.427268979593656"><ele>264.0</ele><time>2026-05-02T14:29:34.001Z</time></trkpt><trkpt lat="40.35335934284599" lon="8.427586352337649"><ele>264.0</ele><time>2026-05-02T14:29:35.001Z</time></trkpt><trkpt lat="40.35318422279702" lon="8.427911337899456"><ele>264.0</ele><time>2026-05-02T14:29:36.001Z</time></trkpt><trkpt lat="40.353002611308" lon="8.428240955770491"><ele>260.5</ele><time>2026-05-02T14:29:37.001Z</time></trkpt><trkpt lat="40.35282672917925" lon="8.428555567751637"><ele>257.0</ele><time>2026-05-02T14:29:38.001Z</time></trkpt><trkpt lat="40.35266072319462" lon="8.428859360925708"><ele>257.0</ele><time>2026-05-02T14:29:39.001Z</time></trkpt><trkpt lat="40.35250894578545" lon="8.429136917347211"><ele>257.0</ele><time>2026-05-02T14:29:40.001Z</time></trkpt><trkpt lat="40.3523727097712" lon="8.429393826292321"><ele>257.0</ele><time>2026-05-02T14:29:41.001Z</time></trkpt><trkpt lat="40.352245945985345" lon="8.429613074723317"><ele>257.0</ele><time>2026-05-02T14:29:42.001Z</time></trkpt><trkpt lat="40.35211361427264" lon="8.42978306611942"><ele>257.0</ele><time>2026-05-02T14:29:43.001Z</time></trkpt><trkpt lat="40.35195302282799" lon="8.42990013986784"><ele>257.33333333333337</ele><time>2026-05-02T14:29:44.001Z</time></trkpt><trkpt lat="40.351764060649046" lon="8.429975669518921"><ele>257.6666666666667</ele><time>2026-05-02T14:29:45.001Z</time></trkpt><trkpt lat="40.35154773312249" lon="8.430003199956015"><ele>258.0</ele><time>2026-05-02T14:29:46.001Z</time></trkpt><trkpt lat="40.351282834533954" lon="8.4299773419141"><ele>258.0</ele><time>2026-05-02T14:29:47.001Z</time></trkpt><trkpt lat="40.351008357858056" lon="8.429921163194164"><ele>258.0</ele><time>2026-05-02T14:29:48.001Z</time></trkpt><trkpt lat="40.35072114400367" lon="8.42984671849926"><ele>255.5</ele><time>2026-05-02T14:29:49.001Z</time></trkpt><trkpt lat="40.35043687058505" lon="8.429786050176029"><ele>253.0</ele><time>2026-05-02T14:29:50.001Z</time></trkpt><trkpt lat="40.35015383120413" lon="8.429728008024298"><ele>253.0</ele><time>2026-05-02T14:29:51.001Z</time></trkpt><trkpt lat="40.34987046969993" lon="8.429665078952022"><ele>253.0</ele><time>2026-05-02T14:29:52.001Z</time></trkpt><trkpt lat="40.34961004535062" lon="8.429611183832485"><ele>242.5</ele><time>2026-05-02T14:29:53.001Z</time></trkpt><trkpt lat="40.34937339662052" lon="8.429589374497583"><ele>232.0</ele><time>2026-05-02T14:29:54.001Z</time></trkpt><trkpt lat="40.349152211306226" lon="8.429530390835486"><ele>232.0</ele><time>2026-05-02T14:29:55.001Z</time></trkpt><trkpt lat="40.348967078191315" lon="8.429442823252549"><ele>232.0</ele><time>2026-05-02T14:29:56.001Z</time></trkpt><trkpt lat="40.34880692751302" lon="8.429303174237335"><ele>232.0</ele><time>2026-05-02T14:29:57.001Z</time></trkpt><trkpt lat="40.34867801179167" lon="8.42908693215317"><ele>231.0</ele><time>2026-05-02T14:29:58.001Z</time></trkpt><trkpt lat="40.34857599007504" lon="8.428849889402487"><ele>230.0</ele><time>2026-05-02T14:29:59.001Z</time></trkpt><trkpt lat="40.34849491770135" lon="8.428558096749477"><ele>229.0</ele><time>2026-05-02T14:30:00.001Z</time></trkpt><trkpt lat="40.34842354276425" lon="8.428245660277927"><ele>221.5</ele><time>2026-05-02T14:30:01.001Z</time></trkpt><trkpt lat="40.34834336636918" lon="8.427950351212438"><ele>214.0</ele><time>2026-05-02T14:30:02.001Z</time></trkpt><trkpt lat="40.34823684790966" lon="8.427679974046226"><ele>214.0</ele><time>2026-05-02T14:30:03.001Z</time></trkpt><trkpt lat="40.348116907587794" lon="8.427392072830822"><ele>214.0</ele><time>2026-05-02T14:30:04.001Z</time></trkpt><trkpt lat="40.34798806311163" lon="8.42708508086019"><ele>220.0</ele><time>2026-05-02T14:30:05.001Z</time></trkpt><trkpt lat="40.34785185011731" lon="8.426775833957993"><ele>226.0</ele><time>2026-05-02T14:30:06.001Z</time></trkpt><trkpt lat="40.347700035810284" lon="8.426458572749533"><ele>219.0</ele><time>2026-05-02T14:30:07.001Z</time></trkpt><trkpt lat="40.347552152066264" lon="8.426154827191786"><ele>212.0</ele><time>2026-05-02T14:30:08.001Z</time></trkpt><trkpt lat="40.34738000498033" lon="8.425864358787512"><ele>215.5</ele><time>2026-05-02T14:30:09.001Z</time></trkpt><trkpt lat="40.34717950090861" lon="8.425568641442238"><ele>219.0</ele><time>2026-05-02T14:30:10.001Z</time></trkpt><trkpt lat="40.346956259637096" lon="8.425257292684902"><ele>212.0</ele><time>2026-05-02T14:30:11.001Z</time></trkpt><trkpt lat="40.34672269798096" lon="8.424936200666659"><ele>205.0</ele><time>2026-05-02T14:30:12.001Z</time></trkpt><trkpt lat="40.34648440595818" lon="8.42459989996732"><ele>201.5</ele><time>2026-05-02T14:30:13.001Z</time></trkpt><trkpt lat="40.346250590793645" lon="8.424255521584428"><ele>198.0</ele><time>2026-05-02T14:30:14.001Z</time></trkpt><trkpt lat="40.346031301992674" lon="8.423932629264105"><ele>195.0</ele><time>2026-05-02T14:30:15.001Z</time></trkpt><trkpt lat="40.34582374756629" lon="8.423631603322962"><ele>192.0</ele><time>2026-05-02T14:30:16.001Z</time></trkpt><trkpt lat="40.34563105615175" lon="8.423349805616937"><ele>193.5</ele><time>2026-05-02T14:30:17.001Z</time></trkpt><trkpt lat="40.34545234991459" lon="8.423094472000413"><ele>195.0</ele><time>2026-05-02T14:30:18.001Z</time></trkpt><trkpt lat="40.34529789362715" lon="8.422907467807017"><ele>195.0</ele><time>2026-05-02T14:30:19.001Z</time></trkpt><trkpt lat="40.345152327962786" lon="8.422797855924767"><ele>195.0</ele><time>2026-05-02T14:30:20.001Z</time></trkpt><trkpt lat="40.34500182996706" lon="8.422744211261193"><ele>195.0</ele><time>2026-05-02T14:30:21.001Z</time></trkpt><trkpt lat="40.344832556568505" lon="8.422749386966592"><ele>187.5</ele><time>2026-05-02T14:30:22.001Z</time></trkpt><trkpt lat="40.34462939565709" lon="8.422837302626707"><ele>180.0</ele><time>2026-05-02T14:30:23.001Z</time></trkpt><trkpt lat="40.34438921392419" lon="8.422934516162494"><ele>189.5</ele><time>2026-05-02T14:30:24.001Z</time></trkpt><trkpt lat="40.34415838150902" lon="8.423066514100347"><ele>199.0</ele><time>2026-05-02T14:30:25.001Z</time></trkpt><trkpt lat="40.343955375708" lon="8.423220062098714"><ele>189.0</ele><time>2026-05-02T14:30:26.001Z</time></trkpt><trkpt lat="40.34379232930587" lon="8.423370265722669"><ele>179.0</ele><time>2026-05-02T14:30:27.001Z</time></trkpt><trkpt lat="40.34366449099037" lon="8.423545652931857"><ele>169.0</ele><time>2026-05-02T14:30:28.001Z</time></trkpt><trkpt lat="40.34358175238979" lon="8.423765874796842"><ele>172.5</ele><time>2026-05-02T14:30:29.001Z</time></trkpt><trkpt lat="40.34353517465384" lon="8.424046905512835"><ele>176.0</ele><time>2026-05-02T14:30:30.001Z</time></trkpt><trkpt lat="40.34352609619796" lon="8.424353654037931"><ele>171.0</ele><time>2026-05-02T14:30:31.001Z</time></trkpt><trkpt lat="40.343524079971395" lon="8.424658408189389"><ele>166.0</ele><time>2026-05-02T14:30:32.001Z</time></trkpt><trkpt lat="40.34354366772134" lon="8.424947634466642"><ele>166.0</ele><time>2026-05-02T14:30:33.001Z</time></trkpt><trkpt lat="40.34359727093477" lon="8.425217888391021"><ele>166.0</ele><time>2026-05-02T14:30:34.001Z</time></trkpt><trkpt lat="40.343685245077424" lon="8.425464978213151"><ele>166.0</ele><time>2026-05-02T14:30:35.001Z</time></trkpt><trkpt lat="40.3437985019681" lon="8.425696441349377"><ele>175.33333333333334</ele><time>2026-05-02T14:30:36.001Z</time></trkpt><trkpt lat="40.343895807564316" lon="8.425880195872207"><ele>184.66666666666669</ele><time>2026-05-02T14:30:37.001Z</time></trkpt><trkpt lat="40.34396009329829" lon="8.426059091967499"><ele>194.0</ele><time>2026-05-02T14:30:38.001Z</time></trkpt><trkpt lat="40.34398600043715" lon="8.426261955161841"><ele>189.66666666666669</ele><time>2026-05-02T14:30:39.001Z</time></trkpt><trkpt lat="40.34397480986613" lon="8.426472812439155"><ele>185.33333333333334</ele><time>2026-05-02T14:30:40.001Z</time></trkpt><trkpt lat="40.34392788982569" lon="8.426703124111155"><ele>181.0</ele><time>2026-05-02T14:30:41.001Z</time></trkpt><trkpt lat="40.34384259145434" lon="8.426951870171361"><ele>172.66666666666669</ele><time>2026-05-02T14:30:42.001Z</time></trkpt><trkpt lat="40.343762821040926" lon="8.427184656600133"><ele>164.33333333333334</ele><time>2026-05-02T14:30:43.001Z</time></trkpt><trkpt lat="40.343678289280916" lon="8.427390987289986"><ele>156.0</ele><time>2026-05-02T14:30:44.001Z</time></trkpt><trkpt lat="40.343566433142534" lon="8.427585481181271"><ele>156.0</ele><time>2026-05-02T14:30:45.001Z</time></trkpt><trkpt lat="40.34339576863111" lon="8.427741244411417"><ele>156.0</ele><time>2026-05-02T14:30:46.001Z</time></trkpt><trkpt lat="40.34319257879474" lon="8.427840947793907"><ele>156.0</ele><time>2026-05-02T14:30:47.001Z</time></trkpt><trkpt lat="40.342975969100394" lon="8.427889452898603"><ele>157.5</ele><time>2026-05-02T14:30:48.001Z</time></trkpt><trkpt lat="40.34275271269432" lon="8.427935254279907"><ele>159.0</ele><time>2026-05-02T14:30:49.002Z</time></trkpt><trkpt lat="40.342527324219176" lon="8.428007151114004"><ele>159.0</ele><time>2026-05-02T14:30:50.002Z</time></trkpt><trkpt lat="40.34232675334772" lon="8.428097429845202"><ele>159.0</ele><time>2026-05-02T14:30:51.002Z</time></trkpt><trkpt lat="40.34216177708566" lon="8.428228969998456"><ele>159.0</ele><time>2026-05-02T14:30:52Z</time></trkpt><trkpt lat="40.34202494789801" lon="8.428403476327123"><ele>154.33333333333334</ele><time>2026-05-02T14:30:53Z</time></trkpt><trkpt lat="40.341918336091474" lon="8.428621541722634"><ele>149.66666666666669</ele><time>2026-05-02T14:30:54Z</time></trkpt><trkpt lat="40.341827109803056" lon="8.428799666673122"><ele>145.0</ele><time>2026-05-02T14:30:55Z</time></trkpt><trkpt lat="40.34172131522341" lon="8.428946620059172"><ele>145.0</ele><time>2026-05-02T14:30:56Z</time></trkpt><trkpt lat="40.34158145435633" lon="8.42904559225396"><ele>145.0</ele><time>2026-05-02T14:30:57Z</time></trkpt><trkpt lat="40.341419660355484" lon="8.42909374896151"><ele>145.0</ele><time>2026-05-02T14:30:58Z</time></trkpt><trkpt lat="40.34123303202725" lon="8.429085111954768"><ele>142.33333333333334</ele><time>2026-05-02T14:30:59Z</time></trkpt><trkpt lat="40.34104176798278" lon="8.429013526430664"><ele>139.66666666666666</ele><time>2026-05-02T14:31:00Z</time></trkpt><trkpt lat="40.34085536211576" lon="8.428910737137977"><ele>137.0</ele><time>2026-05-02T14:31:01Z</time></trkpt><trkpt lat="40.34068919188084" lon="8.428841728962917"><ele>131.0</ele><time>2026-05-02T14:31:02Z</time></trkpt><trkpt lat="40.340520601069635" lon="8.428811367216886"><ele>125.0</ele><time>2026-05-02T14:31:03Z</time></trkpt><trkpt lat="40.340364255021825" lon="8.428850038768955"><ele>119.0</ele><time>2026-05-02T14:31:04Z</time></trkpt><trkpt lat="40.340214262876" lon="8.428925447663575"><ele>119.0</ele><time>2026-05-02T14:31:05Z</time></trkpt><trkpt lat="40.34009265744949" lon="8.42904668143214"><ele>119.0</ele><time>2026-05-02T14:31:06Z</time></trkpt><trkpt lat="40.3400051067165" lon="8.429216953374768"><ele>119.0</ele><time>2026-05-02T14:31:07Z</time></trkpt><trkpt lat="40.339958811695524" lon="8.429412654781638"><ele>119.0</ele><time>2026-05-02T14:31:08Z</time></trkpt><trkpt lat="40.33994635693345" lon="8.429627614386149"><ele>119.0</ele><time>2026-05-02T14:31:09Z</time></trkpt><trkpt lat="40.33996800556327" lon="8.42985894823286"><ele>119.0</ele><time>2026-05-02T14:31:10Z</time></trkpt><trkpt lat="40.34002003229767" lon="8.430075241250721"><ele>118.66666666666666</ele><time>2026-05-02T14:31:11Z</time></trkpt><trkpt lat="40.340073612820056" lon="8.430280254973189"><ele>118.33333333333334</ele><time>2026-05-02T14:31:12Z</time></trkpt><trkpt lat="40.340112136061265" lon="8.430476112443115"><ele>118.0</ele><time>2026-05-02T14:31:13Z</time></trkpt><trkpt lat="40.34013150470997" lon="8.43067662908571"><ele>116.33333333333334</ele><time>2026-05-02T14:31:14Z</time></trkpt><trkpt lat="40.34011316131833" lon="8.43088139522944"><ele>114.66666666666666</ele><time>2026-05-02T14:31:15Z</time></trkpt><trkpt lat="40.34005323044815" lon="8.431078256819854"><ele>113.0</ele><time>2026-05-02T14:31:16Z</time></trkpt><trkpt lat="40.33994066055948" lon="8.431236942683812"><ele>116.33333333333333</ele><time>2026-05-02T14:31:17Z</time></trkpt><trkpt lat="40.33979883458352" lon="8.431365831277837"><ele>119.66666666666666</ele><time>2026-05-02T14:31:18Z</time></trkpt><trkpt lat="40.339620378309824" lon="8.431412008585765"><ele>123.0</ele><time>2026-05-02T14:31:19Z</time></trkpt><trkpt lat="40.33942844022632" lon="8.431411305177429"><ele>123.0</ele><time>2026-05-02T14:31:20Z</time></trkpt><trkpt lat="40.339230465345366" lon="8.43136989585034"><ele>123.0</ele><time>2026-05-02T14:31:21Z</time></trkpt><trkpt lat="40.339027475933925" lon="8.431338979154665"><ele>123.0</ele><time>2026-05-02T14:31:22Z</time></trkpt><trkpt lat="40.338848927024486" lon="8.431262606588621"><ele>117.66666666666666</ele><time>2026-05-02T14:31:23Z</time></trkpt><trkpt lat="40.338697161103816" lon="8.431114825184489"><ele>112.33333333333333</ele><time>2026-05-02T14:31:24Z</time></trkpt><trkpt lat="40.338542592124696" lon="8.430888359870249"><ele>107.0</ele><time>2026-05-02T14:31:25Z</time></trkpt><trkpt lat="40.33837728979292" lon="8.430615913680143"><ele>102.5</ele><time>2026-05-02T14:31:26Z</time></trkpt><trkpt lat="40.33819800258292" lon="8.43037861031524"><ele>98.0</ele><time>2026-05-02T14:31:27Z</time></trkpt><trkpt lat="40.338012957049855" lon="8.430180922507725"><ele>98.0</ele><time>2026-05-02T14:31:28Z</time></trkpt><trkpt lat="40.337822712810045" lon="8.429995608957682"><ele>98.0</ele><time>2026-05-02T14:31:29Z</time></trkpt><trkpt lat="40.3376439490176" lon="8.429841119418652"><ele>98.0</ele><time>2026-05-02T14:31:30Z</time></trkpt><trkpt lat="40.33747140148798" lon="8.429739516951546"><ele>98.0</ele><time>2026-05-02T14:31:31Z</time></trkpt><trkpt lat="40.33728621112246" lon="8.429688763453163"><ele>98.0</ele><time>2026-05-02T14:31:32Z</time></trkpt><trkpt lat="40.33708551244799" lon="8.429736121847242"><ele>96.0</ele><time>2026-05-02T14:31:33Z</time></trkpt><trkpt lat="40.33686713981186" lon="8.42980905607549"><ele>94.0</ele><time>2026-05-02T14:31:34Z</time></trkpt><trkpt lat="40.336633912835744" lon="8.429895326238448"><ele>94.0</ele><time>2026-05-02T14:31:35.001Z</time></trkpt><trkpt lat="40.336425220473664" lon="8.429967013961676"><ele>94.0</ele><time>2026-05-02T14:31:36.001Z</time></trkpt><trkpt lat="40.33623284847225" lon="8.430021060034605"><ele>94.0</ele><time>2026-05-02T14:31:37.001Z</time></trkpt><trkpt lat="40.3360660666683" lon="8.430078375454466"><ele>93.33333333333333</ele><time>2026-05-02T14:31:38.001Z</time></trkpt><trkpt lat="40.335914167116414" lon="8.430196629607842"><ele>92.66666666666667</ele><time>2026-05-02T14:31:39.001Z</time></trkpt><trkpt lat="40.335781110551935" lon="8.430370076579013"><ele>92.0</ele><time>2026-05-02T14:31:40.001Z</time></trkpt><trkpt lat="40.33565700433877" lon="8.430600898486052"><ele>80.5</ele><time>2026-05-02T14:31:41.001Z</time></trkpt><trkpt lat="40.335543053561686" lon="8.430892957982035"><ele>69.0</ele><time>2026-05-02T14:31:42.001Z</time></trkpt><trkpt lat="40.33544008775952" lon="8.431190256441694"><ele>71.33333333333333</ele><time>2026-05-02T14:31:43.001Z</time></trkpt><trkpt lat="40.33533955644517" lon="8.431441674968854"><ele>73.66666666666666</ele><time>2026-05-02T14:31:44.001Z</time></trkpt><trkpt lat="40.33524596272887" lon="8.431655604285563"><ele>76.0</ele><time>2026-05-02T14:31:45.001Z</time></trkpt><trkpt lat="40.33516193712281" lon="8.431847630735588"><ele>76.0</ele><time>2026-05-02T14:31:46.001Z</time></trkpt><trkpt lat="40.33508446321599" lon="8.432039861313001"><ele>76.0</ele><time>2026-05-02T14:31:47.001Z</time></trkpt><trkpt lat="40.33500409498078" lon="8.43224188659181"><ele>76.0</ele><time>2026-05-02T14:31:48.001Z</time></trkpt><trkpt lat="40.33492473891046" lon="8.432457721027616"><ele>79.66666666666666</ele><time>2026-05-02T14:31:49.001Z</time></trkpt><trkpt lat="40.33485895265299" lon="8.432704619850705"><ele>83.33333333333333</ele><time>2026-05-02T14:31:50.001Z</time></trkpt><trkpt lat="40.33483164663914" lon="8.432959395609531"><ele>87.0</ele><time>2026-05-02T14:31:51.001Z</time></trkpt><trkpt lat="40.33482187296905" lon="8.43320363290623"><ele>89.66666666666667</ele><time>2026-05-02T14:31:52.001Z</time></trkpt><trkpt lat="40.33478498113124" lon="8.433446977891439"><ele>92.33333333333334</ele><time>2026-05-02T14:31:53.001Z</time></trkpt><trkpt lat="40.3346993860736" lon="8.433641744541811"><ele>95.0</ele><time>2026-05-02T14:31:54.001Z</time></trkpt><trkpt lat="40.3345359639851" lon="8.433798538083332"><ele>93.0</ele><time>2026-05-02T14:31:55.001Z</time></trkpt><trkpt lat="40.33434684025482" lon="8.433945321096207"><ele>91.0</ele><time>2026-05-02T14:31:56.001Z</time></trkpt><trkpt lat="40.33413696443646" lon="8.434102692346636"><ele>91.0</ele><time>2026-05-02T14:31:57.001Z</time></trkpt><trkpt lat="40.33393610006999" lon="8.434278199322122"><ele>91.0</ele><time>2026-05-02T14:31:58.001Z</time></trkpt><trkpt lat="40.333759929987245" lon="8.434447910656527"><ele>89.0</ele><time>2026-05-02T14:31:59.001Z</time></trkpt><trkpt lat="40.33358568843927" lon="8.434602417190264"><ele>87.0</ele><time>2026-05-02T14:32:00.001Z</time></trkpt><trkpt lat="40.33341662221064" lon="8.43475902840589"><ele>85.0</ele><time>2026-05-02T14:32:01.001Z</time></trkpt><trkpt lat="40.33323796751251" lon="8.434938278383484"><ele>85.0</ele><time>2026-05-02T14:32:02.001Z</time></trkpt><trkpt lat="40.333056525863554" lon="8.435145573920641"><ele>85.0</ele><time>2026-05-02T14:32:03.001Z</time></trkpt><trkpt lat="40.332870998638974" lon="8.435375288863664"><ele>81.5</ele><time>2026-05-02T14:32:04.001Z</time></trkpt><trkpt lat="40.33268443723516" lon="8.435616703179997"><ele>78.0</ele><time>2026-05-02T14:32:05.001Z</time></trkpt><trkpt lat="40.332493073061926" lon="8.435846829616581"><ele>78.0</ele><time>2026-05-02T14:32:06.001Z</time></trkpt><trkpt lat="40.33230848129413" lon="8.436061278215774"><ele>78.0</ele><time>2026-05-02T14:32:07.001Z</time></trkpt><trkpt lat="40.33213075217242" lon="8.4362635686841"><ele>71.5</ele><time>2026-05-02T14:32:08.001Z</time></trkpt><trkpt lat="40.3319550871396" lon="8.436471163808202"><ele>65.0</ele><time>2026-05-02T14:32:09.001Z</time></trkpt><trkpt lat="40.33179274406577" lon="8.436659086382043"><ele>65.0</ele><time>2026-05-02T14:32:10.001Z</time></trkpt><trkpt lat="40.33161777475315" lon="8.436795773005917"><ele>65.0</ele><time>2026-05-02T14:32:11.001Z</time></trkpt><trkpt lat="40.33141128821629" lon="8.436880334617427"><ele>65.0</ele><time>2026-05-02T14:32:12.001Z</time></trkpt><trkpt lat="40.3311931025884" lon="8.436916884886836"><ele>62.0</ele><time>2026-05-02T14:32:13.001Z</time></trkpt><trkpt lat="40.3309858825646" lon="8.436902486623845"><ele>59.0</ele><time>2026-05-02T14:32:14.001Z</time></trkpt><trkpt lat="40.33080052422212" lon="8.436835762587089"><ele>56.0</ele><time>2026-05-02T14:32:15.001Z</time></trkpt><trkpt lat="40.3306116221233" lon="8.43674500966146"><ele>53.0</ele><time>2026-05-02T14:32:16.001Z</time></trkpt><trkpt lat="40.330439856279696" lon="8.436602516719997"><ele>50.0</ele><time>2026-05-02T14:32:17.001Z</time></trkpt><trkpt lat="40.33027404034368" lon="8.43643856858746"><ele>47.0</ele><time>2026-05-02T14:32:18.001Z</time></trkpt><trkpt lat="40.330115612297874" lon="8.436267420359789"><ele>47.0</ele><time>2026-05-02T14:32:19.001Z</time></trkpt><trkpt lat="40.329966046948854" lon="8.436124512217763"><ele>47.0</ele><time>2026-05-02T14:32:20.001Z</time></trkpt><trkpt lat="40.32980607625895" lon="8.435999925304927"><ele>47.0</ele><time>2026-05-02T14:32:21.001Z</time></trkpt><trkpt lat="40.329638005241" lon="8.435955027673918"><ele>43.0</ele><time>2026-05-02T14:32:22.001Z</time></trkpt><trkpt lat="40.329471494405254" lon="8.435913190432078"><ele>39.0</ele><time>2026-05-02T14:32:23.001Z</time></trkpt><trkpt lat="40.329285277696826" lon="8.435961878132296"><ele>35.0</ele><time>2026-05-02T14:32:24.001Z</time></trkpt><trkpt lat="40.329117905902535" lon="8.43604539193701"><ele>35.0</ele><time>2026-05-02T14:32:25.001Z</time></trkpt><trkpt lat="40.328959435114186" lon="8.43616502127146"><ele>35.0</ele><time>2026-05-02T14:32:26.001Z</time></trkpt><trkpt lat="40.328824110226215" lon="8.436322121402611"><ele>35.0</ele><time>2026-05-02T14:32:27.001Z</time></trkpt><trkpt lat="40.32869153952851" lon="8.43652317602872"><ele>34.666666666666664</ele><time>2026-05-02T14:32:28.001Z</time></trkpt><trkpt lat="40.32855666704175" lon="8.436747951972155"><ele>34.333333333333336</ele><time>2026-05-02T14:32:29.001Z</time></trkpt><trkpt lat="40.328415765225586" lon="8.436963521852276"><ele>34.0</ele><time>2026-05-02T14:32:30.001Z</time></trkpt><trkpt lat="40.32827370991361" lon="8.437179851001941"><ele>34.0</ele><time>2026-05-02T14:32:31.001Z</time></trkpt><trkpt lat="40.32812743461941" lon="8.437403867393655"><ele>34.0</ele><time>2026-05-02T14:32:32.001Z</time></trkpt><trkpt lat="40.327981554299704" lon="8.43762586886309"><ele>34.0</ele><time>2026-05-02T14:32:33.001Z</time></trkpt><trkpt lat="40.3278309242225" lon="8.437850347824508"><ele>33.5</ele><time>2026-05-02T14:32:34.001Z</time></trkpt><trkpt lat="40.327681939157706" lon="8.438076432664237"><ele>33.0</ele><time>2026-05-02T14:32:35.001Z</time></trkpt><trkpt lat="40.327546338206446" lon="8.438323931682739"><ele>33.0</ele><time>2026-05-02T14:32:36.001Z</time></trkpt><trkpt lat="40.32741690383826" lon="8.438588933267638"><ele>33.0</ele><time>2026-05-02T14:32:37.001Z</time></trkpt><trkpt lat="40.32729611644891" lon="8.438848362945738"><ele>31.666666666666664</ele><time>2026-05-02T14:32:38.001Z</time></trkpt><trkpt lat="40.32717944585526" lon="8.439093612275649"><ele>30.333333333333332</ele><time>2026-05-02T14:32:39.001Z</time></trkpt><trkpt lat="40.327055410130455" lon="8.439335303906214"><ele>29.0</ele><time>2026-05-02T14:32:40.001Z</time></trkpt><trkpt lat="40.3269427699979" lon="8.439567229412116"><ele>31.0</ele><time>2026-05-02T14:32:41.001Z</time></trkpt><trkpt lat="40.32683889108473" lon="8.43978127690733"><ele>33.0</ele><time>2026-05-02T14:32:42.001Z</time></trkpt><trkpt lat="40.32676900656287" lon="8.440006003340935"><ele>35.0</ele><time>2026-05-02T14:32:43.001Z</time></trkpt><trkpt lat="40.32674970324974" lon="8.440255386133476"><ele>35.666666666666664</ele><time>2026-05-02T14:32:44.001Z</time></trkpt><trkpt lat="40.3267610766331" lon="8.440544639765236"><ele>36.333333333333336</ele><time>2026-05-02T14:32:45.001Z</time></trkpt><trkpt lat="40.32675745545485" lon="8.44084430087311"><ele>37.0</ele><time>2026-05-02T14:32:46.001Z</time></trkpt><trkpt lat="40.32673810852837" lon="8.441136999837283"><ele>36.333333333333336</ele><time>2026-05-02T14:32:47.001Z</time></trkpt><trkpt lat="40.326708637499685" lon="8.441423926968852"><ele>35.666666666666664</ele><time>2026-05-02T14:32:48.001Z</time></trkpt><trkpt lat="40.32668196042122" lon="8.441702356758466"><ele>35.0</ele><time>2026-05-02T14:32:49.001Z</time></trkpt><trkpt lat="40.326657729610666" lon="8.441971266257818"><ele>34.0</ele><time>2026-05-02T14:32:50.001Z</time></trkpt><trkpt lat="40.32663905289305" lon="8.442235591561252"><ele>33.0</ele><time>2026-05-02T14:32:51.001Z</time></trkpt><trkpt lat="40.32663177008818" lon="8.442505965695071"><ele>32.0</ele><time>2026-05-02T14:32:52.001Z</time></trkpt><trkpt lat="40.32665148750954" lon="8.442783145311692"><ele>30.5</ele><time>2026-05-02T14:32:53.001Z</time></trkpt><trkpt lat="40.32670692022715" lon="8.44307539070144"><ele>29.0</ele><time>2026-05-02T14:32:54.001Z</time></trkpt><trkpt lat="40.32678321336085" lon="8.443380857711457"><ele>29.0</ele><time>2026-05-02T14:32:55.001Z</time></trkpt><trkpt lat="40.32685159932715" lon="8.4436896540797"><ele>29.0</ele><time>2026-05-02T14:32:56.001Z</time></trkpt><trkpt lat="40.326903452117804" lon="8.443991036817499"><ele>29.666666666666664</ele><time>2026-05-02T14:32:57.001Z</time></trkpt><trkpt lat="40.32695266330062" lon="8.44427708132986"><ele>30.333333333333336</ele><time>2026-05-02T14:32:58Z</time></trkpt><trkpt lat="40.3270069977817" lon="8.44455448113837"><ele>31.0</ele><time>2026-05-02T14:32:59Z</time></trkpt><trkpt lat="40.327060956132634" lon="8.444821040249089"><ele>34.66666666666667</ele><time>2026-05-02T14:33:00Z</time></trkpt><trkpt lat="40.32711221729503" lon="8.445090079199412"><ele>38.333333333333336</ele><time>2026-05-02T14:33:01Z</time></trkpt><trkpt lat="40.327133316109865" lon="8.445340691104322"><ele>42.0</ele><time>2026-05-02T14:33:02Z</time></trkpt><trkpt lat="40.32709712171155" lon="8.445587256255264"><ele>44.0</ele><time>2026-05-02T14:33:03Z</time></trkpt><trkpt lat="40.32700800238423" lon="8.445850206677488"><ele>46.0</ele><time>2026-05-02T14:33:04Z</time></trkpt><trkpt lat="40.32690520076608" lon="8.446146577991971"><ele>44.5</ele><time>2026-05-02T14:33:05Z</time></trkpt><trkpt lat="40.326798575190935" lon="8.44646483249224"><ele>43.0</ele><time>2026-05-02T14:33:06Z</time></trkpt><trkpt lat="40.326703057184176" lon="8.446797613543621"><ele>47.0</ele><time>2026-05-02T14:33:07Z</time></trkpt><trkpt lat="40.32660555074105" lon="8.44713257338705"><ele>51.0</ele><time>2026-05-02T14:33:08Z</time></trkpt><trkpt lat="40.326505298144625" lon="8.447469938307547"><ele>51.0</ele><time>2026-05-02T14:33:09Z</time></trkpt><trkpt lat="40.32641328581443" lon="8.447780469459147"><ele>51.0</ele><time>2026-05-02T14:33:10Z</time></trkpt><trkpt lat="40.32632440125899" lon="8.448076460423833"><ele>48.333333333333336</ele><time>2026-05-02T14:33:11Z</time></trkpt><trkpt lat="40.32624184007325" lon="8.448333189102799"><ele>45.66666666666667</ele><time>2026-05-02T14:33:12Z</time></trkpt><trkpt lat="40.32616877061696" lon="8.448556354208664"><ele>43.0</ele><time>2026-05-02T14:33:13Z</time></trkpt><trkpt lat="40.32611133102254" lon="8.448751702822946"><ele>43.333333333333336</ele><time>2026-05-02T14:33:14Z</time></trkpt><trkpt lat="40.32609805873142" lon="8.448931122834228"><ele>43.666666666666664</ele><time>2026-05-02T14:33:15Z</time></trkpt><trkpt lat="40.326104793250664" lon="8.449148126042408"><ele>44.0</ele><time>2026-05-02T14:33:16Z</time></trkpt><trkpt lat="40.32612462541483" lon="8.449397733459039"><ele>44.666666666666664</ele><time>2026-05-02T14:33:17Z</time></trkpt><trkpt lat="40.326082703548586" lon="8.449665073591605"><ele>45.333333333333336</ele><time>2026-05-02T14:33:18Z</time></trkpt><trkpt lat="40.32608345107416" lon="8.449960132974494"><ele>46.0</ele><time>2026-05-02T14:33:19Z</time></trkpt><trkpt lat="40.32608422283039" lon="8.450264756606416"><ele>46.66666666666667</ele><time>2026-05-02T14:33:20Z</time></trkpt><trkpt lat="40.326084739607424" lon="8.45054541564818"><ele>47.333333333333336</ele><time>2026-05-02T14:33:21Z</time></trkpt><trkpt lat="40.32608174828016" lon="8.450800558534244"><ele>48.0</ele><time>2026-05-02T14:33:22Z</time></trkpt><trkpt lat="40.32605381369763" lon="8.45101592558407"><ele>48.0</ele><time>2026-05-02T14:33:23Z</time></trkpt><trkpt lat="40.325999109818945" lon="8.4511914653154"><ele>48.0</ele><time>2026-05-02T14:33:24Z</time></trkpt><trkpt lat="40.32588747075913" lon="8.451248075677427"><ele>48.0</ele><time>2026-05-02T14:33:25Z</time></trkpt><trkpt lat="40.32574997090025" lon="8.451333898165837"><ele>48.0</ele><time>2026-05-02T14:33:26Z</time></trkpt><trkpt lat="40.32554621243978" lon="8.451445382288778"><ele>49.5</ele><time>2026-05-02T14:33:27Z</time></trkpt><trkpt lat="40.32529414435409" lon="8.451581997237977"><ele>51.0</ele><time>2026-05-02T14:33:28Z</time></trkpt><trkpt lat="40.32504891387268" lon="8.451718142442198"><ele>51.0</ele><time>2026-05-02T14:33:29Z</time></trkpt><trkpt lat="40.32478724936639" lon="8.451854965108833"><ele>51.0</ele><time>2026-05-02T14:33:30Z</time></trkpt><trkpt lat="40.32452039982654" lon="8.451963506977519"><ele>52.33333333333333</ele><time>2026-05-02T14:33:31Z</time></trkpt><trkpt lat="40.324289062716765" lon="8.452063471847158"><ele>53.666666666666664</ele><time>2026-05-02T14:33:32Z</time></trkpt><trkpt lat="40.324106495623205" lon="8.452187105553538"><ele>55.0</ele><time>2026-05-02T14:33:33Z</time></trkpt><trkpt lat="40.3239726356533" lon="8.45231462742424"><ele>55.33333333333333</ele><time>2026-05-02T14:33:34Z</time></trkpt><trkpt lat="40.32387137638991" lon="8.452505764331255"><ele>55.66666666666667</ele><time>2026-05-02T14:33:35Z</time></trkpt><trkpt lat="40.32374742754873" lon="8.452786734826589"><ele>56.0</ele><time>2026-05-02T14:33:36Z</time></trkpt><trkpt lat="40.32364824980977" lon="8.453121983195814"><ele>56.0</ele><time>2026-05-02T14:33:37Z</time></trkpt><trkpt lat="40.32355903975213" lon="8.453481711891683"><ele>56.0</ele><time>2026-05-02T14:33:38Z</time></trkpt><trkpt lat="40.32346030355426" lon="8.453875777686253"><ele>57.5</ele><time>2026-05-02T14:33:39Z</time></trkpt><trkpt lat="40.323372348075516" lon="8.454243294838298"><ele>59.0</ele><time>2026-05-02T14:33:40Z</time></trkpt><trkpt lat="40.32329374919856" lon="8.454571715894216"><ele>61.5</ele><time>2026-05-02T14:33:41Z</time></trkpt><trkpt lat="40.323223369775455" lon="8.454865792403512"><ele>64.0</ele><time>2026-05-02T14:33:42Z</time></trkpt><trkpt lat="40.32315666265771" lon="8.45515269886195"><ele>60.666666666666664</ele><time>2026-05-02T14:33:43Z</time></trkpt><trkpt lat="40.32302826810099" lon="8.455388543118689"><ele>57.33333333333333</ele><time>2026-05-02T14:33:44Z</time></trkpt><trkpt lat="40.32286561041359" lon="8.45558593473962"><ele>54.0</ele><time>2026-05-02T14:33:45Z</time></trkpt><trkpt lat="40.32267998504697" lon="8.455783315298772"><ele>54.0</ele><time>2026-05-02T14:33:46Z</time></trkpt><trkpt lat="40.32250099976436" lon="8.455980601475748"><ele>54.0</ele><time>2026-05-02T14:33:47Z</time></trkpt><trkpt lat="40.32234258238829" lon="8.456164176443215"><ele>54.0</ele><time>2026-05-02T14:33:48Z</time></trkpt><trkpt lat="40.3221929069806" lon="8.456337563913742"><ele>52.0</ele><time>2026-05-02T14:33:49Z</time></trkpt><trkpt lat="40.322035799908015" lon="8.456467238848758"><ele>50.0</ele><time>2026-05-02T14:33:50Z</time></trkpt><trkpt lat="40.32187406057547" lon="8.456569041741442"><ele>48.0</ele><time>2026-05-02T14:33:51Z</time></trkpt><trkpt lat="40.32173331568717" lon="8.456673878769717"><ele>48.0</ele><time>2026-05-02T14:33:52Z</time></trkpt><trkpt lat="40.32161821110563" lon="8.456828486030286"><ele>48.0</ele><time>2026-05-02T14:33:53Z</time></trkpt><trkpt lat="40.32151005024232" lon="8.457047351863864"><ele>48.0</ele><time>2026-05-02T14:33:54Z</time></trkpt><trkpt lat="40.32142109923395" lon="8.457283183187565"><ele>42.333333333333336</ele><time>2026-05-02T14:33:55Z</time></trkpt><trkpt lat="40.32134848664672" lon="8.457487489305683"><ele>36.66666666666667</ele><time>2026-05-02T14:33:56Z</time></trkpt><trkpt lat="40.32128779020461" lon="8.45767832771672"><ele>31.0</ele><time>2026-05-02T14:33:57Z</time></trkpt><trkpt lat="40.32123969531038" lon="8.457873304985373"><ele>33.66666666666667</ele><time>2026-05-02T14:33:58Z</time></trkpt><trkpt lat="40.321170192739025" lon="8.4580693607819"><ele>36.333333333333336</ele><time>2026-05-02T14:33:59Z</time></trkpt><trkpt lat="40.32106222831819" lon="8.458258695625565"><ele>39.0</ele><time>2026-05-02T14:34:00Z</time></trkpt><trkpt lat="40.320924733752534" lon="8.45843697945242"><ele>39.0</ele><time>2026-05-02T14:34:01Z</time></trkpt><trkpt lat="40.32080841755998" lon="8.458647669016587"><ele>39.0</ele><time>2026-05-02T14:34:02Z</time></trkpt><trkpt lat="40.320725495825634" lon="8.458899559738121"><ele>39.0</ele><time>2026-05-02T14:34:03Z</time></trkpt><trkpt lat="40.32064424463717" lon="8.459163479773338"><ele>38.666666666666664</ele><time>2026-05-02T14:34:04Z</time></trkpt><trkpt lat="40.32056673705175" lon="8.459400902912726"><ele>38.33333333333333</ele><time>2026-05-02T14:34:05Z</time></trkpt><trkpt lat="40.32047806742575" lon="8.459614848582877"><ele>38.0</ele><time>2026-05-02T14:34:06Z</time></trkpt><trkpt lat="40.32036725349552" lon="8.459787055148265"><ele>38.0</ele><time>2026-05-02T14:34:07Z</time></trkpt><trkpt lat="40.32022154757286" lon="8.459919190855967"><ele>38.0</ele><time>2026-05-02T14:34:08Z</time></trkpt><trkpt lat="40.32006636669928" lon="8.460006979605248"><ele>38.0</ele><time>2026-05-02T14:34:09.001Z</time></trkpt><trkpt lat="40.31993833487524" lon="8.460109238680069"><ele>38.0</ele><time>2026-05-02T14:34:10.001Z</time></trkpt><trkpt lat="40.31984247749034" lon="8.460281295135852"><ele>38.0</ele><time>2026-05-02T14:34:11.001Z</time></trkpt><trkpt lat="40.31976441452456" lon="8.460524399999901"><ele>38.0</ele><time>2026-05-02T14:34:12.001Z</time></trkpt><trkpt lat="40.31967616106302" lon="8.46078408326348"><ele>33.0</ele><time>2026-05-02T14:34:13.001Z</time></trkpt><trkpt lat="40.319544470639435" lon="8.461029074636004"><ele>28.0</ele><time>2026-05-02T14:34:14.001Z</time></trkpt><trkpt lat="40.319454401966745" lon="8.46131946843888"><ele>28.0</ele><time>2026-05-02T14:34:15.001Z</time></trkpt><trkpt lat="40.31939807736693" lon="8.461620532508721"><ele>28.0</ele><time>2026-05-02T14:34:16.001Z</time></trkpt><trkpt lat="40.31931558910953" lon="8.461891977746747"><ele>31.0</ele><time>2026-05-02T14:34:17.001Z</time></trkpt><trkpt lat="40.319231823370316" lon="8.462158098088755"><ele>34.0</ele><time>2026-05-02T14:34:18.001Z</time></trkpt><trkpt lat="40.31915071498639" lon="8.462401103601936"><ele>37.0</ele><time>2026-05-02T14:34:19.001Z</time></trkpt><trkpt lat="40.319033359782274" lon="8.462595034851843"><ele>37.0</ele><time>2026-05-02T14:34:20.001Z</time></trkpt><trkpt lat="40.31893879972117" lon="8.462786039867149"><ele>37.0</ele><time>2026-05-02T14:34:21.001Z</time></trkpt><trkpt lat="40.318841594833" lon="8.462981490988009"><ele>37.0</ele><time>2026-05-02T14:34:22.001Z</time></trkpt><trkpt lat="40.318749459948414" lon="8.463177213955586"><ele>31.666666666666668</ele><time>2026-05-02T14:34:23.001Z</time></trkpt><trkpt lat="40.318662249030815" lon="8.463400459973041"><ele>26.333333333333336</ele><time>2026-05-02T14:34:24.001Z</time></trkpt><trkpt lat="40.31858900905865" lon="8.46367814613008"><ele>21.0</ele><time>2026-05-02T14:34:25.001Z</time></trkpt><trkpt lat="40.31853649405302" lon="8.463991288748872"><ele>21.0</ele><time>2026-05-02T14:34:26.001Z</time></trkpt><trkpt lat="40.318488637545734" lon="8.464324732289606"><ele>21.0</ele><time>2026-05-02T14:34:27.001Z</time></trkpt><trkpt lat="40.318441434008776" lon="8.464656821745745"><ele>21.0</ele><time>2026-05-02T14:34:28.001Z</time></trkpt><trkpt lat="40.3183930504868" lon="8.464995546764476"><ele>21.0</ele><time>2026-05-02T14:34:29.001Z</time></trkpt><trkpt lat="40.31834261032107" lon="8.465344519747887"><ele>20.5</ele><time>2026-05-02T14:34:30.001Z</time></trkpt><trkpt lat="40.31829170514364" lon="8.4656940528142"><ele>20.0</ele><time>2026-05-02T14:34:31.001Z</time></trkpt><trkpt lat="40.31823777316694" lon="8.466030522386456"><ele>19.5</ele><time>2026-05-02T14:34:32.001Z</time></trkpt><trkpt lat="40.318147400281" lon="8.466343638498017"><ele>19.0</ele><time>2026-05-02T14:34:33.001Z</time></trkpt><trkpt lat="40.31802146244922" lon="8.46666427405313"><ele>17.0</ele><time>2026-05-02T14:34:34.001Z</time></trkpt><trkpt lat="40.31789345365222" lon="8.466989554106442"><ele>15.0</ele><time>2026-05-02T14:34:35.001Z</time></trkpt><trkpt lat="40.317769919577884" lon="8.467299866933887"><ele>15.0</ele><time>2026-05-02T14:34:36.001Z</time></trkpt><trkpt lat="40.317650347181605" lon="8.467605625158471"><ele>15.0</ele><time>2026-05-02T14:34:37.001Z</time></trkpt><trkpt lat="40.31755398293748" lon="8.46791003675914"><ele>17.0</ele><time>2026-05-02T14:34:38.001Z</time></trkpt><trkpt lat="40.31747688320296" lon="8.468229238868204"><ele>19.0</ele><time>2026-05-02T14:34:39.001Z</time></trkpt><trkpt lat="40.31740099554625" lon="8.468557237669707"><ele>20.5</ele><time>2026-05-02T14:34:40.001Z</time></trkpt><trkpt lat="40.31732370209046" lon="8.468881991603322"><ele>22.0</ele><time>2026-05-02T14:34:41.001Z</time></trkpt><trkpt lat="40.31724495620825" lon="8.469212850327507"><ele>21.0</ele><time>2026-05-02T14:34:42.001Z</time></trkpt><trkpt lat="40.3171674278052" lon="8.469538593690217"><ele>20.0</ele><time>2026-05-02T14:34:43.001Z</time></trkpt><trkpt lat="40.31709050915507" lon="8.469869485477178"><ele>20.0</ele><time>2026-05-02T14:34:44.001Z</time></trkpt><trkpt lat="40.31704215342518" lon="8.470231119633905"><ele>20.0</ele><time>2026-05-02T14:34:45.001Z</time></trkpt><trkpt lat="40.31696442227324" lon="8.47058410338701"><ele>20.5</ele><time>2026-05-02T14:34:46.001Z</time></trkpt><trkpt lat="40.31688079221405" lon="8.470933910633853"><ele>21.0</ele><time>2026-05-02T14:34:47.001Z</time></trkpt><trkpt lat="40.316803761596525" lon="8.471264654689525"><ele>22.5</ele><time>2026-05-02T14:34:48.001Z</time></trkpt><trkpt lat="40.316762270073504" lon="8.471567409081453"><ele>24.0</ele><time>2026-05-02T14:34:49.001Z</time></trkpt><trkpt lat="40.316776065650664" lon="8.47188205398864"><ele>26.0</ele><time>2026-05-02T14:34:50.001Z</time></trkpt><trkpt lat="40.316832516105656" lon="8.472193564094587"><ele>28.0</ele><time>2026-05-02T14:34:51.001Z</time></trkpt><trkpt lat="40.31686903574216" lon="8.472493219757162"><ele>28.0</ele><time>2026-05-02T14:34:52.001Z</time></trkpt><trkpt lat="40.31682342376185" lon="8.472796881636091"><ele>28.0</ele><time>2026-05-02T14:34:53.001Z</time></trkpt><trkpt lat="40.31671339846705" lon="8.473117078630853"><ele>30.5</ele><time>2026-05-02T14:34:54.001Z</time></trkpt><trkpt lat="40.3165846791319" lon="8.473442403136712"><ele>33.0</ele><time>2026-05-02T14:34:55.001Z</time></trkpt><trkpt lat="40.31649601872812" lon="8.473738791968021"><ele>34.5</ele><time>2026-05-02T14:34:56.001Z</time></trkpt><trkpt lat="40.31644399855078" lon="8.474040752388085"><ele>36.0</ele><time>2026-05-02T14:34:57.001Z</time></trkpt><trkpt lat="40.31643100986837" lon="8.474365333738627"><ele>37.0</ele><time>2026-05-02T14:34:58.001Z</time></trkpt><trkpt lat="40.316437889382605" lon="8.474721098046157"><ele>38.0</ele><time>2026-05-02T14:34:59.001Z</time></trkpt><trkpt lat="40.31643559435166" lon="8.475068846576436"><ele>35.5</ele><time>2026-05-02T14:35:00.001Z</time></trkpt><trkpt lat="40.31639958077225" lon="8.475412312654354"><ele>33.0</ele><time>2026-05-02T14:35:01.001Z</time></trkpt><trkpt lat="40.316308189659296" lon="8.475748347660089"><ele>33.0</ele><time>2026-05-02T14:35:02.001Z</time></trkpt><trkpt lat="40.3162131880767" lon="8.476086171569577"><ele>33.0</ele><time>2026-05-02T14:35:03.001Z</time></trkpt><trkpt lat="40.31614909987478" lon="8.476444997873061"><ele>34.5</ele><time>2026-05-02T14:35:03.999Z</time></trkpt><trkpt lat="40.316110640451804" lon="8.476796685721768"><ele>36.0</ele><time>2026-05-02T14:35:04.999Z</time></trkpt><trkpt lat="40.31607978738862" lon="8.477114094952892"><ele>37.0</ele><time>2026-05-02T14:35:05.999Z</time></trkpt><trkpt lat="40.31603095766842" lon="8.477406778372773"><ele>38.0</ele><time>2026-05-02T14:35:06.999Z</time></trkpt><trkpt lat="40.31594196310145" lon="8.477683586407315"><ele>40.5</ele><time>2026-05-02T14:35:07.999Z</time></trkpt><trkpt lat="40.31581579707389" lon="8.477947711511995"><ele>43.0</ele><time>2026-05-02T14:35:08.999Z</time></trkpt><trkpt lat="40.31566593823901" lon="8.478223438429723"><ele>43.5</ele><time>2026-05-02T14:35:09.999Z</time></trkpt><trkpt lat="40.31552483620031" lon="8.478538868935411"><ele>44.0</ele><time>2026-05-02T14:35:10.999Z</time></trkpt><trkpt lat="40.31539308559955" lon="8.478868601812295"><ele>44.0</ele><time>2026-05-02T14:35:11.999Z</time></trkpt><trkpt lat="40.31526573090776" lon="8.479168360536036"><ele>44.0</ele><time>2026-05-02T14:35:13Z</time></trkpt><trkpt lat="40.31514244554907" lon="8.479440286726144"><ele>46.666666666666664</ele><time>2026-05-02T14:35:14Z</time></trkpt><trkpt lat="40.31503128800245" lon="8.479685704284725"><ele>49.33333333333333</ele><time>2026-05-02T14:35:15Z</time></trkpt><trkpt lat="40.31492952289513" lon="8.479924919800352"><ele>52.0</ele><time>2026-05-02T14:35:16Z</time></trkpt><trkpt lat="40.314836252169485" lon="8.480152127757187"><ele>52.0</ele><time>2026-05-02T14:35:17Z</time></trkpt><trkpt lat="40.3147387566295" lon="8.480390192457484"><ele>52.0</ele><time>2026-05-02T14:35:18Z</time></trkpt><trkpt lat="40.31464341376426" lon="8.48064397472136"><ele>52.0</ele><time>2026-05-02T14:35:19Z</time></trkpt><trkpt lat="40.314575794185096" lon="8.48094145912523"><ele>55.5</ele><time>2026-05-02T14:35:20Z</time></trkpt><trkpt lat="40.31453778954919" lon="8.48127575834791"><ele>59.0</ele><time>2026-05-02T14:35:21Z</time></trkpt><trkpt lat="40.31448874689067" lon="8.481627597349991"><ele>59.0</ele><time>2026-05-02T14:35:22Z</time></trkpt><trkpt lat="40.31442750623253" lon="8.481984923417743"><ele>59.0</ele><time>2026-05-02T14:35:23Z</time></trkpt><trkpt lat="40.31435955619961" lon="8.482353310439997"><ele>59.0</ele><time>2026-05-02T14:35:24Z</time></trkpt><trkpt lat="40.31428850556176" lon="8.482724929236817"><ele>59.0</ele><time>2026-05-02T14:35:25Z</time></trkpt><trkpt lat="40.314217644037875" lon="8.483099947286942"><ele>59.0</ele><time>2026-05-02T14:35:26Z</time></trkpt><trkpt lat="40.31415322015493" lon="8.483475519425454"><ele>59.0</ele><time>2026-05-02T14:35:27Z</time></trkpt><trkpt lat="40.31408972406302" lon="8.483842102904667"><ele>63.0</ele><time>2026-05-02T14:35:28Z</time></trkpt><trkpt lat="40.31403127483952" lon="8.484204538782866"><ele>67.0</ele><time>2026-05-02T14:35:29Z</time></trkpt><trkpt lat="40.313972108001934" lon="8.484539797951609"><ele>71.5</ele><time>2026-05-02T14:35:30Z</time></trkpt><trkpt lat="40.313920635602244" lon="8.484835803598056"><ele>76.0</ele><time>2026-05-02T14:35:31Z</time></trkpt><trkpt lat="40.31386393470969" lon="8.4851242064695"><ele>78.33333333333333</ele><time>2026-05-02T14:35:32Z</time></trkpt><trkpt lat="40.31379489824223" lon="8.485394738964938"><ele>80.66666666666667</ele><time>2026-05-02T14:35:33Z</time></trkpt><trkpt lat="40.313699143145286" lon="8.485660251963775"><ele>83.0</ele><time>2026-05-02T14:35:34Z</time></trkpt><trkpt lat="40.31357455354263" lon="8.485912224261444"><ele>83.0</ele><time>2026-05-02T14:35:35Z</time></trkpt><trkpt lat="40.31343646602293" lon="8.486152253924324"><ele>83.0</ele><time>2026-05-02T14:35:36Z</time></trkpt><trkpt lat="40.31330865071269" lon="8.4863947927148"><ele>84.0</ele><time>2026-05-02T14:35:37Z</time></trkpt><trkpt lat="40.31318624329036" lon="8.486642665153893"><ele>85.0</ele><time>2026-05-02T14:35:38Z</time></trkpt><trkpt lat="40.31306252986908" lon="8.486904810284393"><ele>82.0</ele><time>2026-05-02T14:35:39Z</time></trkpt><trkpt lat="40.312936900510834" lon="8.48717767664589"><ele>79.0</ele><time>2026-05-02T14:35:40Z</time></trkpt><trkpt lat="40.31281932813397" lon="8.487423666384652"><ele>79.0</ele><time>2026-05-02T14:35:41Z</time></trkpt><trkpt lat="40.31270476143491" lon="8.48765954212228"><ele>79.0</ele><time>2026-05-02T14:35:42Z</time></trkpt><trkpt lat="40.3125983391893" lon="8.487872489754198"><ele>79.0</ele><time>2026-05-02T14:35:43Z</time></trkpt><trkpt lat="40.31248437039638" lon="8.488073977573345"><ele>78.66666666666666</ele><time>2026-05-02T14:35:44Z</time></trkpt><trkpt lat="40.312345938145654" lon="8.488250144331401"><ele>78.33333333333333</ele><time>2026-05-02T14:35:45Z</time></trkpt><trkpt lat="40.31217935456364" lon="8.488401992096053"><ele>78.0</ele><time>2026-05-02T14:35:46Z</time></trkpt><trkpt lat="40.31199560754256" lon="8.488532705687895"><ele>78.0</ele><time>2026-05-02T14:35:47Z</time></trkpt><trkpt lat="40.311822236040136" lon="8.488645530784"><ele>78.0</ele><time>2026-05-02T14:35:48Z</time></trkpt><trkpt lat="40.3116552932322" lon="8.488704853672598"><ele>78.0</ele><time>2026-05-02T14:35:49Z</time></trkpt><trkpt lat="40.31147205303961" lon="8.488708683722502"><ele>75.66666666666667</ele><time>2026-05-02T14:35:50Z</time></trkpt><trkpt lat="40.31126807832794" lon="8.488657461807843"><ele>73.33333333333334</ele><time>2026-05-02T14:35:51Z</time></trkpt><trkpt lat="40.311065910789786" lon="8.48860745626046"><ele>71.0</ele><time>2026-05-02T14:35:52Z</time></trkpt><trkpt lat="40.31089991516759" lon="8.488571931888268"><ele>71.0</ele><time>2026-05-02T14:35:53Z</time></trkpt><trkpt lat="40.31077133224014" lon="8.48854394460652"><ele>71.0</ele><time>2026-05-02T14:35:54Z</time></trkpt><trkpt lat="40.31065518714775" lon="8.488499806725828"><ele>71.0</ele><time>2026-05-02T14:35:55Z</time></trkpt><trkpt lat="40.31053826445826" lon="8.488391903083196"><ele>71.0</ele><time>2026-05-02T14:35:56Z</time></trkpt><trkpt lat="40.31042559690882" lon="8.488222050341024"><ele>67.0</ele><time>2026-05-02T14:35:57Z</time></trkpt><trkpt lat="40.31027014257593" lon="8.487977698199"><ele>63.0</ele><time>2026-05-02T14:35:58Z</time></trkpt><trkpt lat="40.31009251493957" lon="8.487691700411489"><ele>63.0</ele><time>2026-05-02T14:35:59Z</time></trkpt><trkpt lat="40.30992197699299" lon="8.487429060945997"><ele>63.0</ele><time>2026-05-02T14:36:00Z</time></trkpt><trkpt lat="40.30976763460354" lon="8.48719534423371"><ele>60.0</ele><time>2026-05-02T14:36:01Z</time></trkpt><trkpt lat="40.309624651950756" lon="8.486976078006943"><ele>57.0</ele><time>2026-05-02T14:36:02Z</time></trkpt><trkpt lat="40.30949059485316" lon="8.486784702847984"><ele>54.0</ele><time>2026-05-02T14:36:03Z</time></trkpt><trkpt lat="40.30933912740023" lon="8.486626271945138"><ele>54.0</ele><time>2026-05-02T14:36:04Z</time></trkpt><trkpt lat="40.30916284905439" lon="8.486503580170414"><ele>54.0</ele><time>2026-05-02T14:36:05Z</time></trkpt><trkpt lat="40.308987101827526" lon="8.48641111679236"><ele>54.0</ele><time>2026-05-02T14:36:06Z</time></trkpt><trkpt lat="40.30882604617678" lon="8.486325407715263"><ele>53.66666666666667</ele><time>2026-05-02T14:36:07Z</time></trkpt><trkpt lat="40.30865452483968" lon="8.486223038022205"><ele>53.333333333333336</ele><time>2026-05-02T14:36:08Z</time></trkpt><trkpt lat="40.30849296276657" lon="8.486107295219272"><ele>53.0</ele><time>2026-05-02T14:36:09Z</time></trkpt><trkpt lat="40.30833692673624" lon="8.485996336453379"><ele>53.0</ele><time>2026-05-02T14:36:10Z</time></trkpt><trkpt lat="40.308182445422695" lon="8.485904198723848"><ele>53.0</ele><time>2026-05-02T14:36:11Z</time></trkpt><trkpt lat="40.30804085730229" lon="8.485817688474464"><ele>53.0</ele><time>2026-05-02T14:36:12Z</time></trkpt><trkpt lat="40.30792234564034" lon="8.485716565089449"><ele>49.333333333333336</ele><time>2026-05-02T14:36:13Z</time></trkpt><trkpt lat="40.307822918533226" lon="8.48556857749831"><ele>45.66666666666667</ele><time>2026-05-02T14:36:14Z</time></trkpt><trkpt lat="40.307749935709" lon="8.485377638896308"><ele>42.0</ele><time>2026-05-02T14:36:15Z</time></trkpt><trkpt lat="40.307670696618686" lon="8.485208881153007"><ele>42.0</ele><time>2026-05-02T14:36:16Z</time></trkpt><trkpt lat="40.307582261492136" lon="8.485032296418769"><ele>42.0</ele><time>2026-05-02T14:36:17Z</time></trkpt><trkpt lat="40.307482558961425" lon="8.484848460972744"><ele>42.0</ele><time>2026-05-02T14:36:18Z</time></trkpt><trkpt lat="40.307342459790284" lon="8.484682501680382"><ele>42.0</ele><time>2026-05-02T14:36:19Z</time></trkpt><trkpt lat="40.307169310403886" lon="8.48457706496818"><ele>42.0</ele><time>2026-05-02T14:36:20Z</time></trkpt><trkpt lat="40.30696293127447" lon="8.484515902791207"><ele>42.0</ele><time>2026-05-02T14:36:21Z</time></trkpt><trkpt lat="40.30677060163505" lon="8.4844638365928"><ele>42.0</ele><time>2026-05-02T14:36:22Z</time></trkpt><trkpt lat="40.306610472979486" lon="8.484386848440383"><ele>42.0</ele><time>2026-05-02T14:36:23Z</time></trkpt><trkpt lat="40.306448006635215" lon="8.484322346673055"><ele>42.0</ele><time>2026-05-02T14:36:24Z</time></trkpt><trkpt lat="40.306269609651544" lon="8.484258981768365"><ele>39.333333333333336</ele><time>2026-05-02T14:36:25Z</time></trkpt><trkpt lat="40.30606728843856" lon="8.4842216544695"><ele>36.66666666666667</ele><time>2026-05-02T14:36:26Z</time></trkpt><trkpt lat="40.30584250463461" lon="8.484207561468324"><ele>34.0</ele><time>2026-05-02T14:36:27Z</time></trkpt><trkpt lat="40.305601826560604" lon="8.484192451850836"><ele>29.5</ele><time>2026-05-02T14:36:28Z</time></trkpt><trkpt lat="40.3053522266678" lon="8.484160592225017"><ele>25.0</ele><time>2026-05-02T14:36:29Z</time></trkpt><trkpt lat="40.30510866658279" lon="8.484117412608272"><ele>25.0</ele><time>2026-05-02T14:36:30Z</time></trkpt><trkpt lat="40.30486846812796" lon="8.484092827619612"><ele>25.0</ele><time>2026-05-02T14:36:31Z</time></trkpt><trkpt lat="40.30463693102752" lon="8.484069720399498"><ele>24.0</ele><time>2026-05-02T14:36:32Z</time></trkpt><trkpt lat="40.304418155663505" lon="8.484038643678126"><ele>23.0</ele><time>2026-05-02T14:36:33Z</time></trkpt><trkpt lat="40.304219629358485" lon="8.484015066343195"><ele>22.0</ele><time>2026-05-02T14:36:34Z</time></trkpt><trkpt lat="40.30403100617696" lon="8.483997544395907"><ele>21.333333333333332</ele><time>2026-05-02T14:36:35Z</time></trkpt><trkpt lat="40.303838805344675" lon="8.483998226327671"><ele>20.666666666666668</ele><time>2026-05-02T14:36:36Z</time></trkpt><trkpt lat="40.30364105731513" lon="8.484019543707738"><ele>20.0</ele><time>2026-05-02T14:36:37Z</time></trkpt><trkpt lat="40.303427094909054" lon="8.484071790468542"><ele>20.0</ele><time>2026-05-02T14:36:38Z</time></trkpt><trkpt lat="40.303219317613745" lon="8.484133464748908"><ele>20.0</ele><time>2026-05-02T14:36:39Z</time></trkpt><trkpt lat="40.3030123080688" lon="8.484191736767098"><ele>20.0</ele><time>2026-05-02T14:36:40.001Z</time></trkpt><trkpt lat="40.30280560195528" lon="8.484251677150985"><ele>20.333333333333336</ele><time>2026-05-02T14:36:41.001Z</time></trkpt><trkpt lat="40.30260638949955" lon="8.484321563286814"><ele>20.666666666666668</ele><time>2026-05-02T14:36:42.001Z</time></trkpt><trkpt lat="40.30242266118481" lon="8.484426730361326"><ele>21.0</ele><time>2026-05-02T14:36:43.001Z</time></trkpt><trkpt lat="40.3022519862994" lon="8.484560354091593"><ele>17.0</ele><time>2026-05-02T14:36:44.001Z</time></trkpt><trkpt lat="40.302103700612136" lon="8.484692656183574"><ele>13.0</ele><time>2026-05-02T14:36:45.001Z</time></trkpt><trkpt lat="40.30196404102088" lon="8.484789245412141"><ele>9.0</ele><time>2026-05-02T14:36:46.001Z</time></trkpt><trkpt lat="40.301823626661054" lon="8.484829660044095"><ele>9.0</ele><time>2026-05-02T14:36:47.001Z</time></trkpt><trkpt lat="40.301676806361584" lon="8.484847829233832"><ele>9.0</ele><time>2026-05-02T14:36:48.001Z</time></trkpt><trkpt lat="40.30152670923974" lon="8.484843570676803"><ele>9.0</ele><time>2026-05-02T14:36:49.001Z</time></trkpt><trkpt lat="40.301367044370075" lon="8.484837391323742"><ele>8.0</ele><time>2026-05-02T14:36:50.001Z</time></trkpt><trkpt lat="40.301190229782705" lon="8.484818996926117"><ele>7.0</ele><time>2026-05-02T14:36:51.001Z</time></trkpt><trkpt lat="40.30100269051489" lon="8.48481995953279"><ele>6.0</ele><time>2026-05-02T14:36:52.001Z</time></trkpt><trkpt lat="40.300822831909116" lon="8.484810006014149"><ele>6.0</ele><time>2026-05-02T14:36:53.001Z</time></trkpt><trkpt lat="40.30064420621669" lon="8.484803339576864"><ele>6.0</ele><time>2026-05-02T14:36:54.001Z</time></trkpt><trkpt lat="40.300455939025674" lon="8.48479419923656"><ele>6.0</ele><time>2026-05-02T14:36:55.001Z</time></trkpt><trkpt lat="40.30028129302325" lon="8.484784064024"><ele>5.666666666666667</ele><time>2026-05-02T14:36:56.001Z</time></trkpt><trkpt lat="40.30010558573401" lon="8.484781184559363"><ele>5.333333333333334</ele><time>2026-05-02T14:36:57.001Z</time></trkpt><trkpt lat="40.299923318683454" lon="8.484783671558674"><ele>5.0</ele><time>2026-05-02T14:36:58.001Z</time></trkpt><trkpt lat="40.29974680606054" lon="8.484784594494968"><ele>5.0</ele><time>2026-05-02T14:36:59.001Z</time></trkpt><trkpt lat="40.299577173887975" lon="8.484803177031626"><ele>5.0</ele><time>2026-05-02T14:37:00.001Z</time></trkpt><trkpt lat="40.29941277877765" lon="8.48481286321474"><ele>5.0</ele><time>2026-05-02T14:37:01.001Z</time></trkpt><trkpt lat="40.29925280917786" lon="8.484822117647049"><ele>5.0</ele><time>2026-05-02T14:37:02.001Z</time></trkpt><trkpt lat="40.29909766386156" lon="8.484834688519067"><ele>5.0</ele><time>2026-05-02T14:37:03.001Z</time></trkpt><trkpt lat="40.29894321124884" lon="8.484848715700954"><ele>5.0</ele><time>2026-05-02T14:37:04.001Z</time></trkpt><trkpt lat="40.29879233296697" lon="8.484857611955958"><ele>4.5</ele><time>2026-05-02T14:37:05.001Z</time></trkpt><trkpt lat="40.2986408285147" lon="8.484865228443129"><ele>4.0</ele><time>2026-05-02T14:37:06.001Z</time></trkpt><trkpt lat="40.29849698358551" lon="8.484867011780073"><ele>3.5</ele><time>2026-05-02T14:37:07.001Z</time></trkpt><trkpt lat="40.29836233883365" lon="8.484869962110318"><ele>3.0</ele><time>2026-05-02T14:37:08.001Z</time></trkpt><trkpt lat="40.298215660605486" lon="8.484875667907875"><ele>3.0</ele><time>2026-05-02T14:37:09.001Z</time></trkpt><trkpt lat="40.298087378323224" lon="8.48489215199514"><ele>3.0</ele><time>2026-05-02T14:37:09.999Z</time></trkpt><trkpt lat="40.29797329992184" lon="8.484893152144389"><ele>3.0</ele><time>2026-05-02T14:37:10.999Z</time></trkpt><trkpt lat="40.29787769555583" lon="8.484896928431835"><ele>3.0</ele><time>2026-05-02T14:37:11.999Z</time></trkpt><trkpt lat="40.29778736241453" lon="8.484906711558079"><ele>3.0</ele><time>2026-05-02T14:37:12.999Z</time></trkpt><trkpt lat="40.2977056473536" lon="8.484913256913446"><ele>3.0</ele><time>2026-05-02T14:37:13.999Z</time></trkpt><trkpt lat="40.29762405170824" lon="8.48491314081776"><ele>3.0</ele><time>2026-05-02T14:37:14.999Z</time></trkpt><trkpt lat="40.29754135973196" lon="8.484913392053459"><ele>3.0</ele><time>2026-05-02T14:37:15.999Z</time></trkpt><trkpt lat="40.29746464334184" lon="8.484928309990135"><ele>3.0</ele><time>2026-05-02T14:37:16.999Z</time></trkpt><trkpt lat="40.29739993054545" lon="8.48494314642038"><ele>3.0</ele><time>2026-05-02T14:37:17.999Z</time></trkpt><trkpt lat="40.29733597708731" lon="8.484947531601351"><ele>3.0</ele><time>2026-05-02T14:37:18.999Z</time></trkpt><trkpt lat="40.297235866932965" lon="8.484937337286768"><ele>3.0</ele><time>2026-05-02T14:37:20.999Z</time></trkpt><trkpt lat="40.297122856373925" lon="8.484945998114258"><ele>3.0</ele><time>2026-05-02T14:37:22.999Z</time></trkpt><trkpt lat="40.29705220798572" lon="8.484962296114695"><ele>3.0</ele><time>2026-05-02T14:37:23.999Z</time></trkpt><trkpt lat="40.296979472581945" lon="8.484979474720806"><ele>3.0</ele><time>2026-05-02T14:37:25Z</time></trkpt><trkpt lat="40.296906004035165" lon="8.484990411433913"><ele>3.0</ele><time>2026-05-02T14:37:26Z</time></trkpt><trkpt lat="40.29682891490928" lon="8.484994748710267"><ele>3.0</ele><time>2026-05-02T14:37:27Z</time></trkpt><trkpt lat="40.29670788134308" lon="8.484992908195471"><ele>3.0</ele><time>2026-05-02T14:37:29Z</time></trkpt><trkpt lat="40.2966414315873" lon="8.484999318011733"><ele>3.0</ele><time>2026-05-02T14:37:30Z</time></trkpt><trkpt lat="40.296563413576386" lon="8.485003869455925"><ele>3.0</ele><time>2026-05-02T14:37:31Z</time></trkpt><trkpt lat="40.29647827653896" lon="8.48500995384754"><ele>3.0</ele><time>2026-05-02T14:37:32Z</time></trkpt><trkpt lat="40.29640507946025" lon="8.485014739617965"><ele>3.0</ele><time>2026-05-02T14:37:33Z</time></trkpt><trkpt lat="40.296340032971564" lon="8.485015307281481"><ele>3.0</ele><time>2026-05-02T14:37:34Z</time></trkpt><trkpt lat="40.29622782873299" lon="8.485023467817983"><ele>2.8333333333333335</ele><time>2026-05-02T14:37:36Z</time></trkpt><trkpt lat="40.296135209347874" lon="8.485029100777668"><ele>2.6666666666666665</ele><time>2026-05-02T14:37:38Z</time></trkpt><trkpt lat="40.29605485184616" lon="8.485029926297967"><ele>2.5</ele><time>2026-05-02T14:37:40Z</time></trkpt><trkpt lat="40.295972093389516" lon="8.4850577075456"><ele>2.333333333333333</ele><time>2026-05-02T14:38:04Z</time></trkpt><trkpt lat="40.29590015326845" lon="8.485030870782362"><ele>2.1666666666666665</ele><time>2026-05-02T14:38:06Z</time></trkpt><trkpt lat="40.295816670086566" lon="8.485052596957413"><ele>2.0</ele><time>2026-05-02T14:38:27Z</time></trkpt><trkpt lat="40.29573356221055" lon="8.485059825311245"><ele>2.0</ele><time>2026-05-02T14:38:28.001Z</time></trkpt><trkpt lat="40.2956211791511" lon="8.485060220920591"><ele>2.0</ele><time>2026-05-02T14:38:29.001Z</time></trkpt><trkpt lat="40.29548725014902" lon="8.485048141471701"><ele>2.0</ele><time>2026-05-02T14:38:30.001Z</time></trkpt><trkpt lat="40.29535664657753" lon="8.484993195613416"><ele>2.0</ele><time>2026-05-02T14:38:31.001Z</time></trkpt><trkpt lat="40.29523073885094" lon="8.484913216923724"><ele>2.0</ele><time>2026-05-02T14:38:32.001Z</time></trkpt><trkpt lat="40.29510365292018" lon="8.48481777128973"><ele>2.0</ele><time>2026-05-02T14:38:33.001Z</time></trkpt><trkpt lat="40.29498713871362" lon="8.484738875034287"><ele>2.0</ele><time>2026-05-02T14:38:34.001Z</time></trkpt><trkpt lat="40.294875846454744" lon="8.484654142981102"><ele>2.0</ele><time>2026-05-02T14:38:35.001Z</time></trkpt><trkpt lat="40.29476469375673" lon="8.484572699631611"><ele>1.8</ele><time>2026-05-02T14:38:36.001Z</time></trkpt><trkpt lat="40.294665595286254" lon="8.484503555216147"><ele>1.6</ele><time>2026-05-02T14:38:37.001Z</time></trkpt><trkpt lat="40.29457544514773" lon="8.484439079769002"><ele>1.4000000000000001</ele><time>2026-05-02T14:38:38.001Z</time></trkpt><trkpt lat="40.29449175220335" lon="8.484380751155363"><ele>1.2000000000000002</ele><time>2026-05-02T14:38:39.001Z</time></trkpt><trkpt lat="40.294383679921" lon="8.484304818094639"><ele>1.0</ele><time>2026-05-02T14:38:40.001Z</time></trkpt><trkpt lat="40.29421122361524" lon="8.484195419561134"><ele>1.0</ele><time>2026-05-02T14:38:41.001Z</time></trkpt><trkpt lat="40.29402392066926" lon="8.48406529134139"><ele>1.0</ele><time>2026-05-02T14:38:42.001Z</time></trkpt><trkpt lat="40.29386107957808" lon="8.483953963286607"><ele>1.0</ele><time>2026-05-02T14:38:43.001Z</time></trkpt><trkpt lat="40.293717587436696" lon="8.483818934518656"><ele>0.6666666666666666</ele><time>2026-05-02T14:38:44.001Z</time></trkpt><trkpt lat="40.29355449606581" lon="8.48370399441666"><ele>0.3333333333333333</ele><time>2026-05-02T14:38:45.001Z</time></trkpt><trkpt lat="40.293381521832856" lon="8.483630809210064"><ele>0.0</ele><time>2026-05-02T14:38:46.001Z</time></trkpt><trkpt lat="40.2932280562279" lon="8.483577652116828"><ele>0.4</ele><time>2026-05-02T14:38:47.001Z</time></trkpt><trkpt lat="40.293088332418485" lon="8.483584178959237"><ele>0.8</ele><time>2026-05-02T14:38:48.001Z</time></trkpt><trkpt lat="40.29298547516404" lon="8.483599045675604"><ele>1.2000000000000002</ele><time>2026-05-02T14:38:49.001Z</time></trkpt><trkpt lat="40.292901707057666" lon="8.483605571022224"><ele>1.6</ele><time>2026-05-02T14:38:50.001Z</time></trkpt><trkpt lat="40.292817476601066" lon="8.483598615395177"><ele>2.0</ele><time>2026-05-02T14:38:51.001Z</time></trkpt><trkpt lat="40.29274060118305" lon="8.483578421734734"><ele>1.9999999999999998</ele><time>2026-05-02T14:38:52.001Z</time></trkpt><trkpt lat="40.292673212511176" lon="8.48355785434377"><ele>2.0</ele><time>2026-05-02T14:38:53.001Z</time></trkpt><trkpt lat="40.29256821342763" lon="8.483611569529225"><ele>2.0</ele><time>2026-05-02T14:38:55.001Z</time></trkpt><trkpt lat="40.29253871603846" lon="8.483693729316133"><ele>2.0</ele><time>2026-05-02T14:38:56.001Z</time></trkpt><trkpt lat="40.29252975583624" lon="8.483791122710008"><ele>1.9999999999999998</ele><time>2026-05-02T14:38:57.001Z</time></trkpt><trkpt lat="40.292554232041624" lon="8.48391053153128"><ele>2.0</ele><time>2026-05-02T14:38:58.001Z</time></trkpt><trkpt lat="40.29261105034531" lon="8.48404498955703"><ele>1.75</ele><time>2026-05-02T14:38:59.001Z</time></trkpt><trkpt lat="40.29266082700014" lon="8.484190079403737"><ele>1.5</ele><time>2026-05-02T14:39:00.001Z</time></trkpt><trkpt lat="40.29268763010091" lon="8.48435521856968"><ele>1.25</ele><time>2026-05-02T14:39:01.001Z</time></trkpt><trkpt lat="40.29269703182174" lon="8.484540715637909"><ele>1.0</ele><time>2026-05-02T14:39:02.001Z</time></trkpt><trkpt lat="40.29270263487164" lon="8.484735651267998"><ele>1.6666666666666665</ele><time>2026-05-02T14:39:03.001Z</time></trkpt><trkpt lat="40.29268965116496" lon="8.484930130557125"><ele>2.3333333333333335</ele><time>2026-05-02T14:39:04.001Z</time></trkpt><trkpt lat="40.29266527391976" lon="8.485119115561599"><ele>3.0</ele><time>2026-05-02T14:39:05.001Z</time></trkpt><trkpt lat="40.29262716048409" lon="8.485319193286339"><ele>3.333333333333333</ele><time>2026-05-02T14:39:06.001Z</time></trkpt><trkpt lat="40.29258210145967" lon="8.48554139746083"><ele>3.6666666666666665</ele><time>2026-05-02T14:39:07.001Z</time></trkpt><trkpt lat="40.29253734484952" lon="8.485758029543984"><ele>4.0</ele><time>2026-05-02T14:39:08.001Z</time></trkpt><trkpt lat="40.29249403361538" lon="8.485964685707374"><ele>4.0</ele><time>2026-05-02T14:39:09.001Z</time></trkpt><trkpt lat="40.292451413385066" lon="8.486167981000792"><ele>4.0</ele><time>2026-05-02T14:39:10.001Z</time></trkpt><trkpt lat="40.292408857221446" lon="8.486370970700452"><ele>4.0</ele><time>2026-05-02T14:39:11.001Z</time></trkpt><trkpt lat="40.2923686104073" lon="8.486570851837211"><ele>4.0</ele><time>2026-05-02T14:39:12.001Z</time></trkpt><trkpt lat="40.29232756639776" lon="8.486776179017681"><ele>4.0</ele><time>2026-05-02T14:39:13.001Z</time></trkpt><trkpt lat="40.292286360421244" lon="8.486983859077936"><ele>4.0</ele><time>2026-05-02T14:39:14.001Z</time></trkpt><trkpt lat="40.2922426511099" lon="8.48720273916424"><ele>2.6666666666666665</ele><time>2026-05-02T14:39:15.001Z</time></trkpt><trkpt lat="40.29219800072906" lon="8.487415727543747"><ele>1.3333333333333333</ele><time>2026-05-02T14:39:16Z</time></trkpt><trkpt lat="40.29215743699729" lon="8.487609222044458"><ele>0.0</ele><time>2026-05-02T14:39:17Z</time></trkpt><trkpt lat="40.29212090502133" lon="8.487785220644012"><ele>0.75</ele><time>2026-05-02T14:39:18Z</time></trkpt><trkpt lat="40.29208574602786" lon="8.48795663015672"><ele>1.5</ele><time>2026-05-02T14:39:19Z</time></trkpt><trkpt lat="40.29205298029957" lon="8.488116371863688"><ele>2.25</ele><time>2026-05-02T14:39:20Z</time></trkpt><trkpt lat="40.29202135386885" lon="8.488270559181975"><ele>3.0</ele><time>2026-05-02T14:39:21Z</time></trkpt><trkpt lat="40.29198867003653" lon="8.488429901628077"><ele>3.0</ele><time>2026-05-02T14:39:22Z</time></trkpt><trkpt lat="40.29195489268358" lon="8.488594575270277"><ele>3.0</ele><time>2026-05-02T14:39:23Z</time></trkpt><trkpt lat="40.29191938220104" lon="8.48876769839158"><ele>3.0</ele><time>2026-05-02T14:39:24Z</time></trkpt><trkpt lat="40.29188331506057" lon="8.488944068996208"><ele>3.0</ele><time>2026-05-02T14:39:25Z</time></trkpt><trkpt lat="40.2918460353378" lon="8.489126774567094"><ele>3.75</ele><time>2026-05-02T14:39:26Z</time></trkpt><trkpt lat="40.291810068674934" lon="8.489306551016437"><ele>4.5</ele><time>2026-05-02T14:39:27Z</time></trkpt><trkpt lat="40.29177932356039" lon="8.489470770575819"><ele>5.25</ele><time>2026-05-02T14:39:28Z</time></trkpt><trkpt lat="40.29175480488272" lon="8.489624449845634"><ele>6.0</ele><time>2026-05-02T14:39:29Z</time></trkpt><trkpt lat="40.29173723525976" lon="8.489761617177237"><ele>6.5</ele><time>2026-05-02T14:39:30Z</time></trkpt><trkpt lat="40.291723666647265" lon="8.48990437123059"><ele>7.0</ele><time>2026-05-02T14:39:31Z</time></trkpt><trkpt lat="40.29171390443933" lon="8.490069460862816"><ele>7.5</ele><time>2026-05-02T14:39:32Z</time></trkpt><trkpt lat="40.2917080408802" lon="8.490241339539214"><ele>8.0</ele><time>2026-05-02T14:39:33Z</time></trkpt><trkpt lat="40.2917064609538" lon="8.490414845060483"><ele>8.25</ele><time>2026-05-02T14:39:34Z</time></trkpt><trkpt lat="40.29170931507161" lon="8.490589758058114"><ele>8.5</ele><time>2026-05-02T14:39:35Z</time></trkpt><trkpt lat="40.291736279955856" lon="8.490768392284814"><ele>8.75</ele><time>2026-05-02T14:39:36Z</time></trkpt><trkpt lat="40.29175086301733" lon="8.490944261269421"><ele>9.0</ele><time>2026-05-02T14:39:37Z</time></trkpt><trkpt lat="40.291776165915" lon="8.491119574687557"><ele>11.75</ele><time>2026-05-02T14:39:38Z</time></trkpt><trkpt lat="40.29180042005728" lon="8.491307488019505"><ele>14.5</ele><time>2026-05-02T14:39:39Z</time></trkpt><trkpt lat="40.29185473507081" lon="8.491480318049051"><ele>17.25</ele><time>2026-05-02T14:39:40Z</time></trkpt><trkpt lat="40.291901726594844" lon="8.491679615880567"><ele>20.0</ele><time>2026-05-02T14:39:41Z</time></trkpt><trkpt lat="40.29194079520485" lon="8.491852876052196"><ele>20.0</ele><time>2026-05-02T14:39:42Z</time></trkpt><trkpt lat="40.29197196146429" lon="8.491997526348134"><ele>20.0</ele><time>2026-05-02T14:39:43Z</time></trkpt><trkpt lat="40.292000379122044" lon="8.492125787684236"><ele>20.0</ele><time>2026-05-02T14:39:44Z</time></trkpt><trkpt lat="40.292031231625145" lon="8.492251318194116"><ele>20.0</ele><time>2026-05-02T14:39:45Z</time></trkpt><trkpt lat="40.2920609102306" lon="8.492373452629177"><ele>20.0</ele><time>2026-05-02T14:39:46Z</time></trkpt><trkpt lat="40.292080195318064" lon="8.492490438271892"><ele>20.0</ele><time>2026-05-02T14:39:47Z</time></trkpt><trkpt lat="40.29210949620702" lon="8.492602408593703"><ele>20.0</ele><time>2026-05-02T14:39:48Z</time></trkpt><trkpt lat="40.29213730615071" lon="8.492720124672054"><ele>20.0</ele><time>2026-05-02T14:39:49Z</time></trkpt><trkpt lat="40.29216726710427" lon="8.492844152225434"><ele>20.0</ele><time>2026-05-02T14:39:50Z</time></trkpt><trkpt lat="40.2921985684291" lon="8.492975867461416"><ele>20.0</ele><time>2026-05-02T14:39:51Z</time></trkpt><trkpt lat="40.292231051826874" lon="8.49310600353069"><ele>18.0</ele><time>2026-05-02T14:39:52Z</time></trkpt><trkpt lat="40.292262666100065" lon="8.493237784389228"><ele>16.0</ele><time>2026-05-02T14:39:53Z</time></trkpt><trkpt lat="40.29229027197951" lon="8.49337789376829"><ele>14.0</ele><time>2026-05-02T14:39:54Z</time></trkpt><trkpt lat="40.29231875808484" lon="8.493516545933185"><ele>12.0</ele><time>2026-05-02T14:39:55Z</time></trkpt><trkpt lat="40.29235465740663" lon="8.4936682945648"><ele>10.0</ele><time>2026-05-02T14:39:56Z</time></trkpt><trkpt lat="40.292379383790625" lon="8.493852455164452"><ele>10.0</ele><time>2026-05-02T14:39:57Z</time></trkpt><trkpt lat="40.29239154507555" lon="8.494045793972937"><ele>10.0</ele><time>2026-05-02T14:39:58Z</time></trkpt><trkpt lat="40.292398283743914" lon="8.494226917314698"><ele>10.0</ele><time>2026-05-02T14:39:59Z</time></trkpt><trkpt lat="40.29240721737147" lon="8.494409141750769"><ele>10.0</ele><time>2026-05-02T14:40:00Z</time></trkpt><trkpt lat="40.292434308950064" lon="8.494585572311545"><ele>9.25</ele><time>2026-05-02T14:40:01Z</time></trkpt><trkpt lat="40.292450333831695" lon="8.494768642075867"><ele>8.5</ele><time>2026-05-02T14:40:02Z</time></trkpt><trkpt lat="40.29245119946487" lon="8.494963279653456"><ele>7.75</ele><time>2026-05-02T14:40:03Z</time></trkpt><trkpt lat="40.292460891298035" lon="8.495158682670915"><ele>7.0</ele><time>2026-05-02T14:40:04Z</time></trkpt><trkpt lat="40.29247215887662" lon="8.495353572526358"><ele>5.666666666666667</ele><time>2026-05-02T14:40:05Z</time></trkpt><trkpt lat="40.292490364771" lon="8.49554863593518"><ele>4.333333333333334</ele><time>2026-05-02T14:40:06Z</time></trkpt><trkpt lat="40.29250794077276" lon="8.49574269782769"><ele>3.0</ele><time>2026-05-02T14:40:07Z</time></trkpt><trkpt lat="40.29252521444835" lon="8.495939193587557"><ele>3.0</ele><time>2026-05-02T14:40:08Z</time></trkpt><trkpt lat="40.29254082683962" lon="8.496136258525906"><ele>3.0</ele><time>2026-05-02T14:40:09Z</time></trkpt><trkpt lat="40.29255405679712" lon="8.496334059033243"><ele>3.0</ele><time>2026-05-02T14:40:10Z</time></trkpt><trkpt lat="40.29257176398102" lon="8.496532230291114"><ele>3.0</ele><time>2026-05-02T14:40:11Z</time></trkpt><trkpt lat="40.29258791738358" lon="8.496732060836523"><ele>3.0</ele><time>2026-05-02T14:40:12Z</time></trkpt><trkpt lat="40.292608490352784" lon="8.49693245626839"><ele>3.0</ele><time>2026-05-02T14:40:13Z</time></trkpt><trkpt lat="40.2926248866908" lon="8.497134350149242"><ele>2.6666666666666665</ele><time>2026-05-02T14:40:14Z</time></trkpt><trkpt lat="40.29264464918267" lon="8.497334427619785"><ele>2.333333333333333</ele><time>2026-05-02T14:40:15Z</time></trkpt><trkpt lat="40.292660074997315" lon="8.497533505975172"><ele>2.0</ele><time>2026-05-02T14:40:16Z</time></trkpt><trkpt lat="40.29268343148532" lon="8.497735411652847"><ele>2.6666666666666665</ele><time>2026-05-02T14:40:17Z</time></trkpt><trkpt lat="40.29270123273335" lon="8.497943319117066"><ele>3.333333333333333</ele><time>2026-05-02T14:40:18Z</time></trkpt><trkpt lat="40.292731729496126" lon="8.498156537799106"><ele>4.0</ele><time>2026-05-02T14:40:19.001Z</time></trkpt><trkpt lat="40.29275087424301" lon="8.498370696202377"><ele>4.0</ele><time>2026-05-02T14:40:20.001Z</time></trkpt><trkpt lat="40.29277009625665" lon="8.498582940306118"><ele>4.0</ele><time>2026-05-02T14:40:21.001Z</time></trkpt><trkpt lat="40.2927941403943" lon="8.498798042564333"><ele>4.0</ele><time>2026-05-02T14:40:22.001Z</time></trkpt><trkpt lat="40.292819876896104" lon="8.499015149562387"><ele>4.0</ele><time>2026-05-02T14:40:23.001Z</time></trkpt><trkpt lat="40.2928371485419" lon="8.49922418609276"><ele>4.0</ele><time>2026-05-02T14:40:24.001Z</time></trkpt><trkpt lat="40.29286179570262" lon="8.499430131433089"><ele>4.0</ele><time>2026-05-02T14:40:25.001Z</time></trkpt><trkpt lat="40.29288301303296" lon="8.499627364735868"><ele>4.0</ele><time>2026-05-02T14:40:26.001Z</time></trkpt><trkpt lat="40.292903917175614" lon="8.499810014876681"><ele>4.0</ele><time>2026-05-02T14:40:27.001Z</time></trkpt><trkpt lat="40.292928487001575" lon="8.499992990398505"><ele>4.0</ele><time>2026-05-02T14:40:28.001Z</time></trkpt><trkpt lat="40.2929481707728" lon="8.500189032382394"><ele>4.0</ele><time>2026-05-02T14:40:29.001Z</time></trkpt><trkpt lat="40.29296845498863" lon="8.500376969734772"><ele>4.0</ele><time>2026-05-02T14:40:30.001Z</time></trkpt><trkpt lat="40.292981874527634" lon="8.500556158891827"><ele>4.0</ele><time>2026-05-02T14:40:31.001Z</time></trkpt><trkpt lat="40.29300192621002" lon="8.500723041386966"><ele>4.0</ele><time>2026-05-02T14:40:32.001Z</time></trkpt><trkpt lat="40.29302295466337" lon="8.500894805417808"><ele>4.0</ele><time>2026-05-02T14:40:33.001Z</time></trkpt><trkpt lat="40.293047152086736" lon="8.501062234823372"><ele>4.0</ele><time>2026-05-02T14:40:34.001Z</time></trkpt><trkpt lat="40.29307070147775" lon="8.501226418347802"><ele>4.0</ele><time>2026-05-02T14:40:35.001Z</time></trkpt><trkpt lat="40.293091486550175" lon="8.50139841612095"><ele>4.0</ele><time>2026-05-02T14:40:36.001Z</time></trkpt><trkpt lat="40.29311410559411" lon="8.501571020083052"><ele>4.0</ele><time>2026-05-02T14:40:37.001Z</time></trkpt><trkpt lat="40.29314647893845" lon="8.501745178613296"><ele>4.25</ele><time>2026-05-02T14:40:38.001Z</time></trkpt><trkpt lat="40.29315564869487" lon="8.501905805963768"><ele>4.5</ele><time>2026-05-02T14:40:39.001Z</time></trkpt><trkpt lat="40.2931742031384" lon="8.502070267731964"><ele>4.75</ele><time>2026-05-02T14:40:40.001Z</time></trkpt><trkpt lat="40.2931624395418" lon="8.502252328204937"><ele>5.0</ele><time>2026-05-02T14:40:41.001Z</time></trkpt><trkpt lat="40.29317113905054" lon="8.502416396294826"><ele>5.0</ele><time>2026-05-02T14:40:42.001Z</time></trkpt><trkpt lat="40.293185980796075" lon="8.502579035920014"><ele>5.0</ele><time>2026-05-02T14:40:43.001Z</time></trkpt><trkpt lat="40.293199026992376" lon="8.50270073739474"><ele>5.0</ele><time>2026-05-02T14:40:44.001Z</time></trkpt><trkpt lat="40.29320413275023" lon="8.502808724612427"><ele>5.0</ele><time>2026-05-02T14:40:45.001Z</time></trkpt><trkpt lat="40.29321133821496" lon="8.5029050382716"><ele>5.0</ele><time>2026-05-02T14:40:46.001Z</time></trkpt><trkpt lat="40.29321648608587" lon="8.502991768541325"><ele>5.0</ele><time>2026-05-02T14:40:47.001Z</time></trkpt><trkpt lat="40.293187581612166" lon="8.503128826910592"><ele>5.0</ele><time>2026-05-02T14:40:49.001Z</time></trkpt><trkpt lat="40.29313265152345" lon="8.503184597943548"><ele>5.0</ele><time>2026-05-02T14:40:50.001Z</time></trkpt><trkpt lat="40.29305829217548" lon="8.503225756751911"><ele>5.0</ele><time>2026-05-02T14:40:51.001Z</time></trkpt><trkpt lat="40.29296752874549" lon="8.50324148462333"><ele>5.0</ele><time>2026-05-02T14:40:52.001Z</time></trkpt><trkpt lat="40.29285888060905" lon="8.50324049922263"><ele>5.0</ele><time>2026-05-02T14:40:53.001Z</time></trkpt><trkpt lat="40.292737652001136" lon="8.503210092943707"><ele>5.0</ele><time>2026-05-02T14:40:54.001Z</time></trkpt><trkpt lat="40.29261523182766" lon="8.503156310529578"><ele>5.0</ele><time>2026-05-02T14:40:55.001Z</time></trkpt><trkpt lat="40.29254488385128" lon="8.503390749190077"><ele>5.0</ele><time>2026-05-02T14:40:56.001Z</time></trkpt><trkpt lat="40.29237291789867" lon="8.503375426242"><ele>5.0</ele><time>2026-05-02T14:40:57.001Z</time></trkpt><trkpt lat="40.292204076057516" lon="8.503365799068684"><ele>5.0</ele><time>2026-05-02T14:40:58.001Z</time></trkpt><trkpt lat="40.29202932304881" lon="8.503337637598255"><ele>5.0</ele><time>2026-05-02T14:40:59.001Z</time></trkpt><trkpt lat="40.29184435868189" lon="8.50332546919436"><ele>5.0</ele><time>2026-05-02T14:41:00.001Z</time></trkpt><trkpt lat="40.29165763541061" lon="8.50332199887783"><ele>5.0</ele><time>2026-05-02T14:41:01.001Z</time></trkpt><trkpt lat="40.29146561058397" lon="8.503312953336671"><ele>5.0</ele><time>2026-05-02T14:41:02.001Z</time></trkpt><trkpt lat="40.29127164357713" lon="8.503301594479192"><ele>5.333333333333334</ele><time>2026-05-02T14:41:03.001Z</time></trkpt><trkpt lat="40.29108111368557" lon="8.503292404839929"><ele>5.666666666666667</ele><time>2026-05-02T14:41:04.001Z</time></trkpt><trkpt lat="40.290895460959824" lon="8.503278209754905"><ele>6.0</ele><time>2026-05-02T14:41:05.001Z</time></trkpt><trkpt lat="40.29070818114566" lon="8.50327084730082"><ele>9.0</ele><time>2026-05-02T14:41:06.001Z</time></trkpt><trkpt lat="40.29052420191198" lon="8.503291906942962"><ele>12.0</ele><time>2026-05-02T14:41:07.001Z</time></trkpt><trkpt lat="40.29034623153338" lon="8.503355038158118"><ele>15.0</ele><time>2026-05-02T14:41:08.001Z</time></trkpt><trkpt lat="40.29018016315891" lon="8.50347094646406"><ele>15.0</ele><time>2026-05-02T14:41:09.001Z</time></trkpt><trkpt lat="40.29003660918665" lon="8.503640076445498"><ele>15.0</ele><time>2026-05-02T14:41:10.001Z</time></trkpt><trkpt lat="40.289914234264664" lon="8.503851959384747"><ele>15.0</ele><time>2026-05-02T14:41:11.001Z</time></trkpt><trkpt lat="40.28981763365282" lon="8.504089332384968"><ele>20.0</ele><time>2026-05-02T14:41:12.001Z</time></trkpt><trkpt lat="40.289739666234105" lon="8.504344398105392"><ele>25.0</ele><time>2026-05-02T14:41:13.001Z</time></trkpt><trkpt lat="40.28967174323195" lon="8.504597467430553"><ele>30.0</ele><time>2026-05-02T14:41:14.001Z</time></trkpt><trkpt lat="40.289602065389246" lon="8.504836668284192"><ele>30.0</ele><time>2026-05-02T14:41:15.001Z</time></trkpt><trkpt lat="40.28953215727677" lon="8.505057551205285"><ele>30.0</ele><time>2026-05-02T14:41:16.001Z</time></trkpt><trkpt lat="40.28947341904595" lon="8.505268212248929"><ele>30.0</ele><time>2026-05-02T14:41:17.001Z</time></trkpt><trkpt lat="40.28944120266382" lon="8.505496154014473"><ele>30.0</ele><time>2026-05-02T14:41:18.001Z</time></trkpt><trkpt lat="40.28939580340019" lon="8.505665565622614"><ele>30.0</ele><time>2026-05-02T14:41:19.001Z</time></trkpt><trkpt lat="40.28943709504538" lon="8.505931436732496"><ele>30.0</ele><time>2026-05-02T14:41:20.001Z</time></trkpt><trkpt lat="40.28945150248036" lon="8.506219678596253"><ele>30.0</ele><time>2026-05-02T14:41:21.001Z</time></trkpt><trkpt lat="40.28930933792877" lon="8.506231395307005"><ele>30.0</ele><time>2026-05-02T14:41:21.999Z</time></trkpt><trkpt lat="40.28919827833994" lon="8.506279671030855"><ele>30.0</ele><time>2026-05-02T14:41:22.999Z</time></trkpt><trkpt lat="40.289071690225114" lon="8.50625466868364"><ele>30.0</ele><time>2026-05-02T14:41:23.999Z</time></trkpt><trkpt lat="40.28896615992802" lon="8.506108425306893"><ele>32.0</ele><time>2026-05-02T14:41:24.999Z</time></trkpt><trkpt lat="40.28891000929348" lon="8.505999795128334"><ele>34.0</ele><time>2026-05-02T14:41:25.999Z</time></trkpt><trkpt lat="40.28885759190997" lon="8.505872320483762"><ele>36.0</ele><time>2026-05-02T14:41:26.999Z</time></trkpt><trkpt lat="40.28889893261193" lon="8.505702160606193"><ele>38.0</ele><time>2026-05-02T14:41:27.999Z</time></trkpt><trkpt lat="40.288914929875624" lon="8.505512586452113"><ele>40.0</ele><time>2026-05-02T14:41:28.999Z</time></trkpt><trkpt lat="40.2889188145319" lon="8.505325451671407"><ele>42.0</ele><time>2026-05-02T14:41:29.999Z</time></trkpt><trkpt lat="40.28891352378782" lon="8.505118745906122"><ele>44.0</ele><time>2026-05-02T14:41:30.999Z</time></trkpt><trkpt lat="40.28891359164745" lon="8.504902309734396"><ele>44.0</ele><time>2026-05-02T14:41:31.999Z</time></trkpt><trkpt lat="40.288908361710185" lon="8.504679507386296"><ele>44.0</ele><time>2026-05-02T14:41:32.999Z</time></trkpt><trkpt lat="40.28890470753331" lon="8.50445173334098"><ele>44.0</ele><time>2026-05-02T14:41:33.999Z</time></trkpt><trkpt lat="40.28890076784613" lon="8.504225105593886"><ele>44.25</ele><time>2026-05-02T14:41:34.999Z</time></trkpt><trkpt lat="40.288897238909314" lon="8.504018667729596"><ele>44.5</ele><time>2026-05-02T14:41:35.999Z</time></trkpt><trkpt lat="40.28889339911815" lon="8.503837477160696"><ele>44.75</ele><time>2026-05-02T14:41:36.999Z</time></trkpt><trkpt lat="40.288891709544885" lon="8.503668584881382"><ele>45.0</ele><time>2026-05-02T14:41:37.999Z</time></trkpt><trkpt lat="40.28888835504944" lon="8.503512546496905"><ele>46.0</ele><time>2026-05-02T14:41:39Z</time></trkpt><trkpt lat="40.28888705229101" lon="8.503368935241436"><ele>47.0</ele><time>2026-05-02T14:41:40Z</time></trkpt><trkpt lat="40.288882855813966" lon="8.503236289676357"><ele>48.0</ele><time>2026-05-02T14:41:41Z</time></trkpt><trkpt lat="40.288880279501505" lon="8.503123651525112"><ele>49.0</ele><time>2026-05-02T14:41:42Z</time></trkpt><trkpt lat="40.28887721763458" lon="8.503017109133237"><ele>50.0</ele><time>2026-05-02T14:41:43Z</time></trkpt><trkpt lat="40.288866611196504" lon="8.502901146432206"><ele>50.00000000000001</ele><time>2026-05-02T14:41:44Z</time></trkpt><trkpt lat="40.28883042384106" lon="8.502789610546412"><ele>50.0</ele><time>2026-05-02T14:41:45Z</time></trkpt><trkpt lat="40.28878607300706" lon="8.502688537497502"><ele>50.0</ele><time>2026-05-02T14:41:46Z</time></trkpt><trkpt lat="40.28872674309294" lon="8.502619059913131"><ele>50.0</ele><time>2026-05-02T14:41:47Z</time></trkpt><trkpt lat="40.28864496763087" lon="8.502619539152468"><ele>50.00000000000001</ele><time>2026-05-02T14:41:48Z</time></trkpt><trkpt lat="40.28857377956201" lon="8.502624995337484"><ele>50.0</ele><time>2026-05-02T14:41:49Z</time></trkpt><trkpt lat="40.288530342066515" lon="8.50270808385796"><ele>50.0</ele><time>2026-05-02T14:41:50Z</time></trkpt><trkpt lat="40.28852842481007" lon="8.502841555366466"><ele>50.0</ele><time>2026-05-02T14:41:51Z</time></trkpt><trkpt lat="40.28852251230786" lon="8.502980253675322"><ele>50.0</ele><time>2026-05-02T14:41:52Z</time></trkpt><trkpt lat="40.28849334484621" lon="8.503124131646326"><ele>50.0</ele><time>2026-05-02T14:41:53Z</time></trkpt><trkpt lat="40.288453313252234" lon="8.503259008248556"><ele>50.0</ele><time>2026-05-02T14:41:54Z</time></trkpt><trkpt lat="40.28840270259261" lon="8.50336022997536"><ele>50.66666666666667</ele><time>2026-05-02T14:41:55Z</time></trkpt><trkpt lat="40.28833495059716" lon="8.503430441174128"><ele>51.333333333333336</ele><time>2026-05-02T14:41:56Z</time></trkpt><trkpt lat="40.28826429581826" lon="8.50351129890007"><ele>52.0</ele><time>2026-05-02T14:41:57Z</time></trkpt><trkpt lat="40.28820155509124" lon="8.503570836359225"><ele>52.66666666666667</ele><time>2026-05-02T14:41:58Z</time></trkpt><trkpt lat="40.28813466850179" lon="8.5036352084302"><ele>53.333333333333336</ele><time>2026-05-02T14:41:59Z</time></trkpt><trkpt lat="40.288075590711024" lon="8.503693270242277"><ele>54.0</ele><time>2026-05-02T14:42:00Z</time></trkpt><trkpt lat="40.28798367515229" lon="8.5037895016494"><ele>57.75</ele><time>2026-05-02T14:42:02Z</time></trkpt><trkpt lat="40.28791344298997" lon="8.50386303135214"><ele>61.5</ele><time>2026-05-02T14:42:03Z</time></trkpt><trkpt lat="40.28781258522219" lon="8.503983531819571"><ele>65.25</ele><time>2026-05-02T14:42:04Z</time></trkpt><trkpt lat="40.28772972446865" lon="8.504110622627755"><ele>69.0</ele><time>2026-05-02T14:42:05Z</time></trkpt><trkpt lat="40.28763325692771" lon="8.50420235210271"><ele>69.0</ele><time>2026-05-02T14:42:06Z</time></trkpt><trkpt lat="40.287547194959245" lon="8.504308463393068"><ele>69.0</ele><time>2026-05-02T14:42:07Z</time></trkpt><trkpt lat="40.287465431203856" lon="8.504427141929876"><ele>69.0</ele><time>2026-05-02T14:42:08Z</time></trkpt><trkpt lat="40.287391863033776" lon="8.504566589101143"><ele>69.0</ele><time>2026-05-02T14:42:09Z</time></trkpt><trkpt lat="40.28732624421093" lon="8.504715659701924"><ele>66.0</ele><time>2026-05-02T14:42:10Z</time></trkpt><trkpt lat="40.287266609420904" lon="8.504883655213392"><ele>63.0</ele><time>2026-05-02T14:42:11Z</time></trkpt><trkpt lat="40.28721962700122" lon="8.505082048907356"><ele>60.0</ele><time>2026-05-02T14:42:12Z</time></trkpt><trkpt lat="40.28719261642517" lon="8.505317816473505"><ele>73.0</ele><time>2026-05-02T14:42:13Z</time></trkpt><trkpt lat="40.28717470774113" lon="8.50554350255027"><ele>86.0</ele><time>2026-05-02T14:42:14Z</time></trkpt><trkpt lat="40.287187668535005" lon="8.505808289728554"><ele>99.0</ele><time>2026-05-02T14:42:15Z</time></trkpt><trkpt lat="40.28718197264424" lon="8.506089385179797"><ele>100.66666666666666</ele><time>2026-05-02T14:42:16Z</time></trkpt><trkpt lat="40.2871853027789" lon="8.506357322271073"><ele>102.33333333333333</ele><time>2026-05-02T14:42:17Z</time></trkpt><trkpt lat="40.287186563885385" lon="8.506604309380892"><ele>104.0</ele><time>2026-05-02T14:42:18Z</time></trkpt><trkpt lat="40.287190685937894" lon="8.506828974847"><ele>104.0</ele><time>2026-05-02T14:42:19Z</time></trkpt><trkpt lat="40.28721312629074" lon="8.507054556601096"><ele>104.0</ele><time>2026-05-02T14:42:20Z</time></trkpt><trkpt lat="40.28722622206973" lon="8.507291665358052"><ele>104.0</ele><time>2026-05-02T14:42:21Z</time></trkpt><trkpt lat="40.287249805731726" lon="8.507533243635661"><ele>95.66666666666666</ele><time>2026-05-02T14:42:22Z</time></trkpt><trkpt lat="40.287273115637404" lon="8.507785336473008"><ele>87.33333333333333</ele><time>2026-05-02T14:42:23Z</time></trkpt><trkpt lat="40.287296244145374" lon="8.508031298347843"><ele>79.0</ele><time>2026-05-02T14:42:24Z</time></trkpt><trkpt lat="40.287316370124756" lon="8.508274743831358"><ele>79.0</ele><time>2026-05-02T14:42:25Z</time></trkpt><trkpt lat="40.28733260257156" lon="8.508500256840398"><ele>79.0</ele><time>2026-05-02T14:42:26Z</time></trkpt><trkpt lat="40.28732513960582" lon="8.508710133778525"><ele>79.0</ele><time>2026-05-02T14:42:27Z</time></trkpt><trkpt lat="40.287296589229925" lon="8.508890504521842"><ele>84.0</ele><time>2026-05-02T14:42:28Z</time></trkpt><trkpt lat="40.28723646208226" lon="8.50905418259076"><ele>89.0</ele><time>2026-05-02T14:42:29Z</time></trkpt><trkpt lat="40.287139524789005" lon="8.509182467202653"><ele>94.0</ele><time>2026-05-02T14:42:30Z</time></trkpt><trkpt lat="40.28700721864148" lon="8.509311777878949"><ele>99.0</ele><time>2026-05-02T14:42:31Z</time></trkpt><trkpt lat="40.28685286029858" lon="8.50945608474778"><ele>96.0</ele><time>2026-05-02T14:42:32.001Z</time></trkpt><trkpt lat="40.286695244327916" lon="8.509611503330161"><ele>93.0</ele><time>2026-05-02T14:42:33.001Z</time></trkpt><trkpt lat="40.28653335563497" lon="8.50977069928777"><ele>90.0</ele><time>2026-05-02T14:42:34.001Z</time></trkpt><trkpt lat="40.28637711198198" lon="8.509941281418143"><ele>93.0</ele><time>2026-05-02T14:42:35.001Z</time></trkpt><trkpt lat="40.28622011633514" lon="8.510111851877996"><ele>96.0</ele><time>2026-05-02T14:42:36.001Z</time></trkpt><trkpt lat="40.286064108049565" lon="8.510283560164792"><ele>99.0</ele><time>2026-05-02T14:42:37.001Z</time></trkpt><trkpt lat="40.28591024955415" lon="8.510442991088548"><ele>99.0</ele><time>2026-05-02T14:42:38.001Z</time></trkpt><trkpt lat="40.28574906969307" lon="8.510593100092223"><ele>99.0</ele><time>2026-05-02T14:42:39.001Z</time></trkpt><trkpt lat="40.28557648572928" lon="8.510722025807155"><ele>99.0</ele><time>2026-05-02T14:42:40.001Z</time></trkpt><trkpt lat="40.28540718302794" lon="8.51084021806042"><ele>101.0</ele><time>2026-05-02T14:42:41.001Z</time></trkpt><trkpt lat="40.28523742427084" lon="8.51095690341165"><ele>103.0</ele><time>2026-05-02T14:42:42.001Z</time></trkpt><trkpt lat="40.28509963441122" lon="8.511141997522973"><ele>105.0</ele><time>2026-05-02T14:42:43.001Z</time></trkpt><trkpt lat="40.28497513564546" lon="8.511339312825928"><ele>105.0</ele><time>2026-05-02T14:42:44.001Z</time></trkpt><trkpt lat="40.28486035239307" lon="8.511549293302384"><ele>105.0</ele><time>2026-05-02T14:42:45.001Z</time></trkpt><trkpt lat="40.2847380155183" lon="8.511753499341456"><ele>105.0</ele><time>2026-05-02T14:42:46.001Z</time></trkpt><trkpt lat="40.2845872846314" lon="8.511939035546266"><ele>108.33333333333334</ele><time>2026-05-02T14:42:47.001Z</time></trkpt><trkpt lat="40.28444995391938" lon="8.512143461251297"><ele>111.66666666666667</ele><time>2026-05-02T14:42:48.001Z</time></trkpt><trkpt lat="40.284316070984225" lon="8.512347019858016"><ele>115.0</ele><time>2026-05-02T14:42:49.001Z</time></trkpt><trkpt lat="40.28418859886064" lon="8.512535010065543"><ele>115.0</ele><time>2026-05-02T14:42:50.001Z</time></trkpt><trkpt lat="40.284063545027045" lon="8.512716211609474"><ele>115.0</ele><time>2026-05-02T14:42:51.001Z</time></trkpt><trkpt lat="40.28393028944303" lon="8.512859389568309"><ele>115.0</ele><time>2026-05-02T14:42:52.001Z</time></trkpt><trkpt lat="40.28378852398847" lon="8.512904335447503"><ele>118.0</ele><time>2026-05-02T14:42:53.001Z</time></trkpt><trkpt lat="40.28363692491173" lon="8.51288967384256"><ele>121.0</ele><time>2026-05-02T14:42:54.001Z</time></trkpt><trkpt lat="40.28346495016403" lon="8.512888482512405"><ele>124.0</ele><time>2026-05-02T14:42:55.001Z</time></trkpt><trkpt lat="40.283271227313" lon="8.512892737021815"><ele>123.66666666666667</ele><time>2026-05-02T14:42:56.001Z</time></trkpt><trkpt lat="40.28308127099026" lon="8.512939905898964"><ele>123.33333333333334</ele><time>2026-05-02T14:42:57.001Z</time></trkpt><trkpt lat="40.282906233452316" lon="8.513000987336024"><ele>123.0</ele><time>2026-05-02T14:42:58.001Z</time></trkpt><trkpt lat="40.282740032561875" lon="8.51304698209677"><ele>123.0</ele><time>2026-05-02T14:42:59.001Z</time></trkpt><trkpt lat="40.28258105859061" lon="8.51310915320183"><ele>123.0</ele><time>2026-05-02T14:43:00.001Z</time></trkpt><trkpt lat="40.28242977025938" lon="8.513176376690643"><ele>123.0</ele><time>2026-05-02T14:43:01.001Z</time></trkpt><trkpt lat="40.282372764018284" lon="8.51365802935378"><ele>123.0</ele><time>2026-05-02T14:43:02.001Z</time></trkpt><trkpt lat="40.28224117274167" lon="8.513849355881787"><ele>123.0</ele><time>2026-05-02T14:43:03.001Z</time></trkpt><trkpt lat="40.28210932852405" lon="8.51403292682807"><ele>123.0</ele><time>2026-05-02T14:43:04.001Z</time></trkpt><trkpt lat="40.2819776897587" lon="8.514197381981285"><ele>123.0</ele><time>2026-05-02T14:43:05.001Z</time></trkpt><trkpt lat="40.28182624746415" lon="8.51434590520423"><ele>123.0</ele><time>2026-05-02T14:43:06.001Z</time></trkpt><trkpt lat="40.28167384031032" lon="8.514462677568838"><ele>123.0</ele><time>2026-05-02T14:43:07.001Z</time></trkpt><trkpt lat="40.281519508370536" lon="8.514545563963207"><ele>133.33333333333334</ele><time>2026-05-02T14:43:08.001Z</time></trkpt><trkpt lat="40.28135857233661" lon="8.51458860487743"><ele>143.66666666666669</ele><time>2026-05-02T14:43:09.001Z</time></trkpt><trkpt lat="40.281186633962754" lon="8.51461177603031"><ele>154.0</ele><time>2026-05-02T14:43:10.001Z</time></trkpt><trkpt lat="40.28100827912653" lon="8.514622478484606"><ele>154.0</ele><time>2026-05-02T14:43:11.001Z</time></trkpt><trkpt lat="40.28082724383185" lon="8.51460890374378"><ele>154.0</ele><time>2026-05-02T14:43:12.001Z</time></trkpt><trkpt lat="40.28064388233434" lon="8.51458876282727"><ele>154.0</ele><time>2026-05-02T14:43:13.001Z</time></trkpt><trkpt lat="40.28045886077184" lon="8.51459653055346"><ele>154.0</ele><time>2026-05-02T14:43:14.001Z</time></trkpt><trkpt lat="40.28026844281" lon="8.514626687740975"><ele>154.0</ele><time>2026-05-02T14:43:15.001Z</time></trkpt><trkpt lat="40.28007373127128" lon="8.51466791178549"><ele>154.0</ele><time>2026-05-02T14:43:16.001Z</time></trkpt><trkpt lat="40.27987687019357" lon="8.514709451331143"><ele>149.33333333333334</ele><time>2026-05-02T14:43:17.001Z</time></trkpt><trkpt lat="40.27969180022068" lon="8.514741562071395"><ele>144.66666666666666</ele><time>2026-05-02T14:43:18.001Z</time></trkpt><trkpt lat="40.27952478058759" lon="8.514750243922292"><ele>140.0</ele><time>2026-05-02T14:43:19.001Z</time></trkpt><trkpt lat="40.279389075066604" lon="8.514745703142125"><ele>140.0</ele><time>2026-05-02T14:43:20.001Z</time></trkpt><trkpt lat="40.27928225163211" lon="8.514774178797667"><ele>140.0</ele><time>2026-05-02T14:43:21.001Z</time></trkpt><trkpt lat="40.27921876932807" lon="8.514867956108429"><ele>140.0</ele><time>2026-05-02T14:43:22.001Z</time></trkpt><trkpt lat="40.27919671627511" lon="8.514991709898311"><ele>140.0</ele><time>2026-05-02T14:43:23.001Z</time></trkpt><trkpt lat="40.279189186996575" lon="8.515125629524304"><ele>140.0</ele><time>2026-05-02T14:43:24.001Z</time></trkpt><trkpt lat="40.27920960775269" lon="8.515274954732993"><ele>142.0</ele><time>2026-05-02T14:43:25.001Z</time></trkpt><trkpt lat="40.27925428370369" lon="8.515484967127588"><ele>144.0</ele><time>2026-05-02T14:43:26.001Z</time></trkpt><trkpt lat="40.27932097353811" lon="8.515759540606"><ele>146.0</ele><time>2026-05-02T14:43:27.001Z</time></trkpt><trkpt lat="40.2793643116409" lon="8.516061433520964"><ele>147.33333333333331</ele><time>2026-05-02T14:43:27.999Z</time></trkpt><trkpt lat="40.27938113974457" lon="8.516367179546162"><ele>148.66666666666666</ele><time>2026-05-02T14:43:28.999Z</time></trkpt><trkpt lat="40.27937902280762" lon="8.516642625478484"><ele>150.0</ele><time>2026-05-02T14:43:29.999Z</time></trkpt><trkpt lat="40.2793568867942" lon="8.516883784920125"><ele>154.66666666666666</ele><time>2026-05-02T14:43:30.999Z</time></trkpt><trkpt lat="40.2793047130538" lon="8.517087854639325"><ele>159.33333333333331</ele><time>2026-05-02T14:43:31.999Z</time></trkpt><trkpt lat="40.279217925425726" lon="8.517260027527824"><ele>164.0</ele><time>2026-05-02T14:43:32.999Z</time></trkpt><trkpt lat="40.27908699189057" lon="8.517386354141848"><ele>164.0</ele><time>2026-05-02T14:43:33.999Z</time></trkpt><trkpt lat="40.278967296405945" lon="8.517544525745004"><ele>164.0</ele><time>2026-05-02T14:43:34.999Z</time></trkpt><trkpt lat="40.27890086143357" lon="8.517735704688663"><ele>164.0</ele><time>2026-05-02T14:43:36Z</time></trkpt><trkpt lat="40.278871634093825" lon="8.517923842961238"><ele>167.66666666666666</ele><time>2026-05-02T14:43:37Z</time></trkpt><trkpt lat="40.27890198108235" lon="8.51815337661204"><ele>171.33333333333334</ele><time>2026-05-02T14:43:38Z</time></trkpt><trkpt lat="40.27895332901026" lon="8.518422675544672"><ele>175.0</ele><time>2026-05-02T14:43:39Z</time></trkpt><trkpt lat="40.279001133650965" lon="8.518683574253746"><ele>172.66666666666669</ele><time>2026-05-02T14:43:40Z</time></trkpt><trkpt lat="40.27904832722131" lon="8.518945328299825"><ele>170.33333333333334</ele><time>2026-05-02T14:43:41Z</time></trkpt><trkpt lat="40.27912045869899" lon="8.519170400622091"><ele>168.0</ele><time>2026-05-02T14:43:42Z</time></trkpt><trkpt lat="40.27920048959229" lon="8.519368358697031"><ele>168.0</ele><time>2026-05-02T14:43:43Z</time></trkpt><trkpt lat="40.2792798008642" lon="8.519523407338058"><ele>168.0</ele><time>2026-05-02T14:43:44Z</time></trkpt><trkpt lat="40.27933418857817" lon="8.519638047775226"><ele>168.0</ele><time>2026-05-02T14:43:45Z</time></trkpt><trkpt lat="40.27936961483914" lon="8.519720472850647"><ele>168.0</ele><time>2026-05-02T14:43:46Z</time></trkpt><trkpt lat="40.279422758227604" lon="8.519800607852742"><ele>168.0</ele><time>2026-05-02T14:43:48Z</time></trkpt><trkpt lat="40.27946409666429" lon="8.51987839426807"><ele>166.20000000000002</ele><time>2026-05-02T14:43:51Z</time></trkpt><trkpt lat="40.27952873214774" lon="8.520010082081436"><ele>164.4</ele><time>2026-05-02T14:45:50Z</time></trkpt><trkpt lat="40.27955781056595" lon="8.520088653645622"><ele>162.60000000000002</ele><time>2026-05-02T14:45:51Z</time></trkpt><trkpt lat="40.279580661520576" lon="8.52022639806463"><ele>160.8</ele><time>2026-05-02T14:45:52Z</time></trkpt><trkpt lat="40.27956915851391" lon="8.52039413329432"><ele>159.0</ele><time>2026-05-02T14:45:53Z</time></trkpt><trkpt lat="40.279565388496536" lon="8.520616104722151"><ele>159.0</ele><time>2026-05-02T14:45:54Z</time></trkpt><trkpt lat="40.279550868045554" lon="8.520797908346193"><ele>159.0</ele><time>2026-05-02T14:45:55Z</time></trkpt><trkpt lat="40.27951917014108" lon="8.52096640130668"><ele>159.0</ele><time>2026-05-02T14:45:56Z</time></trkpt><trkpt lat="40.27944945423597" lon="8.521124987541162"><ele>159.0</ele><time>2026-05-02T14:45:57Z</time></trkpt><trkpt lat="40.27942899491038" lon="8.521203775576685"><ele>160.75</ele><time>2026-05-02T14:45:58Z</time></trkpt><trkpt lat="40.27941781159976" lon="8.521328514495373"><ele>162.5</ele><time>2026-05-02T14:45:59Z</time></trkpt><trkpt lat="40.27940717690784" lon="8.521497216305695"><ele>164.25</ele><time>2026-05-02T14:46:00Z</time></trkpt><trkpt lat="40.27939219960351" lon="8.521685107787656"><ele>166.0</ele><time>2026-05-02T14:46:01Z</time></trkpt><trkpt lat="40.2794129726884" lon="8.521881255013843"><ele>165.0</ele><time>2026-05-02T14:46:02Z</time></trkpt><trkpt lat="40.27946805739799" lon="8.522079946312115"><ele>164.0</ele><time>2026-05-02T14:46:03Z</time></trkpt><trkpt lat="40.279544051762706" lon="8.522279941246847"><ele>163.0</ele><time>2026-05-02T14:46:04Z</time></trkpt><trkpt lat="40.27960872534995" lon="8.522458757240196"><ele>163.0</ele><time>2026-05-02T14:46:05Z</time></trkpt><trkpt lat="40.279681333351235" lon="8.522661800173136"><ele>163.0</ele><time>2026-05-02T14:46:06Z</time></trkpt><trkpt lat="40.27976690480376" lon="8.52286242024954"><ele>163.0</ele><time>2026-05-02T14:46:07Z</time></trkpt><trkpt lat="40.27983959925068" lon="8.52307807685535"><ele>173.66666666666669</ele><time>2026-05-02T14:46:08Z</time></trkpt><trkpt lat="40.27993207720952" lon="8.523318100275466"><ele>184.33333333333334</ele><time>2026-05-02T14:46:09Z</time></trkpt><trkpt lat="40.280053837318" lon="8.523537013665816"><ele>195.0</ele><time>2026-05-02T14:46:10Z</time></trkpt><trkpt lat="40.28020681552894" lon="8.523717041432654"><ele>191.33333333333334</ele><time>2026-05-02T14:46:11Z</time></trkpt><trkpt lat="40.28033708279307" lon="8.523935666278264"><ele>187.66666666666669</ele><time>2026-05-02T14:46:12Z</time></trkpt><trkpt lat="40.28042897842429" lon="8.524190935294504"><ele>184.0</ele><time>2026-05-02T14:46:13Z</time></trkpt><trkpt lat="40.28053034518023" lon="8.52442970312766"><ele>192.0</ele><time>2026-05-02T14:46:14Z</time></trkpt><trkpt lat="40.28062248298641" lon="8.52464673231129"><ele>200.0</ele><time>2026-05-02T14:46:15Z</time></trkpt><trkpt lat="40.28072097935191" lon="8.524865719465252"><ele>208.0</ele><time>2026-05-02T14:46:16Z</time></trkpt><trkpt lat="40.280876050741206" lon="8.525050946244672"><ele>208.0</ele><time>2026-05-02T14:46:17Z</time></trkpt><trkpt lat="40.28094673542555" lon="8.525279673120703"><ele>208.0</ele><time>2026-05-02T14:46:18Z</time></trkpt><trkpt lat="40.281041217090355" lon="8.52546110304204"><ele>208.0</ele><time>2026-05-02T14:46:19Z</time></trkpt><trkpt lat="40.281140669158184" lon="8.525628450803099"><ele>205.0</ele><time>2026-05-02T14:46:20Z</time></trkpt><trkpt lat="40.2812060781558" lon="8.52580517662676"><ele>202.0</ele><time>2026-05-02T14:46:21Z</time></trkpt><trkpt lat="40.281222822998366" lon="8.52599643859717"><ele>199.0</ele><time>2026-05-02T14:46:22Z</time></trkpt><trkpt lat="40.281216518590654" lon="8.52621053954171"><ele>200.0</ele><time>2026-05-02T14:46:23Z</time></trkpt><trkpt lat="40.281211152286645" lon="8.526432007049388"><ele>201.0</ele><time>2026-05-02T14:46:24.001Z</time></trkpt><trkpt lat="40.28121134558163" lon="8.526641764054228"><ele>202.0</ele><time>2026-05-02T14:46:25.001Z</time></trkpt><trkpt lat="40.28121118483929" lon="8.526848456771377"><ele>202.0</ele><time>2026-05-02T14:46:26.001Z</time></trkpt><trkpt lat="40.281215501301695" lon="8.527050101102667"><ele>202.0</ele><time>2026-05-02T14:46:27.001Z</time></trkpt><trkpt lat="40.28124034475592" lon="8.527262819978871"><ele>202.0</ele><time>2026-05-02T14:46:28.001Z</time></trkpt><trkpt lat="40.28129831592026" lon="8.52747443476664"><ele>203.66666666666666</ele><time>2026-05-02T14:46:29.001Z</time></trkpt><trkpt lat="40.281391996780314" lon="8.527673571763966"><ele>205.33333333333331</ele><time>2026-05-02T14:46:30.001Z</time></trkpt><trkpt lat="40.28150258125193" lon="8.527857530555032"><ele>207.0</ele><time>2026-05-02T14:46:31.001Z</time></trkpt><trkpt lat="40.281636703138304" lon="8.528015743906453"><ele>210.66666666666669</ele><time>2026-05-02T14:46:32.001Z</time></trkpt><trkpt lat="40.28178953239808" lon="8.528162336483943"><ele>214.33333333333334</ele><time>2026-05-02T14:46:33.001Z</time></trkpt><trkpt lat="40.28196392448407" lon="8.528293965031295"><ele>218.0</ele><time>2026-05-02T14:46:34.001Z</time></trkpt><trkpt lat="40.28215309264856" lon="8.528399104321922"><ele>224.0</ele><time>2026-05-02T14:46:35.001Z</time></trkpt><trkpt lat="40.28234542138412" lon="8.528493484795316"><ele>230.0</ele><time>2026-05-02T14:46:36.001Z</time></trkpt><trkpt lat="40.28252730624248" lon="8.528586049556097"><ele>236.0</ele><time>2026-05-02T14:46:37.001Z</time></trkpt><trkpt lat="40.282694731052224" lon="8.528692442180802"><ele>232.0</ele><time>2026-05-02T14:46:38.001Z</time></trkpt><trkpt lat="40.28284403334597" lon="8.52881455235369"><ele>228.0</ele><time>2026-05-02T14:46:39.001Z</time></trkpt><trkpt lat="40.282954754004315" lon="8.528967246002868"><ele>224.0</ele><time>2026-05-02T14:46:40.001Z</time></trkpt><trkpt lat="40.283001995982644" lon="8.529156620423784"><ele>224.0</ele><time>2026-05-02T14:46:41.001Z</time></trkpt><trkpt lat="40.283001091707746" lon="8.529372367211213"><ele>224.0</ele><time>2026-05-02T14:46:42.001Z</time></trkpt><trkpt lat="40.282973286438605" lon="8.529637399413257"><ele>224.0</ele><time>2026-05-02T14:46:43.001Z</time></trkpt><trkpt lat="40.28294205001591" lon="8.52988093481852"><ele>226.0</ele><time>2026-05-02T14:46:44.001Z</time></trkpt><trkpt lat="40.282934415437964" lon="8.530102476820572"><ele>228.0</ele><time>2026-05-02T14:46:45.001Z</time></trkpt><trkpt lat="40.28296323211027" lon="8.530321530464988"><ele>230.0</ele><time>2026-05-02T14:46:46.001Z</time></trkpt><trkpt lat="40.28304596256802" lon="8.530544924893993"><ele>241.0</ele><time>2026-05-02T14:46:47.001Z</time></trkpt><trkpt lat="40.28315701102855" lon="8.53080720473815"><ele>252.0</ele><time>2026-05-02T14:46:48.001Z</time></trkpt><trkpt lat="40.28328651333695" lon="8.531058191194724"><ele>250.0</ele><time>2026-05-02T14:46:49.001Z</time></trkpt><trkpt lat="40.28342616432956" lon="8.531285558403349"><ele>248.0</ele><time>2026-05-02T14:46:50.001Z</time></trkpt><trkpt lat="40.28357314949793" lon="8.53149078263597"><ele>246.0</ele><time>2026-05-02T14:46:51.001Z</time></trkpt><trkpt lat="40.28372033707549" lon="8.53164632428111"><ele>246.0</ele><time>2026-05-02T14:46:52.001Z</time></trkpt><trkpt lat="40.28391005424469" lon="8.531769421194543"><ele>246.0</ele><time>2026-05-02T14:46:53.001Z</time></trkpt><trkpt lat="40.28410692473804" lon="8.531853677054066"><ele>246.0</ele><time>2026-05-02T14:46:54.001Z</time></trkpt><trkpt lat="40.284320922704424" lon="8.53191993156733"><ele>250.0</ele><time>2026-05-02T14:46:55.001Z</time></trkpt><trkpt lat="40.28454711451637" lon="8.53194668365471"><ele>254.0</ele><time>2026-05-02T14:46:56.001Z</time></trkpt><trkpt lat="40.28476449763806" lon="8.53195415748738"><ele>258.0</ele><time>2026-05-02T14:46:57.001Z</time></trkpt><trkpt lat="40.284976549644206" lon="8.531958493024293"><ele>257.3333333333333</ele><time>2026-05-02T14:46:58.001Z</time></trkpt><trkpt lat="40.285159754257165" lon="8.532004954466824"><ele>256.66666666666663</ele><time>2026-05-02T14:46:59.001Z</time></trkpt><trkpt lat="40.28530653934535" lon="8.532131204954938"><ele>256.0</ele><time>2026-05-02T14:47:00.001Z</time></trkpt><trkpt lat="40.28543915868578" lon="8.532308846243353"><ele>256.0</ele><time>2026-05-02T14:47:01.001Z</time></trkpt><trkpt lat="40.285564258923465" lon="8.532512026477256"><ele>256.0</ele><time>2026-05-02T14:47:02.001Z</time></trkpt><trkpt lat="40.28567802446245" lon="8.532737470658352"><ele>256.0</ele><time>2026-05-02T14:47:03.001Z</time></trkpt><trkpt lat="40.28576234322127" lon="8.532984570976932"><ele>260.3333333333333</ele><time>2026-05-02T14:47:04.001Z</time></trkpt><trkpt lat="40.285791712272726" lon="8.53325238402689"><ele>264.6666666666667</ele><time>2026-05-02T14:47:05.001Z</time></trkpt><trkpt lat="40.285795220196654" lon="8.53353735723664"><ele>269.0</ele><time>2026-05-02T14:47:06.001Z</time></trkpt><trkpt lat="40.28578670947529" lon="8.53379943147038"><ele>269.33333333333337</ele><time>2026-05-02T14:47:07.001Z</time></trkpt><trkpt lat="40.28581499404579" lon="8.53404797675176"><ele>269.6666666666667</ele><time>2026-05-02T14:47:08.001Z</time></trkpt><trkpt lat="40.285880056757634" lon="8.534307133872938"><ele>270.0</ele><time>2026-05-02T14:47:09.001Z</time></trkpt><trkpt lat="40.28596188962038" lon="8.534576582530368"><ele>270.0</ele><time>2026-05-02T14:47:10.001Z</time></trkpt><trkpt lat="40.28604121559948" lon="8.534843240669971"><ele>270.0</ele><time>2026-05-02T14:47:11.001Z</time></trkpt><trkpt lat="40.28611193006508" lon="8.535093232568425"><ele>270.0</ele><time>2026-05-02T14:47:12.001Z</time></trkpt><trkpt lat="40.286190754755495" lon="8.535332012881623"><ele>268.0</ele><time>2026-05-02T14:47:13.001Z</time></trkpt><trkpt lat="40.28630175324131" lon="8.53555927882939"><ele>266.0</ele><time>2026-05-02T14:47:14.001Z</time></trkpt><trkpt lat="40.28643130302505" lon="8.535772351240775"><ele>264.0</ele><time>2026-05-02T14:47:15.001Z</time></trkpt><trkpt lat="40.2865685118446" lon="8.535995194343704"><ele>270.0</ele><time>2026-05-02T14:47:16.001Z</time></trkpt><trkpt lat="40.286707235061066" lon="8.536218331381816"><ele>276.0</ele><time>2026-05-02T14:47:17.001Z</time></trkpt><trkpt lat="40.286861839102095" lon="8.536442178154758"><ele>276.0</ele><time>2026-05-02T14:47:18.001Z</time></trkpt><trkpt lat="40.28704093550561" lon="8.536643411827896"><ele>276.0</ele><time>2026-05-02T14:47:19.001Z</time></trkpt><trkpt lat="40.28723487386035" lon="8.536819757390173"><ele>281.5</ele><time>2026-05-02T14:47:20.002Z</time></trkpt><trkpt lat="40.28741827655236" lon="8.537008742919467"><ele>287.0</ele><time>2026-05-02T14:47:21.002Z</time></trkpt><trkpt lat="40.287582775899004" lon="8.537223598812123"><ele>287.0</ele><time>2026-05-02T14:47:22.002Z</time></trkpt><trkpt lat="40.28772543152592" lon="8.537442662175918"><ele>287.0</ele><time>2026-05-02T14:47:23.002Z</time></trkpt><trkpt lat="40.28784387462639" lon="8.537667275011561"><ele>287.0</ele><time>2026-05-02T14:47:24.002Z</time></trkpt><trkpt lat="40.287957052842636" lon="8.537921491695972"><ele>287.0</ele><time>2026-05-02T14:47:25.002Z</time></trkpt><trkpt lat="40.288034910458954" lon="8.538186740543548"><ele>287.0</ele><time>2026-05-02T14:47:26.002Z</time></trkpt><trkpt lat="40.28807136101622" lon="8.538448801751638"><ele>287.0</ele><time>2026-05-02T14:47:27.002Z</time></trkpt><trkpt lat="40.28806513588032" lon="8.538722433262254"><ele>289.6666666666667</ele><time>2026-05-02T14:47:28.002Z</time></trkpt><trkpt lat="40.28802242974791" lon="8.539010112379133"><ele>292.3333333333333</ele><time>2026-05-02T14:47:29.002Z</time></trkpt><trkpt lat="40.287964963535806" lon="8.53929567798174"><ele>295.0</ele><time>2026-05-02T14:47:30.002Z</time></trkpt><trkpt lat="40.28787754890725" lon="8.539555622998469"><ele>298.0</ele><time>2026-05-02T14:47:31.002Z</time></trkpt><trkpt lat="40.287771616126214" lon="8.539783925388644"><ele>301.0</ele><time>2026-05-02T14:47:32.002Z</time></trkpt><trkpt lat="40.28768278737227" lon="8.54000488216994"><ele>304.0</ele><time>2026-05-02T14:47:33.002Z</time></trkpt><trkpt lat="40.28766180936893" lon="8.540242940651941"><ele>305.66666666666663</ele><time>2026-05-02T14:47:34.002Z</time></trkpt><trkpt lat="40.28770326676071" lon="8.540505318562477"><ele>307.3333333333333</ele><time>2026-05-02T14:47:35.002Z</time></trkpt><trkpt lat="40.28773631254884" lon="8.540788752500253"><ele>309.0</ele><time>2026-05-02T14:47:36.002Z</time></trkpt><trkpt lat="40.28771361697882" lon="8.54106272213268"><ele>311.6666666666667</ele><time>2026-05-02T14:47:37.002Z</time></trkpt><trkpt lat="40.2876413569691" lon="8.541284193099402"><ele>314.33333333333337</ele><time>2026-05-02T14:47:38.002Z</time></trkpt><trkpt lat="40.287514588701626" lon="8.541434563949041"><ele>317.0</ele><time>2026-05-02T14:47:39.002Z</time></trkpt><trkpt lat="40.28735542602924" lon="8.541576190955256"><ele>318.33333333333337</ele><time>2026-05-02T14:47:40.001Z</time></trkpt><trkpt lat="40.287179877598945" lon="8.541651428986773"><ele>319.6666666666667</ele><time>2026-05-02T14:47:41.001Z</time></trkpt><trkpt lat="40.286988798322945" lon="8.541666659295263"><ele>321.0</ele><time>2026-05-02T14:47:42.001Z</time></trkpt><trkpt lat="40.28676029783527" lon="8.541679775046827"><ele>321.0</ele><time>2026-05-02T14:47:43.001Z</time></trkpt><trkpt lat="40.286541267195226" lon="8.541708054550739"><ele>321.0</ele><time>2026-05-02T14:47:44.001Z</time></trkpt><trkpt lat="40.28634329336531" lon="8.541705818292396"><ele>321.0</ele><time>2026-05-02T14:47:45.001Z</time></trkpt><trkpt lat="40.2861672829257" lon="8.541717520302457"><ele>322.3333333333333</ele><time>2026-05-02T14:47:46.001Z</time></trkpt><trkpt lat="40.28599459148971" lon="8.541732473514822"><ele>323.66666666666663</ele><time>2026-05-02T14:47:47.001Z</time></trkpt><trkpt lat="40.28581969787249" lon="8.541806491018942"><ele>325.0</ele><time>2026-05-02T14:47:48.001Z</time></trkpt><trkpt lat="40.285651668485194" lon="8.541904252620585"><ele>325.0</ele><time>2026-05-02T14:47:49.001Z</time></trkpt><trkpt lat="40.28549315256033" lon="8.54204899088591"><ele>325.0</ele><time>2026-05-02T14:47:50.001Z</time></trkpt><trkpt lat="40.28535449609533" lon="8.542249327882068"><ele>325.0</ele><time>2026-05-02T14:47:51.001Z</time></trkpt><trkpt lat="40.28523585628371" lon="8.542487198247011"><ele>325.0</ele><time>2026-05-02T14:47:52.001Z</time></trkpt><trkpt lat="40.285116999990485" lon="8.542697426306608"><ele>325.0</ele><time>2026-05-02T14:47:53.001Z</time></trkpt><trkpt lat="40.28500586018936" lon="8.542904247174352"><ele>325.0</ele><time>2026-05-02T14:47:54.001Z</time></trkpt><trkpt lat="40.28489248110736" lon="8.543114666442273"><ele>326.0</ele><time>2026-05-02T14:47:55.001Z</time></trkpt><trkpt lat="40.28477961680204" lon="8.5433233507494"><ele>327.0</ele><time>2026-05-02T14:47:56.001Z</time></trkpt><trkpt lat="40.28466794200629" lon="8.543531932470072"><ele>328.0</ele><time>2026-05-02T14:47:57.001Z</time></trkpt><trkpt lat="40.28455906173129" lon="8.543735783612117"><ele>329.0</ele><time>2026-05-02T14:47:58.001Z</time></trkpt><trkpt lat="40.28444604886699" lon="8.54394524746912"><ele>330.0</ele><time>2026-05-02T14:47:59.001Z</time></trkpt><trkpt lat="40.284329987353665" lon="8.544146740661198"><ele>331.0</ele><time>2026-05-02T14:48:00.001Z</time></trkpt><trkpt lat="40.284198960504426" lon="8.544326008784003"><ele>331.0</ele><time>2026-05-02T14:48:01.001Z</time></trkpt><trkpt lat="40.284076764444976" lon="8.54449055324699"><ele>331.0</ele><time>2026-05-02T14:48:02.001Z</time></trkpt><trkpt lat="40.28394483502393" lon="8.54462891367418"><ele>331.0</ele><time>2026-05-02T14:48:03.001Z</time></trkpt><trkpt lat="40.283800804044546" lon="8.544761671491747"><ele>331.66666666666663</ele><time>2026-05-02T14:48:04.001Z</time></trkpt><trkpt lat="40.2836807484245" lon="8.544930791558098"><ele>332.3333333333333</ele><time>2026-05-02T14:48:05.001Z</time></trkpt><trkpt lat="40.28359595854131" lon="8.545130682208464"><ele>333.0</ele><time>2026-05-02T14:48:06.001Z</time></trkpt><trkpt lat="40.28355338498976" lon="8.545381429261575"><ele>334.0</ele><time>2026-05-02T14:48:07.001Z</time></trkpt><trkpt lat="40.283553848167" lon="8.545638862720274"><ele>335.0</ele><time>2026-05-02T14:48:08.001Z</time></trkpt><trkpt lat="40.28357506238086" lon="8.545883286218558"><ele>336.0</ele><time>2026-05-02T14:48:09.001Z</time></trkpt><trkpt lat="40.28359375774746" lon="8.546118238522164"><ele>336.6666666666667</ele><time>2026-05-02T14:48:10.001Z</time></trkpt><trkpt lat="40.28360609115656" lon="8.54636827179844"><ele>337.33333333333337</ele><time>2026-05-02T14:48:11.001Z</time></trkpt><trkpt lat="40.283612704529695" lon="8.546632463781977"><ele>338.0</ele><time>2026-05-02T14:48:12.001Z</time></trkpt><trkpt lat="40.283619893731725" lon="8.546898447682597"><ele>338.33333333333337</ele><time>2026-05-02T14:48:13.001Z</time></trkpt><trkpt lat="40.28362495115464" lon="8.547171010008103"><ele>338.6666666666667</ele><time>2026-05-02T14:48:14.001Z</time></trkpt><trkpt lat="40.28363356406869" lon="8.547450197333049"><ele>339.0</ele><time>2026-05-02T14:48:15.001Z</time></trkpt><trkpt lat="40.283634517771965" lon="8.547727859942155"><ele>339.6666666666667</ele><time>2026-05-02T14:48:16.001Z</time></trkpt><trkpt lat="40.28363937635273" lon="8.548007100350103"><ele>340.33333333333337</ele><time>2026-05-02T14:48:17.001Z</time></trkpt><trkpt lat="40.2836492346062" lon="8.548287277532113"><ele>341.0</ele><time>2026-05-02T14:48:18.001Z</time></trkpt><trkpt lat="40.283659035923115" lon="8.548555296054465"><ele>341.6666666666667</ele><time>2026-05-02T14:48:19.001Z</time></trkpt><trkpt lat="40.283667435872985" lon="8.548819345039961"><ele>342.3333333333333</ele><time>2026-05-02T14:48:20.001Z</time></trkpt><trkpt lat="40.28367604725966" lon="8.549097460701372"><ele>343.0</ele><time>2026-05-02T14:48:21.001Z</time></trkpt><trkpt lat="40.28367490541436" lon="8.549365494673987"><ele>343.3333333333333</ele><time>2026-05-02T14:48:22.001Z</time></trkpt><trkpt lat="40.283674493882295" lon="8.549655383705106"><ele>343.6666666666667</ele><time>2026-05-02T14:48:23.001Z</time></trkpt><trkpt lat="40.28368162801686" lon="8.54994883098492"><ele>344.0</ele><time>2026-05-02T14:48:24.001Z</time></trkpt><trkpt lat="40.28368755086965" lon="8.550244187369511"><ele>344.6666666666667</ele><time>2026-05-02T14:48:25.001Z</time></trkpt><trkpt lat="40.283697301159215" lon="8.550537230166636"><ele>345.3333333333333</ele><time>2026-05-02T14:48:26.001Z</time></trkpt><trkpt lat="40.28370253141623" lon="8.550825205151114"><ele>346.0</ele><time>2026-05-02T14:48:27.001Z</time></trkpt><trkpt lat="40.28370129364448" lon="8.551109958848262"><ele>346.3333333333333</ele><time>2026-05-02T14:48:28.001Z</time></trkpt><trkpt lat="40.28368436625681" lon="8.551405117672674"><ele>346.6666666666667</ele><time>2026-05-02T14:48:29.001Z</time></trkpt><trkpt lat="40.28364864108947" lon="8.551692753040603"><ele>347.0</ele><time>2026-05-02T14:48:30.001Z</time></trkpt><trkpt lat="40.28359252690365" lon="8.551989664392307"><ele>347.0</ele><time>2026-05-02T14:48:31.001Z</time></trkpt><trkpt lat="40.283518800073296" lon="8.552283976990157"><ele>347.0</ele><time>2026-05-02T14:48:32.001Z</time></trkpt><trkpt lat="40.28342912390126" lon="8.552572569421233"><ele>347.0</ele><time>2026-05-02T14:48:33.001Z</time></trkpt><trkpt lat="40.28333861162163" lon="8.552860105979335"><ele>347.0</ele><time>2026-05-02T14:48:34.001Z</time></trkpt><trkpt lat="40.28325004258729" lon="8.553156479493753"><ele>346.5</ele><time>2026-05-02T14:48:35.001Z</time></trkpt><trkpt lat="40.283163402618136" lon="8.553458899912819"><ele>346.0</ele><time>2026-05-02T14:48:36.001Z</time></trkpt><trkpt lat="40.28307349538313" lon="8.553766031632845"><ele>347.0</ele><time>2026-05-02T14:48:37.001Z</time></trkpt><trkpt lat="40.282981470609364" lon="8.554066589992294"><ele>348.0</ele><time>2026-05-02T14:48:38.001Z</time></trkpt><trkpt lat="40.282893531125104" lon="8.554364275524488"><ele>348.5</ele><time>2026-05-02T14:48:39.001Z</time></trkpt><trkpt lat="40.28280847516833" lon="8.554669538395586"><ele>349.0</ele><time>2026-05-02T14:48:40.001Z</time></trkpt><trkpt lat="40.28272431699592" lon="8.554945471541858"><ele>349.0</ele><time>2026-05-02T14:48:41.001Z</time></trkpt><trkpt lat="40.282644023179465" lon="8.55522410114127"><ele>349.0</ele><time>2026-05-02T14:48:42.001Z</time></trkpt><trkpt lat="40.28256351486976" lon="8.555512147905453"><ele>349.0</ele><time>2026-05-02T14:48:43.001Z</time></trkpt><trkpt lat="40.282481285010036" lon="8.555777107209254"><ele>349.0</ele><time>2026-05-02T14:48:44.001Z</time></trkpt><trkpt lat="40.282398645544525" lon="8.55605484404727"><ele>349.0</ele><time>2026-05-02T14:48:45.001Z</time></trkpt><trkpt lat="40.28231943378172" lon="8.556327163276528"><ele>349.0</ele><time>2026-05-02T14:48:46.001Z</time></trkpt><trkpt lat="40.282246396364826" lon="8.556606627994114"><ele>349.0</ele><time>2026-05-02T14:48:47.001Z</time></trkpt><trkpt lat="40.2822086897272" lon="8.55688230297423"><ele>349.0</ele><time>2026-05-02T14:48:48.001Z</time></trkpt><trkpt lat="40.282218853390496" lon="8.557163728058697"><ele>349.5</ele><time>2026-05-02T14:48:49.001Z</time></trkpt><trkpt lat="40.28226691060577" lon="8.557455153750041"><ele>350.0</ele><time>2026-05-02T14:48:50.001Z</time></trkpt><trkpt lat="40.28233963589313" lon="8.557761442039974"><ele>351.0</ele><time>2026-05-02T14:48:51.001Z</time></trkpt><trkpt lat="40.282398706501965" lon="8.558066459199928"><ele>352.0</ele><time>2026-05-02T14:48:52.001Z</time></trkpt><trkpt lat="40.282449659710984" lon="8.558372410393867"><ele>352.0</ele><time>2026-05-02T14:48:53.001Z</time></trkpt><trkpt lat="40.282501535795305" lon="8.558661886021882"><ele>352.0</ele><time>2026-05-02T14:48:54.001Z</time></trkpt><trkpt lat="40.28254814762844" lon="8.558941741097142"><ele>352.0</ele><time>2026-05-02T14:48:55.001Z</time></trkpt><trkpt lat="40.282593779445854" lon="8.559221094235404"><ele>352.0</ele><time>2026-05-02T14:48:56.001Z</time></trkpt><trkpt lat="40.28263024335285" lon="8.559508125214643"><ele>352.0</ele><time>2026-05-02T14:48:57.001Z</time></trkpt><trkpt lat="40.28267767845728" lon="8.559801761382449"><ele>351.5</ele><time>2026-05-02T14:48:58.001Z</time></trkpt><trkpt lat="40.2827210394794" lon="8.560107535493852"><ele>351.0</ele><time>2026-05-02T14:48:59.001Z</time></trkpt><trkpt lat="40.28277088762495" lon="8.560409542779881"><ele>350.5</ele><time>2026-05-02T14:49:00.001Z</time></trkpt><trkpt lat="40.28282240255555" lon="8.560718609449754"><ele>350.0</ele><time>2026-05-02T14:49:01.001Z</time></trkpt><trkpt lat="40.282874680906616" lon="8.561025483552504"><ele>350.5</ele><time>2026-05-02T14:49:02.001Z</time></trkpt><trkpt lat="40.28292614119408" lon="8.561342206124896"><ele>351.0</ele><time>2026-05-02T14:49:03.001Z</time></trkpt><trkpt lat="40.282976887035716" lon="8.561658621060216"><ele>351.0</ele><time>2026-05-02T14:49:04.001Z</time></trkpt><trkpt lat="40.283030517765816" lon="8.561987140225666"><ele>351.0</ele><time>2026-05-02T14:49:05.001Z</time></trkpt><trkpt lat="40.283078009614" lon="8.562319237144196"><ele>350.5</ele><time>2026-05-02T14:49:06.001Z</time></trkpt><trkpt lat="40.28312749676984" lon="8.562660576860251"><ele>350.0</ele><time>2026-05-02T14:49:07.001Z</time></trkpt><trkpt lat="40.283182777417004" lon="8.563009880503483"><ele>351.0</ele><time>2026-05-02T14:49:08.001Z</time></trkpt><trkpt lat="40.28324162909112" lon="8.563355739156401"><ele>352.0</ele><time>2026-05-02T14:49:09.001Z</time></trkpt><trkpt lat="40.28330151860986" lon="8.563714339959846"><ele>352.0</ele><time>2026-05-02T14:49:10.001Z</time></trkpt><trkpt lat="40.2833578813758" lon="8.564079603003767"><ele>352.0</ele><time>2026-05-02T14:49:11.001Z</time></trkpt><trkpt lat="40.28341188735387" lon="8.564447583732633"><ele>352.0</ele><time>2026-05-02T14:49:12.001Z</time></trkpt><trkpt lat="40.28347080345477" lon="8.564824922376458"><ele>352.0</ele><time>2026-05-02T14:49:13.002Z</time></trkpt><trkpt lat="40.2835330902081" lon="8.565199087541822"><ele>352.0</ele><time>2026-05-02T14:49:14.002Z</time></trkpt><trkpt lat="40.28359532978459" lon="8.565577008184256"><ele>352.0</ele><time>2026-05-02T14:49:15.002Z</time></trkpt><trkpt lat="40.283657049491374" lon="8.56596536237886"><ele>352.5</ele><time>2026-05-02T14:49:16.002Z</time></trkpt><trkpt lat="40.28372446353103" lon="8.566381079852574"><ele>353.0</ele><time>2026-05-02T14:49:17.002Z</time></trkpt><trkpt lat="40.28379549820131" lon="8.566827375117837"><ele>353.0</ele><time>2026-05-02T14:49:18.002Z</time></trkpt><trkpt lat="40.28387030197151" lon="8.567280778407325"><ele>353.0</ele><time>2026-05-02T14:49:19.002Z</time></trkpt><trkpt lat="40.283940291960846" lon="8.567721005531935"><ele>353.5</ele><time>2026-05-02T14:49:20.002Z</time></trkpt><trkpt lat="40.28401098353662" lon="8.568166194964117"><ele>354.0</ele><time>2026-05-02T14:49:21.002Z</time></trkpt><trkpt lat="40.284079751577984" lon="8.56860186440167"><ele>354.0</ele><time>2026-05-02T14:49:22.002Z</time></trkpt><trkpt lat="40.28414914457902" lon="8.569035948326635"><ele>354.0</ele><time>2026-05-02T14:49:23.002Z</time></trkpt><trkpt lat="40.284218043670634" lon="8.569461243839267"><ele>354.5</ele><time>2026-05-02T14:49:24.002Z</time></trkpt><trkpt lat="40.284282937325926" lon="8.569880564453593"><ele>355.0</ele><time>2026-05-02T14:49:25.002Z</time></trkpt><trkpt lat="40.284349585623225" lon="8.570297102964464"><ele>355.0</ele><time>2026-05-02T14:49:26.002Z</time></trkpt><trkpt lat="40.28441677021266" lon="8.57071303734425"><ele>355.0</ele><time>2026-05-02T14:49:27.002Z</time></trkpt><trkpt lat="40.284485930811236" lon="8.571130500865328"><ele>356.0</ele><time>2026-05-02T14:49:28.002Z</time></trkpt><trkpt lat="40.28455191091476" lon="8.571559101606669"><ele>357.0</ele><time>2026-05-02T14:49:29.002Z</time></trkpt><trkpt lat="40.2846168513736" lon="8.571985164269428"><ele>358.0</ele><time>2026-05-02T14:49:30.002Z</time></trkpt><trkpt lat="40.284684125154605" lon="8.57241711224112"><ele>359.0</ele><time>2026-05-02T14:49:31.002Z</time></trkpt><trkpt lat="40.28475003198484" lon="8.57284915142571"><ele>359.5</ele><time>2026-05-02T14:49:32.002Z</time></trkpt><trkpt lat="40.28481705157318" lon="8.573275563866144"><ele>360.0</ele><time>2026-05-02T14:49:33.002Z</time></trkpt><trkpt lat="40.28488761273299" lon="8.573707137729714"><ele>360.5</ele><time>2026-05-02T14:49:34.002Z</time></trkpt><trkpt lat="40.284952515307005" lon="8.57413439868922"><ele>361.0</ele><time>2026-05-02T14:49:35.002Z</time></trkpt><trkpt lat="40.28501933281518" lon="8.57456477432791"><ele>361.5</ele><time>2026-05-02T14:49:36.002Z</time></trkpt><trkpt lat="40.28508061521476" lon="8.574962176564258"><ele>362.0</ele><time>2026-05-02T14:49:37.002Z</time></trkpt><trkpt lat="40.285145209109196" lon="8.575333268776083"><ele>362.5</ele><time>2026-05-02T14:49:38.002Z</time></trkpt><trkpt lat="40.28520360730061" lon="8.57570193401866"><ele>363.0</ele><time>2026-05-02T14:49:39.002Z</time></trkpt><trkpt lat="40.2852715177957" lon="8.576073613584168"><ele>362.5</ele><time>2026-05-02T14:49:40.002Z</time></trkpt><trkpt lat="40.285322601448605" lon="8.576434023164476"><ele>362.0</ele><time>2026-05-02T14:49:41.002Z</time></trkpt><trkpt lat="40.28537414007304" lon="8.576790097160945"><ele>361.0</ele><time>2026-05-02T14:49:42.002Z</time></trkpt><trkpt lat="40.285428322825275" lon="8.577138210833487"><ele>360.0</ele><time>2026-05-02T14:49:43.002Z</time></trkpt><trkpt lat="40.285479503657626" lon="8.577478890477861"><ele>360.0</ele><time>2026-05-02T14:49:44.002Z</time></trkpt><trkpt lat="40.28553160775759" lon="8.577796524107688"><ele>360.0</ele><time>2026-05-02T14:49:45.002Z</time></trkpt><trkpt lat="40.285584414473135" lon="8.578107717243174"><ele>359.0</ele><time>2026-05-02T14:49:46.001Z</time></trkpt><trkpt lat="40.28563196415461" lon="8.578397207963"><ele>358.0</ele><time>2026-05-02T14:49:47.001Z</time></trkpt><trkpt lat="40.28567364104438" lon="8.578679384114732"><ele>357.0</ele><time>2026-05-02T14:49:48.001Z</time></trkpt><trkpt lat="40.28570584153362" lon="8.578927718156338"><ele>357.0</ele><time>2026-05-02T14:49:49.001Z</time></trkpt><trkpt lat="40.28574285913385" lon="8.579160707482272"><ele>357.0</ele><time>2026-05-02T14:49:50.001Z</time></trkpt><trkpt lat="40.28578314868774" lon="8.579385701220193"><ele>357.0</ele><time>2026-05-02T14:49:51.001Z</time></trkpt><trkpt lat="40.28582696249669" lon="8.579589114004875"><ele>357.3333333333333</ele><time>2026-05-02T14:49:52.001Z</time></trkpt><trkpt lat="40.28589401793491" lon="8.579774636407455"><ele>357.66666666666663</ele><time>2026-05-02T14:49:53.001Z</time></trkpt><trkpt lat="40.28599505760852" lon="8.579930773874857"><ele>358.0</ele><time>2026-05-02T14:49:54.001Z</time></trkpt><trkpt lat="40.28612118981763" lon="8.58006980015857"><ele>358.0</ele><time>2026-05-02T14:49:55.001Z</time></trkpt><trkpt lat="40.28623963327139" lon="8.580199156891261"><ele>358.0</ele><time>2026-05-02T14:49:56.001Z</time></trkpt><trkpt lat="40.28634803308602" lon="8.580328847663486"><ele>358.0</ele><time>2026-05-02T14:49:57.001Z</time></trkpt><trkpt lat="40.28645294548753" lon="8.580455814223953"><ele>358.0</ele><time>2026-05-02T14:49:58.001Z</time></trkpt><trkpt lat="40.28653731856772" lon="8.58058386429838"><ele>358.59999999999997</ele><time>2026-05-02T14:49:59.001Z</time></trkpt><trkpt lat="40.286620166360464" lon="8.580699921846296"><ele>359.2</ele><time>2026-05-02T14:50:00.001Z</time></trkpt><trkpt lat="40.28669992464079" lon="8.580788725935305"><ele>359.8</ele><time>2026-05-02T14:50:01.001Z</time></trkpt><trkpt lat="40.28677032197683" lon="8.58086990031476"><ele>360.4</ele><time>2026-05-02T14:50:02.001Z</time></trkpt><trkpt lat="40.28683304640729" lon="8.580954404675614"><ele>361.0</ele><time>2026-05-02T14:50:03.001Z</time></trkpt><trkpt lat="40.28690101108483" lon="8.581037653684003"><ele>361.0</ele><time>2026-05-02T14:50:04.001Z</time></trkpt><trkpt lat="40.286970075165584" lon="8.581136550497792"><ele>361.0</ele><time>2026-05-02T14:50:05.001Z</time></trkpt><trkpt lat="40.287031876931344" lon="8.58125016843523"><ele>361.0</ele><time>2026-05-02T14:50:06.001Z</time></trkpt><trkpt lat="40.287066256243314" lon="8.581405148986988"><ele>361.0</ele><time>2026-05-02T14:50:07.001Z</time></trkpt><trkpt lat="40.287066191885906" lon="8.581584510809849"><ele>362.0</ele><time>2026-05-02T14:50:08.001Z</time></trkpt><trkpt lat="40.2870331473617" lon="8.58176217806566"><ele>363.0</ele><time>2026-05-02T14:50:09.001Z</time></trkpt><trkpt lat="40.28700459795666" lon="8.581936302167993"><ele>364.0</ele><time>2026-05-02T14:50:10.001Z</time></trkpt><trkpt lat="40.286973009498794" lon="8.58209966229518"><ele>365.0</ele><time>2026-05-02T14:50:11.001Z</time></trkpt><trkpt lat="40.28693316242918" lon="8.582276484021689"><ele>365.0</ele><time>2026-05-02T14:50:12.001Z</time></trkpt><trkpt lat="40.28688659740131" lon="8.582459790843668"><ele>365.0</ele><time>2026-05-02T14:50:13.001Z</time></trkpt><trkpt lat="40.286820868912876" lon="8.58264382464832"><ele>365.0</ele><time>2026-05-02T14:50:14.001Z</time></trkpt><trkpt lat="40.28672914029923" lon="8.582817369287055"><ele>364.25</ele><time>2026-05-02T14:50:15.001Z</time></trkpt><trkpt lat="40.28662305675302" lon="8.582974101530185"><ele>363.5</ele><time>2026-05-02T14:50:16.001Z</time></trkpt><trkpt lat="40.286521510569386" lon="8.583101709164774"><ele>362.75</ele><time>2026-05-02T14:50:17.001Z</time></trkpt><trkpt lat="40.28642835209119" lon="8.583231605125615"><ele>362.0</ele><time>2026-05-02T14:50:18.001Z</time></trkpt><trkpt lat="40.28634812143564" lon="8.583376571567598"><ele>363.6666666666667</ele><time>2026-05-02T14:50:19.001Z</time></trkpt><trkpt lat="40.286262762214214" lon="8.583529474382239"><ele>365.3333333333333</ele><time>2026-05-02T14:50:20.001Z</time></trkpt><trkpt lat="40.2861561224735" lon="8.58368874033467"><ele>367.0</ele><time>2026-05-02T14:50:21.001Z</time></trkpt><trkpt lat="40.28605269997415" lon="8.5838299495327"><ele>367.0</ele><time>2026-05-02T14:50:22.001Z</time></trkpt><trkpt lat="40.2859489785397" lon="8.583991722395757"><ele>367.0</ele><time>2026-05-02T14:50:23.001Z</time></trkpt><trkpt lat="40.28584710465986" lon="8.58414496534984"><ele>367.0</ele><time>2026-05-02T14:50:24.001Z</time></trkpt><trkpt lat="40.2857580312333" lon="8.584284977283318"><ele>367.0</ele><time>2026-05-02T14:50:25.001Z</time></trkpt><trkpt lat="40.285671581676624" lon="8.584416853173083"><ele>367.0</ele><time>2026-05-02T14:50:26.001Z</time></trkpt><trkpt lat="40.28559302919876" lon="8.58454366098627"><ele>367.0</ele><time>2026-05-02T14:50:27.001Z</time></trkpt><trkpt lat="40.2855322751191" lon="8.584653521769129"><ele>367.0</ele><time>2026-05-02T14:50:28.001Z</time></trkpt><trkpt lat="40.28550530177404" lon="8.584764608759317"><ele>367.0</ele><time>2026-05-02T14:50:29.001Z</time></trkpt><trkpt lat="40.28551618759496" lon="8.584893601186435"><ele>367.0</ele><time>2026-05-02T14:50:30.001Z</time></trkpt><trkpt lat="40.28557975986577" lon="8.58504957436975"><ele>367.0</ele><time>2026-05-02T14:50:31.001Z</time></trkpt><trkpt lat="40.28565835194208" lon="8.585162066903534"><ele>367.0</ele><time>2026-05-02T14:50:32.001Z</time></trkpt><trkpt lat="40.28570793923692" lon="8.585238922182516"><ele>367.0</ele><time>2026-05-02T14:50:33.001Z</time></trkpt><trkpt lat="40.28571584488516" lon="8.585327863144245"><ele>366.8333333333333</ele><time>2026-05-02T14:50:34.001Z</time></trkpt><trkpt lat="40.28570240347525" lon="8.585425906832796"><ele>366.66666666666663</ele><time>2026-05-02T14:50:35.001Z</time></trkpt><trkpt lat="40.28566290170959" lon="8.585505756081265"><ele>366.5</ele><time>2026-05-02T14:50:36.001Z</time></trkpt><trkpt lat="40.28560960106556" lon="8.585572188047172"><ele>366.3333333333333</ele><time>2026-05-02T14:50:37.001Z</time></trkpt><trkpt lat="40.285541451266255" lon="8.58564962912213"><ele>366.1666666666667</ele><time>2026-05-02T14:50:38.001Z</time></trkpt><trkpt lat="40.28545127690921" lon="8.585751466231805"><ele>366.0</ele><time>2026-05-02T14:50:39.001Z</time></trkpt><trkpt lat="40.28538188376886" lon="8.585813405989352"><ele>366.0</ele><time>2026-05-02T14:50:40.001Z</time></trkpt><trkpt lat="40.285313395964884" lon="8.585842286593172"><ele>366.0</ele><time>2026-05-02T14:50:43.001Z</time></trkpt><trkpt lat="40.285249812127084" lon="8.58592349878812"><ele>366.0</ele><time>2026-05-02T14:50:47.001Z</time></trkpt><trkpt lat="40.285197043864216" lon="8.58599512982947"><ele>366.0</ele><time>2026-05-02T14:50:49.001Z</time></trkpt><trkpt lat="40.28512198530785" lon="8.586092463277142"><ele>366.0</ele><time>2026-05-02T14:50:51.001Z</time></trkpt><trkpt lat="40.28504812428689" lon="8.586173773627111"><ele>366.0</ele><time>2026-05-02T14:50:53.001Z</time></trkpt><trkpt lat="40.28497700508651" lon="8.586269678666765"><ele>366.5</ele><time>2026-05-02T14:50:55.001Z</time></trkpt><trkpt lat="40.28494305680923" lon="8.586339777142024"><ele>367.0</ele><time>2026-05-02T14:50:56.001Z</time></trkpt><trkpt lat="40.28491229826216" lon="8.586425023839416"><ele>367.5</ele><time>2026-05-02T14:50:57.001Z</time></trkpt><trkpt lat="40.284898913848735" lon="8.586533829173522"><ele>368.0</ele><time>2026-05-02T14:50:58.001Z</time></trkpt><trkpt lat="40.28490193505222" lon="8.586646979742047"><ele>368.5</ele><time>2026-05-02T14:50:59.001Z</time></trkpt><trkpt lat="40.284929167207586" lon="8.586773107205486"><ele>369.0</ele><time>2026-05-02T14:51:00.001Z</time></trkpt><trkpt lat="40.284960979828504" lon="8.586954243819703"><ele>369.3333333333333</ele><time>2026-05-02T14:51:01.001Z</time></trkpt><trkpt lat="40.28497513290143" lon="8.58716361059788"><ele>369.66666666666663</ele><time>2026-05-02T14:51:02.001Z</time></trkpt><trkpt lat="40.28497476964609" lon="8.587398498885282"><ele>370.0</ele><time>2026-05-02T14:51:03.001Z</time></trkpt><trkpt lat="40.28496983641901" lon="8.587629320495461"><ele>369.66666666666663</ele><time>2026-05-02T14:51:04.001Z</time></trkpt><trkpt lat="40.28497806035939" lon="8.587868032157253"><ele>369.3333333333333</ele><time>2026-05-02T14:51:05.001Z</time></trkpt><trkpt lat="40.28498149462605" lon="8.588121279441626"><ele>369.0</ele><time>2026-05-02T14:51:06.001Z</time></trkpt><trkpt lat="40.28498127017864" lon="8.588363348047992"><ele>369.0</ele><time>2026-05-02T14:51:07.001Z</time></trkpt><trkpt lat="40.28498269931109" lon="8.58859031212379"><ele>369.0</ele><time>2026-05-02T14:51:08.001Z</time></trkpt><trkpt lat="40.28498541182726" lon="8.588801258521967"><ele>369.0</ele><time>2026-05-02T14:51:09.001Z</time></trkpt><trkpt lat="40.2849855806422" lon="8.589000209556069"><ele>369.3333333333333</ele><time>2026-05-02T14:51:10.001Z</time></trkpt><trkpt lat="40.284985181441655" lon="8.589201110998275"><ele>369.66666666666663</ele><time>2026-05-02T14:51:11.001Z</time></trkpt><trkpt lat="40.28499022611068" lon="8.589405907966878"><ele>370.0</ele><time>2026-05-02T14:51:12.001Z</time></trkpt><trkpt lat="40.28499705932121" lon="8.589637379853817"><ele>370.5</ele><time>2026-05-02T14:51:13.001Z</time></trkpt><trkpt lat="40.285004500780865" lon="8.589929840599092"><ele>371.0</ele><time>2026-05-02T14:51:14.001Z</time></trkpt><trkpt lat="40.28499290788798" lon="8.590261513582732"><ele>372.5</ele><time>2026-05-02T14:51:15.001Z</time></trkpt><trkpt lat="40.284979665099584" lon="8.59059478552006"><ele>374.0</ele><time>2026-05-02T14:51:16.001Z</time></trkpt><trkpt lat="40.284980281759275" lon="8.590933959935581"><ele>376.5</ele><time>2026-05-02T14:51:17.001Z</time></trkpt><trkpt lat="40.28499814951017" lon="8.591285677526285"><ele>379.0</ele><time>2026-05-02T14:51:18.001Z</time></trkpt><trkpt lat="40.285054337278304" lon="8.591605205062933"><ele>379.0</ele><time>2026-05-02T14:51:19.001Z</time></trkpt><trkpt lat="40.28513732903574" lon="8.591902468561337"><ele>379.0</ele><time>2026-05-02T14:51:20.002Z</time></trkpt><trkpt lat="40.28526877067632" lon="8.592170042518067"><ele>380.0</ele><time>2026-05-02T14:51:21.002Z</time></trkpt><trkpt lat="40.28543181954159" lon="8.592453100327088"><ele>381.0</ele><time>2026-05-02T14:51:22.002Z</time></trkpt><trkpt lat="40.2856158231396" lon="8.592725144649664"><ele>382.0</ele><time>2026-05-02T14:51:23.002Z</time></trkpt><trkpt lat="40.28578997998346" lon="8.593016267556527"><ele>383.0</ele><time>2026-05-02T14:51:24.002Z</time></trkpt><trkpt lat="40.28598119053191" lon="8.593336868784247"><ele>383.0</ele><time>2026-05-02T14:51:25.002Z</time></trkpt><trkpt lat="40.28616847257421" lon="8.593669249495607"><ele>383.0</ele><time>2026-05-02T14:51:26.002Z</time></trkpt><trkpt lat="40.28635216764836" lon="8.594017082249485"><ele>384.0</ele><time>2026-05-02T14:51:27.002Z</time></trkpt><trkpt lat="40.28654432941931" lon="8.594370647519002"><ele>385.0</ele><time>2026-05-02T14:51:28.002Z</time></trkpt><trkpt lat="40.28674731132852" lon="8.594736289756723"><ele>386.0</ele><time>2026-05-02T14:51:29.002Z</time></trkpt><trkpt lat="40.2869510318756" lon="8.595087247260052"><ele>387.0</ele><time>2026-05-02T14:51:30.002Z</time></trkpt><trkpt lat="40.28715296279765" lon="8.595432166260508"><ele>388.0</ele><time>2026-05-02T14:51:31.002Z</time></trkpt><trkpt lat="40.28734096270297" lon="8.595763765598837"><ele>389.0</ele><time>2026-05-02T14:51:32.002Z</time></trkpt><trkpt lat="40.2875401027243" lon="8.59610540728335"><ele>388.5</ele><time>2026-05-02T14:51:33.002Z</time></trkpt><trkpt lat="40.28773585879949" lon="8.59644046711506"><ele>388.0</ele><time>2026-05-02T14:51:34.002Z</time></trkpt><trkpt lat="40.28792893182479" lon="8.59677035131892"><ele>390.0</ele><time>2026-05-02T14:51:35.002Z</time></trkpt><trkpt lat="40.28811861170073" lon="8.597099880855206"><ele>392.0</ele><time>2026-05-02T14:51:36.002Z</time></trkpt><trkpt lat="40.288303125989636" lon="8.59742965289027"><ele>392.0</ele><time>2026-05-02T14:51:37.002Z</time></trkpt><trkpt lat="40.28848510561664" lon="8.59775119959322"><ele>392.0</ele><time>2026-05-02T14:51:38.002Z</time></trkpt><trkpt lat="40.288655764013576" lon="8.598079040856057"><ele>393.0</ele><time>2026-05-02T14:51:39.002Z</time></trkpt><trkpt lat="40.28880765320463" lon="8.59842148317814"><ele>394.0</ele><time>2026-05-02T14:51:40.002Z</time></trkpt><trkpt lat="40.28893077775456" lon="8.598785124930608"><ele>394.0</ele><time>2026-05-02T14:51:41.002Z</time></trkpt><trkpt lat="40.28901879493948" lon="8.599179906075793"><ele>394.0</ele><time>2026-05-02T14:51:42.002Z</time></trkpt><trkpt lat="40.289064445353176" lon="8.599568648645288"><ele>394.5</ele><time>2026-05-02T14:51:43.002Z</time></trkpt><trkpt lat="40.289084430306325" lon="8.5999769776622"><ele>395.0</ele><time>2026-05-02T14:51:44.002Z</time></trkpt><trkpt lat="40.28907121828313" lon="8.600378769153632"><ele>395.0</ele><time>2026-05-02T14:51:45.002Z</time></trkpt><trkpt lat="40.28904781863714" lon="8.600785776277844"><ele>395.0</ele><time>2026-05-02T14:51:46.002Z</time></trkpt><trkpt lat="40.28902425532268" lon="8.601204739884588"><ele>395.0</ele><time>2026-05-02T14:51:47.002Z</time></trkpt><trkpt lat="40.289011216025045" lon="8.60163199184698"><ele>395.0</ele><time>2026-05-02T14:51:48.002Z</time></trkpt><trkpt lat="40.28900067067208" lon="8.602058824320633"><ele>395.0</ele><time>2026-05-02T14:51:49.002Z</time></trkpt><trkpt lat="40.28897925819608" lon="8.602488604303241"><ele>395.0</ele><time>2026-05-02T14:51:50.002Z</time></trkpt><trkpt lat="40.28895704569332" lon="8.602920507695794"><ele>396.0</ele><time>2026-05-02T14:51:51.002Z</time></trkpt><trkpt lat="40.288935335151045" lon="8.603346566667222"><ele>397.0</ele><time>2026-05-02T14:51:52.002Z</time></trkpt><trkpt lat="40.28891757485857" lon="8.603778930736713"><ele>398.5</ele><time>2026-05-02T14:51:53.002Z</time></trkpt><trkpt lat="40.28890083932909" lon="8.604215662547928"><ele>400.0</ele><time>2026-05-02T14:51:54.002Z</time></trkpt><trkpt lat="40.288887416159234" lon="8.60465871702758"><ele>401.5</ele><time>2026-05-02T14:51:55.002Z</time></trkpt><trkpt lat="40.28886856068482" lon="8.60510084326156"><ele>403.0</ele><time>2026-05-02T14:51:56.002Z</time></trkpt><trkpt lat="40.28885404405533" lon="8.605536955404446"><ele>404.0</ele><time>2026-05-02T14:51:57.002Z</time></trkpt><trkpt lat="40.28883792081635" lon="8.605966920557213"><ele>405.0</ele><time>2026-05-02T14:51:58.001Z</time></trkpt><trkpt lat="40.2888213598889" lon="8.606389041054388"><ele>405.0</ele><time>2026-05-02T14:51:59.001Z</time></trkpt><trkpt lat="40.28880038218937" lon="8.606807978179662"><ele>405.0</ele><time>2026-05-02T14:52:00.001Z</time></trkpt><trkpt lat="40.28877868381114" lon="8.607217124912628"><ele>405.0</ele><time>2026-05-02T14:52:01.001Z</time></trkpt><trkpt lat="40.28875964649718" lon="8.607609875623474"><ele>405.0</ele><time>2026-05-02T14:52:02.001Z</time></trkpt><trkpt lat="40.28873924497062" lon="8.607991385802274"><ele>405.5</ele><time>2026-05-02T14:52:03.001Z</time></trkpt><trkpt lat="40.28872201577384" lon="8.608367402355569"><ele>406.0</ele><time>2026-05-02T14:52:04.001Z</time></trkpt><trkpt lat="40.28870630784684" lon="8.608730545004915"><ele>406.5</ele><time>2026-05-02T14:52:05.001Z</time></trkpt><trkpt lat="40.28869189404455" lon="8.609076563049976"><ele>407.0</ele><time>2026-05-02T14:52:06.001Z</time></trkpt><trkpt lat="40.288669364595144" lon="8.60938819494644"><ele>407.0</ele><time>2026-05-02T14:52:07.001Z</time></trkpt><trkpt lat="40.288658729910686" lon="8.609706512895356"><ele>407.0</ele><time>2026-05-02T14:52:08.001Z</time></trkpt><trkpt lat="40.28862575779745" lon="8.610016344799472"><ele>408.0</ele><time>2026-05-02T14:52:09.001Z</time></trkpt><trkpt lat="40.28858571517538" lon="8.610348977755523"><ele>409.0</ele><time>2026-05-02T14:52:10.001Z</time></trkpt><trkpt lat="40.288516515426586" lon="8.610672996639552"><ele>409.0</ele><time>2026-05-02T14:52:11.001Z</time></trkpt><trkpt lat="40.28843933497175" lon="8.611017615669736"><ele>409.0</ele><time>2026-05-02T14:52:12.001Z</time></trkpt><trkpt lat="40.28835690772544" lon="8.611356732983523"><ele>409.5</ele><time>2026-05-02T14:52:13.001Z</time></trkpt><trkpt lat="40.288282821855695" lon="8.61170491956039"><ele>410.0</ele><time>2026-05-02T14:52:14.001Z</time></trkpt><trkpt lat="40.28820505773488" lon="8.612060001287965"><ele>411.0</ele><time>2026-05-02T14:52:15.001Z</time></trkpt><trkpt lat="40.28813512843467" lon="8.612413930561775"><ele>412.0</ele><time>2026-05-02T14:52:16.001Z</time></trkpt><trkpt lat="40.28806314844212" lon="8.61277048425803"><ele>413.5</ele><time>2026-05-02T14:52:17.001Z</time></trkpt><trkpt lat="40.287996677064115" lon="8.61313011810476"><ele>415.0</ele><time>2026-05-02T14:52:18.001Z</time></trkpt><trkpt lat="40.28793731641261" lon="8.61348366348009"><ele>416.0</ele><time>2026-05-02T14:52:19.001Z</time></trkpt><trkpt lat="40.287870081521454" lon="8.61383539903801"><ele>417.0</ele><time>2026-05-02T14:52:20.001Z</time></trkpt><trkpt lat="40.28779697823631" lon="8.61418476987707"><ele>418.0</ele><time>2026-05-02T14:52:21.001Z</time></trkpt><trkpt lat="40.28772810069196" lon="8.61452400109602"><ele>419.0</ele><time>2026-05-02T14:52:22.001Z</time></trkpt><trkpt lat="40.28765632797629" lon="8.614879693808284"><ele>419.0</ele><time>2026-05-02T14:52:23.001Z</time></trkpt><trkpt lat="40.28758230336104" lon="8.615231287738489"><ele>419.0</ele><time>2026-05-02T14:52:24.001Z</time></trkpt><trkpt lat="40.28751375007026" lon="8.615605231669319"><ele>419.5</ele><time>2026-05-02T14:52:25.001Z</time></trkpt><trkpt lat="40.287442654857685" lon="8.615943893483642"><ele>420.0</ele><time>2026-05-02T14:52:26.001Z</time></trkpt><trkpt lat="40.28737628611042" lon="8.616298669094384"><ele>420.5</ele><time>2026-05-02T14:52:27.001Z</time></trkpt><trkpt lat="40.28730737889393" lon="8.616653184290008"><ele>421.0</ele><time>2026-05-02T14:52:28.001Z</time></trkpt><trkpt lat="40.2872373364509" lon="8.61700705542373"><ele>421.0</ele><time>2026-05-02T14:52:29.001Z</time></trkpt><trkpt lat="40.28716773144733" lon="8.617366176285818"><ele>421.0</ele><time>2026-05-02T14:52:30.001Z</time></trkpt><trkpt lat="40.28710205817795" lon="8.617725169888512"><ele>421.5</ele><time>2026-05-02T14:52:31.001Z</time></trkpt><trkpt lat="40.28703849660206" lon="8.6180824731303"><ele>422.0</ele><time>2026-05-02T14:52:32.001Z</time></trkpt><trkpt lat="40.286966311378684" lon="8.618447944282524"><ele>422.5</ele><time>2026-05-02T14:52:33.001Z</time></trkpt><trkpt lat="40.28689759598897" lon="8.618811066354604"><ele>423.0</ele><time>2026-05-02T14:52:34.001Z</time></trkpt><trkpt lat="40.286825618527025" lon="8.619173034913253"><ele>422.5</ele><time>2026-05-02T14:52:35.001Z</time></trkpt><trkpt lat="40.286749802341774" lon="8.619536538740308"><ele>422.0</ele><time>2026-05-02T14:52:36.001Z</time></trkpt><trkpt lat="40.286676625008745" lon="8.619905647924096"><ele>422.0</ele><time>2026-05-02T14:52:37.001Z</time></trkpt><trkpt lat="40.28660159425398" lon="8.620282132931141"><ele>422.0</ele><time>2026-05-02T14:52:38.001Z</time></trkpt><trkpt lat="40.28652572284508" lon="8.62066347057649"><ele>421.5</ele><time>2026-05-02T14:52:39.001Z</time></trkpt><trkpt lat="40.28645215092352" lon="8.621044147393366"><ele>421.0</ele><time>2026-05-02T14:52:40.001Z</time></trkpt><trkpt lat="40.28637865116493" lon="8.621428579045258"><ele>422.5</ele><time>2026-05-02T14:52:41.001Z</time></trkpt><trkpt lat="40.286303553920334" lon="8.621813044791532"><ele>424.0</ele><time>2026-05-02T14:52:42.001Z</time></trkpt><trkpt lat="40.28623228444262" lon="8.62221080955549"><ele>424.0</ele><time>2026-05-02T14:52:43.001Z</time></trkpt><trkpt lat="40.28616128170533" lon="8.622626780919878"><ele>424.0</ele><time>2026-05-02T14:52:44.001Z</time></trkpt><trkpt lat="40.28610629565292" lon="8.62307154813604"><ele>423.5</ele><time>2026-05-02T14:52:45.001Z</time></trkpt><trkpt lat="40.28607723869625" lon="8.623556694516221"><ele>423.0</ele><time>2026-05-02T14:52:46.001Z</time></trkpt><trkpt lat="40.28604960452624" lon="8.624057284046375"><ele>422.5</ele><time>2026-05-02T14:52:47.001Z</time></trkpt><trkpt lat="40.28601812932302" lon="8.624552465000978"><ele>422.0</ele><time>2026-05-02T14:52:48.001Z</time></trkpt><trkpt lat="40.28598093150171" lon="8.625028612308151"><ele>421.5</ele><time>2026-05-02T14:52:49.001Z</time></trkpt><trkpt lat="40.28593944776792" lon="8.625494635282022"><ele>421.0</ele><time>2026-05-02T14:52:50.001Z</time></trkpt><trkpt lat="40.28590215317452" lon="8.625952433606601"><ele>419.0</ele><time>2026-05-02T14:52:51.001Z</time></trkpt><trkpt lat="40.28586785703833" lon="8.626394716227301"><ele>417.0</ele><time>2026-05-02T14:52:52.001Z</time></trkpt><trkpt lat="40.28583501773471" lon="8.626816372613547"><ele>415.0</ele><time>2026-05-02T14:52:53.001Z</time></trkpt><trkpt lat="40.28580309240103" lon="8.627229006849223"><ele>413.0</ele><time>2026-05-02T14:52:54.001Z</time></trkpt><trkpt lat="40.28577149646019" lon="8.627643399829335"><ele>414.5</ele><time>2026-05-02T14:52:55.001Z</time></trkpt><trkpt lat="40.28573890468379" lon="8.628050581658767"><ele>416.0</ele><time>2026-05-02T14:52:56.001Z</time></trkpt><trkpt lat="40.285710318045695" lon="8.628455993985408"><ele>420.0</ele><time>2026-05-02T14:52:57.001Z</time></trkpt><trkpt lat="40.285676158407725" lon="8.628859475725132"><ele>424.0</ele><time>2026-05-02T14:52:58.001Z</time></trkpt><trkpt lat="40.28564881705078" lon="8.629261328365814"><ele>425.5</ele><time>2026-05-02T14:52:59.001Z</time></trkpt><trkpt lat="40.285618946087524" lon="8.62966823931285"><ele>427.0</ele><time>2026-05-02T14:53:00.001Z</time></trkpt><trkpt lat="40.28558644164665" lon="8.630074661736007"><ele>425.5</ele><time>2026-05-02T14:53:01.001Z</time></trkpt><trkpt lat="40.28555285895873" lon="8.630486979809056"><ele>424.0</ele><time>2026-05-02T14:53:02.001Z</time></trkpt><trkpt lat="40.28552004567109" lon="8.630902534324171"><ele>426.5</ele><time>2026-05-02T14:53:03.001Z</time></trkpt><trkpt lat="40.28548797540675" lon="8.631322983459293"><ele>429.0</ele><time>2026-05-02T14:53:04.001Z</time></trkpt><trkpt lat="40.285453352306966" lon="8.6317451583083"><ele>431.0</ele><time>2026-05-02T14:53:05.001Z</time></trkpt><trkpt lat="40.28541877518347" lon="8.632167831279567"><ele>433.0</ele><time>2026-05-02T14:53:06.001Z</time></trkpt><trkpt lat="40.285381293132566" lon="8.632588219935657"><ele>434.5</ele><time>2026-05-02T14:53:07.001Z</time></trkpt><trkpt lat="40.285344966550475" lon="8.633008641267415"><ele>436.0</ele><time>2026-05-02T14:53:08.001Z</time></trkpt><trkpt lat="40.28531816368494" lon="8.633428669733853"><ele>438.0</ele><time>2026-05-02T14:53:09.001Z</time></trkpt><trkpt lat="40.285287027265184" lon="8.63384291771171"><ele>440.0</ele><time>2026-05-02T14:53:10.001Z</time></trkpt><trkpt lat="40.285252607011266" lon="8.634258697779575"><ele>441.0</ele><time>2026-05-02T14:53:11.001Z</time></trkpt><trkpt lat="40.28521821484943" lon="8.634678183054518"><ele>442.0</ele><time>2026-05-02T14:53:12.001Z</time></trkpt><trkpt lat="40.28518616108251" lon="8.635105461417082"><ele>442.5</ele><time>2026-05-02T14:53:13.001Z</time></trkpt><trkpt lat="40.28515498282654" lon="8.635537507195426"><ele>443.0</ele><time>2026-05-02T14:53:14.001Z</time></trkpt><trkpt lat="40.2851245213456" lon="8.635975123400415"><ele>444.0</ele><time>2026-05-02T14:53:15.001Z</time></trkpt><trkpt lat="40.28509311899669" lon="8.636413455085627"><ele>445.0</ele><time>2026-05-02T14:53:16.001Z</time></trkpt><trkpt lat="40.28505917588218" lon="8.636850941839617"><ele>446.0</ele><time>2026-05-02T14:53:17.001Z</time></trkpt><trkpt lat="40.28502899593316" lon="8.63729492332574"><ele>447.0</ele><time>2026-05-02T14:53:18.001Z</time></trkpt><trkpt lat="40.28498446760567" lon="8.63774145485177"><ele>448.0</ele><time>2026-05-02T14:53:19.001Z</time></trkpt><trkpt lat="40.28490180987156" lon="8.638173964072859"><ele>449.0</ele><time>2026-05-02T14:53:20.001Z</time></trkpt><trkpt lat="40.28480134884822" lon="8.638598801564203"><ele>451.5</ele><time>2026-05-02T14:53:21.001Z</time></trkpt><trkpt lat="40.284703490959224" lon="8.639029329682021"><ele>454.0</ele><time>2026-05-02T14:53:22.001Z</time></trkpt><trkpt lat="40.28461486137836" lon="8.639445894466219"><ele>456.5</ele><time>2026-05-02T14:53:23.001Z</time></trkpt><trkpt lat="40.28453605909039" lon="8.63985563200255"><ele>459.0</ele><time>2026-05-02T14:53:24.001Z</time></trkpt><trkpt lat="40.28445130893664" lon="8.640262100756347"><ele>460.5</ele><time>2026-05-02T14:53:25.001Z</time></trkpt><trkpt lat="40.2843697745242" lon="8.640673950174646"><ele>462.0</ele><time>2026-05-02T14:53:26.001Z</time></trkpt><trkpt lat="40.28428317649767" lon="8.641089153584355"><ele>462.0</ele><time>2026-05-02T14:53:27.001Z</time></trkpt><trkpt lat="40.28420105831166" lon="8.641497995892232"><ele>462.0</ele><time>2026-05-02T14:53:28.001Z</time></trkpt><trkpt lat="40.28412090059527" lon="8.641903121337286"><ele>461.0</ele><time>2026-05-02T14:53:29.001Z</time></trkpt><trkpt lat="40.28403874077107" lon="8.642311887222743"><ele>460.0</ele><time>2026-05-02T14:53:30.001Z</time></trkpt><trkpt lat="40.28395271739039" lon="8.642729376651529"><ele>456.5</ele><time>2026-05-02T14:53:31.001Z</time></trkpt><trkpt lat="40.28387413312045" lon="8.643144534452679"><ele>453.0</ele><time>2026-05-02T14:53:32.001Z</time></trkpt><trkpt lat="40.283785993840056" lon="8.643556871509604"><ele>453.0</ele><time>2026-05-02T14:53:33.001Z</time></trkpt><trkpt lat="40.28369591034585" lon="8.64397109575178"><ele>453.0</ele><time>2026-05-02T14:53:34.001Z</time></trkpt><trkpt lat="40.28361162065043" lon="8.644396075873429"><ele>453.0</ele><time>2026-05-02T14:53:35.001Z</time></trkpt><trkpt lat="40.283524941048384" lon="8.644819003610667"><ele>453.0</ele><time>2026-05-02T14:53:36.001Z</time></trkpt><trkpt lat="40.283444295005296" lon="8.6452456337738"><ele>454.5</ele><time>2026-05-02T14:53:37.001Z</time></trkpt><trkpt lat="40.28336227710612" lon="8.645663748630968"><ele>456.0</ele><time>2026-05-02T14:53:38.001Z</time></trkpt><trkpt lat="40.283277644693214" lon="8.646078347925423"><ele>456.5</ele><time>2026-05-02T14:53:39.001Z</time></trkpt><trkpt lat="40.28319603221774" lon="8.646490588568152"><ele>457.0</ele><time>2026-05-02T14:53:40.001Z</time></trkpt><trkpt lat="40.28311247185313" lon="8.6468925754229"><ele>454.5</ele><time>2026-05-02T14:53:41.001Z</time></trkpt><trkpt lat="40.283032570597136" lon="8.64729755161349"><ele>452.0</ele><time>2026-05-02T14:53:42.001Z</time></trkpt><trkpt lat="40.28295365692198" lon="8.64769525433239"><ele>453.0</ele><time>2026-05-02T14:53:43.001Z</time></trkpt><trkpt lat="40.28287818177041" lon="8.64808505667238"><ele>454.0</ele><time>2026-05-02T14:53:44.001Z</time></trkpt><trkpt lat="40.28281297747577" lon="8.648443969175213"><ele>454.5</ele><time>2026-05-02T14:53:45.001Z</time></trkpt><trkpt lat="40.282772863939975" lon="8.648782176060687"><ele>455.0</ele><time>2026-05-02T14:53:46.001Z</time></trkpt><trkpt lat="40.28275514508537" lon="8.649074624402644"><ele>455.0</ele><time>2026-05-02T14:53:47.001Z</time></trkpt><trkpt lat="40.282766950439466" lon="8.649323617791003"><ele>455.0</ele><time>2026-05-02T14:53:48.001Z</time></trkpt><trkpt lat="40.28279858007268" lon="8.6495655586152"><ele>455.0</ele><time>2026-05-02T14:53:49.002Z</time></trkpt><trkpt lat="40.28284666143903" lon="8.64981449197375"><ele>455.0</ele><time>2026-05-02T14:53:50.002Z</time></trkpt><trkpt lat="40.282926450564574" lon="8.650061546670303"><ele>455.0</ele><time>2026-05-02T14:53:51.002Z</time></trkpt><trkpt lat="40.28302861539216" lon="8.650323874754884"><ele>455.0</ele><time>2026-05-02T14:53:52.002Z</time></trkpt><trkpt lat="40.283154511001165" lon="8.650595007600751"><ele>457.5</ele><time>2026-05-02T14:53:53.002Z</time></trkpt><trkpt lat="40.28331226902691" lon="8.650872881440229"><ele>460.0</ele><time>2026-05-02T14:53:54.002Z</time></trkpt><trkpt lat="40.28349680739712" lon="8.651155443452705"><ele>460.0</ele><time>2026-05-02T14:53:55.002Z</time></trkpt><trkpt lat="40.283688551390775" lon="8.651428539157498"><ele>460.0</ele><time>2026-05-02T14:53:56.002Z</time></trkpt><trkpt lat="40.283884310862575" lon="8.651696440307893"><ele>463.0</ele><time>2026-05-02T14:53:57.002Z</time></trkpt><trkpt lat="40.284085556739896" lon="8.651962631138016"><ele>466.0</ele><time>2026-05-02T14:53:58.001Z</time></trkpt><trkpt lat="40.28429491358784" lon="8.652235233803435"><ele>466.0</ele><time>2026-05-02T14:53:59.001Z</time></trkpt><trkpt lat="40.2845012320214" lon="8.652510585186695"><ele>466.0</ele><time>2026-05-02T14:54:00.001Z</time></trkpt><trkpt lat="40.28469853366075" lon="8.652782104417668"><ele>468.0</ele><time>2026-05-02T14:54:01.001Z</time></trkpt><trkpt lat="40.28488281098674" lon="8.653046066066171"><ele>470.0</ele><time>2026-05-02T14:54:02.001Z</time></trkpt><trkpt lat="40.28504923915604" lon="8.653294776694441"><ele>470.0</ele><time>2026-05-02T14:54:03.001Z</time></trkpt><trkpt lat="40.28519492777768" lon="8.653543876209964"><ele>470.0</ele><time>2026-05-02T14:54:04.001Z</time></trkpt><trkpt lat="40.285306208384426" lon="8.653809267568178"><ele>470.0</ele><time>2026-05-02T14:54:05.001Z</time></trkpt><trkpt lat="40.28537311292328" lon="8.654109870169668"><ele>470.0</ele><time>2026-05-02T14:54:06.001Z</time></trkpt><trkpt lat="40.28541349959226" lon="8.654458489204554"><ele>470.0</ele><time>2026-05-02T14:54:07.001Z</time></trkpt><trkpt lat="40.28544840019975" lon="8.654832835289694"><ele>470.0</ele><time>2026-05-02T14:54:08.001Z</time></trkpt><trkpt lat="40.2854880000284" lon="8.655209704041976"><ele>472.5</ele><time>2026-05-02T14:54:09.001Z</time></trkpt><trkpt lat="40.28552572073152" lon="8.655571557066251"><ele>475.0</ele><time>2026-05-02T14:54:10.001Z</time></trkpt><trkpt lat="40.285571679195186" lon="8.655925904173934"><ele>479.0</ele><time>2026-05-02T14:54:11.001Z</time></trkpt><trkpt lat="40.28561663867959" lon="8.656269335691238"><ele>483.0</ele><time>2026-05-02T14:54:12.001Z</time></trkpt><trkpt lat="40.28565978184724" lon="8.656617549336577"><ele>485.0</ele><time>2026-05-02T14:54:13.001Z</time></trkpt><trkpt lat="40.285700783250995" lon="8.65696316616815"><ele>487.0</ele><time>2026-05-02T14:54:14.001Z</time></trkpt><trkpt lat="40.28574404977751" lon="8.657309196023206"><ele>487.0</ele><time>2026-05-02T14:54:15.001Z</time></trkpt><trkpt lat="40.28578672121484" lon="8.657652340142889"><ele>487.0</ele><time>2026-05-02T14:54:16.001Z</time></trkpt><trkpt lat="40.28582358960917" lon="8.657987707836156"><ele>489.0</ele><time>2026-05-02T14:54:17.001Z</time></trkpt><trkpt lat="40.28586564252602" lon="8.658323103399168"><ele>491.0</ele><time>2026-05-02T14:54:18.001Z</time></trkpt><trkpt lat="40.28589926945945" lon="8.658664351723006"><ele>492.5</ele><time>2026-05-02T14:54:19.001Z</time></trkpt><trkpt lat="40.28590933972724" lon="8.65900818122457"><ele>494.0</ele><time>2026-05-02T14:54:20.001Z</time></trkpt><trkpt lat="40.28590449717223" lon="8.659351976958138"><ele>496.5</ele><time>2026-05-02T14:54:21.001Z</time></trkpt><trkpt lat="40.28590167294621" lon="8.659694394249536"><ele>499.0</ele><time>2026-05-02T14:54:22.001Z</time></trkpt><trkpt lat="40.285890289802246" lon="8.660011814002889"><ele>501.5</ele><time>2026-05-02T14:54:23.001Z</time></trkpt><trkpt lat="40.285879672629775" lon="8.660341884871318"><ele>504.0</ele><time>2026-05-02T14:54:24.001Z</time></trkpt><trkpt lat="40.285871918249036" lon="8.660706536443664"><ele>504.0</ele><time>2026-05-02T14:54:25.001Z</time></trkpt><trkpt lat="40.285869726369086" lon="8.66109875778994"><ele>504.0</ele><time>2026-05-02T14:54:26.001Z</time></trkpt><trkpt lat="40.28586161401054" lon="8.661511800450214"><ele>506.0</ele><time>2026-05-02T14:54:27.001Z</time></trkpt><trkpt lat="40.28585146492444" lon="8.661935311263818"><ele>508.0</ele><time>2026-05-02T14:54:28.001Z</time></trkpt><trkpt lat="40.28584315181662" lon="8.66233835198957"><ele>509.5</ele><time>2026-05-02T14:54:29.001Z</time></trkpt><trkpt lat="40.28584065712839" lon="8.662732479998706"><ele>511.0</ele><time>2026-05-02T14:54:30.001Z</time></trkpt><trkpt lat="40.28583843065549" lon="8.663120234855432"><ele>512.0</ele><time>2026-05-02T14:54:31.001Z</time></trkpt><trkpt lat="40.28583454910881" lon="8.663503076839373"><ele>513.0</ele><time>2026-05-02T14:54:32.001Z</time></trkpt><trkpt lat="40.28583057771165" lon="8.66388572649388"><ele>515.0</ele><time>2026-05-02T14:54:33.001Z</time></trkpt><trkpt lat="40.285820965341756" lon="8.66426203611855"><ele>517.0</ele><time>2026-05-02T14:54:34.001Z</time></trkpt><trkpt lat="40.28581561094776" lon="8.664633659276744"><ele>518.5</ele><time>2026-05-02T14:54:35.001Z</time></trkpt><trkpt lat="40.28582166306322" lon="8.665000815520754"><ele>520.0</ele><time>2026-05-02T14:54:36.001Z</time></trkpt><trkpt lat="40.28584653251637" lon="8.66536620023682"><ele>521.5</ele><time>2026-05-02T14:54:37.001Z</time></trkpt><trkpt lat="40.285896196727194" lon="8.665727693925339"><ele>523.0</ele><time>2026-05-02T14:54:38.001Z</time></trkpt><trkpt lat="40.28596479358885" lon="8.66608897792565"><ele>524.0</ele><time>2026-05-02T14:54:39.001Z</time></trkpt><trkpt lat="40.28603965461122" lon="8.66644028694223"><ele>525.0</ele><time>2026-05-02T14:54:40.001Z</time></trkpt><trkpt lat="40.286136612599556" lon="8.666801943997037"><ele>526.0</ele><time>2026-05-02T14:54:41.001Z</time></trkpt><trkpt lat="40.28624666983298" lon="8.667150158389699"><ele>527.0</ele><time>2026-05-02T14:54:42.001Z</time></trkpt><trkpt lat="40.28636914723846" lon="8.667502882409265"><ele>528.5</ele><time>2026-05-02T14:54:43.001Z</time></trkpt><trkpt lat="40.28651053455049" lon="8.667844727927303"><ele>530.0</ele><time>2026-05-02T14:54:44.001Z</time></trkpt><trkpt lat="40.28666839312459" lon="8.6681770636533"><ele>530.0</ele><time>2026-05-02T14:54:45.001Z</time></trkpt><trkpt lat="40.28682297345846" lon="8.668525522511198"><ele>530.0</ele><time>2026-05-02T14:54:46.001Z</time></trkpt><trkpt lat="40.28697367563857" lon="8.66888045345003"><ele>530.5</ele><time>2026-05-02T14:54:47.001Z</time></trkpt><trkpt lat="40.28712723085396" lon="8.66923886104932"><ele>531.0</ele><time>2026-05-02T14:54:48.001Z</time></trkpt><trkpt lat="40.287282658701045" lon="8.669600440482455"><ele>533.5</ele><time>2026-05-02T14:54:49.001Z</time></trkpt><trkpt lat="40.287440652309655" lon="8.669967967020431"><ele>536.0</ele><time>2026-05-02T14:54:50.001Z</time></trkpt><trkpt lat="40.28759762316342" lon="8.67033601693769"><ele>537.0</ele><time>2026-05-02T14:54:51.001Z</time></trkpt><trkpt lat="40.28775676900023" lon="8.670710399555423"><ele>538.0</ele><time>2026-05-02T14:54:52.001Z</time></trkpt><trkpt lat="40.287905988235075" lon="8.67108924411345"><ele>538.0</ele><time>2026-05-02T14:54:53.001Z</time></trkpt><trkpt lat="40.288060912922184" lon="8.67147696159682"><ele>538.0</ele><time>2026-05-02T14:54:54.001Z</time></trkpt><trkpt lat="40.288230007674706" lon="8.671861541137217"><ele>540.0</ele><time>2026-05-02T14:54:55.001Z</time></trkpt><trkpt lat="40.28840076798081" lon="8.672244542150104"><ele>542.0</ele><time>2026-05-02T14:54:56.001Z</time></trkpt><trkpt lat="40.28856801256891" lon="8.672633460778973"><ele>542.0</ele><time>2026-05-02T14:54:57.001Z</time></trkpt><trkpt lat="40.28872989381689" lon="8.673019085762366"><ele>542.0</ele><time>2026-05-02T14:54:58.001Z</time></trkpt><trkpt lat="40.28889533553106" lon="8.673413380929654"><ele>543.0</ele><time>2026-05-02T14:54:59.001Z</time></trkpt><trkpt lat="40.289063230906216" lon="8.673802476837277"><ele>544.0</ele><time>2026-05-02T14:55:00.001Z</time></trkpt><trkpt lat="40.289234061944605" lon="8.6741881985464"><ele>544.0</ele><time>2026-05-02T14:55:01.001Z</time></trkpt><trkpt lat="40.28940104235343" lon="8.674572072030143"><ele>544.0</ele><time>2026-05-02T14:55:02.001Z</time></trkpt><trkpt lat="40.28957035716351" lon="8.674953465876694"><ele>545.0</ele><time>2026-05-02T14:55:03.001Z</time></trkpt><trkpt lat="40.28973147363105" lon="8.675336321041804"><ele>546.0</ele><time>2026-05-02T14:55:04.001Z</time></trkpt><trkpt lat="40.289891592774914" lon="8.67571455722179"><ele>546.0</ele><time>2026-05-02T14:55:05.001Z</time></trkpt><trkpt lat="40.29004719947394" lon="8.67607352959688"><ele>546.0</ele><time>2026-05-02T14:55:06.001Z</time></trkpt><trkpt lat="40.29020003068767" lon="8.676422456397159"><ele>546.5</ele><time>2026-05-02T14:55:07.001Z</time></trkpt><trkpt lat="40.29034316543125" lon="8.67675977523134"><ele>547.0</ele><time>2026-05-02T14:55:08.001Z</time></trkpt><trkpt lat="40.2904850034396" lon="8.677093558646046"><ele>547.0</ele><time>2026-05-02T14:55:09.001Z</time></trkpt><trkpt lat="40.290625721135996" lon="8.677426686046688"><ele>547.0</ele><time>2026-05-02T14:55:10.001Z</time></trkpt><trkpt lat="40.29076329966492" lon="8.677759097040441"><ele>548.5</ele><time>2026-05-02T14:55:11.001Z</time></trkpt><trkpt lat="40.290905018623974" lon="8.678089437261306"><ele>550.0</ele><time>2026-05-02T14:55:12.001Z</time></trkpt><trkpt lat="40.29104673568016" lon="8.678421002988097"><ele>551.5</ele><time>2026-05-02T14:55:13.001Z</time></trkpt><trkpt lat="40.2911904727938" lon="8.678752509623752"><ele>553.0</ele><time>2026-05-02T14:55:14.001Z</time></trkpt><trkpt lat="40.29133012277566" lon="8.67908362106802"><ele>555.0</ele><time>2026-05-02T14:55:15.001Z</time></trkpt><trkpt lat="40.29147086011648" lon="8.679414118594726"><ele>557.0</ele><time>2026-05-02T14:55:16.001Z</time></trkpt><trkpt lat="40.29161271808752" lon="8.679734495175335"><ele>558.5</ele><time>2026-05-02T14:55:17.001Z</time></trkpt><trkpt lat="40.29175157020465" lon="8.680053797591235"><ele>560.0</ele><time>2026-05-02T14:55:18.001Z</time></trkpt><trkpt lat="40.2918890360968" lon="8.680367310139028"><ele>561.5</ele><time>2026-05-02T14:55:19.001Z</time></trkpt><trkpt lat="40.29202200378323" lon="8.68067957748922"><ele>563.0</ele><time>2026-05-02T14:55:20.001Z</time></trkpt><trkpt lat="40.29214733742502" lon="8.680972939014277"><ele>565.5</ele><time>2026-05-02T14:55:21.001Z</time></trkpt><trkpt lat="40.29226197752688" lon="8.681260276981165"><ele>568.0</ele><time>2026-05-02T14:55:22.001Z</time></trkpt><trkpt lat="40.29235028924402" lon="8.681542485245277"><ele>568.0</ele><time>2026-05-02T14:55:23.001Z</time></trkpt><trkpt lat="40.292404936229666" lon="8.681852603363131"><ele>568.0</ele><time>2026-05-02T14:55:24.001Z</time></trkpt><trkpt lat="40.292410201865046" lon="8.682186303662508"><ele>569.5</ele><time>2026-05-02T14:55:25.001Z</time></trkpt><trkpt lat="40.29239396837314" lon="8.682551279871447"><ele>571.0</ele><time>2026-05-02T14:55:26.001Z</time></trkpt><trkpt lat="40.29237556583953" lon="8.682935589819374"><ele>571.5</ele><time>2026-05-02T14:55:27.001Z</time></trkpt><trkpt lat="40.29236265421257" lon="8.68331485677083"><ele>572.0</ele><time>2026-05-02T14:55:28.001Z</time></trkpt><trkpt lat="40.292346041643185" lon="8.68369340797103"><ele>572.0</ele><time>2026-05-02T14:55:29.001Z</time></trkpt><trkpt lat="40.292335467356835" lon="8.684078153642275"><ele>572.0</ele><time>2026-05-02T14:55:30.001Z</time></trkpt><trkpt lat="40.292327098317756" lon="8.68446025739652"><ele>573.5</ele><time>2026-05-02T14:55:31.001Z</time></trkpt><trkpt lat="40.29231372252104" lon="8.684838437647572"><ele>575.0</ele><time>2026-05-02T14:55:32.001Z</time></trkpt><trkpt lat="40.29230140331671" lon="8.685216615813816"><ele>576.5</ele><time>2026-05-02T14:55:33.001Z</time></trkpt><trkpt lat="40.29228872019554" lon="8.685593946403339"><ele>578.0</ele><time>2026-05-02T14:55:34.001Z</time></trkpt><trkpt lat="40.292277705803144" lon="8.685969017526936"><ele>579.5</ele><time>2026-05-02T14:55:35.001Z</time></trkpt><trkpt lat="40.29226448568059" lon="8.686348136082822"><ele>581.0</ele><time>2026-05-02T14:55:36.001Z</time></trkpt><trkpt lat="40.29225677880082" lon="8.686721246174269"><ele>583.0</ele><time>2026-05-02T14:55:37.001Z</time></trkpt><trkpt lat="40.29224695513119" lon="8.687095676103167"><ele>585.0</ele><time>2026-05-02T14:55:38.001Z</time></trkpt><trkpt lat="40.292237318836364" lon="8.687469675683658"><ele>585.5</ele><time>2026-05-02T14:55:39.001Z</time></trkpt><trkpt lat="40.292227103835465" lon="8.687843392636651"><ele>586.0</ele><time>2026-05-02T14:55:40.001Z</time></trkpt><trkpt lat="40.292215328007664" lon="8.688219785542275"><ele>586.5</ele><time>2026-05-02T14:55:41.001Z</time></trkpt><trkpt lat="40.29219414995702" lon="8.688596724492578"><ele>587.0</ele><time>2026-05-02T14:55:42.001Z</time></trkpt><trkpt lat="40.29218496835853" lon="8.688983340185466"><ele>587.0</ele><time>2026-05-02T14:55:43.001Z</time></trkpt><trkpt lat="40.29217654661746" lon="8.689372497668028"><ele>587.0</ele><time>2026-05-02T14:55:44.001Z</time></trkpt><trkpt lat="40.2921650674444" lon="8.689761130859836"><ele>588.5</ele><time>2026-05-02T14:55:45.001Z</time></trkpt><trkpt lat="40.29215308090721" lon="8.69014466400623"><ele>590.0</ele><time>2026-05-02T14:55:46.001Z</time></trkpt><trkpt lat="40.29213947445182" lon="8.690532565009503"><ele>591.5</ele><time>2026-05-02T14:55:47.001Z</time></trkpt><trkpt lat="40.29212065675846" lon="8.690916661824387"><ele>593.0</ele><time>2026-05-02T14:55:48.001Z</time></trkpt><trkpt lat="40.29209387407785" lon="8.691301326168107"><ele>593.5</ele><time>2026-05-02T14:55:49.001Z</time></trkpt><trkpt lat="40.29205616183136" lon="8.69168745323981"><ele>594.0</ele><time>2026-05-02T14:55:50.001Z</time></trkpt><trkpt lat="40.29200285610948" lon="8.692066555288458"><ele>595.0</ele><time>2026-05-02T14:55:51.001Z</time></trkpt><trkpt lat="40.291925850418146" lon="8.69243629096869"><ele>596.0</ele><time>2026-05-02T14:55:52.001Z</time></trkpt><trkpt lat="40.2918361459695" lon="8.692808838634532"><ele>597.0</ele><time>2026-05-02T14:55:53.001Z</time></trkpt><trkpt lat="40.2917336510235" lon="8.693179486373506"><ele>598.0</ele><time>2026-05-02T14:55:54.001Z</time></trkpt><trkpt lat="40.291628281824806" lon="8.693549664029975"><ele>599.0</ele><time>2026-05-02T14:55:55.001Z</time></trkpt><trkpt lat="40.29151608035214" lon="8.6939178051038"><ele>600.0</ele><time>2026-05-02T14:55:56.001Z</time></trkpt><trkpt lat="40.2914101571538" lon="8.694283646347117"><ele>601.5</ele><time>2026-05-02T14:55:57.001Z</time></trkpt><trkpt lat="40.29129770547599" lon="8.694651467487162"><ele>603.0</ele><time>2026-05-02T14:55:58.001Z</time></trkpt><trkpt lat="40.29118492925176" lon="8.695030630661751"><ele>603.5</ele><time>2026-05-02T14:55:59.001Z</time></trkpt><trkpt lat="40.29107150943229" lon="8.695413207092736"><ele>604.0</ele><time>2026-05-02T14:56:00.001Z</time></trkpt><trkpt lat="40.29095884862001" lon="8.69579565314477"><ele>604.5</ele><time>2026-05-02T14:56:01.001Z</time></trkpt><trkpt lat="40.29084360934402" lon="8.696179661223137"><ele>605.0</ele><time>2026-05-02T14:56:02.001Z</time></trkpt><trkpt lat="40.29073076206679" lon="8.696553676840832"><ele>604.5</ele><time>2026-05-02T14:56:03.001Z</time></trkpt><trkpt lat="40.2906224358891" lon="8.696931167364072"><ele>604.0</ele><time>2026-05-02T14:56:04.001Z</time></trkpt><trkpt lat="40.290510084105385" lon="8.697312394739548"><ele>604.0</ele><time>2026-05-02T14:56:05.001Z</time></trkpt><trkpt lat="40.29039468412913" lon="8.697696421371717"><ele>604.0</ele><time>2026-05-02T14:56:06.001Z</time></trkpt><trkpt lat="40.29028296703542" lon="8.69808327059467"><ele>605.0</ele><time>2026-05-02T14:56:07.001Z</time></trkpt><trkpt lat="40.290167468924494" lon="8.698471854254654"><ele>606.0</ele><time>2026-05-02T14:56:08.001Z</time></trkpt><trkpt lat="40.290050386917756" lon="8.698852534119554"><ele>606.0</ele><time>2026-05-02T14:56:09.001Z</time></trkpt><trkpt lat="40.2899365679459" lon="8.69923994599971"><ele>606.0</ele><time>2026-05-02T14:56:10.001Z</time></trkpt><trkpt lat="40.289817185290175" lon="8.699622696296395"><ele>607.5</ele><time>2026-05-02T14:56:11.001Z</time></trkpt><trkpt lat="40.28970412872441" lon="8.700009656728303"><ele>609.0</ele><time>2026-05-02T14:56:12.001Z</time></trkpt><trkpt lat="40.289592826540186" lon="8.700399048418715"><ele>609.5</ele><time>2026-05-02T14:56:13.001Z</time></trkpt><trkpt lat="40.289485972625634" lon="8.70079205452889"><ele>610.0</ele><time>2026-05-02T14:56:14.001Z</time></trkpt><trkpt lat="40.289373985449934" lon="8.70117750816209"><ele>610.0</ele><time>2026-05-02T14:56:15.001Z</time></trkpt><trkpt lat="40.28924676868213" lon="8.701551405897662"><ele>610.0</ele><time>2026-05-02T14:56:16.001Z</time></trkpt><trkpt lat="40.289123245048536" lon="8.70193166962177"><ele>610.0</ele><time>2026-05-02T14:56:17.001Z</time></trkpt><trkpt lat="40.2890063663079" lon="8.702314322417179"><ele>610.0</ele><time>2026-05-02T14:56:18.001Z</time></trkpt><trkpt lat="40.288889394635184" lon="8.702693992046324"><ele>612.5</ele><time>2026-05-02T14:56:19.001Z</time></trkpt><trkpt lat="40.288776241431506" lon="8.703079632863973"><ele>615.0</ele><time>2026-05-02T14:56:20.001Z</time></trkpt><trkpt lat="40.28866600228384" lon="8.703462882079627"><ele>613.5</ele><time>2026-05-02T14:56:21.001Z</time></trkpt><trkpt lat="40.2885579497026" lon="8.70384730517789"><ele>612.0</ele><time>2026-05-02T14:56:22.001Z</time></trkpt><trkpt lat="40.28844391402149" lon="8.70423126613484"><ele>611.0</ele><time>2026-05-02T14:56:23.001Z</time></trkpt><trkpt lat="40.288335868415516" lon="8.70462083841676"><ele>610.0</ele><time>2026-05-02T14:56:24.001Z</time></trkpt><trkpt lat="40.2882439103431" lon="8.705019084725585"><ele>609.5</ele><time>2026-05-02T14:56:25.001Z</time></trkpt><trkpt lat="40.28816448250433" lon="8.70541621725038"><ele>609.0</ele><time>2026-05-02T14:56:26.001Z</time></trkpt><trkpt lat="40.28809706200838" lon="8.705814176310984"><ele>609.0</ele><time>2026-05-02T14:56:27.001Z</time></trkpt><trkpt lat="40.28803757444498" lon="8.706220393301109"><ele>609.0</ele><time>2026-05-02T14:56:28.001Z</time></trkpt><trkpt lat="40.28798021147851" lon="8.706615474398042"><ele>609.5</ele><time>2026-05-02T14:56:29.001Z</time></trkpt><trkpt lat="40.287924357793095" lon="8.707020141486307"><ele>610.0</ele><time>2026-05-02T14:56:30.001Z</time></trkpt><trkpt lat="40.28787083131245" lon="8.707419378016134"><ele>611.5</ele><time>2026-05-02T14:56:31.001Z</time></trkpt><trkpt lat="40.28780606143837" lon="8.707815590859854"><ele>613.0</ele><time>2026-05-02T14:56:32.001Z</time></trkpt><trkpt lat="40.287747891534146" lon="8.708219985308494"><ele>613.5</ele><time>2026-05-02T14:56:33.001Z</time></trkpt><trkpt lat="40.2876872404289" lon="8.708619777930938"><ele>614.0</ele><time>2026-05-02T14:56:34.001Z</time></trkpt><trkpt lat="40.28762626638061" lon="8.709032678406835"><ele>614.5</ele><time>2026-05-02T14:56:35.001Z</time></trkpt><trkpt lat="40.28756111812471" lon="8.709453833379008"><ele>615.0</ele><time>2026-05-02T14:56:36.001Z</time></trkpt><trkpt lat="40.28748852948128" lon="8.709868832976637"><ele>617.0</ele><time>2026-05-02T14:56:37.001Z</time></trkpt><trkpt lat="40.28742770417196" lon="8.710297507972605"><ele>619.0</ele><time>2026-05-02T14:56:38.001Z</time></trkpt><trkpt lat="40.28736717069437" lon="8.710719771942307"><ele>620.0</ele><time>2026-05-02T14:56:39.001Z</time></trkpt><trkpt lat="40.28730549095452" lon="8.711143572541639"><ele>621.0</ele><time>2026-05-02T14:56:40.001Z</time></trkpt><trkpt lat="40.287241193296275" lon="8.711557009166237"><ele>622.5</ele><time>2026-05-02T14:56:41.001Z</time></trkpt><trkpt lat="40.287175975791584" lon="8.711979538247618"><ele>624.0</ele><time>2026-05-02T14:56:42.001Z</time></trkpt><trkpt lat="40.28711417193948" lon="8.712396272713042"><ele>624.0</ele><time>2026-05-02T14:56:43.001Z</time></trkpt><trkpt lat="40.28705510954328" lon="8.712811856529035"><ele>624.0</ele><time>2026-05-02T14:56:44.001Z</time></trkpt><trkpt lat="40.287007163845004" lon="8.713245105608534"><ele>622.0</ele><time>2026-05-02T14:56:45.001Z</time></trkpt><trkpt lat="40.28697090573573" lon="8.71368909037671"><ele>620.0</ele><time>2026-05-02T14:56:46.001Z</time></trkpt><trkpt lat="40.2869431435773" lon="8.714140182700442"><ele>618.5</ele><time>2026-05-02T14:56:47.001Z</time></trkpt><trkpt lat="40.286918538551134" lon="8.714589619405437"><ele>617.0</ele><time>2026-05-02T14:56:48.001Z</time></trkpt><trkpt lat="40.28689579549248" lon="8.715050978080084"><ele>616.5</ele><time>2026-05-02T14:56:49.001Z</time></trkpt><trkpt lat="40.28686949919593" lon="8.715517211873815"><ele>616.0</ele><time>2026-05-02T14:56:50.001Z</time></trkpt><trkpt lat="40.28684629353186" lon="8.715977262589272"><ele>615.5</ele><time>2026-05-02T14:56:51.001Z</time></trkpt><trkpt lat="40.28682052865238" lon="8.716449137275667"><ele>615.0</ele><time>2026-05-02T14:56:52.001Z</time></trkpt><trkpt lat="40.28679384789327" lon="8.716929649425266"><ele>616.5</ele><time>2026-05-02T14:56:53.001Z</time></trkpt><trkpt lat="40.286763927467014" lon="8.717412494906297"><ele>618.0</ele><time>2026-05-02T14:56:54.001Z</time></trkpt><trkpt lat="40.28673719529042" lon="8.717896144782522"><ele>618.0</ele><time>2026-05-02T14:56:55.001Z</time></trkpt><trkpt lat="40.286706829911985" lon="8.718375661992933"><ele>618.0</ele><time>2026-05-02T14:56:56.001Z</time></trkpt><trkpt lat="40.28667676904743" lon="8.718853858741214"><ele>617.5</ele><time>2026-05-02T14:56:57.001Z</time></trkpt><trkpt lat="40.28664619065407" lon="8.71932366889138"><ele>617.0</ele><time>2026-05-02T14:56:58.001Z</time></trkpt><trkpt lat="40.28661729503483" lon="8.71979495093323"><ele>619.5</ele><time>2026-05-02T14:56:59.001Z</time></trkpt><trkpt lat="40.286585914041254" lon="8.720264622195614"><ele>622.0</ele><time>2026-05-02T14:57:00.001Z</time></trkpt><trkpt lat="40.28655463829393" lon="8.720735243962512"><ele>623.5</ele><time>2026-05-02T14:57:01.001Z</time></trkpt><trkpt lat="40.286524061420565" lon="8.721205658333686"><ele>625.0</ele><time>2026-05-02T14:57:02.001Z</time></trkpt><trkpt lat="40.28649149091091" lon="8.721676215958198"><ele>624.5</ele><time>2026-05-02T14:57:03.001Z</time></trkpt><trkpt lat="40.28645621478525" lon="8.722146038451386"><ele>624.0</ele><time>2026-05-02T14:57:04.001Z</time></trkpt><trkpt lat="40.28642199341364" lon="8.722623237474554"><ele>626.0</ele><time>2026-05-02T14:57:05.001Z</time></trkpt><trkpt lat="40.28638340187573" lon="8.72309647350869"><ele>628.0</ele><time>2026-05-02T14:57:06.001Z</time></trkpt><trkpt lat="40.28634660209437" lon="8.723571710304824"><ele>629.5</ele><time>2026-05-02T14:57:07.001Z</time></trkpt><trkpt lat="40.286312541177494" lon="8.724046490120587"><ele>631.0</ele><time>2026-05-02T14:57:08.001Z</time></trkpt><trkpt lat="40.28628157966" lon="8.724518206695226"><ele>631.0</ele><time>2026-05-02T14:57:09.001Z</time></trkpt><trkpt lat="40.286234205560326" lon="8.724984741394493"><ele>631.0</ele><time>2026-05-02T14:57:10.001Z</time></trkpt><trkpt lat="40.2862000196644" lon="8.725461935873085"><ele>629.5</ele><time>2026-05-02T14:57:11.001Z</time></trkpt><trkpt lat="40.28616136015659" lon="8.725937771988741"><ele>628.0</ele><time>2026-05-02T14:57:12.001Z</time></trkpt><trkpt lat="40.286126908544844" lon="8.726412905402672"><ele>624.0</ele><time>2026-05-02T14:57:13.001Z</time></trkpt><trkpt lat="40.28609449778644" lon="8.726886230397927"><ele>620.0</ele><time>2026-05-02T14:57:14.001Z</time></trkpt><trkpt lat="40.28605488128134" lon="8.7273572552182"><ele>619.0</ele><time>2026-05-02T14:57:15.001Z</time></trkpt><trkpt lat="40.286016272788245" lon="8.727822439113902"><ele>618.0</ele><time>2026-05-02T14:57:16.001Z</time></trkpt><trkpt lat="40.28597678567638" lon="8.728293796584772"><ele>618.0</ele><time>2026-05-02T14:57:17.001Z</time></trkpt><trkpt lat="40.28593978149082" lon="8.728764083964263"><ele>618.0</ele><time>2026-05-02T14:57:18.001Z</time></trkpt><trkpt lat="40.285902695854205" lon="8.72923711549166"><ele>618.0</ele><time>2026-05-02T14:57:19.001Z</time></trkpt><trkpt lat="40.285862387125" lon="8.729711410455591"><ele>618.0</ele><time>2026-05-02T14:57:20.001Z</time></trkpt><trkpt lat="40.2858236839516" lon="8.730184245606052"><ele>618.5</ele><time>2026-05-02T14:57:21.001Z</time></trkpt><trkpt lat="40.28578455184459" lon="8.73065645038779"><ele>619.0</ele><time>2026-05-02T14:57:22.001Z</time></trkpt><trkpt lat="40.285745908141166" lon="8.731124483635984"><ele>620.0</ele><time>2026-05-02T14:57:23.001Z</time></trkpt><trkpt lat="40.28571067661623" lon="8.731595321258382"><ele>621.0</ele><time>2026-05-02T14:57:24.001Z</time></trkpt><trkpt lat="40.285674416080916" lon="8.73206559596445"><ele>621.5</ele><time>2026-05-02T14:57:25.001Z</time></trkpt><trkpt lat="40.28563385050935" lon="8.73253786341135"><ele>622.0</ele><time>2026-05-02T14:57:26.001Z</time></trkpt><trkpt lat="40.2855919389271" lon="8.733007983699913"><ele>623.5</ele><time>2026-05-02T14:57:27.001Z</time></trkpt><trkpt lat="40.28555634150457" lon="8.733478461007454"><ele>625.0</ele><time>2026-05-02T14:57:28.001Z</time></trkpt><trkpt lat="40.28551763357981" lon="8.733949224415946"><ele>625.0</ele><time>2026-05-02T14:57:29.001Z</time></trkpt><trkpt lat="40.285482793491305" lon="8.734424707725067"><ele>625.0</ele><time>2026-05-02T14:57:30.001Z</time></trkpt><trkpt lat="40.28545228099657" lon="8.734900574963977"><ele>626.5</ele><time>2026-05-02T14:57:31.001Z</time></trkpt><trkpt lat="40.28541438668718" lon="8.735375511181182"><ele>628.0</ele><time>2026-05-02T14:57:32.001Z</time></trkpt><trkpt lat="40.28537669130166" lon="8.735846570311336"><ele>627.5</ele><time>2026-05-02T14:57:33.001Z</time></trkpt><trkpt lat="40.285334462557515" lon="8.7363211000479"><ele>627.0</ele><time>2026-05-02T14:57:34.001Z</time></trkpt><trkpt lat="40.285292569678994" lon="8.736791937844323"><ele>626.5</ele><time>2026-05-02T14:57:35.001Z</time></trkpt><trkpt lat="40.285256253081556" lon="8.737267190456851"><ele>626.0</ele><time>2026-05-02T14:57:36.001Z</time></trkpt><trkpt lat="40.28521669560657" lon="8.737737132524838"><ele>628.0</ele><time>2026-05-02T14:57:37.001Z</time></trkpt><trkpt lat="40.28517559766646" lon="8.738205827041854"><ele>630.0</ele><time>2026-05-02T14:57:38.001Z</time></trkpt><trkpt lat="40.285138724958294" lon="8.738673674111938"><ele>631.0</ele><time>2026-05-02T14:57:39.001Z</time></trkpt><trkpt lat="40.28510542546389" lon="8.739140695397007"><ele>632.0</ele><time>2026-05-02T14:57:40.001Z</time></trkpt><trkpt lat="40.28507032455116" lon="8.739607936781569"><ele>634.0</ele><time>2026-05-02T14:57:41.001Z</time></trkpt><trkpt lat="40.28502857144783" lon="8.7400767547325"><ele>636.0</ele><time>2026-05-02T14:57:42.001Z</time></trkpt><trkpt lat="40.284995389516965" lon="8.740549232566904"><ele>637.5</ele><time>2026-05-02T14:57:43.001Z</time></trkpt><trkpt lat="40.28495714270586" lon="8.741016730433298"><ele>639.0</ele><time>2026-05-02T14:57:44.001Z</time></trkpt><trkpt lat="40.2849165953907" lon="8.741485476426421"><ele>639.5</ele><time>2026-05-02T14:57:45.001Z</time></trkpt><trkpt lat="40.284875769491244" lon="8.741958743783334"><ele>640.0</ele><time>2026-05-02T14:57:46.001Z</time></trkpt><trkpt lat="40.284844781657384" lon="8.742433779581642"><ele>641.5</ele><time>2026-05-02T14:57:47.001Z</time></trkpt><trkpt lat="40.28480579998281" lon="8.742911404453341"><ele>643.0</ele><time>2026-05-02T14:57:48.001Z</time></trkpt><trkpt lat="40.284762542544954" lon="8.743384639415709"><ele>645.5</ele><time>2026-05-02T14:57:49.001Z</time></trkpt><trkpt lat="40.28472539717311" lon="8.74385603169825"><ele>648.0</ele><time>2026-05-02T14:57:50.001Z</time></trkpt><trkpt lat="40.28468475885583" lon="8.744323113894158"><ele>648.0</ele><time>2026-05-02T14:57:51.001Z</time></trkpt><trkpt lat="40.28464869471986" lon="8.74477886290845"><ele>648.0</ele><time>2026-05-02T14:57:52.001Z</time></trkpt><trkpt lat="40.28460733806389" lon="8.745229348599926"><ele>648.0</ele><time>2026-05-02T14:57:53.001Z</time></trkpt><trkpt lat="40.284559256470146" lon="8.745680971960615"><ele>648.0</ele><time>2026-05-02T14:57:54.001Z</time></trkpt><trkpt lat="40.28449504548017" lon="8.746122026468761"><ele>648.5</ele><time>2026-05-02T14:57:55.001Z</time></trkpt><trkpt lat="40.28442537286375" lon="8.74655845761165"><ele>649.0</ele><time>2026-05-02T14:57:56.001Z</time></trkpt><trkpt lat="40.28432678951672" lon="8.746984662456324"><ele>649.0</ele><time>2026-05-02T14:57:57.001Z</time></trkpt><trkpt lat="40.28421255589131" lon="8.747412546073853"><ele>649.0</ele><time>2026-05-02T14:57:58.001Z</time></trkpt><trkpt lat="40.28408105652811" lon="8.747844380990813"><ele>649.0</ele><time>2026-05-02T14:57:59.001Z</time></trkpt><trkpt lat="40.28395710319616" lon="8.748277840012825"><ele>649.0</ele><time>2026-05-02T14:58:00.001Z</time></trkpt><trkpt lat="40.28383467975679" lon="8.748680233449862"><ele>647.0</ele><time>2026-05-02T14:58:01.001Z</time></trkpt><trkpt lat="40.283723760086374" lon="8.749059518947762"><ele>645.0</ele><time>2026-05-02T14:58:02.001Z</time></trkpt><trkpt lat="40.28361931185081" lon="8.749409304490456"><ele>644.6666666666666</ele><time>2026-05-02T14:58:03.001Z</time></trkpt><trkpt lat="40.28353610287806" lon="8.749709036906363"><ele>644.3333333333333</ele><time>2026-05-02T14:58:04.001Z</time></trkpt><trkpt lat="40.28347100528482" lon="8.749961322010785"><ele>644.0</ele><time>2026-05-02T14:58:05.001Z</time></trkpt><trkpt lat="40.28339063968825" lon="8.750182534251067"><ele>644.25</ele><time>2026-05-02T14:58:06.001Z</time></trkpt><trkpt lat="40.28333838318671" lon="8.75039380464927"><ele>644.5</ele><time>2026-05-02T14:58:07.001Z</time></trkpt><trkpt lat="40.283300274101876" lon="8.750545627990746"><ele>644.75</ele><time>2026-05-02T14:58:08.001Z</time></trkpt><trkpt lat="40.28325742382915" lon="8.750691800280059"><ele>645.0</ele><time>2026-05-02T14:58:09.001Z</time></trkpt><trkpt lat="40.283205842614855" lon="8.750847859439613"><ele>645.0</ele><time>2026-05-02T14:58:10.001Z</time></trkpt><trkpt lat="40.28314699841747" lon="8.751039521367732"><ele>645.0</ele><time>2026-05-02T14:58:11.001Z</time></trkpt><trkpt lat="40.283087522893204" lon="8.751250249644684"><ele>645.0</ele><time>2026-05-02T14:58:12.001Z</time></trkpt><trkpt lat="40.28302166132483" lon="8.751465737996075"><ele>643.3333333333334</ele><time>2026-05-02T14:58:13.001Z</time></trkpt><trkpt lat="40.282965053230505" lon="8.75167247116838"><ele>641.6666666666667</ele><time>2026-05-02T14:58:14.001Z</time></trkpt><trkpt lat="40.282908166368706" lon="8.751870976148862"><ele>640.0</ele><time>2026-05-02T14:58:15.001Z</time></trkpt><trkpt lat="40.2828512124484" lon="8.752075799878874"><ele>640.0</ele><time>2026-05-02T14:58:16.001Z</time></trkpt><trkpt lat="40.282774231049245" lon="8.752287742199373"><ele>640.0</ele><time>2026-05-02T14:58:17.001Z</time></trkpt><trkpt lat="40.28268355811725" lon="8.752492242773824"><ele>640.0</ele><time>2026-05-02T14:58:18.001Z</time></trkpt><trkpt lat="40.28257573336239" lon="8.75268363358646"><ele>641.0</ele><time>2026-05-02T14:58:19.001Z</time></trkpt><trkpt lat="40.28243005836556" lon="8.752851299933502"><ele>642.0</ele><time>2026-05-02T14:58:20.001Z</time></trkpt><trkpt lat="40.28227836576196" lon="8.7529843743167"><ele>643.0</ele><time>2026-05-02T14:58:21.001Z</time></trkpt><trkpt lat="40.28211842410897" lon="8.75312063880802"><ele>640.6666666666667</ele><time>2026-05-02T14:58:22.001Z</time></trkpt><trkpt lat="40.28193850544871" lon="8.753228176001237"><ele>638.3333333333334</ele><time>2026-05-02T14:58:23.001Z</time></trkpt><trkpt lat="40.28174541676857" lon="8.753302094277444"><ele>636.0</ele><time>2026-05-02T14:58:24.001Z</time></trkpt><trkpt lat="40.28154367444971" lon="8.753350809175776"><ele>634.3333333333334</ele><time>2026-05-02T14:58:25.001Z</time></trkpt><trkpt lat="40.281335873051525" lon="8.753405031369134"><ele>632.6666666666667</ele><time>2026-05-02T14:58:26.001Z</time></trkpt><trkpt lat="40.281122883636705" lon="8.753453481772228"><ele>631.0</ele><time>2026-05-02T14:58:27.001Z</time></trkpt><trkpt lat="40.28090983707659" lon="8.753497876026673"><ele>631.0</ele><time>2026-05-02T14:58:28.001Z</time></trkpt><trkpt lat="40.28071024861264" lon="8.753547194743444"><ele>631.0</ele><time>2026-05-02T14:58:29.001Z</time></trkpt><trkpt lat="40.28052445486316" lon="8.753594113389608"><ele>631.0</ele><time>2026-05-02T14:58:30.001Z</time></trkpt><trkpt lat="40.28032652317437" lon="8.753644057448117"><ele>631.0</ele><time>2026-05-02T14:58:31.001Z</time></trkpt><trkpt lat="40.280120997838445" lon="8.753690493529751"><ele>631.0</ele><time>2026-05-02T14:58:32Z</time></trkpt><trkpt lat="40.279912182477126" lon="8.75373645694976"><ele>631.0</ele><time>2026-05-02T14:58:33Z</time></trkpt><trkpt lat="40.27970166648248" lon="8.753785437895345"><ele>630.0</ele><time>2026-05-02T14:58:34Z</time></trkpt><trkpt lat="40.279486695426286" lon="8.753831773618973"><ele>629.0</ele><time>2026-05-02T14:58:35Z</time></trkpt><trkpt lat="40.27928645776615" lon="8.753875604464929"><ele>628.0</ele><time>2026-05-02T14:58:36Z</time></trkpt><trkpt lat="40.27909854532948" lon="8.753915280714446"><ele>628.75</ele><time>2026-05-02T14:58:37Z</time></trkpt><trkpt lat="40.27892112839847" lon="8.753952192818366"><ele>629.5</ele><time>2026-05-02T14:58:38Z</time></trkpt><trkpt lat="40.27877837526534" lon="8.75399602163949"><ele>630.25</ele><time>2026-05-02T14:58:39Z</time></trkpt><trkpt lat="40.27869101293889" lon="8.75406018481509"><ele>631.0</ele><time>2026-05-02T14:58:40Z</time></trkpt><trkpt lat="40.2786644223559" lon="8.754147286223033"><ele>631.0</ele><time>2026-05-02T14:58:41Z</time></trkpt><trkpt lat="40.278689273111205" lon="8.754268430464995"><ele>631.0</ele><time>2026-05-02T14:58:42Z</time></trkpt><trkpt lat="40.27873397711918" lon="8.754439866679109"><ele>631.0</ele><time>2026-05-02T14:58:43Z</time></trkpt><trkpt lat="40.27879118848767" lon="8.75464088925055"><ele>631.0</ele><time>2026-05-02T14:58:44Z</time></trkpt><trkpt lat="40.27885273337318" lon="8.754880508752661"><ele>631.3333333333334</ele><time>2026-05-02T14:58:45Z</time></trkpt><trkpt lat="40.27889445844587" lon="8.75513845051795"><ele>631.6666666666666</ele><time>2026-05-02T14:58:46Z</time></trkpt><trkpt lat="40.278911729173906" lon="8.755385139896417"><ele>632.0</ele><time>2026-05-02T14:58:47Z</time></trkpt><trkpt lat="40.27890577271192" lon="8.755647129167052"><ele>628.5</ele><time>2026-05-02T14:58:48Z</time></trkpt><trkpt lat="40.27889034428886" lon="8.755944302619316"><ele>625.0</ele><time>2026-05-02T14:58:49Z</time></trkpt><trkpt lat="40.27887194972253" lon="8.756253380023672"><ele>622.0</ele><time>2026-05-02T14:58:50Z</time></trkpt><trkpt lat="40.27885504743475" lon="8.756564108061893"><ele>619.0</ele><time>2026-05-02T14:58:51Z</time></trkpt><trkpt lat="40.27883891617188" lon="8.756867847861397"><ele>618.0</ele><time>2026-05-02T14:58:52Z</time></trkpt><trkpt lat="40.27882142346978" lon="8.757178621463028"><ele>617.0</ele><time>2026-05-02T14:58:53Z</time></trkpt><trkpt lat="40.27881906211676" lon="8.75749140607524"><ele>616.5</ele><time>2026-05-02T14:58:54Z</time></trkpt><trkpt lat="40.27880262525293" lon="8.757810384079725"><ele>616.0</ele><time>2026-05-02T14:58:55Z</time></trkpt><trkpt lat="40.27876956679649" lon="8.75811606567795"><ele>616.0</ele><time>2026-05-02T14:58:56Z</time></trkpt><trkpt lat="40.27875305872758" lon="8.758407203408389"><ele>616.0</ele><time>2026-05-02T14:58:57Z</time></trkpt><trkpt lat="40.27875299412503" lon="8.758661142658134"><ele>616.0</ele><time>2026-05-02T14:58:58Z</time></trkpt><trkpt lat="40.2787184172788" lon="8.758855267864813"><ele>616.0</ele><time>2026-05-02T14:58:59Z</time></trkpt><trkpt lat="40.27868577146323" lon="8.758971130639535"><ele>616.0</ele><time>2026-05-02T14:59:00Z</time></trkpt><trkpt lat="40.27860307353178" lon="8.758988032148261"><ele>616.0</ele><time>2026-05-02T14:59:01Z</time></trkpt><trkpt lat="40.27850720134034" lon="8.759022711179716"><ele>616.0</ele><time>2026-05-02T14:59:02Z</time></trkpt><trkpt lat="40.278415969926215" lon="8.759128188912499"><ele>616.0</ele><time>2026-05-02T14:59:03Z</time></trkpt><trkpt lat="40.2783720275753" lon="8.75929808804091"><ele>614.6666666666667</ele><time>2026-05-02T14:59:04Z</time></trkpt><trkpt lat="40.27831119400718" lon="8.759478575609183"><ele>613.3333333333334</ele><time>2026-05-02T14:59:05Z</time></trkpt><trkpt lat="40.278195013712626" lon="8.759607514801734"><ele>612.0</ele><time>2026-05-02T14:59:06Z</time></trkpt><trkpt lat="40.278066544563146" lon="8.759743881888715"><ele>611.75</ele><time>2026-05-02T14:59:07Z</time></trkpt><trkpt lat="40.27795220488825" lon="8.759872008393069"><ele>611.5</ele><time>2026-05-02T14:59:08Z</time></trkpt><trkpt lat="40.27786916841292" lon="8.7600228927757"><ele>611.25</ele><time>2026-05-02T14:59:09Z</time></trkpt><trkpt lat="40.27783204182852" lon="8.760186102068195"><ele>611.0</ele><time>2026-05-02T14:59:10Z</time></trkpt><trkpt lat="40.27785133584354" lon="8.760382803250861"><ele>609.3333333333333</ele><time>2026-05-02T14:59:11Z</time></trkpt><trkpt lat="40.277923088152576" lon="8.760599220577694"><ele>607.6666666666666</ele><time>2026-05-02T14:59:12Z</time></trkpt><trkpt lat="40.27802457095107" lon="8.760808981876355"><ele>606.0</ele><time>2026-05-02T14:59:13Z</time></trkpt><trkpt lat="40.27814123971138" lon="8.761040327446286"><ele>604.6666666666666</ele><time>2026-05-02T14:59:14Z</time></trkpt><trkpt lat="40.27823155310264" lon="8.761292011557279"><ele>603.3333333333333</ele><time>2026-05-02T14:59:15Z</time></trkpt><trkpt lat="40.27833601095899" lon="8.761543958103685"><ele>602.0</ele><time>2026-05-02T14:59:16Z</time></trkpt><trkpt lat="40.278434452091666" lon="8.76178139264818"><ele>603.0</ele><time>2026-05-02T14:59:17Z</time></trkpt><trkpt lat="40.27852653717197" lon="8.7620043167794"><ele>604.0</ele><time>2026-05-02T14:59:18Z</time></trkpt><trkpt lat="40.27862639654554" lon="8.762216342971561"><ele>605.0</ele><time>2026-05-02T14:59:19Z</time></trkpt><trkpt lat="40.27871915168911" lon="8.762447582075026"><ele>605.0</ele><time>2026-05-02T14:59:20Z</time></trkpt><trkpt lat="40.278815158629016" lon="8.762679177612917"><ele>605.0</ele><time>2026-05-02T14:59:21Z</time></trkpt><trkpt lat="40.27891126600369" lon="8.762904040153892"><ele>605.0</ele><time>2026-05-02T14:59:22Z</time></trkpt><trkpt lat="40.279004487725224" lon="8.763130820748811"><ele>601.6666666666666</ele><time>2026-05-02T14:59:23Z</time></trkpt><trkpt lat="40.27906248090008" lon="8.763352184577728"><ele>598.3333333333334</ele><time>2026-05-02T14:59:24Z</time></trkpt><trkpt lat="40.2790932346381" lon="8.763550703109892"><ele>595.0</ele><time>2026-05-02T14:59:25Z</time></trkpt><trkpt lat="40.279046415480344" lon="8.76372967969976"><ele>595.0</ele><time>2026-05-02T14:59:26Z</time></trkpt><trkpt lat="40.27898512929893" lon="8.763981187289597"><ele>595.0</ele><time>2026-05-02T14:59:27Z</time></trkpt><trkpt lat="40.27893226196376" lon="8.764227609981624"><ele>595.0</ele><time>2026-05-02T14:59:28Z</time></trkpt><trkpt lat="40.2789076984162" lon="8.76442855767149"><ele>593.8</ele><time>2026-05-02T14:59:29Z</time></trkpt><trkpt lat="40.278888532383476" lon="8.764581593237118"><ele>592.6</ele><time>2026-05-02T14:59:30Z</time></trkpt><trkpt lat="40.2789276565537" lon="8.764656104150552"><ele>591.4</ele><time>2026-05-02T14:59:31Z</time></trkpt><trkpt lat="40.27898213304792" lon="8.764708712893016"><ele>590.2</ele><time>2026-05-02T14:59:32Z</time></trkpt><trkpt lat="40.27906517906901" lon="8.764828364762794"><ele>589.0</ele><time>2026-05-02T14:59:33Z</time></trkpt><trkpt lat="40.279094064586076" lon="8.764979736089343"><ele>586.6666666666667</ele><time>2026-05-02T14:59:34Z</time></trkpt><trkpt lat="40.279055542970056" lon="8.765205129192282"><ele>584.3333333333334</ele><time>2026-05-02T14:59:35Z</time></trkpt><trkpt lat="40.27904970009352" lon="8.765479664587433"><ele>582.0</ele><time>2026-05-02T14:59:36Z</time></trkpt><trkpt lat="40.279043641248016" lon="8.765737037463042"><ele>582.0</ele><time>2026-05-02T14:59:37Z</time></trkpt><trkpt lat="40.27903938687344" lon="8.765945138403348"><ele>582.0</ele><time>2026-05-02T14:59:38Z</time></trkpt><trkpt lat="40.2790352482442" lon="8.766131980691554"><ele>582.0</ele><time>2026-05-02T14:59:39Z</time></trkpt><trkpt lat="40.27903070951367" lon="8.766312143270198"><ele>582.0</ele><time>2026-05-02T14:59:40Z</time></trkpt><trkpt lat="40.279024624906086" lon="8.76647109282938"><ele>580.75</ele><time>2026-05-02T14:59:41Z</time></trkpt><trkpt lat="40.27901963212918" lon="8.766570760628147"><ele>579.5</ele><time>2026-05-02T14:59:42Z</time></trkpt><trkpt lat="40.27901532527727" lon="8.766656735790763"><ele>578.25</ele><time>2026-05-02T14:59:44Z</time></trkpt><trkpt lat="40.27901247189896" lon="8.76674637506948"><ele>577.0</ele><time>2026-05-02T14:59:49Z</time></trkpt><trkpt lat="40.27928448950621" lon="8.766766768710973"><ele>577.0</ele><time>2026-05-02T14:59:55Z</time></trkpt><trkpt lat="40.279362400050005" lon="8.76677722088803"><ele>577.0</ele><time>2026-05-02T14:59:56Z</time></trkpt><trkpt lat="40.279426165406015" lon="8.766788284509506"><ele>577.0</ele><time>2026-05-02T14:59:57Z</time></trkpt><trkpt lat="40.279536986823636" lon="8.766807004219451"><ele>577.0</ele><time>2026-05-02T14:59:59Z</time></trkpt><trkpt lat="40.279650729046196" lon="8.766820678373888"><ele>577.0</ele><time>2026-05-02T15:00:01Z</time></trkpt><trkpt lat="40.27973724172834" lon="8.766833593548439"><ele>577.5</ele><time>2026-05-02T15:00:02Z</time></trkpt><trkpt lat="40.279852347071426" lon="8.766843559530884"><ele>578.0</ele><time>2026-05-02T15:00:03Z</time></trkpt><trkpt lat="40.27993309998646" lon="8.766854470607452"><ele>578.5</ele><time>2026-05-02T15:00:05Z</time></trkpt><trkpt lat="40.2800145295686" lon="8.766858570609756"><ele>579.0</ele><time>2026-05-02T15:00:08Z</time></trkpt><trkpt lat="40.280086469902585" lon="8.766875693715795"><ele>579.5</ele><time>2026-05-02T15:00:11Z</time></trkpt><trkpt lat="40.28015161285532" lon="8.76688506017938"><ele>580.0</ele><time>2026-05-02T15:00:14Z</time></trkpt><trkpt lat="40.280242798404" lon="8.766907270540045"><ele>580.0</ele><time>2026-05-02T15:00:16Z</time></trkpt><trkpt lat="40.28031972895309" lon="8.766909555900178"><ele>580.0</ele><time>2026-05-02T15:00:18Z</time></trkpt><trkpt lat="40.280432603348316" lon="8.766924002121474"><ele>580.0</ele><time>2026-05-02T15:00:20Z</time></trkpt><trkpt lat="40.28049614929839" lon="8.76692307839677"><ele>580.0</ele><time>2026-05-02T15:00:21Z</time></trkpt><trkpt lat="40.28056256386907" lon="8.766928542810806"><ele>580.0</ele><time>2026-05-02T15:00:22Z</time></trkpt><trkpt lat="40.28064746681659" lon="8.766932432493265"><ele>580.0</ele><time>2026-05-02T15:00:23Z</time></trkpt><trkpt lat="40.280728038567034" lon="8.766935442691139"><ele>580.5</ele><time>2026-05-02T15:00:24Z</time></trkpt><trkpt lat="40.28081194463646" lon="8.766949046621091"><ele>581.0</ele><time>2026-05-02T15:00:25Z</time></trkpt><trkpt lat="40.28088146125995" lon="8.766958316456906"><ele>581.5</ele><time>2026-05-02T15:00:26Z</time></trkpt><trkpt lat="40.281004793562786" lon="8.7669846327677"><ele>582.0</ele><time>2026-05-02T15:00:28Z</time></trkpt><trkpt lat="40.281074584390254" lon="8.766995741844925"><ele>582.5</ele><time>2026-05-02T15:00:29Z</time></trkpt><trkpt lat="40.281144307979666" lon="8.767013767506347"><ele>583.0</ele><time>2026-05-02T15:00:30Z</time></trkpt><trkpt lat="40.281216412165925" lon="8.76703750437893"><ele>583.0</ele><time>2026-05-02T15:00:31Z</time></trkpt><trkpt lat="40.281300127188345" lon="8.767070489513813"><ele>583.0</ele><time>2026-05-02T15:00:32Z</time></trkpt><trkpt lat="40.28139949606093" lon="8.767106873025252"><ele>583.0</ele><time>2026-05-02T15:00:33Z</time></trkpt><trkpt lat="40.28151653544099" lon="8.767147955328712"><ele>583.0</ele><time>2026-05-02T15:00:34Z</time></trkpt><trkpt lat="40.28163304313263" lon="8.767199131215444"><ele>583.0</ele><time>2026-05-02T15:00:35Z</time></trkpt><trkpt lat="40.28177424905705" lon="8.7672612813375"><ele>584.6666666666667</ele><time>2026-05-02T15:00:36Z</time></trkpt><trkpt lat="40.28192584745685" lon="8.767330343008542"><ele>586.3333333333334</ele><time>2026-05-02T15:00:37Z</time></trkpt><trkpt lat="40.2820804214641" lon="8.76741586120587"><ele>588.0</ele><time>2026-05-02T15:00:38Z</time></trkpt><trkpt lat="40.28223911096469" lon="8.76750092807098"><ele>589.6666666666666</ele><time>2026-05-02T15:00:39Z</time></trkpt><trkpt lat="40.28239981585167" lon="8.767579595098631"><ele>591.3333333333333</ele><time>2026-05-02T15:00:40Z</time></trkpt><trkpt lat="40.282564130316494" lon="8.767646370583515"><ele>593.0</ele><time>2026-05-02T15:00:41Z</time></trkpt><trkpt lat="40.28273720583978" lon="8.767731896345339"><ele>593.0</ele><time>2026-05-02T15:00:42Z</time></trkpt><trkpt lat="40.282925178383955" lon="8.767793459741096"><ele>593.0</ele><time>2026-05-02T15:00:43Z</time></trkpt><trkpt lat="40.283114147950386" lon="8.767837593121003"><ele>593.0</ele><time>2026-05-02T15:00:44Z</time></trkpt><trkpt lat="40.28330354487752" lon="8.767904287373355"><ele>593.6666666666666</ele><time>2026-05-02T15:00:45Z</time></trkpt><trkpt lat="40.28349470722485" lon="8.767982636263715"><ele>594.3333333333334</ele><time>2026-05-02T15:00:46Z</time></trkpt><trkpt lat="40.283689327292" lon="8.768066112297742"><ele>595.0</ele><time>2026-05-02T15:00:47Z</time></trkpt><trkpt lat="40.28387971313374" lon="8.76814756785032"><ele>597.6666666666667</ele><time>2026-05-02T15:00:48Z</time></trkpt><trkpt lat="40.284073394184546" lon="8.768229768362326"><ele>600.3333333333334</ele><time>2026-05-02T15:00:49Z</time></trkpt><trkpt lat="40.284262664323855" lon="8.768306185150871"><ele>603.0</ele><time>2026-05-02T15:00:50Z</time></trkpt><trkpt lat="40.284453184167695" lon="8.768390930740814"><ele>603.0</ele><time>2026-05-02T15:00:51Z</time></trkpt><trkpt lat="40.28463789047923" lon="8.768501369678289"><ele>603.0</ele><time>2026-05-02T15:00:52Z</time></trkpt><trkpt lat="40.28480082748154" lon="8.768630850814318"><ele>603.0</ele><time>2026-05-02T15:00:53Z</time></trkpt><trkpt lat="40.284942620158745" lon="8.768796923880155"><ele>603.0</ele><time>2026-05-02T15:00:54Z</time></trkpt><trkpt lat="40.2850770804769" lon="8.769001979626257"><ele>603.0</ele><time>2026-05-02T15:00:55Z</time></trkpt><trkpt lat="40.28518022503439" lon="8.769247415317006"><ele>603.0</ele><time>2026-05-02T15:00:56Z</time></trkpt><trkpt lat="40.285278073956704" lon="8.76948072038892"><ele>603.0</ele><time>2026-05-02T15:00:57Z</time></trkpt><trkpt lat="40.28537095707499" lon="8.769686674453483"><ele>603.0</ele><time>2026-05-02T15:00:58Z</time></trkpt><trkpt lat="40.285473006104084" lon="8.76989432283192"><ele>603.0</ele><time>2026-05-02T15:00:59Z</time></trkpt><trkpt lat="40.2855737554694" lon="8.77009693025416"><ele>605.3333333333334</ele><time>2026-05-02T15:01:00Z</time></trkpt><trkpt lat="40.28566971464463" lon="8.77029484432598"><ele>607.6666666666667</ele><time>2026-05-02T15:01:01Z</time></trkpt><trkpt lat="40.28576708697021" lon="8.770471170461386"><ele>610.0</ele><time>2026-05-02T15:01:02Z</time></trkpt><trkpt lat="40.285880552095854" lon="8.770626044108585"><ele>610.0</ele><time>2026-05-02T15:01:03Z</time></trkpt><trkpt lat="40.28600857874552" lon="8.770734433633425"><ele>610.0</ele><time>2026-05-02T15:01:04Z</time></trkpt><trkpt lat="40.28613805275167" lon="8.770817667797091"><ele>610.0</ele><time>2026-05-02T15:01:05Z</time></trkpt><trkpt lat="40.286260747996586" lon="8.770908684546741"><ele>610.0</ele><time>2026-05-02T15:01:06Z</time></trkpt><trkpt lat="40.28641153981727" lon="8.771017152856285"><ele>611.0</ele><time>2026-05-02T15:01:07Z</time></trkpt><trkpt lat="40.2865772394205" lon="8.77113182443895"><ele>612.0</ele><time>2026-05-02T15:01:08Z</time></trkpt><trkpt lat="40.28675220638197" lon="8.771240544380523"><ele>613.0</ele><time>2026-05-02T15:01:09Z</time></trkpt><trkpt lat="40.286939013324556" lon="8.771333849196173"><ele>613.0</ele><time>2026-05-02T15:01:10Z</time></trkpt><trkpt lat="40.287123247232074" lon="8.771422535233802"><ele>613.0</ele><time>2026-05-02T15:01:11Z</time></trkpt><trkpt lat="40.28730075249306" lon="8.771496601444348"><ele>613.0</ele><time>2026-05-02T15:01:12Z</time></trkpt><trkpt lat="40.28748168236821" lon="8.771571185843515"><ele>615.0</ele><time>2026-05-02T15:01:13Z</time></trkpt><trkpt lat="40.2876666616501" lon="8.771645513179859"><ele>617.0</ele><time>2026-05-02T15:01:14Z</time></trkpt><trkpt lat="40.28786268297221" lon="8.771720711528005"><ele>619.0</ele><time>2026-05-02T15:01:15Z</time></trkpt><trkpt lat="40.28806161650047" lon="8.771782887168593"><ele>620.0</ele><time>2026-05-02T15:01:16Z</time></trkpt><trkpt lat="40.28824786568352" lon="8.771821038795952"><ele>621.0</ele><time>2026-05-02T15:01:17Z</time></trkpt><trkpt lat="40.28841189979277" lon="8.771879922259034"><ele>622.0</ele><time>2026-05-02T15:01:18Z</time></trkpt><trkpt lat="40.288544733305656" lon="8.771992493908359"><ele>622.0</ele><time>2026-05-02T15:01:19Z</time></trkpt><trkpt lat="40.288656190171565" lon="8.772167433824663"><ele>622.0</ele><time>2026-05-02T15:01:20Z</time></trkpt><trkpt lat="40.28872613411638" lon="8.77238088718995"><ele>622.0</ele><time>2026-05-02T15:01:21Z</time></trkpt><trkpt lat="40.28878416652378" lon="8.7726003255891"><ele>621.3333333333334</ele><time>2026-05-02T15:01:22Z</time></trkpt><trkpt lat="40.28885600882618" lon="8.772805260322613"><ele>620.6666666666666</ele><time>2026-05-02T15:01:23Z</time></trkpt><trkpt lat="40.28895851646218" lon="8.772981122882296"><ele>620.0</ele><time>2026-05-02T15:01:24Z</time></trkpt><trkpt lat="40.28908442782082" lon="8.773135814948308"><ele>622.3333333333333</ele><time>2026-05-02T15:01:25Z</time></trkpt><trkpt lat="40.289229676247395" lon="8.773284464309917"><ele>624.6666666666666</ele><time>2026-05-02T15:01:26Z</time></trkpt><trkpt lat="40.28937796062171" lon="8.773419362651893"><ele>627.0</ele><time>2026-05-02T15:01:27Z</time></trkpt><trkpt lat="40.28951706548101" lon="8.773570103528556"><ele>627.0</ele><time>2026-05-02T15:01:28Z</time></trkpt><trkpt lat="40.289652599254644" lon="8.773730792318997"><ele>627.0</ele><time>2026-05-02T15:01:29Z</time></trkpt><trkpt lat="40.28979030632628" lon="8.773920101696994"><ele>627.0</ele><time>2026-05-02T15:01:30Z</time></trkpt><trkpt lat="40.28991776441413" lon="8.774136406307676"><ele>630.0</ele><time>2026-05-02T15:01:31Z</time></trkpt><trkpt lat="40.29003643839015" lon="8.774367515724942"><ele>633.0</ele><time>2026-05-02T15:01:32Z</time></trkpt><trkpt lat="40.29015644719798" lon="8.774592520325502"><ele>636.0</ele><time>2026-05-02T15:01:33Z</time></trkpt><trkpt lat="40.29028066459742" lon="8.774804954146104"><ele>636.0</ele><time>2026-05-02T15:01:34Z</time></trkpt><trkpt lat="40.29040070885098" lon="8.775013332588049"><ele>636.0</ele><time>2026-05-02T15:01:35Z</time></trkpt><trkpt lat="40.29050855705945" lon="8.775213177856413"><ele>636.0</ele><time>2026-05-02T15:01:36Z</time></trkpt><trkpt lat="40.29060315211093" lon="8.775440651273989"><ele>638.3333333333334</ele><time>2026-05-02T15:01:37Z</time></trkpt><trkpt lat="40.2906821422687" lon="8.775705888011146"><ele>640.6666666666667</ele><time>2026-05-02T15:01:38Z</time></trkpt><trkpt lat="40.290735797787434" lon="8.77595647021757"><ele>643.0</ele><time>2026-05-02T15:01:39Z</time></trkpt><trkpt lat="40.29075854197241" lon="8.776189879911607"><ele>643.0</ele><time>2026-05-02T15:01:40Z</time></trkpt><trkpt lat="40.290792462111895" lon="8.776414651890741"><ele>643.0</ele><time>2026-05-02T15:01:41Z</time></trkpt><trkpt lat="40.290846613329556" lon="8.776613999433373"><ele>643.0</ele><time>2026-05-02T15:01:42Z</time></trkpt><trkpt lat="40.29092836191859" lon="8.776781886964596"><ele>642.0</ele><time>2026-05-02T15:01:43Z</time></trkpt><trkpt lat="40.29104288000689" lon="8.776899629795446"><ele>641.0</ele><time>2026-05-02T15:01:44Z</time></trkpt><trkpt lat="40.29118449429443" lon="8.776967327171358"><ele>640.0</ele><time>2026-05-02T15:01:45Z</time></trkpt><trkpt lat="40.291337281627804" lon="8.77701159273239"><ele>640.0</ele><time>2026-05-02T15:01:46Z</time></trkpt><trkpt lat="40.291509014271014" lon="8.777060420834788"><ele>640.0</ele><time>2026-05-02T15:01:47Z</time></trkpt><trkpt lat="40.29168078915432" lon="8.777126742950186"><ele>640.0</ele><time>2026-05-02T15:01:48Z</time></trkpt><trkpt lat="40.29185697237195" lon="8.777197138654437"><ele>640.0</ele><time>2026-05-02T15:01:49Z</time></trkpt><trkpt lat="40.292035970466756" lon="8.777272509177553"><ele>640.0</ele><time>2026-05-02T15:01:50Z</time></trkpt><trkpt lat="40.292214655115664" lon="8.777339464214531"><ele>640.0</ele><time>2026-05-02T15:01:51Z</time></trkpt><trkpt lat="40.29239185584537" lon="8.777383213648875"><ele>640.6666666666667</ele><time>2026-05-02T15:01:52Z</time></trkpt><trkpt lat="40.29258427231436" lon="8.777391996506655"><ele>641.3333333333334</ele><time>2026-05-02T15:01:53Z</time></trkpt><trkpt lat="40.29278428929715" lon="8.777324482348728"><ele>642.0</ele><time>2026-05-02T15:01:54Z</time></trkpt><trkpt lat="40.29298372696841" lon="8.77724976958798"><ele>641.6666666666666</ele><time>2026-05-02T15:01:55Z</time></trkpt><trkpt lat="40.293167238638176" lon="8.77716846402857"><ele>641.3333333333333</ele><time>2026-05-02T15:01:56Z</time></trkpt><trkpt lat="40.293343079118664" lon="8.77708929891582"><ele>641.0</ele><time>2026-05-02T15:01:57Z</time></trkpt><trkpt lat="40.2935094611047" lon="8.77699858832346"><ele>641.0</ele><time>2026-05-02T15:01:58Z</time></trkpt><trkpt lat="40.29365566708888" lon="8.776865633419385"><ele>641.0</ele><time>2026-05-02T15:01:59Z</time></trkpt><trkpt lat="40.29377172642379" lon="8.776695610766536"><ele>641.0</ele><time>2026-05-02T15:02:00Z</time></trkpt><trkpt lat="40.293861295167524" lon="8.776486938871658"><ele>640.3333333333333</ele><time>2026-05-02T15:02:01Z</time></trkpt><trkpt lat="40.29395450951349" lon="8.776281623520443"><ele>639.6666666666666</ele><time>2026-05-02T15:02:02Z</time></trkpt><trkpt lat="40.29405991260162" lon="8.77609202421253"><ele>639.0</ele><time>2026-05-02T15:02:03Z</time></trkpt><trkpt lat="40.294178549580934" lon="8.775919963372806"><ele>641.25</ele><time>2026-05-02T15:02:04Z</time></trkpt><trkpt lat="40.29430161194194" lon="8.775768408787293"><ele>643.5</ele><time>2026-05-02T15:02:05Z</time></trkpt><trkpt lat="40.2944211794526" lon="8.775662699125549"><ele>645.75</ele><time>2026-05-02T15:02:06Z</time></trkpt><trkpt lat="40.294538193917425" lon="8.775641815595822"><ele>648.0</ele><time>2026-05-02T15:02:07Z</time></trkpt><trkpt lat="40.294656426461536" lon="8.775696315625744"><ele>648.0</ele><time>2026-05-02T15:02:08Z</time></trkpt><trkpt lat="40.29474770381303" lon="8.775844056090152"><ele>648.0</ele><time>2026-05-02T15:02:09Z</time></trkpt><trkpt lat="40.29482489970827" lon="8.776040333298749"><ele>648.0</ele><time>2026-05-02T15:02:10Z</time></trkpt><trkpt lat="40.29485345123473" lon="8.776250464196915"><ele>648.0</ele><time>2026-05-02T15:02:11Z</time></trkpt><trkpt lat="40.29492671437169" lon="8.776440921165863"><ele>648.0</ele><time>2026-05-02T15:02:12Z</time></trkpt><trkpt lat="40.29499316888806" lon="8.77664957708304"><ele>648.0</ele><time>2026-05-02T15:02:13Z</time></trkpt><trkpt lat="40.295072004916115" lon="8.776820954300245"><ele>646.3333333333334</ele><time>2026-05-02T15:02:14Z</time></trkpt><trkpt lat="40.29517615068168" lon="8.776954881899098"><ele>644.6666666666667</ele><time>2026-05-02T15:02:15Z</time></trkpt><trkpt lat="40.29531123330249" lon="8.777055156771794"><ele>643.0</ele><time>2026-05-02T15:02:16Z</time></trkpt><trkpt lat="40.29547316301108" lon="8.777103585495622"><ele>646.0</ele><time>2026-05-02T15:02:17Z</time></trkpt><trkpt lat="40.295659605213444" lon="8.777092631960011"><ele>649.0</ele><time>2026-05-02T15:02:18Z</time></trkpt><trkpt lat="40.29584117706184" lon="8.77707588958901"><ele>652.0</ele><time>2026-05-02T15:02:19Z</time></trkpt><trkpt lat="40.296029010945304" lon="8.77707802564017"><ele>652.0</ele><time>2026-05-02T15:02:20Z</time></trkpt><trkpt lat="40.29622590859626" lon="8.777106397163363"><ele>652.0</ele><time>2026-05-02T15:02:21Z</time></trkpt><trkpt lat="40.296402659067944" lon="8.777178940922443"><ele>652.0</ele><time>2026-05-02T15:02:22Z</time></trkpt><trkpt lat="40.29657815752946" lon="8.77721626350876"><ele>653.0</ele><time>2026-05-02T15:02:23Z</time></trkpt><trkpt lat="40.29674286541597" lon="8.77726976287887"><ele>654.0</ele><time>2026-05-02T15:02:24Z</time></trkpt><trkpt lat="40.29689021661658" lon="8.777317260101869"><ele>655.0</ele><time>2026-05-02T15:02:25Z</time></trkpt><trkpt lat="40.29701503088017" lon="8.777371172882347"><ele>655.0</ele><time>2026-05-02T15:02:26Z</time></trkpt><trkpt lat="40.29709531537926" lon="8.777445145367702"><ele>655.0</ele><time>2026-05-02T15:02:27Z</time></trkpt><trkpt lat="40.29711720236455" lon="8.777555328975794"><ele>655.0</ele><time>2026-05-02T15:02:28Z</time></trkpt><trkpt lat="40.29709029790219" lon="8.777671211399644"><ele>655.0</ele><time>2026-05-02T15:02:29Z</time></trkpt><trkpt lat="40.297028254113215" lon="8.777755169508406"><ele>655.0</ele><time>2026-05-02T15:02:30Z</time></trkpt><trkpt lat="40.29694806813957" lon="8.77781302431159"><ele>655.5</ele><time>2026-05-02T15:02:31Z</time></trkpt><trkpt lat="40.296835801325585" lon="8.777797353899953"><ele>656.0</ele><time>2026-05-02T15:02:32Z</time></trkpt><trkpt lat="40.29671195526212" lon="8.777745686896036"><ele>656.5</ele><time>2026-05-02T15:02:33Z</time></trkpt><trkpt lat="40.29656837293971" lon="8.777693340459095"><ele>657.0</ele><time>2026-05-02T15:02:34Z</time></trkpt><trkpt lat="40.29641313624627" lon="8.777658028361666"><ele>655.3333333333334</ele><time>2026-05-02T15:02:35Z</time></trkpt><trkpt lat="40.296249997937906" lon="8.777625401739193"><ele>653.6666666666667</ele><time>2026-05-02T15:02:36Z</time></trkpt><trkpt lat="40.296066940020026" lon="8.777592439928904"><ele>652.0</ele><time>2026-05-02T15:02:37Z</time></trkpt><trkpt lat="40.295884435282645" lon="8.777582132308662"><ele>652.0</ele><time>2026-05-02T15:02:38Z</time></trkpt><trkpt lat="40.29568258433853" lon="8.777581172236097"><ele>652.0</ele><time>2026-05-02T15:02:39Z</time></trkpt><trkpt lat="40.29546094085723" lon="8.777584928798431"><ele>652.0</ele><time>2026-05-02T15:02:40Z</time></trkpt><trkpt lat="40.29523969343016" lon="8.777583461471275"><ele>647.5</ele><time>2026-05-02T15:02:41Z</time></trkpt><trkpt lat="40.29501102160237" lon="8.777585941728768"><ele>643.0</ele><time>2026-05-02T15:02:42Z</time></trkpt><trkpt lat="40.29477673882355" lon="8.77759411535432"><ele>641.0</ele><time>2026-05-02T15:02:43Z</time></trkpt><trkpt lat="40.294534607408885" lon="8.777583156115233"><ele>639.0</ele><time>2026-05-02T15:02:44Z</time></trkpt><trkpt lat="40.29428026708327" lon="8.777557416640448"><ele>639.0</ele><time>2026-05-02T15:02:45Z</time></trkpt><trkpt lat="40.2940110763608" lon="8.777554197729206"><ele>639.0</ele><time>2026-05-02T15:02:46Z</time></trkpt><trkpt lat="40.293744866431645" lon="8.777553018158583"><ele>640.0</ele><time>2026-05-02T15:02:47Z</time></trkpt><trkpt lat="40.293472443629575" lon="8.777554346491868"><ele>641.0</ele><time>2026-05-02T15:02:48Z</time></trkpt><trkpt lat="40.29320961210813" lon="8.777542966381741"><ele>641.5</ele><time>2026-05-02T15:02:49Z</time></trkpt><trkpt lat="40.29295396714921" lon="8.777542654900166"><ele>642.0</ele><time>2026-05-02T15:02:50Z</time></trkpt><trkpt lat="40.292702167265176" lon="8.77753653841214"><ele>642.0</ele><time>2026-05-02T15:02:51Z</time></trkpt><trkpt lat="40.29245334504212" lon="8.777515641551945"><ele>642.0</ele><time>2026-05-02T15:02:52Z</time></trkpt><trkpt lat="40.292202189913326" lon="8.777480354794413"><ele>641.0</ele><time>2026-05-02T15:02:53Z</time></trkpt><trkpt lat="40.29195081471549" lon="8.777430737967423"><ele>640.0</ele><time>2026-05-02T15:02:54Z</time></trkpt><trkpt lat="40.291701073831184" lon="8.777351043877186"><ele>640.0</ele><time>2026-05-02T15:02:55Z</time></trkpt><trkpt lat="40.291454779939095" lon="8.777255742655548"><ele>640.0</ele><time>2026-05-02T15:02:56Z</time></trkpt><trkpt lat="40.291212512017424" lon="8.777150304620672"><ele>640.0</ele><time>2026-05-02T15:02:57Z</time></trkpt><trkpt lat="40.29097020995187" lon="8.777024710645597"><ele>640.0</ele><time>2026-05-02T15:02:58Z</time></trkpt><trkpt lat="40.29072598415015" lon="8.776873866517095"><ele>640.5</ele><time>2026-05-02T15:02:59Z</time></trkpt><trkpt lat="40.29049550592452" lon="8.7767115749054"><ele>641.0</ele><time>2026-05-02T15:03:00Z</time></trkpt><trkpt lat="40.2902646722781" lon="8.776524692434492"><ele>641.0</ele><time>2026-05-02T15:03:01Z</time></trkpt><trkpt lat="40.29004218696374" lon="8.776343604190604"><ele>641.0</ele><time>2026-05-02T15:03:02Z</time></trkpt><trkpt lat="40.28982243669178" lon="8.776166246402564"><ele>638.0</ele><time>2026-05-02T15:03:03Z</time></trkpt><trkpt lat="40.28959603843593" lon="8.776000610726477"><ele>635.0</ele><time>2026-05-02T15:03:04Z</time></trkpt><trkpt lat="40.289369542030336" lon="8.775837994162371"><ele>635.0</ele><time>2026-05-02T15:03:05Z</time></trkpt><trkpt lat="40.28914223172103" lon="8.775666079685866"><ele>635.0</ele><time>2026-05-02T15:03:06Z</time></trkpt><trkpt lat="40.2889153179035" lon="8.77549257145208"><ele>633.0</ele><time>2026-05-02T15:03:07Z</time></trkpt><trkpt lat="40.28868579879074" lon="8.775319045664316"><ele>631.0</ele><time>2026-05-02T15:03:08Z</time></trkpt><trkpt lat="40.28846130282712" lon="8.775149545873063"><ele>629.5</ele><time>2026-05-02T15:03:09Z</time></trkpt><trkpt lat="40.28824066469309" lon="8.774984173079313"><ele>628.0</ele><time>2026-05-02T15:03:10Z</time></trkpt><trkpt lat="40.288021568534944" lon="8.774824358237526"><ele>627.0</ele><time>2026-05-02T15:03:11Z</time></trkpt><trkpt lat="40.28779401753337" lon="8.774672823400223"><ele>626.0</ele><time>2026-05-02T15:03:12Z</time></trkpt><trkpt lat="40.287559669964104" lon="8.774542396286046"><ele>626.0</ele><time>2026-05-02T15:03:13Z</time></trkpt><trkpt lat="40.287313690126844" lon="8.774422802702349"><ele>626.0</ele><time>2026-05-02T15:03:14Z</time></trkpt><trkpt lat="40.287065481698356" lon="8.774315734021998"><ele>623.5</ele><time>2026-05-02T15:03:15Z</time></trkpt><trkpt lat="40.286810454607874" lon="8.774230556351355"><ele>621.0</ele><time>2026-05-02T15:03:16Z</time></trkpt><trkpt lat="40.286553188827305" lon="8.774144256439156"><ele>617.5</ele><time>2026-05-02T15:03:17Z</time></trkpt><trkpt lat="40.28629319804704" lon="8.774058626074224"><ele>614.0</ele><time>2026-05-02T15:03:18Z</time></trkpt><trkpt lat="40.28603487356761" lon="8.773967884406437"><ele>614.0</ele><time>2026-05-02T15:03:19Z</time></trkpt><trkpt lat="40.28579125204083" lon="8.773873760452728"><ele>614.0</ele><time>2026-05-02T15:03:20Z</time></trkpt><trkpt lat="40.285549436613394" lon="8.773783145781824"><ele>611.0</ele><time>2026-05-02T15:03:21Z</time></trkpt><trkpt lat="40.28531450910035" lon="8.773691772128156"><ele>608.0</ele><time>2026-05-02T15:03:22Z</time></trkpt><trkpt lat="40.28508098223346" lon="8.773606029969558"><ele>609.5</ele><time>2026-05-02T15:03:23Z</time></trkpt><trkpt lat="40.28485446792945" lon="8.77352086956793"><ele>611.0</ele><time>2026-05-02T15:03:24Z</time></trkpt><trkpt lat="40.284628631441414" lon="8.773440555013286"><ele>611.0</ele><time>2026-05-02T15:03:25Z</time></trkpt><trkpt lat="40.28439846308828" lon="8.773361537849942"><ele>611.0</ele><time>2026-05-02T15:03:26Z</time></trkpt><trkpt lat="40.2841686528212" lon="8.773279376871404"><ele>611.0</ele><time>2026-05-02T15:03:27Z</time></trkpt><trkpt lat="40.28393056850631" lon="8.773193247635145"><ele>611.0</ele><time>2026-05-02T15:03:28Z</time></trkpt><trkpt lat="40.28368982009634" lon="8.773104992445585"><ele>606.0</ele><time>2026-05-02T15:03:29Z</time></trkpt><trkpt lat="40.28344495964766" lon="8.773013828947043"><ele>601.0</ele><time>2026-05-02T15:03:30Z</time></trkpt><trkpt lat="40.28320774324436" lon="8.772924961053418"><ele>599.5</ele><time>2026-05-02T15:03:31Z</time></trkpt><trkpt lat="40.28296682585928" lon="8.772838700258546"><ele>598.0</ele><time>2026-05-02T15:03:32Z</time></trkpt><trkpt lat="40.282725601089865" lon="8.772754980986967"><ele>602.0</ele><time>2026-05-02T15:03:33Z</time></trkpt><trkpt lat="40.28249095115906" lon="8.77267025100797"><ele>606.0</ele><time>2026-05-02T15:03:34Z</time></trkpt><trkpt lat="40.28226588721692" lon="8.772589169389173"><ele>604.3333333333334</ele><time>2026-05-02T15:03:35Z</time></trkpt><trkpt lat="40.282051506073685" lon="8.772502987204462"><ele>602.6666666666667</ele><time>2026-05-02T15:03:36Z</time></trkpt><trkpt lat="40.28183912161351" lon="8.77242203282256"><ele>601.0</ele><time>2026-05-02T15:03:37Z</time></trkpt><trkpt lat="40.28162823458621" lon="8.772348146454153"><ele>599.0</ele><time>2026-05-02T15:03:38Z</time></trkpt><trkpt lat="40.28142446718334" lon="8.772278651431094"><ele>597.0</ele><time>2026-05-02T15:03:39Z</time></trkpt><trkpt lat="40.28123858939917" lon="8.772210020251933"><ele>595.0</ele><time>2026-05-02T15:03:40Z</time></trkpt><trkpt lat="40.28106111154716" lon="8.772148266104917"><ele>595.0</ele><time>2026-05-02T15:03:41Z</time></trkpt><trkpt lat="40.28088396263374" lon="8.772077316613538"><ele>595.0</ele><time>2026-05-02T15:03:42Z</time></trkpt><trkpt lat="40.280701765995346" lon="8.772007903648955"><ele>595.0</ele><time>2026-05-02T15:03:43Z</time></trkpt><trkpt lat="40.28050392130255" lon="8.771935227783722"><ele>596.3333333333334</ele><time>2026-05-02T15:03:44Z</time></trkpt><trkpt lat="40.28031025676825" lon="8.771866467851833"><ele>597.6666666666666</ele><time>2026-05-02T15:03:45Z</time></trkpt><trkpt lat="40.280112849300366" lon="8.771797150631718"><ele>599.0</ele><time>2026-05-02T15:03:46Z</time></trkpt><trkpt lat="40.27991642757066" lon="8.771725977131656"><ele>596.0</ele><time>2026-05-02T15:03:47Z</time></trkpt><trkpt lat="40.279720357019336" lon="8.771652057601187"><ele>593.0</ele><time>2026-05-02T15:03:48Z</time></trkpt><trkpt lat="40.2795292508753" lon="8.771586743716298"><ele>590.0</ele><time>2026-05-02T15:03:49Z</time></trkpt><trkpt lat="40.279347368091535" lon="8.771531570252913"><ele>590.0</ele><time>2026-05-02T15:03:50Z</time></trkpt><trkpt lat="40.279166916169565" lon="8.771492783852814"><ele>590.0</ele><time>2026-05-02T15:03:51Z</time></trkpt><trkpt lat="40.27897747129032" lon="8.771459659964163"><ele>590.0</ele><time>2026-05-02T15:03:52Z</time></trkpt><trkpt lat="40.27879187728161" lon="8.771434735057237"><ele>587.3333333333333</ele><time>2026-05-02T15:03:53Z</time></trkpt><trkpt lat="40.27861887484578" lon="8.77141955001448"><ele>584.6666666666666</ele><time>2026-05-02T15:03:54Z</time></trkpt><trkpt lat="40.278452942804655" lon="8.771418261843023"><ele>582.0</ele><time>2026-05-02T15:03:55Z</time></trkpt><trkpt lat="40.27829421505907" lon="8.771425394852832"><ele>582.0</ele><time>2026-05-02T15:03:56Z</time></trkpt><trkpt lat="40.278139958533025" lon="8.771439552340707"><ele>582.0</ele><time>2026-05-02T15:03:57Z</time></trkpt><trkpt lat="40.27799291641238" lon="8.77145344179246"><ele>582.0</ele><time>2026-05-02T15:03:58Z</time></trkpt><trkpt lat="40.277847636563685" lon="8.771487908663513"><ele>579.3333333333334</ele><time>2026-05-02T15:03:59Z</time></trkpt><trkpt lat="40.277696327653146" lon="8.77151757990799"><ele>576.6666666666667</ele><time>2026-05-02T15:04:00Z</time></trkpt><trkpt lat="40.277542261087326" lon="8.77154691948592"><ele>574.0</ele><time>2026-05-02T15:04:01Z</time></trkpt><trkpt lat="40.27737854801297" lon="8.771591657493206"><ele>573.3333333333334</ele><time>2026-05-02T15:04:02Z</time></trkpt><trkpt lat="40.27721236642881" lon="8.771645423376745"><ele>572.6666666666666</ele><time>2026-05-02T15:04:03Z</time></trkpt><trkpt lat="40.27704653171895" lon="8.771705601020026"><ele>572.0</ele><time>2026-05-02T15:04:04Z</time></trkpt><trkpt lat="40.27688570330061" lon="8.771778131884409"><ele>572.3333333333333</ele><time>2026-05-02T15:04:05Z</time></trkpt><trkpt lat="40.27671620217325" lon="8.771860904524825"><ele>572.6666666666666</ele><time>2026-05-02T15:04:06Z</time></trkpt><trkpt lat="40.27655160851553" lon="8.771948949378569"><ele>573.0</ele><time>2026-05-02T15:04:07Z</time></trkpt><trkpt lat="40.276387405063154" lon="8.772040634806338"><ele>571.3333333333334</ele><time>2026-05-02T15:04:08Z</time></trkpt><trkpt lat="40.27622872583849" lon="8.772139104437722"><ele>569.6666666666667</ele><time>2026-05-02T15:04:09Z</time></trkpt><trkpt lat="40.27607201977105" lon="8.772246049814418"><ele>568.0</ele><time>2026-05-02T15:04:10Z</time></trkpt><trkpt lat="40.275919552629254" lon="8.772364119941484"><ele>568.0</ele><time>2026-05-02T15:04:11Z</time></trkpt><trkpt lat="40.27576274402027" lon="8.77250324708074"><ele>568.0</ele><time>2026-05-02T15:04:12Z</time></trkpt><trkpt lat="40.27560441787112" lon="8.772638941099151"><ele>568.0</ele><time>2026-05-02T15:04:13Z</time></trkpt><trkpt lat="40.27546086916266" lon="8.77278350704473"><ele>565.3333333333334</ele><time>2026-05-02T15:04:14Z</time></trkpt><trkpt lat="40.27532088056315" lon="8.772938664523096"><ele>562.6666666666666</ele><time>2026-05-02T15:04:15Z</time></trkpt><trkpt lat="40.27518091174474" lon="8.773102124327046"><ele>560.0</ele><time>2026-05-02T15:04:16Z</time></trkpt><trkpt lat="40.27504473413103" lon="8.773271883745027"><ele>560.0</ele><time>2026-05-02T15:04:17Z</time></trkpt><trkpt lat="40.274909802391186" lon="8.77345194291065"><ele>560.0</ele><time>2026-05-02T15:04:18Z</time></trkpt><trkpt lat="40.27478209648953" lon="8.773632241115422"><ele>560.0</ele><time>2026-05-02T15:04:19Z</time></trkpt><trkpt lat="40.27467143468831" lon="8.773809866863193"><ele>560.6666666666666</ele><time>2026-05-02T15:04:20Z</time></trkpt><trkpt lat="40.27457015157142" lon="8.773989787700598"><ele>561.3333333333334</ele><time>2026-05-02T15:04:21Z</time></trkpt><trkpt lat="40.27446736002206" lon="8.774179994073245"><ele>562.0</ele><time>2026-05-02T15:04:22Z</time></trkpt><trkpt lat="40.27436094021826" lon="8.774391037038525"><ele>563.0</ele><time>2026-05-02T15:04:23Z</time></trkpt><trkpt lat="40.274268817990254" lon="8.774601733326717"><ele>564.0</ele><time>2026-05-02T15:04:24Z</time></trkpt><trkpt lat="40.274176571548075" lon="8.77481863402648"><ele>565.0</ele><time>2026-05-02T15:04:25Z</time></trkpt><trkpt lat="40.274089824724705" lon="8.775031708792946"><ele>564.6666666666667</ele><time>2026-05-02T15:04:26Z</time></trkpt><trkpt lat="40.27402031765921" lon="8.775247526464058"><ele>564.3333333333334</ele><time>2026-05-02T15:04:27Z</time></trkpt><trkpt lat="40.27395262757265" lon="8.775474286135365"><ele>564.0</ele><time>2026-05-02T15:04:28Z</time></trkpt><trkpt lat="40.273887607668456" lon="8.7756964959244"><ele>562.0</ele><time>2026-05-02T15:04:29Z</time></trkpt><trkpt lat="40.273829532680196" lon="8.775931710282727"><ele>560.0</ele><time>2026-05-02T15:04:30Z</time></trkpt><trkpt lat="40.273779727608805" lon="8.776173007427854"><ele>558.0</ele><time>2026-05-02T15:04:31Z</time></trkpt><trkpt lat="40.273736258756905" lon="8.77642450870729"><ele>558.0</ele><time>2026-05-02T15:04:32Z</time></trkpt><trkpt lat="40.273700319292224" lon="8.776688103982655"><ele>558.0</ele><time>2026-05-02T15:04:33Z</time></trkpt><trkpt lat="40.27366289261227" lon="8.776954239318929"><ele>558.0</ele><time>2026-05-02T15:04:34Z</time></trkpt><trkpt lat="40.27363048733862" lon="8.777227413254892"><ele>559.0</ele><time>2026-05-02T15:04:35Z</time></trkpt><trkpt lat="40.27359497705647" lon="8.777499758251956"><ele>560.0</ele><time>2026-05-02T15:04:36Z</time></trkpt><trkpt lat="40.273556263535184" lon="8.777774752696832"><ele>561.0</ele><time>2026-05-02T15:04:37Z</time></trkpt><trkpt lat="40.2735130826118" lon="8.778041319993157"><ele>562.3333333333334</ele><time>2026-05-02T15:04:38Z</time></trkpt><trkpt lat="40.27347473768886" lon="8.778304814558025"><ele>563.6666666666667</ele><time>2026-05-02T15:04:39Z</time></trkpt><trkpt lat="40.27344039694217" lon="8.778538096290275"><ele>565.0</ele><time>2026-05-02T15:04:40Z</time></trkpt><trkpt lat="40.27341095061356" lon="8.77876862808951"><ele>566.3333333333334</ele><time>2026-05-02T15:04:41Z</time></trkpt><trkpt lat="40.273381316188264" lon="8.779002109112502"><ele>567.6666666666666</ele><time>2026-05-02T15:04:42Z</time></trkpt><trkpt lat="40.27335054866596" lon="8.779224438506644"><ele>569.0</ele><time>2026-05-02T15:04:43Z</time></trkpt><trkpt lat="40.273323915559445" lon="8.77943669302223"><ele>570.3333333333333</ele><time>2026-05-02T15:04:44Z</time></trkpt><trkpt lat="40.273292543866205" lon="8.779635936078986"><ele>571.6666666666666</ele><time>2026-05-02T15:04:45Z</time></trkpt><trkpt lat="40.27326365753599" lon="8.779843126100054"><ele>573.0</ele><time>2026-05-02T15:04:46Z</time></trkpt><trkpt lat="40.27323548342157" lon="8.780043949767563"><ele>574.6666666666666</ele><time>2026-05-02T15:04:47Z</time></trkpt><trkpt lat="40.27320790768753" lon="8.780252490744564"><ele>576.3333333333333</ele><time>2026-05-02T15:04:48Z</time></trkpt><trkpt lat="40.27317985633968" lon="8.78046700866086"><ele>578.0</ele><time>2026-05-02T15:04:49Z</time></trkpt><trkpt lat="40.27314939908677" lon="8.780681431953997"><ele>578.0</ele><time>2026-05-02T15:04:50Z</time></trkpt><trkpt lat="40.27311383435822" lon="8.780905889119454"><ele>578.0</ele><time>2026-05-02T15:04:51Z</time></trkpt><trkpt lat="40.27308654165721" lon="8.781161162371633"><ele>578.0</ele><time>2026-05-02T15:04:52Z</time></trkpt><trkpt lat="40.27304729801971" lon="8.781427766292058"><ele>579.0</ele><time>2026-05-02T15:04:53Z</time></trkpt><trkpt lat="40.27301187012903" lon="8.781714204822396"><ele>580.0</ele><time>2026-05-02T15:04:54Z</time></trkpt><trkpt lat="40.27297012446587" lon="8.781999860624877"><ele>581.0</ele><time>2026-05-02T15:04:55Z</time></trkpt><trkpt lat="40.27293393281695" lon="8.78228259218578"><ele>581.0</ele><time>2026-05-02T15:04:56Z</time></trkpt><trkpt lat="40.27289743695976" lon="8.78258599752933"><ele>581.0</ele><time>2026-05-02T15:04:57Z</time></trkpt><trkpt lat="40.272853501392966" lon="8.782896901417123"><ele>581.5</ele><time>2026-05-02T15:04:58Z</time></trkpt><trkpt lat="40.272811140657396" lon="8.783217986279535"><ele>582.0</ele><time>2026-05-02T15:04:59Z</time></trkpt><trkpt lat="40.27276561297081" lon="8.783538581100649"><ele>583.0</ele><time>2026-05-02T15:05:00Z</time></trkpt><trkpt lat="40.27272459240069" lon="8.783879727960917"><ele>584.0</ele><time>2026-05-02T15:05:01Z</time></trkpt><trkpt lat="40.272674102870454" lon="8.784208483074808"><ele>586.5</ele><time>2026-05-02T15:05:02Z</time></trkpt><trkpt lat="40.27262712206992" lon="8.784536320218239"><ele>589.0</ele><time>2026-05-02T15:05:03Z</time></trkpt><trkpt lat="40.27257913198797" lon="8.784858413372172"><ele>590.5</ele><time>2026-05-02T15:05:04Z</time></trkpt><trkpt lat="40.27253684693" lon="8.785183564718059"><ele>592.0</ele><time>2026-05-02T15:05:05Z</time></trkpt><trkpt lat="40.2724895601317" lon="8.785499925474127"><ele>592.0</ele><time>2026-05-02T15:05:06Z</time></trkpt><trkpt lat="40.272451322980466" lon="8.7858185515743"><ele>592.0</ele><time>2026-05-02T15:05:07Z</time></trkpt><trkpt lat="40.27240766175126" lon="8.786135096546257"><ele>592.0</ele><time>2026-05-02T15:05:08Z</time></trkpt><trkpt lat="40.27236225982548" lon="8.78645442428523"><ele>592.0</ele><time>2026-05-02T15:05:09Z</time></trkpt><trkpt lat="40.27231201429176" lon="8.786786786076762"><ele>585.0</ele><time>2026-05-02T15:05:10Z</time></trkpt><trkpt lat="40.27226159756173" lon="8.78712208294992"><ele>578.0</ele><time>2026-05-02T15:05:11Z</time></trkpt><trkpt lat="40.27221651306294" lon="8.787461646659901"><ele>580.5</ele><time>2026-05-02T15:05:12Z</time></trkpt><trkpt lat="40.27216947107142" lon="8.787808621701323"><ele>583.0</ele><time>2026-05-02T15:05:13Z</time></trkpt><trkpt lat="40.27212210503218" lon="8.78817872849996"><ele>586.0</ele><time>2026-05-02T15:05:14Z</time></trkpt><trkpt lat="40.272070204236364" lon="8.788557180080115"><ele>589.0</ele><time>2026-05-02T15:05:15Z</time></trkpt><trkpt lat="40.27202179023117" lon="8.788924358405534"><ele>589.0</ele><time>2026-05-02T15:05:16Z</time></trkpt><trkpt lat="40.27197825898159" lon="8.789283048445684"><ele>589.0</ele><time>2026-05-02T15:05:17Z</time></trkpt><trkpt lat="40.27193980348823" lon="8.789643883476021"><ele>590.5</ele><time>2026-05-02T15:05:18Z</time></trkpt><trkpt lat="40.2719136828508" lon="8.790014935077528"><ele>592.0</ele><time>2026-05-02T15:05:19Z</time></trkpt><trkpt lat="40.27190245606919" lon="8.790397455373538"><ele>593.0</ele><time>2026-05-02T15:05:20Z</time></trkpt><trkpt lat="40.271900705088704" lon="8.790780550843174"><ele>594.0</ele><time>2026-05-02T15:05:21Z</time></trkpt><trkpt lat="40.27190917856113" lon="8.791174079120868"><ele>592.0</ele><time>2026-05-02T15:05:22Z</time></trkpt><trkpt lat="40.27192493276804" lon="8.791569187258846"><ele>590.0</ele><time>2026-05-02T15:05:23Z</time></trkpt><trkpt lat="40.27195355081183" lon="8.791957350076057"><ele>581.0</ele><time>2026-05-02T15:05:24Z</time></trkpt><trkpt lat="40.27198495952918" lon="8.792345808714714"><ele>572.0</ele><time>2026-05-02T15:05:25Z</time></trkpt><trkpt lat="40.27204988305307" lon="8.792741522334467"><ele>564.5</ele><time>2026-05-02T15:05:26Z</time></trkpt><trkpt lat="40.27212031480909" lon="8.793130457900679"><ele>557.0</ele><time>2026-05-02T15:05:27Z</time></trkpt><trkpt lat="40.272202048781" lon="8.793521894910308"><ele>567.0</ele><time>2026-05-02T15:05:28Z</time></trkpt><trkpt lat="40.27230356500583" lon="8.793918267889838"><ele>577.0</ele><time>2026-05-02T15:05:29Z</time></trkpt><trkpt lat="40.2724088602747" lon="8.794306535470854"><ele>573.5</ele><time>2026-05-02T15:05:30Z</time></trkpt><trkpt lat="40.27252508008468" lon="8.794698324290659"><ele>570.0</ele><time>2026-05-02T15:05:31Z</time></trkpt><trkpt lat="40.27264928387601" lon="8.79508855764968"><ele>565.5</ele><time>2026-05-02T15:05:32Z</time></trkpt><trkpt lat="40.27278421558039" lon="8.795492430252727"><ele>561.0</ele><time>2026-05-02T15:05:33Z</time></trkpt><trkpt lat="40.272927380388886" lon="8.795903866797174"><ele>557.5</ele><time>2026-05-02T15:05:34Z</time></trkpt><trkpt lat="40.273066387831946" lon="8.796318611936663"><ele>554.0</ele><time>2026-05-02T15:05:35Z</time></trkpt><trkpt lat="40.27320899414386" lon="8.796740816809404"><ele>557.0</ele><time>2026-05-02T15:05:36Z</time></trkpt><trkpt lat="40.27335504680102" lon="8.797170866591571"><ele>560.0</ele><time>2026-05-02T15:05:37Z</time></trkpt><trkpt lat="40.27349346482242" lon="8.79759044190089"><ele>556.0</ele><time>2026-05-02T15:05:38Z</time></trkpt><trkpt lat="40.27364039461234" lon="8.79802479980889"><ele>552.0</ele><time>2026-05-02T15:05:39Z</time></trkpt><trkpt lat="40.273782397683135" lon="8.798455866105082"><ele>555.5</ele><time>2026-05-02T15:05:40Z</time></trkpt><trkpt lat="40.27392268697465" lon="8.798892127900231"><ele>559.0</ele><time>2026-05-02T15:05:41Z</time></trkpt><trkpt lat="40.274062052811054" lon="8.799331283492862"><ele>555.5</ele><time>2026-05-02T15:05:42Z</time></trkpt><trkpt lat="40.27420357866357" lon="8.799768432344088"><ele>552.0</ele><time>2026-05-02T15:05:43Z</time></trkpt><trkpt lat="40.27434381933995" lon="8.800195737630059"><ele>549.0</ele><time>2026-05-02T15:05:44Z</time></trkpt><trkpt lat="40.274482541361536" lon="8.800618095285392"><ele>546.0</ele><time>2026-05-02T15:05:45Z</time></trkpt><trkpt lat="40.274610053483556" lon="8.801021282946543"><ele>549.5</ele><time>2026-05-02T15:05:46Z</time></trkpt><trkpt lat="40.27473500922466" lon="8.801422921568772"><ele>553.0</ele><time>2026-05-02T15:05:47Z</time></trkpt><trkpt lat="40.27485324407368" lon="8.801829327182155"><ele>548.5</ele><time>2026-05-02T15:05:48Z</time></trkpt><trkpt lat="40.27495242717694" lon="8.802231492691991"><ele>544.0</ele><time>2026-05-02T15:05:49Z</time></trkpt><trkpt lat="40.275032981873686" lon="8.802645703505114"><ele>540.5</ele><time>2026-05-02T15:05:50Z</time></trkpt><trkpt lat="40.27508449081654" lon="8.803079163930212"><ele>537.0</ele><time>2026-05-02T15:05:51Z</time></trkpt><trkpt lat="40.27510795954273" lon="8.803509527709469"><ele>535.5</ele><time>2026-05-02T15:05:52Z</time></trkpt><trkpt lat="40.27510968581717" lon="8.803944337558244"><ele>534.0</ele><time>2026-05-02T15:05:53Z</time></trkpt><trkpt lat="40.27507763198029" lon="8.804382279468147"><ele>532.0</ele><time>2026-05-02T15:05:54Z</time></trkpt><trkpt lat="40.27502276202699" lon="8.804827352199327"><ele>530.0</ele><time>2026-05-02T15:05:55Z</time></trkpt><trkpt lat="40.274946749365235" lon="8.805265582927008"><ele>527.5</ele><time>2026-05-02T15:05:56Z</time></trkpt><trkpt lat="40.27485826009764" lon="8.805696604135845"><ele>525.0</ele><time>2026-05-02T15:05:57Z</time></trkpt><trkpt lat="40.27475759513138" lon="8.806116980302049"><ele>521.0</ele><time>2026-05-02T15:05:58Z</time></trkpt><trkpt lat="40.27464770584564" lon="8.80653682714328"><ele>517.0</ele><time>2026-05-02T15:05:59Z</time></trkpt><trkpt lat="40.27454426274064" lon="8.806948584027769"><ele>517.0</ele><time>2026-05-02T15:06:00Z</time></trkpt><trkpt lat="40.274443029494556" lon="8.807370865072572"><ele>517.0</ele><time>2026-05-02T15:06:01Z</time></trkpt><trkpt lat="40.274342779707446" lon="8.807777852320704"><ele>516.5</ele><time>2026-05-02T15:06:02Z</time></trkpt><trkpt lat="40.27423048949262" lon="8.808172394434052"><ele>516.0</ele><time>2026-05-02T15:06:03Z</time></trkpt><trkpt lat="40.2740866141407" lon="8.808561116609546"><ele>514.0</ele><time>2026-05-02T15:06:04Z</time></trkpt><trkpt lat="40.273921824196755" lon="8.808922519018113"><ele>512.0</ele><time>2026-05-02T15:06:05Z</time></trkpt><trkpt lat="40.273727854480846" lon="8.809257935976799"><ele>513.5</ele><time>2026-05-02T15:06:06Z</time></trkpt><trkpt lat="40.27352007002788" lon="8.809579432084423"><ele>515.0</ele><time>2026-05-02T15:06:07Z</time></trkpt><trkpt lat="40.27330353548768" lon="8.8098835717653"><ele>514.0</ele><time>2026-05-02T15:06:08Z</time></trkpt><trkpt lat="40.2730733499245" lon="8.810156600379601"><ele>513.0</ele><time>2026-05-02T15:06:09Z</time></trkpt><trkpt lat="40.272831513405144" lon="8.810407788610043"><ele>513.0</ele><time>2026-05-02T15:06:10Z</time></trkpt><trkpt lat="40.27258649324986" lon="8.810631659751232"><ele>513.0</ele><time>2026-05-02T15:06:11Z</time></trkpt><trkpt lat="40.272332978162694" lon="8.81082871585842"><ele>511.0</ele><time>2026-05-02T15:06:12Z</time></trkpt><trkpt lat="40.27207744086063" lon="8.810995153565289"><ele>509.0</ele><time>2026-05-02T15:06:13Z</time></trkpt><trkpt lat="40.271813468509855" lon="8.811150238162163"><ele>509.0</ele><time>2026-05-02T15:06:14Z</time></trkpt><trkpt lat="40.271547802621534" lon="8.811290098054364"><ele>509.0</ele><time>2026-05-02T15:06:15Z</time></trkpt><trkpt lat="40.27128358990895" lon="8.811410604320493"><ele>506.0</ele><time>2026-05-02T15:06:16Z</time></trkpt><trkpt lat="40.27102929926655" lon="8.811493207251972"><ele>503.0</ele><time>2026-05-02T15:06:17Z</time></trkpt><trkpt lat="40.27079476150397" lon="8.811529843429057"><ele>501.0</ele><time>2026-05-02T15:06:18Z</time></trkpt><trkpt lat="40.27055625892911" lon="8.81155596478669"><ele>499.0</ele><time>2026-05-02T15:06:19Z</time></trkpt><trkpt lat="40.27030165115344" lon="8.81157544069249"><ele>499.0</ele><time>2026-05-02T15:06:20Z</time></trkpt><trkpt lat="40.27003060788409" lon="8.811572759634444"><ele>499.0</ele><time>2026-05-02T15:06:21Z</time></trkpt><trkpt lat="40.26974860028661" lon="8.811558358435905"><ele>497.5</ele><time>2026-05-02T15:06:22Z</time></trkpt><trkpt lat="40.26947685567514" lon="8.811510515694751"><ele>496.0</ele><time>2026-05-02T15:06:23Z</time></trkpt><trkpt lat="40.26920774503737" lon="8.811446552703613"><ele>492.5</ele><time>2026-05-02T15:06:24Z</time></trkpt><trkpt lat="40.26893849613749" lon="8.811353489917906"><ele>489.0</ele><time>2026-05-02T15:06:25Z</time></trkpt><trkpt lat="40.268661841637076" lon="8.811233576813597"><ele>489.0</ele><time>2026-05-02T15:06:26Z</time></trkpt><trkpt lat="40.26838431992476" lon="8.811100036929748"><ele>489.0</ele><time>2026-05-02T15:06:27Z</time></trkpt><trkpt lat="40.268105697795406" lon="8.810962946157865"><ele>487.0</ele><time>2026-05-02T15:06:28Z</time></trkpt><trkpt lat="40.26781529934021" lon="8.810824627453712"><ele>485.0</ele><time>2026-05-02T15:06:29Z</time></trkpt><trkpt lat="40.26751305384435" lon="8.810698209249848"><ele>482.5</ele><time>2026-05-02T15:06:30Z</time></trkpt><trkpt lat="40.26720821082442" lon="8.810572241395873"><ele>480.0</ele><time>2026-05-02T15:06:31Z</time></trkpt><trkpt lat="40.26690467950455" lon="8.81043266653999"><ele>480.0</ele><time>2026-05-02T15:06:32Z</time></trkpt><trkpt lat="40.26660279234255" lon="8.810294844068869"><ele>480.0</ele><time>2026-05-02T15:06:33Z</time></trkpt><trkpt lat="40.26629219383002" lon="8.810153325803748"><ele>478.5</ele><time>2026-05-02T15:06:34Z</time></trkpt><trkpt lat="40.26598367281481" lon="8.810018532229435"><ele>477.0</ele><time>2026-05-02T15:06:35Z</time></trkpt><trkpt lat="40.265675989067546" lon="8.809880825350765"><ele>475.0</ele><time>2026-05-02T15:06:36Z</time></trkpt><trkpt lat="40.26536126730326" lon="8.809734522239845"><ele>473.0</ele><time>2026-05-02T15:06:37Z</time></trkpt><trkpt lat="40.26504636614977" lon="8.809590479394"><ele>472.0</ele><time>2026-05-02T15:06:38Z</time></trkpt><trkpt lat="40.264720246665206" lon="8.809454207747791"><ele>471.0</ele><time>2026-05-02T15:06:39Z</time></trkpt><trkpt lat="40.26439676312714" lon="8.809307141079973"><ele>471.0</ele><time>2026-05-02T15:06:40Z</time></trkpt><trkpt lat="40.26406829073898" lon="8.80915853336775"><ele>471.0</ele><time>2026-05-02T15:06:41Z</time></trkpt><trkpt lat="40.2637416044685" lon="8.80901290415202"><ele>467.0</ele><time>2026-05-02T15:06:42Z</time></trkpt><trkpt lat="40.26341661699215" lon="8.808864898133358"><ele>463.0</ele><time>2026-05-02T15:06:43Z</time></trkpt><trkpt lat="40.263091096638355" lon="8.80872452813279"><ele>460.0</ele><time>2026-05-02T15:06:44Z</time></trkpt><trkpt lat="40.26276690791343" lon="8.808587711498179"><ele>457.0</ele><time>2026-05-02T15:06:45Z</time></trkpt><trkpt lat="40.26244303600703" lon="8.808450281394887"><ele>456.5</ele><time>2026-05-02T15:06:46Z</time></trkpt><trkpt lat="40.262122852941765" lon="8.808290103954992"><ele>456.0</ele><time>2026-05-02T15:06:47Z</time></trkpt><trkpt lat="40.26180190636642" lon="8.80815270075449"><ele>456.0</ele><time>2026-05-02T15:06:48Z</time></trkpt><trkpt lat="40.2614844972347" lon="8.808016501693288"><ele>456.0</ele><time>2026-05-02T15:06:49Z</time></trkpt><trkpt lat="40.26117068830695" lon="8.807869537145615"><ele>456.0</ele><time>2026-05-02T15:06:50Z</time></trkpt><trkpt lat="40.260851716685046" lon="8.807726140739627"><ele>456.0</ele><time>2026-05-02T15:06:51Z</time></trkpt><trkpt lat="40.26053301995777" lon="8.807585884434463"><ele>454.5</ele><time>2026-05-02T15:06:52Z</time></trkpt><trkpt lat="40.26021525236142" lon="8.80744697094137"><ele>453.0</ele><time>2026-05-02T15:06:53Z</time></trkpt><trkpt lat="40.25989520763853" lon="8.80730822129565"><ele>452.5</ele><time>2026-05-02T15:06:54Z</time></trkpt><trkpt lat="40.25957527157903" lon="8.807164368220704"><ele>452.0</ele><time>2026-05-02T15:06:55Z</time></trkpt><trkpt lat="40.25925255170409" lon="8.807013952500375"><ele>451.0</ele><time>2026-05-02T15:06:56Z</time></trkpt><trkpt lat="40.25893053764932" lon="8.806848431600086"><ele>450.0</ele><time>2026-05-02T15:06:57Z</time></trkpt><trkpt lat="40.25861788479369" lon="8.80665386303082"><ele>450.0</ele><time>2026-05-02T15:06:58Z</time></trkpt><trkpt lat="40.25830511383459" lon="8.806438991221691"><ele>450.0</ele><time>2026-05-02T15:06:59Z</time></trkpt><trkpt lat="40.257999102879246" lon="8.8062040070007"><ele>447.0</ele><time>2026-05-02T15:07:00Z</time></trkpt><trkpt lat="40.25770460099628" lon="8.805944720709311"><ele>444.0</ele><time>2026-05-02T15:07:01Z</time></trkpt><trkpt lat="40.25741588816824" lon="8.805690007288334"><ele>440.0</ele><time>2026-05-02T15:07:02Z</time></trkpt><trkpt lat="40.25713186464479" lon="8.805423319554782"><ele>436.0</ele><time>2026-05-02T15:07:03Z</time></trkpt><trkpt lat="40.25683967070191" lon="8.805162538703586"><ele>437.0</ele><time>2026-05-02T15:07:04Z</time></trkpt><trkpt lat="40.256543242751526" lon="8.804909084071953"><ele>438.0</ele><time>2026-05-02T15:07:05Z</time></trkpt><trkpt lat="40.25624781829785" lon="8.8046553340075"><ele>435.5</ele><time>2026-05-02T15:07:06Z</time></trkpt><trkpt lat="40.25595047423027" lon="8.804389732492472"><ele>433.0</ele><time>2026-05-02T15:07:07Z</time></trkpt><trkpt lat="40.255652063825316" lon="8.804128790725414"><ele>431.0</ele><time>2026-05-02T15:07:08Z</time></trkpt><trkpt lat="40.255356800078594" lon="8.803862998865009"><ele>429.0</ele><time>2026-05-02T15:07:09Z</time></trkpt><trkpt lat="40.25505890049312" lon="8.803593068841554"><ele>427.0</ele><time>2026-05-02T15:07:10Z</time></trkpt><trkpt lat="40.25476270485589" lon="8.803327408216859"><ele>425.0</ele><time>2026-05-02T15:07:11Z</time></trkpt><trkpt lat="40.25446899042614" lon="8.803058814908795"><ele>425.0</ele><time>2026-05-02T15:07:12Z</time></trkpt><trkpt lat="40.25417649012781" lon="8.802793821628999"><ele>425.0</ele><time>2026-05-02T15:07:13Z</time></trkpt><trkpt lat="40.25388775748331" lon="8.802526766796019"><ele>421.0</ele><time>2026-05-02T15:07:14Z</time></trkpt><trkpt lat="40.253598786447654" lon="8.802262175404323"><ele>417.0</ele><time>2026-05-02T15:07:15Z</time></trkpt><trkpt lat="40.25330909098331" lon="8.80200784426992"><ele>412.5</ele><time>2026-05-02T15:07:16Z</time></trkpt><trkpt lat="40.25301927864179" lon="8.801746215448423"><ele>408.0</ele><time>2026-05-02T15:07:17Z</time></trkpt><trkpt lat="40.25272776902216" lon="8.801483977349983"><ele>408.0</ele><time>2026-05-02T15:07:18Z</time></trkpt><trkpt lat="40.25244023959948" lon="8.801225652218749"><ele>408.0</ele><time>2026-05-02T15:07:19Z</time></trkpt><trkpt lat="40.252152537205184" lon="8.800972013522115"><ele>410.0</ele><time>2026-05-02T15:07:20Z</time></trkpt><trkpt lat="40.25186601664033" lon="8.800715164272912"><ele>412.0</ele><time>2026-05-02T15:07:21Z</time></trkpt><trkpt lat="40.25157514559606" lon="8.800452683604718"><ele>410.5</ele><time>2026-05-02T15:07:22Z</time></trkpt><trkpt lat="40.25129163819493" lon="8.800196613638082"><ele>409.0</ele><time>2026-05-02T15:07:23Z</time></trkpt><trkpt lat="40.251002574798385" lon="8.799943009663506"><ele>409.5</ele><time>2026-05-02T15:07:24Z</time></trkpt><trkpt lat="40.2507139469931" lon="8.799680665692346"><ele>410.0</ele><time>2026-05-02T15:07:25Z</time></trkpt><trkpt lat="40.2504227237028" lon="8.79942073965941"><ele>412.5</ele><time>2026-05-02T15:07:26Z</time></trkpt><trkpt lat="40.25012919306921" lon="8.79916003665181"><ele>415.0</ele><time>2026-05-02T15:07:27Z</time></trkpt><trkpt lat="40.24984102676105" lon="8.798899425084223"><ele>414.5</ele><time>2026-05-02T15:07:28Z</time></trkpt><trkpt lat="40.2495500221792" lon="8.798633625680804"><ele>414.0</ele><time>2026-05-02T15:07:29Z</time></trkpt><trkpt lat="40.24925958792481" lon="8.798379771163138"><ele>414.0</ele><time>2026-05-02T15:07:30Z</time></trkpt><trkpt lat="40.24896889304713" lon="8.798117981371004"><ele>414.0</ele><time>2026-05-02T15:07:31Z</time></trkpt><trkpt lat="40.24867564854294" lon="8.797859242169636"><ele>412.5</ele><time>2026-05-02T15:07:32Z</time></trkpt><trkpt lat="40.24838135792026" lon="8.797596099931141"><ele>411.0</ele><time>2026-05-02T15:07:33Z</time></trkpt><trkpt lat="40.2480836573268" lon="8.797334439870516"><ele>410.5</ele><time>2026-05-02T15:07:34Z</time></trkpt><trkpt lat="40.24778864179581" lon="8.797069653943051"><ele>410.0</ele><time>2026-05-02T15:07:35Z</time></trkpt><trkpt lat="40.24749334891546" lon="8.796802316203017"><ele>411.0</ele><time>2026-05-02T15:07:36Z</time></trkpt><trkpt lat="40.24720364977037" lon="8.79654095082386"><ele>412.0</ele><time>2026-05-02T15:07:37Z</time></trkpt><trkpt lat="40.246917067507354" lon="8.796277334104627"><ele>412.0</ele><time>2026-05-02T15:07:38Z</time></trkpt><trkpt lat="40.246623070801945" lon="8.796011849883"><ele>412.0</ele><time>2026-05-02T15:07:39Z</time></trkpt><trkpt lat="40.2463261277263" lon="8.795753408482017"><ele>411.0</ele><time>2026-05-02T15:07:40Z</time></trkpt><trkpt lat="40.246035842467066" lon="8.795495349712485"><ele>410.0</ele><time>2026-05-02T15:07:41Z</time></trkpt><trkpt lat="40.24574285689026" lon="8.79523260553178"><ele>410.0</ele><time>2026-05-02T15:07:42Z</time></trkpt><trkpt lat="40.245452640633346" lon="8.794968806089999"><ele>410.0</ele><time>2026-05-02T15:07:43Z</time></trkpt><trkpt lat="40.245162893005364" lon="8.794701840490367"><ele>410.0</ele><time>2026-05-02T15:07:44Z</time></trkpt><trkpt lat="40.24486964127701" lon="8.794435543638881"><ele>410.0</ele><time>2026-05-02T15:07:45Z</time></trkpt><trkpt lat="40.24458313256375" lon="8.794177358228035"><ele>408.5</ele><time>2026-05-02T15:07:46Z</time></trkpt><trkpt lat="40.24429745285008" lon="8.79392993819169"><ele>407.0</ele><time>2026-05-02T15:07:47Z</time></trkpt><trkpt lat="40.24400996277826" lon="8.793668859887298"><ele>404.5</ele><time>2026-05-02T15:07:48Z</time></trkpt><trkpt lat="40.243709785245706" lon="8.793403438478292"><ele>402.0</ele><time>2026-05-02T15:07:49Z</time></trkpt><trkpt lat="40.243415109221964" lon="8.793133828065615"><ele>400.0</ele><time>2026-05-02T15:07:50Z</time></trkpt><trkpt lat="40.24312115560319" lon="8.792870190672991"><ele>398.0</ele><time>2026-05-02T15:07:51Z</time></trkpt><trkpt lat="40.24282858796043" lon="8.792610063352578"><ele>398.0</ele><time>2026-05-02T15:07:52Z</time></trkpt><trkpt lat="40.242531718467305" lon="8.792348644416547"><ele>398.0</ele><time>2026-05-02T15:07:53Z</time></trkpt><trkpt lat="40.242234285100494" lon="8.792084609518104"><ele>398.0</ele><time>2026-05-02T15:07:54Z</time></trkpt><trkpt lat="40.24194218043209" lon="8.791822666767002"><ele>398.0</ele><time>2026-05-02T15:07:55Z</time></trkpt><trkpt lat="40.2416491646826" lon="8.791559536979568"><ele>401.5</ele><time>2026-05-02T15:07:56Z</time></trkpt><trkpt lat="40.24136319228245" lon="8.791298455038467"><ele>405.0</ele><time>2026-05-02T15:07:57Z</time></trkpt><trkpt lat="40.24107700877244" lon="8.791039211427695"><ele>405.5</ele><time>2026-05-02T15:07:58Z</time></trkpt><trkpt lat="40.24079252474241" lon="8.790776470645078"><ele>406.0</ele><time>2026-05-02T15:07:59Z</time></trkpt><trkpt lat="40.24051298212741" lon="8.790524423010131"><ele>408.0</ele><time>2026-05-02T15:08:00Z</time></trkpt><trkpt lat="40.240243939939" lon="8.790268996562869"><ele>410.0</ele><time>2026-05-02T15:08:01Z</time></trkpt><trkpt lat="40.23997404563313" lon="8.790012701928886"><ele>411.0</ele><time>2026-05-02T15:08:02Z</time></trkpt><trkpt lat="40.239699092093055" lon="8.789754291301673"><ele>412.0</ele><time>2026-05-02T15:08:03Z</time></trkpt><trkpt lat="40.23941941685032" lon="8.78949835150719"><ele>412.0</ele><time>2026-05-02T15:08:04Z</time></trkpt><trkpt lat="40.239137229442335" lon="8.789251306886642"><ele>412.0</ele><time>2026-05-02T15:08:05Z</time></trkpt><trkpt lat="40.23886155232742" lon="8.789008936432763"><ele>414.0</ele><time>2026-05-02T15:08:06Z</time></trkpt><trkpt lat="40.238576791892775" lon="8.788767324685445"><ele>416.0</ele><time>2026-05-02T15:08:07Z</time></trkpt><trkpt lat="40.238285427954054" lon="8.788537976369323"><ele>418.0</ele><time>2026-05-02T15:08:08Z</time></trkpt><trkpt lat="40.23798862815479" lon="8.788315453291954"><ele>420.0</ele><time>2026-05-02T15:08:09Z</time></trkpt><trkpt lat="40.23768153624489" lon="8.788115620047584"><ele>420.0</ele><time>2026-05-02T15:08:10Z</time></trkpt><trkpt lat="40.23737244130266" lon="8.787926175458665"><ele>420.0</ele><time>2026-05-02T15:08:11Z</time></trkpt><trkpt lat="40.23706429624228" lon="8.787733889242343"><ele>420.0</ele><time>2026-05-02T15:08:12Z</time></trkpt><trkpt lat="40.23674196431167" lon="8.78754250434047"><ele>420.0</ele><time>2026-05-02T15:08:13Z</time></trkpt><trkpt lat="40.23642628502773" lon="8.787340588851167"><ele>419.5</ele><time>2026-05-02T15:08:14Z</time></trkpt><trkpt lat="40.2361059751177" lon="8.787130993346954"><ele>419.0</ele><time>2026-05-02T15:08:15Z</time></trkpt><trkpt lat="40.23579358602435" lon="8.786937762330277"><ele>420.0</ele><time>2026-05-02T15:08:16Z</time></trkpt><trkpt lat="40.235480122686596" lon="8.78674034833915"><ele>421.0</ele><time>2026-05-02T15:08:17Z</time></trkpt><trkpt lat="40.235157121542535" lon="8.786534251839928"><ele>421.0</ele><time>2026-05-02T15:08:18Z</time></trkpt><trkpt lat="40.23483629233564" lon="8.786332345400297"><ele>421.0</ele><time>2026-05-02T15:08:19Z</time></trkpt><trkpt lat="40.23451819048027" lon="8.786127857530262"><ele>421.5</ele><time>2026-05-02T15:08:20Z</time></trkpt><trkpt lat="40.23420160986275" lon="8.785927933051743"><ele>422.0</ele><time>2026-05-02T15:08:21Z</time></trkpt><trkpt lat="40.23388636986299" lon="8.78572941778001"><ele>423.0</ele><time>2026-05-02T15:08:22Z</time></trkpt><trkpt lat="40.233574259278946" lon="8.785521565651386"><ele>424.0</ele><time>2026-05-02T15:08:23Z</time></trkpt><trkpt lat="40.233261667472284" lon="8.785320811024535"><ele>426.0</ele><time>2026-05-02T15:08:24Z</time></trkpt><trkpt lat="40.23294781297462" lon="8.78512422760611"><ele>428.0</ele><time>2026-05-02T15:08:25Z</time></trkpt><trkpt lat="40.2326331846067" lon="8.784923421822668"><ele>428.0</ele><time>2026-05-02T15:08:26Z</time></trkpt><trkpt lat="40.232314455912785" lon="8.784720822333997"><ele>428.0</ele><time>2026-05-02T15:08:27Z</time></trkpt><trkpt lat="40.23200217561605" lon="8.784515782883254"><ele>427.5</ele><time>2026-05-02T15:08:28Z</time></trkpt><trkpt lat="40.231680408325346" lon="8.784318854536878"><ele>427.0</ele><time>2026-05-02T15:08:29Z</time></trkpt><trkpt lat="40.231363128647075" lon="8.784125096832303"><ele>428.0</ele><time>2026-05-02T15:08:30Z</time></trkpt><trkpt lat="40.231048488809684" lon="8.783922461880408"><ele>429.0</ele><time>2026-05-02T15:08:31Z</time></trkpt><trkpt lat="40.23073020251498" lon="8.783710104181631"><ele>430.0</ele><time>2026-05-02T15:08:32Z</time></trkpt><trkpt lat="40.23040909628909" lon="8.783505192221238"><ele>431.0</ele><time>2026-05-02T15:08:33Z</time></trkpt><trkpt lat="40.23009460675764" lon="8.78330356686454"><ele>430.0</ele><time>2026-05-02T15:08:34Z</time></trkpt><trkpt lat="40.22977851708149" lon="8.783108233641737"><ele>429.0</ele><time>2026-05-02T15:08:35Z</time></trkpt><trkpt lat="40.22946782557441" lon="8.782915076738197"><ele>429.0</ele><time>2026-05-02T15:08:36Z</time></trkpt><trkpt lat="40.22915534853998" lon="8.782724117223202"><ele>429.0</ele><time>2026-05-02T15:08:37Z</time></trkpt><trkpt lat="40.228841285903634" lon="8.782543598007301"><ele>430.0</ele><time>2026-05-02T15:08:38Z</time></trkpt><trkpt lat="40.228531615200424" lon="8.782353528387986"><ele>431.0</ele><time>2026-05-02T15:08:39Z</time></trkpt><trkpt lat="40.22822557688751" lon="8.782155879697774"><ele>431.0</ele><time>2026-05-02T15:08:40Z</time></trkpt><trkpt lat="40.227923233547266" lon="8.78195840400736"><ele>431.0</ele><time>2026-05-02T15:08:41Z</time></trkpt><trkpt lat="40.227620155434366" lon="8.781770350196913"><ele>431.5</ele><time>2026-05-02T15:08:42Z</time></trkpt><trkpt lat="40.22731816028198" lon="8.781576161777252"><ele>432.0</ele><time>2026-05-02T15:08:43Z</time></trkpt><trkpt lat="40.227015786171" lon="8.78136876812421"><ele>432.0</ele><time>2026-05-02T15:08:44Z</time></trkpt><trkpt lat="40.22671512301699" lon="8.781157889511546"><ele>432.0</ele><time>2026-05-02T15:08:45Z</time></trkpt><trkpt lat="40.22641244712348" lon="8.780956163261978"><ele>432.5</ele><time>2026-05-02T15:08:46Z</time></trkpt><trkpt lat="40.226102865321344" lon="8.780774824111138"><ele>433.0</ele><time>2026-05-02T15:08:47Z</time></trkpt><trkpt lat="40.22578714765247" lon="8.780612558088974"><ele>433.0</ele><time>2026-05-02T15:08:48Z</time></trkpt><trkpt lat="40.22545943746353" lon="8.780469828656269"><ele>433.0</ele><time>2026-05-02T15:08:49Z</time></trkpt><trkpt lat="40.22512735884888" lon="8.78033520231377"><ele>433.0</ele><time>2026-05-02T15:08:50Z</time></trkpt><trkpt lat="40.22479510080667" lon="8.780224005025426"><ele>433.0</ele><time>2026-05-02T15:08:51Z</time></trkpt><trkpt lat="40.224457732304316" lon="8.780140712118905"><ele>433.0</ele><time>2026-05-02T15:08:52Z</time></trkpt><trkpt lat="40.22411601368975" lon="8.780072369319113"><ele>433.0</ele><time>2026-05-02T15:08:53Z</time></trkpt><trkpt lat="40.22377712493718" lon="8.780037448280883"><ele>433.0</ele><time>2026-05-02T15:08:54Z</time></trkpt><trkpt lat="40.22343366349738" lon="8.780015523777282"><ele>433.0</ele><time>2026-05-02T15:08:55Z</time></trkpt><trkpt lat="40.223087256011716" lon="8.780014570468337"><ele>433.0</ele><time>2026-05-02T15:08:56Z</time></trkpt><trkpt lat="40.22274035767234" lon="8.780038407290627"><ele>433.0</ele><time>2026-05-02T15:08:57Z</time></trkpt><trkpt lat="40.22239123980392" lon="8.780081300260795"><ele>433.5</ele><time>2026-05-02T15:08:58Z</time></trkpt><trkpt lat="40.22204337281803" lon="8.780148627502857"><ele>434.0</ele><time>2026-05-02T15:08:59Z</time></trkpt><trkpt lat="40.221698075347746" lon="8.780233344160393"><ele>433.5</ele><time>2026-05-02T15:09:00Z</time></trkpt><trkpt lat="40.22135578024185" lon="8.780332279175422"><ele>433.0</ele><time>2026-05-02T15:09:01Z</time></trkpt><trkpt lat="40.22101392112128" lon="8.780431580069639"><ele>433.0</ele><time>2026-05-02T15:09:02Z</time></trkpt><trkpt lat="40.220673919068524" lon="8.780543167975992"><ele>433.0</ele><time>2026-05-02T15:09:03Z</time></trkpt><trkpt lat="40.22033484293949" lon="8.780660839317894"><ele>433.0</ele><time>2026-05-02T15:09:04Z</time></trkpt><trkpt lat="40.220005219971654" lon="8.780785637067227"><ele>433.0</ele><time>2026-05-02T15:09:05Z</time></trkpt><trkpt lat="40.219677709125186" lon="8.780923826119448"><ele>432.0</ele><time>2026-05-02T15:09:06Z</time></trkpt><trkpt lat="40.219349175549354" lon="8.781074705512294"><ele>431.0</ele><time>2026-05-02T15:09:07Z</time></trkpt><trkpt lat="40.21901700952322" lon="8.7812420299742"><ele>431.5</ele><time>2026-05-02T15:09:08Z</time></trkpt><trkpt lat="40.218690522248814" lon="8.78140981323558"><ele>432.0</ele><time>2026-05-02T15:09:09Z</time></trkpt><trkpt lat="40.21836385905339" lon="8.781568150003036"><ele>432.5</ele><time>2026-05-02T15:09:10Z</time></trkpt><trkpt lat="40.21803379891511" lon="8.781749112644254"><ele>433.0</ele><time>2026-05-02T15:09:11Z</time></trkpt><trkpt lat="40.21769492510766" lon="8.781888052084543"><ele>433.0</ele><time>2026-05-02T15:09:12Z</time></trkpt><trkpt lat="40.21735902724716" lon="8.782013516561037"><ele>433.0</ele><time>2026-05-02T15:09:13Z</time></trkpt><trkpt lat="40.217020437874986" lon="8.782141890535618"><ele>432.0</ele><time>2026-05-02T15:09:14Z</time></trkpt><trkpt lat="40.21668231208441" lon="8.78226509211578"><ele>431.0</ele><time>2026-05-02T15:09:15Z</time></trkpt><trkpt lat="40.216347220767084" lon="8.782377619544143"><ele>431.0</ele><time>2026-05-02T15:09:16Z</time></trkpt><trkpt lat="40.21600749486236" lon="8.782490601929254"><ele>431.0</ele><time>2026-05-02T15:09:17Z</time></trkpt><trkpt lat="40.2156640427743" lon="8.782593758259546"><ele>430.5</ele><time>2026-05-02T15:09:18Z</time></trkpt><trkpt lat="40.215326807009795" lon="8.78269582851856"><ele>430.0</ele><time>2026-05-02T15:09:19Z</time></trkpt><trkpt lat="40.21498791113252" lon="8.782799955966091"><ele>430.0</ele><time>2026-05-02T15:09:20Z</time></trkpt><trkpt lat="40.214646089810884" lon="8.782904059962512"><ele>430.0</ele><time>2026-05-02T15:09:21Z</time></trkpt><trkpt lat="40.21430610742062" lon="8.783001873371024"><ele>429.0</ele><time>2026-05-02T15:09:22Z</time></trkpt><trkpt lat="40.21396605196047" lon="8.783099855529446"><ele>428.0</ele><time>2026-05-02T15:09:23Z</time></trkpt><trkpt lat="40.21362459455318" lon="8.783201068463825"><ele>428.0</ele><time>2026-05-02T15:09:24Z</time></trkpt><trkpt lat="40.2132878987034" lon="8.783301087465384"><ele>428.0</ele><time>2026-05-02T15:09:25Z</time></trkpt><trkpt lat="40.21294527234967" lon="8.78340312311821"><ele>428.5</ele><time>2026-05-02T15:09:26Z</time></trkpt><trkpt lat="40.21260021662326" lon="8.783499367348842"><ele>429.0</ele><time>2026-05-02T15:09:27Z</time></trkpt><trkpt lat="40.21225820332523" lon="8.783592554197723"><ele>427.0</ele><time>2026-05-02T15:09:28Z</time></trkpt><trkpt lat="40.211916961673246" lon="8.78368207694352"><ele>425.0</ele><time>2026-05-02T15:09:29Z</time></trkpt><trkpt lat="40.21157419755431" lon="8.78377304423915"><ele>424.5</ele><time>2026-05-02T15:09:30Z</time></trkpt><trkpt lat="40.211232551173474" lon="8.783857345061994"><ele>424.0</ele><time>2026-05-02T15:09:31Z</time></trkpt><trkpt lat="40.210891497311614" lon="8.783940508424362"><ele>424.5</ele><time>2026-05-02T15:09:32Z</time></trkpt><trkpt lat="40.21054698892506" lon="8.784019216794805"><ele>425.0</ele><time>2026-05-02T15:09:33Z</time></trkpt><trkpt lat="40.210199416128624" lon="8.784088200307128"><ele>425.0</ele><time>2026-05-02T15:09:34Z</time></trkpt><trkpt lat="40.20985220461631" lon="8.784129274122856"><ele>425.0</ele><time>2026-05-02T15:09:35Z</time></trkpt><trkpt lat="40.20949824690676" lon="8.784167678036903"><ele>424.0</ele><time>2026-05-02T15:09:36Z</time></trkpt><trkpt lat="40.20914911883872" lon="8.784200478353752"><ele>423.0</ele><time>2026-05-02T15:09:37Z</time></trkpt><trkpt lat="40.20880493917903" lon="8.784235882275476"><ele>423.0</ele><time>2026-05-02T15:09:38Z</time></trkpt><trkpt lat="40.20845603379579" lon="8.784283961196417"><ele>423.0</ele><time>2026-05-02T15:09:39Z</time></trkpt><trkpt lat="40.20811994952649" lon="8.784337754140314"><ele>422.0</ele><time>2026-05-02T15:09:40Z</time></trkpt><trkpt lat="40.20778997104808" lon="8.78438774666735"><ele>421.0</ele><time>2026-05-02T15:09:41Z</time></trkpt><trkpt lat="40.20749411712515" lon="8.784447925826694"><ele>420.0</ele><time>2026-05-02T15:09:42Z</time></trkpt><trkpt lat="40.20722050164017" lon="8.784527306767773"><ele>419.0</ele><time>2026-05-02T15:09:43Z</time></trkpt><trkpt lat="40.206964963276675" lon="8.784595975130246"><ele>419.0</ele><time>2026-05-02T15:09:44Z</time></trkpt><trkpt lat="40.20672637846723" lon="8.784665268478326"><ele>419.0</ele><time>2026-05-02T15:09:45Z</time></trkpt><trkpt lat="40.20649851777664" lon="8.784723670947237"><ele>418.66666666666663</ele><time>2026-05-02T15:09:46Z</time></trkpt><trkpt lat="40.206281861133" lon="8.784791934778745"><ele>418.33333333333337</ele><time>2026-05-02T15:09:47Z</time></trkpt><trkpt lat="40.20606664191312" lon="8.78486797852204"><ele>418.0</ele><time>2026-05-02T15:09:48Z</time></trkpt><trkpt lat="40.205846843234184" lon="8.784945035191798"><ele>416.5</ele><time>2026-05-02T15:09:49Z</time></trkpt><trkpt lat="40.20562268271641" lon="8.785024164540582"><ele>415.0</ele><time>2026-05-02T15:09:50Z</time></trkpt><trkpt lat="40.205395143429186" lon="8.785121424755083"><ele>415.5</ele><time>2026-05-02T15:09:51Z</time></trkpt><trkpt lat="40.20517225603838" lon="8.785219986068093"><ele>416.0</ele><time>2026-05-02T15:09:52Z</time></trkpt><trkpt lat="40.20494959296936" lon="8.785321186424955"><ele>414.5</ele><time>2026-05-02T15:09:53Z</time></trkpt><trkpt lat="40.20471832778269" lon="8.785423533215711"><ele>413.0</ele><time>2026-05-02T15:09:54Z</time></trkpt><trkpt lat="40.20447601486849" lon="8.785530552146149"><ele>413.0</ele><time>2026-05-02T15:09:55Z</time></trkpt><trkpt lat="40.20421550602505" lon="8.78565042192058"><ele>413.0</ele><time>2026-05-02T15:09:56Z</time></trkpt><trkpt lat="40.203938223185595" lon="8.785778244041602"><ele>413.0</ele><time>2026-05-02T15:09:57Z</time></trkpt><trkpt lat="40.20365923112624" lon="8.785903066873583"><ele>413.0</ele><time>2026-05-02T15:09:58Z</time></trkpt><trkpt lat="40.203377456502295" lon="8.786027472110108"><ele>411.5</ele><time>2026-05-02T15:09:59Z</time></trkpt><trkpt lat="40.203092264966415" lon="8.786149899081009"><ele>410.0</ele><time>2026-05-02T15:10:00Z</time></trkpt><trkpt lat="40.20280661060386" lon="8.786275324457238"><ele>410.0</ele><time>2026-05-02T15:10:01Z</time></trkpt><trkpt lat="40.20252287482385" lon="8.786401195055722"><ele>410.0</ele><time>2026-05-02T15:10:02Z</time></trkpt><trkpt lat="40.20223665137592" lon="8.786524373221422"><ele>409.5</ele><time>2026-05-02T15:10:03Z</time></trkpt><trkpt lat="40.20194678558423" lon="8.786648092857082"><ele>409.0</ele><time>2026-05-02T15:10:04Z</time></trkpt><trkpt lat="40.20165160955503" lon="8.786774891186926"><ele>407.0</ele><time>2026-05-02T15:10:05Z</time></trkpt><trkpt lat="40.201358140715875" lon="8.786899157902466"><ele>405.0</ele><time>2026-05-02T15:10:06Z</time></trkpt><trkpt lat="40.201064011575276" lon="8.787024763586862"><ele>405.0</ele><time>2026-05-02T15:10:07Z</time></trkpt><trkpt lat="40.200763664727084" lon="8.787152372079193"><ele>405.0</ele><time>2026-05-02T15:10:08Z</time></trkpt><trkpt lat="40.20046477937188" lon="8.787285821851135"><ele>403.0</ele><time>2026-05-02T15:10:09Z</time></trkpt><trkpt lat="40.20016586653423" lon="8.787421880699956"><ele>401.0</ele><time>2026-05-02T15:10:10Z</time></trkpt><trkpt lat="40.19985897603348" lon="8.787559612496747"><ele>397.5</ele><time>2026-05-02T15:10:11Z</time></trkpt><trkpt lat="40.19954879866946" lon="8.787693533200027"><ele>394.0</ele><time>2026-05-02T15:10:12Z</time></trkpt><trkpt lat="40.19924356797494" lon="8.787826387369579"><ele>391.5</ele><time>2026-05-02T15:10:13Z</time></trkpt><trkpt lat="40.198933393210616" lon="8.787964191586703"><ele>389.0</ele><time>2026-05-02T15:10:14Z</time></trkpt><trkpt lat="40.19862207459366" lon="8.788097887730922"><ele>389.0</ele><time>2026-05-02T15:10:15Z</time></trkpt><trkpt lat="40.198307680492924" lon="8.788225449163717"><ele>389.0</ele><time>2026-05-02T15:10:16Z</time></trkpt><trkpt lat="40.1979915715932" lon="8.788355096301194"><ele>386.5</ele><time>2026-05-02T15:10:17Z</time></trkpt><trkpt lat="40.19766855145596" lon="8.788472001183056"><ele>384.0</ele><time>2026-05-02T15:10:18Z</time></trkpt><trkpt lat="40.19735181483154" lon="8.788585516905687"><ele>382.0</ele><time>2026-05-02T15:10:19Z</time></trkpt><trkpt lat="40.19703348941389" lon="8.788702674351574"><ele>380.0</ele><time>2026-05-02T15:10:20Z</time></trkpt><trkpt lat="40.196713025315454" lon="8.788817148122792"><ele>380.0</ele><time>2026-05-02T15:10:21Z</time></trkpt><trkpt lat="40.196393640319336" lon="8.788934113707576"><ele>380.0</ele><time>2026-05-02T15:10:22Z</time></trkpt><trkpt lat="40.19607468550961" lon="8.789041667127785"><ele>380.0</ele><time>2026-05-02T15:10:23Z</time></trkpt><trkpt lat="40.195757847477026" lon="8.789148546848"><ele>380.0</ele><time>2026-05-02T15:10:24Z</time></trkpt><trkpt lat="40.195441330643334" lon="8.789260377100831"><ele>379.0</ele><time>2026-05-02T15:10:25Z</time></trkpt><trkpt lat="40.19512246725785" lon="8.789372536641967"><ele>378.0</ele><time>2026-05-02T15:10:26Z</time></trkpt><trkpt lat="40.194809278594825" lon="8.789480983236263"><ele>378.0</ele><time>2026-05-02T15:10:27Z</time></trkpt><trkpt lat="40.194495405892305" lon="8.789589085843406"><ele>378.0</ele><time>2026-05-02T15:10:28Z</time></trkpt><trkpt lat="40.194185255474395" lon="8.789691841524101"><ele>378.0</ele><time>2026-05-02T15:10:29Z</time></trkpt><trkpt lat="40.19387699582986" lon="8.789794224188965"><ele>378.0</ele><time>2026-05-02T15:10:30Z</time></trkpt><trkpt lat="40.19356449030441" lon="8.789889081885333"><ele>378.0</ele><time>2026-05-02T15:10:31Z</time></trkpt><trkpt lat="40.193252531131094" lon="8.789964273001397"><ele>378.0</ele><time>2026-05-02T15:10:32Z</time></trkpt><trkpt lat="40.19293803390203" lon="8.79002539603815"><ele>377.5</ele><time>2026-05-02T15:10:33Z</time></trkpt><trkpt lat="40.19262101441221" lon="8.790077919489534"><ele>377.0</ele><time>2026-05-02T15:10:34Z</time></trkpt><trkpt lat="40.192299820588325" lon="8.790113411542345"><ele>377.0</ele><time>2026-05-02T15:10:35Z</time></trkpt><trkpt lat="40.19196151701843" lon="8.790149587393575"><ele>377.0</ele><time>2026-05-02T15:10:36Z</time></trkpt><trkpt lat="40.19160663762266" lon="8.790178482903688"><ele>377.5</ele><time>2026-05-02T15:10:37Z</time></trkpt><trkpt lat="40.19123353414397" lon="8.790189516464482"><ele>378.0</ele><time>2026-05-02T15:10:38Z</time></trkpt><trkpt lat="40.190848081787756" lon="8.790181265075795"><ele>377.0</ele><time>2026-05-02T15:10:39Z</time></trkpt><trkpt lat="40.1904712516758" lon="8.790185550911652"><ele>376.0</ele><time>2026-05-02T15:10:40Z</time></trkpt><trkpt lat="40.190105010947185" lon="8.790216444999338"><ele>376.0</ele><time>2026-05-02T15:10:41Z</time></trkpt><trkpt lat="40.18974355385827" lon="8.79027525158444"><ele>376.0</ele><time>2026-05-02T15:10:42Z</time></trkpt><trkpt lat="40.18938894505681" lon="8.790344698214883"><ele>376.0</ele><time>2026-05-02T15:10:43Z</time></trkpt><trkpt lat="40.18903789969287" lon="8.79042689515447"><ele>376.0</ele><time>2026-05-02T15:10:44Z</time></trkpt><trkpt lat="40.188692330083256" lon="8.790520902975341"><ele>376.0</ele><time>2026-05-02T15:10:45Z</time></trkpt><trkpt lat="40.188351151877036" lon="8.790621728005895"><ele>376.0</ele><time>2026-05-02T15:10:46Z</time></trkpt><trkpt lat="40.18801219149089" lon="8.790718017037175"><ele>375.5</ele><time>2026-05-02T15:10:47Z</time></trkpt><trkpt lat="40.18767337115463" lon="8.790801555827134"><ele>375.0</ele><time>2026-05-02T15:10:48Z</time></trkpt><trkpt lat="40.18733273248488" lon="8.79088759725263"><ele>374.5</ele><time>2026-05-02T15:10:49Z</time></trkpt><trkpt lat="40.18699999195503" lon="8.790967813521997"><ele>374.0</ele><time>2026-05-02T15:10:50Z</time></trkpt><trkpt lat="40.186666983284205" lon="8.791053938037312"><ele>374.0</ele><time>2026-05-02T15:10:51Z</time></trkpt><trkpt lat="40.186339394119294" lon="8.79114624747191"><ele>374.0</ele><time>2026-05-02T15:10:52Z</time></trkpt><trkpt lat="40.18601352816381" lon="8.79123654481172"><ele>374.0</ele><time>2026-05-02T15:10:53Z</time></trkpt><trkpt lat="40.18569024267341" lon="8.791318286433366"><ele>374.0</ele><time>2026-05-02T15:10:54Z</time></trkpt><trkpt lat="40.18536224362107" lon="8.791401449197606"><ele>373.0</ele><time>2026-05-02T15:10:55Z</time></trkpt><trkpt lat="40.185032333521704" lon="8.791485510335539"><ele>372.0</ele><time>2026-05-02T15:10:56Z</time></trkpt><trkpt lat="40.18470091339521" lon="8.791572529065128"><ele>370.5</ele><time>2026-05-02T15:10:57Z</time></trkpt><trkpt lat="40.184370672167674" lon="8.791656377533787"><ele>369.0</ele><time>2026-05-02T15:10:58Z</time></trkpt><trkpt lat="40.18403760701917" lon="8.791739521577727"><ele>367.5</ele><time>2026-05-02T15:10:59Z</time></trkpt><trkpt lat="40.183701790975626" lon="8.791831566116612"><ele>366.0</ele><time>2026-05-02T15:11:00Z</time></trkpt><trkpt lat="40.18336128419432" lon="8.791923640395888"><ele>363.5</ele><time>2026-05-02T15:11:01Z</time></trkpt><trkpt lat="40.183020202363686" lon="8.792016800962333"><ele>361.0</ele><time>2026-05-02T15:11:02Z</time></trkpt><trkpt lat="40.182678554394734" lon="8.792114016232965"><ele>357.5</ele><time>2026-05-02T15:11:03Z</time></trkpt><trkpt lat="40.18233648449353" lon="8.792205975447498"><ele>354.0</ele><time>2026-05-02T15:11:04Z</time></trkpt><trkpt lat="40.18198963332218" lon="8.792296600097606"><ele>354.0</ele><time>2026-05-02T15:11:05Z</time></trkpt><trkpt lat="40.1816462573795" lon="8.792388459083606"><ele>354.0</ele><time>2026-05-02T15:11:06Z</time></trkpt><trkpt lat="40.181306764105635" lon="8.792492509028333"><ele>354.0</ele><time>2026-05-02T15:11:07Z</time></trkpt><trkpt lat="40.18097348711639" lon="8.792598915686636"><ele>354.0</ele><time>2026-05-02T15:11:08Z</time></trkpt><trkpt lat="40.180646664992636" lon="8.792713198449082"><ele>354.0</ele><time>2026-05-02T15:11:09Z</time></trkpt><trkpt lat="40.18033943997879" lon="8.792848396480014"><ele>354.0</ele><time>2026-05-02T15:11:10Z</time></trkpt><trkpt lat="40.18004029872744" lon="8.792993734281799"><ele>356.5</ele><time>2026-05-02T15:11:11Z</time></trkpt><trkpt lat="40.17974470896902" lon="8.793175044731179"><ele>359.0</ele><time>2026-05-02T15:11:12Z</time></trkpt><trkpt lat="40.17946565327145" lon="8.793376162444227"><ele>358.5</ele><time>2026-05-02T15:11:13Z</time></trkpt><trkpt lat="40.17920172612726" lon="8.79359485096912"><ele>358.0</ele><time>2026-05-02T15:11:14Z</time></trkpt><trkpt lat="40.178937110496896" lon="8.793819465419434"><ele>358.0</ele><time>2026-05-02T15:11:15Z</time></trkpt><trkpt lat="40.178668765626995" lon="8.794045754024713"><ele>358.0</ele><time>2026-05-02T15:11:16Z</time></trkpt><trkpt lat="40.17840388824195" lon="8.794287832557727"><ele>358.5</ele><time>2026-05-02T15:11:17Z</time></trkpt><trkpt lat="40.178138224667634" lon="8.794538468643768"><ele>359.0</ele><time>2026-05-02T15:11:18Z</time></trkpt><trkpt lat="40.17787474551497" lon="8.794798749817643"><ele>359.0</ele><time>2026-05-02T15:11:19Z</time></trkpt><trkpt lat="40.177610394606106" lon="8.795069287186797"><ele>359.0</ele><time>2026-05-02T15:11:20Z</time></trkpt><trkpt lat="40.177340374706866" lon="8.795335269529087"><ele>359.5</ele><time>2026-05-02T15:11:21Z</time></trkpt><trkpt lat="40.17706869102744" lon="8.795592322347865"><ele>360.0</ele><time>2026-05-02T15:11:22Z</time></trkpt><trkpt lat="40.1767910942273" lon="8.795849350680236"><ele>360.0</ele><time>2026-05-02T15:11:23Z</time></trkpt><trkpt lat="40.17651371842416" lon="8.796095731004137"><ele>360.0</ele><time>2026-05-02T15:11:24Z</time></trkpt><trkpt lat="40.17622935286698" lon="8.796330805297062"><ele>360.0</ele><time>2026-05-02T15:11:25Z</time></trkpt><trkpt lat="40.175940109373755" lon="8.796551976364503"><ele>360.0</ele><time>2026-05-02T15:11:26Z</time></trkpt><trkpt lat="40.175649244428975" lon="8.79676278527308"><ele>358.0</ele><time>2026-05-02T15:11:27Z</time></trkpt><trkpt lat="40.17535331383263" lon="8.796964034647809"><ele>356.0</ele><time>2026-05-02T15:11:28Z</time></trkpt><trkpt lat="40.17505667304252" lon="8.79715700419727"><ele>358.0</ele><time>2026-05-02T15:11:29Z</time></trkpt><trkpt lat="40.174752266209744" lon="8.797337664857725"><ele>360.0</ele><time>2026-05-02T15:11:30Z</time></trkpt><trkpt lat="40.17445018048918" lon="8.797502010251156"><ele>358.5</ele><time>2026-05-02T15:11:31Z</time></trkpt><trkpt lat="40.174138232022436" lon="8.797670376140745"><ele>357.0</ele><time>2026-05-02T15:11:32Z</time></trkpt><trkpt lat="40.17382927826359" lon="8.79783437489993"><ele>357.0</ele><time>2026-05-02T15:11:33Z</time></trkpt><trkpt lat="40.17352099567296" lon="8.79800319279485"><ele>357.0</ele><time>2026-05-02T15:11:34Z</time></trkpt><trkpt lat="40.17321399399138" lon="8.798172306576118"><ele>357.0</ele><time>2026-05-02T15:11:35Z</time></trkpt><trkpt lat="40.17290994307798" lon="8.798336266069859"><ele>357.0</ele><time>2026-05-02T15:11:36Z</time></trkpt><trkpt lat="40.172603201207934" lon="8.7985189384752"><ele>355.0</ele><time>2026-05-02T15:11:37Z</time></trkpt><trkpt lat="40.17229567490453" lon="8.798682047748303"><ele>353.0</ele><time>2026-05-02T15:11:38Z</time></trkpt><trkpt lat="40.171989658937065" lon="8.79885411527244"><ele>353.0</ele><time>2026-05-02T15:11:39Z</time></trkpt><trkpt lat="40.171685906057775" lon="8.799023831564641"><ele>353.0</ele><time>2026-05-02T15:11:40Z</time></trkpt><trkpt lat="40.17137958151554" lon="8.799193272980867"><ele>350.5</ele><time>2026-05-02T15:11:41Z</time></trkpt><trkpt lat="40.17107320959807" lon="8.799358426387611"><ele>348.0</ele><time>2026-05-02T15:11:42Z</time></trkpt><trkpt lat="40.17075823302829" lon="8.799531406681538"><ele>348.0</ele><time>2026-05-02T15:11:43Z</time></trkpt><trkpt lat="40.170436864130565" lon="8.799708211165264"><ele>348.0</ele><time>2026-05-02T15:11:44Z</time></trkpt><trkpt lat="40.1701136927965" lon="8.799885321387018"><ele>347.5</ele><time>2026-05-02T15:11:45Z</time></trkpt><trkpt lat="40.16978446771273" lon="8.800067464522122"><ele>347.0</ele><time>2026-05-02T15:11:46Z</time></trkpt><trkpt lat="40.16945869506222" lon="8.800253477008381"><ele>347.0</ele><time>2026-05-02T15:11:47Z</time></trkpt><trkpt lat="40.169125697205345" lon="8.80043709838481"><ele>347.0</ele><time>2026-05-02T15:11:48Z</time></trkpt><trkpt lat="40.16879015601487" lon="8.800619665559077"><ele>348.0</ele><time>2026-05-02T15:11:49Z</time></trkpt><trkpt lat="40.168458125072995" lon="8.800799776706095"><ele>349.0</ele><time>2026-05-02T15:11:50Z</time></trkpt><trkpt lat="40.168126739502846" lon="8.800978302283385"><ele>348.5</ele><time>2026-05-02T15:11:51Z</time></trkpt><trkpt lat="40.167791425649604" lon="8.801157266815508"><ele>348.0</ele><time>2026-05-02T15:11:52Z</time></trkpt><trkpt lat="40.1674543315605" lon="8.80133633345485"><ele>348.5</ele><time>2026-05-02T15:11:53Z</time></trkpt><trkpt lat="40.16712253267489" lon="8.80150961203394"><ele>349.0</ele><time>2026-05-02T15:11:54Z</time></trkpt><trkpt lat="40.16679022237358" lon="8.8016891971804"><ele>347.0</ele><time>2026-05-02T15:11:55Z</time></trkpt><trkpt lat="40.16645788236137" lon="8.801871003631492"><ele>345.0</ele><time>2026-05-02T15:11:56Z</time></trkpt><trkpt lat="40.166122768208126" lon="8.802049379187268"><ele>345.0</ele><time>2026-05-02T15:11:57Z</time></trkpt><trkpt lat="40.165791046210295" lon="8.802223774085544"><ele>345.0</ele><time>2026-05-02T15:11:58Z</time></trkpt><trkpt lat="40.16545470530608" lon="8.802393454482953"><ele>344.5</ele><time>2026-05-02T15:11:59Z</time></trkpt><trkpt lat="40.16511717413345" lon="8.80256336965259"><ele>344.0</ele><time>2026-05-02T15:12:00Z</time></trkpt><trkpt lat="40.16478237756726" lon="8.802739844707684"><ele>343.5</ele><time>2026-05-02T15:12:01Z</time></trkpt><trkpt lat="40.164446812909674" lon="8.802918928944216"><ele>343.0</ele><time>2026-05-02T15:12:02Z</time></trkpt><trkpt lat="40.164112458791564" lon="8.803099143619923"><ele>342.0</ele><time>2026-05-02T15:12:03Z</time></trkpt><trkpt lat="40.16378026222984" lon="8.803272094375853"><ele>341.0</ele><time>2026-05-02T15:12:04Z</time></trkpt><trkpt lat="40.16344892710603" lon="8.8034426703544"><ele>339.0</ele><time>2026-05-02T15:12:05Z</time></trkpt><trkpt lat="40.163117517070674" lon="8.803617562969647"><ele>337.0</ele><time>2026-05-02T15:12:06Z</time></trkpt><trkpt lat="40.162783501941" lon="8.80378590212444"><ele>337.0</ele><time>2026-05-02T15:12:07Z</time></trkpt><trkpt lat="40.16245190920091" lon="8.803951955355467"><ele>337.0</ele><time>2026-05-02T15:12:08Z</time></trkpt><trkpt lat="40.16211498006712" lon="8.804118568731313"><ele>336.0</ele><time>2026-05-02T15:12:09Z</time></trkpt><trkpt lat="40.161774978481716" lon="8.804288211771013"><ele>335.0</ele><time>2026-05-02T15:12:10Z</time></trkpt><trkpt lat="40.161442957895694" lon="8.80445446301555"><ele>334.0</ele><time>2026-05-02T15:12:11Z</time></trkpt><trkpt lat="40.161100445924866" lon="8.80462573361859"><ele>333.0</ele><time>2026-05-02T15:12:12Z</time></trkpt><trkpt lat="40.16075538959483" lon="8.804800360362291"><ele>332.5</ele><time>2026-05-02T15:12:13Z</time></trkpt><trkpt lat="40.160403249330884" lon="8.804980861161713"><ele>332.0</ele><time>2026-05-02T15:12:14Z</time></trkpt><trkpt lat="40.16004403568378" lon="8.805167895657803"><ele>330.5</ele><time>2026-05-02T15:12:15Z</time></trkpt><trkpt lat="40.159677533571255" lon="8.80536520916855"><ele>329.0</ele><time>2026-05-02T15:12:16Z</time></trkpt><trkpt lat="40.15931550332799" lon="8.805558137761333"><ele>328.5</ele><time>2026-05-02T15:12:17Z</time></trkpt><trkpt lat="40.158956683839975" lon="8.805744125862269"><ele>328.0</ele><time>2026-05-02T15:12:18Z</time></trkpt><trkpt lat="40.15859896607413" lon="8.805933344345597"><ele>327.0</ele><time>2026-05-02T15:12:19Z</time></trkpt><trkpt lat="40.15823791659791" lon="8.806112874142885"><ele>326.0</ele><time>2026-05-02T15:12:20Z</time></trkpt><trkpt lat="40.15788115253773" lon="8.806293221353803"><ele>325.5</ele><time>2026-05-02T15:12:21Z</time></trkpt><trkpt lat="40.157525661804065" lon="8.80646296550053"><ele>325.0</ele><time>2026-05-02T15:12:22Z</time></trkpt><trkpt lat="40.15718217146189" lon="8.806634810742581"><ele>325.0</ele><time>2026-05-02T15:12:23Z</time></trkpt><trkpt lat="40.15686416284803" lon="8.806800629407553"><ele>325.0</ele><time>2026-05-02T15:12:24Z</time></trkpt><trkpt lat="40.156554310820624" lon="8.806966428559557"><ele>325.5</ele><time>2026-05-02T15:12:25Z</time></trkpt><trkpt lat="40.156244530290074" lon="8.807131095078887"><ele>326.0</ele><time>2026-05-02T15:12:26Z</time></trkpt><trkpt lat="40.15593227472205" lon="8.807294748185962"><ele>326.0</ele><time>2026-05-02T15:12:27Z</time></trkpt><trkpt lat="40.15561860164659" lon="8.807455048869398"><ele>326.0</ele><time>2026-05-02T15:12:28Z</time></trkpt><trkpt lat="40.15529784662713" lon="8.807613639011143"><ele>326.0</ele><time>2026-05-02T15:12:29Z</time></trkpt><trkpt lat="40.15497888932453" lon="8.807769618721942"><ele>326.0</ele><time>2026-05-02T15:12:30Z</time></trkpt><trkpt lat="40.154655214770756" lon="8.807915941212423"><ele>326.0</ele><time>2026-05-02T15:12:31Z</time></trkpt><trkpt lat="40.15432240726684" lon="8.808064792825741"><ele>326.0</ele><time>2026-05-02T15:12:32Z</time></trkpt><trkpt lat="40.1539902102851" lon="8.808206404161552"><ele>326.5</ele><time>2026-05-02T15:12:33Z</time></trkpt><trkpt lat="40.1536488255067" lon="8.80834891298561"><ele>327.0</ele><time>2026-05-02T15:12:34Z</time></trkpt><trkpt lat="40.15329983746378" lon="8.808483927423914"><ele>326.5</ele><time>2026-05-02T15:12:35Z</time></trkpt><trkpt lat="40.15294165561621" lon="8.80861145617453"><ele>326.0</ele><time>2026-05-02T15:12:36Z</time></trkpt><trkpt lat="40.15258130838848" lon="8.808730203758987"><ele>326.0</ele><time>2026-05-02T15:12:37Z</time></trkpt><trkpt lat="40.15221621711108" lon="8.80883255010876"><ele>326.0</ele><time>2026-05-02T15:12:38Z</time></trkpt><trkpt lat="40.1518449526566" lon="8.808942674030517"><ele>325.0</ele><time>2026-05-02T15:12:39Z</time></trkpt><trkpt lat="40.15148032609021" lon="8.809026674709829"><ele>324.0</ele><time>2026-05-02T15:12:40Z</time></trkpt><trkpt lat="40.151111010591514" lon="8.809097499655078"><ele>324.0</ele><time>2026-05-02T15:12:41Z</time></trkpt><trkpt lat="40.15074250708125" lon="8.809158762533311"><ele>324.0</ele><time>2026-05-02T15:12:42Z</time></trkpt><trkpt lat="40.150378463776825" lon="8.809216806266578"><ele>324.0</ele><time>2026-05-02T15:12:43Z</time></trkpt><trkpt lat="40.15001773627264" lon="8.809275280676323"><ele>324.0</ele><time>2026-05-02T15:12:44Z</time></trkpt><trkpt lat="40.149657439683494" lon="8.809337640926712"><ele>323.5</ele><time>2026-05-02T15:12:45Z</time></trkpt><trkpt lat="40.149300900888996" lon="8.809402820926438"><ele>323.0</ele><time>2026-05-02T15:12:46Z</time></trkpt><trkpt lat="40.14894524128449" lon="8.809466388542523"><ele>324.0</ele><time>2026-05-02T15:12:47Z</time></trkpt><trkpt lat="40.14858786763816" lon="8.809528875382453"><ele>325.0</ele><time>2026-05-02T15:12:48Z</time></trkpt><trkpt lat="40.14822971543987" lon="8.809588619950317"><ele>325.0</ele><time>2026-05-02T15:12:49Z</time></trkpt><trkpt lat="40.14787023001074" lon="8.809656921043285"><ele>325.0</ele><time>2026-05-02T15:12:50Z</time></trkpt><trkpt lat="40.14751222041285" lon="8.809717331143982"><ele>325.0</ele><time>2026-05-02T15:12:51Z</time></trkpt><trkpt lat="40.147155219070825" lon="8.809780357903692"><ele>325.0</ele><time>2026-05-02T15:12:52Z</time></trkpt><trkpt lat="40.14680307035973" lon="8.809840805038268"><ele>325.5</ele><time>2026-05-02T15:12:53Z</time></trkpt><trkpt lat="40.14645039235209" lon="8.809900310690928"><ele>326.0</ele><time>2026-05-02T15:12:54Z</time></trkpt><trkpt lat="40.146096780850385" lon="8.809968263188598"><ele>326.0</ele><time>2026-05-02T15:12:55Z</time></trkpt><trkpt lat="40.145742707302745" lon="8.810033928471057"><ele>326.0</ele><time>2026-05-02T15:12:56Z</time></trkpt><trkpt lat="40.14538644557666" lon="8.810107586862317"><ele>326.5</ele><time>2026-05-02T15:12:57Z</time></trkpt><trkpt lat="40.145020100067654" lon="8.810181734173344"><ele>327.0</ele><time>2026-05-02T15:12:58Z</time></trkpt><trkpt lat="40.14465630362695" lon="8.81026072376007"><ele>327.0</ele><time>2026-05-02T15:12:59Z</time></trkpt><trkpt lat="40.144291719270456" lon="8.810350587413573"><ele>327.0</ele><time>2026-05-02T15:13:00Z</time></trkpt><trkpt lat="40.143927341328954" lon="8.810442236579629"><ele>327.5</ele><time>2026-05-02T15:13:01Z</time></trkpt><trkpt lat="40.14356065950519" lon="8.81053784722176"><ele>328.0</ele><time>2026-05-02T15:13:02Z</time></trkpt><trkpt lat="40.143193007564086" lon="8.810634986879334"><ele>327.0</ele><time>2026-05-02T15:13:03Z</time></trkpt><trkpt lat="40.14282347915294" lon="8.810729051707437"><ele>326.0</ele><time>2026-05-02T15:13:04Z</time></trkpt><trkpt lat="40.14245783255267" lon="8.810819842994238"><ele>326.5</ele><time>2026-05-02T15:13:05Z</time></trkpt><trkpt lat="40.142089577697725" lon="8.810908685019426"><ele>327.0</ele><time>2026-05-02T15:13:06Z</time></trkpt><trkpt lat="40.141725019982815" lon="8.811007015564007"><ele>325.5</ele><time>2026-05-02T15:13:07Z</time></trkpt><trkpt lat="40.14136423307644" lon="8.811101475096226"><ele>324.0</ele><time>2026-05-02T15:13:08Z</time></trkpt><trkpt lat="40.141008418569186" lon="8.811194920530363"><ele>323.5</ele><time>2026-05-02T15:13:09Z</time></trkpt><trkpt lat="40.140651692609616" lon="8.811278807599376"><ele>323.0</ele><time>2026-05-02T15:13:10Z</time></trkpt><trkpt lat="40.14028958151634" lon="8.81133868855118"><ele>323.0</ele><time>2026-05-02T15:13:11Z</time></trkpt><trkpt lat="40.13992611643442" lon="8.81137044550395"><ele>323.0</ele><time>2026-05-02T15:13:12Z</time></trkpt><trkpt lat="40.13956213295769" lon="8.811376156259511"><ele>323.0</ele><time>2026-05-02T15:13:13Z</time></trkpt><trkpt lat="40.13919745974388" lon="8.8113627131837"><ele>323.0</ele><time>2026-05-02T15:13:14Z</time></trkpt><trkpt lat="40.13883377142146" lon="8.811321370898863"><ele>323.0</ele><time>2026-05-02T15:13:15Z</time></trkpt><trkpt lat="40.13847909595128" lon="8.811242335290698"><ele>323.0</ele><time>2026-05-02T15:13:16Z</time></trkpt><trkpt lat="40.138124681200736" lon="8.811155391880789"><ele>322.5</ele><time>2026-05-02T15:13:17Z</time></trkpt><trkpt lat="40.137776767128514" lon="8.811045399158703"><ele>322.0</ele><time>2026-05-02T15:13:18Z</time></trkpt><trkpt lat="40.137433799599364" lon="8.81091637204518"><ele>321.5</ele><time>2026-05-02T15:13:19Z</time></trkpt><trkpt lat="40.137100667252426" lon="8.810767081422798"><ele>321.0</ele><time>2026-05-02T15:13:20Z</time></trkpt><trkpt lat="40.13678807765088" lon="8.810595590865711"><ele>321.0</ele><time>2026-05-02T15:13:21Z</time></trkpt><trkpt lat="40.13648228603249" lon="8.810406315154404"><ele>321.0</ele><time>2026-05-02T15:13:22Z</time></trkpt><trkpt lat="40.13618498750135" lon="8.810205158711582"><ele>321.0</ele><time>2026-05-02T15:13:23Z</time></trkpt><trkpt lat="40.13589925563841" lon="8.80999488001621"><ele>321.0</ele><time>2026-05-02T15:13:24Z</time></trkpt><trkpt lat="40.13561723821784" lon="8.809779794718064"><ele>321.5</ele><time>2026-05-02T15:13:25Z</time></trkpt><trkpt lat="40.13533334119837" lon="8.809572597654604"><ele>322.0</ele><time>2026-05-02T15:13:26Z</time></trkpt><trkpt lat="40.13505572719646" lon="8.809366241019639"><ele>321.0</ele><time>2026-05-02T15:13:27Z</time></trkpt><trkpt lat="40.13477182534643" lon="8.8091553787582"><ele>320.0</ele><time>2026-05-02T15:13:28Z</time></trkpt><trkpt lat="40.13449223180659" lon="8.808938964131059"><ele>320.0</ele><time>2026-05-02T15:13:29Z</time></trkpt><trkpt lat="40.134206396644196" lon="8.808716809452285"><ele>320.0</ele><time>2026-05-02T15:13:30Z</time></trkpt><trkpt lat="40.133915286408495" lon="8.808498503591657"><ele>322.0</ele><time>2026-05-02T15:13:31Z</time></trkpt><trkpt lat="40.133621820686045" lon="8.808268170546787"><ele>324.0</ele><time>2026-05-02T15:13:32Z</time></trkpt><trkpt lat="40.13333282677437" lon="8.808021366055069"><ele>324.0</ele><time>2026-05-02T15:13:33Z</time></trkpt><trkpt lat="40.13304717472901" lon="8.807777739981308"><ele>324.0</ele><time>2026-05-02T15:13:34Z</time></trkpt><trkpt lat="40.132751800136816" lon="8.807551404874937"><ele>324.0</ele><time>2026-05-02T15:13:35Z</time></trkpt><trkpt lat="40.13245402512009" lon="8.807334016096277"><ele>324.0</ele><time>2026-05-02T15:13:36Z</time></trkpt><trkpt lat="40.132154139349936" lon="8.807111420962805"><ele>324.0</ele><time>2026-05-02T15:13:37Z</time></trkpt><trkpt lat="40.13185721694761" lon="8.806885326884876"><ele>324.0</ele><time>2026-05-02T15:13:38Z</time></trkpt><trkpt lat="40.13155764792854" lon="8.806657406438465"><ele>322.5</ele><time>2026-05-02T15:13:39Z</time></trkpt><trkpt lat="40.13125987495529" lon="8.806435070032961"><ele>321.0</ele><time>2026-05-02T15:13:40Z</time></trkpt><trkpt lat="40.13096589146778" lon="8.806211091707612"><ele>321.0</ele><time>2026-05-02T15:13:41Z</time></trkpt><trkpt lat="40.130666097312634" lon="8.805984601661159"><ele>321.0</ele><time>2026-05-02T15:13:42Z</time></trkpt><trkpt lat="40.130366281905694" lon="8.805762013596162"><ele>321.0</ele><time>2026-05-02T15:13:43Z</time></trkpt><trkpt lat="40.130066378890994" lon="8.80553475440205"><ele>321.0</ele><time>2026-05-02T15:13:44Z</time></trkpt><trkpt lat="40.129768929090304" lon="8.805305854584509"><ele>320.5</ele><time>2026-05-02T15:13:45Z</time></trkpt><trkpt lat="40.12947071347451" lon="8.80508010326244"><ele>320.0</ele><time>2026-05-02T15:13:46Z</time></trkpt><trkpt lat="40.129169512298944" lon="8.804857296525471"><ele>320.5</ele><time>2026-05-02T15:13:47Z</time></trkpt><trkpt lat="40.128870259489545" lon="8.80463572090697"><ele>321.0</ele><time>2026-05-02T15:13:48Z</time></trkpt><trkpt lat="40.12857529811996" lon="8.804413343581823"><ele>321.0</ele><time>2026-05-02T15:13:49Z</time></trkpt><trkpt lat="40.12827680034871" lon="8.804185935224975"><ele>321.0</ele><time>2026-05-02T15:13:50Z</time></trkpt><trkpt lat="40.12798046059745" lon="8.803959034769667"><ele>321.0</ele><time>2026-05-02T15:13:51Z</time></trkpt><trkpt lat="40.12767766980169" lon="8.803731908468368"><ele>321.0</ele><time>2026-05-02T15:13:52Z</time></trkpt><trkpt lat="40.12737789170329" lon="8.803508047625368"><ele>320.5</ele><time>2026-05-02T15:13:53Z</time></trkpt><trkpt lat="40.127077905453596" lon="8.803283747962777"><ele>320.0</ele><time>2026-05-02T15:13:54Z</time></trkpt><trkpt lat="40.12677741706633" lon="8.803054969583203"><ele>319.5</ele><time>2026-05-02T15:13:55Z</time></trkpt><trkpt lat="40.126480787462334" lon="8.802830839024072"><ele>319.0</ele><time>2026-05-02T15:13:56Z</time></trkpt><trkpt lat="40.12618234358245" lon="8.802599472227453"><ele>318.0</ele><time>2026-05-02T15:13:57Z</time></trkpt><trkpt lat="40.125885176648765" lon="8.802376245870466"><ele>317.0</ele><time>2026-05-02T15:13:58Z</time></trkpt><trkpt lat="40.1255886847955" lon="8.80215431113195"><ele>317.0</ele><time>2026-05-02T15:13:59Z</time></trkpt><trkpt lat="40.12528613245159" lon="8.801932620830959"><ele>317.0</ele><time>2026-05-02T15:14:00Z</time></trkpt><trkpt lat="40.124984472613065" lon="8.801699486904887"><ele>317.0</ele><time>2026-05-02T15:14:01Z</time></trkpt><trkpt lat="40.12468023924174" lon="8.801465000466226"><ele>317.0</ele><time>2026-05-02T15:14:02Z</time></trkpt><trkpt lat="40.124374317706625" lon="8.80122773862022"><ele>316.5</ele><time>2026-05-02T15:14:03Z</time></trkpt><trkpt lat="40.12406365994857" lon="8.800988439098065"><ele>316.0</ele><time>2026-05-02T15:14:04Z</time></trkpt><trkpt lat="40.123761650428065" lon="8.800756900271217"><ele>315.5</ele><time>2026-05-02T15:14:05Z</time></trkpt><trkpt lat="40.12345449881572" lon="8.800527206048987"><ele>315.0</ele><time>2026-05-02T15:14:06Z</time></trkpt><trkpt lat="40.12314953908678" lon="8.80029306664366"><ele>315.5</ele><time>2026-05-02T15:14:07Z</time></trkpt><trkpt lat="40.12284418514549" lon="8.800062331334717"><ele>316.0</ele><time>2026-05-02T15:14:08Z</time></trkpt><trkpt lat="40.122540564751375" lon="8.799835628190888"><ele>314.5</ele><time>2026-05-02T15:14:09Z</time></trkpt><trkpt lat="40.122237902999686" lon="8.799603448822037"><ele>313.0</ele><time>2026-05-02T15:14:10Z</time></trkpt><trkpt lat="40.12193369183398" lon="8.799366264208805"><ele>313.5</ele><time>2026-05-02T15:14:11Z</time></trkpt><trkpt lat="40.121629143416996" lon="8.799137405067945"><ele>314.0</ele><time>2026-05-02T15:14:12Z</time></trkpt><trkpt lat="40.12132321319193" lon="8.79890816656966"><ele>314.0</ele><time>2026-05-02T15:14:13Z</time></trkpt><trkpt lat="40.1210217100098" lon="8.798684345828175"><ele>314.0</ele><time>2026-05-02T15:14:14Z</time></trkpt><trkpt lat="40.120717167221414" lon="8.798460771728255"><ele>314.0</ele><time>2026-05-02T15:14:15Z</time></trkpt><trkpt lat="40.120409158846265" lon="8.798243938486003"><ele>314.0</ele><time>2026-05-02T15:14:16Z</time></trkpt><trkpt lat="40.12009664499378" lon="8.798044660506031"><ele>313.5</ele><time>2026-05-02T15:14:17Z</time></trkpt><trkpt lat="40.11977566062337" lon="8.797860359593642"><ele>313.0</ele><time>2026-05-02T15:14:18Z</time></trkpt><trkpt lat="40.11944662556387" lon="8.797695582151876"><ele>313.0</ele><time>2026-05-02T15:14:19Z</time></trkpt><trkpt lat="40.11911360276631" lon="8.797532703710495"><ele>313.0</ele><time>2026-05-02T15:14:20Z</time></trkpt><trkpt lat="40.11878258461672" lon="8.797369951719222"><ele>312.0</ele><time>2026-05-02T15:14:21Z</time></trkpt><trkpt lat="40.11845696334524" lon="8.797214254061695"><ele>311.0</ele><time>2026-05-02T15:14:22Z</time></trkpt><trkpt lat="40.118131179248124" lon="8.797046119126055"><ele>310.5</ele><time>2026-05-02T15:14:23Z</time></trkpt><trkpt lat="40.11780856260168" lon="8.796880490048308"><ele>310.0</ele><time>2026-05-02T15:14:24Z</time></trkpt><trkpt lat="40.117480173316025" lon="8.79671542753732"><ele>309.5</ele><time>2026-05-02T15:14:25Z</time></trkpt><trkpt lat="40.117148513916284" lon="8.796543965119778"><ele>309.0</ele><time>2026-05-02T15:14:26Z</time></trkpt><trkpt lat="40.11682193779472" lon="8.796374498603964"><ele>309.5</ele><time>2026-05-02T15:14:27Z</time></trkpt><trkpt lat="40.1164940953039" lon="8.796213805625687"><ele>310.0</ele><time>2026-05-02T15:14:28Z</time></trkpt><trkpt lat="40.11617103085591" lon="8.7960496077764"><ele>309.5</ele><time>2026-05-02T15:14:29Z</time></trkpt><trkpt lat="40.11584135872429" lon="8.795880100023366"><ele>309.0</ele><time>2026-05-02T15:14:30Z</time></trkpt><trkpt lat="40.11550705941584" lon="8.79570561979153"><ele>309.0</ele><time>2026-05-02T15:14:31Z</time></trkpt><trkpt lat="40.1151739692055" lon="8.79553357563747"><ele>309.0</ele><time>2026-05-02T15:14:32Z</time></trkpt><trkpt lat="40.11484470810568" lon="8.795360365681868"><ele>309.5</ele><time>2026-05-02T15:14:33Z</time></trkpt><trkpt lat="40.11451987373622" lon="8.795196958024455"><ele>310.0</ele><time>2026-05-02T15:14:34Z</time></trkpt><trkpt lat="40.1141948976164" lon="8.795026288108064"><ele>308.0</ele><time>2026-05-02T15:14:35Z</time></trkpt><trkpt lat="40.11387479035297" lon="8.794868573979468"><ele>306.0</ele><time>2026-05-02T15:14:36Z</time></trkpt><trkpt lat="40.11355432523503" lon="8.794681864715814"><ele>306.0</ele><time>2026-05-02T15:14:37Z</time></trkpt><trkpt lat="40.113258190308414" lon="8.79455435868633"><ele>306.0</ele><time>2026-05-02T15:14:38Z</time></trkpt><trkpt lat="40.11297282746028" lon="8.794413683954305"><ele>303.0</ele><time>2026-05-02T15:14:39Z</time></trkpt><trkpt lat="40.11269144382661" lon="8.794278347870387"><ele>300.0</ele><time>2026-05-02T15:14:40Z</time></trkpt><trkpt lat="40.11240958168526" lon="8.79413512784124"><ele>299.0</ele><time>2026-05-02T15:14:41Z</time></trkpt><trkpt lat="40.11212681369565" lon="8.793988293060115"><ele>298.0</ele><time>2026-05-02T15:14:42Z</time></trkpt><trkpt lat="40.111843470197634" lon="8.793837185952333"><ele>297.5</ele><time>2026-05-02T15:14:43Z</time></trkpt><trkpt lat="40.11156217224474" lon="8.793696604553931"><ele>297.0</ele><time>2026-05-02T15:14:44Z</time></trkpt><trkpt lat="40.111272396645916" lon="8.793548771540763"><ele>297.5</ele><time>2026-05-02T15:14:45Z</time></trkpt><trkpt lat="40.11098067476267" lon="8.793406141252058"><ele>298.0</ele><time>2026-05-02T15:14:46Z</time></trkpt><trkpt lat="40.11068810417848" lon="8.793260010935287"><ele>296.5</ele><time>2026-05-02T15:14:47Z</time></trkpt><trkpt lat="40.11040072769806" lon="8.793114424007085"><ele>295.0</ele><time>2026-05-02T15:14:48Z</time></trkpt><trkpt lat="40.110125533831244" lon="8.792977276745741"><ele>294.0</ele><time>2026-05-02T15:14:49Z</time></trkpt><trkpt lat="40.109866802868446" lon="8.792849547308078"><ele>293.0</ele><time>2026-05-02T15:14:50Z</time></trkpt><trkpt lat="40.10961168148492" lon="8.79272089703841"><ele>294.5</ele><time>2026-05-02T15:14:51Z</time></trkpt><trkpt lat="40.10935967845597" lon="8.79259246436918"><ele>296.0</ele><time>2026-05-02T15:14:52Z</time></trkpt><trkpt lat="40.109105068759845" lon="8.792461005318964"><ele>293.5</ele><time>2026-05-02T15:14:53Z</time></trkpt><trkpt lat="40.10884668653345" lon="8.792325067357973"><ele>291.0</ele><time>2026-05-02T15:14:54Z</time></trkpt><trkpt lat="40.108592700757995" lon="8.792186418731065"><ele>291.0</ele><time>2026-05-02T15:14:55Z</time></trkpt><trkpt lat="40.10835134398065" lon="8.792036933532652"><ele>291.0</ele><time>2026-05-02T15:14:56Z</time></trkpt><trkpt lat="40.108130254255855" lon="8.791872739202974"><ele>288.5</ele><time>2026-05-02T15:14:57Z</time></trkpt><trkpt lat="40.10792120713734" lon="8.79169676920989"><ele>286.0</ele><time>2026-05-02T15:14:57.999Z</time></trkpt><trkpt lat="40.10772618474112" lon="8.791516070964146"><ele>286.0</ele><time>2026-05-02T15:14:58.999Z</time></trkpt><trkpt lat="40.10754350777701" lon="8.791342923398114"><ele>286.0</ele><time>2026-05-02T15:14:59.999Z</time></trkpt><trkpt lat="40.10737026243448" lon="8.791174817430099"><ele>286.0</ele><time>2026-05-02T15:15:00.999Z</time></trkpt><trkpt lat="40.107206695127076" lon="8.790998876821364"><ele>285.66666666666663</ele><time>2026-05-02T15:15:01.999Z</time></trkpt><trkpt lat="40.10703977309999" lon="8.790827921711115"><ele>285.3333333333333</ele><time>2026-05-02T15:15:02.999Z</time></trkpt><trkpt lat="40.10688117352215" lon="8.790648826285837"><ele>285.0</ele><time>2026-05-02T15:15:03.999Z</time></trkpt><trkpt lat="40.10672201914731" lon="8.790472163158999"><ele>284.6666666666667</ele><time>2026-05-02T15:15:04.999Z</time></trkpt><trkpt lat="40.10655860596275" lon="8.79029238175365"><ele>284.33333333333337</ele><time>2026-05-02T15:15:05.999Z</time></trkpt><trkpt lat="40.10639638276927" lon="8.79011202979283"><ele>284.0</ele><time>2026-05-02T15:15:06.999Z</time></trkpt><trkpt lat="40.10623873312716" lon="8.78993752865001"><ele>284.0</ele><time>2026-05-02T15:15:07.999Z</time></trkpt><trkpt lat="40.10608179876947" lon="8.789768232221606"><ele>284.0</ele><time>2026-05-02T15:15:08.999Z</time></trkpt><trkpt lat="40.10592681053747" lon="8.789594007561393"><ele>284.0</ele><time>2026-05-02T15:15:09.999Z</time></trkpt><trkpt lat="40.105768524169264" lon="8.789420191689901"><ele>284.0</ele><time>2026-05-02T15:15:10.999Z</time></trkpt><trkpt lat="40.105608189262725" lon="8.789244795117083"><ele>284.0</ele><time>2026-05-02T15:15:11.999Z</time></trkpt><trkpt lat="40.105451233265306" lon="8.789068563257912"><ele>284.0</ele><time>2026-05-02T15:15:12.999Z</time></trkpt><trkpt lat="40.105302841221175" lon="8.7888961278875"><ele>284.0</ele><time>2026-05-02T15:15:13.999Z</time></trkpt><trkpt lat="40.105149484299396" lon="8.78872780861713"><ele>284.0</ele><time>2026-05-02T15:15:14.999Z</time></trkpt><trkpt lat="40.10499400819429" lon="8.788557884869425"><ele>284.0</ele><time>2026-05-02T15:15:16Z</time></trkpt><trkpt lat="40.10483688972642" lon="8.788382991827675"><ele>283.6666666666667</ele><time>2026-05-02T15:15:17Z</time></trkpt><trkpt lat="40.104677940538046" lon="8.788204942762166"><ele>283.3333333333333</ele><time>2026-05-02T15:15:18Z</time></trkpt><trkpt lat="40.10451521437254" lon="8.788023466878819"><ele>283.0</ele><time>2026-05-02T15:15:19Z</time></trkpt><trkpt lat="40.104353729779284" lon="8.787851510012487"><ele>282.0</ele><time>2026-05-02T15:15:20Z</time></trkpt><trkpt lat="40.10419201142526" lon="8.787675336905473"><ele>281.0</ele><time>2026-05-02T15:15:21Z</time></trkpt><trkpt lat="40.10403198730332" lon="8.787495452103686"><ele>280.0</ele><time>2026-05-02T15:15:22Z</time></trkpt><trkpt lat="40.10387459183186" lon="8.78732495727467"><ele>279.66666666666663</ele><time>2026-05-02T15:15:23Z</time></trkpt><trkpt lat="40.103720501890386" lon="8.78715311244996"><ele>279.3333333333333</ele><time>2026-05-02T15:15:24Z</time></trkpt><trkpt lat="40.103567252804545" lon="8.786981285435916"><ele>279.0</ele><time>2026-05-02T15:15:25Z</time></trkpt><trkpt lat="40.103413390801826" lon="8.78680869746162"><ele>279.3333333333333</ele><time>2026-05-02T15:15:26Z</time></trkpt><trkpt lat="40.10326199991724" lon="8.786640001951428"><ele>279.66666666666663</ele><time>2026-05-02T15:15:27Z</time></trkpt><trkpt lat="40.103103705842365" lon="8.786460592350567"><ele>280.0</ele><time>2026-05-02T15:15:28Z</time></trkpt><trkpt lat="40.10293101697263" lon="8.786277251652901"><ele>280.0</ele><time>2026-05-02T15:15:29Z</time></trkpt><trkpt lat="40.10274515262376" lon="8.786081192003646"><ele>280.0</ele><time>2026-05-02T15:15:30Z</time></trkpt><trkpt lat="40.10254862945964" lon="8.785871001338357"><ele>279.5</ele><time>2026-05-02T15:15:31Z</time></trkpt><trkpt lat="40.10234376082869" lon="8.785648486048512"><ele>279.0</ele><time>2026-05-02T15:15:32Z</time></trkpt><trkpt lat="40.10213822590637" lon="8.785412455520705"><ele>280.0</ele><time>2026-05-02T15:15:33Z</time></trkpt><trkpt lat="40.101932957036716" lon="8.785160441292721"><ele>281.0</ele><time>2026-05-02T15:15:34Z</time></trkpt><trkpt lat="40.10173483681796" lon="8.784891697603907"><ele>279.5</ele><time>2026-05-02T15:15:35Z</time></trkpt><trkpt lat="40.1015509839373" lon="8.784615855767024"><ele>278.0</ele><time>2026-05-02T15:15:36Z</time></trkpt><trkpt lat="40.1013696974213" lon="8.784327479513019"><ele>277.5</ele><time>2026-05-02T15:15:37Z</time></trkpt><trkpt lat="40.10118709574828" lon="8.784034445631564"><ele>277.0</ele><time>2026-05-02T15:15:38Z</time></trkpt><trkpt lat="40.10099448983971" lon="8.783734225125936"><ele>277.5</ele><time>2026-05-02T15:15:39Z</time></trkpt><trkpt lat="40.10080238622029" lon="8.783427659237447"><ele>278.0</ele><time>2026-05-02T15:15:40Z</time></trkpt><trkpt lat="40.10060843792405" lon="8.783121756142846"><ele>276.5</ele><time>2026-05-02T15:15:41Z</time></trkpt><trkpt lat="40.100423372554644" lon="8.782824209188139"><ele>275.0</ele><time>2026-05-02T15:15:42Z</time></trkpt><trkpt lat="40.1002421241658" lon="8.782539707101733"><ele>275.0</ele><time>2026-05-02T15:15:43Z</time></trkpt><trkpt lat="40.10005842617053" lon="8.782258668396423"><ele>275.0</ele><time>2026-05-02T15:15:44Z</time></trkpt><trkpt lat="40.09987757724131" lon="8.781975103172893"><ele>275.5</ele><time>2026-05-02T15:15:45Z</time></trkpt><trkpt lat="40.09969324176025" lon="8.78168900331588"><ele>276.0</ele><time>2026-05-02T15:15:46Z</time></trkpt><trkpt lat="40.09950754391226" lon="8.781394236010119"><ele>276.0</ele><time>2026-05-02T15:15:47Z</time></trkpt><trkpt lat="40.09931681626157" lon="8.781092180661293"><ele>276.0</ele><time>2026-05-02T15:15:48Z</time></trkpt><trkpt lat="40.09912278567627" lon="8.780783652604159"><ele>275.5</ele><time>2026-05-02T15:15:49Z</time></trkpt><trkpt lat="40.098935884133176" lon="8.780477368784721"><ele>275.0</ele><time>2026-05-02T15:15:50Z</time></trkpt><trkpt lat="40.098743777076244" lon="8.780173527941932"><ele>275.0</ele><time>2026-05-02T15:15:51Z</time></trkpt><trkpt lat="40.09855160417105" lon="8.779871131412456"><ele>275.0</ele><time>2026-05-02T15:15:52Z</time></trkpt><trkpt lat="40.09836153688437" lon="8.779562838203445"><ele>275.0</ele><time>2026-05-02T15:15:53Z</time></trkpt><trkpt lat="40.09817056010279" lon="8.779255215069364"><ele>275.0</ele><time>2026-05-02T15:15:54Z</time></trkpt><trkpt lat="40.09798253535481" lon="8.778942098688496"><ele>275.0</ele><time>2026-05-02T15:15:55Z</time></trkpt><trkpt lat="40.09778177509341" lon="8.778641736613013"><ele>275.0</ele><time>2026-05-02T15:15:56Z</time></trkpt><trkpt lat="40.09758202314729" lon="8.778336793516088"><ele>275.5</ele><time>2026-05-02T15:15:57Z</time></trkpt><trkpt lat="40.09737791226735" lon="8.778023936981203"><ele>276.0</ele><time>2026-05-02T15:15:58Z</time></trkpt><trkpt lat="40.09717428837162" lon="8.777705954252033"><ele>277.0</ele><time>2026-05-02T15:15:59Z</time></trkpt><trkpt lat="40.09697607673" lon="8.77738396941394"><ele>278.0</ele><time>2026-05-02T15:16:00Z</time></trkpt><trkpt lat="40.09677944612647" lon="8.777065899262693"><ele>279.0</ele><time>2026-05-02T15:16:01Z</time></trkpt><trkpt lat="40.0965804368352" lon="8.776749170863354"><ele>280.0</ele><time>2026-05-02T15:16:02Z</time></trkpt><trkpt lat="40.09637957510864" lon="8.776428626079518"><ele>280.0</ele><time>2026-05-02T15:16:03Z</time></trkpt><trkpt lat="40.09618115604434" lon="8.776101789598775"><ele>280.0</ele><time>2026-05-02T15:16:04Z</time></trkpt><trkpt lat="40.09599181948006" lon="8.775764098904892"><ele>280.5</ele><time>2026-05-02T15:16:05Z</time></trkpt><trkpt lat="40.095812362064756" lon="8.775413063937863"><ele>281.0</ele><time>2026-05-02T15:16:06Z</time></trkpt><trkpt lat="40.09565266100988" lon="8.775042091493255"><ele>282.0</ele><time>2026-05-02T15:16:07Z</time></trkpt><trkpt lat="40.0955095791206" lon="8.774658159675212"><ele>283.0</ele><time>2026-05-02T15:16:08Z</time></trkpt><trkpt lat="40.09538173116604" lon="8.774269518603989"><ele>286.0</ele><time>2026-05-02T15:16:09Z</time></trkpt><trkpt lat="40.09526579873447" lon="8.773875803894805"><ele>289.0</ele><time>2026-05-02T15:16:10Z</time></trkpt><trkpt lat="40.095152117223044" lon="8.773471453853803"><ele>290.0</ele><time>2026-05-02T15:16:11Z</time></trkpt><trkpt lat="40.09504344791823" lon="8.773065296630493"><ele>291.0</ele><time>2026-05-02T15:16:12Z</time></trkpt><trkpt lat="40.09493624241432" lon="8.772662685373994"><ele>292.5</ele><time>2026-05-02T15:16:13Z</time></trkpt><trkpt lat="40.094827981348445" lon="8.772258360693154"><ele>294.0</ele><time>2026-05-02T15:16:14Z</time></trkpt><trkpt lat="40.09471955905784" lon="8.771855539407976"><ele>296.0</ele><time>2026-05-02T15:16:15Z</time></trkpt><trkpt lat="40.09460298447027" lon="8.771446799318657"><ele>298.0</ele><time>2026-05-02T15:16:16Z</time></trkpt><trkpt lat="40.09448392010558" lon="8.771037946132854"><ele>298.0</ele><time>2026-05-02T15:16:17Z</time></trkpt><trkpt lat="40.094368007592465" lon="8.770625125319643"><ele>298.0</ele><time>2026-05-02T15:16:18Z</time></trkpt><trkpt lat="40.09424897287141" lon="8.770191560326111"><ele>298.0</ele><time>2026-05-02T15:16:19Z</time></trkpt><trkpt lat="40.094127364052056" lon="8.769747863524877"><ele>298.0</ele><time>2026-05-02T15:16:20Z</time></trkpt><trkpt lat="40.09400858333885" lon="8.769309212943657"><ele>297.5</ele><time>2026-05-02T15:16:21Z</time></trkpt><trkpt lat="40.09389111379039" lon="8.7688718646839"><ele>297.0</ele><time>2026-05-02T15:16:22Z</time></trkpt><trkpt lat="40.09377551031697" lon="8.768438927990704"><ele>297.0</ele><time>2026-05-02T15:16:23Z</time></trkpt><trkpt lat="40.093658942722186" lon="8.76799917356978"><ele>297.0</ele><time>2026-05-02T15:16:24Z</time></trkpt><trkpt lat="40.09354188493039" lon="8.767550607246733"><ele>298.0</ele><time>2026-05-02T15:16:25Z</time></trkpt><trkpt lat="40.09342774023096" lon="8.767108311876253"><ele>299.0</ele><time>2026-05-02T15:16:26Z</time></trkpt><trkpt lat="40.09331179463749" lon="8.766673054879266"><ele>299.0</ele><time>2026-05-02T15:16:27Z</time></trkpt><trkpt lat="40.0931977535003" lon="8.766239165490266"><ele>299.0</ele><time>2026-05-02T15:16:28Z</time></trkpt><trkpt lat="40.093078940322" lon="8.76581661641522"><ele>299.0</ele><time>2026-05-02T15:16:29Z</time></trkpt><trkpt lat="40.09295662805878" lon="8.76539249654068"><ele>299.0</ele><time>2026-05-02T15:16:30Z</time></trkpt><trkpt lat="40.09283566216622" lon="8.764955622672046"><ele>299.0</ele><time>2026-05-02T15:16:31Z</time></trkpt><trkpt lat="40.09271923295555" lon="8.764519134016542"><ele>299.0</ele><time>2026-05-02T15:16:32Z</time></trkpt><trkpt lat="40.09259872719964" lon="8.764076943020848"><ele>299.0</ele><time>2026-05-02T15:16:33Z</time></trkpt><trkpt lat="40.09247231395041" lon="8.763633207338046"><ele>299.0</ele><time>2026-05-02T15:16:34Z</time></trkpt><trkpt lat="40.09234859439595" lon="8.76319203789573"><ele>299.0</ele><time>2026-05-02T15:16:35Z</time></trkpt><trkpt lat="40.09222770443031" lon="8.762747467003521"><ele>299.0</ele><time>2026-05-02T15:16:36Z</time></trkpt><trkpt lat="40.09210594108724" lon="8.762300336492201"><ele>298.5</ele><time>2026-05-02T15:16:37Z</time></trkpt><trkpt lat="40.09198491502401" lon="8.761861184662022"><ele>298.0</ele><time>2026-05-02T15:16:38Z</time></trkpt><trkpt lat="40.091862464093474" lon="8.761418298875114"><ele>298.0</ele><time>2026-05-02T15:16:39Z</time></trkpt><trkpt lat="40.0917382183004" lon="8.760975812594053"><ele>298.0</ele><time>2026-05-02T15:16:40Z</time></trkpt><trkpt lat="40.091617208554354" lon="8.76054314857467"><ele>298.0</ele><time>2026-05-02T15:16:41Z</time></trkpt><trkpt lat="40.091504744712445" lon="8.760123728802984"><ele>298.0</ele><time>2026-05-02T15:16:42Z</time></trkpt><trkpt lat="40.09139127912898" lon="8.759718339695281"><ele>297.5</ele><time>2026-05-02T15:16:43Z</time></trkpt><trkpt lat="40.091273023936246" lon="8.759316715468136"><ele>297.0</ele><time>2026-05-02T15:16:44Z</time></trkpt><trkpt lat="40.09115546999385" lon="8.758921641356121"><ele>297.0</ele><time>2026-05-02T15:16:45Z</time></trkpt><trkpt lat="40.091027014845565" lon="8.758543659660912"><ele>297.0</ele><time>2026-05-02T15:16:46Z</time></trkpt><trkpt lat="40.09087422548142" lon="8.75818568785408"><ele>295.5</ele><time>2026-05-02T15:16:47Z</time></trkpt><trkpt lat="40.09070851240172" lon="8.757836540495253"><ele>294.0</ele><time>2026-05-02T15:16:48Z</time></trkpt><trkpt lat="40.09053466755257" lon="8.757507315529445"><ele>293.5</ele><time>2026-05-02T15:16:49Z</time></trkpt><trkpt lat="40.09034737841783" lon="8.757187324647079"><ele>293.0</ele><time>2026-05-02T15:16:50Z</time></trkpt><trkpt lat="40.090135248036354" lon="8.756871796858487"><ele>291.5</ele><time>2026-05-02T15:16:51Z</time></trkpt><trkpt lat="40.08991917429734" lon="8.756564500874738"><ele>290.0</ele><time>2026-05-02T15:16:52Z</time></trkpt><trkpt lat="40.089669008743314" lon="8.75629251828587"><ele>290.0</ele><time>2026-05-02T15:16:53Z</time></trkpt><trkpt lat="40.08940904127614" lon="8.756029155907779"><ele>290.0</ele><time>2026-05-02T15:16:54Z</time></trkpt><trkpt lat="40.08914070570329" lon="8.755776817960175"><ele>289.0</ele><time>2026-05-02T15:16:55Z</time></trkpt><trkpt lat="40.08885864629276" lon="8.75555884489289"><ele>288.0</ele><time>2026-05-02T15:16:56Z</time></trkpt><trkpt lat="40.088569353393304" lon="8.755362196161116"><ele>287.5</ele><time>2026-05-02T15:16:57Z</time></trkpt><trkpt lat="40.08827552882568" lon="8.75519073447037"><ele>287.0</ele><time>2026-05-02T15:16:58Z</time></trkpt><trkpt lat="40.087984127347966" lon="8.755017084690898"><ele>286.0</ele><time>2026-05-02T15:16:59Z</time></trkpt><trkpt lat="40.08769330560244" lon="8.75484120363794"><ele>285.0</ele><time>2026-05-02T15:17:00Z</time></trkpt><trkpt lat="40.087404522860375" lon="8.754665975089436"><ele>284.0</ele><time>2026-05-02T15:17:01Z</time></trkpt><trkpt lat="40.087112994715824" lon="8.754492985969703"><ele>283.0</ele><time>2026-05-02T15:17:02Z</time></trkpt><trkpt lat="40.08681894064203" lon="8.754313342328823"><ele>281.5</ele><time>2026-05-02T15:17:03Z</time></trkpt><trkpt lat="40.086527294191065" lon="8.754136588585181"><ele>280.0</ele><time>2026-05-02T15:17:03.999Z</time></trkpt><trkpt lat="40.086227376656765" lon="8.75395021712395"><ele>280.0</ele><time>2026-05-02T15:17:04.999Z</time></trkpt><trkpt lat="40.085929287246834" lon="8.753766569208814"><ele>280.0</ele><time>2026-05-02T15:17:05.999Z</time></trkpt><trkpt lat="40.08562436492539" lon="8.753568283565164"><ele>276.0</ele><time>2026-05-02T15:17:06.999Z</time></trkpt><trkpt lat="40.08532006771081" lon="8.753373826195492"><ele>272.0</ele><time>2026-05-02T15:17:07.999Z</time></trkpt><trkpt lat="40.085011216099005" lon="8.753169618246153"><ele>267.5</ele><time>2026-05-02T15:17:08.999Z</time></trkpt><trkpt lat="40.08470248132153" lon="8.752970066953061"><ele>263.0</ele><time>2026-05-02T15:17:09.999Z</time></trkpt><trkpt lat="40.08439123660566" lon="8.752775768259193"><ele>263.5</ele><time>2026-05-02T15:17:10.999Z</time></trkpt><trkpt lat="40.084081327888" lon="8.752587194124622"><ele>264.0</ele><time>2026-05-02T15:17:11.999Z</time></trkpt><trkpt lat="40.08377325090917" lon="8.7523915304039"><ele>264.0</ele><time>2026-05-02T15:17:12.999Z</time></trkpt><trkpt lat="40.083468785823236" lon="8.752208372849944"><ele>264.0</ele><time>2026-05-02T15:17:13.999Z</time></trkpt><trkpt lat="40.083154367777745" lon="8.752046672170255"><ele>262.5</ele><time>2026-05-02T15:17:14.999Z</time></trkpt><trkpt lat="40.08283878738748" lon="8.751930487795715"><ele>261.0</ele><time>2026-05-02T15:17:15.999Z</time></trkpt><trkpt lat="40.08251575653963" lon="8.751838255215677"><ele>266.0</ele><time>2026-05-02T15:17:16.999Z</time></trkpt><trkpt lat="40.082183982450196" lon="8.751776900884325"><ele>271.0</ele><time>2026-05-02T15:17:17.999Z</time></trkpt><trkpt lat="40.081848747781734" lon="8.751741505436478"><ele>271.0</ele><time>2026-05-02T15:17:18.999Z</time></trkpt><trkpt lat="40.08151036362969" lon="8.751716288410513"><ele>271.0</ele><time>2026-05-02T15:17:19.999Z</time></trkpt><trkpt lat="40.08117386577656" lon="8.751717452442143"><ele>271.0</ele><time>2026-05-02T15:17:20.999Z</time></trkpt><trkpt lat="40.080838788134365" lon="8.751720800222428"><ele>271.0</ele><time>2026-05-02T15:17:21.999Z</time></trkpt><trkpt lat="40.08049949368148" lon="8.751718449633254"><ele>271.0</ele><time>2026-05-02T15:17:22.999Z</time></trkpt><trkpt lat="40.08016342588142" lon="8.751712473932951"><ele>271.0</ele><time>2026-05-02T15:17:23.999Z</time></trkpt><trkpt lat="40.07982690815974" lon="8.751704262096567"><ele>271.0</ele><time>2026-05-02T15:17:25Z</time></trkpt><trkpt lat="40.07950037064322" lon="8.751695209574057"><ele>271.0</ele><time>2026-05-02T15:17:26Z</time></trkpt><trkpt lat="40.0791720919744" lon="8.751687301959317"><ele>271.0</ele><time>2026-05-02T15:17:27Z</time></trkpt><trkpt lat="40.07884436808173" lon="8.75167335784074"><ele>271.0</ele><time>2026-05-02T15:17:28Z</time></trkpt><trkpt lat="40.07851645819322" lon="8.75166478337508"><ele>270.0</ele><time>2026-05-02T15:17:29Z</time></trkpt><trkpt lat="40.078189115483625" lon="8.751645094291167"><ele>269.0</ele><time>2026-05-02T15:17:30Z</time></trkpt><trkpt lat="40.07785999593547" lon="8.751609114163958"><ele>269.0</ele><time>2026-05-02T15:17:31Z</time></trkpt><trkpt lat="40.07752807932952" lon="8.751547128473717"><ele>269.0</ele><time>2026-05-02T15:17:32Z</time></trkpt><trkpt lat="40.07719235204679" lon="8.751447815491792"><ele>266.0</ele><time>2026-05-02T15:17:33Z</time></trkpt><trkpt lat="40.0768723065848" lon="8.751325117504386"><ele>263.0</ele><time>2026-05-02T15:17:34Z</time></trkpt><trkpt lat="40.07655362895786" lon="8.751173599125398"><ele>262.0</ele><time>2026-05-02T15:17:35Z</time></trkpt><trkpt lat="40.076240774316624" lon="8.751001346871254"><ele>261.0</ele><time>2026-05-02T15:17:36Z</time></trkpt><trkpt lat="40.075938248912664" lon="8.750798021419296"><ele>259.0</ele><time>2026-05-02T15:17:37Z</time></trkpt><trkpt lat="40.075646376231454" lon="8.750582377951826"><ele>257.0</ele><time>2026-05-02T15:17:38Z</time></trkpt><trkpt lat="40.07536225747282" lon="8.750359443517363"><ele>257.0</ele><time>2026-05-02T15:17:39Z</time></trkpt><trkpt lat="40.0750752009977" lon="8.75013384055346"><ele>257.0</ele><time>2026-05-02T15:17:40Z</time></trkpt><trkpt lat="40.074785331387076" lon="8.749914501411217"><ele>253.5</ele><time>2026-05-02T15:17:41Z</time></trkpt><trkpt lat="40.07448670237586" lon="8.749692954088838"><ele>250.0</ele><time>2026-05-02T15:17:42Z</time></trkpt><trkpt lat="40.07419147084254" lon="8.749470595044054"><ele>249.0</ele><time>2026-05-02T15:17:43Z</time></trkpt><trkpt lat="40.07389631789317" lon="8.749248244217789"><ele>248.0</ele><time>2026-05-02T15:17:44Z</time></trkpt><trkpt lat="40.0736055768996" lon="8.749020189693733"><ele>248.0</ele><time>2026-05-02T15:17:45Z</time></trkpt><trkpt lat="40.073315995254575" lon="8.748788178478682"><ele>248.0</ele><time>2026-05-02T15:17:46Z</time></trkpt><trkpt lat="40.07303680506135" lon="8.748554138280609"><ele>246.0</ele><time>2026-05-02T15:17:47Z</time></trkpt><trkpt lat="40.07277267093402" lon="8.748334727703588"><ele>244.0</ele><time>2026-05-02T15:17:48Z</time></trkpt><trkpt lat="40.07251022828584" lon="8.748118266790714"><ele>243.0</ele><time>2026-05-02T15:17:49Z</time></trkpt><trkpt lat="40.07224557458809" lon="8.747912318681996"><ele>242.0</ele><time>2026-05-02T15:17:50Z</time></trkpt><trkpt lat="40.07197595402941" lon="8.747715715920801"><ele>242.0</ele><time>2026-05-02T15:17:51Z</time></trkpt><trkpt lat="40.07171312995884" lon="8.74750881589635"><ele>242.0</ele><time>2026-05-02T15:17:52Z</time></trkpt><trkpt lat="40.071446551408236" lon="8.74730382165128"><ele>240.5</ele><time>2026-05-02T15:17:53Z</time></trkpt><trkpt lat="40.0711837445811" lon="8.747099787816992"><ele>239.0</ele><time>2026-05-02T15:17:54Z</time></trkpt><trkpt lat="40.070925799199436" lon="8.746895489866588"><ele>238.5</ele><time>2026-05-02T15:17:55Z</time></trkpt><trkpt lat="40.070666008578485" lon="8.746690339599581"><ele>238.0</ele><time>2026-05-02T15:17:56Z</time></trkpt><trkpt lat="40.07040473485491" lon="8.746491763278287"><ele>238.0</ele><time>2026-05-02T15:17:57Z</time></trkpt><trkpt lat="40.07014480911634" lon="8.746289028576813"><ele>238.0</ele><time>2026-05-02T15:17:58Z</time></trkpt><trkpt lat="40.069887482276386" lon="8.746085516640596"><ele>237.5</ele><time>2026-05-02T15:17:59Z</time></trkpt><trkpt lat="40.06963419201502" lon="8.745888869893273"><ele>237.0</ele><time>2026-05-02T15:18:00Z</time></trkpt><trkpt lat="40.069377751604634" lon="8.745685995721459"><ele>237.0</ele><time>2026-05-02T15:18:01Z</time></trkpt><trkpt lat="40.06912593416374" lon="8.745486791836298"><ele>237.0</ele><time>2026-05-02T15:18:02Z</time></trkpt><trkpt lat="40.06888041497188" lon="8.745293949654673"><ele>236.5</ele><time>2026-05-02T15:18:03Z</time></trkpt><trkpt lat="40.06863185406916" lon="8.745093547357436"><ele>236.0</ele><time>2026-05-02T15:18:04Z</time></trkpt><trkpt lat="40.06839149561875" lon="8.744889348147977"><ele>231.0</ele><time>2026-05-02T15:18:05Z</time></trkpt><trkpt lat="40.06816087029176" lon="8.744678654084927"><ele>226.0</ele><time>2026-05-02T15:18:06Z</time></trkpt><trkpt lat="40.06794316994567" lon="8.744445245798216"><ele>228.0</ele><time>2026-05-02T15:18:07Z</time></trkpt><trkpt lat="40.06773258980436" lon="8.744195747281061"><ele>230.0</ele><time>2026-05-02T15:18:08Z</time></trkpt><trkpt lat="40.06753666667676" lon="8.743935603333256"><ele>226.0</ele><time>2026-05-02T15:18:09Z</time></trkpt><trkpt lat="40.06733887437128" lon="8.743661110046798"><ele>222.0</ele><time>2026-05-02T15:18:10Z</time></trkpt><trkpt lat="40.067151398252975" lon="8.743379068702092"><ele>222.0</ele><time>2026-05-02T15:18:11Z</time></trkpt><trkpt lat="40.06696237571414" lon="8.743082235481594"><ele>222.0</ele><time>2026-05-02T15:18:12Z</time></trkpt><trkpt lat="40.06677729787652" lon="8.742786161616056"><ele>221.5</ele><time>2026-05-02T15:18:13Z</time></trkpt><trkpt lat="40.06658959372828" lon="8.742488915068858"><ele>221.0</ele><time>2026-05-02T15:18:14Z</time></trkpt><trkpt lat="40.06639806931752" lon="8.742196430687514"><ele>221.0</ele><time>2026-05-02T15:18:15Z</time></trkpt><trkpt lat="40.06620596093059" lon="8.741902342902433"><ele>221.0</ele><time>2026-05-02T15:18:16Z</time></trkpt><trkpt lat="40.066017816178615" lon="8.741604281961868"><ele>225.5</ele><time>2026-05-02T15:18:17Z</time></trkpt><trkpt lat="40.065824198919785" lon="8.741308429177414"><ele>230.0</ele><time>2026-05-02T15:18:18Z</time></trkpt><trkpt lat="40.06563099905674" lon="8.741010773176923"><ele>230.0</ele><time>2026-05-02T15:18:19Z</time></trkpt><trkpt lat="40.06543606630881" lon="8.740714073632699"><ele>230.0</ele><time>2026-05-02T15:18:20Z</time></trkpt><trkpt lat="40.06523464664817" lon="8.740410598629651"><ele>231.0</ele><time>2026-05-02T15:18:21Z</time></trkpt><trkpt lat="40.06503443272857" lon="8.740100197977343"><ele>232.0</ele><time>2026-05-02T15:18:22Z</time></trkpt><trkpt lat="40.064831492559684" lon="8.73978106845273"><ele>229.0</ele><time>2026-05-02T15:18:23Z</time></trkpt><trkpt lat="40.06462499160384" lon="8.73946018501068"><ele>226.0</ele><time>2026-05-02T15:18:24Z</time></trkpt><trkpt lat="40.06441563376418" lon="8.739141715222658"><ele>226.0</ele><time>2026-05-02T15:18:25Z</time></trkpt><trkpt lat="40.06421128783575" lon="8.738817963029677"><ele>226.0</ele><time>2026-05-02T15:18:26Z</time></trkpt><trkpt lat="40.064019549690414" lon="8.7384848838554"><ele>221.0</ele><time>2026-05-02T15:18:27Z</time></trkpt><trkpt lat="40.06384556000108" lon="8.738135786130519"><ele>216.0</ele><time>2026-05-02T15:18:28Z</time></trkpt><trkpt lat="40.06370195194553" lon="8.737769389030744"><ele>219.0</ele><time>2026-05-02T15:18:29Z</time></trkpt><trkpt lat="40.06357718035863" lon="8.737399129208498"><ele>222.0</ele><time>2026-05-02T15:18:30Z</time></trkpt><trkpt lat="40.06347170129079" lon="8.737020223937016"><ele>221.0</ele><time>2026-05-02T15:18:31Z</time></trkpt><trkpt lat="40.063371647321574" lon="8.736645161086894"><ele>220.0</ele><time>2026-05-02T15:18:32Z</time></trkpt><trkpt lat="40.06327753524809" lon="8.736264408001263"><ele>221.0</ele><time>2026-05-02T15:18:33Z</time></trkpt><trkpt lat="40.06318462762123" lon="8.735882117946677"><ele>222.0</ele><time>2026-05-02T15:18:34Z</time></trkpt><trkpt lat="40.063088569318154" lon="8.735496016677393"><ele>222.0</ele><time>2026-05-02T15:18:35Z</time></trkpt><trkpt lat="40.062984535411445" lon="8.735095982610655"><ele>222.0</ele><time>2026-05-02T15:18:36Z</time></trkpt><trkpt lat="40.062879878149374" lon="8.734688107715538"><ele>220.5</ele><time>2026-05-02T15:18:37Z</time></trkpt><trkpt lat="40.06277215496553" lon="8.73426951072758"><ele>219.0</ele><time>2026-05-02T15:18:38Z</time></trkpt><trkpt lat="40.06267048728344" lon="8.733856638740214"><ele>218.0</ele><time>2026-05-02T15:18:39Z</time></trkpt><trkpt lat="40.06256715482663" lon="8.733453572374053"><ele>217.0</ele><time>2026-05-02T15:18:40Z</time></trkpt><trkpt lat="40.06246543673509" lon="8.733047260949357"><ele>215.0</ele><time>2026-05-02T15:18:41Z</time></trkpt><trkpt lat="40.06237233309379" lon="8.732644552569248"><ele>213.0</ele><time>2026-05-02T15:18:42Z</time></trkpt><trkpt lat="40.06228305106502" lon="8.7322357682656"><ele>213.0</ele><time>2026-05-02T15:18:43Z</time></trkpt><trkpt lat="40.062188457201344" lon="8.731828218178721"><ele>213.0</ele><time>2026-05-02T15:18:44Z</time></trkpt><trkpt lat="40.06208897695641" lon="8.73142657947341"><ele>212.0</ele><time>2026-05-02T15:18:45Z</time></trkpt><trkpt lat="40.06198405627104" lon="8.731029953300467"><ele>211.0</ele><time>2026-05-02T15:18:46Z</time></trkpt><trkpt lat="40.06188266701034" lon="8.730625197509132"><ele>211.0</ele><time>2026-05-02T15:18:47Z</time></trkpt><trkpt lat="40.06178143691066" lon="8.730236774699831"><ele>211.0</ele><time>2026-05-02T15:18:48Z</time></trkpt><trkpt lat="40.06168325675604" lon="8.729848310722804"><ele>210.0</ele><time>2026-05-02T15:18:49Z</time></trkpt><trkpt lat="40.06158772036495" lon="8.729462519943628"><ele>209.0</ele><time>2026-05-02T15:18:50Z</time></trkpt><trkpt lat="40.06149091816154" lon="8.729075228706016"><ele>207.0</ele><time>2026-05-02T15:18:51Z</time></trkpt><trkpt lat="40.06139343169415" lon="8.728697248400174"><ele>205.0</ele><time>2026-05-02T15:18:52Z</time></trkpt><trkpt lat="40.06130339938261" lon="8.72830903624223"><ele>202.0</ele><time>2026-05-02T15:18:53Z</time></trkpt><trkpt lat="40.06120408944089" lon="8.727923865287348"><ele>199.0</ele><time>2026-05-02T15:18:54Z</time></trkpt><trkpt lat="40.06110510557837" lon="8.727536717083838"><ele>198.0</ele><time>2026-05-02T15:18:55Z</time></trkpt><trkpt lat="40.06100558263917" lon="8.727146174513772"><ele>197.0</ele><time>2026-05-02T15:18:56Z</time></trkpt><trkpt lat="40.06090542012481" lon="8.726759307578876"><ele>199.0</ele><time>2026-05-02T15:18:57Z</time></trkpt><trkpt lat="40.060806919099385" lon="8.726364888328254"><ele>201.0</ele><time>2026-05-02T15:18:58Z</time></trkpt><trkpt lat="40.06070902186489" lon="8.725975526897276"><ele>201.0</ele><time>2026-05-02T15:18:59Z</time></trkpt><trkpt lat="40.06061022907937" lon="8.725593810562037"><ele>201.0</ele><time>2026-05-02T15:19:00Z</time></trkpt><trkpt lat="40.06050728028113" lon="8.725209079190504"><ele>202.0</ele><time>2026-05-02T15:19:01Z</time></trkpt><trkpt lat="40.06040319318203" lon="8.724824063028299"><ele>203.0</ele><time>2026-05-02T15:19:02Z</time></trkpt><trkpt lat="40.06030108816577" lon="8.724435564367216"><ele>202.5</ele><time>2026-05-02T15:19:03Z</time></trkpt><trkpt lat="40.06019801574152" lon="8.724046448125147"><ele>202.0</ele><time>2026-05-02T15:19:04Z</time></trkpt><trkpt lat="40.06009598688862" lon="8.72365351334639"><ele>201.0</ele><time>2026-05-02T15:19:05Z</time></trkpt><trkpt lat="40.059996288853995" lon="8.723262235916525"><ele>200.0</ele><time>2026-05-02T15:19:06Z</time></trkpt><trkpt lat="40.059901169499625" lon="8.722864791475365"><ele>199.0</ele><time>2026-05-02T15:19:07Z</time></trkpt><trkpt lat="40.05980248987181" lon="8.722465143982003"><ele>198.0</ele><time>2026-05-02T15:19:08Z</time></trkpt><trkpt lat="40.0596979224434" lon="8.722053593215556"><ele>197.0</ele><time>2026-05-02T15:19:09Z</time></trkpt><trkpt lat="40.059586076397515" lon="8.72164149430044"><ele>196.0</ele><time>2026-05-02T15:19:09.999Z</time></trkpt><trkpt lat="40.05947840711264" lon="8.721238575859077"><ele>195.0</ele><time>2026-05-02T15:19:10.999Z</time></trkpt><trkpt lat="40.059366690749385" lon="8.720837357340068"><ele>194.0</ele><time>2026-05-02T15:19:11.999Z</time></trkpt><trkpt lat="40.05925058821915" lon="8.720431744594729"><ele>192.5</ele><time>2026-05-02T15:19:12.999Z</time></trkpt><trkpt lat="40.05911503299019" lon="8.720028868500647"><ele>191.0</ele><time>2026-05-02T15:19:14Z</time></trkpt><trkpt lat="40.05895474748343" lon="8.719651258037516"><ele>188.0</ele><time>2026-05-02T15:19:15Z</time></trkpt><trkpt lat="40.058763739106276" lon="8.719289670492834"><ele>185.0</ele><time>2026-05-02T15:19:16Z</time></trkpt><trkpt lat="40.058563893401896" lon="8.71894322524804"><ele>185.0</ele><time>2026-05-02T15:19:17Z</time></trkpt><trkpt lat="40.05834480221619" lon="8.718615905616941"><ele>185.0</ele><time>2026-05-02T15:19:18Z</time></trkpt><trkpt lat="40.05811098412931" lon="8.71831589940825"><ele>183.0</ele><time>2026-05-02T15:19:19Z</time></trkpt><trkpt lat="40.05785662241263" lon="8.718028634411956"><ele>181.0</ele><time>2026-05-02T15:19:20Z</time></trkpt><trkpt lat="40.05759835287915" lon="8.717745805703636"><ele>178.5</ele><time>2026-05-02T15:19:21Z</time></trkpt><trkpt lat="40.05734330808618" lon="8.71745931683238"><ele>176.0</ele><time>2026-05-02T15:19:22Z</time></trkpt><trkpt lat="40.05708990894838" lon="8.717174091832065"><ele>174.5</ele><time>2026-05-02T15:19:23Z</time></trkpt><trkpt lat="40.056840106207794" lon="8.7168805884703"><ele>173.0</ele><time>2026-05-02T15:19:24Z</time></trkpt><trkpt lat="40.056588357119416" lon="8.716581611534217"><ele>173.0</ele><time>2026-05-02T15:19:25Z</time></trkpt><trkpt lat="40.05634401340901" lon="8.716282295372125"><ele>173.0</ele><time>2026-05-02T15:19:26Z</time></trkpt><trkpt lat="40.05610026255789" lon="8.715978210698177"><ele>175.0</ele><time>2026-05-02T15:19:27Z</time></trkpt><trkpt lat="40.05585433464519" lon="8.715677292065255"><ele>177.0</ele><time>2026-05-02T15:19:28Z</time></trkpt><trkpt lat="40.05560514907083" lon="8.71538572126576"><ele>170.0</ele><time>2026-05-02T15:19:29Z</time></trkpt><trkpt lat="40.05535471299808" lon="8.715100906002215"><ele>163.0</ele><time>2026-05-02T15:19:30Z</time></trkpt><trkpt lat="40.055111457360674" lon="8.714821305804058"><ele>162.5</ele><time>2026-05-02T15:19:31Z</time></trkpt><trkpt lat="40.054872535706735" lon="8.714532923287706"><ele>162.0</ele><time>2026-05-02T15:19:32Z</time></trkpt><trkpt lat="40.054642844643396" lon="8.71423233697607"><ele>162.0</ele><time>2026-05-02T15:19:33Z</time></trkpt><trkpt lat="40.05442218069324" lon="8.713916386959083"><ele>162.0</ele><time>2026-05-02T15:19:34Z</time></trkpt><trkpt lat="40.054213264745584" lon="8.713585664049361"><ele>164.5</ele><time>2026-05-02T15:19:35Z</time></trkpt><trkpt lat="40.05401112836025" lon="8.713254031204807"><ele>167.0</ele><time>2026-05-02T15:19:36Z</time></trkpt><trkpt lat="40.05381470049568" lon="8.712914136867601"><ele>159.0</ele><time>2026-05-02T15:19:37Z</time></trkpt><trkpt lat="40.05362396086467" lon="8.712577485173487"><ele>151.0</ele><time>2026-05-02T15:19:38Z</time></trkpt><trkpt lat="40.0534330488056" lon="8.712245688015667"><ele>155.5</ele><time>2026-05-02T15:19:39Z</time></trkpt><trkpt lat="40.053238965625305" lon="8.711913127872796"><ele>160.0</ele><time>2026-05-02T15:19:40Z</time></trkpt><trkpt lat="40.05304326633456" lon="8.711569521265337"><ele>160.0</ele><time>2026-05-02T15:19:41Z</time></trkpt><trkpt lat="40.05285045410268" lon="8.711234384733913"><ele>160.0</ele><time>2026-05-02T15:19:42Z</time></trkpt><trkpt lat="40.05265313684829" lon="8.710892758982371"><ele>155.5</ele><time>2026-05-02T15:19:43Z</time></trkpt><trkpt lat="40.0524533546719" lon="8.710554433391893"><ele>151.0</ele><time>2026-05-02T15:19:44Z</time></trkpt><trkpt lat="40.0522547854251" lon="8.710220402470442"><ele>144.0</ele><time>2026-05-02T15:19:45Z</time></trkpt><trkpt lat="40.052048561523264" lon="8.709897930772218"><ele>137.0</ele><time>2026-05-02T15:19:46Z</time></trkpt><trkpt lat="40.05181069648095" lon="8.709594997084881"><ele>134.0</ele><time>2026-05-02T15:19:47Z</time></trkpt><trkpt lat="40.05155819172095" lon="8.709324107791089"><ele>131.0</ele><time>2026-05-02T15:19:48Z</time></trkpt><trkpt lat="40.05128519147028" lon="8.709092301289898"><ele>131.0</ele><time>2026-05-02T15:19:49Z</time></trkpt><trkpt lat="40.05099958367263" lon="8.708886336313967"><ele>131.0</ele><time>2026-05-02T15:19:50Z</time></trkpt><trkpt lat="40.05069962107809" lon="8.708720318083273"><ele>129.0</ele><time>2026-05-02T15:19:51Z</time></trkpt><trkpt lat="40.05038362352905" lon="8.708586829879335"><ele>127.0</ele><time>2026-05-02T15:19:52Z</time></trkpt><trkpt lat="40.050057064686" lon="8.708491679607567"><ele>124.5</ele><time>2026-05-02T15:19:53Z</time></trkpt><trkpt lat="40.049726419526515" lon="8.708418426322584"><ele>122.0</ele><time>2026-05-02T15:19:54Z</time></trkpt><trkpt lat="40.04938974603294" lon="8.708392152708782"><ele>118.0</ele><time>2026-05-02T15:19:55Z</time></trkpt><trkpt lat="40.049055685759654" lon="8.708406082376564"><ele>114.0</ele><time>2026-05-02T15:19:56Z</time></trkpt><trkpt lat="40.04873067739553" lon="8.708459439785631"><ele>114.0</ele><time>2026-05-02T15:19:57Z</time></trkpt><trkpt lat="40.04840862163394" lon="8.70854189185229"><ele>114.0</ele><time>2026-05-02T15:19:58Z</time></trkpt><trkpt lat="40.04808640704337" lon="8.708649162327934"><ele>116.5</ele><time>2026-05-02T15:19:59Z</time></trkpt><trkpt lat="40.04776987744539" lon="8.708748550138647"><ele>119.0</ele><time>2026-05-02T15:20:00Z</time></trkpt><trkpt lat="40.04745342461597" lon="8.708840708218007"><ele>119.0</ele><time>2026-05-02T15:20:01Z</time></trkpt><trkpt lat="40.04713026785833" lon="8.708931988025025"><ele>119.0</ele><time>2026-05-02T15:20:02Z</time></trkpt><trkpt lat="40.046808517101006" lon="8.709010340923983"><ele>114.5</ele><time>2026-05-02T15:20:03Z</time></trkpt><trkpt lat="40.046470408779285" lon="8.709049426273351"><ele>110.0</ele><time>2026-05-02T15:20:04Z</time></trkpt><trkpt lat="40.04614485320243" lon="8.709042170259501"><ele>110.0</ele><time>2026-05-02T15:20:05Z</time></trkpt><trkpt lat="40.04581339432531" lon="8.70899881245155"><ele>110.0</ele><time>2026-05-02T15:20:06Z</time></trkpt><trkpt lat="40.04548995175103" lon="8.708935738027508"><ele>113.0</ele><time>2026-05-02T15:20:07Z</time></trkpt><trkpt lat="40.045172360888515" lon="8.708836183303802"><ele>116.0</ele><time>2026-05-02T15:20:08Z</time></trkpt><trkpt lat="40.04486353227499" lon="8.708697543829802"><ele>109.0</ele><time>2026-05-02T15:20:09Z</time></trkpt><trkpt lat="40.04456571031657" lon="8.708512472488696"><ele>102.0</ele><time>2026-05-02T15:20:10Z</time></trkpt><trkpt lat="40.04428018885935" lon="8.708302349217224"><ele>104.0</ele><time>2026-05-02T15:20:11Z</time></trkpt><trkpt lat="40.04400950035666" lon="8.708052237423782"><ele>106.0</ele><time>2026-05-02T15:20:12Z</time></trkpt><trkpt lat="40.04375656342536" lon="8.707784030348977"><ele>98.0</ele><time>2026-05-02T15:20:13Z</time></trkpt><trkpt lat="40.043517858866416" lon="8.707481606238948"><ele>90.0</ele><time>2026-05-02T15:20:14Z</time></trkpt><trkpt lat="40.043290032491186" lon="8.70716062899936"><ele>89.0</ele><time>2026-05-02T15:20:15Z</time></trkpt><trkpt lat="40.04306539614178" lon="8.706840269945657"><ele>88.0</ele><time>2026-05-02T15:20:16Z</time></trkpt><trkpt lat="40.04282456199819" lon="8.706526978900792"><ele>88.0</ele><time>2026-05-02T15:20:17Z</time></trkpt><trkpt lat="40.04258588572429" lon="8.706217395619978"><ele>88.0</ele><time>2026-05-02T15:20:18Z</time></trkpt><trkpt lat="40.042359740453975" lon="8.705905735360927"><ele>89.5</ele><time>2026-05-02T15:20:19Z</time></trkpt><trkpt lat="40.042128716091284" lon="8.705593494482953"><ele>91.0</ele><time>2026-05-02T15:20:20Z</time></trkpt><trkpt lat="40.04191947337994" lon="8.705265814099285"><ele>90.0</ele><time>2026-05-02T15:20:21Z</time></trkpt><trkpt lat="40.04174171520048" lon="8.704907045604736"><ele>89.0</ele><time>2026-05-02T15:20:22Z</time></trkpt><trkpt lat="40.04160339716467" lon="8.704526783699094"><ele>97.0</ele><time>2026-05-02T15:20:23Z</time></trkpt><trkpt lat="40.041492523232996" lon="8.704133875978966"><ele>105.0</ele><time>2026-05-02T15:20:24Z</time></trkpt><trkpt lat="40.04140158718746" lon="8.703729350695856"><ele>102.5</ele><time>2026-05-02T15:20:25Z</time></trkpt><trkpt lat="40.04132739548145" lon="8.703318957003319"><ele>100.0</ele><time>2026-05-02T15:20:26Z</time></trkpt><trkpt lat="40.04128509174942" lon="8.702913720601712"><ele>96.5</ele><time>2026-05-02T15:20:27Z</time></trkpt><trkpt lat="40.041236452494296" lon="8.702499729754436"><ele>93.0</ele><time>2026-05-02T15:20:28Z</time></trkpt><trkpt lat="40.04117965232923" lon="8.7020804441838"><ele>90.0</ele><time>2026-05-02T15:20:29Z</time></trkpt><trkpt lat="40.04111393391811" lon="8.701666569342946"><ele>87.0</ele><time>2026-05-02T15:20:30Z</time></trkpt><trkpt lat="40.04106006811523" lon="8.701236476305116"><ele>84.0</ele><time>2026-05-02T15:20:31Z</time></trkpt><trkpt lat="40.041008001381435" lon="8.70080800669279"><ele>81.0</ele><time>2026-05-02T15:20:32Z</time></trkpt><trkpt lat="40.04094441951104" lon="8.700379278037165"><ele>80.5</ele><time>2026-05-02T15:20:33Z</time></trkpt><trkpt lat="40.040882597415866" lon="8.699949231153866"><ele>80.0</ele><time>2026-05-02T15:20:34Z</time></trkpt><trkpt lat="40.040820078547604" lon="8.699524538479507"><ele>87.0</ele><time>2026-05-02T15:20:35Z</time></trkpt><trkpt lat="40.04076734126897" lon="8.699099712505756"><ele>94.0</ele><time>2026-05-02T15:20:36Z</time></trkpt><trkpt lat="40.040708786476074" lon="8.698677253314736"><ele>95.5</ele><time>2026-05-02T15:20:37Z</time></trkpt><trkpt lat="40.0406532163667" lon="8.698251332348644"><ele>97.0</ele><time>2026-05-02T15:20:38Z</time></trkpt><trkpt lat="40.040594473443" lon="8.69783446771191"><ele>98.0</ele><time>2026-05-02T15:20:39Z</time></trkpt><trkpt lat="40.04052675033602" lon="8.697416908547291"><ele>99.0</ele><time>2026-05-02T15:20:40Z</time></trkpt><trkpt lat="40.04044261200169" lon="8.697006655304248"><ele>98.5</ele><time>2026-05-02T15:20:41Z</time></trkpt><trkpt lat="40.040337317162034" lon="8.696602628927565"><ele>98.0</ele><time>2026-05-02T15:20:42Z</time></trkpt><trkpt lat="40.04022235121549" lon="8.69620040063426"><ele>95.5</ele><time>2026-05-02T15:20:43Z</time></trkpt><trkpt lat="40.04010900816766" lon="8.695791717247769"><ele>93.0</ele><time>2026-05-02T15:20:44Z</time></trkpt><trkpt lat="40.039995844695994" lon="8.695388336154554"><ele>98.0</ele><time>2026-05-02T15:20:45Z</time></trkpt><trkpt lat="40.03988397068113" lon="8.694977365736566"><ele>103.0</ele><time>2026-05-02T15:20:46Z</time></trkpt><trkpt lat="40.03977467442556" lon="8.694563277639968"><ele>98.5</ele><time>2026-05-02T15:20:47Z</time></trkpt><trkpt lat="40.03966752407848" lon="8.694151890003603"><ele>94.0</ele><time>2026-05-02T15:20:48Z</time></trkpt><trkpt lat="40.03955965099374" lon="8.693742755313284"><ele>90.5</ele><time>2026-05-02T15:20:49Z</time></trkpt><trkpt lat="40.03945175461953" lon="8.693336148684354"><ele>87.0</ele><time>2026-05-02T15:20:50Z</time></trkpt><trkpt lat="40.03934437907682" lon="8.69291879331695"><ele>85.5</ele><time>2026-05-02T15:20:51Z</time></trkpt><trkpt lat="40.03923635068834" lon="8.692506314599788"><ele>84.0</ele><time>2026-05-02T15:20:52Z</time></trkpt><trkpt lat="40.039121956671686" lon="8.69208412464009"><ele>83.5</ele><time>2026-05-02T15:20:53Z</time></trkpt><trkpt lat="40.03900595396196" lon="8.691662693985888"><ele>83.0</ele><time>2026-05-02T15:20:54Z</time></trkpt><trkpt lat="40.03889284097985" lon="8.69123513148019"><ele>83.0</ele><time>2026-05-02T15:20:55Z</time></trkpt><trkpt lat="40.03878130366579" lon="8.69080410399118"><ele>83.0</ele><time>2026-05-02T15:20:56Z</time></trkpt><trkpt lat="40.038671195919775" lon="8.690385847277964"><ele>80.5</ele><time>2026-05-02T15:20:57Z</time></trkpt><trkpt lat="40.03856484831673" lon="8.689965292526662"><ele>78.0</ele><time>2026-05-02T15:20:58Z</time></trkpt><trkpt lat="40.03845142353325" lon="8.689546854516722"><ele>76.5</ele><time>2026-05-02T15:20:59Z</time></trkpt><trkpt lat="40.03833617393655" lon="8.68913362355956"><ele>75.0</ele><time>2026-05-02T15:21:00Z</time></trkpt><trkpt lat="40.03822137112946" lon="8.688724403614069"><ele>73.5</ele><time>2026-05-02T15:21:01Z</time></trkpt><trkpt lat="40.038107943075055" lon="8.688310403469602"><ele>72.0</ele><time>2026-05-02T15:21:02Z</time></trkpt><trkpt lat="40.037993098413466" lon="8.68789448954623"><ele>71.5</ele><time>2026-05-02T15:21:03Z</time></trkpt><trkpt lat="40.037879793479696" lon="8.687470534249902"><ele>71.0</ele><time>2026-05-02T15:21:04Z</time></trkpt><trkpt lat="40.037768131431974" lon="8.687055748240313"><ele>70.0</ele><time>2026-05-02T15:21:05Z</time></trkpt><trkpt lat="40.03765956579559" lon="8.68664054589889"><ele>69.0</ele><time>2026-05-02T15:21:06Z</time></trkpt><trkpt lat="40.03755088903762" lon="8.686216977845179"><ele>69.5</ele><time>2026-05-02T15:21:07Z</time></trkpt><trkpt lat="40.037442845825026" lon="8.685796107675928"><ele>70.0</ele><time>2026-05-02T15:21:08Z</time></trkpt><trkpt lat="40.03733530584364" lon="8.685382872711342"><ele>68.0</ele><time>2026-05-02T15:21:09Z</time></trkpt><trkpt lat="40.03722175712149" lon="8.684966540417777"><ele>66.0</ele><time>2026-05-02T15:21:10Z</time></trkpt><trkpt lat="40.03710828840522" lon="8.684544684139125"><ele>66.0</ele><time>2026-05-02T15:21:11Z</time></trkpt><trkpt lat="40.036995331694825" lon="8.684131492554261"><ele>66.0</ele><time>2026-05-02T15:21:12Z</time></trkpt><trkpt lat="40.03688254740084" lon="8.68371699804581"><ele>65.0</ele><time>2026-05-02T15:21:13Z</time></trkpt><trkpt lat="40.036771827705124" lon="8.683295446832451"><ele>64.0</ele><time>2026-05-02T15:21:14Z</time></trkpt><trkpt lat="40.03665869976574" lon="8.682879340741493"><ele>63.5</ele><time>2026-05-02T15:21:15Z</time></trkpt><trkpt lat="40.036544571076654" lon="8.682458199420138"><ele>63.0</ele><time>2026-05-02T15:21:16Z</time></trkpt><trkpt lat="40.03642612213242" lon="8.682042923417685"><ele>62.0</ele><time>2026-05-02T15:21:17Z</time></trkpt><trkpt lat="40.036311840913854" lon="8.681630145976264"><ele>61.0</ele><time>2026-05-02T15:21:18Z</time></trkpt><trkpt lat="40.03619761709041" lon="8.681211454674353"><ele>60.5</ele><time>2026-05-02T15:21:19Z</time></trkpt><trkpt lat="40.03608358526607" lon="8.680797026178341"><ele>60.0</ele><time>2026-05-02T15:21:20Z</time></trkpt><trkpt lat="40.03597129049961" lon="8.680380687089887"><ele>60.0</ele><time>2026-05-02T15:21:21Z</time></trkpt><trkpt lat="40.03586041253684" lon="8.679958794331906"><ele>60.0</ele><time>2026-05-02T15:21:22Z</time></trkpt><trkpt lat="40.035754526486265" lon="8.679540148217791"><ele>58.0</ele><time>2026-05-02T15:21:23Z</time></trkpt><trkpt lat="40.035650284659454" lon="8.679128697772127"><ele>56.0</ele><time>2026-05-02T15:21:24Z</time></trkpt><trkpt lat="40.0355447428379" lon="8.678707698856705"><ele>55.0</ele><time>2026-05-02T15:21:25Z</time></trkpt><trkpt lat="40.03542631465815" lon="8.678293459679947"><ele>54.0</ele><time>2026-05-02T15:21:26Z</time></trkpt><trkpt lat="40.035298350147805" lon="8.677889489449097"><ele>52.0</ele><time>2026-05-02T15:21:27Z</time></trkpt><trkpt lat="40.03515318732718" lon="8.677493113782822"><ele>50.0</ele><time>2026-05-02T15:21:28Z</time></trkpt><trkpt lat="40.03499240135569" lon="8.677108399846128"><ele>50.0</ele><time>2026-05-02T15:21:29Z</time></trkpt><trkpt lat="40.03480204876829" lon="8.67674840443126"><ele>50.0</ele><time>2026-05-02T15:21:30Z</time></trkpt><trkpt lat="40.034583376880455" lon="8.676412689659488"><ele>49.5</ele><time>2026-05-02T15:21:31Z</time></trkpt><trkpt lat="40.03434605927141" lon="8.676099995108329"><ele>49.0</ele><time>2026-05-02T15:21:32Z</time></trkpt><trkpt lat="40.03409306058054" lon="8.675811589426633"><ele>49.0</ele><time>2026-05-02T15:21:33Z</time></trkpt><trkpt lat="40.033819061840184" lon="8.675559284658082"><ele>49.0</ele><time>2026-05-02T15:21:34Z</time></trkpt><trkpt lat="40.033529028894584" lon="8.675332750304916"><ele>49.0</ele><time>2026-05-02T15:21:35Z</time></trkpt><trkpt lat="40.03323639592684" lon="8.67511127461254"><ele>49.0</ele><time>2026-05-02T15:21:36Z</time></trkpt><trkpt lat="40.03294434617826" lon="8.67488429376463"><ele>49.0</ele><time>2026-05-02T15:21:37Z</time></trkpt><trkpt lat="40.03265519978349" lon="8.674653800877193"><ele>49.0</ele><time>2026-05-02T15:21:38Z</time></trkpt><trkpt lat="40.0323640578831" lon="8.674426242798253"><ele>48.0</ele><time>2026-05-02T15:21:39Z</time></trkpt><trkpt lat="40.03207116231581" lon="8.674200789003795"><ele>47.0</ele><time>2026-05-02T15:21:40Z</time></trkpt><trkpt lat="40.03178057390669" lon="8.67397269724775"><ele>46.5</ele><time>2026-05-02T15:21:41Z</time></trkpt><trkpt lat="40.031495077636045" lon="8.673738940543034"><ele>46.0</ele><time>2026-05-02T15:21:42Z</time></trkpt><trkpt lat="40.03120731266431" lon="8.673502868286514"><ele>46.0</ele><time>2026-05-02T15:21:43Z</time></trkpt><trkpt lat="40.03091351894901" lon="8.673273099301777"><ele>46.0</ele><time>2026-05-02T15:21:44Z</time></trkpt><trkpt lat="40.030621505251084" lon="8.673041737158313"><ele>46.5</ele><time>2026-05-02T15:21:45Z</time></trkpt><trkpt lat="40.03032834235756" lon="8.67281425501791"><ele>47.0</ele><time>2026-05-02T15:21:46Z</time></trkpt><trkpt lat="40.030036682203814" lon="8.672582489426615"><ele>46.0</ele><time>2026-05-02T15:21:47Z</time></trkpt><trkpt lat="40.02974586906301" lon="8.6723591132114"><ele>45.0</ele><time>2026-05-02T15:21:48Z</time></trkpt><trkpt lat="40.029446452574675" lon="8.672142222453397"><ele>44.5</ele><time>2026-05-02T15:21:49Z</time></trkpt><trkpt lat="40.02914460929274" lon="8.671929746402435"><ele>44.0</ele><time>2026-05-02T15:21:50Z</time></trkpt><trkpt lat="40.02883896399838" lon="8.6717366049844"><ele>43.5</ele><time>2026-05-02T15:21:51Z</time></trkpt><trkpt lat="40.02853171925931" lon="8.67154251721041"><ele>43.0</ele><time>2026-05-02T15:21:52Z</time></trkpt><trkpt lat="40.028223722746766" lon="8.671360892165922"><ele>43.0</ele><time>2026-05-02T15:21:53Z</time></trkpt><trkpt lat="40.02791021902785" lon="8.671185828560391"><ele>43.0</ele><time>2026-05-02T15:21:54Z</time></trkpt><trkpt lat="40.027593062396285" lon="8.671033082670574"><ele>40.5</ele><time>2026-05-02T15:21:55Z</time></trkpt><trkpt lat="40.027264643594876" lon="8.670880310373077"><ele>38.0</ele><time>2026-05-02T15:21:56Z</time></trkpt><trkpt lat="40.02694491316573" lon="8.670745599949651"><ele>38.0</ele><time>2026-05-02T15:21:57Z</time></trkpt><trkpt lat="40.02662241798193" lon="8.670619867845081"><ele>38.0</ele><time>2026-05-02T15:21:58Z</time></trkpt><trkpt lat="40.0263049188301" lon="8.670498928827177"><ele>38.0</ele><time>2026-05-02T15:21:59Z</time></trkpt><trkpt lat="40.025982890136845" lon="8.670382031759127"><ele>38.0</ele><time>2026-05-02T15:22:00Z</time></trkpt><trkpt lat="40.025651993403486" lon="8.670261528658733"><ele>36.5</ele><time>2026-05-02T15:22:01Z</time></trkpt><trkpt lat="40.025319910418496" lon="8.670146636532788"><ele>35.0</ele><time>2026-05-02T15:22:02Z</time></trkpt><trkpt lat="40.02498905114319" lon="8.670024285514558"><ele>34.5</ele><time>2026-05-02T15:22:03Z</time></trkpt><trkpt lat="40.02466017578393" lon="8.669900724104927"><ele>34.0</ele><time>2026-05-02T15:22:04Z</time></trkpt><trkpt lat="40.02433714873238" lon="8.669779548960296"><ele>33.5</ele><time>2026-05-02T15:22:05Z</time></trkpt><trkpt lat="40.02400852423747" lon="8.669646400286405"><ele>33.0</ele><time>2026-05-02T15:22:06Z</time></trkpt><trkpt lat="40.023678699414624" lon="8.66951189029356"><ele>32.0</ele><time>2026-05-02T15:22:07Z</time></trkpt><trkpt lat="40.02335407944519" lon="8.669393691598499"><ele>31.0</ele><time>2026-05-02T15:22:08Z</time></trkpt><trkpt lat="40.02302594247465" lon="8.669278676224884"><ele>31.0</ele><time>2026-05-02T15:22:09Z</time></trkpt><trkpt lat="40.022696370485875" lon="8.669165658192636"><ele>31.0</ele><time>2026-05-02T15:22:10Z</time></trkpt><trkpt lat="40.02236533627224" lon="8.669048512127446"><ele>31.0</ele><time>2026-05-02T15:22:11Z</time></trkpt><trkpt lat="40.02203583129537" lon="8.668934419830112"><ele>31.0</ele><time>2026-05-02T15:22:12Z</time></trkpt><trkpt lat="40.02170869452725" lon="8.66881941381305"><ele>30.0</ele><time>2026-05-02T15:22:13Z</time></trkpt><trkpt lat="40.02138323220567" lon="8.668696257157224"><ele>29.0</ele><time>2026-05-02T15:22:14Z</time></trkpt><trkpt lat="40.02105329497811" lon="8.66858153727644"><ele>28.0</ele><time>2026-05-02T15:22:15Z</time></trkpt><trkpt lat="40.02075406405644" lon="8.66847719849936"><ele>27.0</ele><time>2026-05-02T15:22:16Z</time></trkpt><trkpt lat="40.02047204828836" lon="8.668375000223323"><ele>27.0</ele><time>2026-05-02T15:22:17Z</time></trkpt><trkpt lat="40.02020656965433" lon="8.668278232493275"><ele>27.0</ele><time>2026-05-02T15:22:18Z</time></trkpt><trkpt lat="40.01995972058154" lon="8.668193200111004"><ele>26.0</ele><time>2026-05-02T15:22:19Z</time></trkpt><trkpt lat="40.019719164505176" lon="8.668110903977448"><ele>25.0</ele><time>2026-05-02T15:22:20Z</time></trkpt><trkpt lat="40.01948653054622" lon="8.668031353380421"><ele>25.0</ele><time>2026-05-02T15:22:21Z</time></trkpt><trkpt lat="40.0192446222353" lon="8.667947262314735"><ele>25.0</ele><time>2026-05-02T15:22:22Z</time></trkpt><trkpt lat="40.01898637623259" lon="8.667864425015697"><ele>26.0</ele><time>2026-05-02T15:22:23Z</time></trkpt><trkpt lat="40.018721900623184" lon="8.667776138931515"><ele>27.0</ele><time>2026-05-02T15:22:24Z</time></trkpt><trkpt lat="40.018459810038095" lon="8.667685682015307"><ele>27.5</ele><time>2026-05-02T15:22:25Z</time></trkpt><trkpt lat="40.01819718274798" lon="8.667588041595364"><ele>28.0</ele><time>2026-05-02T15:22:26Z</time></trkpt><trkpt lat="40.01794299506153" lon="8.667492550123978"><ele>28.0</ele><time>2026-05-02T15:22:27Z</time></trkpt><trkpt lat="40.01768724890737" lon="8.667406579503712"><ele>28.0</ele><time>2026-05-02T15:22:28Z</time></trkpt><trkpt lat="40.0174271623846" lon="8.66732158256569"><ele>27.0</ele><time>2026-05-02T15:22:29Z</time></trkpt><trkpt lat="40.017164001028185" lon="8.667237869627815"><ele>26.0</ele><time>2026-05-02T15:22:30Z</time></trkpt><trkpt lat="40.01689812518579" lon="8.667155405710526"><ele>26.0</ele><time>2026-05-02T15:22:31Z</time></trkpt><trkpt lat="40.016631987103644" lon="8.66707551199811"><ele>26.0</ele><time>2026-05-02T15:22:32Z</time></trkpt><trkpt lat="40.01635428946847" lon="8.666995436753298"><ele>25.0</ele><time>2026-05-02T15:22:33Z</time></trkpt><trkpt lat="40.01607671626658" lon="8.666907394951204"><ele>24.0</ele><time>2026-05-02T15:22:34Z</time></trkpt><trkpt lat="40.01578841829059" lon="8.666813989789206"><ele>24.0</ele><time>2026-05-02T15:22:35Z</time></trkpt><trkpt lat="40.01549870336051" lon="8.666726521967341"><ele>24.0</ele><time>2026-05-02T15:22:36Z</time></trkpt><trkpt lat="40.01519661142718" lon="8.666632664324966"><ele>24.0</ele><time>2026-05-02T15:22:37Z</time></trkpt><trkpt lat="40.014889481663594" lon="8.666539097161664"><ele>24.0</ele><time>2026-05-02T15:22:38Z</time></trkpt><trkpt lat="40.01458092666492" lon="8.666449205436358"><ele>24.0</ele><time>2026-05-02T15:22:39Z</time></trkpt><trkpt lat="40.014270713237394" lon="8.666357280216102"><ele>24.0</ele><time>2026-05-02T15:22:40Z</time></trkpt><trkpt lat="40.01395964005214" lon="8.66626060585345"><ele>24.5</ele><time>2026-05-02T15:22:41Z</time></trkpt><trkpt lat="40.013647894723874" lon="8.666160717638657"><ele>25.0</ele><time>2026-05-02T15:22:42Z</time></trkpt><trkpt lat="40.01333932841552" lon="8.66606705235972"><ele>23.5</ele><time>2026-05-02T15:22:43Z</time></trkpt><trkpt lat="40.01301983185849" lon="8.665971373051542"><ele>22.0</ele><time>2026-05-02T15:22:44Z</time></trkpt><trkpt lat="40.012699323134854" lon="8.665874807017168"><ele>22.5</ele><time>2026-05-02T15:22:45Z</time></trkpt><trkpt lat="40.01237805341296" lon="8.665773427229862"><ele>23.0</ele><time>2026-05-02T15:22:46Z</time></trkpt><trkpt lat="40.01205492448158" lon="8.665672128827714"><ele>23.0</ele><time>2026-05-02T15:22:47Z</time></trkpt><trkpt lat="40.01173345503186" lon="8.66556397166091"><ele>23.0</ele><time>2026-05-02T15:22:48Z</time></trkpt><trkpt lat="40.0114182000657" lon="8.66545959475816"><ele>22.0</ele><time>2026-05-02T15:22:49Z</time></trkpt><trkpt lat="40.011100492832355" lon="8.66534886759352"><ele>21.0</ele><time>2026-05-02T15:22:50Z</time></trkpt><trkpt lat="40.01078494127662" lon="8.665244060095302"><ele>21.0</ele><time>2026-05-02T15:22:51Z</time></trkpt><trkpt lat="40.01047057010874" lon="8.665135569156819"><ele>21.0</ele><time>2026-05-02T15:22:52Z</time></trkpt><trkpt lat="40.01015304155159" lon="8.665026508340087"><ele>21.0</ele><time>2026-05-02T15:22:53Z</time></trkpt><trkpt lat="40.009836276793465" lon="8.664922023004575"><ele>21.0</ele><time>2026-05-02T15:22:54Z</time></trkpt><trkpt lat="40.00951769018779" lon="8.66481533411308"><ele>21.0</ele><time>2026-05-02T15:22:55Z</time></trkpt><trkpt lat="40.00920244961609" lon="8.664708323266488"><ele>21.0</ele><time>2026-05-02T15:22:56Z</time></trkpt><trkpt lat="40.00888711613119" lon="8.664601693109455"><ele>20.0</ele><time>2026-05-02T15:22:57Z</time></trkpt><trkpt lat="40.00857184410437" lon="8.664495329604915"><ele>19.0</ele><time>2026-05-02T15:22:58Z</time></trkpt><trkpt lat="40.00825359006182" lon="8.664385031363544"><ele>19.0</ele><time>2026-05-02T15:22:59Z</time></trkpt><trkpt lat="40.007932001646076" lon="8.664280378531076"><ele>19.0</ele><time>2026-05-02T15:23:00Z</time></trkpt><trkpt lat="40.00761849690894" lon="8.664170758476068"><ele>19.5</ele><time>2026-05-02T15:23:01Z</time></trkpt><trkpt lat="40.00730622654963" lon="8.664049318142812"><ele>20.0</ele><time>2026-05-02T15:23:02Z</time></trkpt><trkpt lat="40.00698897720163" lon="8.663919091474897"><ele>20.0</ele><time>2026-05-02T15:23:03Z</time></trkpt><trkpt lat="40.00667894775708" lon="8.663781569213512"><ele>20.0</ele><time>2026-05-02T15:23:04Z</time></trkpt><trkpt lat="40.00637471250109" lon="8.663626402898334"><ele>20.0</ele><time>2026-05-02T15:23:05Z</time></trkpt><trkpt lat="40.00607236284695" lon="8.663464649422279"><ele>20.0</ele><time>2026-05-02T15:23:06Z</time></trkpt><trkpt lat="40.005774931419644" lon="8.663290365939785"><ele>21.5</ele><time>2026-05-02T15:23:07.001Z</time></trkpt><trkpt lat="40.005478478231694" lon="8.663103901172487"><ele>23.0</ele><time>2026-05-02T15:23:08.001Z</time></trkpt><trkpt lat="40.00518720148628" lon="8.662916857845445"><ele>22.5</ele><time>2026-05-02T15:23:09.001Z</time></trkpt><trkpt lat="40.004897433152244" lon="8.662717108275944"><ele>22.0</ele><time>2026-05-02T15:23:10.001Z</time></trkpt><trkpt lat="40.00461423584916" lon="8.662503485444383"><ele>22.0</ele><time>2026-05-02T15:23:11.001Z</time></trkpt><trkpt lat="40.004333707413736" lon="8.662283757499818"><ele>22.0</ele><time>2026-05-02T15:23:12.001Z</time></trkpt><trkpt lat="40.00405341624785" lon="8.662066406793606"><ele>22.0</ele><time>2026-05-02T15:23:13.001Z</time></trkpt><trkpt lat="40.00377407304224" lon="8.661841400250598"><ele>22.0</ele><time>2026-05-02T15:23:14.001Z</time></trkpt><trkpt lat="40.00349739675601" lon="8.661621183090405"><ele>22.5</ele><time>2026-05-02T15:23:15.001Z</time></trkpt><trkpt lat="40.00322177362603" lon="8.661393706122844"><ele>23.0</ele><time>2026-05-02T15:23:16.001Z</time></trkpt><trkpt lat="40.002941762715125" lon="8.661169983213062"><ele>22.0</ele><time>2026-05-02T15:23:17.001Z</time></trkpt><trkpt lat="40.00266397920421" lon="8.660943685719195"><ele>21.0</ele><time>2026-05-02T15:23:18.001Z</time></trkpt><trkpt lat="40.00238350081488" lon="8.660721520088149"><ele>21.0</ele><time>2026-05-02T15:23:19.001Z</time></trkpt><trkpt lat="40.00210005082596" lon="8.660501151992795"><ele>21.0</ele><time>2026-05-02T15:23:20.001Z</time></trkpt><trkpt lat="40.00180700993823" lon="8.660278875108025"><ele>20.5</ele><time>2026-05-02T15:23:21.001Z</time></trkpt><trkpt lat="40.001525773009135" lon="8.660048518736309"><ele>20.0</ele><time>2026-05-02T15:23:22Z</time></trkpt><trkpt lat="40.00125529570293" lon="8.659814431201745"><ele>20.0</ele><time>2026-05-02T15:23:23Z</time></trkpt><trkpt lat="40.000983593228035" lon="8.659576815871338"><ele>20.0</ele><time>2026-05-02T15:23:24Z</time></trkpt><trkpt lat="40.00071632643107" lon="8.65935629037783"><ele>19.0</ele><time>2026-05-02T15:23:25Z</time></trkpt><trkpt lat="40.000442769279786" lon="8.659133173783124"><ele>18.0</ele><time>2026-05-02T15:23:26Z</time></trkpt><trkpt lat="40.00016755544389" lon="8.658906519338505"><ele>18.0</ele><time>2026-05-02T15:23:27Z</time></trkpt><trkpt lat="39.99989926256418" lon="8.65867274200887"><ele>18.0</ele><time>2026-05-02T15:23:28Z</time></trkpt><trkpt lat="39.99963349092928" lon="8.658425050696964"><ele>17.5</ele><time>2026-05-02T15:23:29Z</time></trkpt><trkpt lat="39.99937367083521" lon="8.658169027084988"><ele>17.0</ele><time>2026-05-02T15:23:30Z</time></trkpt><trkpt lat="39.99911878202424" lon="8.657904559393202"><ele>15.0</ele><time>2026-05-02T15:23:31Z</time></trkpt><trkpt lat="39.99886850341827" lon="8.657628860220324"><ele>13.0</ele><time>2026-05-02T15:23:32Z</time></trkpt><trkpt lat="39.998623520148236" lon="8.657339063615504"><ele>13.0</ele><time>2026-05-02T15:23:33Z</time></trkpt><trkpt lat="39.99837776193802" lon="8.657042902215547"><ele>13.0</ele><time>2026-05-02T15:23:34Z</time></trkpt><trkpt lat="39.998138586606444" lon="8.656743251392728"><ele>12.5</ele><time>2026-05-02T15:23:35Z</time></trkpt><trkpt lat="39.997906642539874" lon="8.65643175412679"><ele>12.0</ele><time>2026-05-02T15:23:36Z</time></trkpt><trkpt lat="39.99767566748757" lon="8.656109072854788"><ele>15.0</ele><time>2026-05-02T15:23:37Z</time></trkpt><trkpt lat="39.99745779957885" lon="8.655777439578452"><ele>18.0</ele><time>2026-05-02T15:23:38Z</time></trkpt><trkpt lat="39.997248190516174" lon="8.655439932007948"><ele>16.5</ele><time>2026-05-02T15:23:39Z</time></trkpt><trkpt lat="39.99703975560989" lon="8.655091487498035"><ele>15.0</ele><time>2026-05-02T15:23:40Z</time></trkpt><trkpt lat="39.99684280048331" lon="8.654739761752685"><ele>16.5</ele><time>2026-05-02T15:23:41Z</time></trkpt><trkpt lat="39.99664491081497" lon="8.654378617325019"><ele>18.0</ele><time>2026-05-02T15:23:42Z</time></trkpt><trkpt lat="39.9964605641644" lon="8.654009376472377"><ele>18.0</ele><time>2026-05-02T15:23:43Z</time></trkpt><trkpt lat="39.99628426658956" lon="8.653634437867996"><ele>18.0</ele><time>2026-05-02T15:23:44Z</time></trkpt><trkpt lat="39.99611211027863" lon="8.653261376740373"><ele>18.0</ele><time>2026-05-02T15:23:45Z</time></trkpt><trkpt lat="39.995932208881726" lon="8.652887355446017"><ele>18.0</ele><time>2026-05-02T15:23:46Z</time></trkpt><trkpt lat="39.99575383602295" lon="8.652514676263172"><ele>18.0</ele><time>2026-05-02T15:23:47Z</time></trkpt><trkpt lat="39.995577516457075" lon="8.652139998426433"><ele>18.0</ele><time>2026-05-02T15:23:48Z</time></trkpt><trkpt lat="39.995404252097416" lon="8.651769554168972"><ele>17.5</ele><time>2026-05-02T15:23:49Z</time></trkpt><trkpt lat="39.995231741175495" lon="8.651402200896486"><ele>17.0</ele><time>2026-05-02T15:23:50Z</time></trkpt><trkpt lat="39.99506070704375" lon="8.65104108562752"><ele>17.0</ele><time>2026-05-02T15:23:51Z</time></trkpt><trkpt lat="39.99488844285548" lon="8.650679530473406"><ele>17.0</ele><time>2026-05-02T15:23:52Z</time></trkpt><trkpt lat="39.99472108151807" lon="8.650325238723143"><ele>16.0</ele><time>2026-05-02T15:23:53Z</time></trkpt><trkpt lat="39.994553240305464" lon="8.649974674958868"><ele>15.0</ele><time>2026-05-02T15:23:54Z</time></trkpt><trkpt lat="39.99438347599113" lon="8.64962014552791"><ele>16.0</ele><time>2026-05-02T15:23:55Z</time></trkpt><trkpt lat="39.994216059962866" lon="8.649264082550696"><ele>17.0</ele><time>2026-05-02T15:23:56Z</time></trkpt><trkpt lat="39.99404721290571" lon="8.6488999898153"><ele>16.0</ele><time>2026-05-02T15:23:57Z</time></trkpt><trkpt lat="39.99388391376088" lon="8.648538281471357"><ele>15.0</ele><time>2026-05-02T15:23:58Z</time></trkpt><trkpt lat="39.99371817275671" lon="8.648166551269536"><ele>15.0</ele><time>2026-05-02T15:23:59Z</time></trkpt><trkpt lat="39.99355062079602" lon="8.647805291678429"><ele>15.0</ele><time>2026-05-02T15:24:00Z</time></trkpt><trkpt lat="39.99337737315474" lon="8.647439784724966"><ele>14.5</ele><time>2026-05-02T15:24:01Z</time></trkpt><trkpt lat="39.993203051189674" lon="8.647071575303357"><ele>14.0</ele><time>2026-05-02T15:24:02Z</time></trkpt><trkpt lat="39.993028718064394" lon="8.646702175753422"><ele>12.5</ele><time>2026-05-02T15:24:03Z</time></trkpt><trkpt lat="39.99285548233993" lon="8.646343934806884"><ele>11.0</ele><time>2026-05-02T15:24:04Z</time></trkpt><trkpt lat="39.99268590649293" lon="8.646002563049572"><ele>10.0</ele><time>2026-05-02T15:24:05Z</time></trkpt><trkpt lat="39.99251082291349" lon="8.645664483488492"><ele>9.0</ele><time>2026-05-02T15:24:06Z</time></trkpt><trkpt lat="39.99232172739424" lon="8.645333725762255"><ele>10.0</ele><time>2026-05-02T15:24:07Z</time></trkpt><trkpt lat="39.99212649783763" lon="8.645009815520828"><ele>11.0</ele><time>2026-05-02T15:24:08Z</time></trkpt><trkpt lat="39.9919290401716" lon="8.644691826661145"><ele>11.5</ele><time>2026-05-02T15:24:09Z</time></trkpt><trkpt lat="39.991726806382296" lon="8.644387668123175"><ele>12.0</ele><time>2026-05-02T15:24:10Z</time></trkpt><trkpt lat="39.99153088573434" lon="8.644105369383105"><ele>12.0</ele><time>2026-05-02T15:24:11Z</time></trkpt><trkpt lat="39.99134178832032" lon="8.643838374905682"><ele>12.0</ele><time>2026-05-02T15:24:12Z</time></trkpt><trkpt lat="39.99116343998236" lon="8.643582417824458"><ele>11.0</ele><time>2026-05-02T15:24:13Z</time></trkpt><trkpt lat="39.99099841031776" lon="8.64334372410632"><ele>10.0</ele><time>2026-05-02T15:24:14Z</time></trkpt><trkpt lat="39.990846692871685" lon="8.64312391558629"><ele>10.666666666666668</ele><time>2026-05-02T15:24:15Z</time></trkpt><trkpt lat="39.99070099356535" lon="8.642914761272149"><ele>11.333333333333334</ele><time>2026-05-02T15:24:16Z</time></trkpt><trkpt lat="39.99056847860247" lon="8.642717546663622"><ele>12.0</ele><time>2026-05-02T15:24:17Z</time></trkpt><trkpt lat="39.990452503853554" lon="8.642530712243166"><ele>12.5</ele><time>2026-05-02T15:24:18Z</time></trkpt><trkpt lat="39.99035886017666" lon="8.642360956203873"><ele>13.0</ele><time>2026-05-02T15:24:19Z</time></trkpt><trkpt lat="39.99028402380501" lon="8.642236096728045"><ele>13.5</ele><time>2026-05-02T15:24:20Z</time></trkpt><trkpt lat="39.99021197268571" lon="8.642123996032744"><ele>14.0</ele><time>2026-05-02T15:24:21Z</time></trkpt><trkpt lat="39.99016659345244" lon="8.64203405473868"><ele>13.857142857142858</ele><time>2026-05-02T15:24:22Z</time></trkpt><trkpt lat="39.990153775086384" lon="8.6419521073038"><ele>13.714285714285715</ele><time>2026-05-02T15:24:23Z</time></trkpt><trkpt lat="39.99022092158404" lon="8.64187823877398"><ele>13.571428571428571</ele><time>2026-05-02T15:24:25Z</time></trkpt><trkpt lat="39.99028093441085" lon="8.641800697610353"><ele>13.428571428571429</ele><time>2026-05-02T15:24:28Z</time></trkpt><trkpt lat="39.990265412658324" lon="8.641712030493613"><ele>13.285714285714286</ele><time>2026-05-02T15:24:31Z</time></trkpt><trkpt lat="39.990219336968146" lon="8.641634229332464"><ele>13.142857142857142</ele><time>2026-05-02T15:24:34Z</time></trkpt><trkpt lat="39.9901947353747" lon="8.641557103437838"><ele>13.0</ele><time>2026-05-02T15:24:37Z</time></trkpt><trkpt lat="39.99024177927055" lon="8.641466708311967"><ele>13.0</ele><time>2026-05-02T15:26:46Z</time></trkpt><trkpt lat="39.99022270825767" lon="8.641546888057423"><ele>13.0</ele><time>2026-05-02T15:29:36Z</time></trkpt></trkseg><trkseg><trkpt lat="39.98991081371962" lon="8.641424299730797"><ele>15.0</ele><time>2026-05-02T15:49:15.999Z</time></trkpt><trkpt lat="39.9898561067016" lon="8.641477624487322"><ele>15.0</ele><time>2026-05-02T15:49:17.999Z</time></trkpt><trkpt lat="39.98976836877744" lon="8.641481479466421"><ele>15.0</ele><time>2026-05-02T15:49:19.999Z</time></trkpt><trkpt lat="39.98971532708398" lon="8.641430700964863"><ele>15.0</ele><time>2026-05-02T15:49:20.999Z</time></trkpt><trkpt lat="39.98965166789962" lon="8.64134236553747"><ele>15.0</ele><time>2026-05-02T15:49:21.999Z</time></trkpt><trkpt lat="39.98957631472831" lon="8.641223669010982"><ele>15.0</ele><time>2026-05-02T15:49:22.999Z</time></trkpt><trkpt lat="39.989490934661816" lon="8.641100646963414"><ele>15.0</ele><time>2026-05-02T15:49:23.999Z</time></trkpt><trkpt lat="39.989371924441166" lon="8.640957524163527"><ele>15.0</ele><time>2026-05-02T15:49:24.999Z</time></trkpt><trkpt lat="39.989252745906334" lon="8.640812058522453"><ele>15.0</ele><time>2026-05-02T15:49:26Z</time></trkpt><trkpt lat="39.98911761059216" lon="8.64064676547646"><ele>15.0</ele><time>2026-05-02T15:49:27Z</time></trkpt><trkpt lat="39.98896732124443" lon="8.640455578908572"><ele>15.0</ele><time>2026-05-02T15:49:28Z</time></trkpt><trkpt lat="39.988829688671984" lon="8.640266458061303"><ele>15.0</ele><time>2026-05-02T15:49:29Z</time></trkpt><trkpt lat="39.98868786613057" lon="8.640067905500326"><ele>15.0</ele><time>2026-05-02T15:49:30Z</time></trkpt><trkpt lat="39.98853490316123" lon="8.639866057203518"><ele>15.0</ele><time>2026-05-02T15:49:31Z</time></trkpt><trkpt lat="39.98838060033765" lon="8.639662996031516"><ele>15.0</ele><time>2026-05-02T15:49:32Z</time></trkpt><trkpt lat="39.98821990887801" lon="8.63945104616808"><ele>15.5</ele><time>2026-05-02T15:49:33Z</time></trkpt><trkpt lat="39.98805381285216" lon="8.639242541818883"><ele>16.0</ele><time>2026-05-02T15:49:34Z</time></trkpt><trkpt lat="39.98788970513364" lon="8.639031044640355"><ele>16.0</ele><time>2026-05-02T15:49:35Z</time></trkpt><trkpt lat="39.98772439038247" lon="8.638818593750472"><ele>16.0</ele><time>2026-05-02T15:49:36Z</time></trkpt><trkpt lat="39.98755634457276" lon="8.63860047365746"><ele>16.0</ele><time>2026-05-02T15:49:37Z</time></trkpt><trkpt lat="39.98739021457234" lon="8.638382062299101"><ele>16.0</ele><time>2026-05-02T15:49:38Z</time></trkpt><trkpt lat="39.98721796965549" lon="8.638159509485474"><ele>16.0</ele><time>2026-05-02T15:49:39Z</time></trkpt><trkpt lat="39.98704083974514" lon="8.637935440637635"><ele>16.0</ele><time>2026-05-02T15:49:40Z</time></trkpt><trkpt lat="39.98685773439966" lon="8.637700170482974"><ele>16.5</ele><time>2026-05-02T15:49:41Z</time></trkpt><trkpt lat="39.986661612363335" lon="8.637453104694407"><ele>17.0</ele><time>2026-05-02T15:49:42Z</time></trkpt><trkpt lat="39.98646151419655" lon="8.637195743986851"><ele>16.5</ele><time>2026-05-02T15:49:43Z</time></trkpt><trkpt lat="39.986258792538315" lon="8.636939871878175"><ele>16.0</ele><time>2026-05-02T15:49:44Z</time></trkpt><trkpt lat="39.98606094569469" lon="8.636676763160892"><ele>16.0</ele><time>2026-05-02T15:49:45Z</time></trkpt><trkpt lat="39.98586138728134" lon="8.636423418751173"><ele>16.0</ele><time>2026-05-02T15:49:46Z</time></trkpt><trkpt lat="39.98565654432816" lon="8.636165836028866"><ele>17.0</ele><time>2026-05-02T15:49:47Z</time></trkpt><trkpt lat="39.98544615583526" lon="8.635897971895718"><ele>18.0</ele><time>2026-05-02T15:49:48Z</time></trkpt><trkpt lat="39.9852366777357" lon="8.635621759023882"><ele>18.0</ele><time>2026-05-02T15:49:49Z</time></trkpt><trkpt lat="39.98501798377047" lon="8.635345145522678"><ele>18.0</ele><time>2026-05-02T15:49:50Z</time></trkpt><trkpt lat="39.98480032397305" lon="8.635066754393076"><ele>17.5</ele><time>2026-05-02T15:49:51Z</time></trkpt><trkpt lat="39.98457836196439" lon="8.634788987621679"><ele>17.0</ele><time>2026-05-02T15:49:52Z</time></trkpt><trkpt lat="39.98435906022047" lon="8.634503399660499"><ele>18.0</ele><time>2026-05-02T15:49:53Z</time></trkpt><trkpt lat="39.98413391516089" lon="8.63421662558954"><ele>19.0</ele><time>2026-05-02T15:49:54Z</time></trkpt><trkpt lat="39.98390273947624" lon="8.63392838016902"><ele>18.0</ele><time>2026-05-02T15:49:55Z</time></trkpt><trkpt lat="39.98367066609352" lon="8.633633706339433"><ele>17.0</ele><time>2026-05-02T15:49:56Z</time></trkpt><trkpt lat="39.98343344917791" lon="8.633352361528601"><ele>17.5</ele><time>2026-05-02T15:49:57Z</time></trkpt><trkpt lat="39.98318897399325" lon="8.6330612439634"><ele>18.0</ele><time>2026-05-02T15:49:58Z</time></trkpt><trkpt lat="39.98293693986904" lon="8.63278130957365"><ele>18.0</ele><time>2026-05-02T15:49:59Z</time></trkpt><trkpt lat="39.98267894031097" lon="8.632496993791005"><ele>18.0</ele><time>2026-05-02T15:50:00Z</time></trkpt><trkpt lat="39.98241735548199" lon="8.632228161544438"><ele>18.5</ele><time>2026-05-02T15:50:01Z</time></trkpt><trkpt lat="39.9821521433333" lon="8.631961671498031"><ele>19.0</ele><time>2026-05-02T15:50:02Z</time></trkpt><trkpt lat="39.98187723089332" lon="8.631709343089787"><ele>19.5</ele><time>2026-05-02T15:50:03Z</time></trkpt><trkpt lat="39.98159948009222" lon="8.63147074764118"><ele>20.0</ele><time>2026-05-02T15:50:04Z</time></trkpt><trkpt lat="39.98131869163492" lon="8.631242986913065"><ele>19.5</ele><time>2026-05-02T15:50:05Z</time></trkpt><trkpt lat="39.9810250139381" lon="8.631020725229071"><ele>19.0</ele><time>2026-05-02T15:50:06Z</time></trkpt><trkpt lat="39.98072293184925" lon="8.630812439292965"><ele>20.0</ele><time>2026-05-02T15:50:07Z</time></trkpt><trkpt lat="39.98041854566585" lon="8.630613550693441"><ele>21.0</ele><time>2026-05-02T15:50:08Z</time></trkpt><trkpt lat="39.98011100711889" lon="8.630426550013564"><ele>20.0</ele><time>2026-05-02T15:50:09Z</time></trkpt><trkpt lat="39.97980067046266" lon="8.630242135726354"><ele>19.0</ele><time>2026-05-02T15:50:10Z</time></trkpt><trkpt lat="39.979489607584476" lon="8.630065930560102"><ele>20.0</ele><time>2026-05-02T15:50:11Z</time></trkpt><trkpt lat="39.97917514477517" lon="8.629907780273058"><ele>21.0</ele><time>2026-05-02T15:50:12Z</time></trkpt><trkpt lat="39.97885749661935" lon="8.629748664242971"><ele>21.0</ele><time>2026-05-02T15:50:13Z</time></trkpt><trkpt lat="39.97853877863438" lon="8.629597190390209"><ele>21.0</ele><time>2026-05-02T15:50:14Z</time></trkpt><trkpt lat="39.978217358659734" lon="8.629444869183423"><ele>20.0</ele><time>2026-05-02T15:50:15Z</time></trkpt><trkpt lat="39.97789825099882" lon="8.629288253767244"><ele>19.0</ele><time>2026-05-02T15:50:16Z</time></trkpt><trkpt lat="39.977581707262914" lon="8.629133025805501"><ele>18.5</ele><time>2026-05-02T15:50:17Z</time></trkpt><trkpt lat="39.97726446293814" lon="8.628975859856434"><ele>18.0</ele><time>2026-05-02T15:50:18Z</time></trkpt><trkpt lat="39.976949587946905" lon="8.62881838136691"><ele>17.0</ele><time>2026-05-02T15:50:19.001Z</time></trkpt><trkpt lat="39.97663130586883" lon="8.62866315835669"><ele>16.0</ele><time>2026-05-02T15:50:20.001Z</time></trkpt><trkpt lat="39.976315805975986" lon="8.62851164973108"><ele>15.5</ele><time>2026-05-02T15:50:21.001Z</time></trkpt><trkpt lat="39.97600118018052" lon="8.628364238893043"><ele>15.0</ele><time>2026-05-02T15:50:22.001Z</time></trkpt><trkpt lat="39.975681985993944" lon="8.628210628473367"><ele>16.5</ele><time>2026-05-02T15:50:23.001Z</time></trkpt><trkpt lat="39.97536355217866" lon="8.628057558704624"><ele>18.0</ele><time>2026-05-02T15:50:24.001Z</time></trkpt><trkpt lat="39.97504809769644" lon="8.627905001958762"><ele>19.5</ele><time>2026-05-02T15:50:25.001Z</time></trkpt><trkpt lat="39.97473391289874" lon="8.627744801514503"><ele>21.0</ele><time>2026-05-02T15:50:26.001Z</time></trkpt><trkpt lat="39.97441789718175" lon="8.627589206527023"><ele>22.5</ele><time>2026-05-02T15:50:27.001Z</time></trkpt><trkpt lat="39.974100617328624" lon="8.627428252328057"><ele>24.0</ele><time>2026-05-02T15:50:28.001Z</time></trkpt><trkpt lat="39.97378149592089" lon="8.627280602240873"><ele>24.0</ele><time>2026-05-02T15:50:29.001Z</time></trkpt><trkpt lat="39.973461592171894" lon="8.627122369838437"><ele>24.0</ele><time>2026-05-02T15:50:30.001Z</time></trkpt><trkpt lat="39.97314193632455" lon="8.626966199299293"><ele>25.0</ele><time>2026-05-02T15:50:31.001Z</time></trkpt><trkpt lat="39.97282485074449" lon="8.626807136984137"><ele>26.0</ele><time>2026-05-02T15:50:32.001Z</time></trkpt><trkpt lat="39.972508582964664" lon="8.626647036726776"><ele>26.5</ele><time>2026-05-02T15:50:33.001Z</time></trkpt><trkpt lat="39.97219028438757" lon="8.6264854437863"><ele>27.0</ele><time>2026-05-02T15:50:34.001Z</time></trkpt><trkpt lat="39.97187824908515" lon="8.62631144532144"><ele>27.0</ele><time>2026-05-02T15:50:35.001Z</time></trkpt><trkpt lat="39.971569520192986" lon="8.626126764852215"><ele>27.0</ele><time>2026-05-02T15:50:36.001Z</time></trkpt><trkpt lat="39.97127000637752" lon="8.625922938493025"><ele>27.0</ele><time>2026-05-02T15:50:37.001Z</time></trkpt><trkpt lat="39.970971029581136" lon="8.625711100959977"><ele>27.0</ele><time>2026-05-02T15:50:38.001Z</time></trkpt><trkpt lat="39.97068313793334" lon="8.625477380658205"><ele>27.0</ele><time>2026-05-02T15:50:39.001Z</time></trkpt><trkpt lat="39.97039713449045" lon="8.625241548105539"><ele>27.0</ele><time>2026-05-02T15:50:39.998Z</time></trkpt><trkpt lat="39.970112878120936" lon="8.625000176854382"><ele>28.5</ele><time>2026-05-02T15:50:40.998Z</time></trkpt><trkpt lat="39.96983145329071" lon="8.624760343427933"><ele>30.0</ele><time>2026-05-02T15:50:41.998Z</time></trkpt><trkpt lat="39.969548653405546" lon="8.624511649339164"><ele>30.5</ele><time>2026-05-02T15:50:42.998Z</time></trkpt><trkpt lat="39.96926155662726" lon="8.624273775768312"><ele>31.0</ele><time>2026-05-02T15:50:43.998Z</time></trkpt><trkpt lat="39.96897705268026" lon="8.624035475987908"><ele>31.0</ele><time>2026-05-02T15:50:44.998Z</time></trkpt><trkpt lat="39.96868718681731" lon="8.623792445425414"><ele>31.0</ele><time>2026-05-02T15:50:45.998Z</time></trkpt><trkpt lat="39.96840447156366" lon="8.623556148678514"><ele>30.0</ele><time>2026-05-02T15:50:46.998Z</time></trkpt><trkpt lat="39.96811800013205" lon="8.62331353272481"><ele>29.0</ele><time>2026-05-02T15:50:47.998Z</time></trkpt><trkpt lat="39.967833433983635" lon="8.623069787682471"><ele>29.0</ele><time>2026-05-02T15:50:48.998Z</time></trkpt><trkpt lat="39.96754843780454" lon="8.62282854516612"><ele>29.0</ele><time>2026-05-02T15:50:49.998Z</time></trkpt><trkpt lat="39.9672673929353" lon="8.622581348657341"><ele>28.0</ele><time>2026-05-02T15:50:50.998Z</time></trkpt><trkpt lat="39.96698434924437" lon="8.622340115627694"><ele>27.0</ele><time>2026-05-02T15:50:51.999Z</time></trkpt><trkpt lat="39.96670187609247" lon="8.622097561642065"><ele>28.5</ele><time>2026-05-02T15:50:52.999Z</time></trkpt><trkpt lat="39.966421027400955" lon="8.621854049652404"><ele>30.0</ele><time>2026-05-02T15:50:53.999Z</time></trkpt><trkpt lat="39.96613802327831" lon="8.621611854445675"><ele>30.0</ele><time>2026-05-02T15:50:54.999Z</time></trkpt><trkpt lat="39.965857249652366" lon="8.621364124975697"><ele>30.0</ele><time>2026-05-02T15:50:55.999Z</time></trkpt><trkpt lat="39.96556958469549" lon="8.62112215574547"><ele>30.0</ele><time>2026-05-02T15:50:56.999Z</time></trkpt><trkpt lat="39.96528627419023" lon="8.620879201313254"><ele>30.0</ele><time>2026-05-02T15:50:57.999Z</time></trkpt><trkpt lat="39.965001851917556" lon="8.620632573550775"><ele>30.5</ele><time>2026-05-02T15:50:58.999Z</time></trkpt><trkpt lat="39.96472062400291" lon="8.620389706439767"><ele>31.0</ele><time>2026-05-02T15:50:59.999Z</time></trkpt><trkpt lat="39.96443997226211" lon="8.620139192763755"><ele>32.0</ele><time>2026-05-02T15:51:00.999Z</time></trkpt><trkpt lat="39.96415683580815" lon="8.619894645143452"><ele>33.0</ele><time>2026-05-02T15:51:01.999Z</time></trkpt><trkpt lat="39.963875236882664" lon="8.619646878617068"><ele>33.0</ele><time>2026-05-02T15:51:02.999Z</time></trkpt><trkpt lat="39.96359460396845" lon="8.619401082545416"><ele>33.0</ele><time>2026-05-02T15:51:03.999Z</time></trkpt><trkpt lat="39.963309718986736" lon="8.619160196578681"><ele>32.5</ele><time>2026-05-02T15:51:04.999Z</time></trkpt><trkpt lat="39.9630282591484" lon="8.618917910158846"><ele>32.0</ele><time>2026-05-02T15:51:05.999Z</time></trkpt><trkpt lat="39.96274019645171" lon="8.6186857419439"><ele>31.5</ele><time>2026-05-02T15:51:06.999Z</time></trkpt><trkpt lat="39.96244922478949" lon="8.618462736417882"><ele>31.0</ele><time>2026-05-02T15:51:07.999Z</time></trkpt><trkpt lat="39.962156844397455" lon="8.618243399666651"><ele>31.0</ele><time>2026-05-02T15:51:08.999Z</time></trkpt><trkpt lat="39.96185771152837" lon="8.618029897184117"><ele>31.0</ele><time>2026-05-02T15:51:09.999Z</time></trkpt><trkpt lat="39.961558281495805" lon="8.617827638655971"><ele>31.0</ele><time>2026-05-02T15:51:10.999Z</time></trkpt><trkpt lat="39.96125239164559" lon="8.6176415805234"><ele>31.0</ele><time>2026-05-02T15:51:11.999Z</time></trkpt><trkpt lat="39.960956395117" lon="8.617464079944629"><ele>30.0</ele><time>2026-05-02T15:51:13Z</time></trkpt><trkpt lat="39.960622375022346" lon="8.617308598086785"><ele>29.0</ele><time>2026-05-02T15:51:14Z</time></trkpt><trkpt lat="39.960299187372556" lon="8.617178079977101"><ele>28.5</ele><time>2026-05-02T15:51:15Z</time></trkpt><trkpt lat="39.95996818447787" lon="8.617064696360362"><ele>28.0</ele><time>2026-05-02T15:51:16Z</time></trkpt><trkpt lat="39.95963338249367" lon="8.616966100964977"><ele>27.5</ele><time>2026-05-02T15:51:17Z</time></trkpt><trkpt lat="39.959298619995074" lon="8.616891798854459"><ele>27.0</ele><time>2026-05-02T15:51:18Z</time></trkpt><trkpt lat="39.95896005666837" lon="8.616835005459077"><ele>26.5</ele><time>2026-05-02T15:51:19Z</time></trkpt><trkpt lat="39.95861990108406" lon="8.616804853505515"><ele>26.0</ele><time>2026-05-02T15:51:20Z</time></trkpt><trkpt lat="39.958279644802325" lon="8.616784773799615"><ele>27.5</ele><time>2026-05-02T15:51:21Z</time></trkpt><trkpt lat="39.957939533771" lon="8.616785936427977"><ele>29.0</ele><time>2026-05-02T15:51:22Z</time></trkpt><trkpt lat="39.95758917327702" lon="8.616794520104975"><ele>30.0</ele><time>2026-05-02T15:51:23Z</time></trkpt><trkpt lat="39.95725655519196" lon="8.61683152737327"><ele>31.0</ele><time>2026-05-02T15:51:24Z</time></trkpt><trkpt lat="39.956922187439886" lon="8.61688365494435"><ele>29.5</ele><time>2026-05-02T15:51:25Z</time></trkpt><trkpt lat="39.95657426863668" lon="8.616939264462504"><ele>28.0</ele><time>2026-05-02T15:51:26Z</time></trkpt><trkpt lat="39.956251879491205" lon="8.61705698587242"><ele>28.0</ele><time>2026-05-02T15:51:27Z</time></trkpt><trkpt lat="39.95592331125123" lon="8.617176849171564"><ele>28.0</ele><time>2026-05-02T15:51:28Z</time></trkpt><trkpt lat="39.955600302907555" lon="8.617309575857215"><ele>27.0</ele><time>2026-05-02T15:51:29Z</time></trkpt><trkpt lat="39.95527281742114" lon="8.61747165796841"><ele>26.0</ele><time>2026-05-02T15:51:30Z</time></trkpt><trkpt lat="39.954943840266964" lon="8.617650376176226"><ele>25.0</ele><time>2026-05-02T15:51:31Z</time></trkpt><trkpt lat="39.95461931292583" lon="8.61783977713836"><ele>24.0</ele><time>2026-05-02T15:51:32Z</time></trkpt><trkpt lat="39.95430331489288" lon="8.618051597967156"><ele>23.0</ele><time>2026-05-02T15:51:33Z</time></trkpt><trkpt lat="39.95399399554637" lon="8.618263339052925"><ele>22.0</ele><time>2026-05-02T15:51:34Z</time></trkpt><trkpt lat="39.95368078678013" lon="8.618476578348622"><ele>21.5</ele><time>2026-05-02T15:51:35Z</time></trkpt><trkpt lat="39.95337048121498" lon="8.618689908467436"><ele>21.0</ele><time>2026-05-02T15:51:36Z</time></trkpt><trkpt lat="39.95306361376402" lon="8.618907328713208"><ele>21.0</ele><time>2026-05-02T15:51:37Z</time></trkpt><trkpt lat="39.952753218664036" lon="8.619135746373217"><ele>21.0</ele><time>2026-05-02T15:51:38Z</time></trkpt><trkpt lat="39.95243999271281" lon="8.619362171644227"><ele>22.0</ele><time>2026-05-02T15:51:39Z</time></trkpt><trkpt lat="39.9521270450255" lon="8.619580465366415"><ele>23.0</ele><time>2026-05-02T15:51:40Z</time></trkpt><trkpt lat="39.95181781750457" lon="8.619790388761832"><ele>22.5</ele><time>2026-05-02T15:51:41Z</time></trkpt><trkpt lat="39.95150026478304" lon="8.619992730889289"><ele>22.0</ele><time>2026-05-02T15:51:42Z</time></trkpt><trkpt lat="39.95118114022693" lon="8.620179687871289"><ele>23.5</ele><time>2026-05-02T15:51:43Z</time></trkpt><trkpt lat="39.95085839124501" lon="8.620359236416117"><ele>25.0</ele><time>2026-05-02T15:51:44Z</time></trkpt><trkpt lat="39.95053391927425" lon="8.620530497862106"><ele>25.0</ele><time>2026-05-02T15:51:45Z</time></trkpt><trkpt lat="39.95020405761152" lon="8.620689572985064"><ele>25.0</ele><time>2026-05-02T15:51:46Z</time></trkpt><trkpt lat="39.94986981286377" lon="8.62084607170325"><ele>23.5</ele><time>2026-05-02T15:51:47Z</time></trkpt><trkpt lat="39.94953764961615" lon="8.62098358326512"><ele>22.0</ele><time>2026-05-02T15:51:48Z</time></trkpt><trkpt lat="39.94920549040482" lon="8.621114530365011"><ele>21.5</ele><time>2026-05-02T15:51:49Z</time></trkpt><trkpt lat="39.94889707587704" lon="8.621234242565215"><ele>21.0</ele><time>2026-05-02T15:51:50.001Z</time></trkpt><trkpt lat="39.94860526519396" lon="8.621341547890262"><ele>18.0</ele><time>2026-05-02T15:51:51.001Z</time></trkpt><trkpt lat="39.94832856514125" lon="8.621439320156284"><ele>15.0</ele><time>2026-05-02T15:51:52.001Z</time></trkpt><trkpt lat="39.94806260277522" lon="8.621531762844935"><ele>15.0</ele><time>2026-05-02T15:51:53.001Z</time></trkpt><trkpt lat="39.94780297117711" lon="8.621622969908072"><ele>15.0</ele><time>2026-05-02T15:51:54.001Z</time></trkpt><trkpt lat="39.947532397582584" lon="8.621718709625013"><ele>12.5</ele><time>2026-05-02T15:51:55.001Z</time></trkpt><trkpt lat="39.94725022445756" lon="8.621817876931416"><ele>10.0</ele><time>2026-05-02T15:51:56.001Z</time></trkpt><trkpt lat="39.94695853042644" lon="8.621918954780368"><ele>9.0</ele><time>2026-05-02T15:51:57.001Z</time></trkpt><trkpt lat="39.94666179646595" lon="8.622030065296284"><ele>8.0</ele><time>2026-05-02T15:51:58.001Z</time></trkpt><trkpt lat="39.9463432207437" lon="8.622149278022196"><ele>8.0</ele><time>2026-05-02T15:51:59.001Z</time></trkpt><trkpt lat="39.94600127044414" lon="8.622272866188505"><ele>8.0</ele><time>2026-05-02T15:52:00.001Z</time></trkpt><trkpt lat="39.9456440385041" lon="8.622405919707543"><ele>8.0</ele><time>2026-05-02T15:52:01.001Z</time></trkpt><trkpt lat="39.945300684133436" lon="8.62254427894328"><ele>8.0</ele><time>2026-05-02T15:52:02.001Z</time></trkpt><trkpt lat="39.94499031302989" lon="8.622674642560048"><ele>8.0</ele><time>2026-05-02T15:52:03.001Z</time></trkpt><trkpt lat="39.94468536452028" lon="8.622808244487947"><ele>8.0</ele><time>2026-05-02T15:52:04.001Z</time></trkpt><trkpt lat="39.94437999777401" lon="8.62294499839263"><ele>8.0</ele><time>2026-05-02T15:52:05.001Z</time></trkpt><trkpt lat="39.94407569082492" lon="8.62307747923626"><ele>8.0</ele><time>2026-05-02T15:52:06.001Z</time></trkpt><trkpt lat="39.94377071063116" lon="8.623214203662437"><ele>8.0</ele><time>2026-05-02T15:52:07.001Z</time></trkpt><trkpt lat="39.94346713095621" lon="8.62334841779069"><ele>8.0</ele><time>2026-05-02T15:52:08.001Z</time></trkpt><trkpt lat="39.94316585043761" lon="8.623492814282333"><ele>8.5</ele><time>2026-05-02T15:52:09.001Z</time></trkpt><trkpt lat="39.942861396800794" lon="8.623627108107717"><ele>9.0</ele><time>2026-05-02T15:52:10.001Z</time></trkpt><trkpt lat="39.94255731378023" lon="8.623759778596645"><ele>8.0</ele><time>2026-05-02T15:52:11.001Z</time></trkpt><trkpt lat="39.94225323185897" lon="8.623894899330468"><ele>7.0</ele><time>2026-05-02T15:52:12.001Z</time></trkpt><trkpt lat="39.94195628342462" lon="8.624023927373061"><ele>7.0</ele><time>2026-05-02T15:52:13.001Z</time></trkpt><trkpt lat="39.941654144041514" lon="8.624156779283151"><ele>7.0</ele><time>2026-05-02T15:52:14.001Z</time></trkpt><trkpt lat="39.941357370558656" lon="8.624282338146035"><ele>7.0</ele><time>2026-05-02T15:52:15.001Z</time></trkpt><trkpt lat="39.94105771411234" lon="8.624418729971858"><ele>7.0</ele><time>2026-05-02T15:52:16.001Z</time></trkpt><trkpt lat="39.940765345992965" lon="8.6245522633024"><ele>8.0</ele><time>2026-05-02T15:52:17.001Z</time></trkpt><trkpt lat="39.94047049338371" lon="8.62467993247422"><ele>9.0</ele><time>2026-05-02T15:52:18.001Z</time></trkpt><trkpt lat="39.94017611839668" lon="8.624809084448705"><ele>8.0</ele><time>2026-05-02T15:52:19.001Z</time></trkpt><trkpt lat="39.939881637220275" lon="8.624938920360133"><ele>7.0</ele><time>2026-05-02T15:52:20.001Z</time></trkpt><trkpt lat="39.93958877537102" lon="8.625075337564054"><ele>7.0</ele><time>2026-05-02T15:52:21.001Z</time></trkpt><trkpt lat="39.9392903794694" lon="8.625209556533708"><ele>7.0</ele><time>2026-05-02T15:52:22.001Z</time></trkpt><trkpt lat="39.93899593864319" lon="8.625343312158607"><ele>7.0</ele><time>2026-05-02T15:52:23.001Z</time></trkpt><trkpt lat="39.9387017163915" lon="8.625477764358182"><ele>7.0</ele><time>2026-05-02T15:52:24.001Z</time></trkpt><trkpt lat="39.9384077161061" lon="8.625607328533912"><ele>7.5</ele><time>2026-05-02T15:52:25.001Z</time></trkpt><trkpt lat="39.93811374045987" lon="8.625735161064833"><ele>8.0</ele><time>2026-05-02T15:52:26.001Z</time></trkpt><trkpt lat="39.9378145829956" lon="8.625868082608847"><ele>7.0</ele><time>2026-05-02T15:52:27.001Z</time></trkpt><trkpt lat="39.93752082123588" lon="8.62600028356086"><ele>6.0</ele><time>2026-05-02T15:52:28.001Z</time></trkpt><trkpt lat="39.93722782847675" lon="8.626127962797069"><ele>7.0</ele><time>2026-05-02T15:52:29.001Z</time></trkpt><trkpt lat="39.93692312495577" lon="8.626263927081876"><ele>8.0</ele><time>2026-05-02T15:52:30.001Z</time></trkpt><trkpt lat="39.9366195436857" lon="8.626401322645384"><ele>8.5</ele><time>2026-05-02T15:52:31.001Z</time></trkpt><trkpt lat="39.93630863056735" lon="8.626535976081124"><ele>9.0</ele><time>2026-05-02T15:52:32.001Z</time></trkpt><trkpt lat="39.935986963101016" lon="8.626676512802964"><ele>10.0</ele><time>2026-05-02T15:52:33.001Z</time></trkpt><trkpt lat="39.93565905696437" lon="8.626821624889503"><ele>11.0</ele><time>2026-05-02T15:52:34.002Z</time></trkpt><trkpt lat="39.93532763873504" lon="8.626967998003467"><ele>9.0</ele><time>2026-05-02T15:52:35.002Z</time></trkpt><trkpt lat="39.93499812121669" lon="8.627111248269017"><ele>7.0</ele><time>2026-05-02T15:52:36.002Z</time></trkpt><trkpt lat="39.9346664803682" lon="8.627262721664568"><ele>7.0</ele><time>2026-05-02T15:52:37.002Z</time></trkpt><trkpt lat="39.934335264431944" lon="8.627414964142393"><ele>7.0</ele><time>2026-05-02T15:52:38.002Z</time></trkpt><trkpt lat="39.934008020440245" lon="8.627563019320593"><ele>7.0</ele><time>2026-05-02T15:52:39.002Z</time></trkpt><trkpt lat="39.933678338272955" lon="8.627710755401804"><ele>7.0</ele><time>2026-05-02T15:52:40.002Z</time></trkpt><trkpt lat="39.93335145939957" lon="8.62785822536179"><ele>7.5</ele><time>2026-05-02T15:52:41.002Z</time></trkpt><trkpt lat="39.93302643171903" lon="8.628003429195738"><ele>8.0</ele><time>2026-05-02T15:52:42.002Z</time></trkpt><trkpt lat="39.93270724849616" lon="8.62814761333929"><ele>8.5</ele><time>2026-05-02T15:52:43.002Z</time></trkpt><trkpt lat="39.9323855521673" lon="8.628291930648787"><ele>9.0</ele><time>2026-05-02T15:52:44.002Z</time></trkpt><trkpt lat="39.932063154414706" lon="8.628431912909143"><ele>9.0</ele><time>2026-05-02T15:52:45.002Z</time></trkpt><trkpt lat="39.931745998382475" lon="8.628572718762266"><ele>9.0</ele><time>2026-05-02T15:52:46Z</time></trkpt><trkpt lat="39.931425856608925" lon="8.62871070418126"><ele>9.0</ele><time>2026-05-02T15:52:47Z</time></trkpt><trkpt lat="39.931107871653296" lon="8.628854055354346"><ele>9.0</ele><time>2026-05-02T15:52:48Z</time></trkpt><trkpt lat="39.930790861278815" lon="8.628993547422214"><ele>8.5</ele><time>2026-05-02T15:52:49Z</time></trkpt><trkpt lat="39.930476616742126" lon="8.629132495823079"><ele>8.0</ele><time>2026-05-02T15:52:50Z</time></trkpt><trkpt lat="39.93016185738333" lon="8.629275122807169"><ele>7.5</ele><time>2026-05-02T15:52:51Z</time></trkpt><trkpt lat="39.929849898048815" lon="8.62941761619968"><ele>7.0</ele><time>2026-05-02T15:52:52Z</time></trkpt><trkpt lat="39.929537573275304" lon="8.629559523012242"><ele>8.0</ele><time>2026-05-02T15:52:53Z</time></trkpt><trkpt lat="39.929230008663026" lon="8.629702984561316"><ele>9.0</ele><time>2026-05-02T15:52:54Z</time></trkpt><trkpt lat="39.92892208463495" lon="8.629853236452286"><ele>9.5</ele><time>2026-05-02T15:52:55Z</time></trkpt><trkpt lat="39.92861620377693" lon="8.629999147412008"><ele>10.0</ele><time>2026-05-02T15:52:56Z</time></trkpt><trkpt lat="39.928306640438144" lon="8.630150026440546"><ele>9.0</ele><time>2026-05-02T15:52:57Z</time></trkpt><trkpt lat="39.928000084902095" lon="8.630302657882378"><ele>8.0</ele><time>2026-05-02T15:52:58Z</time></trkpt><trkpt lat="39.92768955784924" lon="8.63046195256381"><ele>7.5</ele><time>2026-05-02T15:52:59Z</time></trkpt><trkpt lat="39.92737787707287" lon="8.63062021459628"><ele>7.0</ele><time>2026-05-02T15:53:00Z</time></trkpt><trkpt lat="39.92706547783776" lon="8.630776105281036"><ele>7.0</ele><time>2026-05-02T15:53:01Z</time></trkpt><trkpt lat="39.92675109204128" lon="8.630933062457483"><ele>7.0</ele><time>2026-05-02T15:53:02Z</time></trkpt><trkpt lat="39.92644005692936" lon="8.631080085900608"><ele>7.0</ele><time>2026-05-02T15:53:03Z</time></trkpt><trkpt lat="39.92612573399062" lon="8.631229869162363"><ele>7.0</ele><time>2026-05-02T15:53:04Z</time></trkpt><trkpt lat="39.9258129155758" lon="8.63138041043609"><ele>7.0</ele><time>2026-05-02T15:53:05Z</time></trkpt><trkpt lat="39.925499741540264" lon="8.631537971298147"><ele>7.0</ele><time>2026-05-02T15:53:06Z</time></trkpt><trkpt lat="39.92519101319838" lon="8.63169720791405"><ele>7.0</ele><time>2026-05-02T15:53:07Z</time></trkpt><trkpt lat="39.92488245316541" lon="8.631855943654118"><ele>7.0</ele><time>2026-05-02T15:53:08Z</time></trkpt><trkpt lat="39.92457547118916" lon="8.632011198841356"><ele>7.5</ele><time>2026-05-02T15:53:09Z</time></trkpt><trkpt lat="39.924265828923936" lon="8.63216645393211"><ele>8.0</ele><time>2026-05-02T15:53:10Z</time></trkpt><trkpt lat="39.923955922693686" lon="8.632324944738636"><ele>8.0</ele><time>2026-05-02T15:53:11Z</time></trkpt><trkpt lat="39.92364812718663" lon="8.6324797788783"><ele>8.0</ele><time>2026-05-02T15:53:12Z</time></trkpt><trkpt lat="39.923338520856746" lon="8.632635290645055"><ele>8.0</ele><time>2026-05-02T15:53:13Z</time></trkpt><trkpt lat="39.92302945077553" lon="8.63278773607794"><ele>8.0</ele><time>2026-05-02T15:53:14Z</time></trkpt><trkpt lat="39.92271564039476" lon="8.632930500258334"><ele>9.0</ele><time>2026-05-02T15:53:15Z</time></trkpt><trkpt lat="39.92240087089545" lon="8.633057476886615"><ele>10.0</ele><time>2026-05-02T15:53:16Z</time></trkpt><trkpt lat="39.92208689883506" lon="8.633179965523661"><ele>10.0</ele><time>2026-05-02T15:53:17Z</time></trkpt><trkpt lat="39.92177206093729" lon="8.633290196556281"><ele>10.0</ele><time>2026-05-02T15:53:18Z</time></trkpt><trkpt lat="39.92145399201908" lon="8.633389848616158"><ele>10.5</ele><time>2026-05-02T15:53:19Z</time></trkpt><trkpt lat="39.92112946505444" lon="8.633482785026"><ele>11.0</ele><time>2026-05-02T15:53:20.001Z</time></trkpt><trkpt lat="39.92080777397774" lon="8.63356267009387"><ele>11.0</ele><time>2026-05-02T15:53:21.001Z</time></trkpt><trkpt lat="39.920490219857435" lon="8.633632959748995"><ele>11.0</ele><time>2026-05-02T15:53:22.001Z</time></trkpt><trkpt lat="39.92016459043086" lon="8.633706472031523"><ele>11.0</ele><time>2026-05-02T15:53:23.001Z</time></trkpt><trkpt lat="39.919840686841255" lon="8.633781073019962"><ele>11.0</ele><time>2026-05-02T15:53:24.001Z</time></trkpt><trkpt lat="39.91951589369769" lon="8.633858864302102"><ele>11.0</ele><time>2026-05-02T15:53:25.001Z</time></trkpt><trkpt lat="39.91919339388025" lon="8.633931450464097"><ele>11.0</ele><time>2026-05-02T15:53:26.001Z</time></trkpt><trkpt lat="39.91887156116784" lon="8.634002225440094"><ele>11.0</ele><time>2026-05-02T15:53:27.001Z</time></trkpt><trkpt lat="39.918548017752855" lon="8.634067983103881"><ele>11.0</ele><time>2026-05-02T15:53:28.001Z</time></trkpt><trkpt lat="39.91822090470125" lon="8.634128073145332"><ele>11.5</ele><time>2026-05-02T15:53:29.001Z</time></trkpt><trkpt lat="39.917897428650164" lon="8.634178584407309"><ele>12.0</ele><time>2026-05-02T15:53:30.001Z</time></trkpt><trkpt lat="39.91757212077443" lon="8.634222913493929"><ele>11.5</ele><time>2026-05-02T15:53:31.001Z</time></trkpt><trkpt lat="39.91724523854025" lon="8.634254017130921"><ele>11.0</ele><time>2026-05-02T15:53:32.001Z</time></trkpt><trkpt lat="39.91691577655104" lon="8.634270708086337"><ele>11.0</ele><time>2026-05-02T15:53:33.001Z</time></trkpt><trkpt lat="39.91658883510878" lon="8.63427764339621"><ele>11.0</ele><time>2026-05-02T15:53:34.001Z</time></trkpt><trkpt lat="39.91626619476377" lon="8.634274150312306"><ele>11.0</ele><time>2026-05-02T15:53:35.001Z</time></trkpt><trkpt lat="39.91593979442779" lon="8.634261095312597"><ele>11.0</ele><time>2026-05-02T15:53:36.001Z</time></trkpt><trkpt lat="39.91561362783806" lon="8.634235410051053"><ele>12.0</ele><time>2026-05-02T15:53:37.001Z</time></trkpt><trkpt lat="39.915286884290644" lon="8.63420114786843"><ele>13.0</ele><time>2026-05-02T15:53:38.001Z</time></trkpt><trkpt lat="39.914956772493206" lon="8.634154819299063"><ele>13.5</ele><time>2026-05-02T15:53:39.001Z</time></trkpt><trkpt lat="39.91461317389523" lon="8.634094661457333"><ele>14.0</ele><time>2026-05-02T15:53:40.001Z</time></trkpt><trkpt lat="39.914263895639884" lon="8.63401903553561"><ele>14.5</ele><time>2026-05-02T15:53:41.001Z</time></trkpt><trkpt lat="39.913917050010085" lon="8.633926256793576"><ele>15.0</ele><time>2026-05-02T15:53:42.001Z</time></trkpt><trkpt lat="39.9135723690841" lon="8.633825582387484"><ele>14.0</ele><time>2026-05-02T15:53:43.001Z</time></trkpt><trkpt lat="39.91322446050328" lon="8.633713486673365"><ele>13.0</ele><time>2026-05-02T15:53:44.001Z</time></trkpt><trkpt lat="39.91288215420211" lon="8.633590486657965"><ele>13.5</ele><time>2026-05-02T15:53:45.001Z</time></trkpt><trkpt lat="39.912542967007205" lon="8.633455262744674"><ele>14.0</ele><time>2026-05-02T15:53:46.001Z</time></trkpt><trkpt lat="39.9122044371202" lon="8.633308655182779"><ele>14.0</ele><time>2026-05-02T15:53:47.001Z</time></trkpt><trkpt lat="39.91187098975021" lon="8.633159338984417"><ele>14.0</ele><time>2026-05-02T15:53:48.001Z</time></trkpt><trkpt lat="39.91153439890558" lon="8.632998004773825"><ele>14.0</ele><time>2026-05-02T15:53:49.001Z</time></trkpt><trkpt lat="39.91120112154496" lon="8.632840225627758"><ele>14.0</ele><time>2026-05-02T15:53:50.001Z</time></trkpt><trkpt lat="39.910863880730176" lon="8.632681297329453"><ele>14.0</ele><time>2026-05-02T15:53:51.001Z</time></trkpt><trkpt lat="39.91052701650574" lon="8.632512953880248"><ele>14.0</ele><time>2026-05-02T15:53:52.001Z</time></trkpt><trkpt lat="39.91019229084588" lon="8.632348359128848"><ele>14.0</ele><time>2026-05-02T15:53:53.001Z</time></trkpt><trkpt lat="39.909858905232426" lon="8.632183095353293"><ele>14.0</ele><time>2026-05-02T15:53:54.001Z</time></trkpt><trkpt lat="39.909522427127115" lon="8.632017272577237"><ele>13.0</ele><time>2026-05-02T15:53:55.001Z</time></trkpt><trkpt lat="39.90918787407429" lon="8.631848724319097"><ele>12.0</ele><time>2026-05-02T15:53:56.001Z</time></trkpt><trkpt lat="39.90885922439876" lon="8.631684685492795"><ele>12.0</ele><time>2026-05-02T15:53:57.001Z</time></trkpt><trkpt lat="39.90853728133665" lon="8.6315247676238"><ele>12.0</ele><time>2026-05-02T15:53:58.001Z</time></trkpt><trkpt lat="39.90823559546236" lon="8.631370161684627"><ele>12.5</ele><time>2026-05-02T15:53:59.001Z</time></trkpt><trkpt lat="39.90794734883845" lon="8.631222154558548"><ele>13.0</ele><time>2026-05-02T15:54:00.001Z</time></trkpt><trkpt lat="39.907674738053785" lon="8.631079283455831"><ele>13.0</ele><time>2026-05-02T15:54:01.001Z</time></trkpt><trkpt lat="39.90739837862246" lon="8.630938331437362"><ele>13.0</ele><time>2026-05-02T15:54:02.001Z</time></trkpt><trkpt lat="39.90712350447678" lon="8.630813401552679"><ele>13.0</ele><time>2026-05-02T15:54:03.001Z</time></trkpt><trkpt lat="39.90685082136103" lon="8.63067481402"><ele>13.0</ele><time>2026-05-02T15:54:04.002Z</time></trkpt><trkpt lat="39.90657385509802" lon="8.630537852881435"><ele>13.5</ele><time>2026-05-02T15:54:05.002Z</time></trkpt><trkpt lat="39.90630426886766" lon="8.6304047856667"><ele>14.0</ele><time>2026-05-02T15:54:06.002Z</time></trkpt><trkpt lat="39.90603561634587" lon="8.630271223890901"><ele>14.0</ele><time>2026-05-02T15:54:07.002Z</time></trkpt><trkpt lat="39.90576453904389" lon="8.630141180736677"><ele>14.0</ele><time>2026-05-02T15:54:08.002Z</time></trkpt><trkpt lat="39.90550435304036" lon="8.630014077560473"><ele>14.0</ele><time>2026-05-02T15:54:09.002Z</time></trkpt><trkpt lat="39.905259292609706" lon="8.629895658334577"><ele>14.0</ele><time>2026-05-02T15:54:10.002Z</time></trkpt><trkpt lat="39.90500908102273" lon="8.62977723643096"><ele>14.5</ele><time>2026-05-02T15:54:11.002Z</time></trkpt><trkpt lat="39.90475621344975" lon="8.62964860222366"><ele>15.0</ele><time>2026-05-02T15:54:12.002Z</time></trkpt><trkpt lat="39.90450288858074" lon="8.629518662750542"><ele>15.0</ele><time>2026-05-02T15:54:13.002Z</time></trkpt><trkpt lat="39.90424544823434" lon="8.629385646115258"><ele>15.0</ele><time>2026-05-02T15:54:14.002Z</time></trkpt><trkpt lat="39.903985467452046" lon="8.629253112103397"><ele>15.0</ele><time>2026-05-02T15:54:15.002Z</time></trkpt><trkpt lat="39.90372047055506" lon="8.629108113492661"><ele>15.0</ele><time>2026-05-02T15:54:16.002Z</time></trkpt><trkpt lat="39.90344684273582" lon="8.62896326838199"><ele>15.0</ele><time>2026-05-02T15:54:17.002Z</time></trkpt><trkpt lat="39.90316922039818" lon="8.628819476269918"><ele>15.0</ele><time>2026-05-02T15:54:18.002Z</time></trkpt><trkpt lat="39.902880825242875" lon="8.628674032147277"><ele>14.5</ele><time>2026-05-02T15:54:19.002Z</time></trkpt><trkpt lat="39.90259505945086" lon="8.628532964817632"><ele>14.0</ele><time>2026-05-02T15:54:20.002Z</time></trkpt><trkpt lat="39.902315069101974" lon="8.628396374472633"><ele>14.0</ele><time>2026-05-02T15:54:21.002Z</time></trkpt><trkpt lat="39.902042403390986" lon="8.628266174162173"><ele>14.0</ele><time>2026-05-02T15:54:22.002Z</time></trkpt><trkpt lat="39.90176965714788" lon="8.62812786581636"><ele>14.0</ele><time>2026-05-02T15:54:23.002Z</time></trkpt><trkpt lat="39.901500513860825" lon="8.627984087699735"><ele>14.0</ele><time>2026-05-02T15:54:24.002Z</time></trkpt><trkpt lat="39.90123500970224" lon="8.627850090234649"><ele>13.0</ele><time>2026-05-02T15:54:25.002Z</time></trkpt><trkpt lat="39.90096625326497" lon="8.62771476421841"><ele>12.0</ele><time>2026-05-02T15:54:26.002Z</time></trkpt><trkpt lat="39.90069064075218" lon="8.627574030085292"><ele>12.0</ele><time>2026-05-02T15:54:27.002Z</time></trkpt><trkpt lat="39.90041353246109" lon="8.627438828813947"><ele>12.0</ele><time>2026-05-02T15:54:28.002Z</time></trkpt><trkpt lat="39.900135368240434" lon="8.627300866355322"><ele>12.5</ele><time>2026-05-02T15:54:29.002Z</time></trkpt><trkpt lat="39.8998570204889" lon="8.627162149291792"><ele>13.0</ele><time>2026-05-02T15:54:30.002Z</time></trkpt><trkpt lat="39.89958315732874" lon="8.627022212948082"><ele>12.5</ele><time>2026-05-02T15:54:31.002Z</time></trkpt><trkpt lat="39.89930862524868" lon="8.626881485043555"><ele>12.0</ele><time>2026-05-02T15:54:32.002Z</time></trkpt><trkpt lat="39.89903513899458" lon="8.62673992504525"><ele>12.0</ele><time>2026-05-02T15:54:33.002Z</time></trkpt><trkpt lat="39.89875879092627" lon="8.626600597662467"><ele>12.0</ele><time>2026-05-02T15:54:34.002Z</time></trkpt><trkpt lat="39.898483104775295" lon="8.62646885023595"><ele>11.5</ele><time>2026-05-02T15:54:35.002Z</time></trkpt><trkpt lat="39.89820689694182" lon="8.62633594021496"><ele>11.0</ele><time>2026-05-02T15:54:36.002Z</time></trkpt><trkpt lat="39.897939687438964" lon="8.626199857136388"><ele>11.5</ele><time>2026-05-02T15:54:37.002Z</time></trkpt><trkpt lat="39.89766736838546" lon="8.626071238442544"><ele>12.0</ele><time>2026-05-02T15:54:38.002Z</time></trkpt><trkpt lat="39.897397936397766" lon="8.625939521846464"><ele>11.0</ele><time>2026-05-02T15:54:39.002Z</time></trkpt><trkpt lat="39.89713062160237" lon="8.625805525464907"><ele>10.0</ele><time>2026-05-02T15:54:40.002Z</time></trkpt><trkpt lat="39.89685914895889" lon="8.625668199262172"><ele>10.0</ele><time>2026-05-02T15:54:41.002Z</time></trkpt><trkpt lat="39.89659259683055" lon="8.625536041395662"><ele>10.0</ele><time>2026-05-02T15:54:42.002Z</time></trkpt><trkpt lat="39.896324385728484" lon="8.625400723197385"><ele>10.0</ele><time>2026-05-02T15:54:43.002Z</time></trkpt><trkpt lat="39.89605228256425" lon="8.625267277035684"><ele>10.0</ele><time>2026-05-02T15:54:44.002Z</time></trkpt><trkpt lat="39.895781692423604" lon="8.62513053247214"><ele>9.5</ele><time>2026-05-02T15:54:45.002Z</time></trkpt><trkpt lat="39.895508407621826" lon="8.624995040069251"><ele>9.0</ele><time>2026-05-02T15:54:46.002Z</time></trkpt><trkpt lat="39.89523327328216" lon="8.624859146749873"><ele>9.5</ele><time>2026-05-02T15:54:47.002Z</time></trkpt><trkpt lat="39.89495736699861" lon="8.624721631821876"><ele>10.0</ele><time>2026-05-02T15:54:48.002Z</time></trkpt><trkpt lat="39.89468023236323" lon="8.624582565264417"><ele>9.5</ele><time>2026-05-02T15:54:49.003Z</time></trkpt><trkpt lat="39.89439743828892" lon="8.624440829500893"><ele>9.0</ele><time>2026-05-02T15:54:50.003Z</time></trkpt><trkpt lat="39.89411751254467" lon="8.624304107328637"><ele>9.0</ele><time>2026-05-02T15:54:51.003Z</time></trkpt><trkpt lat="39.893836571606066" lon="8.624170709298337"><ele>9.0</ele><time>2026-05-02T15:54:52.001Z</time></trkpt><trkpt lat="39.89355939588313" lon="8.624026344454924"><ele>9.0</ele><time>2026-05-02T15:54:53.001Z</time></trkpt><trkpt lat="39.89327468797567" lon="8.623891786175088"><ele>9.0</ele><time>2026-05-02T15:54:54.001Z</time></trkpt><trkpt lat="39.89299143244766" lon="8.623753281917311"><ele>8.5</ele><time>2026-05-02T15:54:55.001Z</time></trkpt><trkpt lat="39.89270705779319" lon="8.623618992425776"><ele>8.0</ele><time>2026-05-02T15:54:56.001Z</time></trkpt><trkpt lat="39.89242564534218" lon="8.62348599752309"><ele>9.0</ele><time>2026-05-02T15:54:57.001Z</time></trkpt><trkpt lat="39.8921384798097" lon="8.623353098038061"><ele>10.0</ele><time>2026-05-02T15:54:58.001Z</time></trkpt><trkpt lat="39.89185324890425" lon="8.623216352767328"><ele>10.0</ele><time>2026-05-02T15:54:59.001Z</time></trkpt><trkpt lat="39.89157642204526" lon="8.623079273342066"><ele>10.0</ele><time>2026-05-02T15:55:00.001Z</time></trkpt><trkpt lat="39.891298570514884" lon="8.622942826445666"><ele>9.5</ele><time>2026-05-02T15:55:01.001Z</time></trkpt><trkpt lat="39.89102101280832" lon="8.622801976553246"><ele>9.0</ele><time>2026-05-02T15:55:02.001Z</time></trkpt><trkpt lat="39.890740496554415" lon="8.622663288848072"><ele>9.0</ele><time>2026-05-02T15:55:03.001Z</time></trkpt><trkpt lat="39.890465517438834" lon="8.622521079125235"><ele>9.0</ele><time>2026-05-02T15:55:04.001Z</time></trkpt><trkpt lat="39.89018999289193" lon="8.62238883949871"><ele>7.5</ele><time>2026-05-02T15:55:05.001Z</time></trkpt><trkpt lat="39.88991835820923" lon="8.622253462025283"><ele>6.0</ele><time>2026-05-02T15:55:06.001Z</time></trkpt><trkpt lat="39.889648601732745" lon="8.622116741876274"><ele>6.0</ele><time>2026-05-02T15:55:07.001Z</time></trkpt><trkpt lat="39.8893748462021" lon="8.621983978194812"><ele>6.0</ele><time>2026-05-02T15:55:08.001Z</time></trkpt><trkpt lat="39.88910205331565" lon="8.621849307425304"><ele>6.0</ele><time>2026-05-02T15:55:09.001Z</time></trkpt><trkpt lat="39.88883069457503" lon="8.621716970945142"><ele>6.0</ele><time>2026-05-02T15:55:10.001Z</time></trkpt><trkpt lat="39.88855816165287" lon="8.621583941483701"><ele>7.0</ele><time>2026-05-02T15:55:11.001Z</time></trkpt><trkpt lat="39.8882954463445" lon="8.621454921267965"><ele>8.0</ele><time>2026-05-02T15:55:12.001Z</time></trkpt><trkpt lat="39.888031233850306" lon="8.62132229151582"><ele>8.0</ele><time>2026-05-02T15:55:13.001Z</time></trkpt><trkpt lat="39.887771667087264" lon="8.62119363759311"><ele>8.0</ele><time>2026-05-02T15:55:14.001Z</time></trkpt><trkpt lat="39.88751093103684" lon="8.621066711097038"><ele>8.5</ele><time>2026-05-02T15:55:15.001Z</time></trkpt><trkpt lat="39.887250183731624" lon="8.620938426529865"><ele>9.0</ele><time>2026-05-02T15:55:16.001Z</time></trkpt><trkpt lat="39.88699394380863" lon="8.620812941973785"><ele>9.0</ele><time>2026-05-02T15:55:17.001Z</time></trkpt><trkpt lat="39.886730407194996" lon="8.620687073592007"><ele>9.0</ele><time>2026-05-02T15:55:18.001Z</time></trkpt><trkpt lat="39.88647240768081" lon="8.620559394852226"><ele>9.0</ele><time>2026-05-02T15:55:19.001Z</time></trkpt><trkpt lat="39.88621466908446" lon="8.6204348267051"><ele>9.0</ele><time>2026-05-02T15:55:20.001Z</time></trkpt><trkpt lat="39.88596299760393" lon="8.620307731612108"><ele>10.0</ele><time>2026-05-02T15:55:21.001Z</time></trkpt><trkpt lat="39.885709085323896" lon="8.620180558189235"><ele>11.0</ele><time>2026-05-02T15:55:22.001Z</time></trkpt><trkpt lat="39.88545197055948" lon="8.620057326953889"><ele>11.0</ele><time>2026-05-02T15:55:23.001Z</time></trkpt><trkpt lat="39.88519402719177" lon="8.619934455780829"><ele>11.0</ele><time>2026-05-02T15:55:24.001Z</time></trkpt><trkpt lat="39.88493287583641" lon="8.619806316885267"><ele>10.0</ele><time>2026-05-02T15:55:25.001Z</time></trkpt><trkpt lat="39.88466482579268" lon="8.619673244201623"><ele>9.0</ele><time>2026-05-02T15:55:26.001Z</time></trkpt><trkpt lat="39.88439808289954" lon="8.619544024374404"><ele>9.5</ele><time>2026-05-02T15:55:27.001Z</time></trkpt><trkpt lat="39.88412660726979" lon="8.619413051126553"><ele>10.0</ele><time>2026-05-02T15:55:28.001Z</time></trkpt><trkpt lat="39.883851145173296" lon="8.61928162928208"><ele>10.0</ele><time>2026-05-02T15:55:29.001Z</time></trkpt><trkpt lat="39.88357897769609" lon="8.619151832426034"><ele>10.0</ele><time>2026-05-02T15:55:30.001Z</time></trkpt><trkpt lat="39.88330627038191" lon="8.619022494812704"><ele>9.0</ele><time>2026-05-02T15:55:31.001Z</time></trkpt><trkpt lat="39.88303184831199" lon="8.618892469482798"><ele>8.0</ele><time>2026-05-02T15:55:32.001Z</time></trkpt><trkpt lat="39.88276075237302" lon="8.618762110476137"><ele>9.0</ele><time>2026-05-02T15:55:33.001Z</time></trkpt><trkpt lat="39.88249090697999" lon="8.618629959892457"><ele>10.0</ele><time>2026-05-02T15:55:34.001Z</time></trkpt><trkpt lat="39.88222268156386" lon="8.618498207655188"><ele>10.0</ele><time>2026-05-02T15:55:35.001Z</time></trkpt><trkpt lat="39.88195058694217" lon="8.61836151140749"><ele>10.0</ele><time>2026-05-02T15:55:36.001Z</time></trkpt><trkpt lat="39.881682195833605" lon="8.6182267143264"><ele>10.0</ele><time>2026-05-02T15:55:37.001Z</time></trkpt><trkpt lat="39.88141534923637" lon="8.618084647826992"><ele>10.0</ele><time>2026-05-02T15:55:38.001Z</time></trkpt><trkpt lat="39.88114004488732" lon="8.61793951308016"><ele>9.5</ele><time>2026-05-02T15:55:39.001Z</time></trkpt><trkpt lat="39.880869321868914" lon="8.617808660776303"><ele>9.0</ele><time>2026-05-02T15:55:40.001Z</time></trkpt><trkpt lat="39.880596580376924" lon="8.617677499274023"><ele>9.0</ele><time>2026-05-02T15:55:41.001Z</time></trkpt><trkpt lat="39.88032102423044" lon="8.617544736443222"><ele>9.0</ele><time>2026-05-02T15:55:42.001Z</time></trkpt><trkpt lat="39.88004325558699" lon="8.617417089433317"><ele>10.0</ele><time>2026-05-02T15:55:43.001Z</time></trkpt><trkpt lat="39.87977068031744" lon="8.617280879389536"><ele>11.0</ele><time>2026-05-02T15:55:44.001Z</time></trkpt><trkpt lat="39.87949451980794" lon="8.617156827861278"><ele>11.0</ele><time>2026-05-02T15:55:45.001Z</time></trkpt><trkpt lat="39.87922087246471" lon="8.617027671592213"><ele>11.0</ele><time>2026-05-02T15:55:46.001Z</time></trkpt><trkpt lat="39.87894518368984" lon="8.616895924209697"><ele>11.0</ele><time>2026-05-02T15:55:47.001Z</time></trkpt><trkpt lat="39.87867215857962" lon="8.616765260101513"><ele>11.0</ele><time>2026-05-02T15:55:48.001Z</time></trkpt><trkpt lat="39.87839824818189" lon="8.616635293365537"><ele>10.0</ele><time>2026-05-02T15:55:49.001Z</time></trkpt><trkpt lat="39.878124853140356" lon="8.616501299084346"><ele>9.0</ele><time>2026-05-02T15:55:50.001Z</time></trkpt><trkpt lat="39.877852252797716" lon="8.616369195748359"><ele>8.5</ele><time>2026-05-02T15:55:51.001Z</time></trkpt><trkpt lat="39.87757934086877" lon="8.616236536058006"><ele>8.0</ele><time>2026-05-02T15:55:52.001Z</time></trkpt><trkpt lat="39.877304820441665" lon="8.616104734466978"><ele>8.0</ele><time>2026-05-02T15:55:53.002Z</time></trkpt><trkpt lat="39.87703253101093" lon="8.615978990913195"><ele>8.0</ele><time>2026-05-02T15:55:54.002Z</time></trkpt><trkpt lat="39.87675729621643" lon="8.615846305607093"><ele>7.5</ele><time>2026-05-02T15:55:55.002Z</time></trkpt><trkpt lat="39.876482857613006" lon="8.615720580477797"><ele>7.0</ele><time>2026-05-02T15:55:56.002Z</time></trkpt><trkpt lat="39.876211773747194" lon="8.615575397282344"><ele>7.0</ele><time>2026-05-02T15:55:57.002Z</time></trkpt><trkpt lat="39.87593600596678" lon="8.6154459564433"><ele>7.0</ele><time>2026-05-02T15:55:58.002Z</time></trkpt><trkpt lat="39.87565105885823" lon="8.615315924944506"><ele>7.5</ele><time>2026-05-02T15:55:59.002Z</time></trkpt><trkpt lat="39.87536501523323" lon="8.615177403002853"><ele>8.0</ele><time>2026-05-02T15:56:00.002Z</time></trkpt><trkpt lat="39.8750726600948" lon="8.615052779006517"><ele>8.0</ele><time>2026-05-02T15:56:01.002Z</time></trkpt><trkpt lat="39.87477793634519" lon="8.614919207775387"><ele>8.0</ele><time>2026-05-02T15:56:02.002Z</time></trkpt><trkpt lat="39.8744843065654" lon="8.6147781618405"><ele>7.0</ele><time>2026-05-02T15:56:03.002Z</time></trkpt><trkpt lat="39.87418801677203" lon="8.614634567449908"><ele>6.0</ele><time>2026-05-02T15:56:04.002Z</time></trkpt><trkpt lat="39.87388848576427" lon="8.614494391332462"><ele>5.0</ele><time>2026-05-02T15:56:05.002Z</time></trkpt><trkpt lat="39.87358382450127" lon="8.61435226443279"><ele>4.0</ele><time>2026-05-02T15:56:06.002Z</time></trkpt><trkpt lat="39.87329044730273" lon="8.61421234135587"><ele>4.0</ele><time>2026-05-02T15:56:07.002Z</time></trkpt><trkpt lat="39.87298353257926" lon="8.614063063438637"><ele>4.0</ele><time>2026-05-02T15:56:08.002Z</time></trkpt><trkpt lat="39.872673501192175" lon="8.61391721765979"><ele>4.5</ele><time>2026-05-02T15:56:09.002Z</time></trkpt><trkpt lat="39.87236447002207" lon="8.613767922148288"><ele>5.0</ele><time>2026-05-02T15:56:10.002Z</time></trkpt><trkpt lat="39.87205454528069" lon="8.613617650952893"><ele>5.0</ele><time>2026-05-02T15:56:11.002Z</time></trkpt><trkpt lat="39.87174798390675" lon="8.613463918110801"><ele>5.0</ele><time>2026-05-02T15:56:12.002Z</time></trkpt><trkpt lat="39.87144391826656" lon="8.613297804064821"><ele>5.0</ele><time>2026-05-02T15:56:13.002Z</time></trkpt><trkpt lat="39.87113976374618" lon="8.613130644367033"><ele>5.0</ele><time>2026-05-02T15:56:14.002Z</time></trkpt><trkpt lat="39.87084282593338" lon="8.612954019217645"><ele>5.0</ele><time>2026-05-02T15:56:15.002Z</time></trkpt><trkpt lat="39.870552263451664" lon="8.6127827039009"><ele>5.0</ele><time>2026-05-02T15:56:16.002Z</time></trkpt><trkpt lat="39.87025702708027" lon="8.612597759327194"><ele>4.0</ele><time>2026-05-02T15:56:17.002Z</time></trkpt><trkpt lat="39.869962342484065" lon="8.612420375914958"><ele>3.0</ele><time>2026-05-02T15:56:18.002Z</time></trkpt><trkpt lat="39.869668687723255" lon="8.612242842569048"><ele>3.0</ele><time>2026-05-02T15:56:19.002Z</time></trkpt><trkpt lat="39.86936994536924" lon="8.612073922825044"><ele>3.0</ele><time>2026-05-02T15:56:20.002Z</time></trkpt><trkpt lat="39.86906686154782" lon="8.611915810662817"><ele>3.0</ele><time>2026-05-02T15:56:21.002Z</time></trkpt><trkpt lat="39.868761348000135" lon="8.61177069377869"><ele>3.0</ele><time>2026-05-02T15:56:22.002Z</time></trkpt><trkpt lat="39.86844605699037" lon="8.611649113734282"><ele>3.0</ele><time>2026-05-02T15:56:23.002Z</time></trkpt><trkpt lat="39.8681280321903" lon="8.611539549986729"><ele>3.0</ele><time>2026-05-02T15:56:24.002Z</time></trkpt><trkpt lat="39.86780573629369" lon="8.611450444174865"><ele>3.0</ele><time>2026-05-02T15:56:25.002Z</time></trkpt><trkpt lat="39.867482912530434" lon="8.61137742211763"><ele>3.0</ele><time>2026-05-02T15:56:26.002Z</time></trkpt><trkpt lat="39.86716159861149" lon="8.611323288589519"><ele>3.0</ele><time>2026-05-02T15:56:27.002Z</time></trkpt><trkpt lat="39.866827817596075" lon="8.61129900698901"><ele>3.0</ele><time>2026-05-02T15:56:28.002Z</time></trkpt><trkpt lat="39.866499266564446" lon="8.61130609150324"><ele>2.5</ele><time>2026-05-02T15:56:29.002Z</time></trkpt><trkpt lat="39.86616938872694" lon="8.611328900446134"><ele>2.0</ele><time>2026-05-02T15:56:30.002Z</time></trkpt><trkpt lat="39.86583612193837" lon="8.611378534834936"><ele>2.0</ele><time>2026-05-02T15:56:31.002Z</time></trkpt><trkpt lat="39.86551229322247" lon="8.611438833282435"><ele>2.0</ele><time>2026-05-02T15:56:32.002Z</time></trkpt><trkpt lat="39.86518986721018" lon="8.611511947575586"><ele>2.5</ele><time>2026-05-02T15:56:33.002Z</time></trkpt><trkpt lat="39.86486692219386" lon="8.61160340647653"><ele>3.0</ele><time>2026-05-02T15:56:34.002Z</time></trkpt><trkpt lat="39.86455397103244" lon="8.611690176403108"><ele>3.0</ele><time>2026-05-02T15:56:35.002Z</time></trkpt><trkpt lat="39.86423458800034" lon="8.61179242854542"><ele>3.0</ele><time>2026-05-02T15:56:36.002Z</time></trkpt><trkpt lat="39.86391904940106" lon="8.611895811970367"><ele>3.0</ele><time>2026-05-02T15:56:37.002Z</time></trkpt><trkpt lat="39.86360228739762" lon="8.612004434474583"><ele>3.0</ele><time>2026-05-02T15:56:38.002Z</time></trkpt><trkpt lat="39.86328563791898" lon="8.612111495066918"><ele>3.0</ele><time>2026-05-02T15:56:39.002Z</time></trkpt><trkpt lat="39.86297109943792" lon="8.612214888813895"><ele>3.0</ele><time>2026-05-02T15:56:40.002Z</time></trkpt><trkpt lat="39.86265806864605" lon="8.612323993050577"><ele>4.5</ele><time>2026-05-02T15:56:41.002Z</time></trkpt><trkpt lat="39.86234956285883" lon="8.612453304838679"><ele>6.0</ele><time>2026-05-02T15:56:42.002Z</time></trkpt><trkpt lat="39.862041934956395" lon="8.612606728366966"><ele>6.0</ele><time>2026-05-02T15:56:43.002Z</time></trkpt><trkpt lat="39.861750239178775" lon="8.61276167402852"><ele>6.0</ele><time>2026-05-02T15:56:44.002Z</time></trkpt><trkpt lat="39.86144668743954" lon="8.612932569258914"><ele>6.0</ele><time>2026-05-02T15:56:45.002Z</time></trkpt><trkpt lat="39.86114311302183" lon="8.613100116217314"><ele>6.0</ele><time>2026-05-02T15:56:46.002Z</time></trkpt><trkpt lat="39.860843366041365" lon="8.613269296895972"><ele>6.0</ele><time>2026-05-02T15:56:47.003Z</time></trkpt><trkpt lat="39.860540427110685" lon="8.6134409959117"><ele>6.0</ele><time>2026-05-02T15:56:48.003Z</time></trkpt><trkpt lat="39.86024394563178" lon="8.613605743807726"><ele>5.0</ele><time>2026-05-02T15:56:49.003Z</time></trkpt><trkpt lat="39.85994221160308" lon="8.613766424179483"><ele>4.0</ele><time>2026-05-02T15:56:50.003Z</time></trkpt><trkpt lat="39.859635878353" lon="8.61393709211725"><ele>4.0</ele><time>2026-05-02T15:56:51.003Z</time></trkpt><trkpt lat="39.859338322752265" lon="8.614096191872123"><ele>4.0</ele><time>2026-05-02T15:56:52.003Z</time></trkpt><trkpt lat="39.8590359572547" lon="8.614260623684444"><ele>3.5</ele><time>2026-05-02T15:56:53.003Z</time></trkpt><trkpt lat="39.85873263430961" lon="8.614423504968007"><ele>3.0</ele><time>2026-05-02T15:56:54.003Z</time></trkpt><trkpt lat="39.85843045791982" lon="8.614586786722429"><ele>3.0</ele><time>2026-05-02T15:56:55.003Z</time></trkpt><trkpt lat="39.85812629384092" lon="8.61475151699634"><ele>3.0</ele><time>2026-05-02T15:56:56.003Z</time></trkpt><trkpt lat="39.85782417548416" lon="8.614915806659312"><ele>2.5</ele><time>2026-05-02T15:56:57.003Z</time></trkpt><trkpt lat="39.85752181773708" lon="8.615080049405758"><ele>2.0</ele><time>2026-05-02T15:56:58.002Z</time></trkpt><trkpt lat="39.85722082369995" lon="8.61524546682177"><ele>2.0</ele><time>2026-05-02T15:56:59.002Z</time></trkpt><trkpt lat="39.856917864404785" lon="8.615412802703265"><ele>2.0</ele><time>2026-05-02T15:57:00.002Z</time></trkpt><trkpt lat="39.85661439094347" lon="8.615580087814628"><ele>3.0</ele><time>2026-05-02T15:57:01.002Z</time></trkpt><trkpt lat="39.856311900488926" lon="8.61574323863406"><ele>4.0</ele><time>2026-05-02T15:57:02.002Z</time></trkpt><trkpt lat="39.85600842354636" lon="8.615908157669157"><ele>3.5</ele><time>2026-05-02T15:57:03.002Z</time></trkpt><trkpt lat="39.855704979521086" lon="8.616071817380801"><ele>3.0</ele><time>2026-05-02T15:57:04.002Z</time></trkpt><trkpt lat="39.85540364096012" lon="8.616238231329183"><ele>3.0</ele><time>2026-05-02T15:57:05.002Z</time></trkpt><trkpt lat="39.85510432894482" lon="8.61639847452903"><ele>3.0</ele><time>2026-05-02T15:57:06.002Z</time></trkpt><trkpt lat="39.854802943642234" lon="8.616558773573507"><ele>3.0</ele><time>2026-05-02T15:57:07.002Z</time></trkpt><trkpt lat="39.85450502648001" lon="8.616720409159948"><ele>3.0</ele><time>2026-05-02T15:57:08.002Z</time></trkpt><trkpt lat="39.85420142268505" lon="8.61688465120476"><ele>2.5</ele><time>2026-05-02T15:57:09.002Z</time></trkpt><trkpt lat="39.853897165480845" lon="8.617046992201555"><ele>2.0</ele><time>2026-05-02T15:57:10.002Z</time></trkpt><trkpt lat="39.85359674810195" lon="8.617206829895865"><ele>2.0</ele><time>2026-05-02T15:57:11.002Z</time></trkpt><trkpt lat="39.85329590168295" lon="8.617367336796416"><ele>2.0</ele><time>2026-05-02T15:57:12.002Z</time></trkpt><trkpt lat="39.8529925345685" lon="8.617528149323677"><ele>2.0</ele><time>2026-05-02T15:57:13.002Z</time></trkpt><trkpt lat="39.85268959547554" lon="8.617688685448865"><ele>2.0</ele><time>2026-05-02T15:57:14.002Z</time></trkpt><trkpt lat="39.852388181727456" lon="8.617848204458603"><ele>2.0</ele><time>2026-05-02T15:57:15.002Z</time></trkpt><trkpt lat="39.85207989884842" lon="8.618011831049635"><ele>2.0</ele><time>2026-05-02T15:57:16.001Z</time></trkpt><trkpt lat="39.85176342248241" lon="8.618172086042357"><ele>3.0</ele><time>2026-05-02T15:57:17.001Z</time></trkpt><trkpt lat="39.85143815778166" lon="8.618336032144738"><ele>4.0</ele><time>2026-05-02T15:57:18.001Z</time></trkpt><trkpt lat="39.85111952511895" lon="8.618500643435231"><ele>4.5</ele><time>2026-05-02T15:57:19.001Z</time></trkpt><trkpt lat="39.8508056820556" lon="8.618679093615746"><ele>5.0</ele><time>2026-05-02T15:57:20.001Z</time></trkpt><trkpt lat="39.850480753389526" lon="8.618861601339002"><ele>5.0</ele><time>2026-05-02T15:57:21.001Z</time></trkpt><trkpt lat="39.85013618649188" lon="8.619040760620688"><ele>5.0</ele><time>2026-05-02T15:57:22.001Z</time></trkpt><trkpt lat="39.84978295075762" lon="8.61922848095558"><ele>4.5</ele><time>2026-05-02T15:57:23.001Z</time></trkpt><trkpt lat="39.849428876319514" lon="8.619414382312446"><ele>4.0</ele><time>2026-05-02T15:57:24.001Z</time></trkpt><trkpt lat="39.84908253399271" lon="8.619600742007668"><ele>4.5</ele><time>2026-05-02T15:57:25.001Z</time></trkpt><trkpt lat="39.848727405984306" lon="8.619789477111057"><ele>5.0</ele><time>2026-05-02T15:57:26.001Z</time></trkpt><trkpt lat="39.84836616432007" lon="8.619976514999566"><ele>5.0</ele><time>2026-05-02T15:57:27.001Z</time></trkpt><trkpt lat="39.84801252197854" lon="8.620156310640239"><ele>5.0</ele><time>2026-05-02T15:57:28.001Z</time></trkpt><trkpt lat="39.84766130445351" lon="8.62033249928149"><ele>5.0</ele><time>2026-05-02T15:57:29.001Z</time></trkpt><trkpt lat="39.84731614033158" lon="8.62051585239811"><ele>5.0</ele><time>2026-05-02T15:57:30.001Z</time></trkpt><trkpt lat="39.846973856634065" lon="8.620703773009135"><ele>5.5</ele><time>2026-05-02T15:57:31.001Z</time></trkpt><trkpt lat="39.846632645265004" lon="8.620886812583084"><ele>6.0</ele><time>2026-05-02T15:57:32.001Z</time></trkpt><trkpt lat="39.846289211479636" lon="8.62106419607162"><ele>6.0</ele><time>2026-05-02T15:57:33.001Z</time></trkpt><trkpt lat="39.84594187692133" lon="8.621234551889968"><ele>6.0</ele><time>2026-05-02T15:57:34.001Z</time></trkpt><trkpt lat="39.845591934224096" lon="8.621410421116114"><ele>6.0</ele><time>2026-05-02T15:57:35.001Z</time></trkpt><trkpt lat="39.84524683862218" lon="8.621593416458694"><ele>6.0</ele><time>2026-05-02T15:57:36.001Z</time></trkpt><trkpt lat="39.844901446891704" lon="8.621782326765926"><ele>7.0</ele><time>2026-05-02T15:57:37.001Z</time></trkpt><trkpt lat="39.84455639965236" lon="8.621976070584285"><ele>8.0</ele><time>2026-05-02T15:57:38.001Z</time></trkpt><trkpt lat="39.844205862461855" lon="8.622167323024657"><ele>8.5</ele><time>2026-05-02T15:57:39.001Z</time></trkpt><trkpt lat="39.84385153027305" lon="8.622357389053777"><ele>9.0</ele><time>2026-05-02T15:57:40.001Z</time></trkpt><trkpt lat="39.84349628639667" lon="8.622546443234791"><ele>9.0</ele><time>2026-05-02T15:57:41.001Z</time></trkpt><trkpt lat="39.843146638806395" lon="8.622732865703687"><ele>9.0</ele><time>2026-05-02T15:57:42.001Z</time></trkpt><trkpt lat="39.842800721470006" lon="8.62291888918569"><ele>8.0</ele><time>2026-05-02T15:57:43.001Z</time></trkpt><trkpt lat="39.84245551212235" lon="8.623105958402657"><ele>7.0</ele><time>2026-05-02T15:57:44.001Z</time></trkpt><trkpt lat="39.84211764991214" lon="8.623291413806305"><ele>6.5</ele><time>2026-05-02T15:57:45.001Z</time></trkpt><trkpt lat="39.84178155648454" lon="8.623475036952058"><ele>6.0</ele><time>2026-05-02T15:57:46.001Z</time></trkpt><trkpt lat="39.84144678288071" lon="8.62365743452874"><ele>6.0</ele><time>2026-05-02T15:57:47.001Z</time></trkpt><trkpt lat="39.841119195585286" lon="8.623835227780836"><ele>6.0</ele><time>2026-05-02T15:57:48.001Z</time></trkpt><trkpt lat="39.840792515321084" lon="8.624007332918548"><ele>6.0</ele><time>2026-05-02T15:57:49.001Z</time></trkpt><trkpt lat="39.84046826680532" lon="8.62418547917249"><ele>6.0</ele><time>2026-05-02T15:57:50.001Z</time></trkpt><trkpt lat="39.84015048007946" lon="8.6243589155803"><ele>6.5</ele><time>2026-05-02T15:57:51.001Z</time></trkpt><trkpt lat="39.839832611032655" lon="8.62453503678568"><ele>7.0</ele><time>2026-05-02T15:57:52.001Z</time></trkpt><trkpt lat="39.83952199030225" lon="8.624705141568953"><ele>7.5</ele><time>2026-05-02T15:57:53.001Z</time></trkpt><trkpt lat="39.83921269307909" lon="8.624877101388506"><ele>8.0</ele><time>2026-05-02T15:57:54.002Z</time></trkpt><trkpt lat="39.83890719659866" lon="8.625048357294329"><ele>8.0</ele><time>2026-05-02T15:57:55.002Z</time></trkpt><trkpt lat="39.838597737704994" lon="8.625217921538953"><ele>8.0</ele><time>2026-05-02T15:57:56.002Z</time></trkpt><trkpt lat="39.83828616034969" lon="8.625385034973586"><ele>9.5</ele><time>2026-05-02T15:57:57.002Z</time></trkpt><trkpt lat="39.837972383619736" lon="8.625554537852548"><ele>11.0</ele><time>2026-05-02T15:57:58.002Z</time></trkpt><trkpt lat="39.8376578874574" lon="8.625727160204637"><ele>11.0</ele><time>2026-05-02T15:57:59.002Z</time></trkpt><trkpt lat="39.83734071671013" lon="8.625896122302134"><ele>11.0</ele><time>2026-05-02T15:58:00.002Z</time></trkpt><trkpt lat="39.837023668675364" lon="8.626060651265373"><ele>10.5</ele><time>2026-05-02T15:58:01.002Z</time></trkpt><trkpt lat="39.8367021239475" lon="8.626227116129169"><ele>10.0</ele><time>2026-05-02T15:58:02.002Z</time></trkpt><trkpt lat="39.83637854502676" lon="8.626392469261516"><ele>10.0</ele><time>2026-05-02T15:58:03.002Z</time></trkpt><trkpt lat="39.83605951079027" lon="8.626561495846039"><ele>10.0</ele><time>2026-05-02T15:58:04.002Z</time></trkpt><trkpt lat="39.83574068701104" lon="8.626724786031694"><ele>10.5</ele><time>2026-05-02T15:58:05.002Z</time></trkpt><trkpt lat="39.835423746671495" lon="8.626887359143765"><ele>11.0</ele><time>2026-05-02T15:58:06.002Z</time></trkpt><trkpt lat="39.83510780489477" lon="8.627051822430792"><ele>10.0</ele><time>2026-05-02T15:58:07.002Z</time></trkpt><trkpt lat="39.83479412892764" lon="8.62721408365409"><ele>9.0</ele><time>2026-05-02T15:58:08.002Z</time></trkpt><trkpt lat="39.834485658773225" lon="8.627374520765313"><ele>9.5</ele><time>2026-05-02T15:58:09.002Z</time></trkpt><trkpt lat="39.834175837746955" lon="8.627532450681636"><ele>10.0</ele><time>2026-05-02T15:58:10.002Z</time></trkpt><trkpt lat="39.83386816693846" lon="8.627687828149991"><ele>10.0</ele><time>2026-05-02T15:58:11.002Z</time></trkpt><trkpt lat="39.833558828464646" lon="8.62784371239659"><ele>10.0</ele><time>2026-05-02T15:58:12.002Z</time></trkpt><trkpt lat="39.833245770956545" lon="8.62800283836587"><ele>10.0</ele><time>2026-05-02T15:58:13.002Z</time></trkpt><trkpt lat="39.83293323840335" lon="8.628163408909476"><ele>10.0</ele><time>2026-05-02T15:58:14.002Z</time></trkpt><trkpt lat="39.8326215409792" lon="8.6283256954706"><ele>9.5</ele><time>2026-05-02T15:58:15.002Z</time></trkpt><trkpt lat="39.832309286563124" lon="8.628486621027207"><ele>9.0</ele><time>2026-05-02T15:58:16.002Z</time></trkpt><trkpt lat="39.831996395006925" lon="8.628649803102498"><ele>8.5</ele><time>2026-05-02T15:58:17.002Z</time></trkpt><trkpt lat="39.831682683629346" lon="8.628810973761778"><ele>8.0</ele><time>2026-05-02T15:58:18.002Z</time></trkpt><trkpt lat="39.83137221091196" lon="8.628962242384729"><ele>8.0</ele><time>2026-05-02T15:58:19.002Z</time></trkpt><trkpt lat="39.83105559963112" lon="8.629125116780838"><ele>8.0</ele><time>2026-05-02T15:58:20.002Z</time></trkpt><trkpt lat="39.83073584763329" lon="8.6292886193852"><ele>6.0</ele><time>2026-05-02T15:58:21.002Z</time></trkpt><trkpt lat="39.8304157492456" lon="8.62944861689595"><ele>4.0</ele><time>2026-05-02T15:58:22.002Z</time></trkpt><trkpt lat="39.830088469628976" lon="8.629608001033251"><ele>3.0</ele><time>2026-05-02T15:58:23.002Z</time></trkpt><trkpt lat="39.829758676489334" lon="8.629771127363897"><ele>2.0</ele><time>2026-05-02T15:58:24.002Z</time></trkpt><trkpt lat="39.82942623994864" lon="8.629933394635037"><ele>3.0</ele><time>2026-05-02T15:58:25.002Z</time></trkpt><trkpt lat="39.829094176341194" lon="8.630099610715577"><ele>4.0</ele><time>2026-05-02T15:58:26.002Z</time></trkpt><trkpt lat="39.82876135723283" lon="8.63026959832776"><ele>3.0</ele><time>2026-05-02T15:58:27.002Z</time></trkpt><trkpt lat="39.828424829330785" lon="8.63044382735947"><ele>2.0</ele><time>2026-05-02T15:58:28.002Z</time></trkpt><trkpt lat="39.828093038848024" lon="8.630622278020688"><ele>2.0</ele><time>2026-05-02T15:58:29.002Z</time></trkpt><trkpt lat="39.82776067595917" lon="8.63079982660074"><ele>2.0</ele><time>2026-05-02T15:58:30.002Z</time></trkpt><trkpt lat="39.827433220783895" lon="8.63097621401254"><ele>2.0</ele><time>2026-05-02T15:58:31.002Z</time></trkpt><trkpt lat="39.827101375809214" lon="8.631154854978272"><ele>2.0</ele><time>2026-05-02T15:58:32.002Z</time></trkpt><trkpt lat="39.82676574463264" lon="8.631340298133518"><ele>3.5</ele><time>2026-05-02T15:58:33.002Z</time></trkpt><trkpt lat="39.82643113974275" lon="8.631527599002352"><ele>5.0</ele><time>2026-05-02T15:58:34.002Z</time></trkpt><trkpt lat="39.82609752161239" lon="8.631707177309726"><ele>4.5</ele><time>2026-05-02T15:58:35.002Z</time></trkpt><trkpt lat="39.82575901573139" lon="8.631889855125547"><ele>4.0</ele><time>2026-05-02T15:58:36.002Z</time></trkpt><trkpt lat="39.825420974238654" lon="8.632074814222282"><ele>4.5</ele><time>2026-05-02T15:58:37.002Z</time></trkpt><trkpt lat="39.82508708287016" lon="8.632259599072674"><ele>5.0</ele><time>2026-05-02T15:58:38.002Z</time></trkpt><trkpt lat="39.82475492547083" lon="8.632441245795933"><ele>5.0</ele><time>2026-05-02T15:58:39.002Z</time></trkpt><trkpt lat="39.82442137593771" lon="8.632624436595446"><ele>5.0</ele><time>2026-05-02T15:58:40.002Z</time></trkpt><trkpt lat="39.82408951511317" lon="8.63280900468953"><ele>4.5</ele><time>2026-05-02T15:58:41.002Z</time></trkpt><trkpt lat="39.8237538169862" lon="8.632998916370058"><ele>4.0</ele><time>2026-05-02T15:58:42.002Z</time></trkpt><trkpt lat="39.82341753704167" lon="8.63318864573203"><ele>4.0</ele><time>2026-05-02T15:58:43.002Z</time></trkpt><trkpt lat="39.823084051886234" lon="8.633376266133194"><ele>4.0</ele><time>2026-05-02T15:58:44.002Z</time></trkpt><trkpt lat="39.822747433645404" lon="8.63356706792918"><ele>4.5</ele><time>2026-05-02T15:58:45.002Z</time></trkpt><trkpt lat="39.82241250148072" lon="8.633762414383247"><ele>5.0</ele><time>2026-05-02T15:58:46.002Z</time></trkpt><trkpt lat="39.82207987010614" lon="8.633959103443315"><ele>5.5</ele><time>2026-05-02T15:58:47.002Z</time></trkpt><trkpt lat="39.8217466114517" lon="8.634153782796286"><ele>6.0</ele><time>2026-05-02T15:58:48.002Z</time></trkpt><trkpt lat="39.82141239909205" lon="8.634343822481616"><ele>6.0</ele><time>2026-05-02T15:58:49.002Z</time></trkpt><trkpt lat="39.82107889270933" lon="8.634531270236824"><ele>6.0</ele><time>2026-05-02T15:58:50.002Z</time></trkpt><trkpt lat="39.82074587239287" lon="8.634719258593293"><ele>7.0</ele><time>2026-05-02T15:58:51.002Z</time></trkpt><trkpt lat="39.82041069994676" lon="8.634904610378191"><ele>8.0</ele><time>2026-05-02T15:58:52.002Z</time></trkpt><trkpt lat="39.82007513498833" lon="8.635087416741518"><ele>9.5</ele><time>2026-05-02T15:58:53.002Z</time></trkpt><trkpt lat="39.819740699917084" lon="8.635270629444815"><ele>11.0</ele><time>2026-05-02T15:58:54.002Z</time></trkpt><trkpt lat="39.819405528141885" lon="8.635454930120344"><ele>12.0</ele><time>2026-05-02T15:58:55.002Z</time></trkpt><trkpt lat="39.81907173951284" lon="8.635639281068514"><ele>13.0</ele><time>2026-05-02T15:58:56.002Z</time></trkpt><trkpt lat="39.818739442642325" lon="8.635824403074931"><ele>12.0</ele><time>2026-05-02T15:58:57.002Z</time></trkpt><trkpt lat="39.818404848993296" lon="8.636007376890618"><ele>11.0</ele><time>2026-05-02T15:58:58.002Z</time></trkpt><trkpt lat="39.81806917165596" lon="8.636188540404527"><ele>11.5</ele><time>2026-05-02T15:58:59.002Z</time></trkpt><trkpt lat="39.817735022989055" lon="8.636359846488066"><ele>12.0</ele><time>2026-05-02T15:59:00.002Z</time></trkpt><trkpt lat="39.81739513897488" lon="8.636530041371707"><ele>12.0</ele><time>2026-05-02T15:59:01.002Z</time></trkpt><trkpt lat="39.81706180931376" lon="8.63670589064476"><ele>12.0</ele><time>2026-05-02T15:59:02.002Z</time></trkpt><trkpt lat="39.81672403422851" lon="8.636893076752482"><ele>11.0</ele><time>2026-05-02T15:59:03.002Z</time></trkpt><trkpt lat="39.81639031778559" lon="8.637072131956145"><ele>10.0</ele><time>2026-05-02T15:59:04.002Z</time></trkpt><trkpt lat="39.816056173083766" lon="8.637255439888994"><ele>9.5</ele><time>2026-05-02T15:59:05.002Z</time></trkpt><trkpt lat="39.815719181571666" lon="8.637435773039913"><ele>9.0</ele><time>2026-05-02T15:59:06.002Z</time></trkpt><trkpt lat="39.81538407058567" lon="8.63761961694869"><ele>11.0</ele><time>2026-05-02T15:59:07.002Z</time></trkpt><trkpt lat="39.81504829632323" lon="8.63779297532708"><ele>13.0</ele><time>2026-05-02T15:59:08.002Z</time></trkpt><trkpt lat="39.814722759907184" lon="8.6379622885817"><ele>13.0</ele><time>2026-05-02T15:59:09.002Z</time></trkpt><trkpt lat="39.81439813692977" lon="8.638134187704512"><ele>13.0</ele><time>2026-05-02T15:59:10.002Z</time></trkpt><trkpt lat="39.81407825623442" lon="8.638307266727864"><ele>14.5</ele><time>2026-05-02T15:59:11.002Z</time></trkpt><trkpt lat="39.813759926159705" lon="8.638479907171167"><ele>16.0</ele><time>2026-05-02T15:59:12.002Z</time></trkpt><trkpt lat="39.813444697035635" lon="8.638647767374337"><ele>16.5</ele><time>2026-05-02T15:59:13.002Z</time></trkpt><trkpt lat="39.81312708031319" lon="8.638815165818079"><ele>17.0</ele><time>2026-05-02T15:59:14.002Z</time></trkpt><trkpt lat="39.81280990670806" lon="8.638980885417343"><ele>17.0</ele><time>2026-05-02T15:59:15.002Z</time></trkpt><trkpt lat="39.81249476318784" lon="8.639156700735198"><ele>17.0</ele><time>2026-05-02T15:59:16.002Z</time></trkpt><trkpt lat="39.81216279298115" lon="8.639329689915936"><ele>17.0</ele><time>2026-05-02T15:59:17.002Z</time></trkpt><trkpt lat="39.81183875394512" lon="8.639497311581959"><ele>17.0</ele><time>2026-05-02T15:59:18.001Z</time></trkpt><trkpt lat="39.81151836976457" lon="8.639664857174465"><ele>17.0</ele><time>2026-05-02T15:59:19.001Z</time></trkpt><trkpt lat="39.811196797213135" lon="8.63983843806062"><ele>17.0</ele><time>2026-05-02T15:59:20.001Z</time></trkpt><trkpt lat="39.81087885187797" lon="8.64001313883832"><ele>17.0</ele><time>2026-05-02T15:59:21.001Z</time></trkpt><trkpt lat="39.81056555084455" lon="8.640194015029385"><ele>17.0</ele><time>2026-05-02T15:59:22.001Z</time></trkpt><trkpt lat="39.810251109378505" lon="8.64037170511802"><ele>16.0</ele><time>2026-05-02T15:59:23.001Z</time></trkpt><trkpt lat="39.80993828766231" lon="8.640540355500368"><ele>15.0</ele><time>2026-05-02T15:59:24.001Z</time></trkpt><trkpt lat="39.80961791772025" lon="8.640707835696928"><ele>14.0</ele><time>2026-05-02T15:59:25.001Z</time></trkpt><trkpt lat="39.80928877589228" lon="8.640867373659118"><ele>13.0</ele><time>2026-05-02T15:59:26.001Z</time></trkpt><trkpt lat="39.80895932189238" lon="8.64103773607422"><ele>13.5</ele><time>2026-05-02T15:59:27.001Z</time></trkpt><trkpt lat="39.808628541387314" lon="8.641211535795387"><ele>14.0</ele><time>2026-05-02T15:59:28.001Z</time></trkpt><trkpt lat="39.808299157667655" lon="8.64138308065155"><ele>14.0</ele><time>2026-05-02T15:59:29.001Z</time></trkpt><trkpt lat="39.80796832363079" lon="8.641559812522019"><ele>14.0</ele><time>2026-05-02T15:59:30.001Z</time></trkpt><trkpt lat="39.807640137455415" lon="8.64172932630149"><ele>14.0</ele><time>2026-05-02T15:59:31.001Z</time></trkpt><trkpt lat="39.80731918194818" lon="8.64189871177935"><ele>14.0</ele><time>2026-05-02T15:59:32.001Z</time></trkpt><trkpt lat="39.80699159275083" lon="8.642073191501217"><ele>14.0</ele><time>2026-05-02T15:59:33.001Z</time></trkpt><trkpt lat="39.80666386300992" lon="8.642246645284562"><ele>14.0</ele><time>2026-05-02T15:59:34.001Z</time></trkpt><trkpt lat="39.806338975793565" lon="8.642421115349585"><ele>14.0</ele><time>2026-05-02T15:59:35.001Z</time></trkpt><trkpt lat="39.80601724696865" lon="8.642594451023307"><ele>14.0</ele><time>2026-05-02T15:59:36.001Z</time></trkpt><trkpt lat="39.805696982616766" lon="8.642768081805535"><ele>15.5</ele><time>2026-05-02T15:59:37.001Z</time></trkpt><trkpt lat="39.805374020303915" lon="8.642947696082892"><ele>17.0</ele><time>2026-05-02T15:59:38.001Z</time></trkpt><trkpt lat="39.805049923151714" lon="8.643119392311679"><ele>17.0</ele><time>2026-05-02T15:59:39.001Z</time></trkpt><trkpt lat="39.804724216772215" lon="8.643292953733452"><ele>17.0</ele><time>2026-05-02T15:59:40.001Z</time></trkpt><trkpt lat="39.80439977756909" lon="8.643467435027869"><ele>17.5</ele><time>2026-05-02T15:59:41.001Z</time></trkpt><trkpt lat="39.80407402225296" lon="8.643648072052894"><ele>18.0</ele><time>2026-05-02T15:59:42.001Z</time></trkpt><trkpt lat="39.803745310051596" lon="8.643824381026581"><ele>18.0</ele><time>2026-05-02T15:59:43.001Z</time></trkpt><trkpt lat="39.80342257581057" lon="8.643997197254821"><ele>18.0</ele><time>2026-05-02T15:59:44.001Z</time></trkpt><trkpt lat="39.8030949981113" lon="8.644172086452107"><ele>18.0</ele><time>2026-05-02T15:59:45.001Z</time></trkpt><trkpt lat="39.80277097267473" lon="8.644346057483409"><ele>18.0</ele><time>2026-05-02T15:59:46.001Z</time></trkpt><trkpt lat="39.802446650681176" lon="8.644520746102284"><ele>18.5</ele><time>2026-05-02T15:59:47.001Z</time></trkpt><trkpt lat="39.80212251967961" lon="8.644700836519469"><ele>19.0</ele><time>2026-05-02T15:59:48.001Z</time></trkpt><trkpt lat="39.80179499647415" lon="8.644878341517074"><ele>19.0</ele><time>2026-05-02T15:59:49.001Z</time></trkpt><trkpt lat="39.801471278036225" lon="8.645052136593886"><ele>19.0</ele><time>2026-05-02T15:59:50.001Z</time></trkpt><trkpt lat="39.801143124738374" lon="8.645227342370438"><ele>19.5</ele><time>2026-05-02T15:59:51.001Z</time></trkpt><trkpt lat="39.80082118893925" lon="8.645403429695413"><ele>20.0</ele><time>2026-05-02T15:59:52.001Z</time></trkpt><trkpt lat="39.800496044750695" lon="8.645583265512448"><ele>20.0</ele><time>2026-05-02T15:59:53.001Z</time></trkpt><trkpt lat="39.800172381291965" lon="8.645759069594936"><ele>20.0</ele><time>2026-05-02T15:59:54.001Z</time></trkpt><trkpt lat="39.79984665320583" lon="8.645929653526265"><ele>20.0</ele><time>2026-05-02T15:59:55.001Z</time></trkpt><trkpt lat="39.799523363230456" lon="8.646103607975054"><ele>20.0</ele><time>2026-05-02T15:59:56.001Z</time></trkpt><trkpt lat="39.79919768878039" lon="8.646282085159669"><ele>21.0</ele><time>2026-05-02T15:59:57.001Z</time></trkpt><trkpt lat="39.79887386462941" lon="8.646457807692135"><ele>22.0</ele><time>2026-05-02T15:59:58.001Z</time></trkpt><trkpt lat="39.79854535402849" lon="8.64663632149109"><ele>22.0</ele><time>2026-05-02T15:59:59.001Z</time></trkpt><trkpt lat="39.79821567723995" lon="8.64681854386109"><ele>22.0</ele><time>2026-05-02T16:00:00.001Z</time></trkpt><trkpt lat="39.79789223051838" lon="8.646997629540467"><ele>22.5</ele><time>2026-05-02T16:00:01.001Z</time></trkpt><trkpt lat="39.79756836104479" lon="8.647170989683545"><ele>23.0</ele><time>2026-05-02T16:00:02.001Z</time></trkpt><trkpt lat="39.79724557058045" lon="8.647336281382797"><ele>23.0</ele><time>2026-05-02T16:00:03.001Z</time></trkpt><trkpt lat="39.79693481509126" lon="8.64749667804346"><ele>23.0</ele><time>2026-05-02T16:00:04.001Z</time></trkpt><trkpt lat="39.79662690225774" lon="8.647664557444344"><ele>23.0</ele><time>2026-05-02T16:00:05.001Z</time></trkpt><trkpt lat="39.796315127765894" lon="8.647831812999655"><ele>23.0</ele><time>2026-05-02T16:00:06.001Z</time></trkpt><trkpt lat="39.79601075700039" lon="8.647993621679111"><ele>22.5</ele><time>2026-05-02T16:00:07.001Z</time></trkpt><trkpt lat="39.79570697553434" lon="8.648154773986246"><ele>22.0</ele><time>2026-05-02T16:00:08.001Z</time></trkpt><trkpt lat="39.79541785998184" lon="8.64831126095082"><ele>21.0</ele><time>2026-05-02T16:00:09.001Z</time></trkpt><trkpt lat="39.79515103590655" lon="8.648460069103583"><ele>20.0</ele><time>2026-05-02T16:00:10.001Z</time></trkpt><trkpt lat="39.79489287509764" lon="8.648602730480077"><ele>21.5</ele><time>2026-05-02T16:00:11.001Z</time></trkpt><trkpt lat="39.79465319909981" lon="8.64873044333917"><ele>23.0</ele><time>2026-05-02T16:00:12.001Z</time></trkpt><trkpt lat="39.79442001748638" lon="8.648859786035825"><ele>22.5</ele><time>2026-05-02T16:00:13.001Z</time></trkpt><trkpt lat="39.794182417267734" lon="8.648992795502243"><ele>22.0</ele><time>2026-05-02T16:00:14.001Z</time></trkpt><trkpt lat="39.793938508385764" lon="8.649132914750647"><ele>22.0</ele><time>2026-05-02T16:00:15.001Z</time></trkpt><trkpt lat="39.79368911048297" lon="8.649277705042547"><ele>22.0</ele><time>2026-05-02T16:00:16.001Z</time></trkpt><trkpt lat="39.79344116185703" lon="8.649422802509257"><ele>22.5</ele><time>2026-05-02T16:00:17.001Z</time></trkpt><trkpt lat="39.79318052448577" lon="8.649565265410454"><ele>23.0</ele><time>2026-05-02T16:00:18.001Z</time></trkpt><trkpt lat="39.792918372210366" lon="8.649703406358826"><ele>23.0</ele><time>2026-05-02T16:00:19.001Z</time></trkpt><trkpt lat="39.79265682814091" lon="8.649842093196321"><ele>23.0</ele><time>2026-05-02T16:00:20.001Z</time></trkpt><trkpt lat="39.79239267202014" lon="8.649980931312273"><ele>23.0</ele><time>2026-05-02T16:00:21.001Z</time></trkpt><trkpt lat="39.792134364795004" lon="8.650116683046612"><ele>23.0</ele><time>2026-05-02T16:00:22.001Z</time></trkpt><trkpt lat="39.7918760911362" lon="8.650250506896075"><ele>23.5</ele><time>2026-05-02T16:00:23.001Z</time></trkpt><trkpt lat="39.79162327973845" lon="8.650384194491748"><ele>24.0</ele><time>2026-05-02T16:00:24.001Z</time></trkpt><trkpt lat="39.79136871472024" lon="8.650510221744215"><ele>24.0</ele><time>2026-05-02T16:00:25.001Z</time></trkpt><trkpt lat="39.7911152621029" lon="8.650638576070099"><ele>24.0</ele><time>2026-05-02T16:00:26.001Z</time></trkpt><trkpt lat="39.79085593314845" lon="8.65077125369028"><ele>23.5</ele><time>2026-05-02T16:00:27.001Z</time></trkpt><trkpt lat="39.79059405629684" lon="8.65090408009169"><ele>23.0</ele><time>2026-05-02T16:00:28.001Z</time></trkpt><trkpt lat="39.7903264788664" lon="8.651039097715753"><ele>24.5</ele><time>2026-05-02T16:00:29.001Z</time></trkpt><trkpt lat="39.790061962345824" lon="8.651173403252306"><ele>26.0</ele><time>2026-05-02T16:00:30.001Z</time></trkpt><trkpt lat="39.78979954390738" lon="8.651312482779947"><ele>26.0</ele><time>2026-05-02T16:00:31.001Z</time></trkpt><trkpt lat="39.7895319488601" lon="8.651448911662763"><ele>26.0</ele><time>2026-05-02T16:00:32.001Z</time></trkpt><trkpt lat="39.78925445315155" lon="8.651587782016389"><ele>26.5</ele><time>2026-05-02T16:00:33.001Z</time></trkpt><trkpt lat="39.788968023679146" lon="8.651729798685233"><ele>27.0</ele><time>2026-05-02T16:00:34.001Z</time></trkpt><trkpt lat="39.78868067908103" lon="8.65187626786908"><ele>27.5</ele><time>2026-05-02T16:00:35.001Z</time></trkpt><trkpt lat="39.788394998822525" lon="8.652023276212422"><ele>28.0</ele><time>2026-05-02T16:00:36.001Z</time></trkpt><trkpt lat="39.7881043461441" lon="8.652167151635613"><ele>28.0</ele><time>2026-05-02T16:00:37.001Z</time></trkpt><trkpt lat="39.78781709194133" lon="8.652310827612428"><ele>28.0</ele><time>2026-05-02T16:00:38.001Z</time></trkpt><trkpt lat="39.78753069519933" lon="8.652455363695262"><ele>28.0</ele><time>2026-05-02T16:00:39.001Z</time></trkpt><trkpt lat="39.78725024614188" lon="8.652596086446101"><ele>28.0</ele><time>2026-05-02T16:00:40.001Z</time></trkpt><trkpt lat="39.786981841509714" lon="8.652736449764689"><ele>28.5</ele><time>2026-05-02T16:00:41.001Z</time></trkpt><trkpt lat="39.78671897144738" lon="8.652880062997742"><ele>29.0</ele><time>2026-05-02T16:00:42.001Z</time></trkpt><trkpt lat="39.78645514137397" lon="8.653025171765265"><ele>29.0</ele><time>2026-05-02T16:00:43.001Z</time></trkpt><trkpt lat="39.786195160365715" lon="8.653168537418212"><ele>29.0</ele><time>2026-05-02T16:00:44.001Z</time></trkpt><trkpt lat="39.785934841791956" lon="8.653308777191528"><ele>29.0</ele><time>2026-05-02T16:00:45.002Z</time></trkpt><trkpt lat="39.78567790169689" lon="8.65344549658165"><ele>29.0</ele><time>2026-05-02T16:00:46.002Z</time></trkpt><trkpt lat="39.78541893788558" lon="8.653582563838357"><ele>29.5</ele><time>2026-05-02T16:00:47.002Z</time></trkpt><trkpt lat="39.78515686282559" lon="8.653726726824123"><ele>30.0</ele><time>2026-05-02T16:00:48.002Z</time></trkpt><trkpt lat="39.78489541808634" lon="8.653873666895246"><ele>30.0</ele><time>2026-05-02T16:00:49.002Z</time></trkpt><trkpt lat="39.784639607069266" lon="8.654018997135207"><ele>30.0</ele><time>2026-05-02T16:00:50.002Z</time></trkpt><trkpt lat="39.78436596602038" lon="8.654187698153034"><ele>30.0</ele><time>2026-05-02T16:00:51.002Z</time></trkpt><trkpt lat="39.78410356995616" lon="8.654326162967116"><ele>30.0</ele><time>2026-05-02T16:00:52.002Z</time></trkpt><trkpt lat="39.78383260937217" lon="8.654477380179523"><ele>30.0</ele><time>2026-05-02T16:00:53.002Z</time></trkpt><trkpt lat="39.783547391378676" lon="8.654635218842783"><ele>30.0</ele><time>2026-05-02T16:00:54.002Z</time></trkpt><trkpt lat="39.78326404630823" lon="8.654796411453276"><ele>30.5</ele><time>2026-05-02T16:00:55.002Z</time></trkpt><trkpt lat="39.7829778043169" lon="8.654964074375854"><ele>31.0</ele><time>2026-05-02T16:00:56.002Z</time></trkpt><trkpt lat="39.78268933546577" lon="8.655130234066062"><ele>30.5</ele><time>2026-05-02T16:00:57.002Z</time></trkpt><trkpt lat="39.78239616820323" lon="8.655294676141516"><ele>30.0</ele><time>2026-05-02T16:00:58.002Z</time></trkpt><trkpt lat="39.782105193483424" lon="8.655459616976021"><ele>31.0</ele><time>2026-05-02T16:00:59.002Z</time></trkpt><trkpt lat="39.78180878124946" lon="8.655627579225929"><ele>32.0</ele><time>2026-05-02T16:01:00.002Z</time></trkpt><trkpt lat="39.78151101973234" lon="8.655787144322415"><ele>32.0</ele><time>2026-05-02T16:01:01.002Z</time></trkpt><trkpt lat="39.7812140465341" lon="8.655952419541102"><ele>32.0</ele><time>2026-05-02T16:01:02.002Z</time></trkpt><trkpt lat="39.7809216403448" lon="8.656121039033911"><ele>32.5</ele><time>2026-05-02T16:01:03.002Z</time></trkpt><trkpt lat="39.780625227253594" lon="8.656294387709721"><ele>33.0</ele><time>2026-05-02T16:01:04.002Z</time></trkpt><trkpt lat="39.78032970171083" lon="8.65647451922786"><ele>32.0</ele><time>2026-05-02T16:01:05.002Z</time></trkpt><trkpt lat="39.780039168297826" lon="8.656658900048866"><ele>31.0</ele><time>2026-05-02T16:01:06.002Z</time></trkpt><trkpt lat="39.779755224407424" lon="8.656840743304588"><ele>31.5</ele><time>2026-05-02T16:01:07.002Z</time></trkpt><trkpt lat="39.77946441188018" lon="8.657025768922237"><ele>32.0</ele><time>2026-05-02T16:01:08.002Z</time></trkpt><trkpt lat="39.77917644073011" lon="8.65721094956814"><ele>32.0</ele><time>2026-05-02T16:01:09.002Z</time></trkpt><trkpt lat="39.77888730659847" lon="8.657394053346216"><ele>32.0</ele><time>2026-05-02T16:01:10.001Z</time></trkpt><trkpt lat="39.77860168933483" lon="8.657575636462681"><ele>32.0</ele><time>2026-05-02T16:01:11.001Z</time></trkpt><trkpt lat="39.778312923405544" lon="8.657763918530252"><ele>32.0</ele><time>2026-05-02T16:01:12.001Z</time></trkpt><trkpt lat="39.778017785928505" lon="8.657954789026478"><ele>33.0</ele><time>2026-05-02T16:01:13.001Z</time></trkpt><trkpt lat="39.777720637683444" lon="8.658145855492247"><ele>34.0</ele><time>2026-05-02T16:01:14.001Z</time></trkpt><trkpt lat="39.77741816170115" lon="8.658338370147762"><ele>34.5</ele><time>2026-05-02T16:01:15.001Z</time></trkpt><trkpt lat="39.777117121364384" lon="8.658524167407187"><ele>35.0</ele><time>2026-05-02T16:01:16.001Z</time></trkpt><trkpt lat="39.77681131059843" lon="8.658711522026781"><ele>35.5</ele><time>2026-05-02T16:01:17.001Z</time></trkpt><trkpt lat="39.77649544044255" lon="8.65890097813213"><ele>36.0</ele><time>2026-05-02T16:01:18.001Z</time></trkpt><trkpt lat="39.77616909537388" lon="8.659085283828228"><ele>36.0</ele><time>2026-05-02T16:01:19.001Z</time></trkpt><trkpt lat="39.77582184568789" lon="8.659279575459305"><ele>36.0</ele><time>2026-05-02T16:01:20.001Z</time></trkpt><trkpt lat="39.77545069315759" lon="8.659475473184507"><ele>35.5</ele><time>2026-05-02T16:01:21.001Z</time></trkpt><trkpt lat="39.77505484131791" lon="8.659675663786757"><ele>35.0</ele><time>2026-05-02T16:01:22.001Z</time></trkpt><trkpt lat="39.77466007528613" lon="8.65988505320451"><ele>35.0</ele><time>2026-05-02T16:01:23.001Z</time></trkpt><trkpt lat="39.77425924548883" lon="8.660097299061148"><ele>35.0</ele><time>2026-05-02T16:01:24.001Z</time></trkpt><trkpt lat="39.77385306205601" lon="8.660312730595228"><ele>35.0</ele><time>2026-05-02T16:01:25.001Z</time></trkpt><trkpt lat="39.77343540834484" lon="8.66052563828435"><ele>35.0</ele><time>2026-05-02T16:01:26.001Z</time></trkpt><trkpt lat="39.77302256210531" lon="8.660734727226066"><ele>35.0</ele><time>2026-05-02T16:01:27.001Z</time></trkpt><trkpt lat="39.77263705586275" lon="8.660931948602153"><ele>35.0</ele><time>2026-05-02T16:01:28.001Z</time></trkpt><trkpt lat="39.772273726789514" lon="8.661119955790145"><ele>35.0</ele><time>2026-05-02T16:01:29.001Z</time></trkpt><trkpt lat="39.77192821140359" lon="8.661299179107234"><ele>35.0</ele><time>2026-05-02T16:01:30.001Z</time></trkpt><trkpt lat="39.771584972372665" lon="8.66147009009216"><ele>35.5</ele><time>2026-05-02T16:01:31.001Z</time></trkpt><trkpt lat="39.77124351259872" lon="8.661646805421572"><ele>36.0</ele><time>2026-05-02T16:01:32.001Z</time></trkpt><trkpt lat="39.77091018774346" lon="8.661822869663881"><ele>35.0</ele><time>2026-05-02T16:01:33.001Z</time></trkpt><trkpt lat="39.77058301159429" lon="8.661997973060403"><ele>34.0</ele><time>2026-05-02T16:01:34.001Z</time></trkpt><trkpt lat="39.77025866389962" lon="8.662178766943493"><ele>34.0</ele><time>2026-05-02T16:01:35.001Z</time></trkpt><trkpt lat="39.76993880457413" lon="8.662349058983345"><ele>34.0</ele><time>2026-05-02T16:01:36.001Z</time></trkpt><trkpt lat="39.769619122993014" lon="8.662523706402174"><ele>34.0</ele><time>2026-05-02T16:01:37.001Z</time></trkpt><trkpt lat="39.76929767899085" lon="8.662699542159391"><ele>34.0</ele><time>2026-05-02T16:01:38.001Z</time></trkpt><trkpt lat="39.76897603533667" lon="8.662875211993835"><ele>34.5</ele><time>2026-05-02T16:01:39.001Z</time></trkpt><trkpt lat="39.76865008124204" lon="8.663054176836672"><ele>35.0</ele><time>2026-05-02T16:01:40.001Z</time></trkpt><trkpt lat="39.768318938086246" lon="8.663229314566577"><ele>35.0</ele><time>2026-05-02T16:01:41.001Z</time></trkpt><trkpt lat="39.767985085002195" lon="8.663407203629328"><ele>35.0</ele><time>2026-05-02T16:01:42.001Z</time></trkpt><trkpt lat="39.76764870317029" lon="8.663584414909831"><ele>34.5</ele><time>2026-05-02T16:01:43.001Z</time></trkpt><trkpt lat="39.76731605254583" lon="8.663761994316284"><ele>34.0</ele><time>2026-05-02T16:01:44.001Z</time></trkpt><trkpt lat="39.76698619479184" lon="8.663939698844622"><ele>35.0</ele><time>2026-05-02T16:01:45.001Z</time></trkpt><trkpt lat="39.766658179672405" lon="8.664118160991444"><ele>36.0</ele><time>2026-05-02T16:01:46.001Z</time></trkpt><trkpt lat="39.7663264328303" lon="8.664298395927833"><ele>36.0</ele><time>2026-05-02T16:01:47.001Z</time></trkpt><trkpt lat="39.76599450843473" lon="8.664467477467294"><ele>36.0</ele><time>2026-05-02T16:01:48.001Z</time></trkpt><trkpt lat="39.765658202463115" lon="8.664634555977976"><ele>36.0</ele><time>2026-05-02T16:01:49.001Z</time></trkpt><trkpt lat="39.76532989472581" lon="8.664798287634593"><ele>36.0</ele><time>2026-05-02T16:01:50.001Z</time></trkpt><trkpt lat="39.76500127622825" lon="8.664980945912484"><ele>36.0</ele><time>2026-05-02T16:01:51.001Z</time></trkpt><trkpt lat="39.76467273933982" lon="8.665156498310116"><ele>36.0</ele><time>2026-05-02T16:01:52.001Z</time></trkpt><trkpt lat="39.764348845431456" lon="8.665330791347971"><ele>36.5</ele><time>2026-05-02T16:01:53.001Z</time></trkpt><trkpt lat="39.764025612485646" lon="8.665497838332433"><ele>37.0</ele><time>2026-05-02T16:01:54.001Z</time></trkpt><trkpt lat="39.7637076507121" lon="8.665670119614822"><ele>37.5</ele><time>2026-05-02T16:01:55.001Z</time></trkpt><trkpt lat="39.76339395985415" lon="8.665838276375444"><ele>38.0</ele><time>2026-05-02T16:01:56.001Z</time></trkpt><trkpt lat="39.763078920899744" lon="8.666012380284585"><ele>38.5</ele><time>2026-05-02T16:01:57.001Z</time></trkpt><trkpt lat="39.76276782692528" lon="8.666181670712561"><ele>39.0</ele><time>2026-05-02T16:01:58.001Z</time></trkpt><trkpt lat="39.762463196751256" lon="8.666347957047567"><ele>39.0</ele><time>2026-05-02T16:01:59.001Z</time></trkpt><trkpt lat="39.76216934385553" lon="8.666507692439799"><ele>39.0</ele><time>2026-05-02T16:02:00.001Z</time></trkpt><trkpt lat="39.761877865850764" lon="8.66666490188648"><ele>39.5</ele><time>2026-05-02T16:02:01.001Z</time></trkpt><trkpt lat="39.76158354504482" lon="8.666824465299884"><ele>40.0</ele><time>2026-05-02T16:02:02.001Z</time></trkpt><trkpt lat="39.76129361660856" lon="8.666980251637831"><ele>40.5</ele><time>2026-05-02T16:02:03.001Z</time></trkpt><trkpt lat="39.76099954225727" lon="8.667135063475742"><ele>41.0</ele><time>2026-05-02T16:02:04.001Z</time></trkpt><trkpt lat="39.7607009231078" lon="8.667292851020513"><ele>41.0</ele><time>2026-05-02T16:02:05.001Z</time></trkpt><trkpt lat="39.76039888770347" lon="8.667456123403914"><ele>41.0</ele><time>2026-05-02T16:02:06.001Z</time></trkpt><trkpt lat="39.76010335257214" lon="8.66763199278586"><ele>41.5</ele><time>2026-05-02T16:02:07.001Z</time></trkpt><trkpt lat="39.75979135866655" lon="8.66780587486611"><ele>42.0</ele><time>2026-05-02T16:02:08.001Z</time></trkpt><trkpt lat="39.75947696359321" lon="8.667979990257729"><ele>42.0</ele><time>2026-05-02T16:02:09.001Z</time></trkpt><trkpt lat="39.759155317251" lon="8.668163025647317"><ele>42.0</ele><time>2026-05-02T16:02:10.001Z</time></trkpt><trkpt lat="39.75882670069193" lon="8.668353284651074"><ele>43.0</ele><time>2026-05-02T16:02:11.001Z</time></trkpt><trkpt lat="39.75848534147736" lon="8.66853855944933"><ele>44.0</ele><time>2026-05-02T16:02:12.001Z</time></trkpt><trkpt lat="39.75813935937573" lon="8.66871836897031"><ele>44.0</ele><time>2026-05-02T16:02:13.001Z</time></trkpt><trkpt lat="39.757799048194265" lon="8.668896704796769"><ele>44.0</ele><time>2026-05-02T16:02:14.001Z</time></trkpt><trkpt lat="39.75744779881539" lon="8.669076900644308"><ele>44.5</ele><time>2026-05-02T16:02:15.001Z</time></trkpt><trkpt lat="39.75709792487842" lon="8.669256298899983"><ele>45.0</ele><time>2026-05-02T16:02:16.001Z</time></trkpt><trkpt lat="39.75675074592245" lon="8.669432587596706"><ele>45.5</ele><time>2026-05-02T16:02:17.001Z</time></trkpt><trkpt lat="39.75640107468906" lon="8.669612950421122"><ele>46.0</ele><time>2026-05-02T16:02:18.001Z</time></trkpt><trkpt lat="39.75605147476964" lon="8.669797126325168"><ele>45.5</ele><time>2026-05-02T16:02:19.001Z</time></trkpt><trkpt lat="39.75570461568073" lon="8.669977550050637"><ele>45.0</ele><time>2026-05-02T16:02:20.001Z</time></trkpt><trkpt lat="39.75536006781861" lon="8.670154965015353"><ele>46.0</ele><time>2026-05-02T16:02:21.001Z</time></trkpt><trkpt lat="39.75501649398629" lon="8.670331260590297"><ele>47.0</ele><time>2026-05-02T16:02:22.001Z</time></trkpt><trkpt lat="39.75467682062445" lon="8.67050589693246"><ele>47.0</ele><time>2026-05-02T16:02:23.001Z</time></trkpt><trkpt lat="39.754339860681085" lon="8.670680179658381"><ele>47.0</ele><time>2026-05-02T16:02:24.001Z</time></trkpt><trkpt lat="39.754000591964285" lon="8.670853219278424"><ele>47.0</ele><time>2026-05-02T16:02:25.001Z</time></trkpt><trkpt lat="39.753661305149706" lon="8.671026296964039"><ele>47.0</ele><time>2026-05-02T16:02:26.001Z</time></trkpt><trkpt lat="39.7533297627824" lon="8.671198253443288"><ele>47.0</ele><time>2026-05-02T16:02:27.001Z</time></trkpt><trkpt lat="39.7529987148067" lon="8.671369161329556"><ele>47.0</ele><time>2026-05-02T16:02:28.001Z</time></trkpt><trkpt lat="39.75266901934364" lon="8.67154285827346"><ele>47.0</ele><time>2026-05-02T16:02:29.001Z</time></trkpt><trkpt lat="39.752341164852794" lon="8.67171573781075"><ele>47.0</ele><time>2026-05-02T16:02:30.001Z</time></trkpt><trkpt lat="39.7520096671363" lon="8.671883404793135"><ele>47.0</ele><time>2026-05-02T16:02:31.001Z</time></trkpt><trkpt lat="39.75167832198286" lon="8.67205258768352"><ele>47.0</ele><time>2026-05-02T16:02:32.001Z</time></trkpt><trkpt lat="39.75134433144959" lon="8.672222948919686"><ele>46.0</ele><time>2026-05-02T16:02:33.001Z</time></trkpt><trkpt lat="39.75100663589895" lon="8.67239695966926"><ele>45.0</ele><time>2026-05-02T16:02:34.001Z</time></trkpt><trkpt lat="39.75066972267665" lon="8.67257589664363"><ele>45.0</ele><time>2026-05-02T16:02:35.001Z</time></trkpt><trkpt lat="39.75033666178953" lon="8.672758738022457"><ele>45.0</ele><time>2026-05-02T16:02:36.001Z</time></trkpt><trkpt lat="39.750002966218716" lon="8.672949430128172"><ele>46.0</ele><time>2026-05-02T16:02:37.001Z</time></trkpt><trkpt lat="39.749673354128284" lon="8.673144297241862"><ele>47.0</ele><time>2026-05-02T16:02:38.001Z</time></trkpt><trkpt lat="39.74934389301125" lon="8.673336977518671"><ele>47.0</ele><time>2026-05-02T16:02:39.001Z</time></trkpt><trkpt lat="39.74901447819158" lon="8.673528246224748"><ele>47.0</ele><time>2026-05-02T16:02:40.001Z</time></trkpt><trkpt lat="39.748688808070355" lon="8.673712877397875"><ele>47.0</ele><time>2026-05-02T16:02:41.001Z</time></trkpt><trkpt lat="39.74835592625941" lon="8.67390977693436"><ele>47.0</ele><time>2026-05-02T16:02:42.001Z</time></trkpt><trkpt lat="39.748024737500565" lon="8.674102127152725"><ele>47.0</ele><time>2026-05-02T16:02:43.001Z</time></trkpt><trkpt lat="39.74768614567944" lon="8.674301229477194"><ele>47.0</ele><time>2026-05-02T16:02:44.001Z</time></trkpt><trkpt lat="39.74735165330049" lon="8.67449996828397"><ele>47.0</ele><time>2026-05-02T16:02:45.001Z</time></trkpt><trkpt lat="39.74701591930469" lon="8.674705740198219"><ele>47.0</ele><time>2026-05-02T16:02:46.001Z</time></trkpt><trkpt lat="39.746678623050215" lon="8.674903275112287"><ele>47.0</ele><time>2026-05-02T16:02:47.001Z</time></trkpt><trkpt lat="39.746342839380674" lon="8.675092913491715"><ele>47.0</ele><time>2026-05-02T16:02:48.001Z</time></trkpt><trkpt lat="39.74600608549417" lon="8.675280611345789"><ele>48.0</ele><time>2026-05-02T16:02:49.001Z</time></trkpt><trkpt lat="39.74567089012774" lon="8.67546644770123"><ele>49.0</ele><time>2026-05-02T16:02:50.001Z</time></trkpt><trkpt lat="39.74533535603144" lon="8.675643072024766"><ele>47.5</ele><time>2026-05-02T16:02:51.001Z</time></trkpt><trkpt lat="39.7449984831129" lon="8.67582253587564"><ele>46.0</ele><time>2026-05-02T16:02:52.001Z</time></trkpt><trkpt lat="39.74466082078508" lon="8.676004187574712"><ele>46.5</ele><time>2026-05-02T16:02:53.001Z</time></trkpt><trkpt lat="39.7443262774405" lon="8.67618034164542"><ele>47.0</ele><time>2026-05-02T16:02:54.001Z</time></trkpt><trkpt lat="39.74399091805585" lon="8.676357567746289"><ele>47.0</ele><time>2026-05-02T16:02:55.001Z</time></trkpt><trkpt lat="39.74365432841759" lon="8.676538006576111"><ele>47.0</ele><time>2026-05-02T16:02:56.001Z</time></trkpt><trkpt lat="39.7433182977324" lon="8.676714187413305"><ele>46.5</ele><time>2026-05-02T16:02:57.001Z</time></trkpt><trkpt lat="39.7429830491293" lon="8.676889558468703"><ele>46.0</ele><time>2026-05-02T16:02:58.001Z</time></trkpt><trkpt lat="39.7426438302759" lon="8.677061677417353"><ele>45.5</ele><time>2026-05-02T16:02:59.001Z</time></trkpt><trkpt lat="39.7423022516291" lon="8.67722690467493"><ele>45.0</ele><time>2026-05-02T16:03:00.001Z</time></trkpt><trkpt lat="39.74196282444979" lon="8.67739882591011"><ele>44.5</ele><time>2026-05-02T16:03:01.001Z</time></trkpt><trkpt lat="39.741622126018235" lon="8.677575355569473"><ele>44.0</ele><time>2026-05-02T16:03:02.001Z</time></trkpt><trkpt lat="39.7412886317628" lon="8.677755250772094"><ele>44.5</ele><time>2026-05-02T16:03:03.001Z</time></trkpt><trkpt lat="39.74095245874086" lon="8.677939325900287"><ele>45.0</ele><time>2026-05-02T16:03:04.001Z</time></trkpt><trkpt lat="39.740613362029215" lon="8.67812041055963"><ele>45.0</ele><time>2026-05-02T16:03:05.001Z</time></trkpt><trkpt lat="39.740276396004774" lon="8.678300288783028"><ele>45.0</ele><time>2026-05-02T16:03:06.001Z</time></trkpt><trkpt lat="39.73993838259155" lon="8.678481272999237"><ele>45.0</ele><time>2026-05-02T16:03:07.001Z</time></trkpt><trkpt lat="39.73960172986474" lon="8.678656668255146"><ele>45.0</ele><time>2026-05-02T16:03:08.001Z</time></trkpt><trkpt lat="39.73926711322043" lon="8.67883344774607"><ele>44.5</ele><time>2026-05-02T16:03:09.001Z</time></trkpt><trkpt lat="39.738932015676795" lon="8.679011800545435"><ele>44.0</ele><time>2026-05-02T16:03:10.001Z</time></trkpt><trkpt lat="39.738594815080326" lon="8.679189209871389"><ele>45.0</ele><time>2026-05-02T16:03:11.001Z</time></trkpt><trkpt lat="39.738255988165776" lon="8.679363468653195"><ele>46.0</ele><time>2026-05-02T16:03:12.001Z</time></trkpt><trkpt lat="39.737925936700535" lon="8.679540154671201"><ele>45.5</ele><time>2026-05-02T16:03:13.001Z</time></trkpt><trkpt lat="39.73758740910412" lon="8.679719639326775"><ele>45.0</ele><time>2026-05-02T16:03:14.001Z</time></trkpt><trkpt lat="39.73725156213434" lon="8.679895510618362"><ele>45.0</ele><time>2026-05-02T16:03:15.001Z</time></trkpt><trkpt lat="39.73691697093526" lon="8.680073492300838"><ele>45.0</ele><time>2026-05-02T16:03:16.001Z</time></trkpt><trkpt lat="39.73658163835809" lon="8.680252541347166"><ele>45.5</ele><time>2026-05-02T16:03:17.001Z</time></trkpt><trkpt lat="39.73624579715958" lon="8.680435908644302"><ele>46.0</ele><time>2026-05-02T16:03:18.001Z</time></trkpt><trkpt lat="39.735911048270495" lon="8.680619234512518"><ele>46.0</ele><time>2026-05-02T16:03:19.001Z</time></trkpt><trkpt lat="39.735576074969764" lon="8.680802140659305"><ele>46.0</ele><time>2026-05-02T16:03:20.001Z</time></trkpt><trkpt lat="39.73524084326583" lon="8.68097975760483"><ele>46.0</ele><time>2026-05-02T16:03:21.001Z</time></trkpt><trkpt lat="39.734904758180264" lon="8.681155480359736"><ele>46.0</ele><time>2026-05-02T16:03:22.001Z</time></trkpt><trkpt lat="39.73456896907995" lon="8.681329837541067"><ele>46.5</ele><time>2026-05-02T16:03:23.001Z</time></trkpt><trkpt lat="39.734231350252706" lon="8.681510505562569"><ele>47.0</ele><time>2026-05-02T16:03:24.001Z</time></trkpt><trkpt lat="39.7338947056415" lon="8.681688246905193"><ele>47.0</ele><time>2026-05-02T16:03:25.001Z</time></trkpt><trkpt lat="39.73355889215932" lon="8.681872004043022"><ele>47.0</ele><time>2026-05-02T16:03:26.001Z</time></trkpt><trkpt lat="39.73322594945504" lon="8.682053304409845"><ele>47.5</ele><time>2026-05-02T16:03:27.001Z</time></trkpt><trkpt lat="39.732890918426136" lon="8.682242826421504"><ele>48.0</ele><time>2026-05-02T16:03:28.001Z</time></trkpt><trkpt lat="39.73255585411713" lon="8.68243379062431"><ele>48.0</ele><time>2026-05-02T16:03:29.001Z</time></trkpt><trkpt lat="39.732214832797844" lon="8.682631357715842"><ele>48.0</ele><time>2026-05-02T16:03:30.001Z</time></trkpt><trkpt lat="39.73187256344308" lon="8.68282463867024"><ele>49.0</ele><time>2026-05-02T16:03:31.001Z</time></trkpt><trkpt lat="39.73152503889078" lon="8.683016535797904"><ele>50.0</ele><time>2026-05-02T16:03:32.001Z</time></trkpt><trkpt lat="39.73117765518134" lon="8.6832085150455"><ele>48.5</ele><time>2026-05-02T16:03:33.001Z</time></trkpt><trkpt lat="39.73082272200792" lon="8.683404998891705"><ele>47.0</ele><time>2026-05-02T16:03:34.001Z</time></trkpt><trkpt lat="39.73047094814343" lon="8.683593921417641"><ele>47.0</ele><time>2026-05-02T16:03:35.001Z</time></trkpt><trkpt lat="39.730113887659535" lon="8.683789940354103"><ele>47.0</ele><time>2026-05-02T16:03:36.001Z</time></trkpt><trkpt lat="39.72975546430935" lon="8.683982860788152"><ele>47.0</ele><time>2026-05-02T16:03:37.001Z</time></trkpt><trkpt lat="39.72940170887664" lon="8.684175515767917"><ele>47.0</ele><time>2026-05-02T16:03:38.001Z</time></trkpt><trkpt lat="39.72904337216656" lon="8.684374153099082"><ele>47.0</ele><time>2026-05-02T16:03:39.001Z</time></trkpt><trkpt lat="39.72868383527121" lon="8.684571522381821"><ele>47.0</ele><time>2026-05-02T16:03:40Z</time></trkpt><trkpt lat="39.72832181569791" lon="8.684774990092027"><ele>46.5</ele><time>2026-05-02T16:03:41Z</time></trkpt><trkpt lat="39.727960616966094" lon="8.684975191180696"><ele>46.0</ele><time>2026-05-02T16:03:42Z</time></trkpt><trkpt lat="39.727596029018116" lon="8.685177534069071"><ele>45.0</ele><time>2026-05-02T16:03:43Z</time></trkpt><trkpt lat="39.72723746272968" lon="8.68537949816635"><ele>44.0</ele><time>2026-05-02T16:03:44Z</time></trkpt><trkpt lat="39.726878156228636" lon="8.685578685227917"><ele>44.0</ele><time>2026-05-02T16:03:45Z</time></trkpt><trkpt lat="39.726518243325614" lon="8.68577302609804"><ele>44.0</ele><time>2026-05-02T16:03:46Z</time></trkpt><trkpt lat="39.72615825691442" lon="8.68596476129123"><ele>42.5</ele><time>2026-05-02T16:03:47Z</time></trkpt><trkpt lat="39.72579917918672" lon="8.686156300485457"><ele>41.0</ele><time>2026-05-02T16:03:48Z</time></trkpt><trkpt lat="39.72544077922704" lon="8.686341279799981"><ele>40.5</ele><time>2026-05-02T16:03:49Z</time></trkpt><trkpt lat="39.72508255744998" lon="8.68653118699318"><ele>40.0</ele><time>2026-05-02T16:03:50Z</time></trkpt><trkpt lat="39.72472414456459" lon="8.686716520596683"><ele>39.5</ele><time>2026-05-02T16:03:51Z</time></trkpt><trkpt lat="39.72436354033169" lon="8.686906963121949"><ele>39.0</ele><time>2026-05-02T16:03:52Z</time></trkpt><trkpt lat="39.72400726184529" lon="8.687095424269618"><ele>39.0</ele><time>2026-05-02T16:03:53Z</time></trkpt><trkpt lat="39.723648664530806" lon="8.687288967115672"><ele>39.0</ele><time>2026-05-02T16:03:54Z</time></trkpt><trkpt lat="39.723288538757764" lon="8.68748044373535"><ele>38.5</ele><time>2026-05-02T16:03:55Z</time></trkpt><trkpt lat="39.72292902999696" lon="8.687668989633355"><ele>38.0</ele><time>2026-05-02T16:03:56Z</time></trkpt><trkpt lat="39.722571031322786" lon="8.687854404590663"><ele>37.5</ele><time>2026-05-02T16:03:57Z</time></trkpt><trkpt lat="39.72220995781488" lon="8.688039538866128"><ele>37.0</ele><time>2026-05-02T16:03:58Z</time></trkpt><trkpt lat="39.72184602632609" lon="8.688228659161517"><ele>36.5</ele><time>2026-05-02T16:03:59Z</time></trkpt><trkpt lat="39.721484273801074" lon="8.68841484345936"><ele>36.0</ele><time>2026-05-02T16:04:00Z</time></trkpt><trkpt lat="39.72112240445176" lon="8.688603331812308"><ele>34.5</ele><time>2026-05-02T16:04:01Z</time></trkpt><trkpt lat="39.72075851230525" lon="8.6887875776052"><ele>33.0</ele><time>2026-05-02T16:04:02Z</time></trkpt><trkpt lat="39.72039740191318" lon="8.688972563406256"><ele>32.5</ele><time>2026-05-02T16:04:03Z</time></trkpt><trkpt lat="39.72003637008536" lon="8.68915524970099"><ele>32.0</ele><time>2026-05-02T16:04:04Z</time></trkpt><trkpt lat="39.71967704397624" lon="8.689343422377863"><ele>32.5</ele><time>2026-05-02T16:04:05Z</time></trkpt><trkpt lat="39.71932055121384" lon="8.689529247811597"><ele>33.0</ele><time>2026-05-02T16:04:06Z</time></trkpt><trkpt lat="39.7189625606318" lon="8.689720376666134"><ele>33.0</ele><time>2026-05-02T16:04:07Z</time></trkpt><trkpt lat="39.71860462509499" lon="8.689913880016181"><ele>33.0</ele><time>2026-05-02T16:04:08Z</time></trkpt><trkpt lat="39.71824569914455" lon="8.690102468828115"><ele>33.0</ele><time>2026-05-02T16:04:09.001Z</time></trkpt><trkpt lat="39.717885467937904" lon="8.690293196241935"><ele>33.0</ele><time>2026-05-02T16:04:10.001Z</time></trkpt><trkpt lat="39.71753581947936" lon="8.690481235521764"><ele>31.5</ele><time>2026-05-02T16:04:11.001Z</time></trkpt><trkpt lat="39.71719649245737" lon="8.690663447197391"><ele>30.0</ele><time>2026-05-02T16:04:12.001Z</time></trkpt><trkpt lat="39.71686030442909" lon="8.690846429919517"><ele>30.0</ele><time>2026-05-02T16:04:13.001Z</time></trkpt><trkpt lat="39.71653078487863" lon="8.691027307724939"><ele>30.0</ele><time>2026-05-02T16:04:14.001Z</time></trkpt><trkpt lat="39.716204345855026" lon="8.691200548725675"><ele>29.0</ele><time>2026-05-02T16:04:15.001Z</time></trkpt><trkpt lat="39.7158776814397" lon="8.691371009058987"><ele>28.0</ele><time>2026-05-02T16:04:16.001Z</time></trkpt><trkpt lat="39.71555008808938" lon="8.691546979377279"><ele>27.0</ele><time>2026-05-02T16:04:17.001Z</time></trkpt><trkpt lat="39.71521868066305" lon="8.691723402050986"><ele>26.0</ele><time>2026-05-02T16:04:18.001Z</time></trkpt><trkpt lat="39.71488330739869" lon="8.691902848516527"><ele>26.5</ele><time>2026-05-02T16:04:19.001Z</time></trkpt><trkpt lat="39.714549130827145" lon="8.692083328446078"><ele>27.0</ele><time>2026-05-02T16:04:20.001Z</time></trkpt><trkpt lat="39.714221191745885" lon="8.692261715915398"><ele>26.0</ele><time>2026-05-02T16:04:21.001Z</time></trkpt><trkpt lat="39.713889950986776" lon="8.692441624055114"><ele>25.0</ele><time>2026-05-02T16:04:22.001Z</time></trkpt><trkpt lat="39.71356347402962" lon="8.692624518281765"><ele>25.5</ele><time>2026-05-02T16:04:23.001Z</time></trkpt><trkpt lat="39.71323735259687" lon="8.692813194728753"><ele>26.0</ele><time>2026-05-02T16:04:24.001Z</time></trkpt><trkpt lat="39.71291365097073" lon="8.693012401056945"><ele>26.0</ele><time>2026-05-02T16:04:25.001Z</time></trkpt><trkpt lat="39.712596784697126" lon="8.693218228395168"><ele>26.0</ele><time>2026-05-02T16:04:26.001Z</time></trkpt><trkpt lat="39.71228225090205" lon="8.693432463060473"><ele>26.0</ele><time>2026-05-02T16:04:27.001Z</time></trkpt><trkpt lat="39.711973292038465" lon="8.693660060516654"><ele>26.0</ele><time>2026-05-02T16:04:28.001Z</time></trkpt><trkpt lat="39.7116680699595" lon="8.693898733446181"><ele>25.0</ele><time>2026-05-02T16:04:29.001Z</time></trkpt><trkpt lat="39.71137183982661" lon="8.694152069089125"><ele>24.0</ele><time>2026-05-02T16:04:30.001Z</time></trkpt><trkpt lat="39.71107715651259" lon="8.694414697945634"><ele>24.5</ele><time>2026-05-02T16:04:31.001Z</time></trkpt><trkpt lat="39.710789544757866" lon="8.694685466093624"><ele>25.0</ele><time>2026-05-02T16:04:32.001Z</time></trkpt><trkpt lat="39.71050831162039" lon="8.694970482913442"><ele>24.0</ele><time>2026-05-02T16:04:33.001Z</time></trkpt><trkpt lat="39.7102331601081" lon="8.695265287327697"><ele>23.0</ele><time>2026-05-02T16:04:34.001Z</time></trkpt><trkpt lat="39.70996563890579" lon="8.695566473070775"><ele>23.0</ele><time>2026-05-02T16:04:35.001Z</time></trkpt><trkpt lat="39.70970666619897" lon="8.695873807342165"><ele>23.0</ele><time>2026-05-02T16:04:36.001Z</time></trkpt><trkpt lat="39.7094579504807" lon="8.696188409947469"><ele>23.0</ele><time>2026-05-02T16:04:37.001Z</time></trkpt><trkpt lat="39.7092183610309" lon="8.696514072405563"><ele>23.0</ele><time>2026-05-02T16:04:38.001Z</time></trkpt><trkpt lat="39.7089824262813" lon="8.69685043224943"><ele>24.0</ele><time>2026-05-02T16:04:39.001Z</time></trkpt><trkpt lat="39.70875438725606" lon="8.69719096625474"><ele>25.0</ele><time>2026-05-02T16:04:40.001Z</time></trkpt><trkpt lat="39.70853272311093" lon="8.697537011410402"><ele>25.0</ele><time>2026-05-02T16:04:41.001Z</time></trkpt><trkpt lat="39.708320974151405" lon="8.697889220723551"><ele>25.0</ele><time>2026-05-02T16:04:42.001Z</time></trkpt><trkpt lat="39.70811607039899" lon="8.698255219116652"><ele>24.5</ele><time>2026-05-02T16:04:43.001Z</time></trkpt><trkpt lat="39.70791888439445" lon="8.698624058190765"><ele>24.0</ele><time>2026-05-02T16:04:44.001Z</time></trkpt><trkpt lat="39.70772470933313" lon="8.699000110764844"><ele>24.0</ele><time>2026-05-02T16:04:45.001Z</time></trkpt><trkpt lat="39.70753184873633" lon="8.699382253314312"><ele>24.0</ele><time>2026-05-02T16:04:46.001Z</time></trkpt><trkpt lat="39.7073411890301" lon="8.699760471188823"><ele>24.0</ele><time>2026-05-02T16:04:47.001Z</time></trkpt><trkpt lat="39.70714568920144" lon="8.700149781187964"><ele>24.0</ele><time>2026-05-02T16:04:48.001Z</time></trkpt><trkpt lat="39.706961720859" lon="8.70053057402287"><ele>23.0</ele><time>2026-05-02T16:04:49.001Z</time></trkpt><trkpt lat="39.706771192943755" lon="8.700922932265547"><ele>22.0</ele><time>2026-05-02T16:04:50.001Z</time></trkpt><trkpt lat="39.70657940226843" lon="8.701311283651826"><ele>22.0</ele><time>2026-05-02T16:04:51.001Z</time></trkpt><trkpt lat="39.7063863183874" lon="8.701692327526384"><ele>22.0</ele><time>2026-05-02T16:04:52.001Z</time></trkpt><trkpt lat="39.70619357801636" lon="8.702061924212458"><ele>23.0</ele><time>2026-05-02T16:04:53.001Z</time></trkpt><trkpt lat="39.70599752792735" lon="8.702429932833974"><ele>24.0</ele><time>2026-05-02T16:04:54.001Z</time></trkpt><trkpt lat="39.70579183336659" lon="8.702794304376749"><ele>25.5</ele><time>2026-05-02T16:04:55.001Z</time></trkpt><trkpt lat="39.705579390292826" lon="8.703148925274583"><ele>27.0</ele><time>2026-05-02T16:04:56.001Z</time></trkpt><trkpt lat="39.705353695289155" lon="8.703495584205081"><ele>27.0</ele><time>2026-05-02T16:04:57.001Z</time></trkpt><trkpt lat="39.70511925481714" lon="8.703835542741968"><ele>27.0</ele><time>2026-05-02T16:04:58.001Z</time></trkpt><trkpt lat="39.7048720760601" lon="8.70416488570261"><ele>27.5</ele><time>2026-05-02T16:04:59.001Z</time></trkpt><trkpt lat="39.70461528710407" lon="8.704484656999922"><ele>28.0</ele><time>2026-05-02T16:05:00.001Z</time></trkpt><trkpt lat="39.70435031322876" lon="8.70480346691299"><ele>28.0</ele><time>2026-05-02T16:05:01.001Z</time></trkpt><trkpt lat="39.70407862873213" lon="8.70511555427661"><ele>28.0</ele><time>2026-05-02T16:05:02.001Z</time></trkpt><trkpt lat="39.70380112770858" lon="8.70542005775242"><ele>29.5</ele><time>2026-05-02T16:05:03.001Z</time></trkpt><trkpt lat="39.703515881913724" lon="8.705722170660794"><ele>31.0</ele><time>2026-05-02T16:05:04.001Z</time></trkpt><trkpt lat="39.70322158129097" lon="8.706012095613403"><ele>30.5</ele><time>2026-05-02T16:05:05.001Z</time></trkpt><trkpt lat="39.70291297192761" lon="8.70628993975473"><ele>30.0</ele><time>2026-05-02T16:05:06.001Z</time></trkpt><trkpt lat="39.702596602405016" lon="8.706560444492629"><ele>30.5</ele><time>2026-05-02T16:05:07.001Z</time></trkpt><trkpt lat="39.702269821697605" lon="8.706812384466545"><ele>31.0</ele><time>2026-05-02T16:05:08.001Z</time></trkpt><trkpt lat="39.70193972915333" lon="8.707056113889347"><ele>31.5</ele><time>2026-05-02T16:05:09.001Z</time></trkpt><trkpt lat="39.70159648398543" lon="8.707289368692214"><ele>32.0</ele><time>2026-05-02T16:05:10.001Z</time></trkpt><trkpt lat="39.701249819292585" lon="8.707502730786635"><ele>32.0</ele><time>2026-05-02T16:05:11.001Z</time></trkpt><trkpt lat="39.70089330364832" lon="8.707702686461461"><ele>32.0</ele><time>2026-05-02T16:05:12.001Z</time></trkpt><trkpt lat="39.70052877515884" lon="8.707893588556058"><ele>32.0</ele><time>2026-05-02T16:05:13.001Z</time></trkpt><trkpt lat="39.70015771586039" lon="8.708068746558745"><ele>32.0</ele><time>2026-05-02T16:05:14.001Z</time></trkpt><trkpt lat="39.699784525330536" lon="8.708230848990919"><ele>31.5</ele><time>2026-05-02T16:05:15.001Z</time></trkpt><trkpt lat="39.69941039052934" lon="8.708390090070722"><ele>31.0</ele><time>2026-05-02T16:05:16.001Z</time></trkpt><trkpt lat="39.69903786068796" lon="8.708556870319757"><ele>31.5</ele><time>2026-05-02T16:05:17.001Z</time></trkpt><trkpt lat="39.698671794997374" lon="8.708725041711164"><ele>32.0</ele><time>2026-05-02T16:05:18.001Z</time></trkpt><trkpt lat="39.69830296008373" lon="8.70888928874258"><ele>32.0</ele><time>2026-05-02T16:05:19.001Z</time></trkpt><trkpt lat="39.69794137241002" lon="8.709053634801586"><ele>32.0</ele><time>2026-05-02T16:05:20.001Z</time></trkpt><trkpt lat="39.69757590583771" lon="8.709224154384698"><ele>32.0</ele><time>2026-05-02T16:05:21.001Z</time></trkpt><trkpt lat="39.69721290246103" lon="8.70939423404206"><ele>32.0</ele><time>2026-05-02T16:05:22.001Z</time></trkpt><trkpt lat="39.69685369339402" lon="8.709554577611156"><ele>33.5</ele><time>2026-05-02T16:05:23.001Z</time></trkpt><trkpt lat="39.696496605575526" lon="8.709717501711042"><ele>35.0</ele><time>2026-05-02T16:05:24.001Z</time></trkpt><trkpt lat="39.696145418121205" lon="8.709869209779713"><ele>35.5</ele><time>2026-05-02T16:05:25.001Z</time></trkpt><trkpt lat="39.695794364143225" lon="8.7100206454328"><ele>36.0</ele><time>2026-05-02T16:05:26.001Z</time></trkpt><trkpt lat="39.695443758399236" lon="8.710168433051852"><ele>36.5</ele><time>2026-05-02T16:05:27.001Z</time></trkpt><trkpt lat="39.69509318582484" lon="8.710317834724236"><ele>37.0</ele><time>2026-05-02T16:05:28.001Z</time></trkpt><trkpt lat="39.694748901480615" lon="8.710463092443591"><ele>38.0</ele><time>2026-05-02T16:05:29.001Z</time></trkpt><trkpt lat="39.69441713440762" lon="8.71060476709088"><ele>39.0</ele><time>2026-05-02T16:05:30.001Z</time></trkpt><trkpt lat="39.69408893408452" lon="8.710748847380952"><ele>39.0</ele><time>2026-05-02T16:05:31Z</time></trkpt><trkpt lat="39.6937609568023" lon="8.710892747677146"><ele>39.0</ele><time>2026-05-02T16:05:32Z</time></trkpt><trkpt lat="39.693439358636375" lon="8.711035149488584"><ele>37.5</ele><time>2026-05-02T16:05:33Z</time></trkpt><trkpt lat="39.69311585872424" lon="8.711171309230307"><ele>36.0</ele><time>2026-05-02T16:05:34Z</time></trkpt><trkpt lat="39.69279027498596" lon="8.711308739938238"><ele>35.5</ele><time>2026-05-02T16:05:35Z</time></trkpt><trkpt lat="39.692466602791995" lon="8.711452853039072"><ele>35.0</ele><time>2026-05-02T16:05:36Z</time></trkpt><trkpt lat="39.69214558016282" lon="8.711594870858331"><ele>35.5</ele><time>2026-05-02T16:05:37Z</time></trkpt><trkpt lat="39.691819353314706" lon="8.711737634192737"><ele>36.0</ele><time>2026-05-02T16:05:38Z</time></trkpt><trkpt lat="39.69149662300051" lon="8.711881271213826"><ele>37.0</ele><time>2026-05-02T16:05:39Z</time></trkpt><trkpt lat="39.69116710139064" lon="8.712021406777874"><ele>38.0</ele><time>2026-05-02T16:05:40Z</time></trkpt><trkpt lat="39.690839228429205" lon="8.71216495715571"><ele>38.5</ele><time>2026-05-02T16:05:41Z</time></trkpt><trkpt lat="39.69050778233521" lon="8.712308565678459"><ele>39.0</ele><time>2026-05-02T16:05:42Z</time></trkpt><trkpt lat="39.69017393362755" lon="8.712455616760984"><ele>39.0</ele><time>2026-05-02T16:05:43Z</time></trkpt><trkpt lat="39.6898427322731" lon="8.712596679308481"><ele>39.0</ele><time>2026-05-02T16:05:44Z</time></trkpt><trkpt lat="39.68951339869001" lon="8.712741715056524"><ele>38.5</ele><time>2026-05-02T16:05:45Z</time></trkpt><trkpt lat="39.689186546425596" lon="8.71289011311836"><ele>38.0</ele><time>2026-05-02T16:05:46Z</time></trkpt><trkpt lat="39.68886326264555" lon="8.713034349164397"><ele>37.5</ele><time>2026-05-02T16:05:47Z</time></trkpt><trkpt lat="39.6885369340295" lon="8.713178883915276"><ele>37.0</ele><time>2026-05-02T16:05:48Z</time></trkpt><trkpt lat="39.68820966905858" lon="8.713321809224311"><ele>37.0</ele><time>2026-05-02T16:05:49Z</time></trkpt><trkpt lat="39.68788029324398" lon="8.7134657585471"><ele>37.0</ele><time>2026-05-02T16:05:50Z</time></trkpt><trkpt lat="39.68755612772075" lon="8.713613309180076"><ele>37.0</ele><time>2026-05-02T16:05:51Z</time></trkpt><trkpt lat="39.68723023459279" lon="8.71377135115932"><ele>37.0</ele><time>2026-05-02T16:05:52Z</time></trkpt><trkpt lat="39.68690551807588" lon="8.713939520321583"><ele>37.0</ele><time>2026-05-02T16:05:53Z</time></trkpt><trkpt lat="39.6865815684337" lon="8.714122182251607"><ele>37.0</ele><time>2026-05-02T16:05:54Z</time></trkpt><trkpt lat="39.68625842833466" lon="8.714314555250308"><ele>36.5</ele><time>2026-05-02T16:05:55Z</time></trkpt><trkpt lat="39.68594070764364" lon="8.714522058817423"><ele>36.0</ele><time>2026-05-02T16:05:56Z</time></trkpt><trkpt lat="39.685628050162144" lon="8.714740064397132"><ele>36.0</ele><time>2026-05-02T16:05:57Z</time></trkpt><trkpt lat="39.68531736819951" lon="8.71496596911435"><ele>36.0</ele><time>2026-05-02T16:05:58Z</time></trkpt><trkpt lat="39.68501012069653" lon="8.71520215108686"><ele>35.5</ele><time>2026-05-02T16:05:59Z</time></trkpt><trkpt lat="39.684707506021454" lon="8.715440185415616"><ele>35.0</ele><time>2026-05-02T16:06:00Z</time></trkpt><trkpt lat="39.68441055391325" lon="8.715695183751441"><ele>34.5</ele><time>2026-05-02T16:06:01Z</time></trkpt><trkpt lat="39.684120010552476" lon="8.71595201540047"><ele>34.0</ele><time>2026-05-02T16:06:02Z</time></trkpt><trkpt lat="39.68383141968392" lon="8.716215968761336"><ele>34.0</ele><time>2026-05-02T16:06:03Z</time></trkpt><trkpt lat="39.683543168231374" lon="8.716493841368639"><ele>34.0</ele><time>2026-05-02T16:06:04Z</time></trkpt><trkpt lat="39.68325366192836" lon="8.716763821418713"><ele>34.0</ele><time>2026-05-02T16:06:05Z</time></trkpt><trkpt lat="39.68296330569792" lon="8.717033721011983"><ele>34.0</ele><time>2026-05-02T16:06:06Z</time></trkpt><trkpt lat="39.68267134713066" lon="8.717306979802213"><ele>34.0</ele><time>2026-05-02T16:06:07Z</time></trkpt><trkpt lat="39.682375118360426" lon="8.717591925466277"><ele>34.0</ele><time>2026-05-02T16:06:08Z</time></trkpt><trkpt lat="39.682059352661774" lon="8.717894348885347"><ele>34.5</ele><time>2026-05-02T16:06:09Z</time></trkpt><trkpt lat="39.68173217768088" lon="8.718196836086708"><ele>35.0</ele><time>2026-05-02T16:06:10Z</time></trkpt><trkpt lat="39.681418824048" lon="8.718493491653602"><ele>35.0</ele><time>2026-05-02T16:06:11Z</time></trkpt><trkpt lat="39.68111302829661" lon="8.718783979067867"><ele>35.0</ele><time>2026-05-02T16:06:12Z</time></trkpt><trkpt lat="39.68081137791731" lon="8.719068819998698"><ele>35.0</ele><time>2026-05-02T16:06:13Z</time></trkpt><trkpt lat="39.680503415993826" lon="8.719355047048477"><ele>35.0</ele><time>2026-05-02T16:06:14Z</time></trkpt><trkpt lat="39.68019288750895" lon="8.71963805784785"><ele>34.5</ele><time>2026-05-02T16:06:15Z</time></trkpt><trkpt lat="39.679881741146396" lon="8.719923275859248"><ele>34.0</ele><time>2026-05-02T16:06:16Z</time></trkpt><trkpt lat="39.679567571914795" lon="8.720209323492787"><ele>34.5</ele><time>2026-05-02T16:06:17Z</time></trkpt><trkpt lat="39.6792614765911" lon="8.720493252595437"><ele>35.0</ele><time>2026-05-02T16:06:18Z</time></trkpt><trkpt lat="39.67895760334896" lon="8.72078013025063"><ele>34.5</ele><time>2026-05-02T16:06:19Z</time></trkpt><trkpt lat="39.67865539512559" lon="8.721066787624203"><ele>34.0</ele><time>2026-05-02T16:06:20Z</time></trkpt><trkpt lat="39.678355732985075" lon="8.721359385944828"><ele>34.0</ele><time>2026-05-02T16:06:21Z</time></trkpt><trkpt lat="39.678056768876395" lon="8.721643246007682"><ele>34.0</ele><time>2026-05-02T16:06:22Z</time></trkpt><trkpt lat="39.67777150646643" lon="8.721946968079765"><ele>35.5</ele><time>2026-05-02T16:06:23Z</time></trkpt><trkpt lat="39.67747591832607" lon="8.722202076460642"><ele>37.0</ele><time>2026-05-02T16:06:24Z</time></trkpt><trkpt lat="39.677177369541624" lon="8.7224856010176"><ele>37.0</ele><time>2026-05-02T16:06:25Z</time></trkpt><trkpt lat="39.67688889949143" lon="8.722773461363852"><ele>37.0</ele><time>2026-05-02T16:06:26Z</time></trkpt><trkpt lat="39.676599780764015" lon="8.723063782951124"><ele>37.0</ele><time>2026-05-02T16:06:27Z</time></trkpt><trkpt lat="39.67630838660206" lon="8.72334562868207"><ele>37.0</ele><time>2026-05-02T16:06:28Z</time></trkpt><trkpt lat="39.6760178031299" lon="8.723621565306393"><ele>36.5</ele><time>2026-05-02T16:06:29Z</time></trkpt><trkpt lat="39.675723198884526" lon="8.723899163554709"><ele>36.0</ele><time>2026-05-02T16:06:30Z</time></trkpt><trkpt lat="39.675426959482074" lon="8.724180656931814"><ele>35.0</ele><time>2026-05-02T16:06:31Z</time></trkpt><trkpt lat="39.67512862475191" lon="8.724459146239393"><ele>34.0</ele><time>2026-05-02T16:06:32Z</time></trkpt><trkpt lat="39.67483303989185" lon="8.724742548134058"><ele>34.0</ele><time>2026-05-02T16:06:33Z</time></trkpt><trkpt lat="39.67453511398482" lon="8.725027041284054"><ele>34.0</ele><time>2026-05-02T16:06:34Z</time></trkpt><trkpt lat="39.67423762234393" lon="8.725308274855589"><ele>34.5</ele><time>2026-05-02T16:06:35Z</time></trkpt><trkpt lat="39.673940085231585" lon="8.725588741133482"><ele>35.0</ele><time>2026-05-02T16:06:36Z</time></trkpt><trkpt lat="39.6736433391587" lon="8.725869090656294"><ele>34.5</ele><time>2026-05-02T16:06:37Z</time></trkpt><trkpt lat="39.67334751974815" lon="8.726151779263175"><ele>34.0</ele><time>2026-05-02T16:06:38Z</time></trkpt><trkpt lat="39.67305051254424" lon="8.72642367357082"><ele>35.0</ele><time>2026-05-02T16:06:39Z</time></trkpt><trkpt lat="39.67275373395255" lon="8.726701432787953"><ele>36.0</ele><time>2026-05-02T16:06:40Z</time></trkpt><trkpt lat="39.67245855362949" lon="8.726976854896225"><ele>36.0</ele><time>2026-05-02T16:06:41Z</time></trkpt><trkpt lat="39.67215720430241" lon="8.727244656084606"><ele>36.0</ele><time>2026-05-02T16:06:42Z</time></trkpt><trkpt lat="39.67185678975104" lon="8.727511016610924"><ele>36.5</ele><time>2026-05-02T16:06:43Z</time></trkpt><trkpt lat="39.67155872560795" lon="8.727792464466496"><ele>37.0</ele><time>2026-05-02T16:06:44Z</time></trkpt><trkpt lat="39.67126017406021" lon="8.728078141548659"><ele>38.0</ele><time>2026-05-02T16:06:45Z</time></trkpt><trkpt lat="39.67096268171313" lon="8.728360006663985"><ele>39.0</ele><time>2026-05-02T16:06:46Z</time></trkpt><trkpt lat="39.6706621409693" lon="8.728644817753395"><ele>39.5</ele><time>2026-05-02T16:06:47Z</time></trkpt><trkpt lat="39.67036685712666" lon="8.728925253754648"><ele>40.0</ele><time>2026-05-02T16:06:48Z</time></trkpt><trkpt lat="39.67007361512182" lon="8.729204802481961"><ele>40.5</ele><time>2026-05-02T16:06:49Z</time></trkpt><trkpt lat="39.66978391664885" lon="8.729477348298444"><ele>41.0</ele><time>2026-05-02T16:06:50Z</time></trkpt><trkpt lat="39.669496881066955" lon="8.72975035405205"><ele>40.5</ele><time>2026-05-02T16:06:51Z</time></trkpt><trkpt lat="39.66920604151303" lon="8.730026790369148"><ele>40.0</ele><time>2026-05-02T16:06:52Z</time></trkpt><trkpt lat="39.66891869294774" lon="8.730303524070926"><ele>40.0</ele><time>2026-05-02T16:06:53Z</time></trkpt><trkpt lat="39.668630415705536" lon="8.730587254834598"><ele>40.0</ele><time>2026-05-02T16:06:54Z</time></trkpt><trkpt lat="39.668347854689436" lon="8.730863804277906"><ele>39.0</ele><time>2026-05-02T16:06:55Z</time></trkpt><trkpt lat="39.66806427794076" lon="8.731138968573472"><ele>38.0</ele><time>2026-05-02T16:06:56Z</time></trkpt><trkpt lat="39.66777581706692" lon="8.731408207347206"><ele>37.0</ele><time>2026-05-02T16:06:57Z</time></trkpt><trkpt lat="39.667482517503316" lon="8.731683504086803"><ele>36.0</ele><time>2026-05-02T16:06:58Z</time></trkpt><trkpt lat="39.66719721788253" lon="8.731958188986034"><ele>36.0</ele><time>2026-05-02T16:06:59Z</time></trkpt><trkpt lat="39.66690981977749" lon="8.732234101825405"><ele>36.0</ele><time>2026-05-02T16:07:00Z</time></trkpt><trkpt lat="39.666624664102045" lon="8.732504698081991"><ele>36.0</ele><time>2026-05-02T16:07:01Z</time></trkpt><trkpt lat="39.666340852866796" lon="8.732776563349129"><ele>36.0</ele><time>2026-05-02T16:07:02Z</time></trkpt><trkpt lat="39.666057925465" lon="8.733044469749492"><ele>36.0</ele><time>2026-05-02T16:07:03Z</time></trkpt><trkpt lat="39.66577402596226" lon="8.733317074486108"><ele>36.0</ele><time>2026-05-02T16:07:04Z</time></trkpt><trkpt lat="39.66548641985207" lon="8.733585803299738"><ele>36.5</ele><time>2026-05-02T16:07:05Z</time></trkpt><trkpt lat="39.665195547865345" lon="8.733859264080216"><ele>37.0</ele><time>2026-05-02T16:07:06Z</time></trkpt><trkpt lat="39.66490205745312" lon="8.734137959188045"><ele>37.5</ele><time>2026-05-02T16:07:07Z</time></trkpt><trkpt lat="39.66460216503034" lon="8.734416540643078"><ele>38.0</ele><time>2026-05-02T16:07:08Z</time></trkpt><trkpt lat="39.664306407439845" lon="8.734693629997086"><ele>38.0</ele><time>2026-05-02T16:07:09Z</time></trkpt><trkpt lat="39.664014034285294" lon="8.734969540827041"><ele>38.0</ele><time>2026-05-02T16:07:10Z</time></trkpt><trkpt lat="39.66372331942139" lon="8.735244672104074"><ele>38.0</ele><time>2026-05-02T16:07:11Z</time></trkpt><trkpt lat="39.66343272901725" lon="8.735519417945035"><ele>38.0</ele><time>2026-05-02T16:07:12Z</time></trkpt><trkpt lat="39.66314392503414" lon="8.735786732943112"><ele>37.5</ele><time>2026-05-02T16:07:13Z</time></trkpt><trkpt lat="39.6628561398076" lon="8.73605827260032"><ele>37.0</ele><time>2026-05-02T16:07:14Z</time></trkpt><trkpt lat="39.66257110298616" lon="8.736327267199611"><ele>36.5</ele><time>2026-05-02T16:07:15Z</time></trkpt><trkpt lat="39.66228496191032" lon="8.736599850718509"><ele>36.0</ele><time>2026-05-02T16:07:16Z</time></trkpt><trkpt lat="39.66199896855413" lon="8.736867474472131"><ele>37.5</ele><time>2026-05-02T16:07:17Z</time></trkpt><trkpt lat="39.661714567250044" lon="8.737145726712695"><ele>39.0</ele><time>2026-05-02T16:07:18Z</time></trkpt><trkpt lat="39.661431937473814" lon="8.7374163263097"><ele>39.0</ele><time>2026-05-02T16:07:19Z</time></trkpt><trkpt lat="39.66114446778378" lon="8.737686960410427"><ele>39.0</ele><time>2026-05-02T16:07:20Z</time></trkpt><trkpt lat="39.660856656171475" lon="8.73795452518466"><ele>39.0</ele><time>2026-05-02T16:07:21Z</time></trkpt><trkpt lat="39.66057258044304" lon="8.73821941525096"><ele>39.0</ele><time>2026-05-02T16:07:22Z</time></trkpt><trkpt lat="39.6602886463005" lon="8.738486656842158"><ele>39.0</ele><time>2026-05-02T16:07:23Z</time></trkpt><trkpt lat="39.660008090362716" lon="8.738754974965666"><ele>39.0</ele><time>2026-05-02T16:07:24Z</time></trkpt><trkpt lat="39.65972662572795" lon="8.739037348800576"><ele>39.0</ele><time>2026-05-02T16:07:25Z</time></trkpt><trkpt lat="39.65945055175617" lon="8.739321028957164"><ele>39.0</ele><time>2026-05-02T16:07:26Z</time></trkpt><trkpt lat="39.65919911321256" lon="8.739617290512674"><ele>39.5</ele><time>2026-05-02T16:07:27Z</time></trkpt><trkpt lat="39.65893468810778" lon="8.739934518963643"><ele>40.0</ele><time>2026-05-02T16:07:28Z</time></trkpt><trkpt lat="39.65867481158949" lon="8.740253056517904"><ele>43.0</ele><time>2026-05-02T16:07:29Z</time></trkpt><trkpt lat="39.658422545991584" lon="8.740578128229798"><ele>46.0</ele><time>2026-05-02T16:07:30Z</time></trkpt><trkpt lat="39.65817904842787" lon="8.740913667613848"><ele>45.5</ele><time>2026-05-02T16:07:31Z</time></trkpt><trkpt lat="39.657942459750124" lon="8.741267689742688"><ele>45.0</ele><time>2026-05-02T16:07:32Z</time></trkpt><trkpt lat="39.657715603845325" lon="8.7416302073985"><ele>44.0</ele><time>2026-05-02T16:07:33Z</time></trkpt><trkpt lat="39.6574942570093" lon="8.742003478557635"><ele>43.0</ele><time>2026-05-02T16:07:34Z</time></trkpt><trkpt lat="39.65728159977976" lon="8.742390263467115"><ele>43.5</ele><time>2026-05-02T16:07:35Z</time></trkpt><trkpt lat="39.65707956496195" lon="8.74277659735726"><ele>44.0</ele><time>2026-05-02T16:07:36Z</time></trkpt><trkpt lat="39.656890831505876" lon="8.743170591188994"><ele>48.0</ele><time>2026-05-02T16:07:37Z</time></trkpt><trkpt lat="39.65671874043162" lon="8.743550977129622"><ele>52.0</ele><time>2026-05-02T16:07:38Z</time></trkpt><trkpt lat="39.65656467815486" lon="8.743922016796807"><ele>52.0</ele><time>2026-05-02T16:07:39Z</time></trkpt><trkpt lat="39.65641557398305" lon="8.744283715209686"><ele>52.0</ele><time>2026-05-02T16:07:40Z</time></trkpt><trkpt lat="39.65628634120107" lon="8.744624804374903"><ele>53.5</ele><time>2026-05-02T16:07:41Z</time></trkpt><trkpt lat="39.65616686657574" lon="8.74495689051812"><ele>55.0</ele><time>2026-05-02T16:07:42Z</time></trkpt><trkpt lat="39.656052902779884" lon="8.745280964623849"><ele>55.5</ele><time>2026-05-02T16:07:43Z</time></trkpt><trkpt lat="39.6559464940532" lon="8.745590727054916"><ele>56.0</ele><time>2026-05-02T16:07:44Z</time></trkpt><trkpt lat="39.6558453957785" lon="8.745880986906025"><ele>58.5</ele><time>2026-05-02T16:07:45Z</time></trkpt><trkpt lat="39.65575343821201" lon="8.746158064891217"><ele>61.0</ele><time>2026-05-02T16:07:46Z</time></trkpt><trkpt lat="39.65565431630984" lon="8.74644282148529"><ele>61.0</ele><time>2026-05-02T16:07:47Z</time></trkpt><trkpt lat="39.655550090097755" lon="8.74673578383036"><ele>61.0</ele><time>2026-05-02T16:07:48Z</time></trkpt><trkpt lat="39.65544219927212" lon="8.74703808356875"><ele>61.5</ele><time>2026-05-02T16:07:49Z</time></trkpt><trkpt lat="39.65533412064408" lon="8.747343925499269"><ele>62.0</ele><time>2026-05-02T16:07:50Z</time></trkpt><trkpt lat="39.65522344886137" lon="8.747653600171127"><ele>65.0</ele><time>2026-05-02T16:07:51Z</time></trkpt><trkpt lat="39.655115194685834" lon="8.747965378650168"><ele>68.0</ele><time>2026-05-02T16:07:52Z</time></trkpt><trkpt lat="39.655008306628034" lon="8.748276237602772"><ele>69.0</ele><time>2026-05-02T16:07:53Z</time></trkpt><trkpt lat="39.65490102050881" lon="8.7485781586055"><ele>70.0</ele><time>2026-05-02T16:07:54Z</time></trkpt><trkpt lat="39.65479127255749" lon="8.748879249382526"><ele>70.0</ele><time>2026-05-02T16:07:55Z</time></trkpt><trkpt lat="39.654684031957984" lon="8.749185146081206"><ele>70.0</ele><time>2026-05-02T16:07:56Z</time></trkpt><trkpt lat="39.654577815512354" lon="8.7494931979125"><ele>70.0</ele><time>2026-05-02T16:07:57Z</time></trkpt><trkpt lat="39.65446673347512" lon="8.749810829024758"><ele>70.0</ele><time>2026-05-02T16:07:58Z</time></trkpt><trkpt lat="39.65435580470976" lon="8.750125947146385"><ele>72.0</ele><time>2026-05-02T16:07:59Z</time></trkpt><trkpt lat="39.654242992551566" lon="8.750445099372188"><ele>74.0</ele><time>2026-05-02T16:08:00Z</time></trkpt><trkpt lat="39.65412774565009" lon="8.75077072572701"><ele>75.0</ele><time>2026-05-02T16:08:01Z</time></trkpt><trkpt lat="39.65401286379396" lon="8.75109927159759"><ele>76.0</ele><time>2026-05-02T16:08:02Z</time></trkpt><trkpt lat="39.6538861556699" lon="8.7514410302857"><ele>76.0</ele><time>2026-05-02T16:08:03Z</time></trkpt><trkpt lat="39.65374794892513" lon="8.751791191400777"><ele>76.0</ele><time>2026-05-02T16:08:04Z</time></trkpt><trkpt lat="39.653594346296444" lon="8.752140523956347"><ele>79.0</ele><time>2026-05-02T16:08:05Z</time></trkpt><trkpt lat="39.653434658054124" lon="8.752480498381907"><ele>82.0</ele><time>2026-05-02T16:08:06Z</time></trkpt><trkpt lat="39.6532681625569" lon="8.752816819827599"><ele>84.0</ele><time>2026-05-02T16:08:07Z</time></trkpt><trkpt lat="39.653100308610675" lon="8.753145808583005"><ele>86.0</ele><time>2026-05-02T16:08:08Z</time></trkpt><trkpt lat="39.65291996568479" lon="8.753469832394943"><ele>90.0</ele><time>2026-05-02T16:08:09Z</time></trkpt><trkpt lat="39.652734119697136" lon="8.753786178577872"><ele>94.0</ele><time>2026-05-02T16:08:10Z</time></trkpt><trkpt lat="39.65254361462484" lon="8.754089544158767"><ele>96.0</ele><time>2026-05-02T16:08:11Z</time></trkpt><trkpt lat="39.65234516166787" lon="8.754380478496811"><ele>98.0</ele><time>2026-05-02T16:08:12Z</time></trkpt><trkpt lat="39.65214647952572" lon="8.754664150688662"><ele>98.5</ele><time>2026-05-02T16:08:13Z</time></trkpt><trkpt lat="39.65194483202914" lon="8.754945131834129"><ele>99.0</ele><time>2026-05-02T16:08:14Z</time></trkpt><trkpt lat="39.65174358552799" lon="8.75522004273484"><ele>102.0</ele><time>2026-05-02T16:08:15Z</time></trkpt><trkpt lat="39.65153513781108" lon="8.755486707592059"><ele>105.0</ele><time>2026-05-02T16:08:16Z</time></trkpt><trkpt lat="39.651322001930716" lon="8.755747731039953"><ele>104.0</ele><time>2026-05-02T16:08:17Z</time></trkpt><trkpt lat="39.65110778734546" lon="8.756014205037177"><ele>103.0</ele><time>2026-05-02T16:08:18Z</time></trkpt><trkpt lat="39.650897468153794" lon="8.756291320774377"><ele>105.5</ele><time>2026-05-02T16:08:19Z</time></trkpt><trkpt lat="39.65068735421403" lon="8.7565708679309"><ele>108.0</ele><time>2026-05-02T16:08:20Z</time></trkpt><trkpt lat="39.650473203296876" lon="8.756859762425341"><ele>110.0</ele><time>2026-05-02T16:08:21Z</time></trkpt><trkpt lat="39.65024990382728" lon="8.75715735401258"><ele>112.0</ele><time>2026-05-02T16:08:22Z</time></trkpt><trkpt lat="39.65001565629447" lon="8.757468907106299"><ele>115.0</ele><time>2026-05-02T16:08:23Z</time></trkpt><trkpt lat="39.6497758184689" lon="8.757781740681908"><ele>118.0</ele><time>2026-05-02T16:08:24Z</time></trkpt><trkpt lat="39.64953050009495" lon="8.758098359516898"><ele>118.0</ele><time>2026-05-02T16:08:25Z</time></trkpt><trkpt lat="39.64928297277801" lon="8.75841504841168"><ele>118.0</ele><time>2026-05-02T16:08:26Z</time></trkpt><trkpt lat="39.64903142922045" lon="8.75874183442077"><ele>118.0</ele><time>2026-05-02T16:08:27Z</time></trkpt><trkpt lat="39.64877666161436" lon="8.759073893267935"><ele>118.0</ele><time>2026-05-02T16:08:28Z</time></trkpt><trkpt lat="39.64851458043115" lon="8.759414285160888"><ele>119.0</ele><time>2026-05-02T16:08:29Z</time></trkpt><trkpt lat="39.64825028737425" lon="8.75975984029381"><ele>120.0</ele><time>2026-05-02T16:08:30Z</time></trkpt><trkpt lat="39.64798946746001" lon="8.7601033623961"><ele>120.0</ele><time>2026-05-02T16:08:31Z</time></trkpt><trkpt lat="39.64772634005797" lon="8.760446598224608"><ele>120.0</ele><time>2026-05-02T16:08:32Z</time></trkpt><trkpt lat="39.64746599429267" lon="8.760790264578397"><ele>119.5</ele><time>2026-05-02T16:08:33Z</time></trkpt><trkpt lat="39.647205094008584" lon="8.76113495633871"><ele>119.0</ele><time>2026-05-02T16:08:34Z</time></trkpt><trkpt lat="39.646940763422116" lon="8.761473736425943"><ele>119.0</ele><time>2026-05-02T16:08:35Z</time></trkpt><trkpt lat="39.64668963998789" lon="8.7618227802034"><ele>119.0</ele><time>2026-05-02T16:08:36Z</time></trkpt><trkpt lat="39.64643664603514" lon="8.762174689274614"><ele>119.0</ele><time>2026-05-02T16:08:37Z</time></trkpt><trkpt lat="39.64618684114826" lon="8.762526527873664"><ele>119.0</ele><time>2026-05-02T16:08:38Z</time></trkpt><trkpt lat="39.645935920262616" lon="8.76287424235691"><ele>119.5</ele><time>2026-05-02T16:08:39Z</time></trkpt><trkpt lat="39.645684509916244" lon="8.763220744145372"><ele>120.0</ele><time>2026-05-02T16:08:40Z</time></trkpt><trkpt lat="39.64543012081815" lon="8.763566793285785"><ele>120.0</ele><time>2026-05-02T16:08:41Z</time></trkpt><trkpt lat="39.6451811824305" lon="8.76390908569926"><ele>120.0</ele><time>2026-05-02T16:08:42Z</time></trkpt><trkpt lat="39.64493211218205" lon="8.764247424802674"><ele>120.5</ele><time>2026-05-02T16:08:43Z</time></trkpt><trkpt lat="39.644682792736006" lon="8.764587453597818"><ele>121.0</ele><time>2026-05-02T16:08:44Z</time></trkpt><trkpt lat="39.64443364143017" lon="8.76493408886213"><ele>120.0</ele><time>2026-05-02T16:08:45Z</time></trkpt><trkpt lat="39.64417951720927" lon="8.76527377488717"><ele>119.0</ele><time>2026-05-02T16:08:46Z</time></trkpt><trkpt lat="39.643929386753086" lon="8.765610747282349"><ele>119.0</ele><time>2026-05-02T16:08:47Z</time></trkpt><trkpt lat="39.643677032763584" lon="8.765955889990646"><ele>119.0</ele><time>2026-05-02T16:08:48Z</time></trkpt><trkpt lat="39.64342863141211" lon="8.766299675515171"><ele>119.0</ele><time>2026-05-02T16:08:49Z</time></trkpt><trkpt lat="39.643182725981795" lon="8.766635395223728"><ele>119.0</ele><time>2026-05-02T16:08:50Z</time></trkpt><trkpt lat="39.642939529721914" lon="8.766976208275048"><ele>118.0</ele><time>2026-05-02T16:08:51Z</time></trkpt><trkpt lat="39.64270009833923" lon="8.767309618673297"><ele>117.0</ele><time>2026-05-02T16:08:52Z</time></trkpt><trkpt lat="39.64247286477472" lon="8.767629779835243"><ele>117.0</ele><time>2026-05-02T16:08:53Z</time></trkpt><trkpt lat="39.64225178539357" lon="8.767941916598042"><ele>117.0</ele><time>2026-05-02T16:08:54Z</time></trkpt><trkpt lat="39.64202915083925" lon="8.76825888403705"><ele>115.0</ele><time>2026-05-02T16:08:55Z</time></trkpt><trkpt lat="39.64181285120201" lon="8.768588616950858"><ele>113.0</ele><time>2026-05-02T16:08:56Z</time></trkpt><trkpt lat="39.64160130476736" lon="8.76893946318644"><ele>113.0</ele><time>2026-05-02T16:08:57Z</time></trkpt><trkpt lat="39.641391575510724" lon="8.769303300642997"><ele>113.0</ele><time>2026-05-02T16:08:58Z</time></trkpt><trkpt lat="39.64118396841158" lon="8.769678195648423"><ele>112.0</ele><time>2026-05-02T16:08:59Z</time></trkpt><trkpt lat="39.64097969482673" lon="8.77005595111962"><ele>111.0</ele><time>2026-05-02T16:09:00Z</time></trkpt><trkpt lat="39.64077249997748" lon="8.770419134449021"><ele>110.5</ele><time>2026-05-02T16:09:01Z</time></trkpt><trkpt lat="39.640564374465605" lon="8.770781279063538"><ele>110.0</ele><time>2026-05-02T16:09:02Z</time></trkpt><trkpt lat="39.640356448590296" lon="8.771141659611235"><ele>109.0</ele><time>2026-05-02T16:09:03Z</time></trkpt><trkpt lat="39.64015073453283" lon="8.771502414831511"><ele>108.0</ele><time>2026-05-02T16:09:04Z</time></trkpt><trkpt lat="39.63994119301568" lon="8.771866056088237"><ele>108.0</ele><time>2026-05-02T16:09:05Z</time></trkpt><trkpt lat="39.639732851670885" lon="8.772225822015393"><ele>108.0</ele><time>2026-05-02T16:09:06Z</time></trkpt><trkpt lat="39.63952487054747" lon="8.77258237038303"><ele>107.5</ele><time>2026-05-02T16:09:07Z</time></trkpt><trkpt lat="39.63931709480669" lon="8.772944761537333"><ele>107.0</ele><time>2026-05-02T16:09:08Z</time></trkpt><trkpt lat="39.639109524146185" lon="8.773308003645642"><ele>107.5</ele><time>2026-05-02T16:09:09Z</time></trkpt><trkpt lat="39.63890097913731" lon="8.773670691662815"><ele>108.0</ele><time>2026-05-02T16:09:10Z</time></trkpt><trkpt lat="39.63869072845091" lon="8.774032422611434"><ele>109.5</ele><time>2026-05-02T16:09:11Z</time></trkpt><trkpt lat="39.63848139439992" lon="8.774397472784825"><ele>111.0</ele><time>2026-05-02T16:09:12Z</time></trkpt><trkpt lat="39.6382704514687" lon="8.774763488019566"><ele>111.0</ele><time>2026-05-02T16:09:13Z</time></trkpt><trkpt lat="39.63806504227539" lon="8.775129833408084"><ele>111.0</ele><time>2026-05-02T16:09:14Z</time></trkpt><trkpt lat="39.637859217521545" lon="8.775492482886394"><ele>112.5</ele><time>2026-05-02T16:09:15Z</time></trkpt><trkpt lat="39.6376519722465" lon="8.775855047745342"><ele>114.0</ele><time>2026-05-02T16:09:16Z</time></trkpt><trkpt lat="39.637443484644415" lon="8.77621269286626"><ele>114.5</ele><time>2026-05-02T16:09:17Z</time></trkpt><trkpt lat="39.6372309992023" lon="8.776575686778157"><ele>115.0</ele><time>2026-05-02T16:09:18Z</time></trkpt><trkpt lat="39.63700977736452" lon="8.776940476025478"><ele>115.5</ele><time>2026-05-02T16:09:19Z</time></trkpt><trkpt lat="39.63677963262279" lon="8.777305188728565"><ele>116.0</ele><time>2026-05-02T16:09:20Z</time></trkpt><trkpt lat="39.63653534357811" lon="8.777662408212587"><ele>116.0</ele><time>2026-05-02T16:09:21Z</time></trkpt><trkpt lat="39.63628417606732" lon="8.778011937524136"><ele>116.0</ele><time>2026-05-02T16:09:22Z</time></trkpt><trkpt lat="39.6360317133" lon="8.778359390007418"><ele>115.0</ele><time>2026-05-02T16:09:23Z</time></trkpt><trkpt lat="39.6357786065014" lon="8.778706251726764"><ele>114.0</ele><time>2026-05-02T16:09:24Z</time></trkpt><trkpt lat="39.635526335881295" lon="8.779054780060514"><ele>111.5</ele><time>2026-05-02T16:09:25Z</time></trkpt><trkpt lat="39.63527665119174" lon="8.779400207864407"><ele>109.0</ele><time>2026-05-02T16:09:26Z</time></trkpt><trkpt lat="39.63501825119154" lon="8.779740247652486"><ele>109.0</ele><time>2026-05-02T16:09:27Z</time></trkpt><trkpt lat="39.63477461427484" lon="8.780087364139835"><ele>109.0</ele><time>2026-05-02T16:09:28Z</time></trkpt><trkpt lat="39.63452684742002" lon="8.780427027520236"><ele>107.0</ele><time>2026-05-02T16:09:29Z</time></trkpt><trkpt lat="39.634278379262845" lon="8.780764687546947"><ele>105.0</ele><time>2026-05-02T16:09:30Z</time></trkpt><trkpt lat="39.634028540829206" lon="8.78110860819356"><ele>105.0</ele><time>2026-05-02T16:09:31Z</time></trkpt><trkpt lat="39.6337761307186" lon="8.78145230873666"><ele>105.0</ele><time>2026-05-02T16:09:32Z</time></trkpt><trkpt lat="39.633526541380704" lon="8.781796244163063"><ele>106.5</ele><time>2026-05-02T16:09:33Z</time></trkpt><trkpt lat="39.63328068441821" lon="8.782139843798387"><ele>108.0</ele><time>2026-05-02T16:09:34Z</time></trkpt><trkpt lat="39.63303226582314" lon="8.782481257622264"><ele>109.5</ele><time>2026-05-02T16:09:35Z</time></trkpt><trkpt lat="39.63278351141205" lon="8.782816560354362"><ele>111.0</ele><time>2026-05-02T16:09:36Z</time></trkpt><trkpt lat="39.63253383826382" lon="8.783159255033581"><ele>111.0</ele><time>2026-05-02T16:09:37Z</time></trkpt><trkpt lat="39.63228431871309" lon="8.78349889344832"><ele>111.0</ele><time>2026-05-02T16:09:38Z</time></trkpt><trkpt lat="39.63203152766581" lon="8.78384150548912"><ele>111.5</ele><time>2026-05-02T16:09:39Z</time></trkpt><trkpt lat="39.631778219887146" lon="8.784184924761282"><ele>112.0</ele><time>2026-05-02T16:09:40Z</time></trkpt><trkpt lat="39.6315253839134" lon="8.784531204247461"><ele>112.0</ele><time>2026-05-02T16:09:41Z</time></trkpt><trkpt lat="39.6312702070366" lon="8.784879828910759"><ele>112.0</ele><time>2026-05-02T16:09:42Z</time></trkpt><trkpt lat="39.6310179831043" lon="8.78522845608797"><ele>112.0</ele><time>2026-05-02T16:09:43Z</time></trkpt><trkpt lat="39.63076710270719" lon="8.785575888169202"><ele>112.0</ele><time>2026-05-02T16:09:44Z</time></trkpt><trkpt lat="39.63051791054856" lon="8.785921646895618"><ele>113.0</ele><time>2026-05-02T16:09:45Z</time></trkpt><trkpt lat="39.63026833386415" lon="8.786263824387186"><ele>114.0</ele><time>2026-05-02T16:09:46Z</time></trkpt><trkpt lat="39.63002010194512" lon="8.786600991319384"><ele>115.5</ele><time>2026-05-02T16:09:47Z</time></trkpt><trkpt lat="39.62976945499908" lon="8.78694536552096"><ele>117.0</ele><time>2026-05-02T16:09:48Z</time></trkpt><trkpt lat="39.62952054952269" lon="8.787288829948613"><ele>115.5</ele><time>2026-05-02T16:09:49Z</time></trkpt><trkpt lat="39.629271063631215" lon="8.78763666076102"><ele>114.0</ele><time>2026-05-02T16:09:50Z</time></trkpt><trkpt lat="39.629024967616246" lon="8.787976421665983"><ele>114.0</ele><time>2026-05-02T16:09:51Z</time></trkpt><trkpt lat="39.6287795667548" lon="8.78832436156528"><ele>114.0</ele><time>2026-05-02T16:09:52Z</time></trkpt><trkpt lat="39.628536034858776" lon="8.788681167434968"><ele>114.0</ele><time>2026-05-02T16:09:53Z</time></trkpt><trkpt lat="39.62829698056129" lon="8.789048397544905"><ele>114.0</ele><time>2026-05-02T16:09:54Z</time></trkpt><trkpt lat="39.62806666635919" lon="8.789418198807105"><ele>112.5</ele><time>2026-05-02T16:09:55Z</time></trkpt><trkpt lat="39.62784340035155" lon="8.78979792338944"><ele>111.0</ele><time>2026-05-02T16:09:56Z</time></trkpt><trkpt lat="39.627632587164264" lon="8.790188503378534"><ele>111.0</ele><time>2026-05-02T16:09:57Z</time></trkpt><trkpt lat="39.627431878187515" lon="8.790591287762371"><ele>111.0</ele><time>2026-05-02T16:09:58Z</time></trkpt><trkpt lat="39.62723835440205" lon="8.791000130167538"><ele>111.0</ele><time>2026-05-02T16:09:59Z</time></trkpt><trkpt lat="39.627051148786386" lon="8.79141422583113"><ele>111.0</ele><time>2026-05-02T16:10:00Z</time></trkpt><trkpt lat="39.62686675030998" lon="8.791831102753997"><ele>109.5</ele><time>2026-05-02T16:10:01Z</time></trkpt><trkpt lat="39.62668726326391" lon="8.79224461359844"><ele>108.0</ele><time>2026-05-02T16:10:02Z</time></trkpt><trkpt lat="39.62650810506594" lon="8.79266032512979"><ele>108.0</ele><time>2026-05-02T16:10:03Z</time></trkpt><trkpt lat="39.62632568540086" lon="8.793072983636844"><ele>108.0</ele><time>2026-05-02T16:10:04Z</time></trkpt><trkpt lat="39.62614319075859" lon="8.793479418807454"><ele>106.0</ele><time>2026-05-02T16:10:05Z</time></trkpt><trkpt lat="39.62596062675543" lon="8.793883875340969"><ele>104.0</ele><time>2026-05-02T16:10:06Z</time></trkpt><trkpt lat="39.6257766433723" lon="8.794288589769698"><ele>103.5</ele><time>2026-05-02T16:10:07Z</time></trkpt><trkpt lat="39.62559864880952" lon="8.794693423549804"><ele>103.0</ele><time>2026-05-02T16:10:08Z</time></trkpt><trkpt lat="39.625418061246" lon="8.79510076496919"><ele>102.5</ele><time>2026-05-02T16:10:09Z</time></trkpt><trkpt lat="39.625234891543016" lon="8.795503137856963"><ele>102.0</ele><time>2026-05-02T16:10:10Z</time></trkpt><trkpt lat="39.625045598843435" lon="8.795901785014028"><ele>103.0</ele><time>2026-05-02T16:10:11Z</time></trkpt><trkpt lat="39.62484793175365" lon="8.796295213655066"><ele>104.0</ele><time>2026-05-02T16:10:12Z</time></trkpt><trkpt lat="39.62464105006931" lon="8.796680870797301"><ele>104.0</ele><time>2026-05-02T16:10:13Z</time></trkpt><trkpt lat="39.62442213453708" lon="8.797059603224026"><ele>104.0</ele><time>2026-05-02T16:10:14Z</time></trkpt><trkpt lat="39.62419087064917" lon="8.79743117309618"><ele>106.0</ele><time>2026-05-02T16:10:15Z</time></trkpt><trkpt lat="39.623945720889495" lon="8.797790034528761"><ele>108.0</ele><time>2026-05-02T16:10:16Z</time></trkpt><trkpt lat="39.62368806225843" lon="8.798131273605264"><ele>107.5</ele><time>2026-05-02T16:10:17Z</time></trkpt><trkpt lat="39.6234270008845" lon="8.798472191386121"><ele>107.0</ele><time>2026-05-02T16:10:18Z</time></trkpt><trkpt lat="39.62316554787642" lon="8.798809507827443"><ele>108.5</ele><time>2026-05-02T16:10:19Z</time></trkpt><trkpt lat="39.62290037016208" lon="8.79913989876725"><ele>110.0</ele><time>2026-05-02T16:10:20Z</time></trkpt><trkpt lat="39.62263286756936" lon="8.799459329741822"><ele>110.5</ele><time>2026-05-02T16:10:21Z</time></trkpt><trkpt lat="39.62235722597188" lon="8.799766621738446"><ele>111.0</ele><time>2026-05-02T16:10:22Z</time></trkpt><trkpt lat="39.62207504008775" lon="8.800056683087838"><ele>111.0</ele><time>2026-05-02T16:10:23Z</time></trkpt><trkpt lat="39.621783741123636" lon="8.800339658598412"><ele>111.0</ele><time>2026-05-02T16:10:24Z</time></trkpt><trkpt lat="39.621491364778585" lon="8.800610794000542"><ele>111.0</ele><time>2026-05-02T16:10:25Z</time></trkpt><trkpt lat="39.62119290657674" lon="8.800870659401987"><ele>111.0</ele><time>2026-05-02T16:10:26Z</time></trkpt><trkpt lat="39.62089264699916" lon="8.801114295856408"><ele>111.0</ele><time>2026-05-02T16:10:27Z</time></trkpt><trkpt lat="39.62058599993738" lon="8.80134518621525"><ele>111.0</ele><time>2026-05-02T16:10:28Z</time></trkpt><trkpt lat="39.62027005358994" lon="8.801563092513142"><ele>111.0</ele><time>2026-05-02T16:10:29Z</time></trkpt><trkpt lat="39.61995185082043" lon="8.801763824696414"><ele>111.0</ele><time>2026-05-02T16:10:30Z</time></trkpt><trkpt lat="39.61963186889088" lon="8.80195397057228"><ele>111.5</ele><time>2026-05-02T16:10:31Z</time></trkpt><trkpt lat="39.61930782958389" lon="8.802132798846092"><ele>112.0</ele><time>2026-05-02T16:10:32Z</time></trkpt><trkpt lat="39.618984612493165" lon="8.802306220279283"><ele>112.0</ele><time>2026-05-02T16:10:33Z</time></trkpt><trkpt lat="39.61865905402992" lon="8.80247137652389"><ele>112.0</ele><time>2026-05-02T16:10:34Z</time></trkpt><trkpt lat="39.618331876493365" lon="8.802630638288838"><ele>112.0</ele><time>2026-05-02T16:10:35Z</time></trkpt><trkpt lat="39.61800725295008" lon="8.802778160634496"><ele>112.0</ele><time>2026-05-02T16:10:36Z</time></trkpt><trkpt lat="39.61768275197495" lon="8.802913677818436"><ele>112.0</ele><time>2026-05-02T16:10:37Z</time></trkpt><trkpt lat="39.617360365741284" lon="8.803038815970018"><ele>112.0</ele><time>2026-05-02T16:10:38Z</time></trkpt><trkpt lat="39.61705279538436" lon="8.803158412349072"><ele>112.5</ele><time>2026-05-02T16:10:39Z</time></trkpt><trkpt lat="39.616765539734125" lon="8.803274600355685"><ele>113.0</ele><time>2026-05-02T16:10:40Z</time></trkpt><trkpt lat="39.61650253214073" lon="8.80340806516105"><ele>113.5</ele><time>2026-05-02T16:10:41Z</time></trkpt><trkpt lat="39.616241108987474" lon="8.803525002792178"><ele>114.0</ele><time>2026-05-02T16:10:42Z</time></trkpt><trkpt lat="39.61600445194567" lon="8.803641088360925"><ele>114.0</ele><time>2026-05-02T16:10:43Z</time></trkpt><trkpt lat="39.61577004269331" lon="8.80376821703038"><ele>114.0</ele><time>2026-05-02T16:10:44Z</time></trkpt><trkpt lat="39.61554127940774" lon="8.803895037565445"><ele>114.0</ele><time>2026-05-02T16:10:45Z</time></trkpt><trkpt lat="39.61530532862007" lon="8.804032913214144"><ele>114.0</ele><time>2026-05-02T16:10:46Z</time></trkpt><trkpt lat="39.6150700096812" lon="8.804169130866079"><ele>114.0</ele><time>2026-05-02T16:10:47Z</time></trkpt><trkpt lat="39.6148321211787" lon="8.804319947783107"><ele>114.0</ele><time>2026-05-02T16:10:48Z</time></trkpt><trkpt lat="39.61459205217142" lon="8.80448670563109"><ele>112.5</ele><time>2026-05-02T16:10:49Z</time></trkpt><trkpt lat="39.614354696851855" lon="8.804655733524516"><ele>111.0</ele><time>2026-05-02T16:10:50Z</time></trkpt><trkpt lat="39.614115464207195" lon="8.804834272516688"><ele>111.0</ele><time>2026-05-02T16:10:51Z</time></trkpt><trkpt lat="39.613873810690976" lon="8.805026233530121"><ele>111.0</ele><time>2026-05-02T16:10:52Z</time></trkpt><trkpt lat="39.613631688464146" lon="8.805225912322724"><ele>111.0</ele><time>2026-05-02T16:10:53Z</time></trkpt><trkpt lat="39.61339369917296" lon="8.805427627946909"><ele>111.0</ele><time>2026-05-02T16:10:54Z</time></trkpt><trkpt lat="39.61315014584575" lon="8.805645510235134"><ele>111.0</ele><time>2026-05-02T16:10:55Z</time></trkpt><trkpt lat="39.612907081853216" lon="8.805877789182967"><ele>111.0</ele><time>2026-05-02T16:10:56Z</time></trkpt><trkpt lat="39.612663647841245" lon="8.806125446065117"><ele>111.0</ele><time>2026-05-02T16:10:57Z</time></trkpt><trkpt lat="39.61241133624936" lon="8.80639757832291"><ele>111.0</ele><time>2026-05-02T16:10:58Z</time></trkpt><trkpt lat="39.612153689218445" lon="8.806685113631747"><ele>110.5</ele><time>2026-05-02T16:10:59Z</time></trkpt><trkpt lat="39.611894694486615" lon="8.806991533577563"><ele>110.0</ele><time>2026-05-02T16:11:00Z</time></trkpt><trkpt lat="39.61164192737895" lon="8.807301759394175"><ele>110.0</ele><time>2026-05-02T16:11:01Z</time></trkpt><trkpt lat="39.61139547664715" lon="8.807617243604616"><ele>110.0</ele><time>2026-05-02T16:11:02Z</time></trkpt><trkpt lat="39.611156548772094" lon="8.807946782727775"><ele>110.0</ele><time>2026-05-02T16:11:03Z</time></trkpt><trkpt lat="39.61092287187208" lon="8.808288358998393"><ele>110.0</ele><time>2026-05-02T16:11:04Z</time></trkpt><trkpt lat="39.61069555922358" lon="8.808642393485792"><ele>110.0</ele><time>2026-05-02T16:11:05Z</time></trkpt><trkpt lat="39.610475167960296" lon="8.809001090637178"><ele>110.0</ele><time>2026-05-02T16:11:06Z</time></trkpt><trkpt lat="39.61026344373205" lon="8.809374398074176"><ele>111.5</ele><time>2026-05-02T16:11:07Z</time></trkpt><trkpt lat="39.61005060338576" lon="8.809754224554883"><ele>113.0</ele><time>2026-05-02T16:11:08Z</time></trkpt><trkpt lat="39.60983615493262" lon="8.810134592474608"><ele>113.5</ele><time>2026-05-02T16:11:09Z</time></trkpt><trkpt lat="39.60962539010761" lon="8.810514111246777"><ele>114.0</ele><time>2026-05-02T16:11:10Z</time></trkpt><trkpt lat="39.60941236040943" lon="8.810901717253593"><ele>115.0</ele><time>2026-05-02T16:11:11Z</time></trkpt><trkpt lat="39.609195624228114" lon="8.811281109921335"><ele>116.0</ele><time>2026-05-02T16:11:12Z</time></trkpt><trkpt lat="39.60898245927733" lon="8.811651254288156"><ele>116.0</ele><time>2026-05-02T16:11:13Z</time></trkpt><trkpt lat="39.60876754764322" lon="8.812026596586886"><ele>116.0</ele><time>2026-05-02T16:11:14Z</time></trkpt><trkpt lat="39.608560380134215" lon="8.812395438699435"><ele>117.0</ele><time>2026-05-02T16:11:15Z</time></trkpt><trkpt lat="39.60835045629988" lon="8.812770322643406"><ele>118.0</ele><time>2026-05-02T16:11:16Z</time></trkpt><trkpt lat="39.60814652667725" lon="8.813145689732144"><ele>117.0</ele><time>2026-05-02T16:11:17Z</time></trkpt><trkpt lat="39.60794405895409" lon="8.813524015122415"><ele>116.0</ele><time>2026-05-02T16:11:18Z</time></trkpt><trkpt lat="39.607745079783854" lon="8.813906274455565"><ele>115.5</ele><time>2026-05-02T16:11:19Z</time></trkpt><trkpt lat="39.607552302414746" lon="8.814297416028765"><ele>115.0</ele><time>2026-05-02T16:11:20Z</time></trkpt><trkpt lat="39.607365839991125" lon="8.814701483529225"><ele>116.5</ele><time>2026-05-02T16:11:21Z</time></trkpt><trkpt lat="39.60717992745727" lon="8.815115793340441"><ele>118.0</ele><time>2026-05-02T16:11:22Z</time></trkpt><trkpt lat="39.60698841896351" lon="8.815560606497439"><ele>119.5</ele><time>2026-05-02T16:11:23Z</time></trkpt><trkpt lat="39.60681212297534" lon="8.81599043109719"><ele>121.0</ele><time>2026-05-02T16:11:24Z</time></trkpt><trkpt lat="39.606650893940184" lon="8.816405023184958"><ele>121.0</ele><time>2026-05-02T16:11:25Z</time></trkpt><trkpt lat="39.60651477733098" lon="8.816797323771285"><ele>121.0</ele><time>2026-05-02T16:11:26Z</time></trkpt><trkpt lat="39.60640016663185" lon="8.817161204293127"><ele>121.0</ele><time>2026-05-02T16:11:27Z</time></trkpt><trkpt lat="39.60630072457599" lon="8.817513080248299"><ele>121.0</ele><time>2026-05-02T16:11:28Z</time></trkpt><trkpt lat="39.60620388025963" lon="8.817870976337893"><ele>122.0</ele><time>2026-05-02T16:11:29Z</time></trkpt><trkpt lat="39.60610745747536" lon="8.818188104931352"><ele>123.0</ele><time>2026-05-02T16:11:30Z</time></trkpt><trkpt lat="39.60602591440809" lon="8.818464540331508"><ele>123.0</ele><time>2026-05-02T16:11:31Z</time></trkpt><trkpt lat="39.60595013889669" lon="8.818712687801414"><ele>123.0</ele><time>2026-05-02T16:11:32Z</time></trkpt><trkpt lat="39.60587308088997" lon="8.818906303128687"><ele>123.0</ele><time>2026-05-02T16:11:33Z</time></trkpt><trkpt lat="39.60576313510357" lon="8.819072688242658"><ele>123.0</ele><time>2026-05-02T16:11:34Z</time></trkpt><trkpt lat="39.605619417178886" lon="8.819212398108496"><ele>123.0</ele><time>2026-05-02T16:11:35Z</time></trkpt><trkpt lat="39.60545813748421" lon="8.81931701518226"><ele>123.0</ele><time>2026-05-02T16:11:36Z</time></trkpt><trkpt lat="39.60528455030073" lon="8.819363024199607"><ele>124.33333333333334</ele><time>2026-05-02T16:11:37Z</time></trkpt><trkpt lat="39.6051148322892" lon="8.81934899717125"><ele>125.66666666666667</ele><time>2026-05-02T16:11:38Z</time></trkpt><trkpt lat="39.60495771050997" lon="8.819266122759272"><ele>127.0</ele><time>2026-05-02T16:11:39Z</time></trkpt><trkpt lat="39.60480844962197" lon="8.819120065797609"><ele>128.33333333333334</ele><time>2026-05-02T16:11:39.999Z</time></trkpt><trkpt lat="39.604694510173005" lon="8.818935545880107"><ele>129.66666666666666</ele><time>2026-05-02T16:11:40.999Z</time></trkpt><trkpt lat="39.60462752584659" lon="8.818742433109861"><ele>131.0</ele><time>2026-05-02T16:11:41.999Z</time></trkpt><trkpt lat="39.60460599105451" lon="8.818536796465951"><ele>131.0</ele><time>2026-05-02T16:11:42.999Z</time></trkpt><trkpt lat="39.60462339700621" lon="8.818324776126488"><ele>131.0</ele><time>2026-05-02T16:11:43.999Z</time></trkpt><trkpt lat="39.60466143307678" lon="8.81812936742594"><ele>131.0</ele><time>2026-05-02T16:11:44.999Z</time></trkpt><trkpt lat="39.604697760222635" lon="8.817970798127002"><ele>131.0</ele><time>2026-05-02T16:11:45.999Z</time></trkpt><trkpt lat="39.60472781083187" lon="8.817854534158363"><ele>131.0</ele><time>2026-05-02T16:11:46.999Z</time></trkpt><trkpt lat="39.60476522788627" lon="8.817778770701237"><ele>131.0</ele><time>2026-05-02T16:11:47.999Z</time></trkpt><trkpt lat="39.60482287935273" lon="8.817731804757571"><ele>131.0</ele><time>2026-05-02T16:11:48.999Z</time></trkpt><trkpt lat="39.604885308487184" lon="8.817692170895679"><ele>131.0</ele><time>2026-05-02T16:11:49.999Z</time></trkpt><trkpt lat="39.60495882027428" lon="8.817658957839457"><ele>131.0</ele><time>2026-05-02T16:11:50.999Z</time></trkpt><trkpt lat="39.60505107590786" lon="8.817648250935148"><ele>131.0</ele><time>2026-05-02T16:11:51.999Z</time></trkpt><trkpt lat="39.605158543225386" lon="8.817671124093147"><ele>131.0</ele><time>2026-05-02T16:11:52.999Z</time></trkpt><trkpt lat="39.60527619405991" lon="8.817718440995359"><ele>131.0</ele><time>2026-05-02T16:11:53.999Z</time></trkpt><trkpt lat="39.605401410232716" lon="8.817778016462396"><ele>131.0</ele><time>2026-05-02T16:11:54.999Z</time></trkpt><trkpt lat="39.60553291644798" lon="8.81783402317737"><ele>131.0</ele><time>2026-05-02T16:11:55.999Z</time></trkpt><trkpt lat="39.605661449516354" lon="8.817878030959704"><ele>129.0</ele><time>2026-05-02T16:11:56.999Z</time></trkpt><trkpt lat="39.60578967094017" lon="8.817925660013668"><ele>127.0</ele><time>2026-05-02T16:11:57.999Z</time></trkpt><trkpt lat="39.60591606240713" lon="8.817991514636825"><ele>125.0</ele><time>2026-05-02T16:11:58.999Z</time></trkpt><trkpt lat="39.60604361850214" lon="8.818076949871728"><ele>123.0</ele><time>2026-05-02T16:12:00Z</time></trkpt><trkpt lat="39.60618784155168" lon="8.818149364262442"><ele>122.33333333333334</ele><time>2026-05-02T16:12:01Z</time></trkpt><trkpt lat="39.60633105165138" lon="8.818221920116196"><ele>121.66666666666667</ele><time>2026-05-02T16:12:02Z</time></trkpt><trkpt lat="39.60647943696418" lon="8.818297701491817"><ele>121.0</ele><time>2026-05-02T16:12:03Z</time></trkpt><trkpt lat="39.60663203842407" lon="8.818377037031262"><ele>121.0</ele><time>2026-05-02T16:12:04Z</time></trkpt><trkpt lat="39.60678415248951" lon="8.81846023481019"><ele>121.0</ele><time>2026-05-02T16:12:05Z</time></trkpt><trkpt lat="39.60694146072592" lon="8.818546824903233"><ele>121.0</ele><time>2026-05-02T16:12:06Z</time></trkpt><trkpt lat="39.60710280831708" lon="8.818631580219249"><ele>121.33333333333334</ele><time>2026-05-02T16:12:07Z</time></trkpt><trkpt lat="39.60726756200447" lon="8.81872011513479"><ele>121.66666666666666</ele><time>2026-05-02T16:12:08Z</time></trkpt><trkpt lat="39.60743389212308" lon="8.818801483989732"><ele>122.0</ele><time>2026-05-02T16:12:09Z</time></trkpt><trkpt lat="39.607599813948504" lon="8.81888676284925"><ele>122.0</ele><time>2026-05-02T16:12:10Z</time></trkpt><trkpt lat="39.60777469255139" lon="8.818967085152584"><ele>122.0</ele><time>2026-05-02T16:12:11Z</time></trkpt><trkpt lat="39.60796016746025" lon="8.819061292995631"><ele>122.0</ele><time>2026-05-02T16:12:12Z</time></trkpt><trkpt lat="39.608147958140286" lon="8.819153722601063"><ele>122.0</ele><time>2026-05-02T16:12:13Z</time></trkpt><trkpt lat="39.60833540529794" lon="8.819257471546896"><ele>122.0</ele><time>2026-05-02T16:12:14Z</time></trkpt><trkpt lat="39.60852100251548" lon="8.819354879565875"><ele>122.0</ele><time>2026-05-02T16:12:15Z</time></trkpt><trkpt lat="39.608705180856646" lon="8.819444783408422"><ele>123.0</ele><time>2026-05-02T16:12:16Z</time></trkpt><trkpt lat="39.608874031134185" lon="8.81953670524012"><ele>124.0</ele><time>2026-05-02T16:12:17Z</time></trkpt><trkpt lat="39.6090233788509" lon="8.819609159602145"><ele>125.0</ele><time>2026-05-02T16:12:18Z</time></trkpt><trkpt lat="39.60915726611962" lon="8.819682457563736"><ele>125.0</ele><time>2026-05-02T16:12:19Z</time></trkpt><trkpt lat="39.60927079459997" lon="8.819767663971348"><ele>125.0</ele><time>2026-05-02T16:12:20Z</time></trkpt><trkpt lat="39.609346926697796" lon="8.819865662424291"><ele>125.0</ele><time>2026-05-02T16:12:21Z</time></trkpt><trkpt lat="39.609401980555624" lon="8.819957753717107"><ele>125.0</ele><time>2026-05-02T16:12:22Z</time></trkpt><trkpt lat="39.609463948650955" lon="8.820032262685134"><ele>125.0</ele><time>2026-05-02T16:12:23Z</time></trkpt><trkpt lat="39.60953300851381" lon="8.820091558183252"><ele>125.49999999999999</ele><time>2026-05-02T16:12:24Z</time></trkpt><trkpt lat="39.60960856852831" lon="8.82012234928931"><ele>126.0</ele><time>2026-05-02T16:12:25Z</time></trkpt><trkpt lat="39.60968476718349" lon="8.820117388573895"><ele>126.5</ele><time>2026-05-02T16:12:26Z</time></trkpt><trkpt lat="39.60975238018767" lon="8.82007510620238"><ele>127.0</ele><time>2026-05-02T16:12:27Z</time></trkpt><trkpt lat="39.60980711160153" lon="8.819998163458397"><ele>127.49999999999999</ele><time>2026-05-02T16:12:28Z</time></trkpt><trkpt lat="39.60984805744423" lon="8.81987893560315"><ele>128.0</ele><time>2026-05-02T16:12:29Z</time></trkpt><trkpt lat="39.60987644113879" lon="8.819724172756876"><ele>128.0</ele><time>2026-05-02T16:12:30Z</time></trkpt><trkpt lat="39.60990428413158" lon="8.819549353310359"><ele>128.0</ele><time>2026-05-02T16:12:31Z</time></trkpt><trkpt lat="39.60995336450903" lon="8.819383279185436"><ele>128.0</ele><time>2026-05-02T16:12:32Z</time></trkpt><trkpt lat="39.6100207666727" lon="8.819203961594495"><ele>128.0</ele><time>2026-05-02T16:12:33Z</time></trkpt><trkpt lat="39.61009039200622" lon="8.819001542918869"><ele>127.33333333333333</ele><time>2026-05-02T16:12:34Z</time></trkpt><trkpt lat="39.61015907584529" lon="8.818789880933457"><ele>126.66666666666666</ele><time>2026-05-02T16:12:35Z</time></trkpt><trkpt lat="39.61022988265102" lon="8.818566170222981"><ele>126.0</ele><time>2026-05-02T16:12:36Z</time></trkpt><trkpt lat="39.61030646453257" lon="8.818346813302792"><ele>127.0</ele><time>2026-05-02T16:12:37Z</time></trkpt><trkpt lat="39.61039127403046" lon="8.818130245445033"><ele>128.0</ele><time>2026-05-02T16:12:38Z</time></trkpt><trkpt lat="39.61048732714725" lon="8.81791352561465"><ele>129.0</ele><time>2026-05-02T16:12:39Z</time></trkpt><trkpt lat="39.6106005769662" lon="8.817686085685182"><ele>128.66666666666666</ele><time>2026-05-02T16:12:40Z</time></trkpt><trkpt lat="39.610722265712255" lon="8.817451375829641"><ele>128.33333333333331</ele><time>2026-05-02T16:12:41Z</time></trkpt><trkpt lat="39.610843859404106" lon="8.817220458536008"><ele>128.0</ele><time>2026-05-02T16:12:42Z</time></trkpt><trkpt lat="39.610964081616814" lon="8.817012072279056"><ele>128.0</ele><time>2026-05-02T16:12:43Z</time></trkpt><trkpt lat="39.6110800196551" lon="8.816823165552558"><ele>128.0</ele><time>2026-05-02T16:12:44Z</time></trkpt><trkpt lat="39.611183654978944" lon="8.81662827236979"><ele>128.0</ele><time>2026-05-02T16:12:45Z</time></trkpt><trkpt lat="39.61127908295931" lon="8.816418145463464"><ele>128.0</ele><time>2026-05-02T16:12:46Z</time></trkpt><trkpt lat="39.61138123526657" lon="8.81622193887088"><ele>128.0</ele><time>2026-05-02T16:12:47Z</time></trkpt><trkpt lat="39.61150199678766" lon="8.816011234753818"><ele>128.0</ele><time>2026-05-02T16:12:48Z</time></trkpt><trkpt lat="39.611630605858544" lon="8.815795796262622"><ele>127.33333333333333</ele><time>2026-05-02T16:12:49Z</time></trkpt><trkpt lat="39.611761658657436" lon="8.81556934700748"><ele>126.66666666666666</ele><time>2026-05-02T16:12:50Z</time></trkpt><trkpt lat="39.61189954287523" lon="8.815340909505103"><ele>126.0</ele><time>2026-05-02T16:12:51Z</time></trkpt><trkpt lat="39.61204406445681" lon="8.8151100218953"><ele>126.0</ele><time>2026-05-02T16:12:52Z</time></trkpt><trkpt lat="39.61219084616811" lon="8.814877652278229"><ele>126.0</ele><time>2026-05-02T16:12:53Z</time></trkpt><trkpt lat="39.61234354896757" lon="8.814650992050202"><ele>126.0</ele><time>2026-05-02T16:12:54Z</time></trkpt><trkpt lat="39.61249961283184" lon="8.814435386500168"><ele>126.0</ele><time>2026-05-02T16:12:55Z</time></trkpt><trkpt lat="39.61266210635553" lon="8.814232221053121"><ele>127.0</ele><time>2026-05-02T16:12:56Z</time></trkpt><trkpt lat="39.61282748693888" lon="8.814035837178794"><ele>128.0</ele><time>2026-05-02T16:12:57Z</time></trkpt><trkpt lat="39.61299865711089" lon="8.813852382280585"><ele>129.0</ele><time>2026-05-02T16:12:58Z</time></trkpt><trkpt lat="39.61317233919174" lon="8.813672161707343"><ele>129.0</ele><time>2026-05-02T16:12:59Z</time></trkpt><trkpt lat="39.613347967249936" lon="8.8135020963133"><ele>129.0</ele><time>2026-05-02T16:13:00Z</time></trkpt><trkpt lat="39.613529562992476" lon="8.813336162791536"><ele>129.0</ele><time>2026-05-02T16:13:01Z</time></trkpt><trkpt lat="39.61371336952154" lon="8.813177114123295"><ele>129.33333333333334</ele><time>2026-05-02T16:13:02Z</time></trkpt><trkpt lat="39.61389967656341" lon="8.813020899929652"><ele>129.66666666666669</ele><time>2026-05-02T16:13:03Z</time></trkpt><trkpt lat="39.6140886145893" lon="8.812869750216697"><ele>130.0</ele><time>2026-05-02T16:13:04Z</time></trkpt><trkpt lat="39.61428237194684" lon="8.812719519869988"><ele>131.0</ele><time>2026-05-02T16:13:05Z</time></trkpt><trkpt lat="39.61447442747382" lon="8.812568336257707"><ele>132.0</ele><time>2026-05-02T16:13:06Z</time></trkpt><trkpt lat="39.61466621539241" lon="8.812413968120511"><ele>132.0</ele><time>2026-05-02T16:13:07Z</time></trkpt><trkpt lat="39.61486255434368" lon="8.812259544042892"><ele>132.0</ele><time>2026-05-02T16:13:08Z</time></trkpt><trkpt lat="39.6150604936992" lon="8.812099319678937"><ele>132.0</ele><time>2026-05-02T16:13:09Z</time></trkpt><trkpt lat="39.61525819752298" lon="8.811938530345534"><ele>132.0</ele><time>2026-05-02T16:13:10Z</time></trkpt><trkpt lat="39.61545753946877" lon="8.811778451793142"><ele>131.5</ele><time>2026-05-02T16:13:11Z</time></trkpt><trkpt lat="39.61566690517668" lon="8.81161341291649"><ele>131.0</ele><time>2026-05-02T16:13:12Z</time></trkpt><trkpt lat="39.61588550953976" lon="8.811442127628839"><ele>131.0</ele><time>2026-05-02T16:13:13Z</time></trkpt><trkpt lat="39.61610607631123" lon="8.811265182766679"><ele>131.0</ele><time>2026-05-02T16:13:14Z</time></trkpt><trkpt lat="39.61632546025066" lon="8.811087848101812"><ele>132.0</ele><time>2026-05-02T16:13:15Z</time></trkpt><trkpt lat="39.61654668513919" lon="8.810913232195313"><ele>133.0</ele><time>2026-05-02T16:13:16Z</time></trkpt><trkpt lat="39.61675611263702" lon="8.810754878247716"><ele>133.0</ele><time>2026-05-02T16:13:17Z</time></trkpt><trkpt lat="39.61696310416294" lon="8.810592554298315"><ele>133.0</ele><time>2026-05-02T16:13:18Z</time></trkpt><trkpt lat="39.617168954761055" lon="8.810436005244755"><ele>133.0</ele><time>2026-05-02T16:13:19Z</time></trkpt><trkpt lat="39.61735967388848" lon="8.810290097101007"><ele>133.0</ele><time>2026-05-02T16:13:20Z</time></trkpt><trkpt lat="39.61753238394899" lon="8.810146227168342"><ele>133.0</ele><time>2026-05-02T16:13:21Z</time></trkpt><trkpt lat="39.617689599075014" lon="8.810002509001073"><ele>134.66666666666669</ele><time>2026-05-02T16:13:22Z</time></trkpt><trkpt lat="39.61784115870148" lon="8.809860040769259"><ele>136.33333333333334</ele><time>2026-05-02T16:13:23Z</time></trkpt><trkpt lat="39.61797920584297" lon="8.809721659652311"><ele>138.0</ele><time>2026-05-02T16:13:24Z</time></trkpt><trkpt lat="39.618098462650785" lon="8.809591500414438"><ele>138.0</ele><time>2026-05-02T16:13:25Z</time></trkpt><trkpt lat="39.61819851245033" lon="8.80947991162318"><ele>138.0</ele><time>2026-05-02T16:13:26Z</time></trkpt><trkpt lat="39.61828030357422" lon="8.809388637153681"><ele>138.0</ele><time>2026-05-02T16:13:27Z</time></trkpt><trkpt lat="39.61834229089038" lon="8.809309124897315"><ele>138.0</ele><time>2026-05-02T16:13:28Z</time></trkpt><trkpt lat="39.61837609144331" lon="8.809225156119817"><ele>138.0</ele><time>2026-05-02T16:13:29Z</time></trkpt><trkpt lat="39.61836881514356" lon="8.809140193775551"><ele>137.20000000000002</ele><time>2026-05-02T16:13:30Z</time></trkpt><trkpt lat="39.6183084012103" lon="8.809059179840702"><ele>136.4</ele><time>2026-05-02T16:13:31Z</time></trkpt><trkpt lat="39.61823215704844" lon="8.808986023085788"><ele>135.60000000000002</ele><time>2026-05-02T16:13:32Z</time></trkpt><trkpt lat="39.618130049477536" lon="8.808888332064539"><ele>134.8</ele><time>2026-05-02T16:13:33Z</time></trkpt><trkpt lat="39.6180343023759" lon="8.808767742775126"><ele>134.0</ele><time>2026-05-02T16:13:34Z</time></trkpt><trkpt lat="39.61793675347156" lon="8.808600639718804"><ele>133.66666666666666</ele><time>2026-05-02T16:13:35Z</time></trkpt><trkpt lat="39.61784440467523" lon="8.808439261557993"><ele>133.33333333333334</ele><time>2026-05-02T16:13:36Z</time></trkpt><trkpt lat="39.617737518110836" lon="8.80830662116868"><ele>133.0</ele><time>2026-05-02T16:13:37Z</time></trkpt><trkpt lat="39.61762409740288" lon="8.808179052018186"><ele>131.75</ele><time>2026-05-02T16:13:38Z</time></trkpt><trkpt lat="39.61752538509947" lon="8.80804518398826"><ele>130.5</ele><time>2026-05-02T16:13:39Z</time></trkpt><trkpt lat="39.61743390204926" lon="8.807898438313892"><ele>129.25</ele><time>2026-05-02T16:13:40Z</time></trkpt><trkpt lat="39.61734609768569" lon="8.807726832733147"><ele>128.0</ele><time>2026-05-02T16:13:41Z</time></trkpt><trkpt lat="39.61725261807541" lon="8.807525691181926"><ele>127.33333333333333</ele><time>2026-05-02T16:13:42Z</time></trkpt><trkpt lat="39.61717205002447" lon="8.80731246778297"><ele>126.66666666666666</ele><time>2026-05-02T16:13:43Z</time></trkpt><trkpt lat="39.61710169985725" lon="8.80707327287699"><ele>126.0</ele><time>2026-05-02T16:13:44Z</time></trkpt><trkpt lat="39.61704359964742" lon="8.806817301929962"><ele>125.0</ele><time>2026-05-02T16:13:45Z</time></trkpt><trkpt lat="39.61699782013235" lon="8.806551817069359"><ele>124.0</ele><time>2026-05-02T16:13:45.999Z</time></trkpt><trkpt lat="39.61695596411967" lon="8.806272844598727"><ele>123.0</ele><time>2026-05-02T16:13:46.999Z</time></trkpt><trkpt lat="39.61690553555949" lon="8.805990743405761"><ele>122.0</ele><time>2026-05-02T16:13:47.999Z</time></trkpt><trkpt lat="39.616848238784925" lon="8.805720008219598"><ele>121.0</ele><time>2026-05-02T16:13:48.999Z</time></trkpt><trkpt lat="39.61679214785471" lon="8.805450135621829"><ele>120.0</ele><time>2026-05-02T16:13:49.999Z</time></trkpt><trkpt lat="39.6167382879045" lon="8.805170349175569"><ele>119.33333333333334</ele><time>2026-05-02T16:13:50.999Z</time></trkpt><trkpt lat="39.616687103676945" lon="8.804889705214533"><ele>118.66666666666667</ele><time>2026-05-02T16:13:51.999Z</time></trkpt><trkpt lat="39.61664233456439" lon="8.804605419946006"><ele>118.0</ele><time>2026-05-02T16:13:52.999Z</time></trkpt><trkpt lat="39.61661637104874" lon="8.804315329255111"><ele>117.5</ele><time>2026-05-02T16:13:53.999Z</time></trkpt><trkpt lat="39.616626140018965" lon="8.80401825260512"><ele>117.0</ele><time>2026-05-02T16:13:55Z</time></trkpt><trkpt lat="39.616665098263844" lon="8.803724158181168"><ele>115.0</ele><time>2026-05-02T16:13:56Z</time></trkpt><trkpt lat="39.61672141525784" lon="8.803423732090673"><ele>113.0</ele><time>2026-05-02T16:13:57Z</time></trkpt><trkpt lat="39.61677251006401" lon="8.803125707661728"><ele>113.0</ele><time>2026-05-02T16:13:58Z</time></trkpt><trkpt lat="39.61682465680011" lon="8.802823672153842"><ele>113.0</ele><time>2026-05-02T16:13:59Z</time></trkpt><trkpt lat="39.61687813556685" lon="8.802531811769056"><ele>112.0</ele><time>2026-05-02T16:14:00Z</time></trkpt><trkpt lat="39.61692622734479" lon="8.802248119932107"><ele>111.0</ele><time>2026-05-02T16:14:01Z</time></trkpt><trkpt lat="39.61696754788301" lon="8.801961764334598"><ele>110.0</ele><time>2026-05-02T16:14:02Z</time></trkpt><trkpt lat="39.61700626019195" lon="8.801686575393237"><ele>109.33333333333333</ele><time>2026-05-02T16:14:03Z</time></trkpt><trkpt lat="39.617039550104295" lon="8.801439862214309"><ele>108.66666666666666</ele><time>2026-05-02T16:14:04Z</time></trkpt><trkpt lat="39.61705876121574" lon="8.801198331208955"><ele>108.0</ele><time>2026-05-02T16:14:05Z</time></trkpt><trkpt lat="39.61706577877837" lon="8.80095351878627"><ele>107.33333333333334</ele><time>2026-05-02T16:14:06Z</time></trkpt><trkpt lat="39.617056296067624" lon="8.800706392737217"><ele>106.66666666666667</ele><time>2026-05-02T16:14:07Z</time></trkpt><trkpt lat="39.61704158705792" lon="8.800471683486167"><ele>106.0</ele><time>2026-05-02T16:14:08Z</time></trkpt><trkpt lat="39.61702289841454" lon="8.800257239665529"><ele>105.75</ele><time>2026-05-02T16:14:09Z</time></trkpt><trkpt lat="39.61699561049437" lon="8.800050089092512"><ele>105.5</ele><time>2026-05-02T16:14:10Z</time></trkpt><trkpt lat="39.61696368136019" lon="8.799869775143165"><ele>105.25</ele><time>2026-05-02T16:14:11Z</time></trkpt><trkpt lat="39.616946744509235" lon="8.799732320333"><ele>105.0</ele><time>2026-05-02T16:14:12Z</time></trkpt><trkpt lat="39.616930462235054" lon="8.799621644590056"><ele>105.6</ele><time>2026-05-02T16:14:13Z</time></trkpt><trkpt lat="39.61687789836784" lon="8.799530686309224"><ele>106.2</ele><time>2026-05-02T16:14:14Z</time></trkpt><trkpt lat="39.61679206014791" lon="8.799462849468346"><ele>106.80000000000001</ele><time>2026-05-02T16:14:15Z</time></trkpt><trkpt lat="39.616676979472444" lon="8.799413420697228"><ele>107.4</ele><time>2026-05-02T16:14:16Z</time></trkpt><trkpt lat="39.61655182692508" lon="8.799344953958288"><ele>108.0</ele><time>2026-05-02T16:14:17Z</time></trkpt><trkpt lat="39.616437390186576" lon="8.799240705170428"><ele>108.0</ele><time>2026-05-02T16:14:18Z</time></trkpt><trkpt lat="39.616325468383394" lon="8.799098896288363"><ele>108.0</ele><time>2026-05-02T16:14:19Z</time></trkpt><trkpt lat="39.61621136087981" lon="8.798930912523563"><ele>108.0</ele><time>2026-05-02T16:14:20Z</time></trkpt><trkpt lat="39.61609276385549" lon="8.79876064282538"><ele>108.66666666666666</ele><time>2026-05-02T16:14:21Z</time></trkpt><trkpt lat="39.6159874461904" lon="8.798598921609168"><ele>109.33333333333333</ele><time>2026-05-02T16:14:22Z</time></trkpt><trkpt lat="39.61589191528134" lon="8.798424324951894"><ele>110.0</ele><time>2026-05-02T16:14:23Z</time></trkpt><trkpt lat="39.615805580827306" lon="8.798231110564755"><ele>108.0</ele><time>2026-05-02T16:14:24Z</time></trkpt><trkpt lat="39.61572274981982" lon="8.798022840203489"><ele>106.0</ele><time>2026-05-02T16:14:25Z</time></trkpt><trkpt lat="39.615637561568285" lon="8.797811766235679"><ele>104.0</ele><time>2026-05-02T16:14:26Z</time></trkpt><trkpt lat="39.61554369142451" lon="8.797590769629817"><ele>103.33333333333333</ele><time>2026-05-02T16:14:27Z</time></trkpt><trkpt lat="39.61544322515616" lon="8.797359880548994"><ele>102.66666666666666</ele><time>2026-05-02T16:14:28Z</time></trkpt><trkpt lat="39.61534668932247" lon="8.79712577921957"><ele>102.0</ele><time>2026-05-02T16:14:29Z</time></trkpt><trkpt lat="39.6152458756693" lon="8.796891361812646"><ele>99.0</ele><time>2026-05-02T16:14:30Z</time></trkpt><trkpt lat="39.61514539610599" lon="8.796644815150987"><ele>96.0</ele><time>2026-05-02T16:14:31Z</time></trkpt><trkpt lat="39.61503694329935" lon="8.796391763758916"><ele>93.0</ele><time>2026-05-02T16:14:32Z</time></trkpt><trkpt lat="39.61493033463654" lon="8.796141232674394"><ele>92.66666666666667</ele><time>2026-05-02T16:14:33Z</time></trkpt><trkpt lat="39.61482036944603" lon="8.795896712064781"><ele>92.33333333333334</ele><time>2026-05-02T16:14:34Z</time></trkpt><trkpt lat="39.61470708723678" lon="8.795649414513239"><ele>92.0</ele><time>2026-05-02T16:14:35Z</time></trkpt><trkpt lat="39.61459321810868" lon="8.795398104497403"><ele>92.5</ele><time>2026-05-02T16:14:36Z</time></trkpt><trkpt lat="39.614477732335615" lon="8.795137071800186"><ele>93.0</ele><time>2026-05-02T16:14:37Z</time></trkpt><trkpt lat="39.61435491461736" lon="8.794877217481536"><ele>93.0</ele><time>2026-05-02T16:14:38Z</time></trkpt><trkpt lat="39.61422503642408" lon="8.794613859435199"><ele>93.0</ele><time>2026-05-02T16:14:39Z</time></trkpt><trkpt lat="39.61409281300146" lon="8.794349805363902"><ele>93.0</ele><time>2026-05-02T16:14:40Z</time></trkpt><trkpt lat="39.61395696534013" lon="8.794079459897358"><ele>93.0</ele><time>2026-05-02T16:14:41Z</time></trkpt><trkpt lat="39.613828569267405" lon="8.793819393737389"><ele>93.0</ele><time>2026-05-02T16:14:42Z</time></trkpt><trkpt lat="39.61370303117022" lon="8.793563037099748"><ele>93.0</ele><time>2026-05-02T16:14:43Z</time></trkpt><trkpt lat="39.61359413076213" lon="8.793296592241308"><ele>94.5</ele><time>2026-05-02T16:14:44Z</time></trkpt><trkpt lat="39.61350821364115" lon="8.793017437194411"><ele>96.0</ele><time>2026-05-02T16:14:45Z</time></trkpt><trkpt lat="39.61344692548634" lon="8.792721568883119"><ele>95.5</ele><time>2026-05-02T16:14:46Z</time></trkpt><trkpt lat="39.61340578647575" lon="8.792429354469405"><ele>95.0</ele><time>2026-05-02T16:14:47Z</time></trkpt><trkpt lat="39.61336020858227" lon="8.792139807921094"><ele>95.0</ele><time>2026-05-02T16:14:48Z</time></trkpt><trkpt lat="39.61331605837259" lon="8.791858603537529"><ele>95.0</ele><time>2026-05-02T16:14:49Z</time></trkpt><trkpt lat="39.61327747348141" lon="8.791595861983497"><ele>95.0</ele><time>2026-05-02T16:14:50Z</time></trkpt><trkpt lat="39.61325291485054" lon="8.791352311767794"><ele>95.33333333333334</ele><time>2026-05-02T16:14:51Z</time></trkpt><trkpt lat="39.613231374140724" lon="8.79112760014009"><ele>95.66666666666667</ele><time>2026-05-02T16:14:52Z</time></trkpt><trkpt lat="39.61321033494883" lon="8.790926572526173"><ele>96.0</ele><time>2026-05-02T16:14:53Z</time></trkpt><trkpt lat="39.61318964972831" lon="8.790737066827965"><ele>96.5</ele><time>2026-05-02T16:14:54Z</time></trkpt><trkpt lat="39.61317314742015" lon="8.790550745757375"><ele>97.0</ele><time>2026-05-02T16:14:55Z</time></trkpt><trkpt lat="39.61315714480362" lon="8.790375086352968"><ele>97.5</ele><time>2026-05-02T16:14:56Z</time></trkpt><trkpt lat="39.613143110280404" lon="8.790217820942"><ele>98.0</ele><time>2026-05-02T16:14:57Z</time></trkpt><trkpt lat="39.61312633291318" lon="8.790080791273464"><ele>98.0</ele><time>2026-05-02T16:14:58Z</time></trkpt><trkpt lat="39.61311789777458" lon="8.789965993661303"><ele>98.0</ele><time>2026-05-02T16:14:59Z</time></trkpt><trkpt lat="39.613104615810414" lon="8.789859336473542"><ele>98.0</ele><time>2026-05-02T16:15:00Z</time></trkpt><trkpt lat="39.61309068531201" lon="8.789745558520151"><ele>98.0</ele><time>2026-05-02T16:15:01Z</time></trkpt><trkpt lat="39.61308405218204" lon="8.789626107232015"><ele>98.0</ele><time>2026-05-02T16:15:02Z</time></trkpt><trkpt lat="39.61307310187711" lon="8.789500539641056"><ele>98.0</ele><time>2026-05-02T16:15:03Z</time></trkpt><trkpt lat="39.61305984156705" lon="8.78937404178398"><ele>98.0</ele><time>2026-05-02T16:15:04Z</time></trkpt><trkpt lat="39.61304919026736" lon="8.789241435207181"><ele>98.0</ele><time>2026-05-02T16:15:05Z</time></trkpt><trkpt lat="39.61303045692282" lon="8.789115865310265"><ele>98.0</ele><time>2026-05-02T16:15:06Z</time></trkpt><trkpt lat="39.61301528629675" lon="8.788994161756513"><ele>98.0</ele><time>2026-05-02T16:15:07Z</time></trkpt><trkpt lat="39.61300065157195" lon="8.788876061809049"><ele>97.99999999999999</ele><time>2026-05-02T16:15:08Z</time></trkpt><trkpt lat="39.612983644839666" lon="8.788750065215293"><ele>98.0</ele><time>2026-05-02T16:15:09Z</time></trkpt><trkpt lat="39.61295743808087" lon="8.788624422221309"><ele>98.0</ele><time>2026-05-02T16:15:10Z</time></trkpt><trkpt lat="39.612937683991895" lon="8.788513889484726"><ele>98.0</ele><time>2026-05-02T16:15:11Z</time></trkpt><trkpt lat="39.61291822672544" lon="8.788415282873821"><ele>97.99999999999999</ele><time>2026-05-02T16:15:12Z</time></trkpt><trkpt lat="39.61290358381293" lon="8.788324956887049"><ele>98.0</ele><time>2026-05-02T16:15:13Z</time></trkpt><trkpt lat="39.61288390903769" lon="8.78823562732655"><ele>97.99999999999999</ele><time>2026-05-02T16:15:14Z</time></trkpt><trkpt lat="39.612863549728516" lon="8.788152980574909"><ele>98.0</ele><time>2026-05-02T16:15:15Z</time></trkpt><trkpt lat="39.61283375793334" lon="8.788069062815236"><ele>98.0</ele><time>2026-05-02T16:15:16Z</time></trkpt><trkpt lat="39.61280570864297" lon="8.787993852571114"><ele>98.0</ele><time>2026-05-02T16:15:17Z</time></trkpt><trkpt lat="39.612745955858955" lon="8.787864006960026"><ele>97.99999999999999</ele><time>2026-05-02T16:15:19Z</time></trkpt><trkpt lat="39.61267832597867" lon="8.787722130849353"><ele>98.0</ele><time>2026-05-02T16:15:21Z</time></trkpt><trkpt lat="39.61264222309715" lon="8.787642375703692"><ele>96.33333333333333</ele><time>2026-05-02T16:15:22Z</time></trkpt><trkpt lat="39.612606661680566" lon="8.787553296667573"><ele>94.66666666666666</ele><time>2026-05-02T16:15:23Z</time></trkpt><trkpt lat="39.61256708223442" lon="8.787459136528906"><ele>93.0</ele><time>2026-05-02T16:15:24Z</time></trkpt><trkpt lat="39.612521689275404" lon="8.787372107994416"><ele>91.33333333333333</ele><time>2026-05-02T16:15:25Z</time></trkpt><trkpt lat="39.61247930748395" lon="8.787288197751923"><ele>89.66666666666666</ele><time>2026-05-02T16:15:26Z</time></trkpt><trkpt lat="39.612442106247116" lon="8.787206419626424"><ele>88.0</ele><time>2026-05-02T16:15:27Z</time></trkpt><trkpt lat="39.61241182062261" lon="8.78713151725891"><ele>88.0</ele><time>2026-05-02T16:15:28Z</time></trkpt><trkpt lat="39.6123623875399" lon="8.787022838936805"><ele>88.0</ele><time>2026-05-02T16:15:30Z</time></trkpt><trkpt lat="39.612301240862415" lon="8.78697742251702"><ele>88.0</ele><time>2026-05-02T16:15:32Z</time></trkpt><trkpt lat="39.612233609313854" lon="8.786994320071035"><ele>88.0</ele><time>2026-05-02T16:15:35Z</time></trkpt><trkpt lat="39.6121523614603" lon="8.787048395160463"><ele>88.0</ele><time>2026-05-02T16:15:38Z</time></trkpt><trkpt lat="39.612073928771004" lon="8.787098498243248"><ele>88.0</ele><time>2026-05-02T16:15:41Z</time></trkpt><trkpt lat="39.61200874335556" lon="8.787151433250758"><ele>88.0</ele><time>2026-05-02T16:15:44Z</time></trkpt><trkpt lat="39.61194059555281" lon="8.787196516205753"><ele>88.0</ele><time>2026-05-02T16:15:48Z</time></trkpt><trkpt lat="39.611893318223295" lon="8.787254021554363"><ele>88.0</ele><time>2026-05-02T16:15:51Z</time></trkpt><trkpt lat="39.611838514353835" lon="8.787326037764105"><ele>88.0</ele><time>2026-05-02T16:15:53Z</time></trkpt><trkpt lat="39.61181315050694" lon="8.787437049396816"><ele>88.0</ele><time>2026-05-02T16:15:55Z</time></trkpt><trkpt lat="39.611805058839046" lon="8.78753021996398"><ele>88.0</ele><time>2026-05-02T16:15:57Z</time></trkpt><trkpt lat="39.611811791378" lon="8.787614538905434"><ele>88.0</ele><time>2026-05-02T16:15:59Z</time></trkpt><trkpt lat="39.61183568699889" lon="8.787699862221922"><ele>87.4</ele><time>2026-05-02T16:16:01Z</time></trkpt><trkpt lat="39.61186937281714" lon="8.78778736177924"><ele>86.80000000000001</ele><time>2026-05-02T16:16:03Z</time></trkpt><trkpt lat="39.61190560645365" lon="8.787908282238241"><ele>86.2</ele><time>2026-05-02T16:16:05Z</time></trkpt><trkpt lat="39.61193983770972" lon="8.788044273068603"><ele>85.6</ele><time>2026-05-02T16:16:07Z</time></trkpt><trkpt lat="39.61193859990869" lon="8.788190474434547"><ele>85.0</ele><time>2026-05-02T16:16:09Z</time></trkpt><trkpt lat="39.61192114989838" lon="8.788322726181436"><ele>85.0</ele><time>2026-05-02T16:16:11Z</time></trkpt><trkpt lat="39.61189849368987" lon="8.788444673509806"><ele>85.0</ele><time>2026-05-02T16:16:13Z</time></trkpt><trkpt lat="39.611877432375486" lon="8.788577640978973"><ele>85.0</ele><time>2026-05-02T16:16:15Z</time></trkpt><trkpt lat="39.61187642964569" lon="8.788666387335741"><ele>85.0</ele><time>2026-05-02T16:16:16Z</time></trkpt><trkpt lat="39.61187589965602" lon="8.788748226304193"><ele>85.0</ele><time>2026-05-02T16:16:17Z</time></trkpt><trkpt lat="39.611852155862294" lon="8.788894845245073"><ele>85.0</ele><time>2026-05-02T16:16:19Z</time></trkpt><trkpt lat="39.611834352863724" lon="8.788975060288713"><ele>85.0</ele><time>2026-05-02T16:16:20Z</time></trkpt><trkpt lat="39.611822858516234" lon="8.789064380686716"><ele>85.0</ele><time>2026-05-02T16:16:21Z</time></trkpt><trkpt lat="39.61181095807851" lon="8.78915856554018"><ele>85.0</ele><time>2026-05-02T16:16:22Z</time></trkpt><trkpt lat="39.61178892815043" lon="8.789251019999488"><ele>85.0</ele><time>2026-05-02T16:16:23Z</time></trkpt><trkpt lat="39.61175432569989" lon="8.789336556062764"><ele>85.0</ele><time>2026-05-02T16:16:24Z</time></trkpt><trkpt lat="39.61170582416152" lon="8.789402856583415"><ele>85.0</ele><time>2026-05-02T16:16:25Z</time></trkpt><trkpt lat="39.611643541780374" lon="8.78944487018718"><ele>85.0</ele><time>2026-05-02T16:16:26Z</time></trkpt><trkpt lat="39.61157648217054" lon="8.789476297450882"><ele>85.0</ele><time>2026-05-02T16:16:27Z</time></trkpt><trkpt lat="39.61151166018239" lon="8.78947200439779"><ele>85.0</ele><time>2026-05-02T16:16:28Z</time></trkpt><trkpt lat="39.61140900560452" lon="8.78941274117194"><ele>85.0</ele><time>2026-05-02T16:16:30Z</time></trkpt><trkpt lat="39.61135637064712" lon="8.789343810514177"><ele>85.0</ele><time>2026-05-02T16:16:32Z</time></trkpt><trkpt lat="39.61129137573842" lon="8.7892450637291"><ele>85.0</ele><time>2026-05-02T16:19:03Z</time></trkpt><trkpt lat="39.61124896207517" lon="8.789184010083128"><ele>85.0</ele><time>2026-05-02T16:19:05Z</time></trkpt><trkpt lat="39.61121766416508" lon="8.789260842582063"><ele>85.4</ele><time>2026-05-02T16:19:08Z</time></trkpt><trkpt lat="39.61134887186427" lon="8.789344521942242"><ele>85.8</ele><time>2026-05-02T16:19:10Z</time></trkpt><trkpt lat="39.61142204954843" lon="8.78939967352304"><ele>86.19999999999999</ele><time>2026-05-02T16:19:11Z</time></trkpt><trkpt lat="39.61150154270683" lon="8.789458802232504"><ele>86.6</ele><time>2026-05-02T16:19:12Z</time></trkpt><trkpt lat="39.611580899797744" lon="8.789455244302067"><ele>87.0</ele><time>2026-05-02T16:19:13Z</time></trkpt><trkpt lat="39.61167137631603" lon="8.789408726949086"><ele>86.6</ele><time>2026-05-02T16:19:14Z</time></trkpt><trkpt lat="39.61175897572358" lon="8.789325052938834"><ele>86.19999999999999</ele><time>2026-05-02T16:19:15Z</time></trkpt><trkpt lat="39.611815989396455" lon="8.789236043284863"><ele>85.8</ele><time>2026-05-02T16:19:16Z</time></trkpt><trkpt lat="39.611852492920015" lon="8.789122659566578"><ele>85.4</ele><time>2026-05-02T16:19:17Z</time></trkpt><trkpt lat="39.61186699080861" lon="8.78899511517817"><ele>85.0</ele><time>2026-05-02T16:19:18Z</time></trkpt><trkpt lat="39.61189700764216" lon="8.788894275134814"><ele>85.0</ele><time>2026-05-02T16:19:19Z</time></trkpt><trkpt lat="39.61189799652743" lon="8.788761395923173"><ele>85.0</ele><time>2026-05-02T16:19:20Z</time></trkpt><trkpt lat="39.61190337055977" lon="8.788650472243486"><ele>85.0</ele><time>2026-05-02T16:19:21Z</time></trkpt><trkpt lat="39.611893107261885" lon="8.78854834753452"><ele>85.0</ele><time>2026-05-02T16:19:22Z</time></trkpt><trkpt lat="39.61189980672126" lon="8.788426571937261"><ele>85.0</ele><time>2026-05-02T16:19:23Z</time></trkpt><trkpt lat="39.61191752942049" lon="8.788311495307589"><ele>85.0</ele><time>2026-05-02T16:19:24Z</time></trkpt><trkpt lat="39.6119355920183" lon="8.788200970447027"><ele>85.0</ele><time>2026-05-02T16:19:25Z</time></trkpt><trkpt lat="39.61194738254821" lon="8.788096301002955"><ele>85.0</ele><time>2026-05-02T16:19:26Z</time></trkpt><trkpt lat="39.61194385618603" lon="8.787996079640441"><ele>85.0</ele><time>2026-05-02T16:19:27Z</time></trkpt><trkpt lat="39.611916561882694" lon="8.787889676351458"><ele>85.0</ele><time>2026-05-02T16:19:28Z</time></trkpt><trkpt lat="39.61187335266215" lon="8.787782922849189"><ele>85.0</ele><time>2026-05-02T16:19:29Z</time></trkpt><trkpt lat="39.61183324479864" lon="8.787684453939777"><ele>85.5</ele><time>2026-05-02T16:19:30Z</time></trkpt><trkpt lat="39.6118106474445" lon="8.787584201726157"><ele>86.0</ele><time>2026-05-02T16:19:31Z</time></trkpt><trkpt lat="39.61181035170918" lon="8.787478229478568"><ele>86.5</ele><time>2026-05-02T16:19:32Z</time></trkpt><trkpt lat="39.61183297405859" lon="8.787371727800487"><ele>87.0</ele><time>2026-05-02T16:19:33Z</time></trkpt><trkpt lat="39.61188525558338" lon="8.787280094323297"><ele>87.5</ele><time>2026-05-02T16:19:34Z</time></trkpt><trkpt lat="39.611959788301704" lon="8.78720546849098"><ele>88.0</ele><time>2026-05-02T16:19:35Z</time></trkpt><trkpt lat="39.61204805908007" lon="8.78714671978641"><ele>88.0</ele><time>2026-05-02T16:19:36Z</time></trkpt><trkpt lat="39.61211979582716" lon="8.787102593601725"><ele>88.0</ele><time>2026-05-02T16:19:37Z</time></trkpt><trkpt lat="39.61218097048316" lon="8.787062984610623"><ele>88.0</ele><time>2026-05-02T16:19:38Z</time></trkpt><trkpt lat="39.612278985221266" lon="8.787025065367086"><ele>88.0</ele><time>2026-05-02T16:19:40Z</time></trkpt><trkpt lat="39.61237037723958" lon="8.78706913557163"><ele>88.0</ele><time>2026-05-02T16:19:42Z</time></trkpt><trkpt lat="39.61240998015481" lon="8.787144480134213"><ele>88.0</ele><time>2026-05-02T16:19:43Z</time></trkpt><trkpt lat="39.61245176675018" lon="8.787256181274639"><ele>88.0</ele><time>2026-05-02T16:19:44Z</time></trkpt><trkpt lat="39.61250271506979" lon="8.7873998840341"><ele>88.0</ele><time>2026-05-02T16:19:45Z</time></trkpt><trkpt lat="39.61256304499138" lon="8.78755804559315"><ele>88.0</ele><time>2026-05-02T16:19:46Z</time></trkpt><trkpt lat="39.61263740186852" lon="8.78770690885458"><ele>88.0</ele><time>2026-05-02T16:19:47Z</time></trkpt><trkpt lat="39.61270099640955" lon="8.78783731204579"><ele>88.33333333333333</ele><time>2026-05-02T16:19:48Z</time></trkpt><trkpt lat="39.612741408120705" lon="8.787920010159112"><ele>88.66666666666666</ele><time>2026-05-02T16:19:49Z</time></trkpt><trkpt lat="39.612784224472435" lon="8.787998723663504"><ele>89.0</ele><time>2026-05-02T16:19:53Z</time></trkpt><trkpt lat="39.612845018861975" lon="8.78796621616978"><ele>89.33333333333333</ele><time>2026-05-02T16:19:55Z</time></trkpt><trkpt lat="39.61287099329899" lon="8.787890007088802"><ele>89.66666666666667</ele><time>2026-05-02T16:19:56Z</time></trkpt><trkpt lat="39.612865774768125" lon="8.787772498304427"><ele>90.0</ele><time>2026-05-02T16:19:57Z</time></trkpt><trkpt lat="39.61285611849874" lon="8.787665562038569"><ele>91.0</ele><time>2026-05-02T16:19:58Z</time></trkpt><trkpt lat="39.61285391176945" lon="8.787532779541932"><ele>92.0</ele><time>2026-05-02T16:19:59Z</time></trkpt><trkpt lat="39.61286923701115" lon="8.787400741990016"><ele>93.0</ele><time>2026-05-02T16:20:00Z</time></trkpt><trkpt lat="39.61288089243105" lon="8.787287713317106"><ele>94.0</ele><time>2026-05-02T16:20:01Z</time></trkpt><trkpt lat="39.61289415101056" lon="8.787175631765816"><ele>95.0</ele><time>2026-05-02T16:20:02Z</time></trkpt><trkpt lat="39.61289582097114" lon="8.787093789180364"><ele>96.0</ele><time>2026-05-02T16:20:03Z</time></trkpt><trkpt lat="39.612930264346055" lon="8.786941336138902"><ele>96.0</ele><time>2026-05-02T16:20:05Z</time></trkpt><trkpt lat="39.612993915335124" lon="8.786889628184426"><ele>96.0</ele><time>2026-05-02T16:20:06Z</time></trkpt><trkpt lat="39.613052530055896" lon="8.786810708161468"><ele>96.0</ele><time>2026-05-02T16:20:07Z</time></trkpt><trkpt lat="39.613127307108876" lon="8.786731180768601"><ele>96.0</ele><time>2026-05-02T16:20:08Z</time></trkpt><trkpt lat="39.613196141287425" lon="8.786655253199893"><ele>96.0</ele><time>2026-05-02T16:20:09Z</time></trkpt><trkpt lat="39.61325953034851" lon="8.786581605292225"><ele>96.0</ele><time>2026-05-02T16:20:10Z</time></trkpt><trkpt lat="39.61335234551914" lon="8.786488961454221"><ele>95.33333333333333</ele><time>2026-05-02T16:20:12Z</time></trkpt><trkpt lat="39.61343315095804" lon="8.786411973342473"><ele>94.66666666666667</ele><time>2026-05-02T16:20:14Z</time></trkpt><trkpt lat="39.613505653167195" lon="8.786342470663286"><ele>94.0</ele><time>2026-05-02T16:20:16Z</time></trkpt><trkpt lat="39.613587620595375" lon="8.786256924935543"><ele>93.33333333333334</ele><time>2026-05-02T16:20:18Z</time></trkpt><trkpt lat="39.61363370979076" lon="8.786172414157587"><ele>92.66666666666667</ele><time>2026-05-02T16:20:20Z</time></trkpt><trkpt lat="39.61367706270194" lon="8.7861106086761"><ele>92.0</ele><time>2026-05-02T16:20:22Z</time></trkpt><trkpt lat="39.61370527061083" lon="8.785993806672664"><ele>91.8</ele><time>2026-05-02T16:20:25Z</time></trkpt><trkpt lat="39.613700456167" lon="8.785833945676867"><ele>91.6</ele><time>2026-05-02T16:20:27Z</time></trkpt><trkpt lat="39.61372031276633" lon="8.785755830710988"><ele>91.39999999999999</ele><time>2026-05-02T16:20:28Z</time></trkpt><trkpt lat="39.613735901061766" lon="8.785613318512544"><ele>91.19999999999999</ele><time>2026-05-02T16:20:30Z</time></trkpt><trkpt lat="39.61375715287171" lon="8.785505521693036"><ele>91.0</ele><time>2026-05-02T16:20:32Z</time></trkpt><trkpt lat="39.6138237999948" lon="8.78543719732178"><ele>91.0</ele><time>2026-05-02T16:20:34Z</time></trkpt><trkpt lat="39.613894131807726" lon="8.785390866252733"><ele>91.0</ele><time>2026-05-02T16:20:36Z</time></trkpt><trkpt lat="39.61394032165883" lon="8.785324690344922"><ele>91.0</ele><time>2026-05-02T16:20:38Z</time></trkpt><trkpt lat="39.61399162217442" lon="8.785272594702166"><ele>91.0</ele><time>2026-05-02T16:20:41Z</time></trkpt><trkpt lat="39.614056252357486" lon="8.78529501982777"><ele>91.0</ele><time>2026-05-02T16:20:43Z</time></trkpt><trkpt lat="39.614129133581514" lon="8.78536185317285"><ele>91.0</ele><time>2026-05-02T16:20:45Z</time></trkpt><trkpt lat="39.61417966915862" lon="8.785438408641143"><ele>91.0</ele><time>2026-05-02T16:20:47Z</time></trkpt><trkpt lat="39.61423389549467" lon="8.785515750280368"><ele>91.0</ele><time>2026-05-02T16:20:49Z</time></trkpt><trkpt lat="39.61428345404059" lon="8.785602652469658"><ele>91.0</ele><time>2026-05-02T16:20:51Z</time></trkpt><trkpt lat="39.61434221475497" lon="8.785685973461232"><ele>91.0</ele><time>2026-05-02T16:20:54Z</time></trkpt><trkpt lat="39.614387224742494" lon="8.785761800330304"><ele>91.0</ele><time>2026-05-02T16:20:56Z</time></trkpt><trkpt lat="39.61440551931984" lon="8.785854110812675"><ele>91.0</ele><time>2026-05-02T16:20:58Z</time></trkpt><trkpt lat="39.614400528168716" lon="8.785946095277916"><ele>91.0</ele><time>2026-05-02T16:21:00Z</time></trkpt><trkpt lat="39.61439945554341" lon="8.786030051010638"><ele>91.16666666666666</ele><time>2026-05-02T16:21:02Z</time></trkpt><trkpt lat="39.614465513962834" lon="8.786158401937262"><ele>91.33333333333333</ele><time>2026-05-02T16:21:04Z</time></trkpt><trkpt lat="39.61450632902907" lon="8.786243986982111"><ele>91.5</ele><time>2026-05-02T16:21:06Z</time></trkpt><trkpt lat="39.61451458490305" lon="8.786344821949022"><ele>91.66666666666667</ele><time>2026-05-02T16:21:09Z</time></trkpt><trkpt lat="39.61448798778244" lon="8.786425276596267"><ele>91.83333333333334</ele><time>2026-05-02T16:21:14Z</time></trkpt><trkpt lat="39.614440723857925" lon="8.786488421693106"><ele>92.0</ele><time>2026-05-02T16:21:23Z</time></trkpt><trkpt lat="39.61450562868968" lon="8.786447364747076"><ele>92.0</ele><time>2026-05-02T16:21:30Z</time></trkpt><trkpt lat="39.61452261828845" lon="8.786319667970114"><ele>92.0</ele><time>2026-05-02T16:21:32Z</time></trkpt><trkpt lat="39.61450035262405" lon="8.786203528743439"><ele>92.0</ele><time>2026-05-02T16:21:34Z</time></trkpt><trkpt lat="39.61445248622595" lon="8.78612287253354"><ele>92.0</ele><time>2026-05-02T16:21:38Z</time></trkpt><trkpt lat="39.61439927663354" lon="8.786047279306354"><ele>92.0</ele><time>2026-05-02T16:21:55Z</time></trkpt><trkpt lat="39.61437525876237" lon="8.785962154302027"><ele>92.0</ele><time>2026-05-02T16:22:00Z</time></trkpt><trkpt lat="39.614385145329386" lon="8.785854100866164"><ele>91.83333333333334</ele><time>2026-05-02T16:22:04Z</time></trkpt><trkpt lat="39.61435292469877" lon="8.78574996989437"><ele>91.66666666666667</ele><time>2026-05-02T16:22:06Z</time></trkpt><trkpt lat="39.61429976274042" lon="8.785661934893382"><ele>91.5</ele><time>2026-05-02T16:22:08Z</time></trkpt><trkpt lat="39.614253283817085" lon="8.785578576459065"><ele>91.33333333333333</ele><time>2026-05-02T16:22:10Z</time></trkpt><trkpt lat="39.61421118285756" lon="8.785483231097432"><ele>91.16666666666666</ele><time>2026-05-02T16:22:12Z</time></trkpt><trkpt lat="39.61417241286316" lon="8.785393161289255"><ele>91.0</ele><time>2026-05-02T16:22:14Z</time></trkpt><trkpt lat="39.61416531401808" lon="8.785488732371842"><ele>91.0</ele><time>2026-05-02T16:22:21Z</time></trkpt><trkpt lat="39.614259650462735" lon="8.785580178638375"><ele>91.0</ele><time>2026-05-02T16:22:23Z</time></trkpt><trkpt lat="39.61431438306736" lon="8.785659279679532"><ele>91.0</ele><time>2026-05-02T16:22:24Z</time></trkpt><trkpt lat="39.61436077811309" lon="8.785792367787947"><ele>91.0</ele><time>2026-05-02T16:22:26Z</time></trkpt><trkpt lat="39.61438095809034" lon="8.785901377248152"><ele>91.0</ele><time>2026-05-02T16:22:28Z</time></trkpt><trkpt lat="39.61437939274316" lon="8.785997520002482"><ele>91.14285714285714</ele><time>2026-05-02T16:22:31Z</time></trkpt><trkpt lat="39.6144131289972" lon="8.78608488952758"><ele>91.28571428571428</ele><time>2026-05-02T16:22:34Z</time></trkpt><trkpt lat="39.61445309598861" lon="8.786154843434701"><ele>91.42857142857143</ele><time>2026-05-02T16:22:36Z</time></trkpt><trkpt lat="39.61448558082184" lon="8.78625959061788"><ele>91.57142857142857</ele><time>2026-05-02T16:22:39Z</time></trkpt><trkpt lat="39.61449938638218" lon="8.786346014160152"><ele>91.71428571428571</ele><time>2026-05-02T16:22:43Z</time></trkpt><trkpt lat="39.61449682792101" lon="8.786263792277387"><ele>91.85714285714286</ele><time>2026-05-02T16:25:26Z</time></trkpt><trkpt lat="39.61446214389078" lon="8.786181636472778"><ele>92.0</ele><time>2026-05-02T16:25:31Z</time></trkpt><trkpt lat="39.61442083494477" lon="8.786115377433893"><ele>92.0</ele><time>2026-05-02T16:25:37Z</time></trkpt></trkseg></trk></gpx>